<?xml version="1.0" encoding="UTF-8" standalone="no" ?>
<gpx xmlns="http://www.topografix.com/GPX/1/1" xmlns:xsi="http://www.w3.org/2001/XMLSchema-instance" xsi:schemaLocation="http://www.topografix.com/GPX/1/1 http://www.topografix.com/GPX/1/1/gpx.xsd" version="1.1" creator="VisuGPX - https://www.visugpx.com">
  <metadata>
    <name>Black Mountain </name>
    <desc><![CDATA[Pas mal de descentes de la BMR : 
T2 / goulet / sagne / la locale
T3
T1 / Forêt de montaud / la resse]]></desc>
  </metadata>
  <trk>
    <name><![CDATA[45 km environ | Ride | Strava]]></name>
    <trkseg>
      <trkpt lat="43.50665" lon="2.29797">
        <ele>319.3</ele>
        <time>2017-06-01T07:13:00.000Z</time>
      </trkpt>
      <trkpt lat="43.50662" lon="2.29794">
        <ele>320.4</ele>
        <time>2017-06-01T07:13:01.000Z</time>
      </trkpt>
      <trkpt lat="43.50659" lon="2.29793">
        <ele>321.1</ele>
        <time>2017-06-01T07:13:04.000Z</time>
      </trkpt>
      <trkpt lat="43.50658" lon="2.29798">
        <ele>320.7</ele>
        <time>2017-06-01T07:13:33.000Z</time>
      </trkpt>
      <trkpt lat="43.50658" lon="2.29801">
        <ele>320.3</ele>
        <time>2017-06-01T07:14:22.000Z</time>
      </trkpt>
      <trkpt lat="43.50659" lon="2.29798">
        <ele>320.7</ele>
        <time>2017-06-01T07:14:28.000Z</time>
      </trkpt>
      <trkpt lat="43.50658" lon="2.29794">
        <ele>321.1</ele>
        <time>2017-06-01T07:14:39.000Z</time>
      </trkpt>
      <trkpt lat="43.5066" lon="2.29788">
        <ele>321.5</ele>
        <time>2017-06-01T07:15:39.000Z</time>
      </trkpt>
      <trkpt lat="43.50663" lon="2.29791">
        <ele>320.4</ele>
        <time>2017-06-01T07:15:42.000Z</time>
      </trkpt>
      <trkpt lat="43.5066" lon="2.29795">
        <ele>320.7</ele>
        <time>2017-06-01T07:17:26.000Z</time>
      </trkpt>
      <trkpt lat="43.50659" lon="2.29799">
        <ele>320.3</ele>
        <time>2017-06-01T07:17:29.000Z</time>
      </trkpt>
      <trkpt lat="43.50658" lon="2.29804">
        <ele>319.9</ele>
        <time>2017-06-01T07:17:34.000Z</time>
      </trkpt>
      <trkpt lat="43.50658" lon="2.29808">
        <ele>319.5</ele>
        <time>2017-06-01T07:17:37.000Z</time>
      </trkpt>
      <trkpt lat="43.50656" lon="2.29814">
        <ele>319.8</ele>
        <time>2017-06-01T07:17:39.000Z</time>
      </trkpt>
      <trkpt lat="43.50653" lon="2.29817">
        <ele>320.1</ele>
        <time>2017-06-01T07:17:40.000Z</time>
      </trkpt>
      <trkpt lat="43.50653" lon="2.29822">
        <ele>319.7</ele>
        <time>2017-06-01T07:17:43.000Z</time>
      </trkpt>
      <trkpt lat="43.50654" lon="2.29826">
        <ele>319.3</ele>
        <time>2017-06-01T07:17:45.000Z</time>
      </trkpt>
      <trkpt lat="43.50654" lon="2.29831">
        <ele>318.9</ele>
        <time>2017-06-01T07:17:47.000Z</time>
      </trkpt>
      <trkpt lat="43.50653" lon="2.29835">
        <ele>318.5</ele>
        <time>2017-06-01T07:17:49.000Z</time>
      </trkpt>
      <trkpt lat="43.5065" lon="2.29839">
        <ele>318.9</ele>
        <time>2017-06-01T07:17:51.000Z</time>
      </trkpt>
      <trkpt lat="43.50647" lon="2.29842">
        <ele>319.2</ele>
        <time>2017-06-01T07:17:53.000Z</time>
      </trkpt>
      <trkpt lat="43.50643" lon="2.29845">
        <ele>319.6</ele>
        <time>2017-06-01T07:17:55.000Z</time>
      </trkpt>
      <trkpt lat="43.5064" lon="2.29846">
        <ele>320.1</ele>
        <time>2017-06-01T07:17:56.000Z</time>
      </trkpt>
      <trkpt lat="43.50637" lon="2.29848">
        <ele>320.6</ele>
        <time>2017-06-01T07:17:59.000Z</time>
      </trkpt>
      <trkpt lat="43.50634" lon="2.29848">
        <ele>321.3</ele>
        <time>2017-06-01T07:18:01.000Z</time>
      </trkpt>
      <trkpt lat="43.5063" lon="2.29846">
        <ele>321.9</ele>
        <time>2017-06-01T07:18:03.000Z</time>
      </trkpt>
      <trkpt lat="43.50625" lon="2.29844">
        <ele>322.8</ele>
        <time>2017-06-01T07:18:06.000Z</time>
      </trkpt>
      <trkpt lat="43.50621" lon="2.29841">
        <ele>324.2</ele>
        <time>2017-06-01T07:18:08.000Z</time>
      </trkpt>
      <trkpt lat="43.50618" lon="2.29837">
        <ele>325.5</ele>
        <time>2017-06-01T07:18:10.000Z</time>
      </trkpt>
      <trkpt lat="43.50615" lon="2.29833">
        <ele>326.7</ele>
        <time>2017-06-01T07:18:12.000Z</time>
      </trkpt>
      <trkpt lat="43.50612" lon="2.29831">
        <ele>327.9</ele>
        <time>2017-06-01T07:18:14.000Z</time>
      </trkpt>
      <trkpt lat="43.50609" lon="2.29827">
        <ele>328.2</ele>
        <time>2017-06-01T07:18:16.000Z</time>
      </trkpt>
      <trkpt lat="43.50607" lon="2.29824">
        <ele>328.3</ele>
        <time>2017-06-01T07:18:18.000Z</time>
      </trkpt>
      <trkpt lat="43.50604" lon="2.2982">
        <ele>328.5</ele>
        <time>2017-06-01T07:18:20.000Z</time>
      </trkpt>
      <trkpt lat="43.50601" lon="2.29818">
        <ele>328.6</ele>
        <time>2017-06-01T07:18:22.000Z</time>
      </trkpt>
      <trkpt lat="43.50597" lon="2.29814">
        <ele>328.9</ele>
        <time>2017-06-01T07:18:24.000Z</time>
      </trkpt>
      <trkpt lat="43.50593" lon="2.29814">
        <ele>329.1</ele>
        <time>2017-06-01T07:18:26.000Z</time>
      </trkpt>
      <trkpt lat="43.50589" lon="2.29812">
        <ele>329.2</ele>
        <time>2017-06-01T07:18:28.000Z</time>
      </trkpt>
      <trkpt lat="43.50587" lon="2.29811">
        <ele>329.4</ele>
        <time>2017-06-01T07:18:30.000Z</time>
      </trkpt>
      <trkpt lat="43.50583" lon="2.2981">
        <ele>329.5</ele>
        <time>2017-06-01T07:18:32.000Z</time>
      </trkpt>
      <trkpt lat="43.50578" lon="2.29811">
        <ele>329.7</ele>
        <time>2017-06-01T07:18:34.000Z</time>
      </trkpt>
      <trkpt lat="43.50575" lon="2.29811">
        <ele>329.9</ele>
        <time>2017-06-01T07:18:37.000Z</time>
      </trkpt>
      <trkpt lat="43.50572" lon="2.29811">
        <ele>330</ele>
        <time>2017-06-01T07:18:38.000Z</time>
      </trkpt>
      <trkpt lat="43.50568" lon="2.29811">
        <ele>330.2</ele>
        <time>2017-06-01T07:18:40.000Z</time>
      </trkpt>
      <trkpt lat="43.50565" lon="2.29812">
        <ele>330.3</ele>
        <time>2017-06-01T07:18:42.000Z</time>
      </trkpt>
      <trkpt lat="43.50561" lon="2.29812">
        <ele>330.5</ele>
        <time>2017-06-01T07:18:44.000Z</time>
      </trkpt>
      <trkpt lat="43.50558" lon="2.29814">
        <ele>330.7</ele>
        <time>2017-06-01T07:18:45.000Z</time>
      </trkpt>
      <trkpt lat="43.50553" lon="2.29814">
        <ele>330.9</ele>
        <time>2017-06-01T07:18:47.000Z</time>
      </trkpt>
      <trkpt lat="43.50548" lon="2.29814">
        <ele>331.1</ele>
        <time>2017-06-01T07:18:49.000Z</time>
      </trkpt>
      <trkpt lat="43.50546" lon="2.29813">
        <ele>331.2</ele>
        <time>2017-06-01T07:18:51.000Z</time>
      </trkpt>
      <trkpt lat="43.50542" lon="2.29809">
        <ele>331.4</ele>
        <time>2017-06-01T07:18:53.000Z</time>
      </trkpt>
      <trkpt lat="43.50538" lon="2.29809">
        <ele>331.6</ele>
        <time>2017-06-01T07:18:55.000Z</time>
      </trkpt>
      <trkpt lat="43.50533" lon="2.29806">
        <ele>331.9</ele>
        <time>2017-06-01T07:18:57.000Z</time>
      </trkpt>
      <trkpt lat="43.50528" lon="2.29806">
        <ele>332.1</ele>
        <time>2017-06-01T07:18:59.000Z</time>
      </trkpt>
      <trkpt lat="43.50525" lon="2.29806">
        <ele>332.2</ele>
        <time>2017-06-01T07:19:01.000Z</time>
      </trkpt>
      <trkpt lat="43.5052" lon="2.29807">
        <ele>332.5</ele>
        <time>2017-06-01T07:19:03.000Z</time>
      </trkpt>
      <trkpt lat="43.50517" lon="2.29803">
        <ele>332.7</ele>
        <time>2017-06-01T07:19:06.000Z</time>
      </trkpt>
      <trkpt lat="43.50514" lon="2.29804">
        <ele>332.8</ele>
        <time>2017-06-01T07:19:08.000Z</time>
      </trkpt>
      <trkpt lat="43.50511" lon="2.29806">
        <ele>332.9</ele>
        <time>2017-06-01T07:19:12.000Z</time>
      </trkpt>
      <trkpt lat="43.50507" lon="2.29805">
        <ele>333.1</ele>
        <time>2017-06-01T07:19:14.000Z</time>
      </trkpt>
      <trkpt lat="43.50504" lon="2.29805">
        <ele>333.2</ele>
        <time>2017-06-01T07:19:15.000Z</time>
      </trkpt>
      <trkpt lat="43.505" lon="2.29804">
        <ele>333.4</ele>
        <time>2017-06-01T07:19:17.000Z</time>
      </trkpt>
      <trkpt lat="43.50497" lon="2.29803">
        <ele>333.6</ele>
        <time>2017-06-01T07:19:19.000Z</time>
      </trkpt>
      <trkpt lat="43.50494" lon="2.29802">
        <ele>333.7</ele>
        <time>2017-06-01T07:19:21.000Z</time>
      </trkpt>
      <trkpt lat="43.50491" lon="2.29804">
        <ele>333.9</ele>
        <time>2017-06-01T07:19:23.000Z</time>
      </trkpt>
      <trkpt lat="43.50486" lon="2.29804">
        <ele>334.1</ele>
        <time>2017-06-01T07:19:25.000Z</time>
      </trkpt>
      <trkpt lat="43.50483" lon="2.29804">
        <ele>334.2</ele>
        <time>2017-06-01T07:19:27.000Z</time>
      </trkpt>
      <trkpt lat="43.50479" lon="2.29803">
        <ele>334.4</ele>
        <time>2017-06-01T07:19:29.000Z</time>
      </trkpt>
      <trkpt lat="43.50476" lon="2.29804">
        <ele>334.6</ele>
        <time>2017-06-01T07:19:30.000Z</time>
      </trkpt>
      <trkpt lat="43.50472" lon="2.29802">
        <ele>334.7</ele>
        <time>2017-06-01T07:19:32.000Z</time>
      </trkpt>
      <trkpt lat="43.50469" lon="2.29802">
        <ele>334.9</ele>
        <time>2017-06-01T07:19:34.000Z</time>
      </trkpt>
      <trkpt lat="43.50467" lon="2.29799">
        <ele>335</ele>
        <time>2017-06-01T07:19:35.000Z</time>
      </trkpt>
      <trkpt lat="43.50463" lon="2.29797">
        <ele>335.2</ele>
        <time>2017-06-01T07:19:37.000Z</time>
      </trkpt>
      <trkpt lat="43.50459" lon="2.29794">
        <ele>335.4</ele>
        <time>2017-06-01T07:19:39.000Z</time>
      </trkpt>
      <trkpt lat="43.50457" lon="2.29788">
        <ele>335.6</ele>
        <time>2017-06-01T07:19:40.000Z</time>
      </trkpt>
      <trkpt lat="43.50454" lon="2.29786">
        <ele>335.8</ele>
        <time>2017-06-01T07:19:41.000Z</time>
      </trkpt>
      <trkpt lat="43.5045" lon="2.29785">
        <ele>336</ele>
        <time>2017-06-01T07:19:43.000Z</time>
      </trkpt>
      <trkpt lat="43.50447" lon="2.29785">
        <ele>336.1</ele>
        <time>2017-06-01T07:19:45.000Z</time>
      </trkpt>
      <trkpt lat="43.50443" lon="2.29783">
        <ele>336.3</ele>
        <time>2017-06-01T07:19:48.000Z</time>
      </trkpt>
      <trkpt lat="43.50441" lon="2.29786">
        <ele>336.4</ele>
        <time>2017-06-01T07:19:49.000Z</time>
      </trkpt>
      <trkpt lat="43.50438" lon="2.29789">
        <ele>336.6</ele>
        <time>2017-06-01T07:19:50.000Z</time>
      </trkpt>
      <trkpt lat="43.50436" lon="2.2979">
        <ele>336.7</ele>
        <time>2017-06-01T07:19:52.000Z</time>
      </trkpt>
      <trkpt lat="43.50433" lon="2.29791">
        <ele>336.9</ele>
        <time>2017-06-01T07:19:53.000Z</time>
      </trkpt>
      <trkpt lat="43.50429" lon="2.29793">
        <ele>337</ele>
        <time>2017-06-01T07:19:54.000Z</time>
      </trkpt>
      <trkpt lat="43.50424" lon="2.29792">
        <ele>337.3</ele>
        <time>2017-06-01T07:19:56.000Z</time>
      </trkpt>
      <trkpt lat="43.50421" lon="2.29792">
        <ele>337.4</ele>
        <time>2017-06-01T07:19:57.000Z</time>
      </trkpt>
      <trkpt lat="43.50417" lon="2.29792">
        <ele>337.6</ele>
        <time>2017-06-01T07:19:58.000Z</time>
      </trkpt>
      <trkpt lat="43.50414" lon="2.29792">
        <ele>337.8</ele>
        <time>2017-06-01T07:19:59.000Z</time>
      </trkpt>
      <trkpt lat="43.5041" lon="2.29794">
        <ele>337.9</ele>
        <time>2017-06-01T07:20:01.000Z</time>
      </trkpt>
      <trkpt lat="43.50406" lon="2.29793">
        <ele>338.1</ele>
        <time>2017-06-01T07:20:03.000Z</time>
      </trkpt>
      <trkpt lat="43.50403" lon="2.29791">
        <ele>338.3</ele>
        <time>2017-06-01T07:20:04.000Z</time>
      </trkpt>
      <trkpt lat="43.50399" lon="2.29791">
        <ele>338.5</ele>
        <time>2017-06-01T07:20:06.000Z</time>
      </trkpt>
      <trkpt lat="43.50394" lon="2.29792">
        <ele>338.7</ele>
        <time>2017-06-01T07:20:08.000Z</time>
      </trkpt>
      <trkpt lat="43.50391" lon="2.29792">
        <ele>338.8</ele>
        <time>2017-06-01T07:20:10.000Z</time>
      </trkpt>
      <trkpt lat="43.50388" lon="2.29791">
        <ele>339</ele>
        <time>2017-06-01T07:20:11.000Z</time>
      </trkpt>
      <trkpt lat="43.50385" lon="2.2979">
        <ele>339.1</ele>
        <time>2017-06-01T07:20:12.000Z</time>
      </trkpt>
      <trkpt lat="43.50381" lon="2.29789">
        <ele>339.3</ele>
        <time>2017-06-01T07:20:15.000Z</time>
      </trkpt>
      <trkpt lat="43.50376" lon="2.29791">
        <ele>339.5</ele>
        <time>2017-06-01T07:20:17.000Z</time>
      </trkpt>
      <trkpt lat="43.50372" lon="2.29792">
        <ele>339.7</ele>
        <time>2017-06-01T07:20:20.000Z</time>
      </trkpt>
      <trkpt lat="43.50369" lon="2.29792">
        <ele>339.9</ele>
        <time>2017-06-01T07:20:22.000Z</time>
      </trkpt>
      <trkpt lat="43.50365" lon="2.29791">
        <ele>340</ele>
        <time>2017-06-01T07:20:23.000Z</time>
      </trkpt>
      <trkpt lat="43.50361" lon="2.29793">
        <ele>340.2</ele>
        <time>2017-06-01T07:20:25.000Z</time>
      </trkpt>
      <trkpt lat="43.50358" lon="2.29791">
        <ele>340.4</ele>
        <time>2017-06-01T07:20:26.000Z</time>
      </trkpt>
      <trkpt lat="43.50354" lon="2.2979">
        <ele>340.6</ele>
        <time>2017-06-01T07:20:29.000Z</time>
      </trkpt>
      <trkpt lat="43.50351" lon="2.2979">
        <ele>340.7</ele>
        <time>2017-06-01T07:20:31.000Z</time>
      </trkpt>
      <trkpt lat="43.50348" lon="2.2979">
        <ele>340.8</ele>
        <time>2017-06-01T07:20:33.000Z</time>
      </trkpt>
      <trkpt lat="43.50345" lon="2.29792">
        <ele>341</ele>
        <time>2017-06-01T07:20:35.000Z</time>
      </trkpt>
      <trkpt lat="43.50341" lon="2.29792">
        <ele>341.2</ele>
        <time>2017-06-01T07:20:36.000Z</time>
      </trkpt>
      <trkpt lat="43.50337" lon="2.29792">
        <ele>341.4</ele>
        <time>2017-06-01T07:20:38.000Z</time>
      </trkpt>
      <trkpt lat="43.50333" lon="2.29792">
        <ele>341.6</ele>
        <time>2017-06-01T07:20:40.000Z</time>
      </trkpt>
      <trkpt lat="43.50328" lon="2.29792">
        <ele>341.8</ele>
        <time>2017-06-01T07:20:42.000Z</time>
      </trkpt>
      <trkpt lat="43.50324" lon="2.29794">
        <ele>342</ele>
        <time>2017-06-01T07:20:44.000Z</time>
      </trkpt>
      <trkpt lat="43.5032" lon="2.29794">
        <ele>342.1</ele>
        <time>2017-06-01T07:20:46.000Z</time>
      </trkpt>
      <trkpt lat="43.50316" lon="2.29793">
        <ele>342.3</ele>
        <time>2017-06-01T07:20:48.000Z</time>
      </trkpt>
      <trkpt lat="43.50311" lon="2.29792">
        <ele>342.5</ele>
        <time>2017-06-01T07:20:50.000Z</time>
      </trkpt>
      <trkpt lat="43.50307" lon="2.2979">
        <ele>342.7</ele>
        <time>2017-06-01T07:20:52.000Z</time>
      </trkpt>
      <trkpt lat="43.50304" lon="2.29791">
        <ele>342.9</ele>
        <time>2017-06-01T07:20:54.000Z</time>
      </trkpt>
      <trkpt lat="43.503" lon="2.29787">
        <ele>343.1</ele>
        <time>2017-06-01T07:20:56.000Z</time>
      </trkpt>
      <trkpt lat="43.50297" lon="2.29787">
        <ele>343.3</ele>
        <time>2017-06-01T07:20:57.000Z</time>
      </trkpt>
      <trkpt lat="43.50294" lon="2.29785">
        <ele>343.4</ele>
        <time>2017-06-01T07:20:59.000Z</time>
      </trkpt>
      <trkpt lat="43.50292" lon="2.29786">
        <ele>343.5</ele>
        <time>2017-06-01T07:21:00.000Z</time>
      </trkpt>
      <trkpt lat="43.50288" lon="2.29786">
        <ele>343.7</ele>
        <time>2017-06-01T07:21:02.000Z</time>
      </trkpt>
      <trkpt lat="43.50285" lon="2.29786">
        <ele>343.9</ele>
        <time>2017-06-01T07:21:03.000Z</time>
      </trkpt>
      <trkpt lat="43.50283" lon="2.29782">
        <ele>344</ele>
        <time>2017-06-01T07:21:05.000Z</time>
      </trkpt>
      <trkpt lat="43.5028" lon="2.29783">
        <ele>344.1</ele>
        <time>2017-06-01T07:21:09.000Z</time>
      </trkpt>
      <trkpt lat="43.50275" lon="2.29783">
        <ele>344.3</ele>
        <time>2017-06-01T07:21:11.000Z</time>
      </trkpt>
      <trkpt lat="43.50272" lon="2.29783">
        <ele>344.5</ele>
        <time>2017-06-01T07:21:15.000Z</time>
      </trkpt>
      <trkpt lat="43.50267" lon="2.29788">
        <ele>344.8</ele>
        <time>2017-06-01T07:21:17.000Z</time>
      </trkpt>
      <trkpt lat="43.50263" lon="2.29793">
        <ele>345</ele>
        <time>2017-06-01T07:21:19.000Z</time>
      </trkpt>
      <trkpt lat="43.50262" lon="2.29798">
        <ele>345.2</ele>
        <time>2017-06-01T07:21:21.000Z</time>
      </trkpt>
      <trkpt lat="43.5026" lon="2.29797">
        <ele>345.3</ele>
        <time>2017-06-01T07:21:22.000Z</time>
      </trkpt>
      <trkpt lat="43.50259" lon="2.29801">
        <ele>345.5</ele>
        <time>2017-06-01T07:21:24.000Z</time>
      </trkpt>
      <trkpt lat="43.50258" lon="2.29805">
        <ele>345.6</ele>
        <time>2017-06-01T07:21:28.000Z</time>
      </trkpt>
      <trkpt lat="43.50257" lon="2.2981">
        <ele>345.8</ele>
        <time>2017-06-01T07:21:29.000Z</time>
      </trkpt>
      <trkpt lat="43.50255" lon="2.29812">
        <ele>345.9</ele>
        <time>2017-06-01T07:21:36.000Z</time>
      </trkpt>
      <trkpt lat="43.50253" lon="2.29815">
        <ele>346</ele>
        <time>2017-06-01T07:21:38.000Z</time>
      </trkpt>
      <trkpt lat="43.5025" lon="2.29817">
        <ele>346.2</ele>
        <time>2017-06-01T07:21:40.000Z</time>
      </trkpt>
      <trkpt lat="43.50247" lon="2.29823">
        <ele>346.4</ele>
        <time>2017-06-01T07:21:42.000Z</time>
      </trkpt>
      <trkpt lat="43.50242" lon="2.29838">
        <ele>347</ele>
        <time>2017-06-01T07:21:43.000Z</time>
      </trkpt>
      <trkpt lat="43.50256" lon="2.29847">
        <ele>347.7</ele>
        <time>2017-06-01T07:21:44.000Z</time>
      </trkpt>
      <trkpt lat="43.50253" lon="2.29845">
        <ele>347.8</ele>
        <time>2017-06-01T07:21:45.000Z</time>
      </trkpt>
      <trkpt lat="43.50263" lon="2.29845">
        <ele>348.3</ele>
        <time>2017-06-01T07:21:46.000Z</time>
      </trkpt>
      <trkpt lat="43.50257" lon="2.29844">
        <ele>348.5</ele>
        <time>2017-06-01T07:21:47.000Z</time>
      </trkpt>
      <trkpt lat="43.50257" lon="2.29849">
        <ele>348.7</ele>
        <time>2017-06-01T07:21:49.000Z</time>
      </trkpt>
      <trkpt lat="43.5026" lon="2.29852">
        <ele>348.9</ele>
        <time>2017-06-01T07:21:50.000Z</time>
      </trkpt>
      <trkpt lat="43.50265" lon="2.29857">
        <ele>349.1</ele>
        <time>2017-06-01T07:21:51.000Z</time>
      </trkpt>
      <trkpt lat="43.50267" lon="2.29863">
        <ele>349.3</ele>
        <time>2017-06-01T07:21:53.000Z</time>
      </trkpt>
      <trkpt lat="43.5027" lon="2.29865">
        <ele>349.5</ele>
        <time>2017-06-01T07:21:54.000Z</time>
      </trkpt>
      <trkpt lat="43.50268" lon="2.29871">
        <ele>349.7</ele>
        <time>2017-06-01T07:21:56.000Z</time>
      </trkpt>
      <trkpt lat="43.5027" lon="2.29875">
        <ele>349.9</ele>
        <time>2017-06-01T07:21:58.000Z</time>
      </trkpt>
      <trkpt lat="43.50269" lon="2.29881">
        <ele>350</ele>
        <time>2017-06-01T07:22:00.000Z</time>
      </trkpt>
      <trkpt lat="43.50267" lon="2.29887">
        <ele>350.3</ele>
        <time>2017-06-01T07:22:02.000Z</time>
      </trkpt>
      <trkpt lat="43.5027" lon="2.29892">
        <ele>350.5</ele>
        <time>2017-06-01T07:22:04.000Z</time>
      </trkpt>
      <trkpt lat="43.50269" lon="2.29898">
        <ele>350.7</ele>
        <time>2017-06-01T07:22:06.000Z</time>
      </trkpt>
      <trkpt lat="43.5027" lon="2.29903">
        <ele>350.9</ele>
        <time>2017-06-01T07:22:07.000Z</time>
      </trkpt>
      <trkpt lat="43.5027" lon="2.29907">
        <ele>351</ele>
        <time>2017-06-01T07:22:09.000Z</time>
      </trkpt>
      <trkpt lat="43.5027" lon="2.29912">
        <ele>351.2</ele>
        <time>2017-06-01T07:22:11.000Z</time>
      </trkpt>
      <trkpt lat="43.50272" lon="2.29917">
        <ele>351.4</ele>
        <time>2017-06-01T07:22:13.000Z</time>
      </trkpt>
      <trkpt lat="43.50269" lon="2.29922">
        <ele>351.6</ele>
        <time>2017-06-01T07:22:15.000Z</time>
      </trkpt>
      <trkpt lat="43.5027" lon="2.29927">
        <ele>351.8</ele>
        <time>2017-06-01T07:22:17.000Z</time>
      </trkpt>
      <trkpt lat="43.50269" lon="2.29933">
        <ele>352</ele>
        <time>2017-06-01T07:22:19.000Z</time>
      </trkpt>
      <trkpt lat="43.50269" lon="2.29939">
        <ele>352.2</ele>
        <time>2017-06-01T07:22:20.000Z</time>
      </trkpt>
      <trkpt lat="43.50268" lon="2.29944">
        <ele>352.4</ele>
        <time>2017-06-01T07:22:21.000Z</time>
      </trkpt>
      <trkpt lat="43.50267" lon="2.29953">
        <ele>352.6</ele>
        <time>2017-06-01T07:22:22.000Z</time>
      </trkpt>
      <trkpt lat="43.50264" lon="2.29961">
        <ele>352.9</ele>
        <time>2017-06-01T07:22:24.000Z</time>
      </trkpt>
      <trkpt lat="43.50259" lon="2.2996">
        <ele>353.2</ele>
        <time>2017-06-01T07:22:26.000Z</time>
      </trkpt>
      <trkpt lat="43.50256" lon="2.29963">
        <ele>353.3</ele>
        <time>2017-06-01T07:22:28.000Z</time>
      </trkpt>
      <trkpt lat="43.50253" lon="2.29967">
        <ele>353.5</ele>
        <time>2017-06-01T07:22:29.000Z</time>
      </trkpt>
      <trkpt lat="43.50256" lon="2.29971">
        <ele>353.7</ele>
        <time>2017-06-01T07:22:30.000Z</time>
      </trkpt>
      <trkpt lat="43.50251" lon="2.29976">
        <ele>354</ele>
        <time>2017-06-01T07:22:32.000Z</time>
      </trkpt>
      <trkpt lat="43.50249" lon="2.29979">
        <ele>354.1</ele>
        <time>2017-06-01T07:22:34.000Z</time>
      </trkpt>
      <trkpt lat="43.50244" lon="2.2998">
        <ele>354.3</ele>
        <time>2017-06-01T07:22:36.000Z</time>
      </trkpt>
      <trkpt lat="43.50242" lon="2.2998">
        <ele>354.5</ele>
        <time>2017-06-01T07:22:37.000Z</time>
      </trkpt>
      <trkpt lat="43.50239" lon="2.29982">
        <ele>354.6</ele>
        <time>2017-06-01T07:22:38.000Z</time>
      </trkpt>
      <trkpt lat="43.50235" lon="2.29982">
        <ele>354.8</ele>
        <time>2017-06-01T07:22:40.000Z</time>
      </trkpt>
      <trkpt lat="43.50232" lon="2.29982">
        <ele>354.9</ele>
        <time>2017-06-01T07:22:41.000Z</time>
      </trkpt>
      <trkpt lat="43.50227" lon="2.29979">
        <ele>355.2</ele>
        <time>2017-06-01T07:22:43.000Z</time>
      </trkpt>
      <trkpt lat="43.50224" lon="2.29978">
        <ele>355.3</ele>
        <time>2017-06-01T07:22:44.000Z</time>
      </trkpt>
      <trkpt lat="43.50221" lon="2.29978">
        <ele>355.5</ele>
        <time>2017-06-01T07:22:46.000Z</time>
      </trkpt>
      <trkpt lat="43.50218" lon="2.29978">
        <ele>355.6</ele>
        <time>2017-06-01T07:22:48.000Z</time>
      </trkpt>
      <trkpt lat="43.50213" lon="2.29979">
        <ele>355.8</ele>
        <time>2017-06-01T07:22:50.000Z</time>
      </trkpt>
      <trkpt lat="43.5021" lon="2.29979">
        <ele>355.9</ele>
        <time>2017-06-01T07:22:52.000Z</time>
      </trkpt>
      <trkpt lat="43.50206" lon="2.29979">
        <ele>356.1</ele>
        <time>2017-06-01T07:22:54.000Z</time>
      </trkpt>
      <trkpt lat="43.50203" lon="2.29977">
        <ele>356.3</ele>
        <time>2017-06-01T07:22:56.000Z</time>
      </trkpt>
      <trkpt lat="43.50198" lon="2.29977">
        <ele>356.5</ele>
        <time>2017-06-01T07:22:58.000Z</time>
      </trkpt>
      <trkpt lat="43.50194" lon="2.29977">
        <ele>356.7</ele>
        <time>2017-06-01T07:23:00.000Z</time>
      </trkpt>
      <trkpt lat="43.50192" lon="2.29978">
        <ele>356.8</ele>
        <time>2017-06-01T07:23:01.000Z</time>
      </trkpt>
      <trkpt lat="43.50187" lon="2.29979">
        <ele>357</ele>
        <time>2017-06-01T07:23:03.000Z</time>
      </trkpt>
      <trkpt lat="43.50184" lon="2.29978">
        <ele>357.2</ele>
        <time>2017-06-01T07:23:06.000Z</time>
      </trkpt>
      <trkpt lat="43.5018" lon="2.29976">
        <ele>357.4</ele>
        <time>2017-06-01T07:23:08.000Z</time>
      </trkpt>
      <trkpt lat="43.50177" lon="2.29974">
        <ele>357.5</ele>
        <time>2017-06-01T07:23:10.000Z</time>
      </trkpt>
      <trkpt lat="43.50171" lon="2.29974">
        <ele>357.8</ele>
        <time>2017-06-01T07:23:13.000Z</time>
      </trkpt>
      <trkpt lat="43.50169" lon="2.29976">
        <ele>357.9</ele>
        <time>2017-06-01T07:23:15.000Z</time>
      </trkpt>
      <trkpt lat="43.50164" lon="2.29976">
        <ele>358.2</ele>
        <time>2017-06-01T07:23:17.000Z</time>
      </trkpt>
      <trkpt lat="43.5016" lon="2.29979">
        <ele>358.4</ele>
        <time>2017-06-01T07:23:19.000Z</time>
      </trkpt>
      <trkpt lat="43.50157" lon="2.29982">
        <ele>358.5</ele>
        <time>2017-06-01T07:23:22.000Z</time>
      </trkpt>
      <trkpt lat="43.50154" lon="2.29987">
        <ele>358.7</ele>
        <time>2017-06-01T07:23:23.000Z</time>
      </trkpt>
      <trkpt lat="43.50151" lon="2.29988">
        <ele>358.9</ele>
        <time>2017-06-01T07:23:25.000Z</time>
      </trkpt>
      <trkpt lat="43.50149" lon="2.29992">
        <ele>359</ele>
        <time>2017-06-01T07:23:26.000Z</time>
      </trkpt>
      <trkpt lat="43.50147" lon="2.29995">
        <ele>359.2</ele>
        <time>2017-06-01T07:23:27.000Z</time>
      </trkpt>
      <trkpt lat="43.50146" lon="2.29999">
        <ele>359.3</ele>
        <time>2017-06-01T07:23:29.000Z</time>
      </trkpt>
      <trkpt lat="43.50144" lon="2.30003">
        <ele>359.5</ele>
        <time>2017-06-01T07:23:30.000Z</time>
      </trkpt>
      <trkpt lat="43.50142" lon="2.30007">
        <ele>359.7</ele>
        <time>2017-06-01T07:23:32.000Z</time>
      </trkpt>
      <trkpt lat="43.50142" lon="2.30012">
        <ele>359.8</ele>
        <time>2017-06-01T07:23:33.000Z</time>
      </trkpt>
      <trkpt lat="43.50141" lon="2.30018">
        <ele>360</ele>
        <time>2017-06-01T07:23:35.000Z</time>
      </trkpt>
      <trkpt lat="43.5014" lon="2.30024">
        <ele>360.2</ele>
        <time>2017-06-01T07:23:37.000Z</time>
      </trkpt>
      <trkpt lat="43.50141" lon="2.30032">
        <ele>360.5</ele>
        <time>2017-06-01T07:23:39.000Z</time>
      </trkpt>
      <trkpt lat="43.50144" lon="2.30034">
        <ele>360.7</ele>
        <time>2017-06-01T07:23:40.000Z</time>
      </trkpt>
      <trkpt lat="43.50142" lon="2.30038">
        <ele>360.8</ele>
        <time>2017-06-01T07:23:41.000Z</time>
      </trkpt>
      <trkpt lat="43.50143" lon="2.30042">
        <ele>361</ele>
        <time>2017-06-01T07:23:42.000Z</time>
      </trkpt>
      <trkpt lat="43.50141" lon="2.30046">
        <ele>361.1</ele>
        <time>2017-06-01T07:23:45.000Z</time>
      </trkpt>
      <trkpt lat="43.50138" lon="2.3005">
        <ele>361.3</ele>
        <time>2017-06-01T07:23:47.000Z</time>
      </trkpt>
      <trkpt lat="43.50138" lon="2.30054">
        <ele>361.4</ele>
        <time>2017-06-01T07:23:48.000Z</time>
      </trkpt>
      <trkpt lat="43.50142" lon="2.30058">
        <ele>361.6</ele>
        <time>2017-06-01T07:23:49.000Z</time>
      </trkpt>
      <trkpt lat="43.50137" lon="2.30062">
        <ele>361.9</ele>
        <time>2017-06-01T07:23:50.000Z</time>
      </trkpt>
      <trkpt lat="43.50134" lon="2.30066">
        <ele>362.1</ele>
        <time>2017-06-01T07:23:52.000Z</time>
      </trkpt>
      <trkpt lat="43.5013" lon="2.30072">
        <ele>362.4</ele>
        <time>2017-06-01T07:23:54.000Z</time>
      </trkpt>
      <trkpt lat="43.50128" lon="2.30075">
        <ele>362.5</ele>
        <time>2017-06-01T07:23:55.000Z</time>
      </trkpt>
      <trkpt lat="43.50128" lon="2.30079">
        <ele>362.6</ele>
        <time>2017-06-01T07:23:57.000Z</time>
      </trkpt>
      <trkpt lat="43.50125" lon="2.30082">
        <ele>362.8</ele>
        <time>2017-06-01T07:23:59.000Z</time>
      </trkpt>
      <trkpt lat="43.50122" lon="2.30086">
        <ele>363</ele>
        <time>2017-06-01T07:24:01.000Z</time>
      </trkpt>
      <trkpt lat="43.50118" lon="2.3009">
        <ele>363.2</ele>
        <time>2017-06-01T07:24:03.000Z</time>
      </trkpt>
      <trkpt lat="43.50116" lon="2.30093">
        <ele>363.4</ele>
        <time>2017-06-01T07:24:05.000Z</time>
      </trkpt>
      <trkpt lat="43.50115" lon="2.30097">
        <ele>363.5</ele>
        <time>2017-06-01T07:24:08.000Z</time>
      </trkpt>
      <trkpt lat="43.5011" lon="2.301">
        <ele>363.8</ele>
        <time>2017-06-01T07:24:10.000Z</time>
      </trkpt>
      <trkpt lat="43.50108" lon="2.30105">
        <ele>363.9</ele>
        <time>2017-06-01T07:24:12.000Z</time>
      </trkpt>
      <trkpt lat="43.50105" lon="2.30106">
        <ele>364.1</ele>
        <time>2017-06-01T07:24:14.000Z</time>
      </trkpt>
      <trkpt lat="43.50101" lon="2.30109">
        <ele>364.3</ele>
        <time>2017-06-01T07:24:17.000Z</time>
      </trkpt>
      <trkpt lat="43.50099" lon="2.30113">
        <ele>364.4</ele>
        <time>2017-06-01T07:24:19.000Z</time>
      </trkpt>
      <trkpt lat="43.50097" lon="2.30118">
        <ele>364.6</ele>
        <time>2017-06-01T07:24:21.000Z</time>
      </trkpt>
      <trkpt lat="43.50094" lon="2.30122">
        <ele>364.8</ele>
        <time>2017-06-01T07:24:23.000Z</time>
      </trkpt>
      <trkpt lat="43.50091" lon="2.30124">
        <ele>365</ele>
        <time>2017-06-01T07:24:24.000Z</time>
      </trkpt>
      <trkpt lat="43.50089" lon="2.30125">
        <ele>365.1</ele>
        <time>2017-06-01T07:24:25.000Z</time>
      </trkpt>
      <trkpt lat="43.50084" lon="2.30127">
        <ele>365.3</ele>
        <time>2017-06-01T07:24:27.000Z</time>
      </trkpt>
      <trkpt lat="43.5008" lon="2.30125">
        <ele>365.5</ele>
        <time>2017-06-01T07:24:29.000Z</time>
      </trkpt>
      <trkpt lat="43.50077" lon="2.30124">
        <ele>365.6</ele>
        <time>2017-06-01T07:24:30.000Z</time>
      </trkpt>
      <trkpt lat="43.50073" lon="2.3012">
        <ele>365.9</ele>
        <time>2017-06-01T07:24:32.000Z</time>
      </trkpt>
      <trkpt lat="43.50069" lon="2.30113">
        <ele>366.1</ele>
        <time>2017-06-01T07:24:35.000Z</time>
      </trkpt>
      <trkpt lat="43.5007" lon="2.30109">
        <ele>366.3</ele>
        <time>2017-06-01T07:24:37.000Z</time>
      </trkpt>
      <trkpt lat="43.50074" lon="2.30104">
        <ele>366.5</ele>
        <time>2017-06-01T07:24:39.000Z</time>
      </trkpt>
      <trkpt lat="43.50078" lon="2.30101">
        <ele>366.7</ele>
        <time>2017-06-01T07:24:41.000Z</time>
      </trkpt>
      <trkpt lat="43.50079" lon="2.30097">
        <ele>366.9</ele>
        <time>2017-06-01T07:24:43.000Z</time>
      </trkpt>
      <trkpt lat="43.50083" lon="2.30094">
        <ele>367.1</ele>
        <time>2017-06-01T07:24:45.000Z</time>
      </trkpt>
      <trkpt lat="43.50085" lon="2.3009">
        <ele>367.3</ele>
        <time>2017-06-01T07:24:47.000Z</time>
      </trkpt>
      <trkpt lat="43.50089" lon="2.30088">
        <ele>367.4</ele>
        <time>2017-06-01T07:24:49.000Z</time>
      </trkpt>
      <trkpt lat="43.5009" lon="2.30084">
        <ele>367.6</ele>
        <time>2017-06-01T07:24:50.000Z</time>
      </trkpt>
      <trkpt lat="43.50091" lon="2.3008">
        <ele>367.7</ele>
        <time>2017-06-01T07:24:51.000Z</time>
      </trkpt>
      <trkpt lat="43.50095" lon="2.30076">
        <ele>367.9</ele>
        <time>2017-06-01T07:24:52.000Z</time>
      </trkpt>
      <trkpt lat="43.501" lon="2.30077">
        <ele>368.1</ele>
        <time>2017-06-01T07:24:54.000Z</time>
      </trkpt>
      <trkpt lat="43.50102" lon="2.30072">
        <ele>368.3</ele>
        <time>2017-06-01T07:24:56.000Z</time>
      </trkpt>
      <trkpt lat="43.50103" lon="2.30068">
        <ele>368.5</ele>
        <time>2017-06-01T07:24:57.000Z</time>
      </trkpt>
      <trkpt lat="43.50106" lon="2.30065">
        <ele>368.6</ele>
        <time>2017-06-01T07:24:59.000Z</time>
      </trkpt>
      <trkpt lat="43.50109" lon="2.30061">
        <ele>368.8</ele>
        <time>2017-06-01T07:25:00.000Z</time>
      </trkpt>
      <trkpt lat="43.50109" lon="2.30056">
        <ele>369</ele>
        <time>2017-06-01T07:25:02.000Z</time>
      </trkpt>
      <trkpt lat="43.50109" lon="2.3005">
        <ele>369.2</ele>
        <time>2017-06-01T07:25:04.000Z</time>
      </trkpt>
      <trkpt lat="43.50111" lon="2.30043">
        <ele>369.4</ele>
        <time>2017-06-01T07:25:07.000Z</time>
      </trkpt>
      <trkpt lat="43.50111" lon="2.30039">
        <ele>369.6</ele>
        <time>2017-06-01T07:25:09.000Z</time>
      </trkpt>
      <trkpt lat="43.50114" lon="2.30037">
        <ele>369.7</ele>
        <time>2017-06-01T07:25:10.000Z</time>
      </trkpt>
      <trkpt lat="43.50118" lon="2.30028">
        <ele>370.1</ele>
        <time>2017-06-01T07:25:11.000Z</time>
      </trkpt>
      <trkpt lat="43.50121" lon="2.30025">
        <ele>370.2</ele>
        <time>2017-06-01T07:25:14.000Z</time>
      </trkpt>
      <trkpt lat="43.50119" lon="2.3002">
        <ele>370.4</ele>
        <time>2017-06-01T07:25:16.000Z</time>
      </trkpt>
      <trkpt lat="43.50117" lon="2.30015">
        <ele>370.6</ele>
        <time>2017-06-01T07:25:17.000Z</time>
      </trkpt>
      <trkpt lat="43.50113" lon="2.30009">
        <ele>370.9</ele>
        <time>2017-06-01T07:25:19.000Z</time>
      </trkpt>
      <trkpt lat="43.50112" lon="2.30005">
        <ele>371</ele>
        <time>2017-06-01T07:25:22.000Z</time>
      </trkpt>
      <trkpt lat="43.50111" lon="2.3">
        <ele>371.2</ele>
        <time>2017-06-01T07:25:23.000Z</time>
      </trkpt>
      <trkpt lat="43.50112" lon="2.29996">
        <ele>371.3</ele>
        <time>2017-06-01T07:25:25.000Z</time>
      </trkpt>
      <trkpt lat="43.50111" lon="2.29992">
        <ele>371.4</ele>
        <time>2017-06-01T07:25:27.000Z</time>
      </trkpt>
      <trkpt lat="43.50113" lon="2.29985">
        <ele>371.7</ele>
        <time>2017-06-01T07:25:29.000Z</time>
      </trkpt>
      <trkpt lat="43.50114" lon="2.29979">
        <ele>371.9</ele>
        <time>2017-06-01T07:25:31.000Z</time>
      </trkpt>
      <trkpt lat="43.50115" lon="2.29975">
        <ele>372</ele>
        <time>2017-06-01T07:25:33.000Z</time>
      </trkpt>
      <trkpt lat="43.50118" lon="2.29969">
        <ele>372.3</ele>
        <time>2017-06-01T07:25:34.000Z</time>
      </trkpt>
      <trkpt lat="43.50119" lon="2.29962">
        <ele>372.5</ele>
        <time>2017-06-01T07:25:37.000Z</time>
      </trkpt>
      <trkpt lat="43.50116" lon="2.29955">
        <ele>372.8</ele>
        <time>2017-06-01T07:25:40.000Z</time>
      </trkpt>
      <trkpt lat="43.50113" lon="2.29954">
        <ele>372.9</ele>
        <time>2017-06-01T07:25:43.000Z</time>
      </trkpt>
      <trkpt lat="43.50108" lon="2.29949">
        <ele>373.2</ele>
        <time>2017-06-01T07:25:47.000Z</time>
      </trkpt>
      <trkpt lat="43.50108" lon="2.29953">
        <ele>373.3</ele>
        <time>2017-06-01T07:25:48.000Z</time>
      </trkpt>
      <trkpt lat="43.50107" lon="2.29958">
        <ele>373.5</ele>
        <time>2017-06-01T07:25:50.000Z</time>
      </trkpt>
      <trkpt lat="43.50107" lon="2.29963">
        <ele>373.7</ele>
        <time>2017-06-01T07:25:52.000Z</time>
      </trkpt>
      <trkpt lat="43.50106" lon="2.29968">
        <ele>373.9</ele>
        <time>2017-06-01T07:25:54.000Z</time>
      </trkpt>
      <trkpt lat="43.50107" lon="2.29974">
        <ele>374.1</ele>
        <time>2017-06-01T07:25:56.000Z</time>
      </trkpt>
      <trkpt lat="43.50105" lon="2.29977">
        <ele>374.2</ele>
        <time>2017-06-01T07:25:57.000Z</time>
      </trkpt>
      <trkpt lat="43.50105" lon="2.29985">
        <ele>374.5</ele>
        <time>2017-06-01T07:25:59.000Z</time>
      </trkpt>
      <trkpt lat="43.50105" lon="2.29989">
        <ele>374.6</ele>
        <time>2017-06-01T07:26:00.000Z</time>
      </trkpt>
      <trkpt lat="43.50106" lon="2.29994">
        <ele>374.8</ele>
        <time>2017-06-01T07:26:02.000Z</time>
      </trkpt>
      <trkpt lat="43.50105" lon="2.30002">
        <ele>375</ele>
        <time>2017-06-01T07:26:04.000Z</time>
      </trkpt>
      <trkpt lat="43.50104" lon="2.30005">
        <ele>375.2</ele>
        <time>2017-06-01T07:26:05.000Z</time>
      </trkpt>
      <trkpt lat="43.50106" lon="2.30011">
        <ele>374.7</ele>
        <time>2017-06-01T07:26:07.000Z</time>
      </trkpt>
      <trkpt lat="43.50105" lon="2.30015">
        <ele>374.3</ele>
        <time>2017-06-01T07:26:09.000Z</time>
      </trkpt>
      <trkpt lat="43.50106" lon="2.30021">
        <ele>372.7</ele>
        <time>2017-06-01T07:26:11.000Z</time>
      </trkpt>
      <trkpt lat="43.50107" lon="2.30026">
        <ele>372.6</ele>
        <time>2017-06-01T07:26:13.000Z</time>
      </trkpt>
      <trkpt lat="43.50105" lon="2.30029">
        <ele>374</ele>
        <time>2017-06-01T07:26:14.000Z</time>
      </trkpt>
      <trkpt lat="43.50104" lon="2.30037">
        <ele>373.8</ele>
        <time>2017-06-01T07:26:16.000Z</time>
      </trkpt>
      <trkpt lat="43.50102" lon="2.30044">
        <ele>375.1</ele>
        <time>2017-06-01T07:26:18.000Z</time>
      </trkpt>
      <trkpt lat="43.50103" lon="2.30049">
        <ele>375.3</ele>
        <time>2017-06-01T07:26:20.000Z</time>
      </trkpt>
      <trkpt lat="43.501" lon="2.30052">
        <ele>376.9</ele>
        <time>2017-06-01T07:26:21.000Z</time>
      </trkpt>
      <trkpt lat="43.50096" lon="2.30057">
        <ele>377.1</ele>
        <time>2017-06-01T07:26:23.000Z</time>
      </trkpt>
      <trkpt lat="43.50093" lon="2.30062">
        <ele>377.3</ele>
        <time>2017-06-01T07:26:25.000Z</time>
      </trkpt>
      <trkpt lat="43.50089" lon="2.30063">
        <ele>377.4</ele>
        <time>2017-06-01T07:26:26.000Z</time>
      </trkpt>
      <trkpt lat="43.50085" lon="2.30066">
        <ele>377.6</ele>
        <time>2017-06-01T07:26:27.000Z</time>
      </trkpt>
      <trkpt lat="43.50084" lon="2.30071">
        <ele>377.8</ele>
        <time>2017-06-01T07:26:29.000Z</time>
      </trkpt>
      <trkpt lat="43.50082" lon="2.30073">
        <ele>377.9</ele>
        <time>2017-06-01T07:26:30.000Z</time>
      </trkpt>
      <trkpt lat="43.50079" lon="2.30075">
        <ele>378.1</ele>
        <time>2017-06-01T07:26:31.000Z</time>
      </trkpt>
      <trkpt lat="43.50075" lon="2.30076">
        <ele>378.2</ele>
        <time>2017-06-01T07:26:32.000Z</time>
      </trkpt>
      <trkpt lat="43.5007" lon="2.3008">
        <ele>378.5</ele>
        <time>2017-06-01T07:26:34.000Z</time>
      </trkpt>
      <trkpt lat="43.50067" lon="2.30082">
        <ele>378.6</ele>
        <time>2017-06-01T07:26:36.000Z</time>
      </trkpt>
      <trkpt lat="43.50065" lon="2.30087">
        <ele>378.8</ele>
        <time>2017-06-01T07:26:38.000Z</time>
      </trkpt>
      <trkpt lat="43.50062" lon="2.30087">
        <ele>379</ele>
        <time>2017-06-01T07:26:39.000Z</time>
      </trkpt>
      <trkpt lat="43.5006" lon="2.30092">
        <ele>379.1</ele>
        <time>2017-06-01T07:26:41.000Z</time>
      </trkpt>
      <trkpt lat="43.50055" lon="2.30094">
        <ele>379.3</ele>
        <time>2017-06-01T07:26:43.000Z</time>
      </trkpt>
      <trkpt lat="43.50053" lon="2.30096">
        <ele>379.5</ele>
        <time>2017-06-01T07:26:44.000Z</time>
      </trkpt>
      <trkpt lat="43.50049" lon="2.30096">
        <ele>379.6</ele>
        <time>2017-06-01T07:26:45.000Z</time>
      </trkpt>
      <trkpt lat="43.50043" lon="2.30095">
        <ele>379.9</ele>
        <time>2017-06-01T07:26:47.000Z</time>
      </trkpt>
      <trkpt lat="43.50041" lon="2.30097">
        <ele>380</ele>
        <time>2017-06-01T07:26:49.000Z</time>
      </trkpt>
      <trkpt lat="43.50035" lon="2.30098">
        <ele>380.2</ele>
        <time>2017-06-01T07:26:51.000Z</time>
      </trkpt>
      <trkpt lat="43.50034" lon="2.30102">
        <ele>380.4</ele>
        <time>2017-06-01T07:26:54.000Z</time>
      </trkpt>
      <trkpt lat="43.5003" lon="2.30102">
        <ele>380.5</ele>
        <time>2017-06-01T07:26:56.000Z</time>
      </trkpt>
      <trkpt lat="43.50027" lon="2.30105">
        <ele>380.7</ele>
        <time>2017-06-01T07:26:58.000Z</time>
      </trkpt>
      <trkpt lat="43.50025" lon="2.30108">
        <ele>380.8</ele>
        <time>2017-06-01T07:27:00.000Z</time>
      </trkpt>
      <trkpt lat="43.50019" lon="2.30108">
        <ele>381.1</ele>
        <time>2017-06-01T07:27:02.000Z</time>
      </trkpt>
      <trkpt lat="43.50015" lon="2.3011">
        <ele>381.3</ele>
        <time>2017-06-01T07:27:04.000Z</time>
      </trkpt>
      <trkpt lat="43.50012" lon="2.30112">
        <ele>381.4</ele>
        <time>2017-06-01T07:27:05.000Z</time>
      </trkpt>
      <trkpt lat="43.50008" lon="2.30113">
        <ele>381.6</ele>
        <time>2017-06-01T07:27:07.000Z</time>
      </trkpt>
      <trkpt lat="43.50004" lon="2.30116">
        <ele>381.8</ele>
        <time>2017-06-01T07:27:09.000Z</time>
      </trkpt>
      <trkpt lat="43.50001" lon="2.30119">
        <ele>381.9</ele>
        <time>2017-06-01T07:27:11.000Z</time>
      </trkpt>
      <trkpt lat="43.49999" lon="2.30125">
        <ele>382.1</ele>
        <time>2017-06-01T07:27:13.000Z</time>
      </trkpt>
      <trkpt lat="43.49996" lon="2.30128">
        <ele>382.3</ele>
        <time>2017-06-01T07:27:15.000Z</time>
      </trkpt>
      <trkpt lat="43.4999" lon="2.30131">
        <ele>382.6</ele>
        <time>2017-06-01T07:27:17.000Z</time>
      </trkpt>
      <trkpt lat="43.49992" lon="2.30134">
        <ele>382.7</ele>
        <time>2017-06-01T07:27:18.000Z</time>
      </trkpt>
      <trkpt lat="43.49989" lon="2.30136">
        <ele>382.8</ele>
        <time>2017-06-01T07:27:20.000Z</time>
      </trkpt>
      <trkpt lat="43.49987" lon="2.30139">
        <ele>383</ele>
        <time>2017-06-01T07:27:22.000Z</time>
      </trkpt>
      <trkpt lat="43.49984" lon="2.30141">
        <ele>383.1</ele>
        <time>2017-06-01T07:27:23.000Z</time>
      </trkpt>
      <trkpt lat="43.49978" lon="2.30139">
        <ele>383.4</ele>
        <time>2017-06-01T07:27:24.000Z</time>
      </trkpt>
      <trkpt lat="43.49975" lon="2.30142">
        <ele>383.6</ele>
        <time>2017-06-01T07:27:26.000Z</time>
      </trkpt>
      <trkpt lat="43.49971" lon="2.30144">
        <ele>383.7</ele>
        <time>2017-06-01T07:27:28.000Z</time>
      </trkpt>
      <trkpt lat="43.49967" lon="2.30144">
        <ele>383.9</ele>
        <time>2017-06-01T07:27:30.000Z</time>
      </trkpt>
      <trkpt lat="43.49962" lon="2.30145">
        <ele>384.1</ele>
        <time>2017-06-01T07:27:32.000Z</time>
      </trkpt>
      <trkpt lat="43.49958" lon="2.30145">
        <ele>384.3</ele>
        <time>2017-06-01T07:27:34.000Z</time>
      </trkpt>
      <trkpt lat="43.49955" lon="2.30145">
        <ele>384.4</ele>
        <time>2017-06-01T07:27:36.000Z</time>
      </trkpt>
      <trkpt lat="43.49952" lon="2.30147">
        <ele>384.6</ele>
        <time>2017-06-01T07:27:38.000Z</time>
      </trkpt>
      <trkpt lat="43.49948" lon="2.3015">
        <ele>384.8</ele>
        <time>2017-06-01T07:27:40.000Z</time>
      </trkpt>
      <trkpt lat="43.49945" lon="2.30149">
        <ele>384.9</ele>
        <time>2017-06-01T07:27:42.000Z</time>
      </trkpt>
      <trkpt lat="43.49941" lon="2.3015">
        <ele>385.1</ele>
        <time>2017-06-01T07:27:44.000Z</time>
      </trkpt>
      <trkpt lat="43.49936" lon="2.30151">
        <ele>385.3</ele>
        <time>2017-06-01T07:27:46.000Z</time>
      </trkpt>
      <trkpt lat="43.49933" lon="2.30149">
        <ele>385.4</ele>
        <time>2017-06-01T07:27:47.000Z</time>
      </trkpt>
      <trkpt lat="43.49929" lon="2.30146">
        <ele>385.7</ele>
        <time>2017-06-01T07:27:49.000Z</time>
      </trkpt>
      <trkpt lat="43.49925" lon="2.30143">
        <ele>385.9</ele>
        <time>2017-06-01T07:27:51.000Z</time>
      </trkpt>
      <trkpt lat="43.49922" lon="2.30141">
        <ele>386</ele>
        <time>2017-06-01T07:27:53.000Z</time>
      </trkpt>
      <trkpt lat="43.49918" lon="2.30142">
        <ele>386.2</ele>
        <time>2017-06-01T07:27:56.000Z</time>
      </trkpt>
      <trkpt lat="43.49913" lon="2.30138">
        <ele>386.4</ele>
        <time>2017-06-01T07:27:58.000Z</time>
      </trkpt>
      <trkpt lat="43.49909" lon="2.30135">
        <ele>386.6</ele>
        <time>2017-06-01T07:28:00.000Z</time>
      </trkpt>
      <trkpt lat="43.49906" lon="2.30127">
        <ele>386.9</ele>
        <time>2017-06-01T07:28:01.000Z</time>
      </trkpt>
      <trkpt lat="43.49901" lon="2.30119">
        <ele>387.2</ele>
        <time>2017-06-01T07:28:02.000Z</time>
      </trkpt>
      <trkpt lat="43.49896" lon="2.30112">
        <ele>387.5</ele>
        <time>2017-06-01T07:28:03.000Z</time>
      </trkpt>
      <trkpt lat="43.49895" lon="2.30107">
        <ele>387.7</ele>
        <time>2017-06-01T07:28:04.000Z</time>
      </trkpt>
      <trkpt lat="43.49888" lon="2.30108">
        <ele>388</ele>
        <time>2017-06-01T07:28:05.000Z</time>
      </trkpt>
      <trkpt lat="43.49883" lon="2.30105">
        <ele>388.3</ele>
        <time>2017-06-01T07:28:06.000Z</time>
      </trkpt>
      <trkpt lat="43.4988" lon="2.30107">
        <ele>388.4</ele>
        <time>2017-06-01T07:28:07.000Z</time>
      </trkpt>
      <trkpt lat="43.49879" lon="2.30104">
        <ele>388.5</ele>
        <time>2017-06-01T07:28:08.000Z</time>
      </trkpt>
      <trkpt lat="43.49881" lon="2.30102">
        <ele>388.6</ele>
        <time>2017-06-01T07:28:11.000Z</time>
      </trkpt>
      <trkpt lat="43.49876" lon="2.30102">
        <ele>388.8</ele>
        <time>2017-06-01T07:28:14.000Z</time>
      </trkpt>
      <trkpt lat="43.49873" lon="2.30101">
        <ele>389</ele>
        <time>2017-06-01T07:28:15.000Z</time>
      </trkpt>
      <trkpt lat="43.4987" lon="2.30097">
        <ele>389.1</ele>
        <time>2017-06-01T07:28:16.000Z</time>
      </trkpt>
      <trkpt lat="43.49872" lon="2.30088">
        <ele>389.4</ele>
        <time>2017-06-01T07:28:17.000Z</time>
      </trkpt>
      <trkpt lat="43.4987" lon="2.30093">
        <ele>389.6</ele>
        <time>2017-06-01T07:28:18.000Z</time>
      </trkpt>
      <trkpt lat="43.49867" lon="2.30089">
        <ele>389.8</ele>
        <time>2017-06-01T07:28:19.000Z</time>
      </trkpt>
      <trkpt lat="43.49863" lon="2.3008">
        <ele>390.2</ele>
        <time>2017-06-01T07:28:21.000Z</time>
      </trkpt>
      <trkpt lat="43.49862" lon="2.30075">
        <ele>390.3</ele>
        <time>2017-06-01T07:28:24.000Z</time>
      </trkpt>
      <trkpt lat="43.49858" lon="2.30071">
        <ele>390.5</ele>
        <time>2017-06-01T07:28:25.000Z</time>
      </trkpt>
      <trkpt lat="43.49856" lon="2.30066">
        <ele>390.7</ele>
        <time>2017-06-01T07:28:26.000Z</time>
      </trkpt>
      <trkpt lat="43.4985" lon="2.3006">
        <ele>391</ele>
        <time>2017-06-01T07:28:28.000Z</time>
      </trkpt>
      <trkpt lat="43.4985" lon="2.30056">
        <ele>391.1</ele>
        <time>2017-06-01T07:28:29.000Z</time>
      </trkpt>
      <trkpt lat="43.49846" lon="2.30055">
        <ele>391.3</ele>
        <time>2017-06-01T07:28:31.000Z</time>
      </trkpt>
      <trkpt lat="43.49842" lon="2.30054">
        <ele>391.5</ele>
        <time>2017-06-01T07:28:33.000Z</time>
      </trkpt>
      <trkpt lat="43.4984" lon="2.30056">
        <ele>391.6</ele>
        <time>2017-06-01T07:28:35.000Z</time>
      </trkpt>
      <trkpt lat="43.49836" lon="2.30054">
        <ele>391.8</ele>
        <time>2017-06-01T07:28:37.000Z</time>
      </trkpt>
      <trkpt lat="43.49832" lon="2.3005">
        <ele>392</ele>
        <time>2017-06-01T07:28:39.000Z</time>
      </trkpt>
      <trkpt lat="43.49829" lon="2.30056">
        <ele>392.2</ele>
        <time>2017-06-01T07:28:42.000Z</time>
      </trkpt>
      <trkpt lat="43.49823" lon="2.30057">
        <ele>392.5</ele>
        <time>2017-06-01T07:28:46.000Z</time>
      </trkpt>
      <trkpt lat="43.49818" lon="2.30059">
        <ele>392.7</ele>
        <time>2017-06-01T07:28:48.000Z</time>
      </trkpt>
      <trkpt lat="43.49814" lon="2.30061">
        <ele>392.9</ele>
        <time>2017-06-01T07:28:52.000Z</time>
      </trkpt>
      <trkpt lat="43.4981" lon="2.30063">
        <ele>393.1</ele>
        <time>2017-06-01T07:28:53.000Z</time>
      </trkpt>
      <trkpt lat="43.49805" lon="2.30065">
        <ele>393.3</ele>
        <time>2017-06-01T07:28:56.000Z</time>
      </trkpt>
      <trkpt lat="43.498" lon="2.30067">
        <ele>393.5</ele>
        <time>2017-06-01T07:28:59.000Z</time>
      </trkpt>
      <trkpt lat="43.49797" lon="2.30069">
        <ele>393.7</ele>
        <time>2017-06-01T07:29:00.000Z</time>
      </trkpt>
      <trkpt lat="43.49794" lon="2.30069">
        <ele>393.8</ele>
        <time>2017-06-01T07:29:01.000Z</time>
      </trkpt>
      <trkpt lat="43.49791" lon="2.30071">
        <ele>393.9</ele>
        <time>2017-06-01T07:29:03.000Z</time>
      </trkpt>
      <trkpt lat="43.49789" lon="2.30072">
        <ele>394.1</ele>
        <time>2017-06-01T07:29:04.000Z</time>
      </trkpt>
      <trkpt lat="43.49785" lon="2.30075">
        <ele>394.2</ele>
        <time>2017-06-01T07:29:07.000Z</time>
      </trkpt>
      <trkpt lat="43.49782" lon="2.30073">
        <ele>394.4</ele>
        <time>2017-06-01T07:29:09.000Z</time>
      </trkpt>
      <trkpt lat="43.49779" lon="2.30075">
        <ele>394.6</ele>
        <time>2017-06-01T07:29:12.000Z</time>
      </trkpt>
      <trkpt lat="43.49775" lon="2.30077">
        <ele>394.7</ele>
        <time>2017-06-01T07:29:13.000Z</time>
      </trkpt>
      <trkpt lat="43.49772" lon="2.30079">
        <ele>394.9</ele>
        <time>2017-06-01T07:29:14.000Z</time>
      </trkpt>
      <trkpt lat="43.49769" lon="2.3008">
        <ele>395</ele>
        <time>2017-06-01T07:29:15.000Z</time>
      </trkpt>
      <trkpt lat="43.49765" lon="2.3008">
        <ele>395.2</ele>
        <time>2017-06-01T07:29:16.000Z</time>
      </trkpt>
      <trkpt lat="43.49761" lon="2.30081">
        <ele>395.3</ele>
        <time>2017-06-01T07:29:18.000Z</time>
      </trkpt>
      <trkpt lat="43.49754" lon="2.30077">
        <ele>395.7</ele>
        <time>2017-06-01T07:29:20.000Z</time>
      </trkpt>
      <trkpt lat="43.49754" lon="2.30071">
        <ele>395.7</ele>
        <time>2017-06-01T07:29:22.000Z</time>
      </trkpt>
      <trkpt lat="43.49755" lon="2.30067">
        <ele>395.6</ele>
        <time>2017-06-01T07:29:23.000Z</time>
      </trkpt>
      <trkpt lat="43.49755" lon="2.30062">
        <ele>395.5</ele>
        <time>2017-06-01T07:29:25.000Z</time>
      </trkpt>
      <trkpt lat="43.49756" lon="2.30059">
        <ele>395.4</ele>
        <time>2017-06-01T07:29:29.000Z</time>
      </trkpt>
      <trkpt lat="43.49759" lon="2.30057">
        <ele>395.4</ele>
        <time>2017-06-01T07:29:33.000Z</time>
      </trkpt>
      <trkpt lat="43.49761" lon="2.30054">
        <ele>395.2</ele>
        <time>2017-06-01T07:29:34.000Z</time>
      </trkpt>
      <trkpt lat="43.49764" lon="2.30051">
        <ele>395.4</ele>
        <time>2017-06-01T07:29:36.000Z</time>
      </trkpt>
      <trkpt lat="43.49767" lon="2.30048">
        <ele>395.6</ele>
        <time>2017-06-01T07:29:38.000Z</time>
      </trkpt>
      <trkpt lat="43.49772" lon="2.30046">
        <ele>395.8</ele>
        <time>2017-06-01T07:29:40.000Z</time>
      </trkpt>
      <trkpt lat="43.49775" lon="2.30045">
        <ele>396</ele>
        <time>2017-06-01T07:29:42.000Z</time>
      </trkpt>
      <trkpt lat="43.49779" lon="2.30043">
        <ele>396.2</ele>
        <time>2017-06-01T07:29:44.000Z</time>
      </trkpt>
      <trkpt lat="43.49781" lon="2.30041">
        <ele>396.3</ele>
        <time>2017-06-01T07:29:45.000Z</time>
      </trkpt>
      <trkpt lat="43.49786" lon="2.30039">
        <ele>396.5</ele>
        <time>2017-06-01T07:29:48.000Z</time>
      </trkpt>
      <trkpt lat="43.49788" lon="2.30037">
        <ele>396.6</ele>
        <time>2017-06-01T07:29:49.000Z</time>
      </trkpt>
      <trkpt lat="43.49791" lon="2.30035">
        <ele>396.8</ele>
        <time>2017-06-01T07:29:50.000Z</time>
      </trkpt>
      <trkpt lat="43.49794" lon="2.30032">
        <ele>397</ele>
        <time>2017-06-01T07:29:51.000Z</time>
      </trkpt>
      <trkpt lat="43.49797" lon="2.30031">
        <ele>397.1</ele>
        <time>2017-06-01T07:29:54.000Z</time>
      </trkpt>
      <trkpt lat="43.49799" lon="2.30029">
        <ele>397.3</ele>
        <time>2017-06-01T07:29:56.000Z</time>
      </trkpt>
      <trkpt lat="43.49802" lon="2.30027">
        <ele>397.4</ele>
        <time>2017-06-01T07:29:57.000Z</time>
      </trkpt>
      <trkpt lat="43.49804" lon="2.30022">
        <ele>397.6</ele>
        <time>2017-06-01T07:29:58.000Z</time>
      </trkpt>
      <trkpt lat="43.49806" lon="2.30019">
        <ele>397.7</ele>
        <time>2017-06-01T07:30:00.000Z</time>
      </trkpt>
      <trkpt lat="43.49809" lon="2.30018">
        <ele>397.9</ele>
        <time>2017-06-01T07:30:01.000Z</time>
      </trkpt>
      <trkpt lat="43.49812" lon="2.30015">
        <ele>398</ele>
        <time>2017-06-01T07:30:03.000Z</time>
      </trkpt>
      <trkpt lat="43.49817" lon="2.3001">
        <ele>398.4</ele>
        <time>2017-06-01T07:30:06.000Z</time>
      </trkpt>
      <trkpt lat="43.4982" lon="2.30008">
        <ele>398.5</ele>
        <time>2017-06-01T07:30:09.000Z</time>
      </trkpt>
      <trkpt lat="43.49822" lon="2.30005">
        <ele>398.7</ele>
        <time>2017-06-01T07:30:11.000Z</time>
      </trkpt>
      <trkpt lat="43.49825" lon="2.30002">
        <ele>398.8</ele>
        <time>2017-06-01T07:30:12.000Z</time>
      </trkpt>
      <trkpt lat="43.49828" lon="2.3">
        <ele>398.9</ele>
        <time>2017-06-01T07:30:13.000Z</time>
      </trkpt>
      <trkpt lat="43.49828" lon="2.29996">
        <ele>399.1</ele>
        <time>2017-06-01T07:30:14.000Z</time>
      </trkpt>
      <trkpt lat="43.49831" lon="2.29995">
        <ele>399.2</ele>
        <time>2017-06-01T07:30:15.000Z</time>
      </trkpt>
      <trkpt lat="43.49835" lon="2.29994">
        <ele>399.4</ele>
        <time>2017-06-01T07:30:17.000Z</time>
      </trkpt>
      <trkpt lat="43.49839" lon="2.29994">
        <ele>399.6</ele>
        <time>2017-06-01T07:30:19.000Z</time>
      </trkpt>
      <trkpt lat="43.49842" lon="2.29994">
        <ele>399.7</ele>
        <time>2017-06-01T07:30:20.000Z</time>
      </trkpt>
      <trkpt lat="43.49846" lon="2.29993">
        <ele>399.9</ele>
        <time>2017-06-01T07:30:22.000Z</time>
      </trkpt>
      <trkpt lat="43.49849" lon="2.29995">
        <ele>400.1</ele>
        <time>2017-06-01T07:30:24.000Z</time>
      </trkpt>
      <trkpt lat="43.49852" lon="2.29995">
        <ele>400.2</ele>
        <time>2017-06-01T07:30:26.000Z</time>
      </trkpt>
      <trkpt lat="43.49857" lon="2.29996">
        <ele>400.5</ele>
        <time>2017-06-01T07:30:28.000Z</time>
      </trkpt>
      <trkpt lat="43.4986" lon="2.29998">
        <ele>400.6</ele>
        <time>2017-06-01T07:30:29.000Z</time>
      </trkpt>
      <trkpt lat="43.49863" lon="2.30001">
        <ele>400.8</ele>
        <time>2017-06-01T07:30:30.000Z</time>
      </trkpt>
      <trkpt lat="43.49867" lon="2.30001">
        <ele>401</ele>
        <time>2017-06-01T07:30:32.000Z</time>
      </trkpt>
      <trkpt lat="43.49871" lon="2.30004">
        <ele>401.2</ele>
        <time>2017-06-01T07:30:33.000Z</time>
      </trkpt>
      <trkpt lat="43.49875" lon="2.30006">
        <ele>401.4</ele>
        <time>2017-06-01T07:30:34.000Z</time>
      </trkpt>
      <trkpt lat="43.49877" lon="2.30009">
        <ele>401.5</ele>
        <time>2017-06-01T07:30:35.000Z</time>
      </trkpt>
      <trkpt lat="43.49879" lon="2.30012">
        <ele>401.7</ele>
        <time>2017-06-01T07:30:36.000Z</time>
      </trkpt>
      <trkpt lat="43.49881" lon="2.30017">
        <ele>401.9</ele>
        <time>2017-06-01T07:30:37.000Z</time>
      </trkpt>
      <trkpt lat="43.49885" lon="2.30019">
        <ele>402.1</ele>
        <time>2017-06-01T07:30:38.000Z</time>
      </trkpt>
      <trkpt lat="43.49889" lon="2.30026">
        <ele>402.4</ele>
        <time>2017-06-01T07:30:40.000Z</time>
      </trkpt>
      <trkpt lat="43.4989" lon="2.3003">
        <ele>402.5</ele>
        <time>2017-06-01T07:30:41.000Z</time>
      </trkpt>
      <trkpt lat="43.49893" lon="2.30034">
        <ele>402.7</ele>
        <time>2017-06-01T07:30:43.000Z</time>
      </trkpt>
      <trkpt lat="43.49895" lon="2.3004">
        <ele>402.9</ele>
        <time>2017-06-01T07:30:45.000Z</time>
      </trkpt>
      <trkpt lat="43.49897" lon="2.30043">
        <ele>403.1</ele>
        <time>2017-06-01T07:30:46.000Z</time>
      </trkpt>
      <trkpt lat="43.499" lon="2.30046">
        <ele>403.2</ele>
        <time>2017-06-01T07:30:48.000Z</time>
      </trkpt>
      <trkpt lat="43.49904" lon="2.30047">
        <ele>403.4</ele>
        <time>2017-06-01T07:30:50.000Z</time>
      </trkpt>
      <trkpt lat="43.49906" lon="2.3005">
        <ele>403.6</ele>
        <time>2017-06-01T07:30:52.000Z</time>
      </trkpt>
      <trkpt lat="43.4991" lon="2.30051">
        <ele>403.7</ele>
        <time>2017-06-01T07:30:53.000Z</time>
      </trkpt>
      <trkpt lat="43.49913" lon="2.30052">
        <ele>403.9</ele>
        <time>2017-06-01T07:30:54.000Z</time>
      </trkpt>
      <trkpt lat="43.49917" lon="2.30054">
        <ele>404.1</ele>
        <time>2017-06-01T07:30:56.000Z</time>
      </trkpt>
      <trkpt lat="43.4992" lon="2.30056">
        <ele>404.2</ele>
        <time>2017-06-01T07:30:58.000Z</time>
      </trkpt>
      <trkpt lat="43.49922" lon="2.30059">
        <ele>404.4</ele>
        <time>2017-06-01T07:31:00.000Z</time>
      </trkpt>
      <trkpt lat="43.49925" lon="2.30058">
        <ele>404.5</ele>
        <time>2017-06-01T07:31:01.000Z</time>
      </trkpt>
      <trkpt lat="43.49931" lon="2.30058">
        <ele>404.8</ele>
        <time>2017-06-01T07:31:03.000Z</time>
      </trkpt>
      <trkpt lat="43.49936" lon="2.30062">
        <ele>405</ele>
        <time>2017-06-01T07:31:06.000Z</time>
      </trkpt>
      <trkpt lat="43.49938" lon="2.30062">
        <ele>405.2</ele>
        <time>2017-06-01T07:31:07.000Z</time>
      </trkpt>
      <trkpt lat="43.49941" lon="2.30062">
        <ele>405.3</ele>
        <time>2017-06-01T07:31:09.000Z</time>
      </trkpt>
      <trkpt lat="43.49944" lon="2.30063">
        <ele>405.5</ele>
        <time>2017-06-01T07:31:11.000Z</time>
      </trkpt>
      <trkpt lat="43.49947" lon="2.30061">
        <ele>405.6</ele>
        <time>2017-06-01T07:31:12.000Z</time>
      </trkpt>
      <trkpt lat="43.4995" lon="2.30058">
        <ele>405.8</ele>
        <time>2017-06-01T07:31:13.000Z</time>
      </trkpt>
      <trkpt lat="43.49959" lon="2.30055">
        <ele>406.2</ele>
        <time>2017-06-01T07:31:15.000Z</time>
      </trkpt>
      <trkpt lat="43.49962" lon="2.30051">
        <ele>406.4</ele>
        <time>2017-06-01T07:31:17.000Z</time>
      </trkpt>
      <trkpt lat="43.49964" lon="2.30047">
        <ele>406.6</ele>
        <time>2017-06-01T07:31:18.000Z</time>
      </trkpt>
      <trkpt lat="43.49964" lon="2.30043">
        <ele>406.7</ele>
        <time>2017-06-01T07:31:20.000Z</time>
      </trkpt>
      <trkpt lat="43.49965" lon="2.30039">
        <ele>406.9</ele>
        <time>2017-06-01T07:31:22.000Z</time>
      </trkpt>
      <trkpt lat="43.49967" lon="2.30036">
        <ele>407</ele>
        <time>2017-06-01T07:31:23.000Z</time>
      </trkpt>
      <trkpt lat="43.49971" lon="2.30034">
        <ele>407.2</ele>
        <time>2017-06-01T07:31:25.000Z</time>
      </trkpt>
      <trkpt lat="43.49975" lon="2.30032">
        <ele>407.4</ele>
        <time>2017-06-01T07:31:27.000Z</time>
      </trkpt>
      <trkpt lat="43.49975" lon="2.30025">
        <ele>407.6</ele>
        <time>2017-06-01T07:31:29.000Z</time>
      </trkpt>
      <trkpt lat="43.49977" lon="2.30021">
        <ele>407.8</ele>
        <time>2017-06-01T07:31:30.000Z</time>
      </trkpt>
      <trkpt lat="43.49979" lon="2.30014">
        <ele>408.1</ele>
        <time>2017-06-01T07:31:32.000Z</time>
      </trkpt>
      <trkpt lat="43.49978" lon="2.30009">
        <ele>408.2</ele>
        <time>2017-06-01T07:31:34.000Z</time>
      </trkpt>
      <trkpt lat="43.49982" lon="2.30008">
        <ele>408.4</ele>
        <time>2017-06-01T07:31:35.000Z</time>
      </trkpt>
      <trkpt lat="43.49985" lon="2.30005">
        <ele>408.6</ele>
        <time>2017-06-01T07:31:37.000Z</time>
      </trkpt>
      <trkpt lat="43.4999" lon="2.30004">
        <ele>408.8</ele>
        <time>2017-06-01T07:31:38.000Z</time>
      </trkpt>
      <trkpt lat="43.49993" lon="2.30001">
        <ele>409</ele>
        <time>2017-06-01T07:31:40.000Z</time>
      </trkpt>
      <trkpt lat="43.49996" lon="2.29999">
        <ele>409.1</ele>
        <time>2017-06-01T07:31:41.000Z</time>
      </trkpt>
      <trkpt lat="43.49999" lon="2.29995">
        <ele>409.3</ele>
        <time>2017-06-01T07:31:42.000Z</time>
      </trkpt>
      <trkpt lat="43.50003" lon="2.29991">
        <ele>409.6</ele>
        <time>2017-06-01T07:31:44.000Z</time>
      </trkpt>
      <trkpt lat="43.50007" lon="2.29991">
        <ele>409.7</ele>
        <time>2017-06-01T07:31:45.000Z</time>
      </trkpt>
      <trkpt lat="43.50009" lon="2.29988">
        <ele>409.9</ele>
        <time>2017-06-01T07:31:46.000Z</time>
      </trkpt>
      <trkpt lat="43.50011" lon="2.29984">
        <ele>410.1</ele>
        <time>2017-06-01T07:31:48.000Z</time>
      </trkpt>
      <trkpt lat="43.50012" lon="2.2998">
        <ele>410.2</ele>
        <time>2017-06-01T07:31:49.000Z</time>
      </trkpt>
      <trkpt lat="43.50017" lon="2.29976">
        <ele>410.5</ele>
        <time>2017-06-01T07:31:51.000Z</time>
      </trkpt>
      <trkpt lat="43.50017" lon="2.29971">
        <ele>410.6</ele>
        <time>2017-06-01T07:31:53.000Z</time>
      </trkpt>
      <trkpt lat="43.50019" lon="2.29965">
        <ele>410.8</ele>
        <time>2017-06-01T07:31:55.000Z</time>
      </trkpt>
      <trkpt lat="43.50019" lon="2.29961">
        <ele>411</ele>
        <time>2017-06-01T07:31:56.000Z</time>
      </trkpt>
      <trkpt lat="43.50022" lon="2.29958">
        <ele>411.1</ele>
        <time>2017-06-01T07:31:57.000Z</time>
      </trkpt>
      <trkpt lat="43.50025" lon="2.29955">
        <ele>411.3</ele>
        <time>2017-06-01T07:31:59.000Z</time>
      </trkpt>
      <trkpt lat="43.50027" lon="2.29952">
        <ele>411.5</ele>
        <time>2017-06-01T07:32:01.000Z</time>
      </trkpt>
      <trkpt lat="43.50028" lon="2.29948">
        <ele>411.6</ele>
        <time>2017-06-01T07:32:03.000Z</time>
      </trkpt>
      <trkpt lat="43.5003" lon="2.29944">
        <ele>411.8</ele>
        <time>2017-06-01T07:32:04.000Z</time>
      </trkpt>
      <trkpt lat="43.50031" lon="2.29939">
        <ele>412</ele>
        <time>2017-06-01T07:32:05.000Z</time>
      </trkpt>
      <trkpt lat="43.50034" lon="2.29933">
        <ele>412.2</ele>
        <time>2017-06-01T07:32:08.000Z</time>
      </trkpt>
      <trkpt lat="43.50033" lon="2.29926">
        <ele>412.4</ele>
        <time>2017-06-01T07:32:09.000Z</time>
      </trkpt>
      <trkpt lat="43.50035" lon="2.29923">
        <ele>412.6</ele>
        <time>2017-06-01T07:32:11.000Z</time>
      </trkpt>
      <trkpt lat="43.50038" lon="2.29916">
        <ele>412.9</ele>
        <time>2017-06-01T07:32:13.000Z</time>
      </trkpt>
      <trkpt lat="43.50037" lon="2.29903">
        <ele>413.3</ele>
        <time>2017-06-01T07:32:16.000Z</time>
      </trkpt>
      <trkpt lat="43.50039" lon="2.299">
        <ele>413.5</ele>
        <time>2017-06-01T07:32:17.000Z</time>
      </trkpt>
      <trkpt lat="43.50036" lon="2.29898">
        <ele>413.6</ele>
        <time>2017-06-01T07:32:19.000Z</time>
      </trkpt>
      <trkpt lat="43.50034" lon="2.29894">
        <ele>413.8</ele>
        <time>2017-06-01T07:32:21.000Z</time>
      </trkpt>
      <trkpt lat="43.50032" lon="2.29889">
        <ele>414</ele>
        <time>2017-06-01T07:32:23.000Z</time>
      </trkpt>
      <trkpt lat="43.50029" lon="2.29887">
        <ele>414.1</ele>
        <time>2017-06-01T07:32:24.000Z</time>
      </trkpt>
      <trkpt lat="43.50031" lon="2.29883">
        <ele>414.3</ele>
        <time>2017-06-01T07:32:26.000Z</time>
      </trkpt>
      <trkpt lat="43.50029" lon="2.29878">
        <ele>414.5</ele>
        <time>2017-06-01T07:32:28.000Z</time>
      </trkpt>
      <trkpt lat="43.50026" lon="2.29868">
        <ele>414.9</ele>
        <time>2017-06-01T07:32:30.000Z</time>
      </trkpt>
      <trkpt lat="43.50024" lon="2.29866">
        <ele>415</ele>
        <time>2017-06-01T07:32:31.000Z</time>
      </trkpt>
      <trkpt lat="43.50025" lon="2.29859">
        <ele>415.2</ele>
        <time>2017-06-01T07:32:33.000Z</time>
      </trkpt>
      <trkpt lat="43.50026" lon="2.29855">
        <ele>415.4</ele>
        <time>2017-06-01T07:32:34.000Z</time>
      </trkpt>
      <trkpt lat="43.50026" lon="2.29848">
        <ele>415.6</ele>
        <time>2017-06-01T07:32:35.000Z</time>
      </trkpt>
      <trkpt lat="43.50026" lon="2.29843">
        <ele>415.8</ele>
        <time>2017-06-01T07:32:39.000Z</time>
      </trkpt>
      <trkpt lat="43.50023" lon="2.2984">
        <ele>415.9</ele>
        <time>2017-06-01T07:32:40.000Z</time>
      </trkpt>
      <trkpt lat="43.50023" lon="2.29836">
        <ele>416.1</ele>
        <time>2017-06-01T07:32:41.000Z</time>
      </trkpt>
      <trkpt lat="43.50024" lon="2.29831">
        <ele>416.3</ele>
        <time>2017-06-01T07:32:42.000Z</time>
      </trkpt>
      <trkpt lat="43.50029" lon="2.29824">
        <ele>416.6</ele>
        <time>2017-06-01T07:32:46.000Z</time>
      </trkpt>
      <trkpt lat="43.50032" lon="2.29818">
        <ele>416.9</ele>
        <time>2017-06-01T07:32:47.000Z</time>
      </trkpt>
      <trkpt lat="43.50033" lon="2.29812">
        <ele>417.1</ele>
        <time>2017-06-01T07:32:49.000Z</time>
      </trkpt>
      <trkpt lat="43.50036" lon="2.29808">
        <ele>417.3</ele>
        <time>2017-06-01T07:32:51.000Z</time>
      </trkpt>
      <trkpt lat="43.50037" lon="2.29803">
        <ele>418.6</ele>
        <time>2017-06-01T07:32:53.000Z</time>
      </trkpt>
      <trkpt lat="43.5004" lon="2.29798">
        <ele>420.6</ele>
        <time>2017-06-01T07:32:54.000Z</time>
      </trkpt>
      <trkpt lat="43.50044" lon="2.29794">
        <ele>422.2</ele>
        <time>2017-06-01T07:32:56.000Z</time>
      </trkpt>
      <trkpt lat="43.50048" lon="2.29789">
        <ele>423.6</ele>
        <time>2017-06-01T07:32:58.000Z</time>
      </trkpt>
      <trkpt lat="43.50054" lon="2.29784">
        <ele>424.8</ele>
        <time>2017-06-01T07:33:00.000Z</time>
      </trkpt>
      <trkpt lat="43.50056" lon="2.2978">
        <ele>425.4</ele>
        <time>2017-06-01T07:33:01.000Z</time>
      </trkpt>
      <trkpt lat="43.50057" lon="2.29776">
        <ele>425.8</ele>
        <time>2017-06-01T07:33:02.000Z</time>
      </trkpt>
      <trkpt lat="43.5006" lon="2.29775">
        <ele>426.1</ele>
        <time>2017-06-01T07:33:03.000Z</time>
      </trkpt>
      <trkpt lat="43.50062" lon="2.29772">
        <ele>426.3</ele>
        <time>2017-06-01T07:33:05.000Z</time>
      </trkpt>
      <trkpt lat="43.50063" lon="2.29767">
        <ele>426.6</ele>
        <time>2017-06-01T07:33:07.000Z</time>
      </trkpt>
      <trkpt lat="43.50064" lon="2.29761">
        <ele>427</ele>
        <time>2017-06-01T07:33:10.000Z</time>
      </trkpt>
      <trkpt lat="43.50064" lon="2.29756">
        <ele>427.3</ele>
        <time>2017-06-01T07:33:11.000Z</time>
      </trkpt>
      <trkpt lat="43.50065" lon="2.29751">
        <ele>427.6</ele>
        <time>2017-06-01T07:33:13.000Z</time>
      </trkpt>
      <trkpt lat="43.50066" lon="2.29747">
        <ele>427.8</ele>
        <time>2017-06-01T07:33:15.000Z</time>
      </trkpt>
      <trkpt lat="43.50067" lon="2.29739">
        <ele>428.2</ele>
        <time>2017-06-01T07:33:17.000Z</time>
      </trkpt>
      <trkpt lat="43.50067" lon="2.29734">
        <ele>428.5</ele>
        <time>2017-06-01T07:33:20.000Z</time>
      </trkpt>
      <trkpt lat="43.50068" lon="2.29727">
        <ele>428.9</ele>
        <time>2017-06-01T07:33:21.000Z</time>
      </trkpt>
      <trkpt lat="43.50071" lon="2.29718">
        <ele>429.5</ele>
        <time>2017-06-01T07:33:23.000Z</time>
      </trkpt>
      <trkpt lat="43.50072" lon="2.29712">
        <ele>429.8</ele>
        <time>2017-06-01T07:33:25.000Z</time>
      </trkpt>
      <trkpt lat="43.50073" lon="2.29707">
        <ele>430.1</ele>
        <time>2017-06-01T07:33:26.000Z</time>
      </trkpt>
      <trkpt lat="43.50075" lon="2.29705">
        <ele>430.4</ele>
        <time>2017-06-01T07:33:29.000Z</time>
      </trkpt>
      <trkpt lat="43.50077" lon="2.29699">
        <ele>430.8</ele>
        <time>2017-06-01T07:33:31.000Z</time>
      </trkpt>
      <trkpt lat="43.50079" lon="2.29694">
        <ele>431.2</ele>
        <time>2017-06-01T07:33:33.000Z</time>
      </trkpt>
      <trkpt lat="43.50079" lon="2.29688">
        <ele>431.5</ele>
        <time>2017-06-01T07:33:34.000Z</time>
      </trkpt>
      <trkpt lat="43.5008" lon="2.29683">
        <ele>431.9</ele>
        <time>2017-06-01T07:33:36.000Z</time>
      </trkpt>
      <trkpt lat="43.50082" lon="2.2968">
        <ele>432.1</ele>
        <time>2017-06-01T07:33:37.000Z</time>
      </trkpt>
      <trkpt lat="43.50084" lon="2.29675">
        <ele>432.5</ele>
        <time>2017-06-01T07:33:38.000Z</time>
      </trkpt>
      <trkpt lat="43.50083" lon="2.29668">
        <ele>433</ele>
        <time>2017-06-01T07:33:40.000Z</time>
      </trkpt>
      <trkpt lat="43.50085" lon="2.29661">
        <ele>433.5</ele>
        <time>2017-06-01T07:33:42.000Z</time>
      </trkpt>
      <trkpt lat="43.50085" lon="2.29656">
        <ele>433.8</ele>
        <time>2017-06-01T07:33:44.000Z</time>
      </trkpt>
      <trkpt lat="43.50088" lon="2.29654">
        <ele>434.2</ele>
        <time>2017-06-01T07:33:45.000Z</time>
      </trkpt>
      <trkpt lat="43.50088" lon="2.29649">
        <ele>434.6</ele>
        <time>2017-06-01T07:33:47.000Z</time>
      </trkpt>
      <trkpt lat="43.50088" lon="2.29643">
        <ele>435</ele>
        <time>2017-06-01T07:33:49.000Z</time>
      </trkpt>
      <trkpt lat="43.50092" lon="2.29637">
        <ele>435.6</ele>
        <time>2017-06-01T07:33:51.000Z</time>
      </trkpt>
      <trkpt lat="43.5009" lon="2.29634">
        <ele>435.9</ele>
        <time>2017-06-01T07:33:52.000Z</time>
      </trkpt>
      <trkpt lat="43.50083" lon="2.29633">
        <ele>436.5</ele>
        <time>2017-06-01T07:33:53.000Z</time>
      </trkpt>
      <trkpt lat="43.5008" lon="2.29632">
        <ele>436.8</ele>
        <time>2017-06-01T07:33:54.000Z</time>
      </trkpt>
      <trkpt lat="43.50075" lon="2.29627">
        <ele>437.4</ele>
        <time>2017-06-01T07:33:56.000Z</time>
      </trkpt>
      <trkpt lat="43.5007" lon="2.29623">
        <ele>438</ele>
        <time>2017-06-01T07:33:58.000Z</time>
      </trkpt>
      <trkpt lat="43.50067" lon="2.29622">
        <ele>438.3</ele>
        <time>2017-06-01T07:33:59.000Z</time>
      </trkpt>
      <trkpt lat="43.50064" lon="2.29619">
        <ele>438.7</ele>
        <time>2017-06-01T07:34:01.000Z</time>
      </trkpt>
      <trkpt lat="43.50064" lon="2.29616">
        <ele>439</ele>
        <time>2017-06-01T07:34:02.000Z</time>
      </trkpt>
      <trkpt lat="43.50061" lon="2.29619">
        <ele>439.4</ele>
        <time>2017-06-01T07:34:03.000Z</time>
      </trkpt>
      <trkpt lat="43.50058" lon="2.29619">
        <ele>439.7</ele>
        <time>2017-06-01T07:34:04.000Z</time>
      </trkpt>
      <trkpt lat="43.50054" lon="2.29616">
        <ele>440.1</ele>
        <time>2017-06-01T07:34:06.000Z</time>
      </trkpt>
      <trkpt lat="43.5005" lon="2.29618">
        <ele>440.6</ele>
        <time>2017-06-01T07:34:08.000Z</time>
      </trkpt>
      <trkpt lat="43.50047" lon="2.2962">
        <ele>441</ele>
        <time>2017-06-01T07:34:09.000Z</time>
      </trkpt>
      <trkpt lat="43.50044" lon="2.2962">
        <ele>441.3</ele>
        <time>2017-06-01T07:34:10.000Z</time>
      </trkpt>
      <trkpt lat="43.50042" lon="2.29615">
        <ele>441.8</ele>
        <time>2017-06-01T07:34:12.000Z</time>
      </trkpt>
      <trkpt lat="43.50038" lon="2.29616">
        <ele>442.2</ele>
        <time>2017-06-01T07:34:14.000Z</time>
      </trkpt>
      <trkpt lat="43.50037" lon="2.29611">
        <ele>442.6</ele>
        <time>2017-06-01T07:34:15.000Z</time>
      </trkpt>
      <trkpt lat="43.50034" lon="2.29611">
        <ele>442.9</ele>
        <time>2017-06-01T07:34:16.000Z</time>
      </trkpt>
      <trkpt lat="43.50035" lon="2.29603">
        <ele>443.5</ele>
        <time>2017-06-01T07:34:18.000Z</time>
      </trkpt>
      <trkpt lat="43.50032" lon="2.29602">
        <ele>443.8</ele>
        <time>2017-06-01T07:34:20.000Z</time>
      </trkpt>
      <trkpt lat="43.50026" lon="2.29598">
        <ele>444.4</ele>
        <time>2017-06-01T07:34:23.000Z</time>
      </trkpt>
      <trkpt lat="43.50022" lon="2.29595">
        <ele>444.9</ele>
        <time>2017-06-01T07:34:25.000Z</time>
      </trkpt>
      <trkpt lat="43.50017" lon="2.29594">
        <ele>445.4</ele>
        <time>2017-06-01T07:34:27.000Z</time>
      </trkpt>
      <trkpt lat="43.50016" lon="2.29589">
        <ele>445.8</ele>
        <time>2017-06-01T07:34:29.000Z</time>
      </trkpt>
      <trkpt lat="43.50015" lon="2.29585">
        <ele>446.1</ele>
        <time>2017-06-01T07:34:30.000Z</time>
      </trkpt>
      <trkpt lat="43.50013" lon="2.29581">
        <ele>446.5</ele>
        <time>2017-06-01T07:34:32.000Z</time>
      </trkpt>
      <trkpt lat="43.50012" lon="2.29574">
        <ele>447.1</ele>
        <time>2017-06-01T07:34:34.000Z</time>
      </trkpt>
      <trkpt lat="43.50008" lon="2.29573">
        <ele>447.5</ele>
        <time>2017-06-01T07:34:35.000Z</time>
      </trkpt>
      <trkpt lat="43.50007" lon="2.29567">
        <ele>448.1</ele>
        <time>2017-06-01T07:34:37.000Z</time>
      </trkpt>
      <trkpt lat="43.50005" lon="2.29564">
        <ele>448.4</ele>
        <time>2017-06-01T07:34:39.000Z</time>
      </trkpt>
      <trkpt lat="43.50004" lon="2.29559">
        <ele>448.8</ele>
        <time>2017-06-01T07:34:40.000Z</time>
      </trkpt>
      <trkpt lat="43.50004" lon="2.29553">
        <ele>449.4</ele>
        <time>2017-06-01T07:34:42.000Z</time>
      </trkpt>
      <trkpt lat="43.50002" lon="2.2955">
        <ele>449.7</ele>
        <time>2017-06-01T07:34:44.000Z</time>
      </trkpt>
      <trkpt lat="43.5" lon="2.29547">
        <ele>450.1</ele>
        <time>2017-06-01T07:34:45.000Z</time>
      </trkpt>
      <trkpt lat="43.50001" lon="2.29541">
        <ele>450.6</ele>
        <time>2017-06-01T07:34:47.000Z</time>
      </trkpt>
      <trkpt lat="43.49999" lon="2.29536">
        <ele>451.2</ele>
        <time>2017-06-01T07:34:48.000Z</time>
      </trkpt>
      <trkpt lat="43.49995" lon="2.2953">
        <ele>452</ele>
        <time>2017-06-01T07:34:51.000Z</time>
      </trkpt>
      <trkpt lat="43.49992" lon="2.29529">
        <ele>452.4</ele>
        <time>2017-06-01T07:34:53.000Z</time>
      </trkpt>
      <trkpt lat="43.49992" lon="2.29523">
        <ele>452.9</ele>
        <time>2017-06-01T07:34:55.000Z</time>
      </trkpt>
      <trkpt lat="43.49989" lon="2.2952">
        <ele>453.2</ele>
        <time>2017-06-01T07:34:56.000Z</time>
      </trkpt>
      <trkpt lat="43.49988" lon="2.29516">
        <ele>453.5</ele>
        <time>2017-06-01T07:34:57.000Z</time>
      </trkpt>
      <trkpt lat="43.49989" lon="2.29511">
        <ele>453.9</ele>
        <time>2017-06-01T07:34:59.000Z</time>
      </trkpt>
      <trkpt lat="43.49986" lon="2.29505">
        <ele>454.4</ele>
        <time>2017-06-01T07:35:01.000Z</time>
      </trkpt>
      <trkpt lat="43.49985" lon="2.29499">
        <ele>454.9</ele>
        <time>2017-06-01T07:35:03.000Z</time>
      </trkpt>
      <trkpt lat="43.49982" lon="2.29498">
        <ele>455.3</ele>
        <time>2017-06-01T07:35:04.000Z</time>
      </trkpt>
      <trkpt lat="43.4998" lon="2.29494">
        <ele>455.7</ele>
        <time>2017-06-01T07:35:06.000Z</time>
      </trkpt>
      <trkpt lat="43.49977" lon="2.29492">
        <ele>456</ele>
        <time>2017-06-01T07:35:08.000Z</time>
      </trkpt>
      <trkpt lat="43.49975" lon="2.29487">
        <ele>456.4</ele>
        <time>2017-06-01T07:35:10.000Z</time>
      </trkpt>
      <trkpt lat="43.49971" lon="2.29482">
        <ele>457</ele>
        <time>2017-06-01T07:35:12.000Z</time>
      </trkpt>
      <trkpt lat="43.49968" lon="2.29478">
        <ele>457.4</ele>
        <time>2017-06-01T07:35:13.000Z</time>
      </trkpt>
      <trkpt lat="43.49964" lon="2.29476">
        <ele>457.8</ele>
        <time>2017-06-01T07:35:14.000Z</time>
      </trkpt>
      <trkpt lat="43.49961" lon="2.29474">
        <ele>458.2</ele>
        <time>2017-06-01T07:35:15.000Z</time>
      </trkpt>
      <trkpt lat="43.49957" lon="2.29473">
        <ele>458.6</ele>
        <time>2017-06-01T07:35:16.000Z</time>
      </trkpt>
      <trkpt lat="43.49957" lon="2.29469">
        <ele>459</ele>
        <time>2017-06-01T07:35:17.000Z</time>
      </trkpt>
      <trkpt lat="43.49953" lon="2.29469">
        <ele>459.3</ele>
        <time>2017-06-01T07:35:18.000Z</time>
      </trkpt>
      <trkpt lat="43.49951" lon="2.29467">
        <ele>459.6</ele>
        <time>2017-06-01T07:35:19.000Z</time>
      </trkpt>
      <trkpt lat="43.49947" lon="2.29462">
        <ele>460.1</ele>
        <time>2017-06-01T07:35:21.000Z</time>
      </trkpt>
      <trkpt lat="43.49943" lon="2.29456">
        <ele>460.9</ele>
        <time>2017-06-01T07:35:22.000Z</time>
      </trkpt>
      <trkpt lat="43.4994" lon="2.29454">
        <ele>461.3</ele>
        <time>2017-06-01T07:35:23.000Z</time>
      </trkpt>
      <trkpt lat="43.49938" lon="2.2945">
        <ele>461.9</ele>
        <time>2017-06-01T07:35:25.000Z</time>
      </trkpt>
      <trkpt lat="43.49939" lon="2.29444">
        <ele>465.3</ele>
        <time>2017-06-01T07:35:26.000Z</time>
      </trkpt>
      <trkpt lat="43.49936" lon="2.29442">
        <ele>466.1</ele>
        <time>2017-06-01T07:35:27.000Z</time>
      </trkpt>
      <trkpt lat="43.49938" lon="2.29434">
        <ele>467.3</ele>
        <time>2017-06-01T07:35:28.000Z</time>
      </trkpt>
      <trkpt lat="43.49936" lon="2.29432">
        <ele>467.4</ele>
        <time>2017-06-01T07:35:29.000Z</time>
      </trkpt>
      <trkpt lat="43.49936" lon="2.29427">
        <ele>467.5</ele>
        <time>2017-06-01T07:35:30.000Z</time>
      </trkpt>
      <trkpt lat="43.49934" lon="2.29428">
        <ele>467.6</ele>
        <time>2017-06-01T07:35:32.000Z</time>
      </trkpt>
      <trkpt lat="43.49932" lon="2.29423">
        <ele>467.8</ele>
        <time>2017-06-01T07:35:34.000Z</time>
      </trkpt>
      <trkpt lat="43.49928" lon="2.29419">
        <ele>467.9</ele>
        <time>2017-06-01T07:35:36.000Z</time>
      </trkpt>
      <trkpt lat="43.49927" lon="2.29413">
        <ele>468</ele>
        <time>2017-06-01T07:35:38.000Z</time>
      </trkpt>
      <trkpt lat="43.49927" lon="2.29407">
        <ele>468.2</ele>
        <time>2017-06-01T07:35:40.000Z</time>
      </trkpt>
      <trkpt lat="43.49924" lon="2.29405">
        <ele>468.3</ele>
        <time>2017-06-01T07:35:41.000Z</time>
      </trkpt>
      <trkpt lat="43.49923" lon="2.29399">
        <ele>468.5</ele>
        <time>2017-06-01T07:35:43.000Z</time>
      </trkpt>
      <trkpt lat="43.49919" lon="2.29397">
        <ele>468.8</ele>
        <time>2017-06-01T07:35:44.000Z</time>
      </trkpt>
      <trkpt lat="43.4992" lon="2.29391">
        <ele>468.9</ele>
        <time>2017-06-01T07:35:46.000Z</time>
      </trkpt>
      <trkpt lat="43.49918" lon="2.29386">
        <ele>469.1</ele>
        <time>2017-06-01T07:35:47.000Z</time>
      </trkpt>
      <trkpt lat="43.49917" lon="2.29381">
        <ele>469.2</ele>
        <time>2017-06-01T07:35:49.000Z</time>
      </trkpt>
      <trkpt lat="43.49914" lon="2.29381">
        <ele>469.3</ele>
        <time>2017-06-01T07:35:50.000Z</time>
      </trkpt>
      <trkpt lat="43.49906" lon="2.29379">
        <ele>469.6</ele>
        <time>2017-06-01T07:35:51.000Z</time>
      </trkpt>
      <trkpt lat="43.49907" lon="2.29371">
        <ele>469.9</ele>
        <time>2017-06-01T07:35:55.000Z</time>
      </trkpt>
      <trkpt lat="43.49903" lon="2.29375">
        <ele>470.2</ele>
        <time>2017-06-01T07:35:56.000Z</time>
      </trkpt>
      <trkpt lat="43.49897" lon="2.29376">
        <ele>470.5</ele>
        <time>2017-06-01T07:35:57.000Z</time>
      </trkpt>
      <trkpt lat="43.4989" lon="2.29377">
        <ele>470.9</ele>
        <time>2017-06-01T07:35:58.000Z</time>
      </trkpt>
      <trkpt lat="43.49887" lon="2.29376">
        <ele>474.3</ele>
        <time>2017-06-01T07:35:59.000Z</time>
      </trkpt>
      <trkpt lat="43.4988" lon="2.29378">
        <ele>478.8</ele>
        <time>2017-06-01T07:36:00.000Z</time>
      </trkpt>
      <trkpt lat="43.49877" lon="2.29379">
        <ele>478.7</ele>
        <time>2017-06-01T07:36:01.000Z</time>
      </trkpt>
      <trkpt lat="43.49873" lon="2.29374">
        <ele>478.5</ele>
        <time>2017-06-01T07:36:03.000Z</time>
      </trkpt>
      <trkpt lat="43.49871" lon="2.29373">
        <ele>478.4</ele>
        <time>2017-06-01T07:36:04.000Z</time>
      </trkpt>
      <trkpt lat="43.49872" lon="2.29366">
        <ele>478.2</ele>
        <time>2017-06-01T07:36:06.000Z</time>
      </trkpt>
      <trkpt lat="43.49865" lon="2.29366">
        <ele>477.8</ele>
        <time>2017-06-01T07:36:08.000Z</time>
      </trkpt>
      <trkpt lat="43.49865" lon="2.29361">
        <ele>477.7</ele>
        <time>2017-06-01T07:36:09.000Z</time>
      </trkpt>
      <trkpt lat="43.49862" lon="2.29361">
        <ele>477.6</ele>
        <time>2017-06-01T07:36:10.000Z</time>
      </trkpt>
      <trkpt lat="43.49858" lon="2.29359">
        <ele>477.5</ele>
        <time>2017-06-01T07:36:11.000Z</time>
      </trkpt>
      <trkpt lat="43.49859" lon="2.29354">
        <ele>477.4</ele>
        <time>2017-06-01T07:36:12.000Z</time>
      </trkpt>
      <trkpt lat="43.49855" lon="2.29354">
        <ele>477.3</ele>
        <time>2017-06-01T07:36:13.000Z</time>
      </trkpt>
      <trkpt lat="43.49852" lon="2.2935">
        <ele>477</ele>
        <time>2017-06-01T07:36:15.000Z</time>
      </trkpt>
      <trkpt lat="43.49847" lon="2.29352">
        <ele>476.8</ele>
        <time>2017-06-01T07:36:16.000Z</time>
      </trkpt>
      <trkpt lat="43.49844" lon="2.2935">
        <ele>476.7</ele>
        <time>2017-06-01T07:36:18.000Z</time>
      </trkpt>
      <trkpt lat="43.49839" lon="2.29347">
        <ele>476.6</ele>
        <time>2017-06-01T07:36:20.000Z</time>
      </trkpt>
      <trkpt lat="43.49836" lon="2.29346">
        <ele>476.4</ele>
        <time>2017-06-01T07:36:21.000Z</time>
      </trkpt>
      <trkpt lat="43.49834" lon="2.29348">
        <ele>476.4</ele>
        <time>2017-06-01T07:36:22.000Z</time>
      </trkpt>
      <trkpt lat="43.4983" lon="2.29347">
        <ele>476.1</ele>
        <time>2017-06-01T07:36:24.000Z</time>
      </trkpt>
      <trkpt lat="43.49829" lon="2.29342">
        <ele>476</ele>
        <time>2017-06-01T07:36:25.000Z</time>
      </trkpt>
      <trkpt lat="43.49826" lon="2.29342">
        <ele>475.9</ele>
        <time>2017-06-01T07:36:26.000Z</time>
      </trkpt>
      <trkpt lat="43.49824" lon="2.29339">
        <ele>475.8</ele>
        <time>2017-06-01T07:36:27.000Z</time>
      </trkpt>
      <trkpt lat="43.49821" lon="2.2934">
        <ele>475.7</ele>
        <time>2017-06-01T07:36:28.000Z</time>
      </trkpt>
      <trkpt lat="43.49819" lon="2.29335">
        <ele>475.6</ele>
        <time>2017-06-01T07:36:29.000Z</time>
      </trkpt>
      <trkpt lat="43.49816" lon="2.2933">
        <ele>475.5</ele>
        <time>2017-06-01T07:36:31.000Z</time>
      </trkpt>
      <trkpt lat="43.49814" lon="2.29326">
        <ele>475.4</ele>
        <time>2017-06-01T07:36:32.000Z</time>
      </trkpt>
      <trkpt lat="43.49811" lon="2.29319">
        <ele>475.3</ele>
        <time>2017-06-01T07:36:34.000Z</time>
      </trkpt>
      <trkpt lat="43.49814" lon="2.29309">
        <ele>475.2</ele>
        <time>2017-06-01T07:36:35.000Z</time>
      </trkpt>
      <trkpt lat="43.49813" lon="2.29305">
        <ele>475.1</ele>
        <time>2017-06-01T07:36:36.000Z</time>
      </trkpt>
      <trkpt lat="43.49807" lon="2.29308">
        <ele>475</ele>
        <time>2017-06-01T07:36:38.000Z</time>
      </trkpt>
      <trkpt lat="43.49807" lon="2.29303">
        <ele>475</ele>
        <time>2017-06-01T07:36:40.000Z</time>
      </trkpt>
      <trkpt lat="43.4981" lon="2.29302">
        <ele>475</ele>
        <time>2017-06-01T07:36:44.000Z</time>
      </trkpt>
      <trkpt lat="43.49814" lon="2.29306">
        <ele>475.1</ele>
        <time>2017-06-01T07:36:46.000Z</time>
      </trkpt>
      <trkpt lat="43.49816" lon="2.29311">
        <ele>475.2</ele>
        <time>2017-06-01T07:36:50.000Z</time>
      </trkpt>
      <trkpt lat="43.4982" lon="2.29313">
        <ele>475.2</ele>
        <time>2017-06-01T07:36:52.000Z</time>
      </trkpt>
      <trkpt lat="43.49822" lon="2.29317">
        <ele>475.3</ele>
        <time>2017-06-01T07:36:53.000Z</time>
      </trkpt>
      <trkpt lat="43.49827" lon="2.29324">
        <ele>475.4</ele>
        <time>2017-06-01T07:36:55.000Z</time>
      </trkpt>
      <trkpt lat="43.49831" lon="2.29326">
        <ele>475.5</ele>
        <time>2017-06-01T07:36:57.000Z</time>
      </trkpt>
      <trkpt lat="43.49834" lon="2.29332">
        <ele>475.6</ele>
        <time>2017-06-01T07:36:58.000Z</time>
      </trkpt>
      <trkpt lat="43.49837" lon="2.29334">
        <ele>475.8</ele>
        <time>2017-06-01T07:37:00.000Z</time>
      </trkpt>
      <trkpt lat="43.49841" lon="2.29337">
        <ele>475.9</ele>
        <time>2017-06-01T07:37:02.000Z</time>
      </trkpt>
      <trkpt lat="43.49845" lon="2.29337">
        <ele>476.1</ele>
        <time>2017-06-01T07:37:05.000Z</time>
      </trkpt>
      <trkpt lat="43.49847" lon="2.29341">
        <ele>476.2</ele>
        <time>2017-06-01T07:37:07.000Z</time>
      </trkpt>
      <trkpt lat="43.49848" lon="2.29345">
        <ele>476.4</ele>
        <time>2017-06-01T07:37:08.000Z</time>
      </trkpt>
      <trkpt lat="43.49851" lon="2.29348">
        <ele>476.5</ele>
        <time>2017-06-01T07:37:09.000Z</time>
      </trkpt>
      <trkpt lat="43.49853" lon="2.29355">
        <ele>476.7</ele>
        <time>2017-06-01T07:37:11.000Z</time>
      </trkpt>
      <trkpt lat="43.49856" lon="2.2936">
        <ele>476.8</ele>
        <time>2017-06-01T07:37:13.000Z</time>
      </trkpt>
      <trkpt lat="43.49859" lon="2.29365">
        <ele>477</ele>
        <time>2017-06-01T07:37:15.000Z</time>
      </trkpt>
      <trkpt lat="43.49862" lon="2.29366">
        <ele>477.2</ele>
        <time>2017-06-01T07:37:17.000Z</time>
      </trkpt>
      <trkpt lat="43.49865" lon="2.29369">
        <ele>477.4</ele>
        <time>2017-06-01T07:37:19.000Z</time>
      </trkpt>
      <trkpt lat="43.49868" lon="2.29372">
        <ele>477.4</ele>
        <time>2017-06-01T07:37:21.000Z</time>
      </trkpt>
      <trkpt lat="43.49869" lon="2.29378">
        <ele>477.6</ele>
        <time>2017-06-01T07:37:23.000Z</time>
      </trkpt>
      <trkpt lat="43.49872" lon="2.29382">
        <ele>477.7</ele>
        <time>2017-06-01T07:37:25.000Z</time>
      </trkpt>
      <trkpt lat="43.49875" lon="2.29384">
        <ele>477.8</ele>
        <time>2017-06-01T07:37:27.000Z</time>
      </trkpt>
      <trkpt lat="43.49877" lon="2.29388">
        <ele>478</ele>
        <time>2017-06-01T07:37:29.000Z</time>
      </trkpt>
      <trkpt lat="43.4988" lon="2.29393">
        <ele>478.2</ele>
        <time>2017-06-01T07:37:31.000Z</time>
      </trkpt>
      <trkpt lat="43.49884" lon="2.29397">
        <ele>478.4</ele>
        <time>2017-06-01T07:37:34.000Z</time>
      </trkpt>
      <trkpt lat="43.49886" lon="2.294">
        <ele>478.5</ele>
        <time>2017-06-01T07:37:35.000Z</time>
      </trkpt>
      <trkpt lat="43.49887" lon="2.29405">
        <ele>478.7</ele>
        <time>2017-06-01T07:37:39.000Z</time>
      </trkpt>
      <trkpt lat="43.49888" lon="2.29409">
        <ele>478.8</ele>
        <time>2017-06-01T07:37:40.000Z</time>
      </trkpt>
      <trkpt lat="43.49889" lon="2.29406">
        <ele>479</ele>
        <time>2017-06-01T07:37:41.000Z</time>
      </trkpt>
      <trkpt lat="43.49892" lon="2.29412">
        <ele>479.2</ele>
        <time>2017-06-01T07:37:43.000Z</time>
      </trkpt>
      <trkpt lat="43.49896" lon="2.29419">
        <ele>479.5</ele>
        <time>2017-06-01T07:37:46.000Z</time>
      </trkpt>
      <trkpt lat="43.49898" lon="2.29423">
        <ele>479.7</ele>
        <time>2017-06-01T07:37:47.000Z</time>
      </trkpt>
      <trkpt lat="43.499" lon="2.29425">
        <ele>479.8</ele>
        <time>2017-06-01T07:37:48.000Z</time>
      </trkpt>
      <trkpt lat="43.49901" lon="2.29429">
        <ele>479.9</ele>
        <time>2017-06-01T07:37:50.000Z</time>
      </trkpt>
      <trkpt lat="43.49901" lon="2.29435">
        <ele>480.1</ele>
        <time>2017-06-01T07:37:52.000Z</time>
      </trkpt>
      <trkpt lat="43.49905" lon="2.29439">
        <ele>480.3</ele>
        <time>2017-06-01T07:37:53.000Z</time>
      </trkpt>
      <trkpt lat="43.49907" lon="2.29448">
        <ele>480.5</ele>
        <time>2017-06-01T07:37:55.000Z</time>
      </trkpt>
      <trkpt lat="43.4991" lon="2.29452">
        <ele>480.7</ele>
        <time>2017-06-01T07:37:58.000Z</time>
      </trkpt>
      <trkpt lat="43.49913" lon="2.29455">
        <ele>480.8</ele>
        <time>2017-06-01T07:37:59.000Z</time>
      </trkpt>
      <trkpt lat="43.49917" lon="2.29458">
        <ele>480.9</ele>
        <time>2017-06-01T07:38:01.000Z</time>
      </trkpt>
      <trkpt lat="43.49921" lon="2.29463">
        <ele>481.1</ele>
        <time>2017-06-01T07:38:03.000Z</time>
      </trkpt>
      <trkpt lat="43.49922" lon="2.29469">
        <ele>481.3</ele>
        <time>2017-06-01T07:38:04.000Z</time>
      </trkpt>
      <trkpt lat="43.49924" lon="2.29471">
        <ele>481.5</ele>
        <time>2017-06-01T07:38:05.000Z</time>
      </trkpt>
      <trkpt lat="43.49927" lon="2.29474">
        <ele>481.6</ele>
        <time>2017-06-01T07:38:06.000Z</time>
      </trkpt>
      <trkpt lat="43.49929" lon="2.29479">
        <ele>481.7</ele>
        <time>2017-06-01T07:38:07.000Z</time>
      </trkpt>
      <trkpt lat="43.49934" lon="2.29487">
        <ele>482</ele>
        <time>2017-06-01T07:38:08.000Z</time>
      </trkpt>
      <trkpt lat="43.49938" lon="2.29491">
        <ele>482.3</ele>
        <time>2017-06-01T07:38:10.000Z</time>
      </trkpt>
      <trkpt lat="43.49942" lon="2.29491">
        <ele>482.5</ele>
        <time>2017-06-01T07:38:12.000Z</time>
      </trkpt>
      <trkpt lat="43.49943" lon="2.29499">
        <ele>482.7</ele>
        <time>2017-06-01T07:38:16.000Z</time>
      </trkpt>
      <trkpt lat="43.49946" lon="2.29502">
        <ele>482.9</ele>
        <time>2017-06-01T07:38:17.000Z</time>
      </trkpt>
      <trkpt lat="43.49948" lon="2.29508">
        <ele>483.1</ele>
        <time>2017-06-01T07:38:19.000Z</time>
      </trkpt>
      <trkpt lat="43.49951" lon="2.2951">
        <ele>483.3</ele>
        <time>2017-06-01T07:38:20.000Z</time>
      </trkpt>
      <trkpt lat="43.49948" lon="2.29515">
        <ele>483.5</ele>
        <time>2017-06-01T07:38:21.000Z</time>
      </trkpt>
      <trkpt lat="43.49954" lon="2.29523">
        <ele>484</ele>
        <time>2017-06-01T07:38:22.000Z</time>
      </trkpt>
      <trkpt lat="43.49959" lon="2.2953">
        <ele>484.2</ele>
        <time>2017-06-01T07:38:23.000Z</time>
      </trkpt>
      <trkpt lat="43.49957" lon="2.29534">
        <ele>484.4</ele>
        <time>2017-06-01T07:38:24.000Z</time>
      </trkpt>
      <trkpt lat="43.49955" lon="2.29543">
        <ele>484.6</ele>
        <time>2017-06-01T07:38:25.000Z</time>
      </trkpt>
      <trkpt lat="43.49956" lon="2.29547">
        <ele>484.7</ele>
        <time>2017-06-01T07:38:26.000Z</time>
      </trkpt>
      <trkpt lat="43.49954" lon="2.29552">
        <ele>484.8</ele>
        <time>2017-06-01T07:38:28.000Z</time>
      </trkpt>
      <trkpt lat="43.49955" lon="2.29557">
        <ele>485</ele>
        <time>2017-06-01T07:38:30.000Z</time>
      </trkpt>
      <trkpt lat="43.49958" lon="2.29558">
        <ele>485.1</ele>
        <time>2017-06-01T07:38:31.000Z</time>
      </trkpt>
      <trkpt lat="43.49958" lon="2.29565">
        <ele>485.2</ele>
        <time>2017-06-01T07:38:33.000Z</time>
      </trkpt>
      <trkpt lat="43.49955" lon="2.29565">
        <ele>485.3</ele>
        <time>2017-06-01T07:38:34.000Z</time>
      </trkpt>
      <trkpt lat="43.49955" lon="2.29569">
        <ele>485.4</ele>
        <time>2017-06-01T07:38:35.000Z</time>
      </trkpt>
      <trkpt lat="43.49956" lon="2.29574">
        <ele>485.5</ele>
        <time>2017-06-01T07:38:36.000Z</time>
      </trkpt>
      <trkpt lat="43.49953" lon="2.29576">
        <ele>485.6</ele>
        <time>2017-06-01T07:38:37.000Z</time>
      </trkpt>
      <trkpt lat="43.49953" lon="2.29584">
        <ele>485.9</ele>
        <time>2017-06-01T07:38:38.000Z</time>
      </trkpt>
      <trkpt lat="43.49956" lon="2.29591">
        <ele>486.2</ele>
        <time>2017-06-01T07:38:42.000Z</time>
      </trkpt>
      <trkpt lat="43.49956" lon="2.29596">
        <ele>486.4</ele>
        <time>2017-06-01T07:38:43.000Z</time>
      </trkpt>
      <trkpt lat="43.49955" lon="2.29601">
        <ele>486.6</ele>
        <time>2017-06-01T07:38:45.000Z</time>
      </trkpt>
      <trkpt lat="43.49953" lon="2.29607">
        <ele>486.9</ele>
        <time>2017-06-01T07:38:47.000Z</time>
      </trkpt>
      <trkpt lat="43.49955" lon="2.29613">
        <ele>487.1</ele>
        <time>2017-06-01T07:38:48.000Z</time>
      </trkpt>
      <trkpt lat="43.49956" lon="2.29619">
        <ele>487.4</ele>
        <time>2017-06-01T07:38:50.000Z</time>
      </trkpt>
      <trkpt lat="43.49959" lon="2.29628">
        <ele>487.8</ele>
        <time>2017-06-01T07:38:52.000Z</time>
      </trkpt>
      <trkpt lat="43.49957" lon="2.29632">
        <ele>488</ele>
        <time>2017-06-01T07:38:53.000Z</time>
      </trkpt>
      <trkpt lat="43.49958" lon="2.29638">
        <ele>488.2</ele>
        <time>2017-06-01T07:38:56.000Z</time>
      </trkpt>
      <trkpt lat="43.49956" lon="2.29645">
        <ele>488.4</ele>
        <time>2017-06-01T07:38:58.000Z</time>
      </trkpt>
      <trkpt lat="43.49976" lon="2.29662">
        <ele>489.3</ele>
        <time>2017-06-01T07:39:01.000Z</time>
      </trkpt>
      <trkpt lat="43.4998" lon="2.29664">
        <ele>489.4</ele>
        <time>2017-06-01T07:39:02.000Z</time>
      </trkpt>
      <trkpt lat="43.49976" lon="2.29662">
        <ele>489.5</ele>
        <time>2017-06-01T07:39:03.000Z</time>
      </trkpt>
      <trkpt lat="43.49967" lon="2.29663">
        <ele>489.8</ele>
        <time>2017-06-01T07:39:04.000Z</time>
      </trkpt>
      <trkpt lat="43.49976" lon="2.29668">
        <ele>490.2</ele>
        <time>2017-06-01T07:39:05.000Z</time>
      </trkpt>
      <trkpt lat="43.49978" lon="2.29673">
        <ele>490.4</ele>
        <time>2017-06-01T07:39:06.000Z</time>
      </trkpt>
      <trkpt lat="43.49974" lon="2.29669">
        <ele>490.6</ele>
        <time>2017-06-01T07:39:07.000Z</time>
      </trkpt>
      <trkpt lat="43.49963" lon="2.29671">
        <ele>491</ele>
        <time>2017-06-01T07:39:10.000Z</time>
      </trkpt>
      <trkpt lat="43.49955" lon="2.29686">
        <ele>491.6</ele>
        <time>2017-06-01T07:39:13.000Z</time>
      </trkpt>
      <trkpt lat="43.49957" lon="2.29691">
        <ele>491.7</ele>
        <time>2017-06-01T07:39:14.000Z</time>
      </trkpt>
      <trkpt lat="43.49947" lon="2.297">
        <ele>492.1</ele>
        <time>2017-06-01T07:39:16.000Z</time>
      </trkpt>
      <trkpt lat="43.49948" lon="2.29707">
        <ele>492.2</ele>
        <time>2017-06-01T07:39:17.000Z</time>
      </trkpt>
      <trkpt lat="43.49936" lon="2.29702">
        <ele>492.9</ele>
        <time>2017-06-01T07:39:18.000Z</time>
      </trkpt>
      <trkpt lat="43.49936" lon="2.29707">
        <ele>493</ele>
        <time>2017-06-01T07:39:19.000Z</time>
      </trkpt>
      <trkpt lat="43.49928" lon="2.29708">
        <ele>495.7</ele>
        <time>2017-06-01T07:39:21.000Z</time>
      </trkpt>
      <trkpt lat="43.49921" lon="2.2971">
        <ele>496.9</ele>
        <time>2017-06-01T07:39:23.000Z</time>
      </trkpt>
      <trkpt lat="43.49921" lon="2.29716">
        <ele>496.5</ele>
        <time>2017-06-01T07:39:25.000Z</time>
      </trkpt>
      <trkpt lat="43.49925" lon="2.29722">
        <ele>495.1</ele>
        <time>2017-06-01T07:39:27.000Z</time>
      </trkpt>
      <trkpt lat="43.49922" lon="2.29728">
        <ele>495.4</ele>
        <time>2017-06-01T07:39:29.000Z</time>
      </trkpt>
      <trkpt lat="43.49924" lon="2.29734">
        <ele>494.4</ele>
        <time>2017-06-01T07:39:31.000Z</time>
      </trkpt>
      <trkpt lat="43.49928" lon="2.29744">
        <ele>494.7</ele>
        <time>2017-06-01T07:39:32.000Z</time>
      </trkpt>
      <trkpt lat="43.49925" lon="2.29746">
        <ele>494.7</ele>
        <time>2017-06-01T07:39:33.000Z</time>
      </trkpt>
      <trkpt lat="43.49922" lon="2.29748">
        <ele>494.8</ele>
        <time>2017-06-01T07:39:35.000Z</time>
      </trkpt>
      <trkpt lat="43.4992" lon="2.29749">
        <ele>494.9</ele>
        <time>2017-06-01T07:39:36.000Z</time>
      </trkpt>
      <trkpt lat="43.49918" lon="2.29754">
        <ele>495</ele>
        <time>2017-06-01T07:39:38.000Z</time>
      </trkpt>
      <trkpt lat="43.49917" lon="2.29759">
        <ele>495.1</ele>
        <time>2017-06-01T07:39:40.000Z</time>
      </trkpt>
      <trkpt lat="43.49916" lon="2.29762">
        <ele>495.1</ele>
        <time>2017-06-01T07:39:41.000Z</time>
      </trkpt>
      <trkpt lat="43.49912" lon="2.29766">
        <ele>495.2</ele>
        <time>2017-06-01T07:39:42.000Z</time>
      </trkpt>
      <trkpt lat="43.49912" lon="2.29774">
        <ele>495.4</ele>
        <time>2017-06-01T07:39:44.000Z</time>
      </trkpt>
      <trkpt lat="43.4991" lon="2.2978">
        <ele>495.5</ele>
        <time>2017-06-01T07:39:46.000Z</time>
      </trkpt>
      <trkpt lat="43.49908" lon="2.29783">
        <ele>495.5</ele>
        <time>2017-06-01T07:39:48.000Z</time>
      </trkpt>
      <trkpt lat="43.49908" lon="2.29787">
        <ele>495.6</ele>
        <time>2017-06-01T07:39:50.000Z</time>
      </trkpt>
      <trkpt lat="43.49904" lon="2.29787">
        <ele>495.8</ele>
        <time>2017-06-01T07:39:51.000Z</time>
      </trkpt>
      <trkpt lat="43.499" lon="2.29789">
        <ele>495.9</ele>
        <time>2017-06-01T07:39:53.000Z</time>
      </trkpt>
      <trkpt lat="43.49896" lon="2.29787">
        <ele>496</ele>
        <time>2017-06-01T07:39:55.000Z</time>
      </trkpt>
      <trkpt lat="43.49895" lon="2.29781">
        <ele>496.1</ele>
        <time>2017-06-01T07:39:57.000Z</time>
      </trkpt>
      <trkpt lat="43.49896" lon="2.29778">
        <ele>496.2</ele>
        <time>2017-06-01T07:39:58.000Z</time>
      </trkpt>
      <trkpt lat="43.49898" lon="2.29774">
        <ele>496.3</ele>
        <time>2017-06-01T07:40:00.000Z</time>
      </trkpt>
      <trkpt lat="43.499" lon="2.2977">
        <ele>496.3</ele>
        <time>2017-06-01T07:40:02.000Z</time>
      </trkpt>
      <trkpt lat="43.49903" lon="2.29767">
        <ele>496.4</ele>
        <time>2017-06-01T07:40:03.000Z</time>
      </trkpt>
      <trkpt lat="43.49903" lon="2.29763">
        <ele>496.5</ele>
        <time>2017-06-01T07:40:04.000Z</time>
      </trkpt>
      <trkpt lat="43.49906" lon="2.29759">
        <ele>496.5</ele>
        <time>2017-06-01T07:40:06.000Z</time>
      </trkpt>
      <trkpt lat="43.49908" lon="2.29755">
        <ele>496.6</ele>
        <time>2017-06-01T07:40:07.000Z</time>
      </trkpt>
      <trkpt lat="43.49909" lon="2.29751">
        <ele>496.7</ele>
        <time>2017-06-01T07:40:08.000Z</time>
      </trkpt>
      <trkpt lat="43.49912" lon="2.29747">
        <ele>496.8</ele>
        <time>2017-06-01T07:40:10.000Z</time>
      </trkpt>
      <trkpt lat="43.49912" lon="2.29741">
        <ele>496.9</ele>
        <time>2017-06-01T07:40:12.000Z</time>
      </trkpt>
      <trkpt lat="43.49914" lon="2.29737">
        <ele>497</ele>
        <time>2017-06-01T07:40:13.000Z</time>
      </trkpt>
      <trkpt lat="43.49916" lon="2.29733">
        <ele>497.1</ele>
        <time>2017-06-01T07:40:15.000Z</time>
      </trkpt>
      <trkpt lat="43.49916" lon="2.29725">
        <ele>497.2</ele>
        <time>2017-06-01T07:40:17.000Z</time>
      </trkpt>
      <trkpt lat="43.49918" lon="2.29721">
        <ele>497.3</ele>
        <time>2017-06-01T07:40:18.000Z</time>
      </trkpt>
      <trkpt lat="43.49917" lon="2.29717">
        <ele>497.4</ele>
        <time>2017-06-01T07:40:20.000Z</time>
      </trkpt>
      <trkpt lat="43.49919" lon="2.29711">
        <ele>497.6</ele>
        <time>2017-06-01T07:40:21.000Z</time>
      </trkpt>
      <trkpt lat="43.49922" lon="2.29705">
        <ele>497.8</ele>
        <time>2017-06-01T07:40:23.000Z</time>
      </trkpt>
      <trkpt lat="43.49918" lon="2.29698">
        <ele>498</ele>
        <time>2017-06-01T07:40:25.000Z</time>
      </trkpt>
      <trkpt lat="43.49923" lon="2.29691">
        <ele>498.4</ele>
        <time>2017-06-01T07:40:26.000Z</time>
      </trkpt>
      <trkpt lat="43.49927" lon="2.29682">
        <ele>498.7</ele>
        <time>2017-06-01T07:40:28.000Z</time>
      </trkpt>
      <trkpt lat="43.49924" lon="2.29672">
        <ele>499</ele>
        <time>2017-06-01T07:40:32.000Z</time>
      </trkpt>
      <trkpt lat="43.4992" lon="2.29671">
        <ele>499.1</ele>
        <time>2017-06-01T07:40:34.000Z</time>
      </trkpt>
      <trkpt lat="43.49915" lon="2.2967">
        <ele>499.3</ele>
        <time>2017-06-01T07:40:36.000Z</time>
      </trkpt>
      <trkpt lat="43.49912" lon="2.29669">
        <ele>499.4</ele>
        <time>2017-06-01T07:40:37.000Z</time>
      </trkpt>
      <trkpt lat="43.49917" lon="2.29662">
        <ele>499.7</ele>
        <time>2017-06-01T07:40:40.000Z</time>
      </trkpt>
      <trkpt lat="43.49913" lon="2.29656">
        <ele>499.9</ele>
        <time>2017-06-01T07:40:41.000Z</time>
      </trkpt>
      <trkpt lat="43.49918" lon="2.29653">
        <ele>500.2</ele>
        <time>2017-06-01T07:40:42.000Z</time>
      </trkpt>
      <trkpt lat="43.49919" lon="2.29645">
        <ele>500.5</ele>
        <time>2017-06-01T07:40:44.000Z</time>
      </trkpt>
      <trkpt lat="43.49919" lon="2.29641">
        <ele>500.6</ele>
        <time>2017-06-01T07:40:45.000Z</time>
      </trkpt>
      <trkpt lat="43.49923" lon="2.29636">
        <ele>500.8</ele>
        <time>2017-06-01T07:40:46.000Z</time>
      </trkpt>
      <trkpt lat="43.49916" lon="2.29632">
        <ele>501.2</ele>
        <time>2017-06-01T07:40:47.000Z</time>
      </trkpt>
      <trkpt lat="43.4991" lon="2.2963">
        <ele>501.4</ele>
        <time>2017-06-01T07:40:48.000Z</time>
      </trkpt>
      <trkpt lat="43.49906" lon="2.29617">
        <ele>501.8</ele>
        <time>2017-06-01T07:40:49.000Z</time>
      </trkpt>
      <trkpt lat="43.49906" lon="2.29625">
        <ele>502</ele>
        <time>2017-06-01T07:40:50.000Z</time>
      </trkpt>
      <trkpt lat="43.49912" lon="2.29623">
        <ele>502.2</ele>
        <time>2017-06-01T07:40:51.000Z</time>
      </trkpt>
      <trkpt lat="43.4991" lon="2.2962">
        <ele>502.3</ele>
        <time>2017-06-01T07:40:52.000Z</time>
      </trkpt>
      <trkpt lat="43.49909" lon="2.29615">
        <ele>502.4</ele>
        <time>2017-06-01T07:40:54.000Z</time>
      </trkpt>
      <trkpt lat="43.49906" lon="2.29613">
        <ele>502.5</ele>
        <time>2017-06-01T07:40:55.000Z</time>
      </trkpt>
      <trkpt lat="43.49907" lon="2.29609">
        <ele>502.6</ele>
        <time>2017-06-01T07:40:57.000Z</time>
      </trkpt>
      <trkpt lat="43.49908" lon="2.29603">
        <ele>502.7</ele>
        <time>2017-06-01T07:40:59.000Z</time>
      </trkpt>
      <trkpt lat="43.49907" lon="2.29599">
        <ele>502.9</ele>
        <time>2017-06-01T07:41:00.000Z</time>
      </trkpt>
      <trkpt lat="43.4991" lon="2.29592">
        <ele>503.1</ele>
        <time>2017-06-01T07:41:02.000Z</time>
      </trkpt>
      <trkpt lat="43.49915" lon="2.29587">
        <ele>503.2</ele>
        <time>2017-06-01T07:41:03.000Z</time>
      </trkpt>
      <trkpt lat="43.49911" lon="2.29581">
        <ele>503.3</ele>
        <time>2017-06-01T07:41:05.000Z</time>
      </trkpt>
      <trkpt lat="43.49908" lon="2.29578">
        <ele>503.4</ele>
        <time>2017-06-01T07:41:06.000Z</time>
      </trkpt>
      <trkpt lat="43.49904" lon="2.29578">
        <ele>503.5</ele>
        <time>2017-06-01T07:41:08.000Z</time>
      </trkpt>
      <trkpt lat="43.499" lon="2.29575">
        <ele>503.7</ele>
        <time>2017-06-01T07:41:09.000Z</time>
      </trkpt>
      <trkpt lat="43.49897" lon="2.29574">
        <ele>503.8</ele>
        <time>2017-06-01T07:41:10.000Z</time>
      </trkpt>
      <trkpt lat="43.49891" lon="2.29571">
        <ele>504</ele>
        <time>2017-06-01T07:41:13.000Z</time>
      </trkpt>
      <trkpt lat="43.49889" lon="2.29571">
        <ele>504.1</ele>
        <time>2017-06-01T07:41:14.000Z</time>
      </trkpt>
      <trkpt lat="43.49883" lon="2.2957">
        <ele>504.2</ele>
        <time>2017-06-01T07:41:15.000Z</time>
      </trkpt>
      <trkpt lat="43.49879" lon="2.29567">
        <ele>504.3</ele>
        <time>2017-06-01T07:41:17.000Z</time>
      </trkpt>
      <trkpt lat="43.49875" lon="2.29563">
        <ele>504.6</ele>
        <time>2017-06-01T07:41:19.000Z</time>
      </trkpt>
      <trkpt lat="43.49875" lon="2.29559">
        <ele>504.7</ele>
        <time>2017-06-01T07:41:20.000Z</time>
      </trkpt>
      <trkpt lat="43.49872" lon="2.29552">
        <ele>504.8</ele>
        <time>2017-06-01T07:41:21.000Z</time>
      </trkpt>
      <trkpt lat="43.49869" lon="2.29555">
        <ele>504.9</ele>
        <time>2017-06-01T07:41:22.000Z</time>
      </trkpt>
      <trkpt lat="43.49869" lon="2.2955">
        <ele>505</ele>
        <time>2017-06-01T07:41:24.000Z</time>
      </trkpt>
      <trkpt lat="43.49866" lon="2.29542">
        <ele>505.2</ele>
        <time>2017-06-01T07:41:27.000Z</time>
      </trkpt>
      <trkpt lat="43.49863" lon="2.29541">
        <ele>505.3</ele>
        <time>2017-06-01T07:41:28.000Z</time>
      </trkpt>
      <trkpt lat="43.49859" lon="2.29545">
        <ele>505.4</ele>
        <time>2017-06-01T07:41:30.000Z</time>
      </trkpt>
      <trkpt lat="43.4986" lon="2.29542">
        <ele>505.5</ele>
        <time>2017-06-01T07:41:31.000Z</time>
      </trkpt>
      <trkpt lat="43.49857" lon="2.29539">
        <ele>505.6</ele>
        <time>2017-06-01T07:41:32.000Z</time>
      </trkpt>
      <trkpt lat="43.49857" lon="2.29532">
        <ele>505.8</ele>
        <time>2017-06-01T07:41:33.000Z</time>
      </trkpt>
      <trkpt lat="43.49852" lon="2.29532">
        <ele>506</ele>
        <time>2017-06-01T07:41:34.000Z</time>
      </trkpt>
      <trkpt lat="43.49845" lon="2.29533">
        <ele>506.3</ele>
        <time>2017-06-01T07:41:35.000Z</time>
      </trkpt>
      <trkpt lat="43.49843" lon="2.29528">
        <ele>506.4</ele>
        <time>2017-06-01T07:41:37.000Z</time>
      </trkpt>
      <trkpt lat="43.49842" lon="2.29519">
        <ele>506.6</ele>
        <time>2017-06-01T07:41:38.000Z</time>
      </trkpt>
      <trkpt lat="43.49838" lon="2.29516">
        <ele>506.7</ele>
        <time>2017-06-01T07:41:39.000Z</time>
      </trkpt>
      <trkpt lat="43.49837" lon="2.29511">
        <ele>506.8</ele>
        <time>2017-06-01T07:41:40.000Z</time>
      </trkpt>
      <trkpt lat="43.49837" lon="2.29504">
        <ele>507</ele>
        <time>2017-06-01T07:41:41.000Z</time>
      </trkpt>
      <trkpt lat="43.49834" lon="2.29503">
        <ele>507.1</ele>
        <time>2017-06-01T07:41:42.000Z</time>
      </trkpt>
      <trkpt lat="43.49831" lon="2.295">
        <ele>507.3</ele>
        <time>2017-06-01T07:41:44.000Z</time>
      </trkpt>
      <trkpt lat="43.4983" lon="2.29496">
        <ele>507.4</ele>
        <time>2017-06-01T07:41:45.000Z</time>
      </trkpt>
      <trkpt lat="43.49829" lon="2.29491">
        <ele>507.5</ele>
        <time>2017-06-01T07:41:46.000Z</time>
      </trkpt>
      <trkpt lat="43.49829" lon="2.29481">
        <ele>507.8</ele>
        <time>2017-06-01T07:41:47.000Z</time>
      </trkpt>
      <trkpt lat="43.49826" lon="2.29482">
        <ele>507.9</ele>
        <time>2017-06-01T07:41:48.000Z</time>
      </trkpt>
      <trkpt lat="43.49829" lon="2.29474">
        <ele>508</ele>
        <time>2017-06-01T07:41:49.000Z</time>
      </trkpt>
      <trkpt lat="43.49825" lon="2.29469">
        <ele>508.1</ele>
        <time>2017-06-01T07:41:50.000Z</time>
      </trkpt>
      <trkpt lat="43.49827" lon="2.29459">
        <ele>508.3</ele>
        <time>2017-06-01T07:41:51.000Z</time>
      </trkpt>
      <trkpt lat="43.49818" lon="2.29462">
        <ele>508.5</ele>
        <time>2017-06-01T07:41:53.000Z</time>
      </trkpt>
      <trkpt lat="43.49816" lon="2.29459">
        <ele>508.6</ele>
        <time>2017-06-01T07:41:54.000Z</time>
      </trkpt>
      <trkpt lat="43.49812" lon="2.2946">
        <ele>508.8</ele>
        <time>2017-06-01T07:41:55.000Z</time>
      </trkpt>
      <trkpt lat="43.49811" lon="2.29455">
        <ele>508.9</ele>
        <time>2017-06-01T07:41:56.000Z</time>
      </trkpt>
      <trkpt lat="43.49806" lon="2.29458">
        <ele>509.1</ele>
        <time>2017-06-01T07:41:57.000Z</time>
      </trkpt>
      <trkpt lat="43.49801" lon="2.29463">
        <ele>509.3</ele>
        <time>2017-06-01T07:41:59.000Z</time>
      </trkpt>
      <trkpt lat="43.49792" lon="2.29462">
        <ele>509.7</ele>
        <time>2017-06-01T07:42:00.000Z</time>
      </trkpt>
      <trkpt lat="43.49786" lon="2.29465">
        <ele>509.9</ele>
        <time>2017-06-01T07:42:01.000Z</time>
      </trkpt>
      <trkpt lat="43.49804" lon="2.2944">
        <ele>510.9</ele>
        <time>2017-06-01T07:42:03.000Z</time>
      </trkpt>
      <trkpt lat="43.49801" lon="2.29439">
        <ele>511</ele>
        <time>2017-06-01T07:42:04.000Z</time>
      </trkpt>
      <trkpt lat="43.49797" lon="2.29441">
        <ele>511.2</ele>
        <time>2017-06-01T07:42:05.000Z</time>
      </trkpt>
      <trkpt lat="43.49792" lon="2.29442">
        <ele>511.3</ele>
        <time>2017-06-01T07:42:06.000Z</time>
      </trkpt>
      <trkpt lat="43.49784" lon="2.29441">
        <ele>511.6</ele>
        <time>2017-06-01T07:42:08.000Z</time>
      </trkpt>
      <trkpt lat="43.49779" lon="2.29444">
        <ele>511.7</ele>
        <time>2017-06-01T07:42:09.000Z</time>
      </trkpt>
      <trkpt lat="43.49782" lon="2.2944">
        <ele>509.9</ele>
        <time>2017-06-01T07:42:11.000Z</time>
      </trkpt>
      <trkpt lat="43.49775" lon="2.29443">
        <ele>512.9</ele>
        <time>2017-06-01T07:42:15.000Z</time>
      </trkpt>
      <trkpt lat="43.49768" lon="2.29444">
        <ele>514.7</ele>
        <time>2017-06-01T07:42:16.000Z</time>
      </trkpt>
      <trkpt lat="43.49761" lon="2.29446">
        <ele>516</ele>
        <time>2017-06-01T07:42:17.000Z</time>
      </trkpt>
      <trkpt lat="43.49756" lon="2.29447">
        <ele>517.4</ele>
        <time>2017-06-01T07:42:18.000Z</time>
      </trkpt>
      <trkpt lat="43.49753" lon="2.29447">
        <ele>516.8</ele>
        <time>2017-06-01T07:42:20.000Z</time>
      </trkpt>
      <trkpt lat="43.49745" lon="2.2945">
        <ele>516.9</ele>
        <time>2017-06-01T07:42:22.000Z</time>
      </trkpt>
      <trkpt lat="43.49744" lon="2.29445">
        <ele>516.5</ele>
        <time>2017-06-01T07:42:24.000Z</time>
      </trkpt>
      <trkpt lat="43.49744" lon="2.2944">
        <ele>516</ele>
        <time>2017-06-01T07:42:26.000Z</time>
      </trkpt>
      <trkpt lat="43.49744" lon="2.29436">
        <ele>515.4</ele>
        <time>2017-06-01T07:42:28.000Z</time>
      </trkpt>
      <trkpt lat="43.49741" lon="2.29435">
        <ele>515.3</ele>
        <time>2017-06-01T07:42:31.000Z</time>
      </trkpt>
      <trkpt lat="43.49737" lon="2.29438">
        <ele>515.1</ele>
        <time>2017-06-01T07:42:32.000Z</time>
      </trkpt>
      <trkpt lat="43.49736" lon="2.29433">
        <ele>514.2</ele>
        <time>2017-06-01T07:42:35.000Z</time>
      </trkpt>
      <trkpt lat="43.49733" lon="2.29437">
        <ele>515.2</ele>
        <time>2017-06-01T07:42:37.000Z</time>
      </trkpt>
      <trkpt lat="43.49728" lon="2.29439">
        <ele>515.7</ele>
        <time>2017-06-01T07:42:39.000Z</time>
      </trkpt>
      <trkpt lat="43.49725" lon="2.2944">
        <ele>515.6</ele>
        <time>2017-06-01T07:42:41.000Z</time>
      </trkpt>
      <trkpt lat="43.49722" lon="2.29436">
        <ele>514.8</ele>
        <time>2017-06-01T07:42:43.000Z</time>
      </trkpt>
      <trkpt lat="43.49721" lon="2.29432">
        <ele>514.9</ele>
        <time>2017-06-01T07:42:45.000Z</time>
      </trkpt>
      <trkpt lat="43.49717" lon="2.29435">
        <ele>515.1</ele>
        <time>2017-06-01T07:42:47.000Z</time>
      </trkpt>
      <trkpt lat="43.49713" lon="2.29433">
        <ele>515.3</ele>
        <time>2017-06-01T07:42:49.000Z</time>
      </trkpt>
      <trkpt lat="43.49709" lon="2.29433">
        <ele>515.4</ele>
        <time>2017-06-01T07:42:50.000Z</time>
      </trkpt>
      <trkpt lat="43.49704" lon="2.29433">
        <ele>515.8</ele>
        <time>2017-06-01T07:42:51.000Z</time>
      </trkpt>
      <trkpt lat="43.49701" lon="2.29429">
        <ele>516</ele>
        <time>2017-06-01T07:42:52.000Z</time>
      </trkpt>
      <trkpt lat="43.49696" lon="2.29428">
        <ele>516.3</ele>
        <time>2017-06-01T07:42:54.000Z</time>
      </trkpt>
      <trkpt lat="43.49692" lon="2.29425">
        <ele>516.6</ele>
        <time>2017-06-01T07:42:55.000Z</time>
      </trkpt>
      <trkpt lat="43.49688" lon="2.29423">
        <ele>516.8</ele>
        <time>2017-06-01T07:42:56.000Z</time>
      </trkpt>
      <trkpt lat="43.49685" lon="2.29423">
        <ele>517</ele>
        <time>2017-06-01T07:42:57.000Z</time>
      </trkpt>
      <trkpt lat="43.4968" lon="2.29421">
        <ele>517.2</ele>
        <time>2017-06-01T07:42:59.000Z</time>
      </trkpt>
      <trkpt lat="43.49674" lon="2.29416">
        <ele>517.7</ele>
        <time>2017-06-01T07:43:01.000Z</time>
      </trkpt>
      <trkpt lat="43.49671" lon="2.29415">
        <ele>517.9</ele>
        <time>2017-06-01T07:43:02.000Z</time>
      </trkpt>
      <trkpt lat="43.49668" lon="2.29415">
        <ele>518</ele>
        <time>2017-06-01T07:43:03.000Z</time>
      </trkpt>
      <trkpt lat="43.49663" lon="2.29409">
        <ele>518.3</ele>
        <time>2017-06-01T07:43:05.000Z</time>
      </trkpt>
      <trkpt lat="43.4966" lon="2.29408">
        <ele>518.4</ele>
        <time>2017-06-01T07:43:06.000Z</time>
      </trkpt>
      <trkpt lat="43.49656" lon="2.29405">
        <ele>518.5</ele>
        <time>2017-06-01T07:43:07.000Z</time>
      </trkpt>
      <trkpt lat="43.49653" lon="2.29402">
        <ele>518.7</ele>
        <time>2017-06-01T07:43:08.000Z</time>
      </trkpt>
      <trkpt lat="43.4965" lon="2.294">
        <ele>518.8</ele>
        <time>2017-06-01T07:43:09.000Z</time>
      </trkpt>
      <trkpt lat="43.49646" lon="2.29399">
        <ele>518.9</ele>
        <time>2017-06-01T07:43:11.000Z</time>
      </trkpt>
      <trkpt lat="43.49643" lon="2.29399">
        <ele>519.1</ele>
        <time>2017-06-01T07:43:12.000Z</time>
      </trkpt>
      <trkpt lat="43.49638" lon="2.29399">
        <ele>519.2</ele>
        <time>2017-06-01T07:43:13.000Z</time>
      </trkpt>
      <trkpt lat="43.49635" lon="2.29393">
        <ele>519.3</ele>
        <time>2017-06-01T07:43:15.000Z</time>
      </trkpt>
      <trkpt lat="43.49633" lon="2.29391">
        <ele>519.4</ele>
        <time>2017-06-01T07:43:16.000Z</time>
      </trkpt>
      <trkpt lat="43.49631" lon="2.29386">
        <ele>519.5</ele>
        <time>2017-06-01T07:43:19.000Z</time>
      </trkpt>
      <trkpt lat="43.49634" lon="2.29381">
        <ele>519.6</ele>
        <time>2017-06-01T07:43:22.000Z</time>
      </trkpt>
      <trkpt lat="43.49629" lon="2.2938">
        <ele>519.7</ele>
        <time>2017-06-01T07:43:27.000Z</time>
      </trkpt>
      <trkpt lat="43.49626" lon="2.29378">
        <ele>519.8</ele>
        <time>2017-06-01T07:43:29.000Z</time>
      </trkpt>
      <trkpt lat="43.49623" lon="2.2938">
        <ele>519.9</ele>
        <time>2017-06-01T07:43:31.000Z</time>
      </trkpt>
      <trkpt lat="43.4962" lon="2.2938">
        <ele>520</ele>
        <time>2017-06-01T07:43:32.000Z</time>
      </trkpt>
      <trkpt lat="43.49616" lon="2.29377">
        <ele>520.3</ele>
        <time>2017-06-01T07:43:34.000Z</time>
      </trkpt>
      <trkpt lat="43.49612" lon="2.29377">
        <ele>520.4</ele>
        <time>2017-06-01T07:43:35.000Z</time>
      </trkpt>
      <trkpt lat="43.49609" lon="2.29375">
        <ele>520.6</ele>
        <time>2017-06-01T07:43:36.000Z</time>
      </trkpt>
      <trkpt lat="43.49604" lon="2.29371">
        <ele>520.8</ele>
        <time>2017-06-01T07:43:38.000Z</time>
      </trkpt>
      <trkpt lat="43.49599" lon="2.29371">
        <ele>521.1</ele>
        <time>2017-06-01T07:43:40.000Z</time>
      </trkpt>
      <trkpt lat="43.49596" lon="2.29367">
        <ele>521.4</ele>
        <time>2017-06-01T07:43:42.000Z</time>
      </trkpt>
      <trkpt lat="43.49591" lon="2.29367">
        <ele>521.6</ele>
        <time>2017-06-01T07:43:45.000Z</time>
      </trkpt>
      <trkpt lat="43.49587" lon="2.29366">
        <ele>521.8</ele>
        <time>2017-06-01T07:43:47.000Z</time>
      </trkpt>
      <trkpt lat="43.49585" lon="2.29363">
        <ele>521.9</ele>
        <time>2017-06-01T07:43:49.000Z</time>
      </trkpt>
      <trkpt lat="43.49582" lon="2.29362">
        <ele>522</ele>
        <time>2017-06-01T07:43:50.000Z</time>
      </trkpt>
      <trkpt lat="43.49579" lon="2.29359">
        <ele>522.2</ele>
        <time>2017-06-01T07:43:52.000Z</time>
      </trkpt>
      <trkpt lat="43.49577" lon="2.29355">
        <ele>522.3</ele>
        <time>2017-06-01T07:43:53.000Z</time>
      </trkpt>
      <trkpt lat="43.49575" lon="2.29351">
        <ele>522.5</ele>
        <time>2017-06-01T07:43:55.000Z</time>
      </trkpt>
      <trkpt lat="43.49572" lon="2.29349">
        <ele>522.6</ele>
        <time>2017-06-01T07:43:56.000Z</time>
      </trkpt>
      <trkpt lat="43.49571" lon="2.29346">
        <ele>522.7</ele>
        <time>2017-06-01T07:43:57.000Z</time>
      </trkpt>
      <trkpt lat="43.49567" lon="2.29342">
        <ele>522.9</ele>
        <time>2017-06-01T07:43:59.000Z</time>
      </trkpt>
      <trkpt lat="43.4956" lon="2.29338">
        <ele>523.2</ele>
        <time>2017-06-01T07:44:01.000Z</time>
      </trkpt>
      <trkpt lat="43.49557" lon="2.29335">
        <ele>523.4</ele>
        <time>2017-06-01T07:44:02.000Z</time>
      </trkpt>
      <trkpt lat="43.49555" lon="2.29332">
        <ele>523.6</ele>
        <time>2017-06-01T07:44:03.000Z</time>
      </trkpt>
      <trkpt lat="43.49551" lon="2.29328">
        <ele>523.8</ele>
        <time>2017-06-01T07:44:04.000Z</time>
      </trkpt>
      <trkpt lat="43.49549" lon="2.29321">
        <ele>524.1</ele>
        <time>2017-06-01T07:44:05.000Z</time>
      </trkpt>
      <trkpt lat="43.49537" lon="2.29314">
        <ele>524.6</ele>
        <time>2017-06-01T07:44:06.000Z</time>
      </trkpt>
      <trkpt lat="43.49534" lon="2.29317">
        <ele>524.7</ele>
        <time>2017-06-01T07:44:08.000Z</time>
      </trkpt>
      <trkpt lat="43.49527" lon="2.2931">
        <ele>525</ele>
        <time>2017-06-01T07:44:10.000Z</time>
      </trkpt>
      <trkpt lat="43.49528" lon="2.29302">
        <ele>525.3</ele>
        <time>2017-06-01T07:44:11.000Z</time>
      </trkpt>
      <trkpt lat="43.49526" lon="2.29298">
        <ele>525.3</ele>
        <time>2017-06-01T07:44:12.000Z</time>
      </trkpt>
      <trkpt lat="43.4952" lon="2.29299">
        <ele>525.4</ele>
        <time>2017-06-01T07:44:13.000Z</time>
      </trkpt>
      <trkpt lat="43.49515" lon="2.29298">
        <ele>525.5</ele>
        <time>2017-06-01T07:44:14.000Z</time>
      </trkpt>
      <trkpt lat="43.4951" lon="2.29297">
        <ele>525.6</ele>
        <time>2017-06-01T07:44:15.000Z</time>
      </trkpt>
      <trkpt lat="43.49507" lon="2.29291">
        <ele>525.7</ele>
        <time>2017-06-01T07:44:17.000Z</time>
      </trkpt>
      <trkpt lat="43.49507" lon="2.29284">
        <ele>525.8</ele>
        <time>2017-06-01T07:44:18.000Z</time>
      </trkpt>
      <trkpt lat="43.49504" lon="2.29279">
        <ele>525.9</ele>
        <time>2017-06-01T07:44:19.000Z</time>
      </trkpt>
      <trkpt lat="43.49504" lon="2.29272">
        <ele>526</ele>
        <time>2017-06-01T07:44:21.000Z</time>
      </trkpt>
      <trkpt lat="43.49501" lon="2.29272">
        <ele>526</ele>
        <time>2017-06-01T07:44:22.000Z</time>
      </trkpt>
      <trkpt lat="43.49497" lon="2.29268">
        <ele>526.2</ele>
        <time>2017-06-01T07:44:24.000Z</time>
      </trkpt>
      <trkpt lat="43.49496" lon="2.29266">
        <ele>526.4</ele>
        <time>2017-06-01T07:44:25.000Z</time>
      </trkpt>
      <trkpt lat="43.49493" lon="2.29264">
        <ele>526.5</ele>
        <time>2017-06-01T07:44:26.000Z</time>
      </trkpt>
      <trkpt lat="43.4949" lon="2.29262">
        <ele>526.6</ele>
        <time>2017-06-01T07:44:27.000Z</time>
      </trkpt>
      <trkpt lat="43.49487" lon="2.2926">
        <ele>526.7</ele>
        <time>2017-06-01T07:44:29.000Z</time>
      </trkpt>
      <trkpt lat="43.49486" lon="2.29256">
        <ele>526.8</ele>
        <time>2017-06-01T07:44:30.000Z</time>
      </trkpt>
      <trkpt lat="43.49482" lon="2.29252">
        <ele>527.2</ele>
        <time>2017-06-01T07:44:32.000Z</time>
      </trkpt>
      <trkpt lat="43.49485" lon="2.29242">
        <ele>527.7</ele>
        <time>2017-06-01T07:44:33.000Z</time>
      </trkpt>
      <trkpt lat="43.49482" lon="2.29243">
        <ele>527.9</ele>
        <time>2017-06-01T07:44:37.000Z</time>
      </trkpt>
      <trkpt lat="43.49479" lon="2.29238">
        <ele>528.3</ele>
        <time>2017-06-01T07:44:39.000Z</time>
      </trkpt>
      <trkpt lat="43.49481" lon="2.29231">
        <ele>528.6</ele>
        <time>2017-06-01T07:44:40.000Z</time>
      </trkpt>
      <trkpt lat="43.49476" lon="2.29228">
        <ele>529</ele>
        <time>2017-06-01T07:44:42.000Z</time>
      </trkpt>
      <trkpt lat="43.49473" lon="2.2923">
        <ele>529.1</ele>
        <time>2017-06-01T07:44:43.000Z</time>
      </trkpt>
      <trkpt lat="43.4947" lon="2.29229">
        <ele>529.2</ele>
        <time>2017-06-01T07:44:45.000Z</time>
      </trkpt>
      <trkpt lat="43.49466" lon="2.29228">
        <ele>529.4</ele>
        <time>2017-06-01T07:44:48.000Z</time>
      </trkpt>
      <trkpt lat="43.49462" lon="2.29226">
        <ele>529.6</ele>
        <time>2017-06-01T07:44:49.000Z</time>
      </trkpt>
      <trkpt lat="43.49458" lon="2.29228">
        <ele>529.7</ele>
        <time>2017-06-01T07:44:50.000Z</time>
      </trkpt>
      <trkpt lat="43.49456" lon="2.29227">
        <ele>529.8</ele>
        <time>2017-06-01T07:44:52.000Z</time>
      </trkpt>
      <trkpt lat="43.49452" lon="2.29227">
        <ele>530</ele>
        <time>2017-06-01T07:44:54.000Z</time>
      </trkpt>
      <trkpt lat="43.4945" lon="2.2922">
        <ele>530.2</ele>
        <time>2017-06-01T07:44:56.000Z</time>
      </trkpt>
      <trkpt lat="43.49447" lon="2.29213">
        <ele>530.3</ele>
        <time>2017-06-01T07:44:58.000Z</time>
      </trkpt>
      <trkpt lat="43.49442" lon="2.2921">
        <ele>530.6</ele>
        <time>2017-06-01T07:45:00.000Z</time>
      </trkpt>
      <trkpt lat="43.4944" lon="2.29206">
        <ele>530.8</ele>
        <time>2017-06-01T07:45:01.000Z</time>
      </trkpt>
      <trkpt lat="43.49436" lon="2.29202">
        <ele>531</ele>
        <time>2017-06-01T07:45:03.000Z</time>
      </trkpt>
      <trkpt lat="43.49434" lon="2.29199">
        <ele>531.1</ele>
        <time>2017-06-01T07:45:04.000Z</time>
      </trkpt>
      <trkpt lat="43.49429" lon="2.29198">
        <ele>531.5</ele>
        <time>2017-06-01T07:45:06.000Z</time>
      </trkpt>
      <trkpt lat="43.49426" lon="2.29194">
        <ele>531.7</ele>
        <time>2017-06-01T07:45:08.000Z</time>
      </trkpt>
      <trkpt lat="43.49423" lon="2.29191">
        <ele>531.8</ele>
        <time>2017-06-01T07:45:10.000Z</time>
      </trkpt>
      <trkpt lat="43.49422" lon="2.29186">
        <ele>532</ele>
        <time>2017-06-01T07:45:11.000Z</time>
      </trkpt>
      <trkpt lat="43.4942" lon="2.29188">
        <ele>532.1</ele>
        <time>2017-06-01T07:45:12.000Z</time>
      </trkpt>
      <trkpt lat="43.49416" lon="2.29185">
        <ele>532.2</ele>
        <time>2017-06-01T07:45:14.000Z</time>
      </trkpt>
      <trkpt lat="43.49411" lon="2.29184">
        <ele>532.5</ele>
        <time>2017-06-01T07:45:16.000Z</time>
      </trkpt>
      <trkpt lat="43.49406" lon="2.29183">
        <ele>532.7</ele>
        <time>2017-06-01T07:45:18.000Z</time>
      </trkpt>
      <trkpt lat="43.49403" lon="2.29183">
        <ele>532.8</ele>
        <time>2017-06-01T07:45:19.000Z</time>
      </trkpt>
      <trkpt lat="43.494" lon="2.29184">
        <ele>533</ele>
        <time>2017-06-01T07:45:20.000Z</time>
      </trkpt>
      <trkpt lat="43.49399" lon="2.2918">
        <ele>533.1</ele>
        <time>2017-06-01T07:45:21.000Z</time>
      </trkpt>
      <trkpt lat="43.49395" lon="2.2918">
        <ele>533.2</ele>
        <time>2017-06-01T07:45:22.000Z</time>
      </trkpt>
      <trkpt lat="43.49392" lon="2.29179">
        <ele>533.2</ele>
        <time>2017-06-01T07:45:23.000Z</time>
      </trkpt>
      <trkpt lat="43.49389" lon="2.2918">
        <ele>533.4</ele>
        <time>2017-06-01T07:45:24.000Z</time>
      </trkpt>
      <trkpt lat="43.49385" lon="2.29181">
        <ele>533.4</ele>
        <time>2017-06-01T07:45:25.000Z</time>
      </trkpt>
      <trkpt lat="43.49381" lon="2.29181">
        <ele>533.6</ele>
        <time>2017-06-01T07:45:27.000Z</time>
      </trkpt>
      <trkpt lat="43.49377" lon="2.29183">
        <ele>533.7</ele>
        <time>2017-06-01T07:45:28.000Z</time>
      </trkpt>
      <trkpt lat="43.49378" lon="2.29176">
        <ele>533.8</ele>
        <time>2017-06-01T07:45:29.000Z</time>
      </trkpt>
      <trkpt lat="43.49374" lon="2.29174">
        <ele>533.9</ele>
        <time>2017-06-01T07:45:31.000Z</time>
      </trkpt>
      <trkpt lat="43.49369" lon="2.29176">
        <ele>534</ele>
        <time>2017-06-01T07:45:32.000Z</time>
      </trkpt>
      <trkpt lat="43.49365" lon="2.29179">
        <ele>534.2</ele>
        <time>2017-06-01T07:45:33.000Z</time>
      </trkpt>
      <trkpt lat="43.49364" lon="2.29173">
        <ele>534.4</ele>
        <time>2017-06-01T07:45:36.000Z</time>
      </trkpt>
      <trkpt lat="43.49357" lon="2.2918">
        <ele>534.7</ele>
        <time>2017-06-01T07:45:38.000Z</time>
      </trkpt>
      <trkpt lat="43.49354" lon="2.29182">
        <ele>534.9</ele>
        <time>2017-06-01T07:45:40.000Z</time>
      </trkpt>
      <trkpt lat="43.49351" lon="2.29184">
        <ele>535</ele>
        <time>2017-06-01T07:45:41.000Z</time>
      </trkpt>
      <trkpt lat="43.49344" lon="2.29193">
        <ele>539.2</ele>
        <time>2017-06-01T07:45:43.000Z</time>
      </trkpt>
      <trkpt lat="43.49341" lon="2.29196">
        <ele>541.2</ele>
        <time>2017-06-01T07:45:45.000Z</time>
      </trkpt>
      <trkpt lat="43.49339" lon="2.29193">
        <ele>540.3</ele>
        <time>2017-06-01T07:45:46.000Z</time>
      </trkpt>
      <trkpt lat="43.49337" lon="2.2919">
        <ele>540.7</ele>
        <time>2017-06-01T07:45:48.000Z</time>
      </trkpt>
      <trkpt lat="43.49332" lon="2.29193">
        <ele>540.9</ele>
        <time>2017-06-01T07:45:50.000Z</time>
      </trkpt>
      <trkpt lat="43.4933" lon="2.2919">
        <ele>541.1</ele>
        <time>2017-06-01T07:45:51.000Z</time>
      </trkpt>
      <trkpt lat="43.49328" lon="2.29192">
        <ele>541.3</ele>
        <time>2017-06-01T07:45:52.000Z</time>
      </trkpt>
      <trkpt lat="43.49326" lon="2.29195">
        <ele>542.8</ele>
        <time>2017-06-01T07:45:54.000Z</time>
      </trkpt>
      <trkpt lat="43.49323" lon="2.29199">
        <ele>544.5</ele>
        <time>2017-06-01T07:45:56.000Z</time>
      </trkpt>
      <trkpt lat="43.49321" lon="2.29197">
        <ele>543.2</ele>
        <time>2017-06-01T07:45:57.000Z</time>
      </trkpt>
      <trkpt lat="43.49315" lon="2.29194">
        <ele>542</ele>
        <time>2017-06-01T07:46:00.000Z</time>
      </trkpt>
      <trkpt lat="43.49312" lon="2.29197">
        <ele>543.7</ele>
        <time>2017-06-01T07:46:04.000Z</time>
      </trkpt>
      <trkpt lat="43.49313" lon="2.29207">
        <ele>548.6</ele>
        <time>2017-06-01T07:46:06.000Z</time>
      </trkpt>
      <trkpt lat="43.49309" lon="2.29214">
        <ele>551</ele>
        <time>2017-06-01T07:46:09.000Z</time>
      </trkpt>
      <trkpt lat="43.49308" lon="2.29205">
        <ele>547.5</ele>
        <time>2017-06-01T07:46:10.000Z</time>
      </trkpt>
      <trkpt lat="43.49312" lon="2.29211">
        <ele>550.9</ele>
        <time>2017-06-01T07:46:13.000Z</time>
      </trkpt>
      <trkpt lat="43.49311" lon="2.29218">
        <ele>552.6</ele>
        <time>2017-06-01T07:46:14.000Z</time>
      </trkpt>
      <trkpt lat="43.49307" lon="2.29216">
        <ele>553.1</ele>
        <time>2017-06-01T07:46:15.000Z</time>
      </trkpt>
      <trkpt lat="43.4931" lon="2.29217">
        <ele>552.8</ele>
        <time>2017-06-01T07:46:16.000Z</time>
      </trkpt>
      <trkpt lat="43.49308" lon="2.29209">
        <ele>549.7</ele>
        <time>2017-06-01T07:46:17.000Z</time>
      </trkpt>
      <trkpt lat="43.49307" lon="2.29216">
        <ele>553.3</ele>
        <time>2017-06-01T07:46:18.000Z</time>
      </trkpt>
      <trkpt lat="43.49307" lon="2.29213">
        <ele>551.7</ele>
        <time>2017-06-01T07:46:19.000Z</time>
      </trkpt>
      <trkpt lat="43.49305" lon="2.29217">
        <ele>553.9</ele>
        <time>2017-06-01T07:46:20.000Z</time>
      </trkpt>
      <trkpt lat="43.493" lon="2.29208">
        <ele>551.4</ele>
        <time>2017-06-01T07:46:22.000Z</time>
      </trkpt>
      <trkpt lat="43.49299" lon="2.29212">
        <ele>553.3</ele>
        <time>2017-06-01T07:46:23.000Z</time>
      </trkpt>
      <trkpt lat="43.49293" lon="2.29207">
        <ele>553.1</ele>
        <time>2017-06-01T07:46:24.000Z</time>
      </trkpt>
      <trkpt lat="43.49288" lon="2.29206">
        <ele>552.3</ele>
        <time>2017-06-01T07:46:27.000Z</time>
      </trkpt>
      <trkpt lat="43.49287" lon="2.29201">
        <ele>551.6</ele>
        <time>2017-06-01T07:46:28.000Z</time>
      </trkpt>
      <trkpt lat="43.49285" lon="2.29189">
        <ele>547.5</ele>
        <time>2017-06-01T07:46:30.000Z</time>
      </trkpt>
      <trkpt lat="43.49279" lon="2.2918">
        <ele>544.5</ele>
        <time>2017-06-01T07:46:32.000Z</time>
      </trkpt>
      <trkpt lat="43.49276" lon="2.29179">
        <ele>545.5</ele>
        <time>2017-06-01T07:46:33.000Z</time>
      </trkpt>
      <trkpt lat="43.49272" lon="2.29176">
        <ele>546</ele>
        <time>2017-06-01T07:46:34.000Z</time>
      </trkpt>
      <trkpt lat="43.49271" lon="2.2917">
        <ele>544.4</ele>
        <time>2017-06-01T07:46:35.000Z</time>
      </trkpt>
      <trkpt lat="43.49271" lon="2.29162">
        <ele>541.5</ele>
        <time>2017-06-01T07:46:36.000Z</time>
      </trkpt>
      <trkpt lat="43.49271" lon="2.29157">
        <ele>540.2</ele>
        <time>2017-06-01T07:46:37.000Z</time>
      </trkpt>
      <trkpt lat="43.4927" lon="2.29151">
        <ele>539</ele>
        <time>2017-06-01T07:46:38.000Z</time>
      </trkpt>
      <trkpt lat="43.49266" lon="2.29146">
        <ele>538.4</ele>
        <time>2017-06-01T07:46:39.000Z</time>
      </trkpt>
      <trkpt lat="43.49262" lon="2.29141">
        <ele>541</ele>
        <time>2017-06-01T07:46:40.000Z</time>
      </trkpt>
      <trkpt lat="43.4926" lon="2.29138">
        <ele>542.8</ele>
        <time>2017-06-01T07:46:41.000Z</time>
      </trkpt>
      <trkpt lat="43.49256" lon="2.29133">
        <ele>543</ele>
        <time>2017-06-01T07:46:42.000Z</time>
      </trkpt>
      <trkpt lat="43.49254" lon="2.29129">
        <ele>542.3</ele>
        <time>2017-06-01T07:46:44.000Z</time>
      </trkpt>
      <trkpt lat="43.49251" lon="2.29127">
        <ele>542.3</ele>
        <time>2017-06-01T07:46:45.000Z</time>
      </trkpt>
      <trkpt lat="43.49248" lon="2.29124">
        <ele>542.4</ele>
        <time>2017-06-01T07:46:46.000Z</time>
      </trkpt>
      <trkpt lat="43.49243" lon="2.29121">
        <ele>542.6</ele>
        <time>2017-06-01T07:46:47.000Z</time>
      </trkpt>
      <trkpt lat="43.49242" lon="2.29115">
        <ele>542.7</ele>
        <time>2017-06-01T07:46:48.000Z</time>
      </trkpt>
      <trkpt lat="43.49241" lon="2.29112">
        <ele>542.8</ele>
        <time>2017-06-01T07:46:49.000Z</time>
      </trkpt>
      <trkpt lat="43.49241" lon="2.29108">
        <ele>542.9</ele>
        <time>2017-06-01T07:46:50.000Z</time>
      </trkpt>
      <trkpt lat="43.49239" lon="2.29106">
        <ele>543</ele>
        <time>2017-06-01T07:46:51.000Z</time>
      </trkpt>
      <trkpt lat="43.49236" lon="2.29106">
        <ele>543</ele>
        <time>2017-06-01T07:46:52.000Z</time>
      </trkpt>
      <trkpt lat="43.49233" lon="2.29105">
        <ele>543.1</ele>
        <time>2017-06-01T07:46:53.000Z</time>
      </trkpt>
      <trkpt lat="43.49228" lon="2.29103">
        <ele>543.3</ele>
        <time>2017-06-01T07:46:54.000Z</time>
      </trkpt>
      <trkpt lat="43.49225" lon="2.29101">
        <ele>543.5</ele>
        <time>2017-06-01T07:46:56.000Z</time>
      </trkpt>
      <trkpt lat="43.4922" lon="2.291">
        <ele>543.7</ele>
        <time>2017-06-01T07:46:58.000Z</time>
      </trkpt>
      <trkpt lat="43.49217" lon="2.29097">
        <ele>543.8</ele>
        <time>2017-06-01T07:46:59.000Z</time>
      </trkpt>
      <trkpt lat="43.49218" lon="2.29093">
        <ele>543.9</ele>
        <time>2017-06-01T07:47:00.000Z</time>
      </trkpt>
      <trkpt lat="43.49215" lon="2.29093">
        <ele>544</ele>
        <time>2017-06-01T07:47:01.000Z</time>
      </trkpt>
      <trkpt lat="43.4921" lon="2.29094">
        <ele>544.1</ele>
        <time>2017-06-01T07:47:02.000Z</time>
      </trkpt>
      <trkpt lat="43.49207" lon="2.29089">
        <ele>544.2</ele>
        <time>2017-06-01T07:47:04.000Z</time>
      </trkpt>
      <trkpt lat="43.49204" lon="2.29088">
        <ele>544.4</ele>
        <time>2017-06-01T07:47:05.000Z</time>
      </trkpt>
      <trkpt lat="43.49201" lon="2.29083">
        <ele>544.6</ele>
        <time>2017-06-01T07:47:07.000Z</time>
      </trkpt>
      <trkpt lat="43.49207" lon="2.29073">
        <ele>544.9</ele>
        <time>2017-06-01T07:47:08.000Z</time>
      </trkpt>
      <trkpt lat="43.49198" lon="2.29071">
        <ele>545.1</ele>
        <time>2017-06-01T07:47:10.000Z</time>
      </trkpt>
      <trkpt lat="43.4919" lon="2.29074">
        <ele>545.5</ele>
        <time>2017-06-01T07:47:11.000Z</time>
      </trkpt>
      <trkpt lat="43.49197" lon="2.29062">
        <ele>545.8</ele>
        <time>2017-06-01T07:47:13.000Z</time>
      </trkpt>
      <trkpt lat="43.492" lon="2.29056">
        <ele>546</ele>
        <time>2017-06-01T07:47:14.000Z</time>
      </trkpt>
      <trkpt lat="43.49204" lon="2.29049">
        <ele>546.2</ele>
        <time>2017-06-01T07:47:15.000Z</time>
      </trkpt>
      <trkpt lat="43.49209" lon="2.29039">
        <ele>546.5</ele>
        <time>2017-06-01T07:47:16.000Z</time>
      </trkpt>
      <trkpt lat="43.49205" lon="2.29037">
        <ele>546.6</ele>
        <time>2017-06-01T07:47:17.000Z</time>
      </trkpt>
      <trkpt lat="43.49209" lon="2.29031">
        <ele>546.8</ele>
        <time>2017-06-01T07:47:18.000Z</time>
      </trkpt>
      <trkpt lat="43.49211" lon="2.29027">
        <ele>547</ele>
        <time>2017-06-01T07:47:19.000Z</time>
      </trkpt>
      <trkpt lat="43.49208" lon="2.29024">
        <ele>547.1</ele>
        <time>2017-06-01T07:47:20.000Z</time>
      </trkpt>
      <trkpt lat="43.49204" lon="2.29023">
        <ele>547.3</ele>
        <time>2017-06-01T07:47:22.000Z</time>
      </trkpt>
      <trkpt lat="43.49197" lon="2.29022">
        <ele>547.5</ele>
        <time>2017-06-01T07:47:23.000Z</time>
      </trkpt>
      <trkpt lat="43.492" lon="2.29014">
        <ele>547.7</ele>
        <time>2017-06-01T07:47:24.000Z</time>
      </trkpt>
      <trkpt lat="43.49184" lon="2.2901">
        <ele>548.3</ele>
        <time>2017-06-01T07:47:27.000Z</time>
      </trkpt>
      <trkpt lat="43.49177" lon="2.2901">
        <ele>548.5</ele>
        <time>2017-06-01T07:47:28.000Z</time>
      </trkpt>
      <trkpt lat="43.4917" lon="2.29009">
        <ele>548.7</ele>
        <time>2017-06-01T07:47:29.000Z</time>
      </trkpt>
      <trkpt lat="43.49162" lon="2.29006">
        <ele>549.2</ele>
        <time>2017-06-01T07:47:30.000Z</time>
      </trkpt>
      <trkpt lat="43.49163" lon="2.28992">
        <ele>549.5</ele>
        <time>2017-06-01T07:47:32.000Z</time>
      </trkpt>
      <trkpt lat="43.49161" lon="2.28988">
        <ele>549.6</ele>
        <time>2017-06-01T07:47:33.000Z</time>
      </trkpt>
      <trkpt lat="43.49162" lon="2.28983">
        <ele>549.7</ele>
        <time>2017-06-01T07:47:34.000Z</time>
      </trkpt>
      <trkpt lat="43.49155" lon="2.28982">
        <ele>549.8</ele>
        <time>2017-06-01T07:47:35.000Z</time>
      </trkpt>
      <trkpt lat="43.49151" lon="2.28981">
        <ele>549.9</ele>
        <time>2017-06-01T07:47:36.000Z</time>
      </trkpt>
      <trkpt lat="43.49146" lon="2.28981">
        <ele>550.1</ele>
        <time>2017-06-01T07:47:37.000Z</time>
      </trkpt>
      <trkpt lat="43.49143" lon="2.28978">
        <ele>550.2</ele>
        <time>2017-06-01T07:47:38.000Z</time>
      </trkpt>
      <trkpt lat="43.49138" lon="2.28977">
        <ele>550.4</ele>
        <time>2017-06-01T07:47:43.000Z</time>
      </trkpt>
      <trkpt lat="43.49135" lon="2.28979">
        <ele>550.5</ele>
        <time>2017-06-01T07:47:44.000Z</time>
      </trkpt>
      <trkpt lat="43.49132" lon="2.28978">
        <ele>550.6</ele>
        <time>2017-06-01T07:47:46.000Z</time>
      </trkpt>
      <trkpt lat="43.4913" lon="2.28977">
        <ele>550.6</ele>
        <time>2017-06-01T07:47:48.000Z</time>
      </trkpt>
      <trkpt lat="43.49127" lon="2.28979">
        <ele>550.7</ele>
        <time>2017-06-01T07:47:50.000Z</time>
      </trkpt>
      <trkpt lat="43.49124" lon="2.28981">
        <ele>550.8</ele>
        <time>2017-06-01T07:47:52.000Z</time>
      </trkpt>
      <trkpt lat="43.49121" lon="2.28987">
        <ele>550.9</ele>
        <time>2017-06-01T07:47:54.000Z</time>
      </trkpt>
      <trkpt lat="43.4912" lon="2.28991">
        <ele>550.9</ele>
        <time>2017-06-01T07:47:55.000Z</time>
      </trkpt>
      <trkpt lat="43.49115" lon="2.28989">
        <ele>551</ele>
        <time>2017-06-01T07:47:58.000Z</time>
      </trkpt>
      <trkpt lat="43.49114" lon="2.28995">
        <ele>551.1</ele>
        <time>2017-06-01T07:47:59.000Z</time>
      </trkpt>
      <trkpt lat="43.49111" lon="2.28995">
        <ele>551.2</ele>
        <time>2017-06-01T07:48:00.000Z</time>
      </trkpt>
      <trkpt lat="43.49109" lon="2.28997">
        <ele>551.3</ele>
        <time>2017-06-01T07:48:01.000Z</time>
      </trkpt>
      <trkpt lat="43.49106" lon="2.29005">
        <ele>551.5</ele>
        <time>2017-06-01T07:48:02.000Z</time>
      </trkpt>
      <trkpt lat="43.49105" lon="2.29009">
        <ele>551.6</ele>
        <time>2017-06-01T07:48:04.000Z</time>
      </trkpt>
      <trkpt lat="43.49101" lon="2.29011">
        <ele>551.8</ele>
        <time>2017-06-01T07:48:06.000Z</time>
      </trkpt>
      <trkpt lat="43.49098" lon="2.29015">
        <ele>551.9</ele>
        <time>2017-06-01T07:48:07.000Z</time>
      </trkpt>
      <trkpt lat="43.49098" lon="2.2902">
        <ele>552.1</ele>
        <time>2017-06-01T07:48:09.000Z</time>
      </trkpt>
      <trkpt lat="43.49095" lon="2.29022">
        <ele>552.2</ele>
        <time>2017-06-01T07:48:11.000Z</time>
      </trkpt>
      <trkpt lat="43.49093" lon="2.29026">
        <ele>552.3</ele>
        <time>2017-06-01T07:48:12.000Z</time>
      </trkpt>
      <trkpt lat="43.49092" lon="2.29034">
        <ele>552.4</ele>
        <time>2017-06-01T07:48:13.000Z</time>
      </trkpt>
      <trkpt lat="43.49093" lon="2.29038">
        <ele>552.5</ele>
        <time>2017-06-01T07:48:14.000Z</time>
      </trkpt>
      <trkpt lat="43.49089" lon="2.29038">
        <ele>552.6</ele>
        <time>2017-06-01T07:48:15.000Z</time>
      </trkpt>
      <trkpt lat="43.49086" lon="2.29042">
        <ele>552.8</ele>
        <time>2017-06-01T07:48:16.000Z</time>
      </trkpt>
      <trkpt lat="43.49088" lon="2.29046">
        <ele>552.9</ele>
        <time>2017-06-01T07:48:17.000Z</time>
      </trkpt>
      <trkpt lat="43.49088" lon="2.29052">
        <ele>553</ele>
        <time>2017-06-01T07:48:18.000Z</time>
      </trkpt>
      <trkpt lat="43.4908" lon="2.29049">
        <ele>553.2</ele>
        <time>2017-06-01T07:48:20.000Z</time>
      </trkpt>
      <trkpt lat="43.49078" lon="2.29053">
        <ele>553.4</ele>
        <time>2017-06-01T07:48:22.000Z</time>
      </trkpt>
      <trkpt lat="43.4908" lon="2.29058">
        <ele>553.5</ele>
        <time>2017-06-01T07:48:23.000Z</time>
      </trkpt>
      <trkpt lat="43.4908" lon="2.29064">
        <ele>553.6</ele>
        <time>2017-06-01T07:48:25.000Z</time>
      </trkpt>
      <trkpt lat="43.49077" lon="2.29063">
        <ele>553.7</ele>
        <time>2017-06-01T07:48:26.000Z</time>
      </trkpt>
      <trkpt lat="43.49075" lon="2.29066">
        <ele>553.8</ele>
        <time>2017-06-01T07:48:27.000Z</time>
      </trkpt>
      <trkpt lat="43.49073" lon="2.29071">
        <ele>553.9</ele>
        <time>2017-06-01T07:48:29.000Z</time>
      </trkpt>
      <trkpt lat="43.49068" lon="2.29071">
        <ele>554.1</ele>
        <time>2017-06-01T07:48:30.000Z</time>
      </trkpt>
      <trkpt lat="43.49061" lon="2.29068">
        <ele>554.2</ele>
        <time>2017-06-01T07:48:32.000Z</time>
      </trkpt>
      <trkpt lat="43.4906" lon="2.29074">
        <ele>554.3</ele>
        <time>2017-06-01T07:48:34.000Z</time>
      </trkpt>
      <trkpt lat="43.49057" lon="2.29075">
        <ele>554.4</ele>
        <time>2017-06-01T07:48:36.000Z</time>
      </trkpt>
      <trkpt lat="43.49053" lon="2.29081">
        <ele>554.5</ele>
        <time>2017-06-01T07:48:38.000Z</time>
      </trkpt>
      <trkpt lat="43.49054" lon="2.29086">
        <ele>554.5</ele>
        <time>2017-06-01T07:48:39.000Z</time>
      </trkpt>
      <trkpt lat="43.49053" lon="2.29091">
        <ele>554.6</ele>
        <time>2017-06-01T07:48:41.000Z</time>
      </trkpt>
      <trkpt lat="43.4905" lon="2.29096">
        <ele>554.7</ele>
        <time>2017-06-01T07:48:43.000Z</time>
      </trkpt>
      <trkpt lat="43.49047" lon="2.29098">
        <ele>554.8</ele>
        <time>2017-06-01T07:48:44.000Z</time>
      </trkpt>
      <trkpt lat="43.49048" lon="2.29105">
        <ele>555</ele>
        <time>2017-06-01T07:48:46.000Z</time>
      </trkpt>
      <trkpt lat="43.49047" lon="2.29109">
        <ele>555.1</ele>
        <time>2017-06-01T07:48:47.000Z</time>
      </trkpt>
      <trkpt lat="43.49044" lon="2.29111">
        <ele>555.2</ele>
        <time>2017-06-01T07:48:49.000Z</time>
      </trkpt>
      <trkpt lat="43.49044" lon="2.29116">
        <ele>555.4</ele>
        <time>2017-06-01T07:48:50.000Z</time>
      </trkpt>
      <trkpt lat="43.49041" lon="2.29118">
        <ele>555.5</ele>
        <time>2017-06-01T07:48:51.000Z</time>
      </trkpt>
      <trkpt lat="43.4904" lon="2.29123">
        <ele>555.6</ele>
        <time>2017-06-01T07:48:52.000Z</time>
      </trkpt>
      <trkpt lat="43.49037" lon="2.29129">
        <ele>555.7</ele>
        <time>2017-06-01T07:48:54.000Z</time>
      </trkpt>
      <trkpt lat="43.49034" lon="2.2913">
        <ele>555.8</ele>
        <time>2017-06-01T07:48:55.000Z</time>
      </trkpt>
      <trkpt lat="43.4903" lon="2.29134">
        <ele>556</ele>
        <time>2017-06-01T07:48:57.000Z</time>
      </trkpt>
      <trkpt lat="43.49025" lon="2.29138">
        <ele>556.3</ele>
        <time>2017-06-01T07:48:59.000Z</time>
      </trkpt>
      <trkpt lat="43.49022" lon="2.29143">
        <ele>556.5</ele>
        <time>2017-06-01T07:49:01.000Z</time>
      </trkpt>
      <trkpt lat="43.4902" lon="2.29148">
        <ele>556.6</ele>
        <time>2017-06-01T07:49:02.000Z</time>
      </trkpt>
      <trkpt lat="43.49019" lon="2.29155">
        <ele>556.8</ele>
        <time>2017-06-01T07:49:04.000Z</time>
      </trkpt>
      <trkpt lat="43.49018" lon="2.29162">
        <ele>556.9</ele>
        <time>2017-06-01T07:49:06.000Z</time>
      </trkpt>
      <trkpt lat="43.49014" lon="2.29166">
        <ele>557</ele>
        <time>2017-06-01T07:49:07.000Z</time>
      </trkpt>
      <trkpt lat="43.49015" lon="2.29172">
        <ele>557.1</ele>
        <time>2017-06-01T07:49:08.000Z</time>
      </trkpt>
      <trkpt lat="43.49012" lon="2.29177">
        <ele>557.2</ele>
        <time>2017-06-01T07:49:09.000Z</time>
      </trkpt>
      <trkpt lat="43.49011" lon="2.29181">
        <ele>557.3</ele>
        <time>2017-06-01T07:49:10.000Z</time>
      </trkpt>
      <trkpt lat="43.49007" lon="2.29186">
        <ele>557.4</ele>
        <time>2017-06-01T07:49:12.000Z</time>
      </trkpt>
      <trkpt lat="43.49002" lon="2.29189">
        <ele>557.5</ele>
        <time>2017-06-01T07:49:15.000Z</time>
      </trkpt>
      <trkpt lat="43.49004" lon="2.29196">
        <ele>557.6</ele>
        <time>2017-06-01T07:49:16.000Z</time>
      </trkpt>
      <trkpt lat="43.49" lon="2.29196">
        <ele>557.7</ele>
        <time>2017-06-01T07:49:17.000Z</time>
      </trkpt>
      <trkpt lat="43.48994" lon="2.29195">
        <ele>557.8</ele>
        <time>2017-06-01T07:49:18.000Z</time>
      </trkpt>
      <trkpt lat="43.48989" lon="2.29198">
        <ele>557.9</ele>
        <time>2017-06-01T07:49:20.000Z</time>
      </trkpt>
      <trkpt lat="43.48985" lon="2.29204">
        <ele>558</ele>
        <time>2017-06-01T07:49:22.000Z</time>
      </trkpt>
      <trkpt lat="43.48984" lon="2.2921">
        <ele>558.1</ele>
        <time>2017-06-01T07:49:24.000Z</time>
      </trkpt>
      <trkpt lat="43.48984" lon="2.29214">
        <ele>558.2</ele>
        <time>2017-06-01T07:49:25.000Z</time>
      </trkpt>
      <trkpt lat="43.48983" lon="2.29217">
        <ele>558.3</ele>
        <time>2017-06-01T07:49:26.000Z</time>
      </trkpt>
      <trkpt lat="43.4898" lon="2.29222">
        <ele>558.5</ele>
        <time>2017-06-01T07:49:28.000Z</time>
      </trkpt>
      <trkpt lat="43.48979" lon="2.29226">
        <ele>558.7</ele>
        <time>2017-06-01T07:49:29.000Z</time>
      </trkpt>
      <trkpt lat="43.48978" lon="2.29233">
        <ele>558.8</ele>
        <time>2017-06-01T07:49:31.000Z</time>
      </trkpt>
      <trkpt lat="43.48974" lon="2.29237">
        <ele>559</ele>
        <time>2017-06-01T07:49:32.000Z</time>
      </trkpt>
      <trkpt lat="43.48971" lon="2.2924">
        <ele>559.1</ele>
        <time>2017-06-01T07:49:34.000Z</time>
      </trkpt>
      <trkpt lat="43.4897" lon="2.29244">
        <ele>559.3</ele>
        <time>2017-06-01T07:49:36.000Z</time>
      </trkpt>
      <trkpt lat="43.48966" lon="2.2925">
        <ele>559.5</ele>
        <time>2017-06-01T07:49:38.000Z</time>
      </trkpt>
      <trkpt lat="43.48966" lon="2.29256">
        <ele>559.5</ele>
        <time>2017-06-01T07:49:39.000Z</time>
      </trkpt>
      <trkpt lat="43.48963" lon="2.29257">
        <ele>559.6</ele>
        <time>2017-06-01T07:49:40.000Z</time>
      </trkpt>
      <trkpt lat="43.48963" lon="2.29261">
        <ele>559.7</ele>
        <time>2017-06-01T07:49:41.000Z</time>
      </trkpt>
      <trkpt lat="43.48962" lon="2.29267">
        <ele>559.8</ele>
        <time>2017-06-01T07:49:43.000Z</time>
      </trkpt>
      <trkpt lat="43.48962" lon="2.29276">
        <ele>559.9</ele>
        <time>2017-06-01T07:49:45.000Z</time>
      </trkpt>
      <trkpt lat="43.48959" lon="2.29277">
        <ele>560.1</ele>
        <time>2017-06-01T07:49:46.000Z</time>
      </trkpt>
      <trkpt lat="43.48958" lon="2.29281">
        <ele>560.1</ele>
        <time>2017-06-01T07:49:47.000Z</time>
      </trkpt>
      <trkpt lat="43.48958" lon="2.2929">
        <ele>560.3</ele>
        <time>2017-06-01T07:49:48.000Z</time>
      </trkpt>
      <trkpt lat="43.48955" lon="2.29298">
        <ele>560.4</ele>
        <time>2017-06-01T07:49:49.000Z</time>
      </trkpt>
      <trkpt lat="43.48954" lon="2.29303">
        <ele>560.5</ele>
        <time>2017-06-01T07:49:51.000Z</time>
      </trkpt>
      <trkpt lat="43.48953" lon="2.29307">
        <ele>560.6</ele>
        <time>2017-06-01T07:49:52.000Z</time>
      </trkpt>
      <trkpt lat="43.48953" lon="2.29316">
        <ele>560.8</ele>
        <time>2017-06-01T07:49:53.000Z</time>
      </trkpt>
      <trkpt lat="43.48946" lon="2.29315">
        <ele>560.9</ele>
        <time>2017-06-01T07:49:54.000Z</time>
      </trkpt>
      <trkpt lat="43.48948" lon="2.2932">
        <ele>561</ele>
        <time>2017-06-01T07:49:55.000Z</time>
      </trkpt>
      <trkpt lat="43.48941" lon="2.29316">
        <ele>561.1</ele>
        <time>2017-06-01T07:49:56.000Z</time>
      </trkpt>
      <trkpt lat="43.48938" lon="2.29319">
        <ele>561.2</ele>
        <time>2017-06-01T07:49:58.000Z</time>
      </trkpt>
      <trkpt lat="43.48934" lon="2.2932">
        <ele>561.3</ele>
        <time>2017-06-01T07:49:59.000Z</time>
      </trkpt>
      <trkpt lat="43.48934" lon="2.29326">
        <ele>561.4</ele>
        <time>2017-06-01T07:50:00.000Z</time>
      </trkpt>
      <trkpt lat="43.48939" lon="2.29332">
        <ele>561.5</ele>
        <time>2017-06-01T07:50:01.000Z</time>
      </trkpt>
      <trkpt lat="43.48933" lon="2.29334">
        <ele>561.6</ele>
        <time>2017-06-01T07:50:03.000Z</time>
      </trkpt>
      <trkpt lat="43.4893" lon="2.29336">
        <ele>561.7</ele>
        <time>2017-06-01T07:50:05.000Z</time>
      </trkpt>
      <trkpt lat="43.48925" lon="2.29336">
        <ele>561.8</ele>
        <time>2017-06-01T07:50:07.000Z</time>
      </trkpt>
      <trkpt lat="43.48924" lon="2.2934">
        <ele>561.9</ele>
        <time>2017-06-01T07:50:09.000Z</time>
      </trkpt>
      <trkpt lat="43.48927" lon="2.29345">
        <ele>562</ele>
        <time>2017-06-01T07:50:10.000Z</time>
      </trkpt>
      <trkpt lat="43.4893" lon="2.29352">
        <ele>562.1</ele>
        <time>2017-06-01T07:50:11.000Z</time>
      </trkpt>
      <trkpt lat="43.4893" lon="2.29358">
        <ele>562.2</ele>
        <time>2017-06-01T07:50:12.000Z</time>
      </trkpt>
      <trkpt lat="43.48934" lon="2.29362">
        <ele>562.4</ele>
        <time>2017-06-01T07:50:13.000Z</time>
      </trkpt>
      <trkpt lat="43.48933" lon="2.29366">
        <ele>562.5</ele>
        <time>2017-06-01T07:50:14.000Z</time>
      </trkpt>
      <trkpt lat="43.48936" lon="2.2937">
        <ele>562.6</ele>
        <time>2017-06-01T07:50:16.000Z</time>
      </trkpt>
      <trkpt lat="43.48938" lon="2.29376">
        <ele>562.7</ele>
        <time>2017-06-01T07:50:19.000Z</time>
      </trkpt>
      <trkpt lat="43.48936" lon="2.29383">
        <ele>563</ele>
        <time>2017-06-01T07:50:21.000Z</time>
      </trkpt>
      <trkpt lat="43.48937" lon="2.29387">
        <ele>563.1</ele>
        <time>2017-06-01T07:50:23.000Z</time>
      </trkpt>
      <trkpt lat="43.48937" lon="2.29392">
        <ele>563.2</ele>
        <time>2017-06-01T07:50:24.000Z</time>
      </trkpt>
      <trkpt lat="43.48937" lon="2.29397">
        <ele>563.3</ele>
        <time>2017-06-01T07:50:26.000Z</time>
      </trkpt>
      <trkpt lat="43.48935" lon="2.29402">
        <ele>563.4</ele>
        <time>2017-06-01T07:50:28.000Z</time>
      </trkpt>
      <trkpt lat="43.48934" lon="2.29408">
        <ele>563.5</ele>
        <time>2017-06-01T07:50:30.000Z</time>
      </trkpt>
      <trkpt lat="43.48931" lon="2.29412">
        <ele>563.7</ele>
        <time>2017-06-01T07:50:31.000Z</time>
      </trkpt>
      <trkpt lat="43.48928" lon="2.29417">
        <ele>563.9</ele>
        <time>2017-06-01T07:50:32.000Z</time>
      </trkpt>
      <trkpt lat="43.4893" lon="2.29426">
        <ele>564</ele>
        <time>2017-06-01T07:50:34.000Z</time>
      </trkpt>
      <trkpt lat="43.4893" lon="2.29432">
        <ele>564.1</ele>
        <time>2017-06-01T07:50:36.000Z</time>
      </trkpt>
      <trkpt lat="43.48927" lon="2.29434">
        <ele>564.2</ele>
        <time>2017-06-01T07:50:37.000Z</time>
      </trkpt>
      <trkpt lat="43.48927" lon="2.29441">
        <ele>564.3</ele>
        <time>2017-06-01T07:50:38.000Z</time>
      </trkpt>
      <trkpt lat="43.48928" lon="2.29449">
        <ele>564.6</ele>
        <time>2017-06-01T07:50:39.000Z</time>
      </trkpt>
      <trkpt lat="43.48929" lon="2.2946">
        <ele>564.8</ele>
        <time>2017-06-01T07:50:40.000Z</time>
      </trkpt>
      <trkpt lat="43.48931" lon="2.29468">
        <ele>565</ele>
        <time>2017-06-01T07:50:41.000Z</time>
      </trkpt>
      <trkpt lat="43.48933" lon="2.29475">
        <ele>565.1</ele>
        <time>2017-06-01T07:50:43.000Z</time>
      </trkpt>
      <trkpt lat="43.48927" lon="2.29472">
        <ele>565.3</ele>
        <time>2017-06-01T07:50:44.000Z</time>
      </trkpt>
      <trkpt lat="43.4893" lon="2.29481">
        <ele>565.5</ele>
        <time>2017-06-01T07:50:45.000Z</time>
      </trkpt>
      <trkpt lat="43.48925" lon="2.2948">
        <ele>565.9</ele>
        <time>2017-06-01T07:50:46.000Z</time>
      </trkpt>
      <trkpt lat="43.48921" lon="2.29481">
        <ele>566.1</ele>
        <time>2017-06-01T07:50:47.000Z</time>
      </trkpt>
      <trkpt lat="43.48918" lon="2.29481">
        <ele>566.3</ele>
        <time>2017-06-01T07:50:49.000Z</time>
      </trkpt>
      <trkpt lat="43.48919" lon="2.29487">
        <ele>566.5</ele>
        <time>2017-06-01T07:50:51.000Z</time>
      </trkpt>
      <trkpt lat="43.4892" lon="2.29493">
        <ele>566.7</ele>
        <time>2017-06-01T07:50:53.000Z</time>
      </trkpt>
      <trkpt lat="43.48921" lon="2.29498">
        <ele>566.9</ele>
        <time>2017-06-01T07:50:54.000Z</time>
      </trkpt>
      <trkpt lat="43.48923" lon="2.29501">
        <ele>567</ele>
        <time>2017-06-01T07:50:55.000Z</time>
      </trkpt>
      <trkpt lat="43.48917" lon="2.29502">
        <ele>567.3</ele>
        <time>2017-06-01T07:50:57.000Z</time>
      </trkpt>
      <trkpt lat="43.48913" lon="2.29499">
        <ele>567.5</ele>
        <time>2017-06-01T07:50:58.000Z</time>
      </trkpt>
      <trkpt lat="43.48907" lon="2.29502">
        <ele>567.7</ele>
        <time>2017-06-01T07:50:59.000Z</time>
      </trkpt>
      <trkpt lat="43.48909" lon="2.29507">
        <ele>567.9</ele>
        <time>2017-06-01T07:51:00.000Z</time>
      </trkpt>
      <trkpt lat="43.48906" lon="2.29509">
        <ele>568</ele>
        <time>2017-06-01T07:51:01.000Z</time>
      </trkpt>
      <trkpt lat="43.48904" lon="2.29513">
        <ele>568.3</ele>
        <time>2017-06-01T07:51:03.000Z</time>
      </trkpt>
      <trkpt lat="43.48901" lon="2.2951">
        <ele>568.7</ele>
        <time>2017-06-01T07:51:04.000Z</time>
      </trkpt>
      <trkpt lat="43.48899" lon="2.29515">
        <ele>569.2</ele>
        <time>2017-06-01T07:51:05.000Z</time>
      </trkpt>
      <trkpt lat="43.48892" lon="2.29509">
        <ele>570.1</ele>
        <time>2017-06-01T07:51:07.000Z</time>
      </trkpt>
      <trkpt lat="43.48887" lon="2.29518">
        <ele>571.1</ele>
        <time>2017-06-01T07:51:08.000Z</time>
      </trkpt>
      <trkpt lat="43.48884" lon="2.2952">
        <ele>571.5</ele>
        <time>2017-06-01T07:51:09.000Z</time>
      </trkpt>
      <trkpt lat="43.48879" lon="2.29523">
        <ele>572.3</ele>
        <time>2017-06-01T07:51:11.000Z</time>
      </trkpt>
      <trkpt lat="43.48876" lon="2.29524">
        <ele>572.9</ele>
        <time>2017-06-01T07:51:13.000Z</time>
      </trkpt>
      <trkpt lat="43.48872" lon="2.29531">
        <ele>574</ele>
        <time>2017-06-01T07:51:15.000Z</time>
      </trkpt>
      <trkpt lat="43.4887" lon="2.29534">
        <ele>574.5</ele>
        <time>2017-06-01T07:51:16.000Z</time>
      </trkpt>
      <trkpt lat="43.48865" lon="2.29533">
        <ele>575.2</ele>
        <time>2017-06-01T07:51:18.000Z</time>
      </trkpt>
      <trkpt lat="43.48863" lon="2.29533">
        <ele>575.6</ele>
        <time>2017-06-01T07:51:19.000Z</time>
      </trkpt>
      <trkpt lat="43.48859" lon="2.29533">
        <ele>576</ele>
        <time>2017-06-01T07:51:21.000Z</time>
      </trkpt>
      <trkpt lat="43.48857" lon="2.29539">
        <ele>576.7</ele>
        <time>2017-06-01T07:51:22.000Z</time>
      </trkpt>
      <trkpt lat="43.48854" lon="2.29542">
        <ele>577.2</ele>
        <time>2017-06-01T07:51:23.000Z</time>
      </trkpt>
      <trkpt lat="43.48851" lon="2.29545">
        <ele>578</ele>
        <time>2017-06-01T07:51:25.000Z</time>
      </trkpt>
      <trkpt lat="43.48846" lon="2.29545">
        <ele>578.9</ele>
        <time>2017-06-01T07:51:26.000Z</time>
      </trkpt>
      <trkpt lat="43.48842" lon="2.29554">
        <ele>580.4</ele>
        <time>2017-06-01T07:51:27.000Z</time>
      </trkpt>
      <trkpt lat="43.48838" lon="2.2956">
        <ele>582.2</ele>
        <time>2017-06-01T07:51:29.000Z</time>
      </trkpt>
      <trkpt lat="43.48833" lon="2.29561">
        <ele>583.9</ele>
        <time>2017-06-01T07:51:32.000Z</time>
      </trkpt>
      <trkpt lat="43.48833" lon="2.29571">
        <ele>592.8</ele>
        <time>2017-06-01T07:51:33.000Z</time>
      </trkpt>
      <trkpt lat="43.48834" lon="2.2958">
        <ele>601.7</ele>
        <time>2017-06-01T07:51:34.000Z</time>
      </trkpt>
      <trkpt lat="43.48828" lon="2.29586">
        <ele>600</ele>
        <time>2017-06-01T07:51:35.000Z</time>
      </trkpt>
      <trkpt lat="43.48822" lon="2.29586">
        <ele>599.7</ele>
        <time>2017-06-01T07:51:36.000Z</time>
      </trkpt>
      <trkpt lat="43.48818" lon="2.29589">
        <ele>599.2</ele>
        <time>2017-06-01T07:51:38.000Z</time>
      </trkpt>
      <trkpt lat="43.48822" lon="2.29594">
        <ele>598</ele>
        <time>2017-06-01T07:51:39.000Z</time>
      </trkpt>
      <trkpt lat="43.48817" lon="2.29596">
        <ele>598</ele>
        <time>2017-06-01T07:51:40.000Z</time>
      </trkpt>
      <trkpt lat="43.48813" lon="2.29601">
        <ele>598</ele>
        <time>2017-06-01T07:51:41.000Z</time>
      </trkpt>
      <trkpt lat="43.48812" lon="2.29605">
        <ele>598</ele>
        <time>2017-06-01T07:51:42.000Z</time>
      </trkpt>
      <trkpt lat="43.4881" lon="2.29606">
        <ele>598</ele>
        <time>2017-06-01T07:51:44.000Z</time>
      </trkpt>
      <trkpt lat="43.48807" lon="2.29604">
        <ele>598</ele>
        <time>2017-06-01T07:51:45.000Z</time>
      </trkpt>
      <trkpt lat="43.48803" lon="2.29606">
        <ele>598</ele>
        <time>2017-06-01T07:51:47.000Z</time>
      </trkpt>
      <trkpt lat="43.48799" lon="2.29607">
        <ele>598</ele>
        <time>2017-06-01T07:51:48.000Z</time>
      </trkpt>
      <trkpt lat="43.48795" lon="2.29604">
        <ele>598.2</ele>
        <time>2017-06-01T07:51:50.000Z</time>
      </trkpt>
      <trkpt lat="43.48793" lon="2.29601">
        <ele>598.4</ele>
        <time>2017-06-01T07:51:54.000Z</time>
      </trkpt>
      <trkpt lat="43.4879" lon="2.29599">
        <ele>598.5</ele>
        <time>2017-06-01T07:51:58.000Z</time>
      </trkpt>
      <trkpt lat="43.48787" lon="2.29603">
        <ele>598.7</ele>
        <time>2017-06-01T07:51:59.000Z</time>
      </trkpt>
      <trkpt lat="43.48783" lon="2.29608">
        <ele>599</ele>
        <time>2017-06-01T07:52:02.000Z</time>
      </trkpt>
      <trkpt lat="43.48781" lon="2.2961">
        <ele>599.1</ele>
        <time>2017-06-01T07:52:04.000Z</time>
      </trkpt>
      <trkpt lat="43.48778" lon="2.29612">
        <ele>599.3</ele>
        <time>2017-06-01T07:52:05.000Z</time>
      </trkpt>
      <trkpt lat="43.48776" lon="2.29618">
        <ele>599.5</ele>
        <time>2017-06-01T07:52:07.000Z</time>
      </trkpt>
      <trkpt lat="43.48774" lon="2.29615">
        <ele>599.7</ele>
        <time>2017-06-01T07:52:08.000Z</time>
      </trkpt>
      <trkpt lat="43.48772" lon="2.29618">
        <ele>599.8</ele>
        <time>2017-06-01T07:52:10.000Z</time>
      </trkpt>
      <trkpt lat="43.48769" lon="2.29623">
        <ele>601.1</ele>
        <time>2017-06-01T07:52:11.000Z</time>
      </trkpt>
      <trkpt lat="43.48767" lon="2.29627">
        <ele>601.8</ele>
        <time>2017-06-01T07:52:13.000Z</time>
      </trkpt>
      <trkpt lat="43.48765" lon="2.29635">
        <ele>602.2</ele>
        <time>2017-06-01T07:52:15.000Z</time>
      </trkpt>
      <trkpt lat="43.48764" lon="2.29629">
        <ele>602.7</ele>
        <time>2017-06-01T07:52:16.000Z</time>
      </trkpt>
      <trkpt lat="43.48765" lon="2.29637">
        <ele>602.5</ele>
        <time>2017-06-01T07:52:17.000Z</time>
      </trkpt>
      <trkpt lat="43.48761" lon="2.29633">
        <ele>603.5</ele>
        <time>2017-06-01T07:52:18.000Z</time>
      </trkpt>
      <trkpt lat="43.48757" lon="2.29634">
        <ele>603.9</ele>
        <time>2017-06-01T07:52:19.000Z</time>
      </trkpt>
      <trkpt lat="43.48753" lon="2.29635">
        <ele>604.1</ele>
        <time>2017-06-01T07:52:20.000Z</time>
      </trkpt>
      <trkpt lat="43.48751" lon="2.29644">
        <ele>604.7</ele>
        <time>2017-06-01T07:52:21.000Z</time>
      </trkpt>
      <trkpt lat="43.48746" lon="2.29643">
        <ele>604.8</ele>
        <time>2017-06-01T07:52:22.000Z</time>
      </trkpt>
      <trkpt lat="43.48743" lon="2.29646">
        <ele>605.1</ele>
        <time>2017-06-01T07:52:23.000Z</time>
      </trkpt>
      <trkpt lat="43.4874" lon="2.29651">
        <ele>605.5</ele>
        <time>2017-06-01T07:52:24.000Z</time>
      </trkpt>
      <trkpt lat="43.48739" lon="2.29658">
        <ele>605.7</ele>
        <time>2017-06-01T07:52:25.000Z</time>
      </trkpt>
      <trkpt lat="43.48735" lon="2.29658">
        <ele>606.1</ele>
        <time>2017-06-01T07:52:26.000Z</time>
      </trkpt>
      <trkpt lat="43.4873" lon="2.29659">
        <ele>606.4</ele>
        <time>2017-06-01T07:52:28.000Z</time>
      </trkpt>
      <trkpt lat="43.48727" lon="2.29663">
        <ele>606.6</ele>
        <time>2017-06-01T07:52:29.000Z</time>
      </trkpt>
      <trkpt lat="43.48728" lon="2.29666">
        <ele>606.5</ele>
        <time>2017-06-01T07:52:30.000Z</time>
      </trkpt>
      <trkpt lat="43.48725" lon="2.29666">
        <ele>606.8</ele>
        <time>2017-06-01T07:52:32.000Z</time>
      </trkpt>
      <trkpt lat="43.48723" lon="2.29669">
        <ele>606.9</ele>
        <time>2017-06-01T07:52:34.000Z</time>
      </trkpt>
      <trkpt lat="43.4872" lon="2.29671">
        <ele>606.8</ele>
        <time>2017-06-01T07:52:35.000Z</time>
      </trkpt>
      <trkpt lat="43.48719" lon="2.29675">
        <ele>606.6</ele>
        <time>2017-06-01T07:52:36.000Z</time>
      </trkpt>
      <trkpt lat="43.48714" lon="2.29678">
        <ele>607</ele>
        <time>2017-06-01T07:52:39.000Z</time>
      </trkpt>
      <trkpt lat="43.48712" lon="2.29674">
        <ele>607.4</ele>
        <time>2017-06-01T07:52:41.000Z</time>
      </trkpt>
      <trkpt lat="43.48709" lon="2.29673">
        <ele>607.5</ele>
        <time>2017-06-01T07:52:44.000Z</time>
      </trkpt>
      <trkpt lat="43.48706" lon="2.29678">
        <ele>607.7</ele>
        <time>2017-06-01T07:52:46.000Z</time>
      </trkpt>
      <trkpt lat="43.48701" lon="2.29679">
        <ele>607.9</ele>
        <time>2017-06-01T07:52:47.000Z</time>
      </trkpt>
      <trkpt lat="43.48698" lon="2.29681">
        <ele>608.2</ele>
        <time>2017-06-01T07:52:49.000Z</time>
      </trkpt>
      <trkpt lat="43.48694" lon="2.29681">
        <ele>608.3</ele>
        <time>2017-06-01T07:52:52.000Z</time>
      </trkpt>
      <trkpt lat="43.48689" lon="2.29683">
        <ele>608.4</ele>
        <time>2017-06-01T07:52:55.000Z</time>
      </trkpt>
      <trkpt lat="43.48682" lon="2.29686">
        <ele>608.1</ele>
        <time>2017-06-01T07:52:57.000Z</time>
      </trkpt>
      <trkpt lat="43.48674" lon="2.29686">
        <ele>607.1</ele>
        <time>2017-06-01T07:52:58.000Z</time>
      </trkpt>
      <trkpt lat="43.48664" lon="2.29687">
        <ele>606.1</ele>
        <time>2017-06-01T07:52:59.000Z</time>
      </trkpt>
      <trkpt lat="43.48666" lon="2.2969">
        <ele>606.8</ele>
        <time>2017-06-01T07:53:00.000Z</time>
      </trkpt>
      <trkpt lat="43.48662" lon="2.29689">
        <ele>606.6</ele>
        <time>2017-06-01T07:53:02.000Z</time>
      </trkpt>
      <trkpt lat="43.48655" lon="2.29689">
        <ele>605.9</ele>
        <time>2017-06-01T07:53:04.000Z</time>
      </trkpt>
      <trkpt lat="43.4865" lon="2.2969">
        <ele>606</ele>
        <time>2017-06-01T07:53:05.000Z</time>
      </trkpt>
      <trkpt lat="43.48645" lon="2.29694">
        <ele>606.1</ele>
        <time>2017-06-01T07:53:06.000Z</time>
      </trkpt>
      <trkpt lat="43.48641" lon="2.29697">
        <ele>606.1</ele>
        <time>2017-06-01T07:53:07.000Z</time>
      </trkpt>
      <trkpt lat="43.48638" lon="2.29698">
        <ele>606.1</ele>
        <time>2017-06-01T07:53:08.000Z</time>
      </trkpt>
      <trkpt lat="43.48633" lon="2.29702">
        <ele>606.2</ele>
        <time>2017-06-01T07:53:09.000Z</time>
      </trkpt>
      <trkpt lat="43.48629" lon="2.29698">
        <ele>606.2</ele>
        <time>2017-06-01T07:53:10.000Z</time>
      </trkpt>
      <trkpt lat="43.48624" lon="2.29699">
        <ele>606.3</ele>
        <time>2017-06-01T07:53:11.000Z</time>
      </trkpt>
      <trkpt lat="43.48618" lon="2.297">
        <ele>606.3</ele>
        <time>2017-06-01T07:53:12.000Z</time>
      </trkpt>
      <trkpt lat="43.48609" lon="2.29699">
        <ele>606.3</ele>
        <time>2017-06-01T07:53:14.000Z</time>
      </trkpt>
      <trkpt lat="43.48606" lon="2.29701">
        <ele>606.4</ele>
        <time>2017-06-01T07:53:15.000Z</time>
      </trkpt>
      <trkpt lat="43.48601" lon="2.29701">
        <ele>606.4</ele>
        <time>2017-06-01T07:53:17.000Z</time>
      </trkpt>
      <trkpt lat="43.48595" lon="2.29701">
        <ele>606.4</ele>
        <time>2017-06-01T07:53:18.000Z</time>
      </trkpt>
      <trkpt lat="43.48591" lon="2.29703">
        <ele>606.4</ele>
        <time>2017-06-01T07:53:19.000Z</time>
      </trkpt>
      <trkpt lat="43.48588" lon="2.29704">
        <ele>606.4</ele>
        <time>2017-06-01T07:53:20.000Z</time>
      </trkpt>
      <trkpt lat="43.48581" lon="2.29705">
        <ele>606.5</ele>
        <time>2017-06-01T07:53:21.000Z</time>
      </trkpt>
      <trkpt lat="43.48576" lon="2.29709">
        <ele>606.5</ele>
        <time>2017-06-01T07:53:22.000Z</time>
      </trkpt>
      <trkpt lat="43.48572" lon="2.29713">
        <ele>606.6</ele>
        <time>2017-06-01T07:53:24.000Z</time>
      </trkpt>
      <trkpt lat="43.48564" lon="2.29711">
        <ele>606.6</ele>
        <time>2017-06-01T07:53:26.000Z</time>
      </trkpt>
      <trkpt lat="43.48559" lon="2.29709">
        <ele>606.7</ele>
        <time>2017-06-01T07:53:27.000Z</time>
      </trkpt>
      <trkpt lat="43.48554" lon="2.29706">
        <ele>606.7</ele>
        <time>2017-06-01T07:53:28.000Z</time>
      </trkpt>
      <trkpt lat="43.48547" lon="2.29705">
        <ele>606.8</ele>
        <time>2017-06-01T07:53:29.000Z</time>
      </trkpt>
      <trkpt lat="43.48542" lon="2.29702">
        <ele>606.8</ele>
        <time>2017-06-01T07:53:30.000Z</time>
      </trkpt>
      <trkpt lat="43.48537" lon="2.29702">
        <ele>606.9</ele>
        <time>2017-06-01T07:53:31.000Z</time>
      </trkpt>
      <trkpt lat="43.48534" lon="2.29698">
        <ele>606.9</ele>
        <time>2017-06-01T07:53:33.000Z</time>
      </trkpt>
      <trkpt lat="43.48532" lon="2.29694">
        <ele>607</ele>
        <time>2017-06-01T07:53:34.000Z</time>
      </trkpt>
      <trkpt lat="43.48529" lon="2.29693">
        <ele>607</ele>
        <time>2017-06-01T07:53:35.000Z</time>
      </trkpt>
      <trkpt lat="43.48528" lon="2.29688">
        <ele>607</ele>
        <time>2017-06-01T07:53:36.000Z</time>
      </trkpt>
      <trkpt lat="43.48524" lon="2.29686">
        <ele>606</ele>
        <time>2017-06-01T07:53:38.000Z</time>
      </trkpt>
      <trkpt lat="43.48522" lon="2.29683">
        <ele>605.1</ele>
        <time>2017-06-01T07:53:39.000Z</time>
      </trkpt>
      <trkpt lat="43.4852" lon="2.29681">
        <ele>604.2</ele>
        <time>2017-06-01T07:53:40.000Z</time>
      </trkpt>
      <trkpt lat="43.48517" lon="2.29679">
        <ele>603.3</ele>
        <time>2017-06-01T07:53:41.000Z</time>
      </trkpt>
      <trkpt lat="43.48511" lon="2.29677">
        <ele>601.5</ele>
        <time>2017-06-01T07:53:43.000Z</time>
      </trkpt>
      <trkpt lat="43.48509" lon="2.29675">
        <ele>600.7</ele>
        <time>2017-06-01T07:53:45.000Z</time>
      </trkpt>
      <trkpt lat="43.48505" lon="2.29672">
        <ele>599.1</ele>
        <time>2017-06-01T07:53:47.000Z</time>
      </trkpt>
      <trkpt lat="43.48501" lon="2.29669">
        <ele>599.2</ele>
        <time>2017-06-01T07:53:49.000Z</time>
      </trkpt>
      <trkpt lat="43.48497" lon="2.29666">
        <ele>599.3</ele>
        <time>2017-06-01T07:53:51.000Z</time>
      </trkpt>
      <trkpt lat="43.48495" lon="2.29662">
        <ele>599.3</ele>
        <time>2017-06-01T07:53:53.000Z</time>
      </trkpt>
      <trkpt lat="43.48493" lon="2.29659">
        <ele>599.4</ele>
        <time>2017-06-01T07:53:55.000Z</time>
      </trkpt>
      <trkpt lat="43.48489" lon="2.29657">
        <ele>599.5</ele>
        <time>2017-06-01T07:53:57.000Z</time>
      </trkpt>
      <trkpt lat="43.48487" lon="2.29654">
        <ele>599.6</ele>
        <time>2017-06-01T07:53:58.000Z</time>
      </trkpt>
      <trkpt lat="43.48485" lon="2.29654">
        <ele>599.6</ele>
        <time>2017-06-01T07:54:00.000Z</time>
      </trkpt>
      <trkpt lat="43.48481" lon="2.29652">
        <ele>599.7</ele>
        <time>2017-06-01T07:54:02.000Z</time>
      </trkpt>
      <trkpt lat="43.48478" lon="2.29649">
        <ele>599.7</ele>
        <time>2017-06-01T07:54:04.000Z</time>
      </trkpt>
      <trkpt lat="43.48475" lon="2.29647">
        <ele>599.8</ele>
        <time>2017-06-01T07:54:06.000Z</time>
      </trkpt>
      <trkpt lat="43.48473" lon="2.29645">
        <ele>599.8</ele>
        <time>2017-06-01T07:54:08.000Z</time>
      </trkpt>
      <trkpt lat="43.48471" lon="2.29641">
        <ele>599.9</ele>
        <time>2017-06-01T07:54:09.000Z</time>
      </trkpt>
      <trkpt lat="43.48468" lon="2.2964">
        <ele>600</ele>
        <time>2017-06-01T07:54:12.000Z</time>
      </trkpt>
      <trkpt lat="43.48466" lon="2.29639">
        <ele>600.1</ele>
        <time>2017-06-01T07:54:15.000Z</time>
      </trkpt>
      <trkpt lat="43.48462" lon="2.29636">
        <ele>600.2</ele>
        <time>2017-06-01T07:54:16.000Z</time>
      </trkpt>
      <trkpt lat="43.48456" lon="2.29635">
        <ele>600.4</ele>
        <time>2017-06-01T07:54:17.000Z</time>
      </trkpt>
      <trkpt lat="43.48452" lon="2.29633">
        <ele>600.5</ele>
        <time>2017-06-01T07:54:18.000Z</time>
      </trkpt>
      <trkpt lat="43.48451" lon="2.29629">
        <ele>600.7</ele>
        <time>2017-06-01T07:54:19.000Z</time>
      </trkpt>
      <trkpt lat="43.48448" lon="2.29626">
        <ele>600.9</ele>
        <time>2017-06-01T07:54:21.000Z</time>
      </trkpt>
      <trkpt lat="43.48445" lon="2.29624">
        <ele>601.1</ele>
        <time>2017-06-01T07:54:22.000Z</time>
      </trkpt>
      <trkpt lat="43.4844" lon="2.2962">
        <ele>601.4</ele>
        <time>2017-06-01T07:54:24.000Z</time>
      </trkpt>
      <trkpt lat="43.48437" lon="2.29619">
        <ele>601.5</ele>
        <time>2017-06-01T07:54:25.000Z</time>
      </trkpt>
      <trkpt lat="43.48433" lon="2.29617">
        <ele>601.7</ele>
        <time>2017-06-01T07:54:26.000Z</time>
      </trkpt>
      <trkpt lat="43.48431" lon="2.29615">
        <ele>601.8</ele>
        <time>2017-06-01T07:54:27.000Z</time>
      </trkpt>
      <trkpt lat="43.48426" lon="2.29612">
        <ele>602.1</ele>
        <time>2017-06-01T07:54:29.000Z</time>
      </trkpt>
      <trkpt lat="43.48423" lon="2.29611">
        <ele>602.4</ele>
        <time>2017-06-01T07:54:30.000Z</time>
      </trkpt>
      <trkpt lat="43.4842" lon="2.29609">
        <ele>602.7</ele>
        <time>2017-06-01T07:54:31.000Z</time>
      </trkpt>
      <trkpt lat="43.48418" lon="2.29605">
        <ele>602.9</ele>
        <time>2017-06-01T07:54:33.000Z</time>
      </trkpt>
      <trkpt lat="43.48414" lon="2.29601">
        <ele>603.4</ele>
        <time>2017-06-01T07:54:35.000Z</time>
      </trkpt>
      <trkpt lat="43.48412" lon="2.29597">
        <ele>603.6</ele>
        <time>2017-06-01T07:54:39.000Z</time>
      </trkpt>
      <trkpt lat="43.48412" lon="2.29592">
        <ele>603.9</ele>
        <time>2017-06-01T07:54:40.000Z</time>
      </trkpt>
      <trkpt lat="43.48413" lon="2.29587">
        <ele>604.1</ele>
        <time>2017-06-01T07:54:42.000Z</time>
      </trkpt>
      <trkpt lat="43.4841" lon="2.29585">
        <ele>604.5</ele>
        <time>2017-06-01T07:54:43.000Z</time>
      </trkpt>
      <trkpt lat="43.48413" lon="2.29581">
        <ele>605</ele>
        <time>2017-06-01T07:54:45.000Z</time>
      </trkpt>
      <trkpt lat="43.48413" lon="2.29574">
        <ele>605.4</ele>
        <time>2017-06-01T07:54:50.000Z</time>
      </trkpt>
      <trkpt lat="43.4842" lon="2.29569">
        <ele>606</ele>
        <time>2017-06-01T07:54:52.000Z</time>
      </trkpt>
      <trkpt lat="43.48417" lon="2.29559">
        <ele>606.9</ele>
        <time>2017-06-01T07:54:54.000Z</time>
      </trkpt>
      <trkpt lat="43.48427" lon="2.29562">
        <ele>608</ele>
        <time>2017-06-01T07:54:55.000Z</time>
      </trkpt>
      <trkpt lat="43.48426" lon="2.29557">
        <ele>608.2</ele>
        <time>2017-06-01T07:54:56.000Z</time>
      </trkpt>
      <trkpt lat="43.48425" lon="2.29552">
        <ele>608.5</ele>
        <time>2017-06-01T07:54:58.000Z</time>
      </trkpt>
      <trkpt lat="43.48422" lon="2.29546">
        <ele>608.9</ele>
        <time>2017-06-01T07:55:00.000Z</time>
      </trkpt>
      <trkpt lat="43.48419" lon="2.29543">
        <ele>609.2</ele>
        <time>2017-06-01T07:55:02.000Z</time>
      </trkpt>
      <trkpt lat="43.48423" lon="2.29543">
        <ele>609.6</ele>
        <time>2017-06-01T07:55:03.000Z</time>
      </trkpt>
      <trkpt lat="43.48426" lon="2.29539">
        <ele>610</ele>
        <time>2017-06-01T07:55:06.000Z</time>
      </trkpt>
      <trkpt lat="43.4843" lon="2.29537">
        <ele>610.4</ele>
        <time>2017-06-01T07:55:08.000Z</time>
      </trkpt>
      <trkpt lat="43.48433" lon="2.29533">
        <ele>610.7</ele>
        <time>2017-06-01T07:55:12.000Z</time>
      </trkpt>
      <trkpt lat="43.48436" lon="2.29533">
        <ele>611.1</ele>
        <time>2017-06-01T07:55:13.000Z</time>
      </trkpt>
      <trkpt lat="43.48439" lon="2.29528">
        <ele>611.5</ele>
        <time>2017-06-01T07:55:16.000Z</time>
      </trkpt>
      <trkpt lat="43.48441" lon="2.29523">
        <ele>611.9</ele>
        <time>2017-06-01T07:55:18.000Z</time>
      </trkpt>
      <trkpt lat="43.48442" lon="2.2952">
        <ele>612.2</ele>
        <time>2017-06-01T07:55:19.000Z</time>
      </trkpt>
      <trkpt lat="43.48443" lon="2.29516">
        <ele>612.6</ele>
        <time>2017-06-01T07:55:20.000Z</time>
      </trkpt>
      <trkpt lat="43.48445" lon="2.2951">
        <ele>613.1</ele>
        <time>2017-06-01T07:55:22.000Z</time>
      </trkpt>
      <trkpt lat="43.48446" lon="2.29504">
        <ele>613.6</ele>
        <time>2017-06-01T07:55:24.000Z</time>
      </trkpt>
      <trkpt lat="43.48449" lon="2.295">
        <ele>614.1</ele>
        <time>2017-06-01T07:55:26.000Z</time>
      </trkpt>
      <trkpt lat="43.48452" lon="2.29495">
        <ele>614.7</ele>
        <time>2017-06-01T07:55:28.000Z</time>
      </trkpt>
      <trkpt lat="43.48455" lon="2.29489">
        <ele>615.3</ele>
        <time>2017-06-01T07:55:31.000Z</time>
      </trkpt>
      <trkpt lat="43.48455" lon="2.29482">
        <ele>615.9</ele>
        <time>2017-06-01T07:55:35.000Z</time>
      </trkpt>
      <trkpt lat="43.48456" lon="2.29475">
        <ele>616.7</ele>
        <time>2017-06-01T07:55:37.000Z</time>
      </trkpt>
      <trkpt lat="43.48458" lon="2.29472">
        <ele>617.1</ele>
        <time>2017-06-01T07:55:38.000Z</time>
      </trkpt>
      <trkpt lat="43.48459" lon="2.29467">
        <ele>617.8</ele>
        <time>2017-06-01T07:55:40.000Z</time>
      </trkpt>
      <trkpt lat="43.48458" lon="2.29463">
        <ele>618.4</ele>
        <time>2017-06-01T07:55:42.000Z</time>
      </trkpt>
      <trkpt lat="43.48457" lon="2.29458">
        <ele>618.9</ele>
        <time>2017-06-01T07:55:44.000Z</time>
      </trkpt>
      <trkpt lat="43.48458" lon="2.2945">
        <ele>619.8</ele>
        <time>2017-06-01T07:55:47.000Z</time>
      </trkpt>
      <trkpt lat="43.48458" lon="2.29446">
        <ele>620.2</ele>
        <time>2017-06-01T07:55:50.000Z</time>
      </trkpt>
      <trkpt lat="43.48456" lon="2.2944">
        <ele>620.9</ele>
        <time>2017-06-01T07:55:55.000Z</time>
      </trkpt>
      <trkpt lat="43.48455" lon="2.29434">
        <ele>621.6</ele>
        <time>2017-06-01T07:55:58.000Z</time>
      </trkpt>
      <trkpt lat="43.48456" lon="2.29429">
        <ele>622.2</ele>
        <time>2017-06-01T07:56:00.000Z</time>
      </trkpt>
      <trkpt lat="43.48458" lon="2.29423">
        <ele>622.9</ele>
        <time>2017-06-01T07:56:01.000Z</time>
      </trkpt>
      <trkpt lat="43.48459" lon="2.29418">
        <ele>623.5</ele>
        <time>2017-06-01T07:56:02.000Z</time>
      </trkpt>
      <trkpt lat="43.48455" lon="2.29415">
        <ele>624.2</ele>
        <time>2017-06-01T07:56:03.000Z</time>
      </trkpt>
      <trkpt lat="43.48458" lon="2.29411">
        <ele>625</ele>
        <time>2017-06-01T07:56:05.000Z</time>
      </trkpt>
      <trkpt lat="43.48455" lon="2.29407">
        <ele>625.7</ele>
        <time>2017-06-01T07:56:08.000Z</time>
      </trkpt>
      <trkpt lat="43.48456" lon="2.29401">
        <ele>626.5</ele>
        <time>2017-06-01T07:56:11.000Z</time>
      </trkpt>
      <trkpt lat="43.48453" lon="2.29398">
        <ele>627.4</ele>
        <time>2017-06-01T07:56:12.000Z</time>
      </trkpt>
      <trkpt lat="43.48449" lon="2.29393">
        <ele>628.9</ele>
        <time>2017-06-01T07:56:14.000Z</time>
      </trkpt>
      <trkpt lat="43.48449" lon="2.29388">
        <ele>629.5</ele>
        <time>2017-06-01T07:56:16.000Z</time>
      </trkpt>
      <trkpt lat="43.48447" lon="2.29381">
        <ele>630.5</ele>
        <time>2017-06-01T07:56:18.000Z</time>
      </trkpt>
      <trkpt lat="43.48446" lon="2.29378">
        <ele>631.1</ele>
        <time>2017-06-01T07:56:20.000Z</time>
      </trkpt>
      <trkpt lat="43.48442" lon="2.29373">
        <ele>631.9</ele>
        <time>2017-06-01T07:56:22.000Z</time>
      </trkpt>
      <trkpt lat="43.4844" lon="2.29367">
        <ele>632.5</ele>
        <time>2017-06-01T07:56:24.000Z</time>
      </trkpt>
      <trkpt lat="43.48443" lon="2.29366">
        <ele>632.9</ele>
        <time>2017-06-01T07:56:25.000Z</time>
      </trkpt>
      <trkpt lat="43.48445" lon="2.2936">
        <ele>633.5</ele>
        <time>2017-06-01T07:56:27.000Z</time>
      </trkpt>
      <trkpt lat="43.48443" lon="2.29357">
        <ele>634.1</ele>
        <time>2017-06-01T07:56:29.000Z</time>
      </trkpt>
      <trkpt lat="43.4844" lon="2.29353">
        <ele>634.6</ele>
        <time>2017-06-01T07:56:32.000Z</time>
      </trkpt>
      <trkpt lat="43.48438" lon="2.29349">
        <ele>635.1</ele>
        <time>2017-06-01T07:56:34.000Z</time>
      </trkpt>
      <trkpt lat="43.48435" lon="2.29345">
        <ele>635.7</ele>
        <time>2017-06-01T07:56:36.000Z</time>
      </trkpt>
      <trkpt lat="43.48433" lon="2.29343">
        <ele>636</ele>
        <time>2017-06-01T07:56:38.000Z</time>
      </trkpt>
      <trkpt lat="43.48433" lon="2.29338">
        <ele>636.4</ele>
        <time>2017-06-01T07:56:40.000Z</time>
      </trkpt>
      <trkpt lat="43.4843" lon="2.29332">
        <ele>637</ele>
        <time>2017-06-01T07:56:41.000Z</time>
      </trkpt>
      <trkpt lat="43.48428" lon="2.29329">
        <ele>637.4</ele>
        <time>2017-06-01T07:56:42.000Z</time>
      </trkpt>
      <trkpt lat="43.48427" lon="2.29325">
        <ele>637.9</ele>
        <time>2017-06-01T07:56:46.000Z</time>
      </trkpt>
      <trkpt lat="43.48428" lon="2.2932">
        <ele>638.8</ele>
        <time>2017-06-01T07:56:48.000Z</time>
      </trkpt>
      <trkpt lat="43.48425" lon="2.29318">
        <ele>639.5</ele>
        <time>2017-06-01T07:56:53.000Z</time>
      </trkpt>
      <trkpt lat="43.48424" lon="2.29313">
        <ele>640</ele>
        <time>2017-06-01T07:56:54.000Z</time>
      </trkpt>
      <trkpt lat="43.48424" lon="2.29309">
        <ele>640.5</ele>
        <time>2017-06-01T07:56:59.000Z</time>
      </trkpt>
      <trkpt lat="43.48423" lon="2.29306">
        <ele>641</ele>
        <time>2017-06-01T07:57:03.000Z</time>
      </trkpt>
      <trkpt lat="43.48422" lon="2.29301">
        <ele>641.2</ele>
        <time>2017-06-01T07:58:01.000Z</time>
      </trkpt>
      <trkpt lat="43.48422" lon="2.29297">
        <ele>641.5</ele>
        <time>2017-06-01T07:58:05.000Z</time>
      </trkpt>
      <trkpt lat="43.4842" lon="2.293">
        <ele>641.6</ele>
        <time>2017-06-01T07:58:13.000Z</time>
      </trkpt>
      <trkpt lat="43.48419" lon="2.29296">
        <ele>641.7</ele>
        <time>2017-06-01T07:58:25.000Z</time>
      </trkpt>
      <trkpt lat="43.48416" lon="2.29294">
        <ele>641.7</ele>
        <time>2017-06-01T07:59:48.000Z</time>
      </trkpt>
      <trkpt lat="43.48416" lon="2.29298">
        <ele>641.7</ele>
        <time>2017-06-01T07:59:51.000Z</time>
      </trkpt>
      <trkpt lat="43.48416" lon="2.29302">
        <ele>641.6</ele>
        <time>2017-06-01T07:59:54.000Z</time>
      </trkpt>
      <trkpt lat="43.48415" lon="2.29298">
        <ele>641.4</ele>
        <time>2017-06-01T08:00:09.000Z</time>
      </trkpt>
      <trkpt lat="43.48415" lon="2.29294">
        <ele>641.2</ele>
        <time>2017-06-01T08:00:12.000Z</time>
      </trkpt>
      <trkpt lat="43.48413" lon="2.29297">
        <ele>641</ele>
        <time>2017-06-01T08:00:28.000Z</time>
      </trkpt>
      <trkpt lat="43.48415" lon="2.29298">
        <ele>641.3</ele>
        <time>2017-06-01T08:00:46.000Z</time>
      </trkpt>
      <trkpt lat="43.4842" lon="2.29304">
        <ele>641.9</ele>
        <time>2017-06-01T08:01:41.000Z</time>
      </trkpt>
      <trkpt lat="43.48423" lon="2.29307">
        <ele>642.2</ele>
        <time>2017-06-01T08:01:45.000Z</time>
      </trkpt>
      <trkpt lat="43.48426" lon="2.2931">
        <ele>642.4</ele>
        <time>2017-06-01T08:01:47.000Z</time>
      </trkpt>
      <trkpt lat="43.48424" lon="2.29315">
        <ele>642.6</ele>
        <time>2017-06-01T08:01:49.000Z</time>
      </trkpt>
      <trkpt lat="43.48425" lon="2.2932">
        <ele>642.9</ele>
        <time>2017-06-01T08:01:54.000Z</time>
      </trkpt>
      <trkpt lat="43.48422" lon="2.29322">
        <ele>643.2</ele>
        <time>2017-06-01T08:01:56.000Z</time>
      </trkpt>
      <trkpt lat="43.4842" lon="2.29326">
        <ele>643.4</ele>
        <time>2017-06-01T08:01:57.000Z</time>
      </trkpt>
      <trkpt lat="43.48418" lon="2.2933">
        <ele>643.6</ele>
        <time>2017-06-01T08:01:59.000Z</time>
      </trkpt>
      <trkpt lat="43.48419" lon="2.29333">
        <ele>643.8</ele>
        <time>2017-06-01T08:02:00.000Z</time>
      </trkpt>
      <trkpt lat="43.48418" lon="2.29337">
        <ele>644</ele>
        <time>2017-06-01T08:02:01.000Z</time>
      </trkpt>
      <trkpt lat="43.48417" lon="2.29342">
        <ele>644.2</ele>
        <time>2017-06-01T08:02:03.000Z</time>
      </trkpt>
      <trkpt lat="43.48416" lon="2.29346">
        <ele>644.5</ele>
        <time>2017-06-01T08:02:05.000Z</time>
      </trkpt>
      <trkpt lat="43.48417" lon="2.2935">
        <ele>644.7</ele>
        <time>2017-06-01T08:02:06.000Z</time>
      </trkpt>
      <trkpt lat="43.48415" lon="2.29356">
        <ele>645.1</ele>
        <time>2017-06-01T08:02:07.000Z</time>
      </trkpt>
      <trkpt lat="43.48413" lon="2.29359">
        <ele>645.5</ele>
        <time>2017-06-01T08:02:09.000Z</time>
      </trkpt>
      <trkpt lat="43.4841" lon="2.29362">
        <ele>645.8</ele>
        <time>2017-06-01T08:02:11.000Z</time>
      </trkpt>
      <trkpt lat="43.4841" lon="2.29368">
        <ele>646.2</ele>
        <time>2017-06-01T08:02:13.000Z</time>
      </trkpt>
      <trkpt lat="43.4841" lon="2.29376">
        <ele>646.7</ele>
        <time>2017-06-01T08:02:15.000Z</time>
      </trkpt>
      <trkpt lat="43.48405" lon="2.29373">
        <ele>647.2</ele>
        <time>2017-06-01T08:02:18.000Z</time>
      </trkpt>
      <trkpt lat="43.48409" lon="2.29382">
        <ele>645.5</ele>
        <time>2017-06-01T08:02:19.000Z</time>
      </trkpt>
      <trkpt lat="43.48406" lon="2.29384">
        <ele>645.3</ele>
        <time>2017-06-01T08:02:20.000Z</time>
      </trkpt>
      <trkpt lat="43.48404" lon="2.29388">
        <ele>644.6</ele>
        <time>2017-06-01T08:02:22.000Z</time>
      </trkpt>
      <trkpt lat="43.48405" lon="2.29392">
        <ele>643.8</ele>
        <time>2017-06-01T08:02:23.000Z</time>
      </trkpt>
      <trkpt lat="43.48403" lon="2.29396">
        <ele>643.7</ele>
        <time>2017-06-01T08:02:27.000Z</time>
      </trkpt>
      <trkpt lat="43.48402" lon="2.29399">
        <ele>643.2</ele>
        <time>2017-06-01T08:02:29.000Z</time>
      </trkpt>
      <trkpt lat="43.48402" lon="2.29405">
        <ele>642.1</ele>
        <time>2017-06-01T08:02:31.000Z</time>
      </trkpt>
      <trkpt lat="43.48399" lon="2.29399">
        <ele>642.8</ele>
        <time>2017-06-01T08:02:32.000Z</time>
      </trkpt>
      <trkpt lat="43.48397" lon="2.29404">
        <ele>642.7</ele>
        <time>2017-06-01T08:02:35.000Z</time>
      </trkpt>
      <trkpt lat="43.48394" lon="2.29407">
        <ele>641.9</ele>
        <time>2017-06-01T08:02:37.000Z</time>
      </trkpt>
      <trkpt lat="43.48381" lon="2.29402">
        <ele>644.9</ele>
        <time>2017-06-01T08:02:39.000Z</time>
      </trkpt>
      <trkpt lat="43.4837" lon="2.29399">
        <ele>647.3</ele>
        <time>2017-06-01T08:02:40.000Z</time>
      </trkpt>
      <trkpt lat="43.48345" lon="2.29398">
        <ele>652.8</ele>
        <time>2017-06-01T08:02:54.000Z</time>
      </trkpt>
      <trkpt lat="43.48337" lon="2.29393">
        <ele>653.2</ele>
        <time>2017-06-01T08:02:55.000Z</time>
      </trkpt>
      <trkpt lat="43.48336" lon="2.29398">
        <ele>653.4</ele>
        <time>2017-06-01T08:02:56.000Z</time>
      </trkpt>
      <trkpt lat="43.48335" lon="2.29402">
        <ele>653.5</ele>
        <time>2017-06-01T08:02:57.000Z</time>
      </trkpt>
      <trkpt lat="43.48334" lon="2.29415">
        <ele>654</ele>
        <time>2017-06-01T08:02:59.000Z</time>
      </trkpt>
      <trkpt lat="43.48335" lon="2.2942">
        <ele>654.3</ele>
        <time>2017-06-01T08:03:00.000Z</time>
      </trkpt>
      <trkpt lat="43.4833" lon="2.2942">
        <ele>654.6</ele>
        <time>2017-06-01T08:03:02.000Z</time>
      </trkpt>
      <trkpt lat="43.48327" lon="2.29415">
        <ele>654.8</ele>
        <time>2017-06-01T08:03:05.000Z</time>
      </trkpt>
      <trkpt lat="43.48328" lon="2.29412">
        <ele>655</ele>
        <time>2017-06-01T08:03:06.000Z</time>
      </trkpt>
      <trkpt lat="43.48327" lon="2.29407">
        <ele>655.1</ele>
        <time>2017-06-01T08:03:08.000Z</time>
      </trkpt>
      <trkpt lat="43.48324" lon="2.29408">
        <ele>655.3</ele>
        <time>2017-06-01T08:03:10.000Z</time>
      </trkpt>
      <trkpt lat="43.48321" lon="2.29406">
        <ele>655.6</ele>
        <time>2017-06-01T08:03:11.000Z</time>
      </trkpt>
      <trkpt lat="43.48306" lon="2.29434">
        <ele>657.3</ele>
        <time>2017-06-01T08:03:14.000Z</time>
      </trkpt>
      <trkpt lat="43.48303" lon="2.29439">
        <ele>657.6</ele>
        <time>2017-06-01T08:03:15.000Z</time>
      </trkpt>
      <trkpt lat="43.48303" lon="2.29452">
        <ele>658.1</ele>
        <time>2017-06-01T08:03:16.000Z</time>
      </trkpt>
      <trkpt lat="43.48291" lon="2.29448">
        <ele>658.9</ele>
        <time>2017-06-01T08:03:17.000Z</time>
      </trkpt>
      <trkpt lat="43.48294" lon="2.29451">
        <ele>659.1</ele>
        <time>2017-06-01T08:03:18.000Z</time>
      </trkpt>
      <trkpt lat="43.4829" lon="2.29452">
        <ele>659.2</ele>
        <time>2017-06-01T08:03:20.000Z</time>
      </trkpt>
      <trkpt lat="43.48293" lon="2.29451">
        <ele>659.4</ele>
        <time>2017-06-01T08:03:21.000Z</time>
      </trkpt>
      <trkpt lat="43.48295" lon="2.29455">
        <ele>659.5</ele>
        <time>2017-06-01T08:03:23.000Z</time>
      </trkpt>
      <trkpt lat="43.4829" lon="2.29456">
        <ele>659.7</ele>
        <time>2017-06-01T08:03:26.000Z</time>
      </trkpt>
      <trkpt lat="43.48287" lon="2.2946">
        <ele>659.8</ele>
        <time>2017-06-01T08:03:28.000Z</time>
      </trkpt>
      <trkpt lat="43.48283" lon="2.29465">
        <ele>660.2</ele>
        <time>2017-06-01T08:03:30.000Z</time>
      </trkpt>
      <trkpt lat="43.48281" lon="2.29468">
        <ele>660.4</ele>
        <time>2017-06-01T08:03:31.000Z</time>
      </trkpt>
      <trkpt lat="43.48284" lon="2.2947">
        <ele>659.5</ele>
        <time>2017-06-01T08:03:34.000Z</time>
      </trkpt>
      <trkpt lat="43.48282" lon="2.29466">
        <ele>659.9</ele>
        <time>2017-06-01T08:03:35.000Z</time>
      </trkpt>
      <trkpt lat="43.48272" lon="2.29493">
        <ele>659.1</ele>
        <time>2017-06-01T08:03:43.000Z</time>
      </trkpt>
      <trkpt lat="43.48277" lon="2.29498">
        <ele>657.5</ele>
        <time>2017-06-01T08:03:44.000Z</time>
      </trkpt>
      <trkpt lat="43.48268" lon="2.29503">
        <ele>659</ele>
        <time>2017-06-01T08:03:45.000Z</time>
      </trkpt>
      <trkpt lat="43.48267" lon="2.29509">
        <ele>658.3</ele>
        <time>2017-06-01T08:03:46.000Z</time>
      </trkpt>
      <trkpt lat="43.48262" lon="2.29513">
        <ele>660.2</ele>
        <time>2017-06-01T08:03:47.000Z</time>
      </trkpt>
      <trkpt lat="43.48261" lon="2.29518">
        <ele>660</ele>
        <time>2017-06-01T08:03:48.000Z</time>
      </trkpt>
      <trkpt lat="43.48255" lon="2.2952">
        <ele>662.4</ele>
        <time>2017-06-01T08:03:49.000Z</time>
      </trkpt>
      <trkpt lat="43.48254" lon="2.29528">
        <ele>662.1</ele>
        <time>2017-06-01T08:03:51.000Z</time>
      </trkpt>
      <trkpt lat="43.48252" lon="2.29532">
        <ele>662.9</ele>
        <time>2017-06-01T08:03:52.000Z</time>
      </trkpt>
      <trkpt lat="43.4825" lon="2.29536">
        <ele>663.6</ele>
        <time>2017-06-01T08:03:53.000Z</time>
      </trkpt>
      <trkpt lat="43.48244" lon="2.29537">
        <ele>665.6</ele>
        <time>2017-06-01T08:03:54.000Z</time>
      </trkpt>
      <trkpt lat="43.48242" lon="2.29543">
        <ele>665.8</ele>
        <time>2017-06-01T08:03:56.000Z</time>
      </trkpt>
      <trkpt lat="43.48241" lon="2.2955">
        <ele>666</ele>
        <time>2017-06-01T08:03:58.000Z</time>
      </trkpt>
      <trkpt lat="43.48243" lon="2.29556">
        <ele>666.4</ele>
        <time>2017-06-01T08:04:00.000Z</time>
      </trkpt>
      <trkpt lat="43.48242" lon="2.29566">
        <ele>666.7</ele>
        <time>2017-06-01T08:04:03.000Z</time>
      </trkpt>
      <trkpt lat="43.48244" lon="2.29569">
        <ele>666.8</ele>
        <time>2017-06-01T08:04:04.000Z</time>
      </trkpt>
      <trkpt lat="43.48249" lon="2.29567">
        <ele>667</ele>
        <time>2017-06-01T08:04:05.000Z</time>
      </trkpt>
      <trkpt lat="43.48247" lon="2.29574">
        <ele>667.3</ele>
        <time>2017-06-01T08:04:06.000Z</time>
      </trkpt>
      <trkpt lat="43.48241" lon="2.29576">
        <ele>667.6</ele>
        <time>2017-06-01T08:04:07.000Z</time>
      </trkpt>
      <trkpt lat="43.48241" lon="2.2958">
        <ele>667.8</ele>
        <time>2017-06-01T08:04:08.000Z</time>
      </trkpt>
      <trkpt lat="43.48242" lon="2.29585">
        <ele>667.9</ele>
        <time>2017-06-01T08:04:09.000Z</time>
      </trkpt>
      <trkpt lat="43.48244" lon="2.29594">
        <ele>668.2</ele>
        <time>2017-06-01T08:04:10.000Z</time>
      </trkpt>
      <trkpt lat="43.48245" lon="2.29605">
        <ele>668.6</ele>
        <time>2017-06-01T08:04:11.000Z</time>
      </trkpt>
      <trkpt lat="43.48251" lon="2.29609">
        <ele>668.9</ele>
        <time>2017-06-01T08:04:12.000Z</time>
      </trkpt>
      <trkpt lat="43.48255" lon="2.29615">
        <ele>669.2</ele>
        <time>2017-06-01T08:04:13.000Z</time>
      </trkpt>
      <trkpt lat="43.48264" lon="2.29617">
        <ele>669.5</ele>
        <time>2017-06-01T08:04:14.000Z</time>
      </trkpt>
      <trkpt lat="43.48264" lon="2.29624">
        <ele>669.8</ele>
        <time>2017-06-01T08:04:16.000Z</time>
      </trkpt>
      <trkpt lat="43.48263" lon="2.29628">
        <ele>670</ele>
        <time>2017-06-01T08:04:21.000Z</time>
      </trkpt>
      <trkpt lat="43.48265" lon="2.29635">
        <ele>670.3</ele>
        <time>2017-06-01T08:04:23.000Z</time>
      </trkpt>
      <trkpt lat="43.48261" lon="2.2964">
        <ele>670.6</ele>
        <time>2017-06-01T08:04:24.000Z</time>
      </trkpt>
      <trkpt lat="43.48265" lon="2.2964">
        <ele>670.8</ele>
        <time>2017-06-01T08:04:25.000Z</time>
      </trkpt>
      <trkpt lat="43.48265" lon="2.29645">
        <ele>671</ele>
        <time>2017-06-01T08:04:26.000Z</time>
      </trkpt>
      <trkpt lat="43.48264" lon="2.29649">
        <ele>671.2</ele>
        <time>2017-06-01T08:04:27.000Z</time>
      </trkpt>
      <trkpt lat="43.48262" lon="2.29653">
        <ele>671.3</ele>
        <time>2017-06-01T08:04:29.000Z</time>
      </trkpt>
      <trkpt lat="43.4826" lon="2.29658">
        <ele>671.5</ele>
        <time>2017-06-01T08:04:30.000Z</time>
      </trkpt>
      <trkpt lat="43.48258" lon="2.29663">
        <ele>671.6</ele>
        <time>2017-06-01T08:04:31.000Z</time>
      </trkpt>
      <trkpt lat="43.48259" lon="2.29668">
        <ele>671.8</ele>
        <time>2017-06-01T08:04:33.000Z</time>
      </trkpt>
      <trkpt lat="43.4826" lon="2.29672">
        <ele>671.9</ele>
        <time>2017-06-01T08:04:34.000Z</time>
      </trkpt>
      <trkpt lat="43.48266" lon="2.29677">
        <ele>672.2</ele>
        <time>2017-06-01T08:04:36.000Z</time>
      </trkpt>
      <trkpt lat="43.48259" lon="2.29679">
        <ele>672.5</ele>
        <time>2017-06-01T08:04:37.000Z</time>
      </trkpt>
      <trkpt lat="43.48259" lon="2.29683">
        <ele>672.7</ele>
        <time>2017-06-01T08:04:38.000Z</time>
      </trkpt>
      <trkpt lat="43.48265" lon="2.29683">
        <ele>673</ele>
        <time>2017-06-01T08:04:39.000Z</time>
      </trkpt>
      <trkpt lat="43.48257" lon="2.2968">
        <ele>673.4</ele>
        <time>2017-06-01T08:04:41.000Z</time>
      </trkpt>
      <trkpt lat="43.48265" lon="2.29688">
        <ele>674.1</ele>
        <time>2017-06-01T08:04:42.000Z</time>
      </trkpt>
      <trkpt lat="43.48259" lon="2.29691">
        <ele>674.3</ele>
        <time>2017-06-01T08:04:44.000Z</time>
      </trkpt>
      <trkpt lat="43.48256" lon="2.2969">
        <ele>674.5</ele>
        <time>2017-06-01T08:04:45.000Z</time>
      </trkpt>
      <trkpt lat="43.48253" lon="2.29696">
        <ele>674.8</ele>
        <time>2017-06-01T08:04:47.000Z</time>
      </trkpt>
      <trkpt lat="43.48254" lon="2.29701">
        <ele>674.9</ele>
        <time>2017-06-01T08:04:48.000Z</time>
      </trkpt>
      <trkpt lat="43.48257" lon="2.297">
        <ele>675</ele>
        <time>2017-06-01T08:04:49.000Z</time>
      </trkpt>
      <trkpt lat="43.48255" lon="2.29704">
        <ele>675.1</ele>
        <time>2017-06-01T08:04:51.000Z</time>
      </trkpt>
      <trkpt lat="43.48258" lon="2.29707">
        <ele>675.3</ele>
        <time>2017-06-01T08:04:52.000Z</time>
      </trkpt>
      <trkpt lat="43.48262" lon="2.29709">
        <ele>675.5</ele>
        <time>2017-06-01T08:04:54.000Z</time>
      </trkpt>
      <trkpt lat="43.48266" lon="2.29714">
        <ele>675.7</ele>
        <time>2017-06-01T08:04:55.000Z</time>
      </trkpt>
      <trkpt lat="43.48268" lon="2.29721">
        <ele>675.9</ele>
        <time>2017-06-01T08:04:56.000Z</time>
      </trkpt>
      <trkpt lat="43.48268" lon="2.29725">
        <ele>676</ele>
        <time>2017-06-01T08:04:58.000Z</time>
      </trkpt>
      <trkpt lat="43.48267" lon="2.29731">
        <ele>676.2</ele>
        <time>2017-06-01T08:05:04.000Z</time>
      </trkpt>
      <trkpt lat="43.48264" lon="2.29736">
        <ele>676.4</ele>
        <time>2017-06-01T08:05:07.000Z</time>
      </trkpt>
      <trkpt lat="43.48268" lon="2.29738">
        <ele>676.6</ele>
        <time>2017-06-01T08:05:08.000Z</time>
      </trkpt>
      <trkpt lat="43.48263" lon="2.29748">
        <ele>677</ele>
        <time>2017-06-01T08:05:09.000Z</time>
      </trkpt>
      <trkpt lat="43.48269" lon="2.29754">
        <ele>677</ele>
        <time>2017-06-01T08:05:10.000Z</time>
      </trkpt>
      <trkpt lat="43.4827" lon="2.29758">
        <ele>678.2</ele>
        <time>2017-06-01T08:05:12.000Z</time>
      </trkpt>
      <trkpt lat="43.48267" lon="2.29763">
        <ele>679.8</ele>
        <time>2017-06-01T08:05:14.000Z</time>
      </trkpt>
      <trkpt lat="43.48263" lon="2.29764">
        <ele>681.3</ele>
        <time>2017-06-01T08:05:15.000Z</time>
      </trkpt>
      <trkpt lat="43.48262" lon="2.29767">
        <ele>682.3</ele>
        <time>2017-06-01T08:05:20.000Z</time>
      </trkpt>
      <trkpt lat="43.48258" lon="2.29765">
        <ele>683.7</ele>
        <time>2017-06-01T08:05:23.000Z</time>
      </trkpt>
      <trkpt lat="43.48252" lon="2.29764">
        <ele>686.1</ele>
        <time>2017-06-01T08:05:25.000Z</time>
      </trkpt>
      <trkpt lat="43.48248" lon="2.29762">
        <ele>687.5</ele>
        <time>2017-06-01T08:05:27.000Z</time>
      </trkpt>
      <trkpt lat="43.48244" lon="2.29761">
        <ele>689.1</ele>
        <time>2017-06-01T08:05:29.000Z</time>
      </trkpt>
      <trkpt lat="43.48243" lon="2.29756">
        <ele>693</ele>
        <time>2017-06-01T08:05:32.000Z</time>
      </trkpt>
      <trkpt lat="43.4824" lon="2.29755">
        <ele>693.1</ele>
        <time>2017-06-01T08:05:33.000Z</time>
      </trkpt>
      <trkpt lat="43.48238" lon="2.29758">
        <ele>693.2</ele>
        <time>2017-06-01T08:05:34.000Z</time>
      </trkpt>
      <trkpt lat="43.48236" lon="2.29755">
        <ele>693.2</ele>
        <time>2017-06-01T08:05:36.000Z</time>
      </trkpt>
      <trkpt lat="43.48201" lon="2.29709">
        <ele>694.2</ele>
        <time>2017-06-01T08:05:57.000Z</time>
      </trkpt>
      <trkpt lat="43.48204" lon="2.29709">
        <ele>694.3</ele>
        <time>2017-06-01T08:05:59.000Z</time>
      </trkpt>
      <trkpt lat="43.48183" lon="2.29714">
        <ele>694.6</ele>
        <time>2017-06-01T08:06:02.000Z</time>
      </trkpt>
      <trkpt lat="43.48194" lon="2.29703">
        <ele>694.9</ele>
        <time>2017-06-01T08:06:03.000Z</time>
      </trkpt>
      <trkpt lat="43.48191" lon="2.29699">
        <ele>694.9</ele>
        <time>2017-06-01T08:06:04.000Z</time>
      </trkpt>
      <trkpt lat="43.48187" lon="2.29698">
        <ele>694.9</ele>
        <time>2017-06-01T08:06:05.000Z</time>
      </trkpt>
      <trkpt lat="43.48189" lon="2.29692">
        <ele>695</ele>
        <time>2017-06-01T08:06:06.000Z</time>
      </trkpt>
      <trkpt lat="43.48199" lon="2.29687">
        <ele>695.1</ele>
        <time>2017-06-01T08:06:07.000Z</time>
      </trkpt>
      <trkpt lat="43.48195" lon="2.29681">
        <ele>695.1</ele>
        <time>2017-06-01T08:06:08.000Z</time>
      </trkpt>
      <trkpt lat="43.48199" lon="2.29676">
        <ele>695.1</ele>
        <time>2017-06-01T08:06:09.000Z</time>
      </trkpt>
      <trkpt lat="43.48197" lon="2.2967">
        <ele>695.2</ele>
        <time>2017-06-01T08:06:10.000Z</time>
      </trkpt>
      <trkpt lat="43.48198" lon="2.29662">
        <ele>695.2</ele>
        <time>2017-06-01T08:06:11.000Z</time>
      </trkpt>
      <trkpt lat="43.48194" lon="2.29662">
        <ele>695.2</ele>
        <time>2017-06-01T08:06:12.000Z</time>
      </trkpt>
      <trkpt lat="43.48196" lon="2.29657">
        <ele>695.3</ele>
        <time>2017-06-01T08:06:14.000Z</time>
      </trkpt>
      <trkpt lat="43.48194" lon="2.29652">
        <ele>695.3</ele>
        <time>2017-06-01T08:06:16.000Z</time>
      </trkpt>
      <trkpt lat="43.48201" lon="2.29653">
        <ele>695.4</ele>
        <time>2017-06-01T08:06:18.000Z</time>
      </trkpt>
      <trkpt lat="43.48211" lon="2.29649">
        <ele>695.6</ele>
        <time>2017-06-01T08:06:19.000Z</time>
      </trkpt>
      <trkpt lat="43.48205" lon="2.29648">
        <ele>695.7</ele>
        <time>2017-06-01T08:06:21.000Z</time>
      </trkpt>
      <trkpt lat="43.48202" lon="2.29648">
        <ele>695.8</ele>
        <time>2017-06-01T08:06:22.000Z</time>
      </trkpt>
      <trkpt lat="43.48197" lon="2.2965">
        <ele>696</ele>
        <time>2017-06-01T08:06:23.000Z</time>
      </trkpt>
      <trkpt lat="43.482" lon="2.29646">
        <ele>696.1</ele>
        <time>2017-06-01T08:06:25.000Z</time>
      </trkpt>
      <trkpt lat="43.48198" lon="2.29642">
        <ele>696.2</ele>
        <time>2017-06-01T08:06:26.000Z</time>
      </trkpt>
      <trkpt lat="43.48192" lon="2.29634">
        <ele>696.4</ele>
        <time>2017-06-01T08:06:28.000Z</time>
      </trkpt>
      <trkpt lat="43.48189" lon="2.29631">
        <ele>696.4</ele>
        <time>2017-06-01T08:06:30.000Z</time>
      </trkpt>
      <trkpt lat="43.48187" lon="2.29633">
        <ele>696.5</ele>
        <time>2017-06-01T08:06:31.000Z</time>
      </trkpt>
      <trkpt lat="43.48186" lon="2.29619">
        <ele>696.7</ele>
        <time>2017-06-01T08:06:32.000Z</time>
      </trkpt>
      <trkpt lat="43.48185" lon="2.29615">
        <ele>696.8</ele>
        <time>2017-06-01T08:06:33.000Z</time>
      </trkpt>
      <trkpt lat="43.48185" lon="2.29602">
        <ele>697.1</ele>
        <time>2017-06-01T08:06:35.000Z</time>
      </trkpt>
      <trkpt lat="43.48182" lon="2.29599">
        <ele>697.2</ele>
        <time>2017-06-01T08:06:36.000Z</time>
      </trkpt>
      <trkpt lat="43.48181" lon="2.29595">
        <ele>697.4</ele>
        <time>2017-06-01T08:06:37.000Z</time>
      </trkpt>
      <trkpt lat="43.48191" lon="2.29586">
        <ele>692</ele>
        <time>2017-06-01T08:06:38.000Z</time>
      </trkpt>
      <trkpt lat="43.48188" lon="2.29576">
        <ele>690.1</ele>
        <time>2017-06-01T08:06:40.000Z</time>
      </trkpt>
      <trkpt lat="43.48188" lon="2.29571">
        <ele>687.7</ele>
        <time>2017-06-01T08:06:41.000Z</time>
      </trkpt>
      <trkpt lat="43.48191" lon="2.29565">
        <ele>684.7</ele>
        <time>2017-06-01T08:06:42.000Z</time>
      </trkpt>
      <trkpt lat="43.48087" lon="2.29588">
        <ele>700.4</ele>
        <time>2017-06-01T08:07:05.000Z</time>
      </trkpt>
      <trkpt lat="43.48113" lon="2.29584">
        <ele>699.7</ele>
        <time>2017-06-01T08:07:07.000Z</time>
      </trkpt>
      <trkpt lat="43.48115" lon="2.29582">
        <ele>699.6</ele>
        <time>2017-06-01T08:07:10.000Z</time>
      </trkpt>
      <trkpt lat="43.48123" lon="2.29584">
        <ele>699.4</ele>
        <time>2017-06-01T08:07:12.000Z</time>
      </trkpt>
      <trkpt lat="43.48118" lon="2.29587">
        <ele>699.6</ele>
        <time>2017-06-01T08:07:14.000Z</time>
      </trkpt>
      <trkpt lat="43.48114" lon="2.29591">
        <ele>699.7</ele>
        <time>2017-06-01T08:07:17.000Z</time>
      </trkpt>
      <trkpt lat="43.48115" lon="2.29596">
        <ele>699.8</ele>
        <time>2017-06-01T08:07:20.000Z</time>
      </trkpt>
      <trkpt lat="43.48114" lon="2.296">
        <ele>699.9</ele>
        <time>2017-06-01T08:07:21.000Z</time>
      </trkpt>
      <trkpt lat="43.48107" lon="2.29598">
        <ele>700</ele>
        <time>2017-06-01T08:07:22.000Z</time>
      </trkpt>
      <trkpt lat="43.48101" lon="2.29598">
        <ele>700.2</ele>
        <time>2017-06-01T08:07:24.000Z</time>
      </trkpt>
      <trkpt lat="43.48096" lon="2.29598">
        <ele>700.2</ele>
        <time>2017-06-01T08:07:25.000Z</time>
      </trkpt>
      <trkpt lat="43.48092" lon="2.29602">
        <ele>700.3</ele>
        <time>2017-06-01T08:07:28.000Z</time>
      </trkpt>
      <trkpt lat="43.48087" lon="2.29604">
        <ele>700.8</ele>
        <time>2017-06-01T08:07:29.000Z</time>
      </trkpt>
      <trkpt lat="43.48084" lon="2.29606">
        <ele>701.1</ele>
        <time>2017-06-01T08:07:32.000Z</time>
      </trkpt>
      <trkpt lat="43.4808" lon="2.29608">
        <ele>701.6</ele>
        <time>2017-06-01T08:07:34.000Z</time>
      </trkpt>
      <trkpt lat="43.48076" lon="2.29612">
        <ele>702.3</ele>
        <time>2017-06-01T08:07:36.000Z</time>
      </trkpt>
      <trkpt lat="43.48073" lon="2.29613">
        <ele>702.9</ele>
        <time>2017-06-01T08:07:39.000Z</time>
      </trkpt>
      <trkpt lat="43.48068" lon="2.29614">
        <ele>703.3</ele>
        <time>2017-06-01T08:07:42.000Z</time>
      </trkpt>
      <trkpt lat="43.48064" lon="2.29615">
        <ele>704</ele>
        <time>2017-06-01T08:07:45.000Z</time>
      </trkpt>
      <trkpt lat="43.48065" lon="2.29619">
        <ele>703.9</ele>
        <time>2017-06-01T08:07:50.000Z</time>
      </trkpt>
      <trkpt lat="43.48061" lon="2.29617">
        <ele>705</ele>
        <time>2017-06-01T08:07:54.000Z</time>
      </trkpt>
      <trkpt lat="43.48057" lon="2.29617">
        <ele>706.2</ele>
        <time>2017-06-01T08:08:00.000Z</time>
      </trkpt>
      <trkpt lat="43.48053" lon="2.29617">
        <ele>706.9</ele>
        <time>2017-06-01T08:08:02.000Z</time>
      </trkpt>
      <trkpt lat="43.48049" lon="2.29619">
        <ele>707.4</ele>
        <time>2017-06-01T08:08:05.000Z</time>
      </trkpt>
      <trkpt lat="43.48044" lon="2.29618">
        <ele>709.2</ele>
        <time>2017-06-01T08:08:07.000Z</time>
      </trkpt>
      <trkpt lat="43.48042" lon="2.29621">
        <ele>709.9</ele>
        <time>2017-06-01T08:08:09.000Z</time>
      </trkpt>
      <trkpt lat="43.48038" lon="2.29622">
        <ele>710.8</ele>
        <time>2017-06-01T08:08:10.000Z</time>
      </trkpt>
      <trkpt lat="43.48035" lon="2.29626">
        <ele>711.7</ele>
        <time>2017-06-01T08:08:13.000Z</time>
      </trkpt>
      <trkpt lat="43.48032" lon="2.29627">
        <ele>712.6</ele>
        <time>2017-06-01T08:08:14.000Z</time>
      </trkpt>
      <trkpt lat="43.48027" lon="2.29624">
        <ele>713.3</ele>
        <time>2017-06-01T08:08:16.000Z</time>
      </trkpt>
      <trkpt lat="43.48022" lon="2.2963">
        <ele>714.5</ele>
        <time>2017-06-01T08:08:20.000Z</time>
      </trkpt>
      <trkpt lat="43.48019" lon="2.29632">
        <ele>715.2</ele>
        <time>2017-06-01T08:08:21.000Z</time>
      </trkpt>
      <trkpt lat="43.48016" lon="2.29633">
        <ele>715.8</ele>
        <time>2017-06-01T08:08:22.000Z</time>
      </trkpt>
      <trkpt lat="43.48012" lon="2.29633">
        <ele>716.3</ele>
        <time>2017-06-01T08:08:26.000Z</time>
      </trkpt>
      <trkpt lat="43.47989" lon="2.2965">
        <ele>717.9</ele>
        <time>2017-06-01T08:08:41.000Z</time>
      </trkpt>
      <trkpt lat="43.47986" lon="2.29647">
        <ele>718.7</ele>
        <time>2017-06-01T08:08:44.000Z</time>
      </trkpt>
      <trkpt lat="43.47984" lon="2.29645">
        <ele>718.9</ele>
        <time>2017-06-01T08:08:45.000Z</time>
      </trkpt>
      <trkpt lat="43.47983" lon="2.29649">
        <ele>718.8</ele>
        <time>2017-06-01T08:08:46.000Z</time>
      </trkpt>
      <trkpt lat="43.47963" lon="2.29676">
        <ele>719.5</ele>
        <time>2017-06-01T08:08:48.000Z</time>
      </trkpt>
      <trkpt lat="43.47958" lon="2.29679">
        <ele>719.6</ele>
        <time>2017-06-01T08:08:50.000Z</time>
      </trkpt>
      <trkpt lat="43.47955" lon="2.29679">
        <ele>719.7</ele>
        <time>2017-06-01T08:08:51.000Z</time>
      </trkpt>
      <trkpt lat="43.47952" lon="2.29678">
        <ele>719.8</ele>
        <time>2017-06-01T08:08:52.000Z</time>
      </trkpt>
      <trkpt lat="43.47945" lon="2.29676">
        <ele>720</ele>
        <time>2017-06-01T08:08:54.000Z</time>
      </trkpt>
      <trkpt lat="43.4794" lon="2.29678">
        <ele>720</ele>
        <time>2017-06-01T08:08:56.000Z</time>
      </trkpt>
      <trkpt lat="43.47944" lon="2.29677">
        <ele>720</ele>
        <time>2017-06-01T08:08:57.000Z</time>
      </trkpt>
      <trkpt lat="43.47939" lon="2.29682">
        <ele>720</ele>
        <time>2017-06-01T08:08:58.000Z</time>
      </trkpt>
      <trkpt lat="43.47937" lon="2.29684">
        <ele>719.8</ele>
        <time>2017-06-01T08:08:59.000Z</time>
      </trkpt>
      <trkpt lat="43.47935" lon="2.2969">
        <ele>719.6</ele>
        <time>2017-06-01T08:09:00.000Z</time>
      </trkpt>
      <trkpt lat="43.47951" lon="2.29697">
        <ele>719.4</ele>
        <time>2017-06-01T08:09:03.000Z</time>
      </trkpt>
      <trkpt lat="43.47961" lon="2.297">
        <ele>719.2</ele>
        <time>2017-06-01T08:09:04.000Z</time>
      </trkpt>
      <trkpt lat="43.47934" lon="2.29708">
        <ele>718.5</ele>
        <time>2017-06-01T08:09:06.000Z</time>
      </trkpt>
      <trkpt lat="43.47932" lon="2.29713">
        <ele>718.5</ele>
        <time>2017-06-01T08:09:07.000Z</time>
      </trkpt>
      <trkpt lat="43.4793" lon="2.29714">
        <ele>718.4</ele>
        <time>2017-06-01T08:09:10.000Z</time>
      </trkpt>
      <trkpt lat="43.4792" lon="2.29708">
        <ele>718.8</ele>
        <time>2017-06-01T08:09:12.000Z</time>
      </trkpt>
      <trkpt lat="43.47917" lon="2.29706">
        <ele>719</ele>
        <time>2017-06-01T08:09:14.000Z</time>
      </trkpt>
      <trkpt lat="43.47918" lon="2.29712">
        <ele>719.3</ele>
        <time>2017-06-01T08:09:16.000Z</time>
      </trkpt>
      <trkpt lat="43.47916" lon="2.29718">
        <ele>719.6</ele>
        <time>2017-06-01T08:09:17.000Z</time>
      </trkpt>
      <trkpt lat="43.47913" lon="2.29713">
        <ele>719.7</ele>
        <time>2017-06-01T08:09:18.000Z</time>
      </trkpt>
      <trkpt lat="43.4791" lon="2.29715">
        <ele>719.9</ele>
        <time>2017-06-01T08:09:19.000Z</time>
      </trkpt>
      <trkpt lat="43.47907" lon="2.29715">
        <ele>720</ele>
        <time>2017-06-01T08:09:20.000Z</time>
      </trkpt>
      <trkpt lat="43.47897" lon="2.29719">
        <ele>720.3</ele>
        <time>2017-06-01T08:09:22.000Z</time>
      </trkpt>
      <trkpt lat="43.479" lon="2.29716">
        <ele>720.4</ele>
        <time>2017-06-01T08:09:23.000Z</time>
      </trkpt>
      <trkpt lat="43.47902" lon="2.29712">
        <ele>720.5</ele>
        <time>2017-06-01T08:09:24.000Z</time>
      </trkpt>
      <trkpt lat="43.47897" lon="2.29711">
        <ele>720.7</ele>
        <time>2017-06-01T08:09:28.000Z</time>
      </trkpt>
      <trkpt lat="43.47895" lon="2.29713">
        <ele>720.7</ele>
        <time>2017-06-01T08:09:29.000Z</time>
      </trkpt>
      <trkpt lat="43.47899" lon="2.29712">
        <ele>720.7</ele>
        <time>2017-06-01T08:09:33.000Z</time>
      </trkpt>
      <trkpt lat="43.47901" lon="2.29707">
        <ele>720.7</ele>
        <time>2017-06-01T08:09:34.000Z</time>
      </trkpt>
      <trkpt lat="43.479" lon="2.29712">
        <ele>720.7</ele>
        <time>2017-06-01T08:09:36.000Z</time>
      </trkpt>
      <trkpt lat="43.47895" lon="2.29709">
        <ele>720.7</ele>
        <time>2017-06-01T08:09:37.000Z</time>
      </trkpt>
      <trkpt lat="43.47888" lon="2.29714">
        <ele>720.8</ele>
        <time>2017-06-01T08:10:54.000Z</time>
      </trkpt>
      <trkpt lat="43.47883" lon="2.29714">
        <ele>720.8</ele>
        <time>2017-06-01T08:10:56.000Z</time>
      </trkpt>
      <trkpt lat="43.47879" lon="2.29712">
        <ele>720.9</ele>
        <time>2017-06-01T08:10:58.000Z</time>
      </trkpt>
      <trkpt lat="43.47875" lon="2.2971">
        <ele>721.4</ele>
        <time>2017-06-01T08:10:59.000Z</time>
      </trkpt>
      <trkpt lat="43.47872" lon="2.29707">
        <ele>721.6</ele>
        <time>2017-06-01T08:11:01.000Z</time>
      </trkpt>
      <trkpt lat="43.47867" lon="2.29705">
        <ele>721.8</ele>
        <time>2017-06-01T08:11:02.000Z</time>
      </trkpt>
      <trkpt lat="43.47864" lon="2.29704">
        <ele>721.9</ele>
        <time>2017-06-01T08:11:03.000Z</time>
      </trkpt>
      <trkpt lat="43.47861" lon="2.29701">
        <ele>722.1</ele>
        <time>2017-06-01T08:11:04.000Z</time>
      </trkpt>
      <trkpt lat="43.47858" lon="2.29694">
        <ele>722.3</ele>
        <time>2017-06-01T08:11:05.000Z</time>
      </trkpt>
      <trkpt lat="43.47857" lon="2.29683">
        <ele>722.5</ele>
        <time>2017-06-01T08:11:06.000Z</time>
      </trkpt>
      <trkpt lat="43.47852" lon="2.2968">
        <ele>722.6</ele>
        <time>2017-06-01T08:11:08.000Z</time>
      </trkpt>
      <trkpt lat="43.47847" lon="2.2968">
        <ele>722.6</ele>
        <time>2017-06-01T08:11:09.000Z</time>
      </trkpt>
      <trkpt lat="43.4785" lon="2.29674">
        <ele>722.6</ele>
        <time>2017-06-01T08:11:10.000Z</time>
      </trkpt>
      <trkpt lat="43.47847" lon="2.29672">
        <ele>722.6</ele>
        <time>2017-06-01T08:11:11.000Z</time>
      </trkpt>
      <trkpt lat="43.47844" lon="2.29669">
        <ele>722.6</ele>
        <time>2017-06-01T08:11:12.000Z</time>
      </trkpt>
      <trkpt lat="43.47837" lon="2.2967">
        <ele>722.6</ele>
        <time>2017-06-01T08:11:14.000Z</time>
      </trkpt>
      <trkpt lat="43.47833" lon="2.29671">
        <ele>722.6</ele>
        <time>2017-06-01T08:11:15.000Z</time>
      </trkpt>
      <trkpt lat="43.4783" lon="2.29671">
        <ele>722.6</ele>
        <time>2017-06-01T08:11:19.000Z</time>
      </trkpt>
      <trkpt lat="43.47826" lon="2.29676">
        <ele>722.7</ele>
        <time>2017-06-01T08:11:21.000Z</time>
      </trkpt>
      <trkpt lat="43.47823" lon="2.2968">
        <ele>722.7</ele>
        <time>2017-06-01T08:11:22.000Z</time>
      </trkpt>
      <trkpt lat="43.47819" lon="2.29681">
        <ele>722.7</ele>
        <time>2017-06-01T08:11:24.000Z</time>
      </trkpt>
      <trkpt lat="43.47812" lon="2.29684">
        <ele>722.6</ele>
        <time>2017-06-01T08:11:25.000Z</time>
      </trkpt>
      <trkpt lat="43.47806" lon="2.29687">
        <ele>722.5</ele>
        <time>2017-06-01T08:11:26.000Z</time>
      </trkpt>
      <trkpt lat="43.47801" lon="2.29692">
        <ele>722.4</ele>
        <time>2017-06-01T08:11:27.000Z</time>
      </trkpt>
      <trkpt lat="43.47797" lon="2.29696">
        <ele>722.3</ele>
        <time>2017-06-01T08:11:28.000Z</time>
      </trkpt>
      <trkpt lat="43.4779" lon="2.29703">
        <ele>722.1</ele>
        <time>2017-06-01T08:11:30.000Z</time>
      </trkpt>
      <trkpt lat="43.47791" lon="2.29707">
        <ele>722.1</ele>
        <time>2017-06-01T08:11:31.000Z</time>
      </trkpt>
      <trkpt lat="43.47786" lon="2.29712">
        <ele>722.1</ele>
        <time>2017-06-01T08:11:32.000Z</time>
      </trkpt>
      <trkpt lat="43.47787" lon="2.29717">
        <ele>722.1</ele>
        <time>2017-06-01T08:11:33.000Z</time>
      </trkpt>
      <trkpt lat="43.47784" lon="2.29722">
        <ele>722.1</ele>
        <time>2017-06-01T08:11:34.000Z</time>
      </trkpt>
      <trkpt lat="43.47778" lon="2.29726">
        <ele>722.1</ele>
        <time>2017-06-01T08:11:35.000Z</time>
      </trkpt>
      <trkpt lat="43.47774" lon="2.29733">
        <ele>722.2</ele>
        <time>2017-06-01T08:11:37.000Z</time>
      </trkpt>
      <trkpt lat="43.4777" lon="2.29735">
        <ele>722.2</ele>
        <time>2017-06-01T08:11:38.000Z</time>
      </trkpt>
      <trkpt lat="43.47767" lon="2.2974">
        <ele>722.2</ele>
        <time>2017-06-01T08:11:39.000Z</time>
      </trkpt>
      <trkpt lat="43.47761" lon="2.2974">
        <ele>722.2</ele>
        <time>2017-06-01T08:11:40.000Z</time>
      </trkpt>
      <trkpt lat="43.47758" lon="2.29743">
        <ele>722.2</ele>
        <time>2017-06-01T08:11:41.000Z</time>
      </trkpt>
      <trkpt lat="43.47754" lon="2.29745">
        <ele>722.2</ele>
        <time>2017-06-01T08:11:42.000Z</time>
      </trkpt>
      <trkpt lat="43.47749" lon="2.29747">
        <ele>722.3</ele>
        <time>2017-06-01T08:11:43.000Z</time>
      </trkpt>
      <trkpt lat="43.47743" lon="2.2975">
        <ele>722.3</ele>
        <time>2017-06-01T08:11:45.000Z</time>
      </trkpt>
      <trkpt lat="43.47735" lon="2.2975">
        <ele>722.3</ele>
        <time>2017-06-01T08:11:46.000Z</time>
      </trkpt>
      <trkpt lat="43.47729" lon="2.29751">
        <ele>722.4</ele>
        <time>2017-06-01T08:11:47.000Z</time>
      </trkpt>
      <trkpt lat="43.47719" lon="2.29753">
        <ele>722.4</ele>
        <time>2017-06-01T08:11:48.000Z</time>
      </trkpt>
      <trkpt lat="43.47714" lon="2.29753">
        <ele>722.4</ele>
        <time>2017-06-01T08:11:49.000Z</time>
      </trkpt>
      <trkpt lat="43.47706" lon="2.29755">
        <ele>722.3</ele>
        <time>2017-06-01T08:11:50.000Z</time>
      </trkpt>
      <trkpt lat="43.477" lon="2.29756">
        <ele>722.3</ele>
        <time>2017-06-01T08:11:51.000Z</time>
      </trkpt>
      <trkpt lat="43.47693" lon="2.29759">
        <ele>722.2</ele>
        <time>2017-06-01T08:11:52.000Z</time>
      </trkpt>
      <trkpt lat="43.47688" lon="2.29762">
        <ele>722.2</ele>
        <time>2017-06-01T08:11:53.000Z</time>
      </trkpt>
      <trkpt lat="43.47686" lon="2.29764">
        <ele>722.2</ele>
        <time>2017-06-01T08:11:54.000Z</time>
      </trkpt>
      <trkpt lat="43.47686" lon="2.29768">
        <ele>722.3</ele>
        <time>2017-06-01T08:11:56.000Z</time>
      </trkpt>
      <trkpt lat="43.47683" lon="2.29773">
        <ele>723.6</ele>
        <time>2017-06-01T08:11:58.000Z</time>
      </trkpt>
      <trkpt lat="43.47684" lon="2.29771">
        <ele>723.3</ele>
        <time>2017-06-01T08:12:01.000Z</time>
      </trkpt>
      <trkpt lat="43.47682" lon="2.29769">
        <ele>723.1</ele>
        <time>2017-06-01T08:12:02.000Z</time>
      </trkpt>
      <trkpt lat="43.47682" lon="2.29773">
        <ele>723.8</ele>
        <time>2017-06-01T08:12:03.000Z</time>
      </trkpt>
      <trkpt lat="43.47685" lon="2.29767">
        <ele>723.3</ele>
        <time>2017-06-01T08:12:05.000Z</time>
      </trkpt>
      <trkpt lat="43.47688" lon="2.29759">
        <ele>723.2</ele>
        <time>2017-06-01T08:12:06.000Z</time>
      </trkpt>
      <trkpt lat="43.47691" lon="2.2976">
        <ele>723.3</ele>
        <time>2017-06-01T08:12:07.000Z</time>
      </trkpt>
      <trkpt lat="43.47696" lon="2.29767">
        <ele>723.6</ele>
        <time>2017-06-01T08:12:11.000Z</time>
      </trkpt>
      <trkpt lat="43.47698" lon="2.29765">
        <ele>723.8</ele>
        <time>2017-06-01T08:12:12.000Z</time>
      </trkpt>
      <trkpt lat="43.47697" lon="2.2976">
        <ele>723.7</ele>
        <time>2017-06-01T08:12:13.000Z</time>
      </trkpt>
      <trkpt lat="43.47699" lon="2.29767">
        <ele>724.2</ele>
        <time>2017-06-01T08:12:15.000Z</time>
      </trkpt>
      <trkpt lat="43.47698" lon="2.29772">
        <ele>724.9</ele>
        <time>2017-06-01T08:12:16.000Z</time>
      </trkpt>
      <trkpt lat="43.47698" lon="2.2978">
        <ele>726.2</ele>
        <time>2017-06-01T08:12:17.000Z</time>
      </trkpt>
      <trkpt lat="43.477" lon="2.29777">
        <ele>725.8</ele>
        <time>2017-06-01T08:12:18.000Z</time>
      </trkpt>
      <trkpt lat="43.47702" lon="2.29783">
        <ele>727.1</ele>
        <time>2017-06-01T08:12:19.000Z</time>
      </trkpt>
      <trkpt lat="43.47702" lon="2.29791">
        <ele>728.6</ele>
        <time>2017-06-01T08:12:20.000Z</time>
      </trkpt>
      <trkpt lat="43.47705" lon="2.29781">
        <ele>726.9</ele>
        <time>2017-06-01T08:12:21.000Z</time>
      </trkpt>
      <trkpt lat="43.47707" lon="2.29788">
        <ele>727.9</ele>
        <time>2017-06-01T08:12:23.000Z</time>
      </trkpt>
      <trkpt lat="43.47714" lon="2.29777">
        <ele>726.6</ele>
        <time>2017-06-01T08:12:25.000Z</time>
      </trkpt>
      <trkpt lat="43.47716" lon="2.29772">
        <ele>726.4</ele>
        <time>2017-06-01T08:12:26.000Z</time>
      </trkpt>
      <trkpt lat="43.47721" lon="2.29771">
        <ele>726.5</ele>
        <time>2017-06-01T08:12:27.000Z</time>
      </trkpt>
      <trkpt lat="43.47726" lon="2.2978">
        <ele>726.7</ele>
        <time>2017-06-01T08:12:29.000Z</time>
      </trkpt>
      <trkpt lat="43.4773" lon="2.29785">
        <ele>726.6</ele>
        <time>2017-06-01T08:12:30.000Z</time>
      </trkpt>
      <trkpt lat="43.47733" lon="2.29789">
        <ele>726.4</ele>
        <time>2017-06-01T08:12:32.000Z</time>
      </trkpt>
      <trkpt lat="43.47736" lon="2.29792">
        <ele>726.2</ele>
        <time>2017-06-01T08:12:33.000Z</time>
      </trkpt>
      <trkpt lat="43.47742" lon="2.298">
        <ele>725.9</ele>
        <time>2017-06-01T08:12:36.000Z</time>
      </trkpt>
      <trkpt lat="43.47742" lon="2.29792">
        <ele>725.5</ele>
        <time>2017-06-01T08:12:37.000Z</time>
      </trkpt>
      <trkpt lat="43.47745" lon="2.29805">
        <ele>726.1</ele>
        <time>2017-06-01T08:12:38.000Z</time>
      </trkpt>
      <trkpt lat="43.47748" lon="2.29815">
        <ele>726.3</ele>
        <time>2017-06-01T08:12:39.000Z</time>
      </trkpt>
      <trkpt lat="43.47748" lon="2.29821">
        <ele>726.4</ele>
        <time>2017-06-01T08:12:40.000Z</time>
      </trkpt>
      <trkpt lat="43.47747" lon="2.29827">
        <ele>726.5</ele>
        <time>2017-06-01T08:12:41.000Z</time>
      </trkpt>
      <trkpt lat="43.47751" lon="2.29835">
        <ele>726.5</ele>
        <time>2017-06-01T08:12:42.000Z</time>
      </trkpt>
      <trkpt lat="43.47754" lon="2.29833">
        <ele>726.6</ele>
        <time>2017-06-01T08:12:43.000Z</time>
      </trkpt>
      <trkpt lat="43.47758" lon="2.29825">
        <ele>726.7</ele>
        <time>2017-06-01T08:12:44.000Z</time>
      </trkpt>
      <trkpt lat="43.47761" lon="2.29813">
        <ele>724.2</ele>
        <time>2017-06-01T08:12:45.000Z</time>
      </trkpt>
      <trkpt lat="43.47766" lon="2.29813">
        <ele>723.2</ele>
        <time>2017-06-01T08:12:47.000Z</time>
      </trkpt>
      <trkpt lat="43.47768" lon="2.2981">
        <ele>722.7</ele>
        <time>2017-06-01T08:12:48.000Z</time>
      </trkpt>
      <trkpt lat="43.47767" lon="2.29798">
        <ele>721.5</ele>
        <time>2017-06-01T08:12:49.000Z</time>
      </trkpt>
      <trkpt lat="43.47767" lon="2.29795">
        <ele>721.3</ele>
        <time>2017-06-01T08:12:50.000Z</time>
      </trkpt>
      <trkpt lat="43.47768" lon="2.29807">
        <ele>722.2</ele>
        <time>2017-06-01T08:12:51.000Z</time>
      </trkpt>
      <trkpt lat="43.47769" lon="2.29803">
        <ele>721.4</ele>
        <time>2017-06-01T08:12:52.000Z</time>
      </trkpt>
      <trkpt lat="43.47776" lon="2.29803">
        <ele>720.7</ele>
        <time>2017-06-01T08:12:56.000Z</time>
      </trkpt>
      <trkpt lat="43.47781" lon="2.29794">
        <ele>720</ele>
        <time>2017-06-01T08:12:57.000Z</time>
      </trkpt>
      <trkpt lat="43.47793" lon="2.29853">
        <ele>727.1</ele>
        <time>2017-06-01T08:13:09.000Z</time>
      </trkpt>
      <trkpt lat="43.47798" lon="2.29848">
        <ele>725.7</ele>
        <time>2017-06-01T08:13:10.000Z</time>
      </trkpt>
      <trkpt lat="43.47802" lon="2.29847">
        <ele>724.9</ele>
        <time>2017-06-01T08:13:11.000Z</time>
      </trkpt>
      <trkpt lat="43.47806" lon="2.29845">
        <ele>722.9</ele>
        <time>2017-06-01T08:13:12.000Z</time>
      </trkpt>
      <trkpt lat="43.4781" lon="2.29852">
        <ele>723.5</ele>
        <time>2017-06-01T08:13:14.000Z</time>
      </trkpt>
      <trkpt lat="43.47811" lon="2.29867">
        <ele>725.4</ele>
        <time>2017-06-01T08:13:15.000Z</time>
      </trkpt>
      <trkpt lat="43.47815" lon="2.29879">
        <ele>726.4</ele>
        <time>2017-06-01T08:13:16.000Z</time>
      </trkpt>
      <trkpt lat="43.47818" lon="2.2988">
        <ele>725.4</ele>
        <time>2017-06-01T08:13:17.000Z</time>
      </trkpt>
      <trkpt lat="43.47816" lon="2.2989">
        <ele>726.9</ele>
        <time>2017-06-01T08:13:19.000Z</time>
      </trkpt>
      <trkpt lat="43.47817" lon="2.29896">
        <ele>727.4</ele>
        <time>2017-06-01T08:13:20.000Z</time>
      </trkpt>
      <trkpt lat="43.47821" lon="2.29895">
        <ele>725.2</ele>
        <time>2017-06-01T08:13:22.000Z</time>
      </trkpt>
      <trkpt lat="43.47824" lon="2.29899">
        <ele>725.8</ele>
        <time>2017-06-01T08:13:23.000Z</time>
      </trkpt>
      <trkpt lat="43.47823" lon="2.29905">
        <ele>726.3</ele>
        <time>2017-06-01T08:13:25.000Z</time>
      </trkpt>
      <trkpt lat="43.47821" lon="2.29908">
        <ele>727.8</ele>
        <time>2017-06-01T08:13:26.000Z</time>
      </trkpt>
      <trkpt lat="43.47815" lon="2.29915">
        <ele>729</ele>
        <time>2017-06-01T08:13:27.000Z</time>
      </trkpt>
      <trkpt lat="43.47813" lon="2.29918">
        <ele>729.1</ele>
        <time>2017-06-01T08:13:28.000Z</time>
      </trkpt>
      <trkpt lat="43.47816" lon="2.29925">
        <ele>729.3</ele>
        <time>2017-06-01T08:13:32.000Z</time>
      </trkpt>
      <trkpt lat="43.47818" lon="2.29928">
        <ele>729.5</ele>
        <time>2017-06-01T08:13:33.000Z</time>
      </trkpt>
      <trkpt lat="43.47813" lon="2.29936">
        <ele>729.8</ele>
        <time>2017-06-01T08:13:35.000Z</time>
      </trkpt>
      <trkpt lat="43.47816" lon="2.29942">
        <ele>730</ele>
        <time>2017-06-01T08:13:36.000Z</time>
      </trkpt>
      <trkpt lat="43.47816" lon="2.29949">
        <ele>730.2</ele>
        <time>2017-06-01T08:13:38.000Z</time>
      </trkpt>
      <trkpt lat="43.47813" lon="2.29951">
        <ele>730.4</ele>
        <time>2017-06-01T08:13:39.000Z</time>
      </trkpt>
      <trkpt lat="43.47812" lon="2.29955">
        <ele>730.5</ele>
        <time>2017-06-01T08:13:40.000Z</time>
      </trkpt>
      <trkpt lat="43.47814" lon="2.29958">
        <ele>730.6</ele>
        <time>2017-06-01T08:13:41.000Z</time>
      </trkpt>
      <trkpt lat="43.47814" lon="2.29962">
        <ele>730.7</ele>
        <time>2017-06-01T08:13:42.000Z</time>
      </trkpt>
      <trkpt lat="43.47813" lon="2.29968">
        <ele>730.9</ele>
        <time>2017-06-01T08:13:45.000Z</time>
      </trkpt>
      <trkpt lat="43.4781" lon="2.29971">
        <ele>731</ele>
        <time>2017-06-01T08:13:46.000Z</time>
      </trkpt>
      <trkpt lat="43.47809" lon="2.29977">
        <ele>731.1</ele>
        <time>2017-06-01T08:13:48.000Z</time>
      </trkpt>
      <trkpt lat="43.47808" lon="2.29981">
        <ele>731.2</ele>
        <time>2017-06-01T08:13:49.000Z</time>
      </trkpt>
      <trkpt lat="43.47805" lon="2.29982">
        <ele>731.3</ele>
        <time>2017-06-01T08:13:50.000Z</time>
      </trkpt>
      <trkpt lat="43.47804" lon="2.29987">
        <ele>731.4</ele>
        <time>2017-06-01T08:13:52.000Z</time>
      </trkpt>
      <trkpt lat="43.47803" lon="2.29991">
        <ele>731.5</ele>
        <time>2017-06-01T08:13:54.000Z</time>
      </trkpt>
      <trkpt lat="43.47802" lon="2.29995">
        <ele>731.7</ele>
        <time>2017-06-01T08:13:55.000Z</time>
      </trkpt>
      <trkpt lat="43.47801" lon="2.30001">
        <ele>731.8</ele>
        <time>2017-06-01T08:13:57.000Z</time>
      </trkpt>
      <trkpt lat="43.47801" lon="2.30007">
        <ele>731.9</ele>
        <time>2017-06-01T08:13:59.000Z</time>
      </trkpt>
      <trkpt lat="43.47798" lon="2.30013">
        <ele>732.1</ele>
        <time>2017-06-01T08:14:01.000Z</time>
      </trkpt>
      <trkpt lat="43.47794" lon="2.30017">
        <ele>732.3</ele>
        <time>2017-06-01T08:14:02.000Z</time>
      </trkpt>
      <trkpt lat="43.47788" lon="2.3002">
        <ele>732.5</ele>
        <time>2017-06-01T08:14:03.000Z</time>
      </trkpt>
      <trkpt lat="43.47784" lon="2.30022">
        <ele>732.7</ele>
        <time>2017-06-01T08:14:04.000Z</time>
      </trkpt>
      <trkpt lat="43.47782" lon="2.30027">
        <ele>732.8</ele>
        <time>2017-06-01T08:14:06.000Z</time>
      </trkpt>
      <trkpt lat="43.47776" lon="2.30031">
        <ele>733.1</ele>
        <time>2017-06-01T08:14:08.000Z</time>
      </trkpt>
      <trkpt lat="43.47781" lon="2.30035">
        <ele>733.3</ele>
        <time>2017-06-01T08:14:09.000Z</time>
      </trkpt>
      <trkpt lat="43.47781" lon="2.30039">
        <ele>733.3</ele>
        <time>2017-06-01T08:14:10.000Z</time>
      </trkpt>
      <trkpt lat="43.47778" lon="2.30041">
        <ele>733.5</ele>
        <time>2017-06-01T08:14:11.000Z</time>
      </trkpt>
      <trkpt lat="43.47776" lon="2.30044">
        <ele>733.6</ele>
        <time>2017-06-01T08:14:12.000Z</time>
      </trkpt>
      <trkpt lat="43.47772" lon="2.30052">
        <ele>733.9</ele>
        <time>2017-06-01T08:14:15.000Z</time>
      </trkpt>
      <trkpt lat="43.47771" lon="2.30056">
        <ele>734</ele>
        <time>2017-06-01T08:14:18.000Z</time>
      </trkpt>
      <trkpt lat="43.47769" lon="2.3006">
        <ele>734.2</ele>
        <time>2017-06-01T08:14:26.000Z</time>
      </trkpt>
      <trkpt lat="43.47767" lon="2.30064">
        <ele>734.3</ele>
        <time>2017-06-01T08:14:27.000Z</time>
      </trkpt>
      <trkpt lat="43.4776" lon="2.30065">
        <ele>734.7</ele>
        <time>2017-06-01T08:14:28.000Z</time>
      </trkpt>
      <trkpt lat="43.47743" lon="2.30064">
        <ele>735.6</ele>
        <time>2017-06-01T08:14:29.000Z</time>
      </trkpt>
      <trkpt lat="43.47736" lon="2.30066">
        <ele>735.9</ele>
        <time>2017-06-01T08:14:32.000Z</time>
      </trkpt>
      <trkpt lat="43.4773" lon="2.30064">
        <ele>736.2</ele>
        <time>2017-06-01T08:14:35.000Z</time>
      </trkpt>
      <trkpt lat="43.47724" lon="2.30063">
        <ele>736.4</ele>
        <time>2017-06-01T08:14:40.000Z</time>
      </trkpt>
      <trkpt lat="43.47718" lon="2.30064">
        <ele>736.7</ele>
        <time>2017-06-01T08:14:42.000Z</time>
      </trkpt>
      <trkpt lat="43.47715" lon="2.30064">
        <ele>736.8</ele>
        <time>2017-06-01T08:14:44.000Z</time>
      </trkpt>
      <trkpt lat="43.4771" lon="2.30066">
        <ele>737</ele>
        <time>2017-06-01T08:14:47.000Z</time>
      </trkpt>
      <trkpt lat="43.47707" lon="2.30067">
        <ele>737.1</ele>
        <time>2017-06-01T08:14:49.000Z</time>
      </trkpt>
      <trkpt lat="43.47703" lon="2.30067">
        <ele>737.2</ele>
        <time>2017-06-01T08:14:51.000Z</time>
      </trkpt>
      <trkpt lat="43.47698" lon="2.30065">
        <ele>737.4</ele>
        <time>2017-06-01T08:14:54.000Z</time>
      </trkpt>
      <trkpt lat="43.47694" lon="2.30064">
        <ele>737.6</ele>
        <time>2017-06-01T08:14:57.000Z</time>
      </trkpt>
      <trkpt lat="43.47689" lon="2.30067">
        <ele>737.9</ele>
        <time>2017-06-01T08:15:00.000Z</time>
      </trkpt>
      <trkpt lat="43.47683" lon="2.3007">
        <ele>738.1</ele>
        <time>2017-06-01T08:15:02.000Z</time>
      </trkpt>
      <trkpt lat="43.4768" lon="2.30069">
        <ele>738.2</ele>
        <time>2017-06-01T08:15:03.000Z</time>
      </trkpt>
      <trkpt lat="43.47674" lon="2.30072">
        <ele>738.5</ele>
        <time>2017-06-01T08:15:06.000Z</time>
      </trkpt>
      <trkpt lat="43.4767" lon="2.30074">
        <ele>738.7</ele>
        <time>2017-06-01T08:15:08.000Z</time>
      </trkpt>
      <trkpt lat="43.47665" lon="2.30074">
        <ele>738.9</ele>
        <time>2017-06-01T08:15:13.000Z</time>
      </trkpt>
      <trkpt lat="43.47661" lon="2.30074">
        <ele>739.1</ele>
        <time>2017-06-01T08:15:15.000Z</time>
      </trkpt>
      <trkpt lat="43.47657" lon="2.30076">
        <ele>739.3</ele>
        <time>2017-06-01T08:15:16.000Z</time>
      </trkpt>
      <trkpt lat="43.47654" lon="2.30074">
        <ele>739.5</ele>
        <time>2017-06-01T08:15:18.000Z</time>
      </trkpt>
      <trkpt lat="43.4765" lon="2.30074">
        <ele>739.7</ele>
        <time>2017-06-01T08:15:19.000Z</time>
      </trkpt>
      <trkpt lat="43.47647" lon="2.30072">
        <ele>739.8</ele>
        <time>2017-06-01T08:15:21.000Z</time>
      </trkpt>
      <trkpt lat="43.4764" lon="2.30072">
        <ele>740.1</ele>
        <time>2017-06-01T08:15:24.000Z</time>
      </trkpt>
      <trkpt lat="43.47635" lon="2.30069">
        <ele>740.4</ele>
        <time>2017-06-01T08:15:26.000Z</time>
      </trkpt>
      <trkpt lat="43.4763" lon="2.30071">
        <ele>740.6</ele>
        <time>2017-06-01T08:15:29.000Z</time>
      </trkpt>
      <trkpt lat="43.47626" lon="2.30071">
        <ele>740.8</ele>
        <time>2017-06-01T08:15:30.000Z</time>
      </trkpt>
      <trkpt lat="43.47622" lon="2.30069">
        <ele>741</ele>
        <time>2017-06-01T08:15:32.000Z</time>
      </trkpt>
      <trkpt lat="43.47619" lon="2.30073">
        <ele>741.2</ele>
        <time>2017-06-01T08:15:34.000Z</time>
      </trkpt>
      <trkpt lat="43.47613" lon="2.30076">
        <ele>741.5</ele>
        <time>2017-06-01T08:15:36.000Z</time>
      </trkpt>
      <trkpt lat="43.47608" lon="2.30076">
        <ele>741.7</ele>
        <time>2017-06-01T08:15:37.000Z</time>
      </trkpt>
      <trkpt lat="43.47606" lon="2.30078">
        <ele>741.8</ele>
        <time>2017-06-01T08:15:38.000Z</time>
      </trkpt>
      <trkpt lat="43.476" lon="2.3008">
        <ele>742</ele>
        <time>2017-06-01T08:15:41.000Z</time>
      </trkpt>
      <trkpt lat="43.47597" lon="2.30081">
        <ele>742.2</ele>
        <time>2017-06-01T08:15:42.000Z</time>
      </trkpt>
      <trkpt lat="43.47593" lon="2.30084">
        <ele>742.4</ele>
        <time>2017-06-01T08:15:43.000Z</time>
      </trkpt>
      <trkpt lat="43.47588" lon="2.30087">
        <ele>742.7</ele>
        <time>2017-06-01T08:15:45.000Z</time>
      </trkpt>
      <trkpt lat="43.47586" lon="2.30088">
        <ele>742.8</ele>
        <time>2017-06-01T08:15:46.000Z</time>
      </trkpt>
      <trkpt lat="43.47581" lon="2.30093">
        <ele>743.1</ele>
        <time>2017-06-01T08:15:48.000Z</time>
      </trkpt>
      <trkpt lat="43.47579" lon="2.30095">
        <ele>743.3</ele>
        <time>2017-06-01T08:15:50.000Z</time>
      </trkpt>
      <trkpt lat="43.47576" lon="2.30094">
        <ele>743.5</ele>
        <time>2017-06-01T08:15:52.000Z</time>
      </trkpt>
      <trkpt lat="43.47571" lon="2.30096">
        <ele>743.8</ele>
        <time>2017-06-01T08:15:54.000Z</time>
      </trkpt>
      <trkpt lat="43.47568" lon="2.30094">
        <ele>744</ele>
        <time>2017-06-01T08:15:55.000Z</time>
      </trkpt>
      <trkpt lat="43.47565" lon="2.30093">
        <ele>744.1</ele>
        <time>2017-06-01T08:15:57.000Z</time>
      </trkpt>
      <trkpt lat="43.47561" lon="2.30096">
        <ele>744.2</ele>
        <time>2017-06-01T08:16:02.000Z</time>
      </trkpt>
      <trkpt lat="43.47563" lon="2.30092">
        <ele>745.3</ele>
        <time>2017-06-01T08:16:03.000Z</time>
      </trkpt>
      <trkpt lat="43.47561" lon="2.30097">
        <ele>745.4</ele>
        <time>2017-06-01T08:16:04.000Z</time>
      </trkpt>
      <trkpt lat="43.47556" lon="2.301">
        <ele>745.7</ele>
        <time>2017-06-01T08:16:06.000Z</time>
      </trkpt>
      <trkpt lat="43.47552" lon="2.30109">
        <ele>744.8</ele>
        <time>2017-06-01T08:16:08.000Z</time>
      </trkpt>
      <trkpt lat="43.47554" lon="2.30111">
        <ele>745.3</ele>
        <time>2017-06-01T08:16:09.000Z</time>
      </trkpt>
      <trkpt lat="43.47534" lon="2.30112">
        <ele>744.2</ele>
        <time>2017-06-01T08:16:17.000Z</time>
      </trkpt>
      <trkpt lat="43.4751" lon="2.30102">
        <ele>747.9</ele>
        <time>2017-06-01T08:16:19.000Z</time>
      </trkpt>
      <trkpt lat="43.47502" lon="2.30098">
        <ele>748.2</ele>
        <time>2017-06-01T08:16:20.000Z</time>
      </trkpt>
      <trkpt lat="43.47495" lon="2.30097">
        <ele>748.4</ele>
        <time>2017-06-01T08:16:22.000Z</time>
      </trkpt>
      <trkpt lat="43.47491" lon="2.30093">
        <ele>748.6</ele>
        <time>2017-06-01T08:16:24.000Z</time>
      </trkpt>
      <trkpt lat="43.47486" lon="2.30083">
        <ele>748.9</ele>
        <time>2017-06-01T08:16:37.000Z</time>
      </trkpt>
      <trkpt lat="43.47488" lon="2.30088">
        <ele>749.1</ele>
        <time>2017-06-01T08:16:38.000Z</time>
      </trkpt>
      <trkpt lat="43.47485" lon="2.30086">
        <ele>749.2</ele>
        <time>2017-06-01T08:16:39.000Z</time>
      </trkpt>
      <trkpt lat="43.4747" lon="2.30081">
        <ele>749.9</ele>
        <time>2017-06-01T08:16:43.000Z</time>
      </trkpt>
      <trkpt lat="43.47471" lon="2.30069">
        <ele>750.2</ele>
        <time>2017-06-01T08:16:45.000Z</time>
      </trkpt>
      <trkpt lat="43.4747" lon="2.30061">
        <ele>750.5</ele>
        <time>2017-06-01T08:16:46.000Z</time>
      </trkpt>
      <trkpt lat="43.47465" lon="2.30057">
        <ele>750.7</ele>
        <time>2017-06-01T08:16:47.000Z</time>
      </trkpt>
      <trkpt lat="43.47462" lon="2.30056">
        <ele>750.8</ele>
        <time>2017-06-01T08:16:48.000Z</time>
      </trkpt>
      <trkpt lat="43.47456" lon="2.30056">
        <ele>751</ele>
        <time>2017-06-01T08:16:49.000Z</time>
      </trkpt>
      <trkpt lat="43.47459" lon="2.3005">
        <ele>751.2</ele>
        <time>2017-06-01T08:16:50.000Z</time>
      </trkpt>
      <trkpt lat="43.4746" lon="2.30046">
        <ele>751.3</ele>
        <time>2017-06-01T08:16:51.000Z</time>
      </trkpt>
      <trkpt lat="43.47449" lon="2.30046">
        <ele>751.7</ele>
        <time>2017-06-01T08:16:52.000Z</time>
      </trkpt>
      <trkpt lat="43.47446" lon="2.30044">
        <ele>751.8</ele>
        <time>2017-06-01T08:16:53.000Z</time>
      </trkpt>
      <trkpt lat="43.47443" lon="2.30041">
        <ele>752</ele>
        <time>2017-06-01T08:16:54.000Z</time>
      </trkpt>
      <trkpt lat="43.4744" lon="2.30044">
        <ele>752.1</ele>
        <time>2017-06-01T08:16:55.000Z</time>
      </trkpt>
      <trkpt lat="43.47438" lon="2.30041">
        <ele>752.2</ele>
        <time>2017-06-01T08:16:56.000Z</time>
      </trkpt>
      <trkpt lat="43.47432" lon="2.30042">
        <ele>752.4</ele>
        <time>2017-06-01T08:16:57.000Z</time>
      </trkpt>
      <trkpt lat="43.47428" lon="2.30033">
        <ele>752.6</ele>
        <time>2017-06-01T08:16:59.000Z</time>
      </trkpt>
      <trkpt lat="43.47426" lon="2.30028">
        <ele>752.8</ele>
        <time>2017-06-01T08:17:01.000Z</time>
      </trkpt>
      <trkpt lat="43.47417" lon="2.30023">
        <ele>753.1</ele>
        <time>2017-06-01T08:17:03.000Z</time>
      </trkpt>
      <trkpt lat="43.47414" lon="2.30022">
        <ele>753.2</ele>
        <time>2017-06-01T08:17:04.000Z</time>
      </trkpt>
      <trkpt lat="43.47417" lon="2.30018">
        <ele>753.4</ele>
        <time>2017-06-01T08:17:05.000Z</time>
      </trkpt>
      <trkpt lat="43.47412" lon="2.30016">
        <ele>753.6</ele>
        <time>2017-06-01T08:17:06.000Z</time>
      </trkpt>
      <trkpt lat="43.47408" lon="2.30013">
        <ele>753.8</ele>
        <time>2017-06-01T08:17:08.000Z</time>
      </trkpt>
      <trkpt lat="43.47408" lon="2.30005">
        <ele>754</ele>
        <time>2017-06-01T08:17:09.000Z</time>
      </trkpt>
      <trkpt lat="43.47404" lon="2.29999">
        <ele>754.2</ele>
        <time>2017-06-01T08:17:12.000Z</time>
      </trkpt>
      <trkpt lat="43.474" lon="2.29993">
        <ele>754.4</ele>
        <time>2017-06-01T08:17:13.000Z</time>
      </trkpt>
      <trkpt lat="43.47399" lon="2.29988">
        <ele>754.5</ele>
        <time>2017-06-01T08:17:16.000Z</time>
      </trkpt>
      <trkpt lat="43.47396" lon="2.29987">
        <ele>754.5</ele>
        <time>2017-06-01T08:17:17.000Z</time>
      </trkpt>
      <trkpt lat="43.47393" lon="2.29981">
        <ele>754.6</ele>
        <time>2017-06-01T08:17:18.000Z</time>
      </trkpt>
      <trkpt lat="43.4739" lon="2.29985">
        <ele>754.7</ele>
        <time>2017-06-01T08:17:19.000Z</time>
      </trkpt>
      <trkpt lat="43.4739" lon="2.29977">
        <ele>754.8</ele>
        <time>2017-06-01T08:17:21.000Z</time>
      </trkpt>
      <trkpt lat="43.47391" lon="2.29973">
        <ele>754.8</ele>
        <time>2017-06-01T08:17:22.000Z</time>
      </trkpt>
      <trkpt lat="43.47389" lon="2.29968">
        <ele>754.9</ele>
        <time>2017-06-01T08:17:24.000Z</time>
      </trkpt>
      <trkpt lat="43.47386" lon="2.29964">
        <ele>754.9</ele>
        <time>2017-06-01T08:17:26.000Z</time>
      </trkpt>
      <trkpt lat="43.47383" lon="2.29963">
        <ele>754.9</ele>
        <time>2017-06-01T08:17:28.000Z</time>
      </trkpt>
      <trkpt lat="43.47383" lon="2.29958">
        <ele>755</ele>
        <time>2017-06-01T08:17:29.000Z</time>
      </trkpt>
      <trkpt lat="43.47379" lon="2.29959">
        <ele>755</ele>
        <time>2017-06-01T08:17:30.000Z</time>
      </trkpt>
      <trkpt lat="43.47378" lon="2.29955">
        <ele>755</ele>
        <time>2017-06-01T08:17:31.000Z</time>
      </trkpt>
      <trkpt lat="43.47375" lon="2.29953">
        <ele>755</ele>
        <time>2017-06-01T08:17:34.000Z</time>
      </trkpt>
      <trkpt lat="43.47374" lon="2.29946">
        <ele>754.7</ele>
        <time>2017-06-01T08:17:36.000Z</time>
      </trkpt>
      <trkpt lat="43.47372" lon="2.29942">
        <ele>754.7</ele>
        <time>2017-06-01T08:17:38.000Z</time>
      </trkpt>
      <trkpt lat="43.4737" lon="2.29936">
        <ele>754.7</ele>
        <time>2017-06-01T08:17:41.000Z</time>
      </trkpt>
      <trkpt lat="43.47369" lon="2.29913">
        <ele>755.3</ele>
        <time>2017-06-01T08:17:46.000Z</time>
      </trkpt>
      <trkpt lat="43.47365" lon="2.29912">
        <ele>755.6</ele>
        <time>2017-06-01T08:17:47.000Z</time>
      </trkpt>
      <trkpt lat="43.47364" lon="2.29908">
        <ele>755.8</ele>
        <time>2017-06-01T08:17:50.000Z</time>
      </trkpt>
      <trkpt lat="43.47365" lon="2.29902">
        <ele>756.1</ele>
        <time>2017-06-01T08:17:56.000Z</time>
      </trkpt>
      <trkpt lat="43.47353" lon="2.29897">
        <ele>756.7</ele>
        <time>2017-06-01T08:17:59.000Z</time>
      </trkpt>
      <trkpt lat="43.47348" lon="2.29891">
        <ele>757.1</ele>
        <time>2017-06-01T08:18:02.000Z</time>
      </trkpt>
      <trkpt lat="43.47344" lon="2.29891">
        <ele>757.3</ele>
        <time>2017-06-01T08:18:03.000Z</time>
      </trkpt>
      <trkpt lat="43.47337" lon="2.29892">
        <ele>757.9</ele>
        <time>2017-06-01T08:18:05.000Z</time>
      </trkpt>
      <trkpt lat="43.47334" lon="2.29891">
        <ele>758.2</ele>
        <time>2017-06-01T08:18:06.000Z</time>
      </trkpt>
      <trkpt lat="43.47337" lon="2.29887">
        <ele>758.6</ele>
        <time>2017-06-01T08:18:07.000Z</time>
      </trkpt>
      <trkpt lat="43.47333" lon="2.29887">
        <ele>759</ele>
        <time>2017-06-01T08:18:11.000Z</time>
      </trkpt>
      <trkpt lat="43.47328" lon="2.29887">
        <ele>759.4</ele>
        <time>2017-06-01T08:18:13.000Z</time>
      </trkpt>
      <trkpt lat="43.47331" lon="2.29884">
        <ele>759.8</ele>
        <time>2017-06-01T08:18:14.000Z</time>
      </trkpt>
      <trkpt lat="43.47329" lon="2.29888">
        <ele>760.1</ele>
        <time>2017-06-01T08:18:15.000Z</time>
      </trkpt>
      <trkpt lat="43.47331" lon="2.29875">
        <ele>761.3</ele>
        <time>2017-06-01T08:18:18.000Z</time>
      </trkpt>
      <trkpt lat="43.47329" lon="2.29868">
        <ele>762</ele>
        <time>2017-06-01T08:18:20.000Z</time>
      </trkpt>
      <trkpt lat="43.47327" lon="2.29867">
        <ele>762.3</ele>
        <time>2017-06-01T08:18:21.000Z</time>
      </trkpt>
      <trkpt lat="43.47323" lon="2.29862">
        <ele>762.7</ele>
        <time>2017-06-01T08:18:25.000Z</time>
      </trkpt>
      <trkpt lat="43.4732" lon="2.29865">
        <ele>762.9</ele>
        <time>2017-06-01T08:18:26.000Z</time>
      </trkpt>
      <trkpt lat="43.47316" lon="2.29869">
        <ele>763.2</ele>
        <time>2017-06-01T08:18:27.000Z</time>
      </trkpt>
      <trkpt lat="43.47313" lon="2.29872">
        <ele>763.6</ele>
        <time>2017-06-01T08:18:30.000Z</time>
      </trkpt>
      <trkpt lat="43.47307" lon="2.2987">
        <ele>764</ele>
        <time>2017-06-01T08:18:32.000Z</time>
      </trkpt>
      <trkpt lat="43.47304" lon="2.29869">
        <ele>764.2</ele>
        <time>2017-06-01T08:18:33.000Z</time>
      </trkpt>
      <trkpt lat="43.47301" lon="2.29871">
        <ele>764.5</ele>
        <time>2017-06-01T08:18:35.000Z</time>
      </trkpt>
      <trkpt lat="43.47298" lon="2.29877">
        <ele>764.9</ele>
        <time>2017-06-01T08:18:37.000Z</time>
      </trkpt>
      <trkpt lat="43.47297" lon="2.29872">
        <ele>765.2</ele>
        <time>2017-06-01T08:18:39.000Z</time>
      </trkpt>
      <trkpt lat="43.47294" lon="2.29874">
        <ele>765.5</ele>
        <time>2017-06-01T08:18:41.000Z</time>
      </trkpt>
      <trkpt lat="43.47291" lon="2.29878">
        <ele>765.8</ele>
        <time>2017-06-01T08:18:46.000Z</time>
      </trkpt>
      <trkpt lat="43.47289" lon="2.29881">
        <ele>766.1</ele>
        <time>2017-06-01T08:18:47.000Z</time>
      </trkpt>
      <trkpt lat="43.47284" lon="2.29882">
        <ele>766.5</ele>
        <time>2017-06-01T08:18:49.000Z</time>
      </trkpt>
      <trkpt lat="43.47281" lon="2.29884">
        <ele>766.9</ele>
        <time>2017-06-01T08:18:50.000Z</time>
      </trkpt>
      <trkpt lat="43.47278" lon="2.29887">
        <ele>767.3</ele>
        <time>2017-06-01T08:18:51.000Z</time>
      </trkpt>
      <trkpt lat="43.47275" lon="2.29888">
        <ele>767.7</ele>
        <time>2017-06-01T08:18:53.000Z</time>
      </trkpt>
      <trkpt lat="43.47272" lon="2.29889">
        <ele>768</ele>
        <time>2017-06-01T08:18:54.000Z</time>
      </trkpt>
      <trkpt lat="43.47267" lon="2.29887">
        <ele>768.7</ele>
        <time>2017-06-01T08:18:56.000Z</time>
      </trkpt>
      <trkpt lat="43.47264" lon="2.2989">
        <ele>769.1</ele>
        <time>2017-06-01T08:18:58.000Z</time>
      </trkpt>
      <trkpt lat="43.4726" lon="2.29891">
        <ele>769.8</ele>
        <time>2017-06-01T08:19:01.000Z</time>
      </trkpt>
      <trkpt lat="43.47256" lon="2.29891">
        <ele>770.4</ele>
        <time>2017-06-01T08:19:05.000Z</time>
      </trkpt>
      <trkpt lat="43.47253" lon="2.29896">
        <ele>771</ele>
        <time>2017-06-01T08:19:06.000Z</time>
      </trkpt>
      <trkpt lat="43.4725" lon="2.29894">
        <ele>771.4</ele>
        <time>2017-06-01T08:19:07.000Z</time>
      </trkpt>
      <trkpt lat="43.47244" lon="2.29896">
        <ele>772.1</ele>
        <time>2017-06-01T08:19:11.000Z</time>
      </trkpt>
      <trkpt lat="43.47241" lon="2.29897">
        <ele>772.4</ele>
        <time>2017-06-01T08:19:13.000Z</time>
      </trkpt>
      <trkpt lat="43.47239" lon="2.29898">
        <ele>772.6</ele>
        <time>2017-06-01T08:19:14.000Z</time>
      </trkpt>
      <trkpt lat="43.47237" lon="2.29894">
        <ele>772.8</ele>
        <time>2017-06-01T08:19:15.000Z</time>
      </trkpt>
      <trkpt lat="43.47236" lon="2.29899">
        <ele>773</ele>
        <time>2017-06-01T08:19:16.000Z</time>
      </trkpt>
      <trkpt lat="43.47231" lon="2.29896">
        <ele>773.4</ele>
        <time>2017-06-01T08:19:18.000Z</time>
      </trkpt>
      <trkpt lat="43.47237" lon="2.29894">
        <ele>773.7</ele>
        <time>2017-06-01T08:19:19.000Z</time>
      </trkpt>
      <trkpt lat="43.47229" lon="2.29892">
        <ele>774.1</ele>
        <time>2017-06-01T08:19:20.000Z</time>
      </trkpt>
      <trkpt lat="43.47226" lon="2.29892">
        <ele>774.2</ele>
        <time>2017-06-01T08:19:22.000Z</time>
      </trkpt>
      <trkpt lat="43.47221" lon="2.29894">
        <ele>774.5</ele>
        <time>2017-06-01T08:19:23.000Z</time>
      </trkpt>
      <trkpt lat="43.47216" lon="2.299">
        <ele>774.8</ele>
        <time>2017-06-01T08:19:25.000Z</time>
      </trkpt>
      <trkpt lat="43.47214" lon="2.29905">
        <ele>775</ele>
        <time>2017-06-01T08:19:26.000Z</time>
      </trkpt>
      <trkpt lat="43.4721" lon="2.29908">
        <ele>775.3</ele>
        <time>2017-06-01T08:19:28.000Z</time>
      </trkpt>
      <trkpt lat="43.4721" lon="2.29903">
        <ele>775.5</ele>
        <time>2017-06-01T08:19:29.000Z</time>
      </trkpt>
      <trkpt lat="43.47202" lon="2.29902">
        <ele>776</ele>
        <time>2017-06-01T08:19:31.000Z</time>
      </trkpt>
      <trkpt lat="43.47202" lon="2.29908">
        <ele>776.2</ele>
        <time>2017-06-01T08:19:33.000Z</time>
      </trkpt>
      <trkpt lat="43.47199" lon="2.2991">
        <ele>776.5</ele>
        <time>2017-06-01T08:19:35.000Z</time>
      </trkpt>
      <trkpt lat="43.47195" lon="2.29912">
        <ele>776.8</ele>
        <time>2017-06-01T08:19:37.000Z</time>
      </trkpt>
      <trkpt lat="43.47192" lon="2.29912">
        <ele>777.1</ele>
        <time>2017-06-01T08:19:39.000Z</time>
      </trkpt>
      <trkpt lat="43.47189" lon="2.29913">
        <ele>777.3</ele>
        <time>2017-06-01T08:19:41.000Z</time>
      </trkpt>
      <trkpt lat="43.47184" lon="2.29914">
        <ele>777.7</ele>
        <time>2017-06-01T08:19:42.000Z</time>
      </trkpt>
      <trkpt lat="43.47181" lon="2.29915">
        <ele>777.9</ele>
        <time>2017-06-01T08:19:43.000Z</time>
      </trkpt>
      <trkpt lat="43.47176" lon="2.29913">
        <ele>778.2</ele>
        <time>2017-06-01T08:19:46.000Z</time>
      </trkpt>
      <trkpt lat="43.47173" lon="2.29914">
        <ele>778.4</ele>
        <time>2017-06-01T08:19:48.000Z</time>
      </trkpt>
      <trkpt lat="43.47169" lon="2.29915">
        <ele>778.5</ele>
        <time>2017-06-01T08:19:50.000Z</time>
      </trkpt>
      <trkpt lat="43.47166" lon="2.29914">
        <ele>778.8</ele>
        <time>2017-06-01T08:19:52.000Z</time>
      </trkpt>
      <trkpt lat="43.47161" lon="2.29915">
        <ele>779.1</ele>
        <time>2017-06-01T08:19:53.000Z</time>
      </trkpt>
      <trkpt lat="43.47158" lon="2.29913">
        <ele>779.6</ele>
        <time>2017-06-01T08:19:55.000Z</time>
      </trkpt>
      <trkpt lat="43.47155" lon="2.2991">
        <ele>780</ele>
        <time>2017-06-01T08:19:57.000Z</time>
      </trkpt>
      <trkpt lat="43.47151" lon="2.29909">
        <ele>780.4</ele>
        <time>2017-06-01T08:19:58.000Z</time>
      </trkpt>
      <trkpt lat="43.47148" lon="2.29909">
        <ele>780.7</ele>
        <time>2017-06-01T08:19:59.000Z</time>
      </trkpt>
      <trkpt lat="43.47145" lon="2.2991">
        <ele>780.9</ele>
        <time>2017-06-01T08:20:00.000Z</time>
      </trkpt>
      <trkpt lat="43.47139" lon="2.29907">
        <ele>781.4</ele>
        <time>2017-06-01T08:20:02.000Z</time>
      </trkpt>
      <trkpt lat="43.47134" lon="2.29906">
        <ele>781.7</ele>
        <time>2017-06-01T08:20:04.000Z</time>
      </trkpt>
      <trkpt lat="43.47131" lon="2.29905">
        <ele>781.9</ele>
        <time>2017-06-01T08:20:06.000Z</time>
      </trkpt>
      <trkpt lat="43.47127" lon="2.29902">
        <ele>782.2</ele>
        <time>2017-06-01T08:20:08.000Z</time>
      </trkpt>
      <trkpt lat="43.47123" lon="2.29901">
        <ele>782.4</ele>
        <time>2017-06-01T08:20:09.000Z</time>
      </trkpt>
      <trkpt lat="43.47122" lon="2.29897">
        <ele>782.6</ele>
        <time>2017-06-01T08:20:11.000Z</time>
      </trkpt>
      <trkpt lat="43.47119" lon="2.29894">
        <ele>782.7</ele>
        <time>2017-06-01T08:20:13.000Z</time>
      </trkpt>
      <trkpt lat="43.47116" lon="2.29892">
        <ele>782.9</ele>
        <time>2017-06-01T08:20:14.000Z</time>
      </trkpt>
      <trkpt lat="43.47112" lon="2.2989">
        <ele>783.1</ele>
        <time>2017-06-01T08:20:17.000Z</time>
      </trkpt>
      <trkpt lat="43.47107" lon="2.29887">
        <ele>783.4</ele>
        <time>2017-06-01T08:20:19.000Z</time>
      </trkpt>
      <trkpt lat="43.47104" lon="2.29886">
        <ele>783.5</ele>
        <time>2017-06-01T08:20:20.000Z</time>
      </trkpt>
      <trkpt lat="43.47101" lon="2.29885">
        <ele>783.7</ele>
        <time>2017-06-01T08:20:25.000Z</time>
      </trkpt>
      <trkpt lat="43.47096" lon="2.29882">
        <ele>783.9</ele>
        <time>2017-06-01T08:20:28.000Z</time>
      </trkpt>
      <trkpt lat="43.47089" lon="2.29886">
        <ele>784.2</ele>
        <time>2017-06-01T08:20:30.000Z</time>
      </trkpt>
      <trkpt lat="43.47086" lon="2.29877">
        <ele>784.3</ele>
        <time>2017-06-01T08:20:31.000Z</time>
      </trkpt>
      <trkpt lat="43.47083" lon="2.29875">
        <ele>784.4</ele>
        <time>2017-06-01T08:20:32.000Z</time>
      </trkpt>
      <trkpt lat="43.4708" lon="2.29874">
        <ele>784.5</ele>
        <time>2017-06-01T08:20:33.000Z</time>
      </trkpt>
      <trkpt lat="43.47073" lon="2.29875">
        <ele>784.6</ele>
        <time>2017-06-01T08:20:34.000Z</time>
      </trkpt>
      <trkpt lat="43.47068" lon="2.29875">
        <ele>784.8</ele>
        <time>2017-06-01T08:20:35.000Z</time>
      </trkpt>
      <trkpt lat="43.47069" lon="2.29871">
        <ele>784.8</ele>
        <time>2017-06-01T08:20:37.000Z</time>
      </trkpt>
      <trkpt lat="43.47066" lon="2.29868">
        <ele>784.9</ele>
        <time>2017-06-01T08:20:41.000Z</time>
      </trkpt>
      <trkpt lat="43.47063" lon="2.29867">
        <ele>784.9</ele>
        <time>2017-06-01T08:20:42.000Z</time>
      </trkpt>
      <trkpt lat="43.47058" lon="2.29861">
        <ele>785.1</ele>
        <time>2017-06-01T08:20:44.000Z</time>
      </trkpt>
      <trkpt lat="43.47054" lon="2.29859">
        <ele>785.2</ele>
        <time>2017-06-01T08:20:47.000Z</time>
      </trkpt>
      <trkpt lat="43.4705" lon="2.2986">
        <ele>785.3</ele>
        <time>2017-06-01T08:20:48.000Z</time>
      </trkpt>
      <trkpt lat="43.47045" lon="2.29864">
        <ele>785.5</ele>
        <time>2017-06-01T08:20:49.000Z</time>
      </trkpt>
      <trkpt lat="43.47042" lon="2.29865">
        <ele>785.5</ele>
        <time>2017-06-01T08:20:50.000Z</time>
      </trkpt>
      <trkpt lat="43.47037" lon="2.29872">
        <ele>785.7</ele>
        <time>2017-06-01T08:20:51.000Z</time>
      </trkpt>
      <trkpt lat="43.47038" lon="2.29882">
        <ele>785.9</ele>
        <time>2017-06-01T08:20:52.000Z</time>
      </trkpt>
      <trkpt lat="43.47036" lon="2.29879">
        <ele>786</ele>
        <time>2017-06-01T08:20:53.000Z</time>
      </trkpt>
      <trkpt lat="43.46995" lon="2.29889">
        <ele>790.8</ele>
        <time>2017-06-01T08:21:06.000Z</time>
      </trkpt>
      <trkpt lat="43.46992" lon="2.29882">
        <ele>789.6</ele>
        <time>2017-06-01T08:21:07.000Z</time>
      </trkpt>
      <trkpt lat="43.46988" lon="2.29875">
        <ele>788.4</ele>
        <time>2017-06-01T08:21:09.000Z</time>
      </trkpt>
      <trkpt lat="43.46982" lon="2.29883">
        <ele>790.5</ele>
        <time>2017-06-01T08:21:10.000Z</time>
      </trkpt>
      <trkpt lat="43.4698" lon="2.29886">
        <ele>791</ele>
        <time>2017-06-01T08:21:12.000Z</time>
      </trkpt>
      <trkpt lat="43.46978" lon="2.29893">
        <ele>791.8</ele>
        <time>2017-06-01T08:21:14.000Z</time>
      </trkpt>
      <trkpt lat="43.46979" lon="2.29898">
        <ele>793.1</ele>
        <time>2017-06-01T08:21:15.000Z</time>
      </trkpt>
      <trkpt lat="43.46977" lon="2.29902">
        <ele>794</ele>
        <time>2017-06-01T08:21:17.000Z</time>
      </trkpt>
      <trkpt lat="43.46922" lon="2.29846">
        <ele>787.5</ele>
        <time>2017-06-01T08:21:30.000Z</time>
      </trkpt>
      <trkpt lat="43.4692" lon="2.29831">
        <ele>787.6</ele>
        <time>2017-06-01T08:21:31.000Z</time>
      </trkpt>
      <trkpt lat="43.46917" lon="2.29823">
        <ele>787.6</ele>
        <time>2017-06-01T08:21:32.000Z</time>
      </trkpt>
      <trkpt lat="43.46915" lon="2.29818">
        <ele>787.7</ele>
        <time>2017-06-01T08:21:33.000Z</time>
      </trkpt>
      <trkpt lat="43.4692" lon="2.2981">
        <ele>787.6</ele>
        <time>2017-06-01T08:21:34.000Z</time>
      </trkpt>
      <trkpt lat="43.46925" lon="2.298">
        <ele>787.5</ele>
        <time>2017-06-01T08:21:35.000Z</time>
      </trkpt>
      <trkpt lat="43.46929" lon="2.29792">
        <ele>787.4</ele>
        <time>2017-06-01T08:21:37.000Z</time>
      </trkpt>
      <trkpt lat="43.46926" lon="2.29791">
        <ele>787.4</ele>
        <time>2017-06-01T08:21:40.000Z</time>
      </trkpt>
      <trkpt lat="43.46928" lon="2.29785">
        <ele>787.5</ele>
        <time>2017-06-01T08:21:42.000Z</time>
      </trkpt>
      <trkpt lat="43.46929" lon="2.2978">
        <ele>787.6</ele>
        <time>2017-06-01T08:21:45.000Z</time>
      </trkpt>
      <trkpt lat="43.4693" lon="2.29776">
        <ele>787.8</ele>
        <time>2017-06-01T08:21:46.000Z</time>
      </trkpt>
      <trkpt lat="43.46932" lon="2.29772">
        <ele>788.2</ele>
        <time>2017-06-01T08:21:48.000Z</time>
      </trkpt>
      <trkpt lat="43.46934" lon="2.29769">
        <ele>788.4</ele>
        <time>2017-06-01T08:21:50.000Z</time>
      </trkpt>
      <trkpt lat="43.46935" lon="2.29763">
        <ele>788.8</ele>
        <time>2017-06-01T08:21:53.000Z</time>
      </trkpt>
      <trkpt lat="43.46936" lon="2.29758">
        <ele>789.2</ele>
        <time>2017-06-01T08:21:56.000Z</time>
      </trkpt>
      <trkpt lat="43.4693" lon="2.29754">
        <ele>789.9</ele>
        <time>2017-06-01T08:21:58.000Z</time>
      </trkpt>
      <trkpt lat="43.46934" lon="2.29755">
        <ele>790.3</ele>
        <time>2017-06-01T08:22:00.000Z</time>
      </trkpt>
      <trkpt lat="43.46937" lon="2.29755">
        <ele>790.7</ele>
        <time>2017-06-01T08:22:01.000Z</time>
      </trkpt>
      <trkpt lat="43.46937" lon="2.29748">
        <ele>791.2</ele>
        <time>2017-06-01T08:22:04.000Z</time>
      </trkpt>
      <trkpt lat="43.46937" lon="2.29744">
        <ele>791.4</ele>
        <time>2017-06-01T08:22:06.000Z</time>
      </trkpt>
      <trkpt lat="43.46937" lon="2.29741">
        <ele>791.6</ele>
        <time>2017-06-01T08:22:12.000Z</time>
      </trkpt>
      <trkpt lat="43.46937" lon="2.29738">
        <ele>791.8</ele>
        <time>2017-06-01T08:22:19.000Z</time>
      </trkpt>
      <trkpt lat="43.46937" lon="2.29735">
        <ele>792</ele>
        <time>2017-06-01T08:22:20.000Z</time>
      </trkpt>
      <trkpt lat="43.46932" lon="2.29751">
        <ele>792.4</ele>
        <time>2017-06-01T08:22:21.000Z</time>
      </trkpt>
      <trkpt lat="43.46927" lon="2.29747">
        <ele>792.7</ele>
        <time>2017-06-01T08:22:22.000Z</time>
      </trkpt>
      <trkpt lat="43.46922" lon="2.29747">
        <ele>793</ele>
        <time>2017-06-01T08:22:23.000Z</time>
      </trkpt>
      <trkpt lat="43.46919" lon="2.29752">
        <ele>793.3</ele>
        <time>2017-06-01T08:22:25.000Z</time>
      </trkpt>
      <trkpt lat="43.46915" lon="2.29751">
        <ele>793.7</ele>
        <time>2017-06-01T08:22:26.000Z</time>
      </trkpt>
      <trkpt lat="43.46912" lon="2.29755">
        <ele>793.9</ele>
        <time>2017-06-01T08:22:29.000Z</time>
      </trkpt>
      <trkpt lat="43.46906" lon="2.29757">
        <ele>794.3</ele>
        <time>2017-06-01T08:22:31.000Z</time>
      </trkpt>
      <trkpt lat="43.469" lon="2.29754">
        <ele>794.6</ele>
        <time>2017-06-01T08:22:33.000Z</time>
      </trkpt>
      <trkpt lat="43.46897" lon="2.29754">
        <ele>794.8</ele>
        <time>2017-06-01T08:22:35.000Z</time>
      </trkpt>
      <trkpt lat="43.46893" lon="2.29754">
        <ele>795.1</ele>
        <time>2017-06-01T08:22:37.000Z</time>
      </trkpt>
      <trkpt lat="43.4689" lon="2.29752">
        <ele>795.4</ele>
        <time>2017-06-01T08:22:39.000Z</time>
      </trkpt>
      <trkpt lat="43.46887" lon="2.29748">
        <ele>795.8</ele>
        <time>2017-06-01T08:22:40.000Z</time>
      </trkpt>
      <trkpt lat="43.46883" lon="2.29745">
        <ele>796.2</ele>
        <time>2017-06-01T08:22:42.000Z</time>
      </trkpt>
      <trkpt lat="43.4688" lon="2.29744">
        <ele>796.4</ele>
        <time>2017-06-01T08:22:45.000Z</time>
      </trkpt>
      <trkpt lat="43.46876" lon="2.29742">
        <ele>796.7</ele>
        <time>2017-06-01T08:22:48.000Z</time>
      </trkpt>
      <trkpt lat="43.46879" lon="2.29746">
        <ele>795.5</ele>
        <time>2017-06-01T08:22:49.000Z</time>
      </trkpt>
      <trkpt lat="43.46883" lon="2.29754">
        <ele>793.4</ele>
        <time>2017-06-01T08:22:50.000Z</time>
      </trkpt>
      <trkpt lat="43.46874" lon="2.2975">
        <ele>795.6</ele>
        <time>2017-06-01T08:22:52.000Z</time>
      </trkpt>
      <trkpt lat="43.46863" lon="2.29746">
        <ele>797.5</ele>
        <time>2017-06-01T08:22:53.000Z</time>
      </trkpt>
      <trkpt lat="43.46859" lon="2.29742">
        <ele>799</ele>
        <time>2017-06-01T08:22:54.000Z</time>
      </trkpt>
      <trkpt lat="43.46854" lon="2.29737">
        <ele>800.3</ele>
        <time>2017-06-01T08:22:55.000Z</time>
      </trkpt>
      <trkpt lat="43.46851" lon="2.29746">
        <ele>798.8</ele>
        <time>2017-06-01T08:22:56.000Z</time>
      </trkpt>
      <trkpt lat="43.46847" lon="2.29749">
        <ele>799.4</ele>
        <time>2017-06-01T08:22:57.000Z</time>
      </trkpt>
      <trkpt lat="43.46839" lon="2.29752">
        <ele>800.5</ele>
        <time>2017-06-01T08:23:00.000Z</time>
      </trkpt>
      <trkpt lat="43.46836" lon="2.29754">
        <ele>801.1</ele>
        <time>2017-06-01T08:23:03.000Z</time>
      </trkpt>
      <trkpt lat="43.46834" lon="2.29756">
        <ele>801.6</ele>
        <time>2017-06-01T08:23:05.000Z</time>
      </trkpt>
      <trkpt lat="43.46831" lon="2.29758">
        <ele>802</ele>
        <time>2017-06-01T08:23:06.000Z</time>
      </trkpt>
      <trkpt lat="43.46828" lon="2.29763">
        <ele>802.6</ele>
        <time>2017-06-01T08:23:07.000Z</time>
      </trkpt>
      <trkpt lat="43.46828" lon="2.29757">
        <ele>803.3</ele>
        <time>2017-06-01T08:23:08.000Z</time>
      </trkpt>
      <trkpt lat="43.46828" lon="2.29753">
        <ele>803.8</ele>
        <time>2017-06-01T08:23:10.000Z</time>
      </trkpt>
      <trkpt lat="43.46829" lon="2.29748">
        <ele>804.2</ele>
        <time>2017-06-01T08:23:12.000Z</time>
      </trkpt>
      <trkpt lat="43.46823" lon="2.29742">
        <ele>804.8</ele>
        <time>2017-06-01T08:23:15.000Z</time>
      </trkpt>
      <trkpt lat="43.4682" lon="2.29739">
        <ele>805</ele>
        <time>2017-06-01T08:23:16.000Z</time>
      </trkpt>
      <trkpt lat="43.46818" lon="2.29741">
        <ele>805.1</ele>
        <time>2017-06-01T08:23:17.000Z</time>
      </trkpt>
      <trkpt lat="43.46814" lon="2.29739">
        <ele>805.4</ele>
        <time>2017-06-01T08:23:20.000Z</time>
      </trkpt>
      <trkpt lat="43.46813" lon="2.29738">
        <ele>805.5</ele>
        <time>2017-06-01T08:23:24.000Z</time>
      </trkpt>
      <trkpt lat="43.46812" lon="2.29738">
        <ele>805.5</ele>
        <time>2017-06-01T08:23:25.000Z</time>
      </trkpt>
      <trkpt lat="43.46806" lon="2.29733">
        <ele>805.9</ele>
        <time>2017-06-01T08:23:26.000Z</time>
      </trkpt>
      <trkpt lat="43.46806" lon="2.29728">
        <ele>806.1</ele>
        <time>2017-06-01T08:23:28.000Z</time>
      </trkpt>
      <trkpt lat="43.46809" lon="2.29727">
        <ele>806.3</ele>
        <time>2017-06-01T08:23:29.000Z</time>
      </trkpt>
      <trkpt lat="43.46813" lon="2.29727">
        <ele>806.5</ele>
        <time>2017-06-01T08:23:33.000Z</time>
      </trkpt>
      <trkpt lat="43.46816" lon="2.29728">
        <ele>806.7</ele>
        <time>2017-06-01T08:23:34.000Z</time>
      </trkpt>
      <trkpt lat="43.46815" lon="2.29732">
        <ele>807</ele>
        <time>2017-06-01T08:23:36.000Z</time>
      </trkpt>
      <trkpt lat="43.46818" lon="2.29735">
        <ele>807.2</ele>
        <time>2017-06-01T08:23:38.000Z</time>
      </trkpt>
      <trkpt lat="43.46816" lon="2.29739">
        <ele>807.2</ele>
        <time>2017-06-01T08:23:40.000Z</time>
      </trkpt>
      <trkpt lat="43.4682" lon="2.29735">
        <ele>807.4</ele>
        <time>2017-06-01T08:23:44.000Z</time>
      </trkpt>
      <trkpt lat="43.46824" lon="2.29733">
        <ele>807.5</ele>
        <time>2017-06-01T08:23:45.000Z</time>
      </trkpt>
      <trkpt lat="43.46831" lon="2.29732">
        <ele>807.8</ele>
        <time>2017-06-01T08:23:47.000Z</time>
      </trkpt>
      <trkpt lat="43.46836" lon="2.29731">
        <ele>807.9</ele>
        <time>2017-06-01T08:23:48.000Z</time>
      </trkpt>
      <trkpt lat="43.46839" lon="2.29732">
        <ele>808.1</ele>
        <time>2017-06-01T08:23:51.000Z</time>
      </trkpt>
      <trkpt lat="43.46869" lon="2.29728">
        <ele>809.3</ele>
        <time>2017-06-01T08:24:00.000Z</time>
      </trkpt>
      <trkpt lat="43.46875" lon="2.2973">
        <ele>809.6</ele>
        <time>2017-06-01T08:24:01.000Z</time>
      </trkpt>
      <trkpt lat="43.46871" lon="2.29735">
        <ele>810</ele>
        <time>2017-06-01T08:24:03.000Z</time>
      </trkpt>
      <trkpt lat="43.46874" lon="2.29717">
        <ele>810.8</ele>
        <time>2017-06-01T08:24:04.000Z</time>
      </trkpt>
      <trkpt lat="43.46877" lon="2.29722">
        <ele>811</ele>
        <time>2017-06-01T08:24:05.000Z</time>
      </trkpt>
      <trkpt lat="43.46882" lon="2.29716">
        <ele>811.2</ele>
        <time>2017-06-01T08:24:06.000Z</time>
      </trkpt>
      <trkpt lat="43.46883" lon="2.29712">
        <ele>811.4</ele>
        <time>2017-06-01T08:24:07.000Z</time>
      </trkpt>
      <trkpt lat="43.46882" lon="2.297">
        <ele>811.7</ele>
        <time>2017-06-01T08:24:08.000Z</time>
      </trkpt>
      <trkpt lat="43.46884" lon="2.29697">
        <ele>811.8</ele>
        <time>2017-06-01T08:24:11.000Z</time>
      </trkpt>
      <trkpt lat="43.46885" lon="2.29692">
        <ele>811.9</ele>
        <time>2017-06-01T08:24:14.000Z</time>
      </trkpt>
      <trkpt lat="43.46886" lon="2.29698">
        <ele>812.1</ele>
        <time>2017-06-01T08:24:15.000Z</time>
      </trkpt>
      <trkpt lat="43.46889" lon="2.29695">
        <ele>812.2</ele>
        <time>2017-06-01T08:24:16.000Z</time>
      </trkpt>
      <trkpt lat="43.46895" lon="2.29698">
        <ele>812.5</ele>
        <time>2017-06-01T08:24:17.000Z</time>
      </trkpt>
      <trkpt lat="43.4689" lon="2.29689">
        <ele>812.9</ele>
        <time>2017-06-01T08:24:18.000Z</time>
      </trkpt>
      <trkpt lat="43.46894" lon="2.29692">
        <ele>813</ele>
        <time>2017-06-01T08:24:19.000Z</time>
      </trkpt>
      <trkpt lat="43.46897" lon="2.29693">
        <ele>813.2</ele>
        <time>2017-06-01T08:24:21.000Z</time>
      </trkpt>
      <trkpt lat="43.46901" lon="2.29693">
        <ele>813.4</ele>
        <time>2017-06-01T08:24:22.000Z</time>
      </trkpt>
      <trkpt lat="43.46911" lon="2.29697">
        <ele>814</ele>
        <time>2017-06-01T08:24:24.000Z</time>
      </trkpt>
      <trkpt lat="43.46908" lon="2.29696">
        <ele>814.2</ele>
        <time>2017-06-01T08:24:25.000Z</time>
      </trkpt>
      <trkpt lat="43.46909" lon="2.29686">
        <ele>814.6</ele>
        <time>2017-06-01T08:24:27.000Z</time>
      </trkpt>
      <trkpt lat="43.46913" lon="2.29675">
        <ele>814.9</ele>
        <time>2017-06-01T08:24:29.000Z</time>
      </trkpt>
      <trkpt lat="43.46955" lon="2.29687">
        <ele>817.1</ele>
        <time>2017-06-01T08:24:37.000Z</time>
      </trkpt>
      <trkpt lat="43.46951" lon="2.29686">
        <ele>817.4</ele>
        <time>2017-06-01T08:24:39.000Z</time>
      </trkpt>
      <trkpt lat="43.46947" lon="2.29678">
        <ele>817.8</ele>
        <time>2017-06-01T08:24:40.000Z</time>
      </trkpt>
      <trkpt lat="43.46945" lon="2.29673">
        <ele>818</ele>
        <time>2017-06-01T08:24:41.000Z</time>
      </trkpt>
      <trkpt lat="43.46944" lon="2.29669">
        <ele>818.2</ele>
        <time>2017-06-01T08:24:45.000Z</time>
      </trkpt>
      <trkpt lat="43.46945" lon="2.29664">
        <ele>818.3</ele>
        <time>2017-06-01T08:24:46.000Z</time>
      </trkpt>
      <trkpt lat="43.46946" lon="2.29656">
        <ele>818.6</ele>
        <time>2017-06-01T08:24:48.000Z</time>
      </trkpt>
      <trkpt lat="43.46948" lon="2.29652">
        <ele>818.8</ele>
        <time>2017-06-01T08:24:49.000Z</time>
      </trkpt>
      <trkpt lat="43.46951" lon="2.29652">
        <ele>819</ele>
        <time>2017-06-01T08:24:51.000Z</time>
      </trkpt>
      <trkpt lat="43.46953" lon="2.29646">
        <ele>819.2</ele>
        <time>2017-06-01T08:24:52.000Z</time>
      </trkpt>
      <trkpt lat="43.46956" lon="2.2964">
        <ele>819.4</ele>
        <time>2017-06-01T08:24:56.000Z</time>
      </trkpt>
      <trkpt lat="43.46959" lon="2.29642">
        <ele>819.6</ele>
        <time>2017-06-01T08:24:57.000Z</time>
      </trkpt>
      <trkpt lat="43.46961" lon="2.29639">
        <ele>819.7</ele>
        <time>2017-06-01T08:24:59.000Z</time>
      </trkpt>
      <trkpt lat="43.46964" lon="2.29633">
        <ele>820</ele>
        <time>2017-06-01T08:25:00.000Z</time>
      </trkpt>
      <trkpt lat="43.46966" lon="2.29628">
        <ele>820.3</ele>
        <time>2017-06-01T08:25:01.000Z</time>
      </trkpt>
      <trkpt lat="43.46964" lon="2.29622">
        <ele>820.6</ele>
        <time>2017-06-01T08:25:02.000Z</time>
      </trkpt>
      <trkpt lat="43.46965" lon="2.29619">
        <ele>820.8</ele>
        <time>2017-06-01T08:25:04.000Z</time>
      </trkpt>
      <trkpt lat="43.46967" lon="2.29612">
        <ele>821</ele>
        <time>2017-06-01T08:25:06.000Z</time>
      </trkpt>
      <trkpt lat="43.46963" lon="2.29604">
        <ele>821.3</ele>
        <time>2017-06-01T08:25:08.000Z</time>
      </trkpt>
      <trkpt lat="43.46966" lon="2.296">
        <ele>821.5</ele>
        <time>2017-06-01T08:25:10.000Z</time>
      </trkpt>
      <trkpt lat="43.46967" lon="2.29595">
        <ele>821.7</ele>
        <time>2017-06-01T08:25:11.000Z</time>
      </trkpt>
      <trkpt lat="43.46967" lon="2.29591">
        <ele>821.9</ele>
        <time>2017-06-01T08:25:14.000Z</time>
      </trkpt>
      <trkpt lat="43.46969" lon="2.29589">
        <ele>822.2</ele>
        <time>2017-06-01T08:25:15.000Z</time>
      </trkpt>
      <trkpt lat="43.46965" lon="2.29585">
        <ele>822.5</ele>
        <time>2017-06-01T08:25:16.000Z</time>
      </trkpt>
      <trkpt lat="43.46962" lon="2.29584">
        <ele>825.4</ele>
        <time>2017-06-01T08:25:17.000Z</time>
      </trkpt>
      <trkpt lat="43.46959" lon="2.29581">
        <ele>827.3</ele>
        <time>2017-06-01T08:25:18.000Z</time>
      </trkpt>
      <trkpt lat="43.46957" lon="2.29575">
        <ele>830.3</ele>
        <time>2017-06-01T08:25:19.000Z</time>
      </trkpt>
      <trkpt lat="43.46959" lon="2.29572">
        <ele>830.2</ele>
        <time>2017-06-01T08:25:20.000Z</time>
      </trkpt>
      <trkpt lat="43.46958" lon="2.29566">
        <ele>830</ele>
        <time>2017-06-01T08:25:22.000Z</time>
      </trkpt>
      <trkpt lat="43.46959" lon="2.29561">
        <ele>829.9</ele>
        <time>2017-06-01T08:25:24.000Z</time>
      </trkpt>
      <trkpt lat="43.46962" lon="2.29557">
        <ele>829.7</ele>
        <time>2017-06-01T08:25:25.000Z</time>
      </trkpt>
      <trkpt lat="43.46963" lon="2.29552">
        <ele>829.6</ele>
        <time>2017-06-01T08:25:27.000Z</time>
      </trkpt>
      <trkpt lat="43.46964" lon="2.29548">
        <ele>829.5</ele>
        <time>2017-06-01T08:25:29.000Z</time>
      </trkpt>
      <trkpt lat="43.46965" lon="2.29539">
        <ele>829.2</ele>
        <time>2017-06-01T08:25:31.000Z</time>
      </trkpt>
      <trkpt lat="43.46969" lon="2.2954">
        <ele>829.1</ele>
        <time>2017-06-01T08:25:32.000Z</time>
      </trkpt>
      <trkpt lat="43.46966" lon="2.29534">
        <ele>828.8</ele>
        <time>2017-06-01T08:25:33.000Z</time>
      </trkpt>
      <trkpt lat="43.4696" lon="2.2952">
        <ele>828.2</ele>
        <time>2017-06-01T08:25:34.000Z</time>
      </trkpt>
      <trkpt lat="43.46963" lon="2.29522">
        <ele>828</ele>
        <time>2017-06-01T08:25:36.000Z</time>
      </trkpt>
      <trkpt lat="43.46972" lon="2.29519">
        <ele>827.6</ele>
        <time>2017-06-01T08:25:40.000Z</time>
      </trkpt>
      <trkpt lat="43.46977" lon="2.29518">
        <ele>827.5</ele>
        <time>2017-06-01T08:25:41.000Z</time>
      </trkpt>
      <trkpt lat="43.46978" lon="2.29515">
        <ele>827.3</ele>
        <time>2017-06-01T08:25:43.000Z</time>
      </trkpt>
      <trkpt lat="43.46975" lon="2.29517">
        <ele>827.2</ele>
        <time>2017-06-01T08:25:45.000Z</time>
      </trkpt>
      <trkpt lat="43.46976" lon="2.29522">
        <ele>827.1</ele>
        <time>2017-06-01T08:25:48.000Z</time>
      </trkpt>
      <trkpt lat="43.46976" lon="2.29526">
        <ele>827</ele>
        <time>2017-06-01T08:25:54.000Z</time>
      </trkpt>
      <trkpt lat="43.46977" lon="2.2953">
        <ele>826.8</ele>
        <time>2017-06-01T08:25:55.000Z</time>
      </trkpt>
      <trkpt lat="43.46978" lon="2.29535">
        <ele>826.6</ele>
        <time>2017-06-01T08:25:56.000Z</time>
      </trkpt>
      <trkpt lat="43.4698" lon="2.29537">
        <ele>826.5</ele>
        <time>2017-06-01T08:25:57.000Z</time>
      </trkpt>
      <trkpt lat="43.46984" lon="2.2954">
        <ele>826.2</ele>
        <time>2017-06-01T08:25:58.000Z</time>
      </trkpt>
      <trkpt lat="43.4698" lon="2.29544">
        <ele>825.9</ele>
        <time>2017-06-01T08:25:59.000Z</time>
      </trkpt>
      <trkpt lat="43.4698" lon="2.29548">
        <ele>825.7</ele>
        <time>2017-06-01T08:26:00.000Z</time>
      </trkpt>
      <trkpt lat="43.46976" lon="2.2955">
        <ele>825.4</ele>
        <time>2017-06-01T08:26:03.000Z</time>
      </trkpt>
      <trkpt lat="43.4697" lon="2.29554">
        <ele>824.9</ele>
        <time>2017-06-01T08:26:06.000Z</time>
      </trkpt>
      <trkpt lat="43.4697" lon="2.29561">
        <ele>824.6</ele>
        <time>2017-06-01T08:26:08.000Z</time>
      </trkpt>
      <trkpt lat="43.46966" lon="2.29562">
        <ele>826.1</ele>
        <time>2017-06-01T08:26:11.000Z</time>
      </trkpt>
      <trkpt lat="43.46964" lon="2.29564">
        <ele>827.4</ele>
        <time>2017-06-01T08:26:13.000Z</time>
      </trkpt>
      <trkpt lat="43.46963" lon="2.2957">
        <ele>828</ele>
        <time>2017-06-01T08:26:17.000Z</time>
      </trkpt>
      <trkpt lat="43.46958" lon="2.29572">
        <ele>830.1</ele>
        <time>2017-06-01T08:26:19.000Z</time>
      </trkpt>
      <trkpt lat="43.46952" lon="2.29573">
        <ele>830.4</ele>
        <time>2017-06-01T08:26:20.000Z</time>
      </trkpt>
      <trkpt lat="43.46946" lon="2.29575">
        <ele>830.6</ele>
        <time>2017-06-01T08:26:21.000Z</time>
      </trkpt>
      <trkpt lat="43.46945" lon="2.29578">
        <ele>830.7</ele>
        <time>2017-06-01T08:26:23.000Z</time>
      </trkpt>
      <trkpt lat="43.46942" lon="2.2958">
        <ele>830.8</ele>
        <time>2017-06-01T08:26:26.000Z</time>
      </trkpt>
      <trkpt lat="43.4694" lon="2.29584">
        <ele>830.9</ele>
        <time>2017-06-01T08:26:30.000Z</time>
      </trkpt>
      <trkpt lat="43.46943" lon="2.29586">
        <ele>831</ele>
        <time>2017-06-01T08:26:32.000Z</time>
      </trkpt>
      <trkpt lat="43.46942" lon="2.29591">
        <ele>831.2</ele>
        <time>2017-06-01T08:26:34.000Z</time>
      </trkpt>
      <trkpt lat="43.46936" lon="2.29596">
        <ele>831.4</ele>
        <time>2017-06-01T08:26:36.000Z</time>
      </trkpt>
      <trkpt lat="43.46939" lon="2.29599">
        <ele>831.6</ele>
        <time>2017-06-01T08:26:39.000Z</time>
      </trkpt>
      <trkpt lat="43.46942" lon="2.29602">
        <ele>830.4</ele>
        <time>2017-06-01T08:26:42.000Z</time>
      </trkpt>
      <trkpt lat="43.46945" lon="2.29603">
        <ele>829.5</ele>
        <time>2017-06-01T08:26:44.000Z</time>
      </trkpt>
      <trkpt lat="43.46948" lon="2.29606">
        <ele>828.7</ele>
        <time>2017-06-01T08:26:46.000Z</time>
      </trkpt>
      <trkpt lat="43.46931" lon="2.29611">
        <ele>831.1</ele>
        <time>2017-06-01T08:26:48.000Z</time>
      </trkpt>
      <trkpt lat="43.4693" lon="2.29601">
        <ele>832.1</ele>
        <time>2017-06-01T08:26:49.000Z</time>
      </trkpt>
      <trkpt lat="43.46908" lon="2.29617">
        <ele>833.5</ele>
        <time>2017-06-01T08:26:51.000Z</time>
      </trkpt>
      <trkpt lat="43.469" lon="2.29621">
        <ele>833.9</ele>
        <time>2017-06-01T08:26:54.000Z</time>
      </trkpt>
      <trkpt lat="43.46896" lon="2.29621">
        <ele>834.1</ele>
        <time>2017-06-01T08:26:55.000Z</time>
      </trkpt>
      <trkpt lat="43.46891" lon="2.29621">
        <ele>834.3</ele>
        <time>2017-06-01T08:26:56.000Z</time>
      </trkpt>
      <trkpt lat="43.46887" lon="2.29619">
        <ele>834.5</ele>
        <time>2017-06-01T08:26:58.000Z</time>
      </trkpt>
      <trkpt lat="43.46886" lon="2.29623">
        <ele>834.6</ele>
        <time>2017-06-01T08:26:59.000Z</time>
      </trkpt>
      <trkpt lat="43.46884" lon="2.29621">
        <ele>834.8</ele>
        <time>2017-06-01T08:27:01.000Z</time>
      </trkpt>
      <trkpt lat="43.46881" lon="2.2962">
        <ele>834.9</ele>
        <time>2017-06-01T08:27:03.000Z</time>
      </trkpt>
      <trkpt lat="43.46878" lon="2.29618">
        <ele>835.1</ele>
        <time>2017-06-01T08:27:04.000Z</time>
      </trkpt>
      <trkpt lat="43.46875" lon="2.29618">
        <ele>835.3</ele>
        <time>2017-06-01T08:27:05.000Z</time>
      </trkpt>
      <trkpt lat="43.4687" lon="2.2962">
        <ele>835.7</ele>
        <time>2017-06-01T08:27:07.000Z</time>
      </trkpt>
      <trkpt lat="43.46867" lon="2.29618">
        <ele>836</ele>
        <time>2017-06-01T08:27:08.000Z</time>
      </trkpt>
      <trkpt lat="43.46864" lon="2.29619">
        <ele>836.2</ele>
        <time>2017-06-01T08:27:09.000Z</time>
      </trkpt>
      <trkpt lat="43.46861" lon="2.29618">
        <ele>836.4</ele>
        <time>2017-06-01T08:27:12.000Z</time>
      </trkpt>
      <trkpt lat="43.46854" lon="2.29618">
        <ele>836.7</ele>
        <time>2017-06-01T08:27:15.000Z</time>
      </trkpt>
      <trkpt lat="43.46851" lon="2.29622">
        <ele>836.9</ele>
        <time>2017-06-01T08:27:16.000Z</time>
      </trkpt>
      <trkpt lat="43.46847" lon="2.29624">
        <ele>837</ele>
        <time>2017-06-01T08:27:17.000Z</time>
      </trkpt>
      <trkpt lat="43.46843" lon="2.29624">
        <ele>837.2</ele>
        <time>2017-06-01T08:27:19.000Z</time>
      </trkpt>
      <trkpt lat="43.46839" lon="2.29626">
        <ele>837.4</ele>
        <time>2017-06-01T08:27:20.000Z</time>
      </trkpt>
      <trkpt lat="43.46834" lon="2.29625">
        <ele>837.6</ele>
        <time>2017-06-01T08:27:22.000Z</time>
      </trkpt>
      <trkpt lat="43.46831" lon="2.29622">
        <ele>837.8</ele>
        <time>2017-06-01T08:27:24.000Z</time>
      </trkpt>
      <trkpt lat="43.46828" lon="2.29621">
        <ele>837.9</ele>
        <time>2017-06-01T08:27:26.000Z</time>
      </trkpt>
      <trkpt lat="43.46826" lon="2.29622">
        <ele>838.1</ele>
        <time>2017-06-01T08:27:29.000Z</time>
      </trkpt>
      <trkpt lat="43.46822" lon="2.2962">
        <ele>838.3</ele>
        <time>2017-06-01T08:27:31.000Z</time>
      </trkpt>
      <trkpt lat="43.46818" lon="2.29618">
        <ele>838.5</ele>
        <time>2017-06-01T08:27:33.000Z</time>
      </trkpt>
      <trkpt lat="43.46817" lon="2.29613">
        <ele>838.6</ele>
        <time>2017-06-01T08:27:34.000Z</time>
      </trkpt>
      <trkpt lat="43.46816" lon="2.29609">
        <ele>838.7</ele>
        <time>2017-06-01T08:27:36.000Z</time>
      </trkpt>
      <trkpt lat="43.46813" lon="2.29605">
        <ele>838.9</ele>
        <time>2017-06-01T08:27:38.000Z</time>
      </trkpt>
      <trkpt lat="43.4681" lon="2.29604">
        <ele>839</ele>
        <time>2017-06-01T08:27:39.000Z</time>
      </trkpt>
      <trkpt lat="43.46805" lon="2.29601">
        <ele>839.2</ele>
        <time>2017-06-01T08:27:41.000Z</time>
      </trkpt>
      <trkpt lat="43.46802" lon="2.29599">
        <ele>839.3</ele>
        <time>2017-06-01T08:27:42.000Z</time>
      </trkpt>
      <trkpt lat="43.46797" lon="2.29598">
        <ele>839.5</ele>
        <time>2017-06-01T08:27:44.000Z</time>
      </trkpt>
      <trkpt lat="43.46793" lon="2.29596">
        <ele>839.8</ele>
        <time>2017-06-01T08:27:46.000Z</time>
      </trkpt>
      <trkpt lat="43.46789" lon="2.29594">
        <ele>840.1</ele>
        <time>2017-06-01T08:27:48.000Z</time>
      </trkpt>
      <trkpt lat="43.46786" lon="2.29591">
        <ele>840.3</ele>
        <time>2017-06-01T08:27:50.000Z</time>
      </trkpt>
      <trkpt lat="43.46783" lon="2.29591">
        <ele>840.6</ele>
        <time>2017-06-01T08:27:51.000Z</time>
      </trkpt>
      <trkpt lat="43.4678" lon="2.29587">
        <ele>840.9</ele>
        <time>2017-06-01T08:27:52.000Z</time>
      </trkpt>
      <trkpt lat="43.46778" lon="2.29584">
        <ele>841.2</ele>
        <time>2017-06-01T08:27:53.000Z</time>
      </trkpt>
      <trkpt lat="43.46779" lon="2.29578">
        <ele>841.5</ele>
        <time>2017-06-01T08:27:54.000Z</time>
      </trkpt>
      <trkpt lat="43.46776" lon="2.29578">
        <ele>841.8</ele>
        <time>2017-06-01T08:27:55.000Z</time>
      </trkpt>
      <trkpt lat="43.46773" lon="2.29575">
        <ele>842</ele>
        <time>2017-06-01T08:27:56.000Z</time>
      </trkpt>
      <trkpt lat="43.46776" lon="2.29569">
        <ele>842.4</ele>
        <time>2017-06-01T08:27:57.000Z</time>
      </trkpt>
      <trkpt lat="43.46774" lon="2.29562">
        <ele>842.8</ele>
        <time>2017-06-01T08:27:58.000Z</time>
      </trkpt>
      <trkpt lat="43.46771" lon="2.29566">
        <ele>843.1</ele>
        <time>2017-06-01T08:28:00.000Z</time>
      </trkpt>
      <trkpt lat="43.46771" lon="2.29561">
        <ele>843.4</ele>
        <time>2017-06-01T08:28:01.000Z</time>
      </trkpt>
      <trkpt lat="43.46772" lon="2.29556">
        <ele>843.8</ele>
        <time>2017-06-01T08:28:03.000Z</time>
      </trkpt>
      <trkpt lat="43.46775" lon="2.29551">
        <ele>844</ele>
        <time>2017-06-01T08:28:05.000Z</time>
      </trkpt>
      <trkpt lat="43.46777" lon="2.29544">
        <ele>844.3</ele>
        <time>2017-06-01T08:28:06.000Z</time>
      </trkpt>
      <trkpt lat="43.46777" lon="2.29537">
        <ele>844.6</ele>
        <time>2017-06-01T08:28:11.000Z</time>
      </trkpt>
      <trkpt lat="43.46782" lon="2.29534">
        <ele>844.9</ele>
        <time>2017-06-01T08:28:13.000Z</time>
      </trkpt>
      <trkpt lat="43.46782" lon="2.2953">
        <ele>845.1</ele>
        <time>2017-06-01T08:28:17.000Z</time>
      </trkpt>
      <trkpt lat="43.46786" lon="2.29532">
        <ele>845.3</ele>
        <time>2017-06-01T08:28:21.000Z</time>
      </trkpt>
      <trkpt lat="43.46788" lon="2.29535">
        <ele>845.5</ele>
        <time>2017-06-01T08:28:22.000Z</time>
      </trkpt>
      <trkpt lat="43.46791" lon="2.29532">
        <ele>845.7</ele>
        <time>2017-06-01T08:28:24.000Z</time>
      </trkpt>
      <trkpt lat="43.4679" lon="2.29527">
        <ele>845.9</ele>
        <time>2017-06-01T08:28:25.000Z</time>
      </trkpt>
      <trkpt lat="43.46793" lon="2.2952">
        <ele>846.2</ele>
        <time>2017-06-01T08:28:27.000Z</time>
      </trkpt>
      <trkpt lat="43.46794" lon="2.29516">
        <ele>846.4</ele>
        <time>2017-06-01T08:28:28.000Z</time>
      </trkpt>
      <trkpt lat="43.46794" lon="2.29511">
        <ele>846.5</ele>
        <time>2017-06-01T08:28:30.000Z</time>
      </trkpt>
      <trkpt lat="43.46794" lon="2.29505">
        <ele>846.8</ele>
        <time>2017-06-01T08:28:31.000Z</time>
      </trkpt>
      <trkpt lat="43.46794" lon="2.295">
        <ele>846.9</ele>
        <time>2017-06-01T08:28:32.000Z</time>
      </trkpt>
      <trkpt lat="43.46792" lon="2.29492">
        <ele>847.2</ele>
        <time>2017-06-01T08:28:34.000Z</time>
      </trkpt>
      <trkpt lat="43.46795" lon="2.29485">
        <ele>847.3</ele>
        <time>2017-06-01T08:28:35.000Z</time>
      </trkpt>
      <trkpt lat="43.46791" lon="2.29481">
        <ele>847.5</ele>
        <time>2017-06-01T08:28:36.000Z</time>
      </trkpt>
      <trkpt lat="43.46789" lon="2.29474">
        <ele>847.7</ele>
        <time>2017-06-01T08:28:37.000Z</time>
      </trkpt>
      <trkpt lat="43.46789" lon="2.29469">
        <ele>847.9</ele>
        <time>2017-06-01T08:28:38.000Z</time>
      </trkpt>
      <trkpt lat="43.46788" lon="2.29465">
        <ele>848</ele>
        <time>2017-06-01T08:28:39.000Z</time>
      </trkpt>
      <trkpt lat="43.46789" lon="2.29461">
        <ele>848</ele>
        <time>2017-06-01T08:28:40.000Z</time>
      </trkpt>
      <trkpt lat="43.46786" lon="2.29457">
        <ele>848.2</ele>
        <time>2017-06-01T08:28:41.000Z</time>
      </trkpt>
      <trkpt lat="43.46788" lon="2.29452">
        <ele>848.3</ele>
        <time>2017-06-01T08:28:42.000Z</time>
      </trkpt>
      <trkpt lat="43.46793" lon="2.29441">
        <ele>848.6</ele>
        <time>2017-06-01T08:28:44.000Z</time>
      </trkpt>
      <trkpt lat="43.4679" lon="2.29442">
        <ele>848.7</ele>
        <time>2017-06-01T08:28:45.000Z</time>
      </trkpt>
      <trkpt lat="43.46786" lon="2.29442">
        <ele>848.8</ele>
        <time>2017-06-01T08:28:46.000Z</time>
      </trkpt>
      <trkpt lat="43.46781" lon="2.29447">
        <ele>848.9</ele>
        <time>2017-06-01T08:28:47.000Z</time>
      </trkpt>
      <trkpt lat="43.46778" lon="2.29449">
        <ele>849</ele>
        <time>2017-06-01T08:28:48.000Z</time>
      </trkpt>
      <trkpt lat="43.46777" lon="2.29443">
        <ele>849.2</ele>
        <time>2017-06-01T08:28:49.000Z</time>
      </trkpt>
      <trkpt lat="43.46774" lon="2.29446">
        <ele>849.3</ele>
        <time>2017-06-01T08:28:50.000Z</time>
      </trkpt>
      <trkpt lat="43.46772" lon="2.29447">
        <ele>849.5</ele>
        <time>2017-06-01T08:28:51.000Z</time>
      </trkpt>
      <trkpt lat="43.46767" lon="2.29447">
        <ele>849.7</ele>
        <time>2017-06-01T08:28:53.000Z</time>
      </trkpt>
      <trkpt lat="43.46764" lon="2.29451">
        <ele>849.9</ele>
        <time>2017-06-01T08:28:55.000Z</time>
      </trkpt>
      <trkpt lat="43.4676" lon="2.29451">
        <ele>850.1</ele>
        <time>2017-06-01T08:28:57.000Z</time>
      </trkpt>
      <trkpt lat="43.46755" lon="2.29453">
        <ele>850.2</ele>
        <time>2017-06-01T08:28:59.000Z</time>
      </trkpt>
      <trkpt lat="43.46753" lon="2.29449">
        <ele>850.4</ele>
        <time>2017-06-01T08:29:01.000Z</time>
      </trkpt>
      <trkpt lat="43.46752" lon="2.29445">
        <ele>850.6</ele>
        <time>2017-06-01T08:29:02.000Z</time>
      </trkpt>
      <trkpt lat="43.46749" lon="2.29444">
        <ele>850.9</ele>
        <time>2017-06-01T08:29:05.000Z</time>
      </trkpt>
      <trkpt lat="43.46745" lon="2.29449">
        <ele>851.2</ele>
        <time>2017-06-01T08:29:07.000Z</time>
      </trkpt>
      <trkpt lat="43.46743" lon="2.29448">
        <ele>851.4</ele>
        <time>2017-06-01T08:29:09.000Z</time>
      </trkpt>
      <trkpt lat="43.46738" lon="2.29449">
        <ele>851.7</ele>
        <time>2017-06-01T08:29:11.000Z</time>
      </trkpt>
      <trkpt lat="43.46735" lon="2.29449">
        <ele>851.8</ele>
        <time>2017-06-01T08:29:12.000Z</time>
      </trkpt>
      <trkpt lat="43.46733" lon="2.29452">
        <ele>852.3</ele>
        <time>2017-06-01T08:29:14.000Z</time>
      </trkpt>
      <trkpt lat="43.4673" lon="2.29453">
        <ele>852.4</ele>
        <time>2017-06-01T08:29:15.000Z</time>
      </trkpt>
      <trkpt lat="43.46724" lon="2.29455">
        <ele>852.7</ele>
        <time>2017-06-01T08:29:18.000Z</time>
      </trkpt>
      <trkpt lat="43.46722" lon="2.29457">
        <ele>852.9</ele>
        <time>2017-06-01T08:29:21.000Z</time>
      </trkpt>
      <trkpt lat="43.46719" lon="2.29459">
        <ele>853</ele>
        <time>2017-06-01T08:29:22.000Z</time>
      </trkpt>
      <trkpt lat="43.46716" lon="2.29457">
        <ele>853.2</ele>
        <time>2017-06-01T08:29:24.000Z</time>
      </trkpt>
      <trkpt lat="43.46713" lon="2.29458">
        <ele>853.3</ele>
        <time>2017-06-01T08:29:25.000Z</time>
      </trkpt>
      <trkpt lat="43.4671" lon="2.29455">
        <ele>853.5</ele>
        <time>2017-06-01T08:29:28.000Z</time>
      </trkpt>
      <trkpt lat="43.4671" lon="2.29451">
        <ele>853.7</ele>
        <time>2017-06-01T08:29:30.000Z</time>
      </trkpt>
      <trkpt lat="43.46709" lon="2.29454">
        <ele>853.8</ele>
        <time>2017-06-01T08:29:31.000Z</time>
      </trkpt>
      <trkpt lat="43.46704" lon="2.29455">
        <ele>854.1</ele>
        <time>2017-06-01T08:29:34.000Z</time>
      </trkpt>
      <trkpt lat="43.46705" lon="2.29451">
        <ele>854.2</ele>
        <time>2017-06-01T08:29:35.000Z</time>
      </trkpt>
      <trkpt lat="43.46701" lon="2.29452">
        <ele>854.5</ele>
        <time>2017-06-01T08:29:37.000Z</time>
      </trkpt>
      <trkpt lat="43.46697" lon="2.29452">
        <ele>854.8</ele>
        <time>2017-06-01T08:29:40.000Z</time>
      </trkpt>
      <trkpt lat="43.46697" lon="2.29452">
        <ele>854.9</ele>
        <time>2017-06-01T08:29:42.000Z</time>
      </trkpt>
      <trkpt lat="43.46696" lon="2.29451">
        <ele>855</ele>
        <time>2017-06-01T08:29:44.000Z</time>
      </trkpt>
      <trkpt lat="43.46696" lon="2.2945">
        <ele>855</ele>
        <time>2017-06-01T08:29:46.000Z</time>
      </trkpt>
      <trkpt lat="43.46695" lon="2.2945">
        <ele>855.1</ele>
        <time>2017-06-01T08:29:49.000Z</time>
      </trkpt>
      <trkpt lat="43.46695" lon="2.29449">
        <ele>855.1</ele>
        <time>2017-06-01T08:29:53.000Z</time>
      </trkpt>
      <trkpt lat="43.46695" lon="2.29449">
        <ele>855.2</ele>
        <time>2017-06-01T08:29:56.000Z</time>
      </trkpt>
      <trkpt lat="43.46694" lon="2.29448">
        <ele>855.3</ele>
        <time>2017-06-01T08:29:57.000Z</time>
      </trkpt>
      <trkpt lat="43.46688" lon="2.29453">
        <ele>855.9</ele>
        <time>2017-06-01T08:29:58.000Z</time>
      </trkpt>
      <trkpt lat="43.46688" lon="2.29443">
        <ele>856.7</ele>
        <time>2017-06-01T08:29:59.000Z</time>
      </trkpt>
      <trkpt lat="43.46677" lon="2.29451">
        <ele>857.6</ele>
        <time>2017-06-01T08:30:00.000Z</time>
      </trkpt>
      <trkpt lat="43.46674" lon="2.29455">
        <ele>857.9</ele>
        <time>2017-06-01T08:30:01.000Z</time>
      </trkpt>
      <trkpt lat="43.46666" lon="2.29463">
        <ele>858.5</ele>
        <time>2017-06-01T08:30:02.000Z</time>
      </trkpt>
      <trkpt lat="43.46663" lon="2.29461">
        <ele>858.7</ele>
        <time>2017-06-01T08:30:03.000Z</time>
      </trkpt>
      <trkpt lat="43.46663" lon="2.29465">
        <ele>858.9</ele>
        <time>2017-06-01T08:30:04.000Z</time>
      </trkpt>
      <trkpt lat="43.46655" lon="2.29466">
        <ele>859.4</ele>
        <time>2017-06-01T08:30:05.000Z</time>
      </trkpt>
      <trkpt lat="43.46651" lon="2.29466">
        <ele>859.7</ele>
        <time>2017-06-01T08:30:06.000Z</time>
      </trkpt>
      <trkpt lat="43.46648" lon="2.29467">
        <ele>859.9</ele>
        <time>2017-06-01T08:30:09.000Z</time>
      </trkpt>
      <trkpt lat="43.46644" lon="2.29469">
        <ele>860.1</ele>
        <time>2017-06-01T08:30:11.000Z</time>
      </trkpt>
      <trkpt lat="43.46639" lon="2.29469">
        <ele>860.3</ele>
        <time>2017-06-01T08:30:12.000Z</time>
      </trkpt>
      <trkpt lat="43.46632" lon="2.29472">
        <ele>860.7</ele>
        <time>2017-06-01T08:30:37.000Z</time>
      </trkpt>
      <trkpt lat="43.4663" lon="2.29474">
        <ele>860.8</ele>
        <time>2017-06-01T08:30:38.000Z</time>
      </trkpt>
      <trkpt lat="43.46626" lon="2.29479">
        <ele>861</ele>
        <time>2017-06-01T08:30:40.000Z</time>
      </trkpt>
      <trkpt lat="43.46624" lon="2.29481">
        <ele>861.2</ele>
        <time>2017-06-01T08:30:41.000Z</time>
      </trkpt>
      <trkpt lat="43.46619" lon="2.29482">
        <ele>861.4</ele>
        <time>2017-06-01T08:30:42.000Z</time>
      </trkpt>
      <trkpt lat="43.46619" lon="2.29486">
        <ele>861.5</ele>
        <time>2017-06-01T08:30:43.000Z</time>
      </trkpt>
      <trkpt lat="43.46616" lon="2.29489">
        <ele>861.7</ele>
        <time>2017-06-01T08:30:44.000Z</time>
      </trkpt>
      <trkpt lat="43.46607" lon="2.2949">
        <ele>862.1</ele>
        <time>2017-06-01T08:30:45.000Z</time>
      </trkpt>
      <trkpt lat="43.46604" lon="2.2949">
        <ele>862.2</ele>
        <time>2017-06-01T08:30:46.000Z</time>
      </trkpt>
      <trkpt lat="43.46598" lon="2.29492">
        <ele>862.5</ele>
        <time>2017-06-01T08:30:49.000Z</time>
      </trkpt>
      <trkpt lat="43.46593" lon="2.29489">
        <ele>862.7</ele>
        <time>2017-06-01T08:30:50.000Z</time>
      </trkpt>
      <trkpt lat="43.46593" lon="2.29484">
        <ele>862.9</ele>
        <time>2017-06-01T08:30:52.000Z</time>
      </trkpt>
      <trkpt lat="43.46589" lon="2.29488">
        <ele>863.1</ele>
        <time>2017-06-01T08:30:54.000Z</time>
      </trkpt>
      <trkpt lat="43.4658" lon="2.29488">
        <ele>863.5</ele>
        <time>2017-06-01T08:30:56.000Z</time>
      </trkpt>
      <trkpt lat="43.46563" lon="2.29493">
        <ele>864.1</ele>
        <time>2017-06-01T08:30:57.000Z</time>
      </trkpt>
      <trkpt lat="43.4655" lon="2.295">
        <ele>864.7</ele>
        <time>2017-06-01T08:30:58.000Z</time>
      </trkpt>
      <trkpt lat="43.46546" lon="2.29501">
        <ele>864.8</ele>
        <time>2017-06-01T08:30:59.000Z</time>
      </trkpt>
      <trkpt lat="43.46544" lon="2.29497">
        <ele>869.6</ele>
        <time>2017-06-01T08:31:00.000Z</time>
      </trkpt>
      <trkpt lat="43.46544" lon="2.29492">
        <ele>869.9</ele>
        <time>2017-06-01T08:31:04.000Z</time>
      </trkpt>
      <trkpt lat="43.46547" lon="2.29489">
        <ele>870.2</ele>
        <time>2017-06-01T08:31:08.000Z</time>
      </trkpt>
      <trkpt lat="43.46549" lon="2.29487">
        <ele>870.4</ele>
        <time>2017-06-01T08:31:10.000Z</time>
      </trkpt>
      <trkpt lat="43.46551" lon="2.29483">
        <ele>870.6</ele>
        <time>2017-06-01T08:31:13.000Z</time>
      </trkpt>
      <trkpt lat="43.46554" lon="2.29479">
        <ele>870.8</ele>
        <time>2017-06-01T08:31:15.000Z</time>
      </trkpt>
      <trkpt lat="43.46554" lon="2.29474">
        <ele>870.9</ele>
        <time>2017-06-01T08:31:16.000Z</time>
      </trkpt>
      <trkpt lat="43.46554" lon="2.2947">
        <ele>871</ele>
        <time>2017-06-01T08:31:19.000Z</time>
      </trkpt>
      <trkpt lat="43.46554" lon="2.29465">
        <ele>871.2</ele>
        <time>2017-06-01T08:31:21.000Z</time>
      </trkpt>
      <trkpt lat="43.46556" lon="2.29458">
        <ele>871.5</ele>
        <time>2017-06-01T08:31:23.000Z</time>
      </trkpt>
      <trkpt lat="43.46559" lon="2.29458">
        <ele>871.6</ele>
        <time>2017-06-01T08:31:25.000Z</time>
      </trkpt>
      <trkpt lat="43.46561" lon="2.29455">
        <ele>871.7</ele>
        <time>2017-06-01T08:31:27.000Z</time>
      </trkpt>
      <trkpt lat="43.46563" lon="2.29452">
        <ele>871.7</ele>
        <time>2017-06-01T08:31:29.000Z</time>
      </trkpt>
      <trkpt lat="43.46565" lon="2.29455">
        <ele>871.8</ele>
        <time>2017-06-01T08:31:30.000Z</time>
      </trkpt>
      <trkpt lat="43.4657" lon="2.29447">
        <ele>872</ele>
        <time>2017-06-01T08:31:32.000Z</time>
      </trkpt>
      <trkpt lat="43.46573" lon="2.29445">
        <ele>872.1</ele>
        <time>2017-06-01T08:31:35.000Z</time>
      </trkpt>
      <trkpt lat="43.46573" lon="2.29441">
        <ele>872.2</ele>
        <time>2017-06-01T08:31:36.000Z</time>
      </trkpt>
      <trkpt lat="43.4658" lon="2.29435">
        <ele>872.5</ele>
        <time>2017-06-01T08:31:38.000Z</time>
      </trkpt>
      <trkpt lat="43.46579" lon="2.29431">
        <ele>872.7</ele>
        <time>2017-06-01T08:31:40.000Z</time>
      </trkpt>
      <trkpt lat="43.4658" lon="2.29425">
        <ele>872.8</ele>
        <time>2017-06-01T08:31:41.000Z</time>
      </trkpt>
      <trkpt lat="43.46581" lon="2.29421">
        <ele>872.9</ele>
        <time>2017-06-01T08:31:43.000Z</time>
      </trkpt>
      <trkpt lat="43.4658" lon="2.29417">
        <ele>873.1</ele>
        <time>2017-06-01T08:31:45.000Z</time>
      </trkpt>
      <trkpt lat="43.46583" lon="2.29414">
        <ele>873.2</ele>
        <time>2017-06-01T08:31:47.000Z</time>
      </trkpt>
      <trkpt lat="43.46588" lon="2.29413">
        <ele>873.4</ele>
        <time>2017-06-01T08:31:49.000Z</time>
      </trkpt>
      <trkpt lat="43.46588" lon="2.29409">
        <ele>873.6</ele>
        <time>2017-06-01T08:31:51.000Z</time>
      </trkpt>
      <trkpt lat="43.46589" lon="2.29405">
        <ele>873.8</ele>
        <time>2017-06-01T08:31:53.000Z</time>
      </trkpt>
      <trkpt lat="43.46593" lon="2.29409">
        <ele>874</ele>
        <time>2017-06-01T08:31:55.000Z</time>
      </trkpt>
      <trkpt lat="43.46595" lon="2.29398">
        <ele>874.2</ele>
        <time>2017-06-01T08:31:56.000Z</time>
      </trkpt>
      <trkpt lat="43.46598" lon="2.29397">
        <ele>874.4</ele>
        <time>2017-06-01T08:31:58.000Z</time>
      </trkpt>
      <trkpt lat="43.46594" lon="2.29394">
        <ele>874.5</ele>
        <time>2017-06-01T08:32:00.000Z</time>
      </trkpt>
      <trkpt lat="43.46598" lon="2.29394">
        <ele>874.6</ele>
        <time>2017-06-01T08:32:01.000Z</time>
      </trkpt>
      <trkpt lat="43.46595" lon="2.29391">
        <ele>874.8</ele>
        <time>2017-06-01T08:32:02.000Z</time>
      </trkpt>
      <trkpt lat="43.4659" lon="2.29384">
        <ele>875.1</ele>
        <time>2017-06-01T08:32:03.000Z</time>
      </trkpt>
      <trkpt lat="43.46589" lon="2.2938">
        <ele>875.2</ele>
        <time>2017-06-01T08:32:04.000Z</time>
      </trkpt>
      <trkpt lat="43.46589" lon="2.29376">
        <ele>875.3</ele>
        <time>2017-06-01T08:32:05.000Z</time>
      </trkpt>
      <trkpt lat="43.46586" lon="2.29371">
        <ele>875.5</ele>
        <time>2017-06-01T08:32:07.000Z</time>
      </trkpt>
      <trkpt lat="43.46589" lon="2.2936">
        <ele>875.9</ele>
        <time>2017-06-01T08:32:08.000Z</time>
      </trkpt>
      <trkpt lat="43.46585" lon="2.29353">
        <ele>876.2</ele>
        <time>2017-06-01T08:32:10.000Z</time>
      </trkpt>
      <trkpt lat="43.46587" lon="2.2934">
        <ele>876.6</ele>
        <time>2017-06-01T08:32:11.000Z</time>
      </trkpt>
      <trkpt lat="43.46588" lon="2.29338">
        <ele>876.7</ele>
        <time>2017-06-01T08:32:14.000Z</time>
      </trkpt>
      <trkpt lat="43.46588" lon="2.29334">
        <ele>876.9</ele>
        <time>2017-06-01T08:32:15.000Z</time>
      </trkpt>
      <trkpt lat="43.46597" lon="2.29322">
        <ele>877.4</ele>
        <time>2017-06-01T08:32:16.000Z</time>
      </trkpt>
      <trkpt lat="43.466" lon="2.29328">
        <ele>877.6</ele>
        <time>2017-06-01T08:32:18.000Z</time>
      </trkpt>
      <trkpt lat="43.46606" lon="2.29332">
        <ele>877.8</ele>
        <time>2017-06-01T08:32:19.000Z</time>
      </trkpt>
      <trkpt lat="43.46603" lon="2.29321">
        <ele>878.4</ele>
        <time>2017-06-01T08:32:20.000Z</time>
      </trkpt>
      <trkpt lat="43.46597" lon="2.29318">
        <ele>878.9</ele>
        <time>2017-06-01T08:32:21.000Z</time>
      </trkpt>
      <trkpt lat="43.46591" lon="2.2932">
        <ele>879.2</ele>
        <time>2017-06-01T08:32:22.000Z</time>
      </trkpt>
      <trkpt lat="43.46589" lon="2.29315">
        <ele>879.4</ele>
        <time>2017-06-01T08:32:23.000Z</time>
      </trkpt>
      <trkpt lat="43.4659" lon="2.29307">
        <ele>879.8</ele>
        <time>2017-06-01T08:32:27.000Z</time>
      </trkpt>
      <trkpt lat="43.46586" lon="2.29307">
        <ele>880</ele>
        <time>2017-06-01T08:32:28.000Z</time>
      </trkpt>
      <trkpt lat="43.46588" lon="2.29299">
        <ele>880.3</ele>
        <time>2017-06-01T08:32:30.000Z</time>
      </trkpt>
      <trkpt lat="43.46593" lon="2.29295">
        <ele>880.5</ele>
        <time>2017-06-01T08:32:34.000Z</time>
      </trkpt>
      <trkpt lat="43.46595" lon="2.29294">
        <ele>880.6</ele>
        <time>2017-06-01T08:32:35.000Z</time>
      </trkpt>
      <trkpt lat="43.46592" lon="2.29289">
        <ele>880.8</ele>
        <time>2017-06-01T08:32:37.000Z</time>
      </trkpt>
      <trkpt lat="43.46589" lon="2.29288">
        <ele>880.9</ele>
        <time>2017-06-01T08:32:38.000Z</time>
      </trkpt>
      <trkpt lat="43.46591" lon="2.29283">
        <ele>881.1</ele>
        <time>2017-06-01T08:32:39.000Z</time>
      </trkpt>
      <trkpt lat="43.46589" lon="2.29279">
        <ele>881.2</ele>
        <time>2017-06-01T08:32:41.000Z</time>
      </trkpt>
      <trkpt lat="43.46593" lon="2.29274">
        <ele>881.4</ele>
        <time>2017-06-01T08:32:43.000Z</time>
      </trkpt>
      <trkpt lat="43.466" lon="2.29275">
        <ele>881.7</ele>
        <time>2017-06-01T08:32:44.000Z</time>
      </trkpt>
      <trkpt lat="43.46601" lon="2.29264">
        <ele>882.2</ele>
        <time>2017-06-01T08:32:45.000Z</time>
      </trkpt>
      <trkpt lat="43.46597" lon="2.2926">
        <ele>882.4</ele>
        <time>2017-06-01T08:32:46.000Z</time>
      </trkpt>
      <trkpt lat="43.46578" lon="2.2925">
        <ele>883.1</ele>
        <time>2017-06-01T08:32:48.000Z</time>
      </trkpt>
      <trkpt lat="43.46571" lon="2.29245">
        <ele>883.4</ele>
        <time>2017-06-01T08:32:50.000Z</time>
      </trkpt>
      <trkpt lat="43.46574" lon="2.29242">
        <ele>883.6</ele>
        <time>2017-06-01T08:32:52.000Z</time>
      </trkpt>
      <trkpt lat="43.4657" lon="2.29239">
        <ele>883.8</ele>
        <time>2017-06-01T08:32:53.000Z</time>
      </trkpt>
      <trkpt lat="43.46571" lon="2.29236">
        <ele>883.9</ele>
        <time>2017-06-01T08:32:55.000Z</time>
      </trkpt>
      <trkpt lat="43.4657" lon="2.2923">
        <ele>884</ele>
        <time>2017-06-01T08:32:57.000Z</time>
      </trkpt>
      <trkpt lat="43.46576" lon="2.29229">
        <ele>884.2</ele>
        <time>2017-06-01T08:32:59.000Z</time>
      </trkpt>
      <trkpt lat="43.46575" lon="2.29222">
        <ele>884.3</ele>
        <time>2017-06-01T08:33:01.000Z</time>
      </trkpt>
      <trkpt lat="43.46573" lon="2.2921">
        <ele>884.6</ele>
        <time>2017-06-01T08:33:03.000Z</time>
      </trkpt>
      <trkpt lat="43.46572" lon="2.29206">
        <ele>884.7</ele>
        <time>2017-06-01T08:33:04.000Z</time>
      </trkpt>
      <trkpt lat="43.46568" lon="2.29203">
        <ele>884.8</ele>
        <time>2017-06-01T08:33:05.000Z</time>
      </trkpt>
      <trkpt lat="43.46571" lon="2.29193">
        <ele>885</ele>
        <time>2017-06-01T08:33:07.000Z</time>
      </trkpt>
      <trkpt lat="43.46576" lon="2.29189">
        <ele>885.1</ele>
        <time>2017-06-01T08:33:08.000Z</time>
      </trkpt>
      <trkpt lat="43.46574" lon="2.29184">
        <ele>885.2</ele>
        <time>2017-06-01T08:33:11.000Z</time>
      </trkpt>
      <trkpt lat="43.46574" lon="2.29179">
        <ele>885.3</ele>
        <time>2017-06-01T08:33:12.000Z</time>
      </trkpt>
      <trkpt lat="43.46579" lon="2.29168">
        <ele>885.5</ele>
        <time>2017-06-01T08:33:14.000Z</time>
      </trkpt>
      <trkpt lat="43.46582" lon="2.29163">
        <ele>885.6</ele>
        <time>2017-06-01T08:33:15.000Z</time>
      </trkpt>
      <trkpt lat="43.46578" lon="2.29165">
        <ele>885.6</ele>
        <time>2017-06-01T08:33:16.000Z</time>
      </trkpt>
      <trkpt lat="43.4658" lon="2.2916">
        <ele>885.5</ele>
        <time>2017-06-01T08:33:18.000Z</time>
      </trkpt>
      <trkpt lat="43.46583" lon="2.29153">
        <ele>884.8</ele>
        <time>2017-06-01T08:33:20.000Z</time>
      </trkpt>
      <trkpt lat="43.4658" lon="2.2916">
        <ele>885</ele>
        <time>2017-06-01T08:33:21.000Z</time>
      </trkpt>
      <trkpt lat="43.46578" lon="2.29157">
        <ele>885.1</ele>
        <time>2017-06-01T08:33:22.000Z</time>
      </trkpt>
      <trkpt lat="43.46574" lon="2.2915">
        <ele>885.3</ele>
        <time>2017-06-01T08:33:23.000Z</time>
      </trkpt>
      <trkpt lat="43.46573" lon="2.29136">
        <ele>885.6</ele>
        <time>2017-06-01T08:33:24.000Z</time>
      </trkpt>
      <trkpt lat="43.4657" lon="2.29137">
        <ele>885.7</ele>
        <time>2017-06-01T08:33:25.000Z</time>
      </trkpt>
      <trkpt lat="43.46568" lon="2.29133">
        <ele>885.8</ele>
        <time>2017-06-01T08:33:27.000Z</time>
      </trkpt>
      <trkpt lat="43.46575" lon="2.29122">
        <ele>886.1</ele>
        <time>2017-06-01T08:33:29.000Z</time>
      </trkpt>
      <trkpt lat="43.4657" lon="2.29124">
        <ele>886.1</ele>
        <time>2017-06-01T08:33:30.000Z</time>
      </trkpt>
      <trkpt lat="43.46566" lon="2.29125">
        <ele>886.2</ele>
        <time>2017-06-01T08:33:31.000Z</time>
      </trkpt>
      <trkpt lat="43.46566" lon="2.29121">
        <ele>886.2</ele>
        <time>2017-06-01T08:33:32.000Z</time>
      </trkpt>
      <trkpt lat="43.46563" lon="2.2912">
        <ele>886.2</ele>
        <time>2017-06-01T08:33:33.000Z</time>
      </trkpt>
      <trkpt lat="43.46568" lon="2.29112">
        <ele>886.3</ele>
        <time>2017-06-01T08:33:34.000Z</time>
      </trkpt>
      <trkpt lat="43.46562" lon="2.2911">
        <ele>886.4</ele>
        <time>2017-06-01T08:33:36.000Z</time>
      </trkpt>
      <trkpt lat="43.4656" lon="2.29103">
        <ele>886.5</ele>
        <time>2017-06-01T08:33:37.000Z</time>
      </trkpt>
      <trkpt lat="43.46559" lon="2.29096">
        <ele>886.5</ele>
        <time>2017-06-01T08:33:38.000Z</time>
      </trkpt>
      <trkpt lat="43.46549" lon="2.29092">
        <ele>886.6</ele>
        <time>2017-06-01T08:33:39.000Z</time>
      </trkpt>
      <trkpt lat="43.46546" lon="2.29074">
        <ele>886.8</ele>
        <time>2017-06-01T08:33:40.000Z</time>
      </trkpt>
      <trkpt lat="43.46547" lon="2.2907">
        <ele>886.9</ele>
        <time>2017-06-01T08:33:41.000Z</time>
      </trkpt>
      <trkpt lat="43.46542" lon="2.29072">
        <ele>887</ele>
        <time>2017-06-01T08:33:42.000Z</time>
      </trkpt>
      <trkpt lat="43.46539" lon="2.29073">
        <ele>887.1</ele>
        <time>2017-06-01T08:33:44.000Z</time>
      </trkpt>
      <trkpt lat="43.46542" lon="2.29071">
        <ele>887.2</ele>
        <time>2017-06-01T08:33:45.000Z</time>
      </trkpt>
      <trkpt lat="43.46537" lon="2.29077">
        <ele>887.4</ele>
        <time>2017-06-01T08:33:46.000Z</time>
      </trkpt>
      <trkpt lat="43.46534" lon="2.29077">
        <ele>887.5</ele>
        <time>2017-06-01T08:33:47.000Z</time>
      </trkpt>
      <trkpt lat="43.46526" lon="2.29085">
        <ele>887.8</ele>
        <time>2017-06-01T08:33:52.000Z</time>
      </trkpt>
      <trkpt lat="43.4653" lon="2.2908">
        <ele>887.9</ele>
        <time>2017-06-01T08:33:53.000Z</time>
      </trkpt>
      <trkpt lat="43.46531" lon="2.29069">
        <ele>888.2</ele>
        <time>2017-06-01T08:33:54.000Z</time>
      </trkpt>
      <trkpt lat="43.46529" lon="2.29064">
        <ele>888.4</ele>
        <time>2017-06-01T08:33:56.000Z</time>
      </trkpt>
      <trkpt lat="43.46527" lon="2.29065">
        <ele>888.6</ele>
        <time>2017-06-01T08:33:57.000Z</time>
      </trkpt>
      <trkpt lat="43.4653" lon="2.29051">
        <ele>889.1</ele>
        <time>2017-06-01T08:33:58.000Z</time>
      </trkpt>
      <trkpt lat="43.46531" lon="2.29047">
        <ele>889.3</ele>
        <time>2017-06-01T08:33:59.000Z</time>
      </trkpt>
      <trkpt lat="43.46511" lon="2.29044">
        <ele>896.6</ele>
        <time>2017-06-01T08:34:01.000Z</time>
      </trkpt>
      <trkpt lat="43.46505" lon="2.29046">
        <ele>897.8</ele>
        <time>2017-06-01T08:34:03.000Z</time>
      </trkpt>
      <trkpt lat="43.46509" lon="2.29041">
        <ele>898.8</ele>
        <time>2017-06-01T08:34:04.000Z</time>
      </trkpt>
      <trkpt lat="43.465" lon="2.29046">
        <ele>900.5</ele>
        <time>2017-06-01T08:34:05.000Z</time>
      </trkpt>
      <trkpt lat="43.46496" lon="2.29044">
        <ele>901.5</ele>
        <time>2017-06-01T08:34:06.000Z</time>
      </trkpt>
      <trkpt lat="43.46492" lon="2.29046">
        <ele>902.5</ele>
        <time>2017-06-01T08:34:07.000Z</time>
      </trkpt>
      <trkpt lat="43.46484" lon="2.29053">
        <ele>904.4</ele>
        <time>2017-06-01T08:34:08.000Z</time>
      </trkpt>
      <trkpt lat="43.46492" lon="2.29044">
        <ele>905.9</ele>
        <time>2017-06-01T08:34:09.000Z</time>
      </trkpt>
      <trkpt lat="43.46485" lon="2.29043">
        <ele>906.4</ele>
        <time>2017-06-01T08:34:11.000Z</time>
      </trkpt>
      <trkpt lat="43.46488" lon="2.29039">
        <ele>906.5</ele>
        <time>2017-06-01T08:34:12.000Z</time>
      </trkpt>
      <trkpt lat="43.46489" lon="2.29034">
        <ele>906.7</ele>
        <time>2017-06-01T08:34:13.000Z</time>
      </trkpt>
      <trkpt lat="43.46484" lon="2.29033">
        <ele>907</ele>
        <time>2017-06-01T08:34:14.000Z</time>
      </trkpt>
      <trkpt lat="43.46481" lon="2.29036">
        <ele>907.2</ele>
        <time>2017-06-01T08:34:16.000Z</time>
      </trkpt>
      <trkpt lat="43.46486" lon="2.29032">
        <ele>907.5</ele>
        <time>2017-06-01T08:34:17.000Z</time>
      </trkpt>
      <trkpt lat="43.46488" lon="2.29019">
        <ele>908</ele>
        <time>2017-06-01T08:34:19.000Z</time>
      </trkpt>
      <trkpt lat="43.46493" lon="2.2901">
        <ele>908.6</ele>
        <time>2017-06-01T08:34:20.000Z</time>
      </trkpt>
      <trkpt lat="43.46494" lon="2.29006">
        <ele>908.8</ele>
        <time>2017-06-01T08:34:21.000Z</time>
      </trkpt>
      <trkpt lat="43.46489" lon="2.29008">
        <ele>909.1</ele>
        <time>2017-06-01T08:34:22.000Z</time>
      </trkpt>
      <trkpt lat="43.46479" lon="2.29013">
        <ele>909.5</ele>
        <time>2017-06-01T08:34:23.000Z</time>
      </trkpt>
      <trkpt lat="43.46476" lon="2.29009">
        <ele>909.6</ele>
        <time>2017-06-01T08:34:25.000Z</time>
      </trkpt>
      <trkpt lat="43.46467" lon="2.29012">
        <ele>909.9</ele>
        <time>2017-06-01T08:34:26.000Z</time>
      </trkpt>
      <trkpt lat="43.46461" lon="2.29014">
        <ele>910.1</ele>
        <time>2017-06-01T08:34:27.000Z</time>
      </trkpt>
      <trkpt lat="43.46464" lon="2.29006">
        <ele>910.4</ele>
        <time>2017-06-01T08:34:29.000Z</time>
      </trkpt>
      <trkpt lat="43.46464" lon="2.2901">
        <ele>910.5</ele>
        <time>2017-06-01T08:34:30.000Z</time>
      </trkpt>
      <trkpt lat="43.46453" lon="2.29011">
        <ele>910.9</ele>
        <time>2017-06-01T08:34:31.000Z</time>
      </trkpt>
      <trkpt lat="43.46451" lon="2.29008">
        <ele>911</ele>
        <time>2017-06-01T08:34:32.000Z</time>
      </trkpt>
      <trkpt lat="43.46453" lon="2.29003">
        <ele>911.2</ele>
        <time>2017-06-01T08:34:33.000Z</time>
      </trkpt>
      <trkpt lat="43.46455" lon="2.29001">
        <ele>911.3</ele>
        <time>2017-06-01T08:34:34.000Z</time>
      </trkpt>
      <trkpt lat="43.46453" lon="2.28996">
        <ele>911.4</ele>
        <time>2017-06-01T08:34:36.000Z</time>
      </trkpt>
      <trkpt lat="43.46452" lon="2.28988">
        <ele>911.6</ele>
        <time>2017-06-01T08:34:39.000Z</time>
      </trkpt>
      <trkpt lat="43.46457" lon="2.28982">
        <ele>911.8</ele>
        <time>2017-06-01T08:34:40.000Z</time>
      </trkpt>
      <trkpt lat="43.46444" lon="2.28988">
        <ele>912.2</ele>
        <time>2017-06-01T08:34:41.000Z</time>
      </trkpt>
      <trkpt lat="43.4644" lon="2.28984">
        <ele>912.4</ele>
        <time>2017-06-01T08:34:43.000Z</time>
      </trkpt>
      <trkpt lat="43.46437" lon="2.28983">
        <ele>912.5</ele>
        <time>2017-06-01T08:34:44.000Z</time>
      </trkpt>
      <trkpt lat="43.46437" lon="2.28979">
        <ele>912.6</ele>
        <time>2017-06-01T08:34:45.000Z</time>
      </trkpt>
      <trkpt lat="43.46438" lon="2.28974">
        <ele>912.7</ele>
        <time>2017-06-01T08:34:46.000Z</time>
      </trkpt>
      <trkpt lat="43.4644" lon="2.28968">
        <ele>912.8</ele>
        <time>2017-06-01T08:34:47.000Z</time>
      </trkpt>
      <trkpt lat="43.46436" lon="2.28963">
        <ele>913.8</ele>
        <time>2017-06-01T08:34:48.000Z</time>
      </trkpt>
      <trkpt lat="43.46435" lon="2.28955">
        <ele>915.6</ele>
        <time>2017-06-01T08:34:49.000Z</time>
      </trkpt>
      <trkpt lat="43.46431" lon="2.28959">
        <ele>916.9</ele>
        <time>2017-06-01T08:34:50.000Z</time>
      </trkpt>
      <trkpt lat="43.46428" lon="2.28958">
        <ele>918.2</ele>
        <time>2017-06-01T08:34:52.000Z</time>
      </trkpt>
      <trkpt lat="43.46426" lon="2.28961">
        <ele>919</ele>
        <time>2017-06-01T08:34:53.000Z</time>
      </trkpt>
      <trkpt lat="43.46428" lon="2.28956">
        <ele>919.7</ele>
        <time>2017-06-01T08:34:54.000Z</time>
      </trkpt>
      <trkpt lat="43.46426" lon="2.2895">
        <ele>920.3</ele>
        <time>2017-06-01T08:34:55.000Z</time>
      </trkpt>
      <trkpt lat="43.46426" lon="2.28945">
        <ele>920.8</ele>
        <time>2017-06-01T08:34:56.000Z</time>
      </trkpt>
      <trkpt lat="43.4643" lon="2.28938">
        <ele>921.7</ele>
        <time>2017-06-01T08:34:58.000Z</time>
      </trkpt>
      <trkpt lat="43.46434" lon="2.28935">
        <ele>922.3</ele>
        <time>2017-06-01T08:34:59.000Z</time>
      </trkpt>
      <trkpt lat="43.46441" lon="2.28932">
        <ele>923.2</ele>
        <time>2017-06-01T08:35:00.000Z</time>
      </trkpt>
      <trkpt lat="43.46445" lon="2.2893">
        <ele>923.7</ele>
        <time>2017-06-01T08:35:01.000Z</time>
      </trkpt>
      <trkpt lat="43.46448" lon="2.2893">
        <ele>924.1</ele>
        <time>2017-06-01T08:35:03.000Z</time>
      </trkpt>
      <trkpt lat="43.46451" lon="2.28923">
        <ele>924.7</ele>
        <time>2017-06-01T08:35:07.000Z</time>
      </trkpt>
      <trkpt lat="43.46453" lon="2.2892">
        <ele>925.1</ele>
        <time>2017-06-01T08:35:08.000Z</time>
      </trkpt>
      <trkpt lat="43.46453" lon="2.28916">
        <ele>925.4</ele>
        <time>2017-06-01T08:35:09.000Z</time>
      </trkpt>
      <trkpt lat="43.46456" lon="2.28907">
        <ele>926.2</ele>
        <time>2017-06-01T08:35:10.000Z</time>
      </trkpt>
      <trkpt lat="43.46462" lon="2.28903">
        <ele>926.9</ele>
        <time>2017-06-01T08:35:12.000Z</time>
      </trkpt>
      <trkpt lat="43.46465" lon="2.28899">
        <ele>927.4</ele>
        <time>2017-06-01T08:35:15.000Z</time>
      </trkpt>
      <trkpt lat="43.46463" lon="2.28895">
        <ele>927.8</ele>
        <time>2017-06-01T08:35:16.000Z</time>
      </trkpt>
      <trkpt lat="43.46469" lon="2.28894">
        <ele>928.4</ele>
        <time>2017-06-01T08:35:17.000Z</time>
      </trkpt>
      <trkpt lat="43.46468" lon="2.2889">
        <ele>928.8</ele>
        <time>2017-06-01T08:35:18.000Z</time>
      </trkpt>
      <trkpt lat="43.46471" lon="2.28888">
        <ele>929.2</ele>
        <time>2017-06-01T08:35:19.000Z</time>
      </trkpt>
      <trkpt lat="43.46476" lon="2.28892">
        <ele>930.2</ele>
        <time>2017-06-01T08:35:20.000Z</time>
      </trkpt>
      <trkpt lat="43.46478" lon="2.28888">
        <ele>930.8</ele>
        <time>2017-06-01T08:35:22.000Z</time>
      </trkpt>
      <trkpt lat="43.46483" lon="2.28886">
        <ele>930.2</ele>
        <time>2017-06-01T08:35:25.000Z</time>
      </trkpt>
      <trkpt lat="43.46486" lon="2.28885">
        <ele>929.8</ele>
        <time>2017-06-01T08:35:26.000Z</time>
      </trkpt>
      <trkpt lat="43.46491" lon="2.28886">
        <ele>929.2</ele>
        <time>2017-06-01T08:35:28.000Z</time>
      </trkpt>
      <trkpt lat="43.46497" lon="2.2888">
        <ele>928.2</ele>
        <time>2017-06-01T08:35:30.000Z</time>
      </trkpt>
      <trkpt lat="43.46502" lon="2.28877">
        <ele>927.3</ele>
        <time>2017-06-01T08:35:32.000Z</time>
      </trkpt>
      <trkpt lat="43.46508" lon="2.28872">
        <ele>926.3</ele>
        <time>2017-06-01T08:35:33.000Z</time>
      </trkpt>
      <trkpt lat="43.46513" lon="2.28869">
        <ele>925.9</ele>
        <time>2017-06-01T08:35:34.000Z</time>
      </trkpt>
      <trkpt lat="43.46516" lon="2.28858">
        <ele>925.3</ele>
        <time>2017-06-01T08:35:35.000Z</time>
      </trkpt>
      <trkpt lat="43.46518" lon="2.28855">
        <ele>925.1</ele>
        <time>2017-06-01T08:35:36.000Z</time>
      </trkpt>
      <trkpt lat="43.46524" lon="2.28859">
        <ele>924.6</ele>
        <time>2017-06-01T08:35:37.000Z</time>
      </trkpt>
      <trkpt lat="43.46529" lon="2.28851">
        <ele>924</ele>
        <time>2017-06-01T08:35:38.000Z</time>
      </trkpt>
      <trkpt lat="43.46531" lon="2.28847">
        <ele>923.6</ele>
        <time>2017-06-01T08:35:39.000Z</time>
      </trkpt>
      <trkpt lat="43.46535" lon="2.28843">
        <ele>923.1</ele>
        <time>2017-06-01T08:35:40.000Z</time>
      </trkpt>
      <trkpt lat="43.46542" lon="2.28838">
        <ele>922.8</ele>
        <time>2017-06-01T08:35:41.000Z</time>
      </trkpt>
      <trkpt lat="43.46548" lon="2.28836">
        <ele>922.6</ele>
        <time>2017-06-01T08:35:42.000Z</time>
      </trkpt>
      <trkpt lat="43.46553" lon="2.2883">
        <ele>922.3</ele>
        <time>2017-06-01T08:35:43.000Z</time>
      </trkpt>
      <trkpt lat="43.46558" lon="2.28826">
        <ele>922.2</ele>
        <time>2017-06-01T08:35:44.000Z</time>
      </trkpt>
      <trkpt lat="43.4656" lon="2.28823">
        <ele>922</ele>
        <time>2017-06-01T08:35:45.000Z</time>
      </trkpt>
      <trkpt lat="43.46566" lon="2.28824">
        <ele>921.8</ele>
        <time>2017-06-01T08:35:47.000Z</time>
      </trkpt>
      <trkpt lat="43.4657" lon="2.28822">
        <ele>921.7</ele>
        <time>2017-06-01T08:35:48.000Z</time>
      </trkpt>
      <trkpt lat="43.46576" lon="2.28816">
        <ele>923.4</ele>
        <time>2017-06-01T08:35:50.000Z</time>
      </trkpt>
      <trkpt lat="43.46578" lon="2.28811">
        <ele>925.4</ele>
        <time>2017-06-01T08:35:51.000Z</time>
      </trkpt>
      <trkpt lat="43.46582" lon="2.2881">
        <ele>924.4</ele>
        <time>2017-06-01T08:35:52.000Z</time>
      </trkpt>
      <trkpt lat="43.46586" lon="2.28809">
        <ele>924.4</ele>
        <time>2017-06-01T08:35:54.000Z</time>
      </trkpt>
      <trkpt lat="43.46592" lon="2.2881">
        <ele>923.7</ele>
        <time>2017-06-01T08:35:55.000Z</time>
      </trkpt>
      <trkpt lat="43.46595" lon="2.28805">
        <ele>924.7</ele>
        <time>2017-06-01T08:35:57.000Z</time>
      </trkpt>
      <trkpt lat="43.46597" lon="2.28802">
        <ele>924.1</ele>
        <time>2017-06-01T08:35:58.000Z</time>
      </trkpt>
      <trkpt lat="43.46601" lon="2.28798">
        <ele>923.1</ele>
        <time>2017-06-01T08:36:01.000Z</time>
      </trkpt>
      <trkpt lat="43.46604" lon="2.28799">
        <ele>922.3</ele>
        <time>2017-06-01T08:36:02.000Z</time>
      </trkpt>
      <trkpt lat="43.4661" lon="2.28797">
        <ele>920.9</ele>
        <time>2017-06-01T08:36:03.000Z</time>
      </trkpt>
      <trkpt lat="43.46613" lon="2.28799">
        <ele>920.4</ele>
        <time>2017-06-01T08:36:05.000Z</time>
      </trkpt>
      <trkpt lat="43.46615" lon="2.28796">
        <ele>919.9</ele>
        <time>2017-06-01T08:36:06.000Z</time>
      </trkpt>
      <trkpt lat="43.46621" lon="2.2876">
        <ele>916.4</ele>
        <time>2017-06-01T08:36:08.000Z</time>
      </trkpt>
      <trkpt lat="43.46625" lon="2.28761">
        <ele>916.3</ele>
        <time>2017-06-01T08:36:09.000Z</time>
      </trkpt>
      <trkpt lat="43.46632" lon="2.28768">
        <ele>915.9</ele>
        <time>2017-06-01T08:36:11.000Z</time>
      </trkpt>
      <trkpt lat="43.46636" lon="2.28766">
        <ele>915.7</ele>
        <time>2017-06-01T08:36:12.000Z</time>
      </trkpt>
      <trkpt lat="43.46638" lon="2.2876">
        <ele>915.5</ele>
        <time>2017-06-01T08:36:14.000Z</time>
      </trkpt>
      <trkpt lat="43.46641" lon="2.28753">
        <ele>915.3</ele>
        <time>2017-06-01T08:36:16.000Z</time>
      </trkpt>
      <trkpt lat="43.46645" lon="2.2875">
        <ele>915.2</ele>
        <time>2017-06-01T08:36:17.000Z</time>
      </trkpt>
      <trkpt lat="43.4665" lon="2.28748">
        <ele>915</ele>
        <time>2017-06-01T08:36:18.000Z</time>
      </trkpt>
      <trkpt lat="43.46654" lon="2.28747">
        <ele>914.9</ele>
        <time>2017-06-01T08:36:19.000Z</time>
      </trkpt>
      <trkpt lat="43.46657" lon="2.28739">
        <ele>916.2</ele>
        <time>2017-06-01T08:36:21.000Z</time>
      </trkpt>
      <trkpt lat="43.46659" lon="2.28742">
        <ele>917.1</ele>
        <time>2017-06-01T08:36:22.000Z</time>
      </trkpt>
      <trkpt lat="43.46659" lon="2.28737">
        <ele>917</ele>
        <time>2017-06-01T08:36:24.000Z</time>
      </trkpt>
      <trkpt lat="43.46661" lon="2.28733">
        <ele>916.9</ele>
        <time>2017-06-01T08:36:25.000Z</time>
      </trkpt>
      <trkpt lat="43.46669" lon="2.28727">
        <ele>916.7</ele>
        <time>2017-06-01T08:36:34.000Z</time>
      </trkpt>
      <trkpt lat="43.46664" lon="2.2872">
        <ele>916.5</ele>
        <time>2017-06-01T08:36:37.000Z</time>
      </trkpt>
      <trkpt lat="43.46661" lon="2.28726">
        <ele>916.3</ele>
        <time>2017-06-01T08:36:38.000Z</time>
      </trkpt>
      <trkpt lat="43.46667" lon="2.28717">
        <ele>916.1</ele>
        <time>2017-06-01T08:36:39.000Z</time>
      </trkpt>
      <trkpt lat="43.46674" lon="2.28713">
        <ele>915.8</ele>
        <time>2017-06-01T08:36:41.000Z</time>
      </trkpt>
      <trkpt lat="43.46671" lon="2.28714">
        <ele>915.9</ele>
        <time>2017-06-01T08:36:42.000Z</time>
      </trkpt>
      <trkpt lat="43.4667" lon="2.28721">
        <ele>916.1</ele>
        <time>2017-06-01T08:36:45.000Z</time>
      </trkpt>
      <trkpt lat="43.46674" lon="2.28725">
        <ele>916.2</ele>
        <time>2017-06-01T08:36:48.000Z</time>
      </trkpt>
      <trkpt lat="43.46676" lon="2.28728">
        <ele>916.3</ele>
        <time>2017-06-01T08:36:50.000Z</time>
      </trkpt>
      <trkpt lat="43.46672" lon="2.28725">
        <ele>916.3</ele>
        <time>2017-06-01T08:36:51.000Z</time>
      </trkpt>
      <trkpt lat="43.46671" lon="2.28722">
        <ele>916.2</ele>
        <time>2017-06-01T08:37:16.000Z</time>
      </trkpt>
      <trkpt lat="43.4667" lon="2.28715">
        <ele>916</ele>
        <time>2017-06-01T08:37:18.000Z</time>
      </trkpt>
      <trkpt lat="43.46669" lon="2.28709">
        <ele>915.8</ele>
        <time>2017-06-01T08:37:21.000Z</time>
      </trkpt>
      <trkpt lat="43.46669" lon="2.28707">
        <ele>915.8</ele>
        <time>2017-06-01T08:37:24.000Z</time>
      </trkpt>
      <trkpt lat="43.4667" lon="2.28706">
        <ele>915.7</ele>
        <time>2017-06-01T08:37:37.000Z</time>
      </trkpt>
      <trkpt lat="43.4667" lon="2.28705">
        <ele>915.7</ele>
        <time>2017-06-01T08:38:17.000Z</time>
      </trkpt>
      <trkpt lat="43.4667" lon="2.28704">
        <ele>915.7</ele>
        <time>2017-06-01T08:38:18.000Z</time>
      </trkpt>
      <trkpt lat="43.46672" lon="2.287">
        <ele>915.6</ele>
        <time>2017-06-01T08:38:19.000Z</time>
      </trkpt>
      <trkpt lat="43.4667" lon="2.28696">
        <ele>915.5</ele>
        <time>2017-06-01T08:38:20.000Z</time>
      </trkpt>
      <trkpt lat="43.46676" lon="2.28687">
        <ele>915.1</ele>
        <time>2017-06-01T08:38:21.000Z</time>
      </trkpt>
      <trkpt lat="43.46676" lon="2.28676">
        <ele>914.8</ele>
        <time>2017-06-01T08:38:22.000Z</time>
      </trkpt>
      <trkpt lat="43.46676" lon="2.28672">
        <ele>914.8</ele>
        <time>2017-06-01T08:38:23.000Z</time>
      </trkpt>
      <trkpt lat="43.46678" lon="2.28667">
        <ele>914.7</ele>
        <time>2017-06-01T08:38:24.000Z</time>
      </trkpt>
      <trkpt lat="43.4668" lon="2.28662">
        <ele>914.6</ele>
        <time>2017-06-01T08:38:25.000Z</time>
      </trkpt>
      <trkpt lat="43.46672" lon="2.28656">
        <ele>914.4</ele>
        <time>2017-06-01T08:38:26.000Z</time>
      </trkpt>
      <trkpt lat="43.46674" lon="2.28647">
        <ele>914.2</ele>
        <time>2017-06-01T08:38:27.000Z</time>
      </trkpt>
      <trkpt lat="43.46675" lon="2.28643">
        <ele>914.1</ele>
        <time>2017-06-01T08:38:28.000Z</time>
      </trkpt>
      <trkpt lat="43.46672" lon="2.28636">
        <ele>913.9</ele>
        <time>2017-06-01T08:38:29.000Z</time>
      </trkpt>
      <trkpt lat="43.46673" lon="2.28631">
        <ele>913.7</ele>
        <time>2017-06-01T08:38:31.000Z</time>
      </trkpt>
      <trkpt lat="43.46686" lon="2.28595">
        <ele>912.7</ele>
        <time>2017-06-01T08:38:44.000Z</time>
      </trkpt>
      <trkpt lat="43.46684" lon="2.28588">
        <ele>912.6</ele>
        <time>2017-06-01T08:38:45.000Z</time>
      </trkpt>
      <trkpt lat="43.46682" lon="2.28583">
        <ele>912.4</ele>
        <time>2017-06-01T08:38:48.000Z</time>
      </trkpt>
      <trkpt lat="43.46685" lon="2.2858">
        <ele>912.3</ele>
        <time>2017-06-01T08:38:50.000Z</time>
      </trkpt>
      <trkpt lat="43.46686" lon="2.28576">
        <ele>912.2</ele>
        <time>2017-06-01T08:38:54.000Z</time>
      </trkpt>
      <trkpt lat="43.46686" lon="2.28571">
        <ele>912.1</ele>
        <time>2017-06-01T08:38:55.000Z</time>
      </trkpt>
      <trkpt lat="43.46687" lon="2.28566">
        <ele>912</ele>
        <time>2017-06-01T08:38:56.000Z</time>
      </trkpt>
      <trkpt lat="43.46683" lon="2.28568">
        <ele>914.9</ele>
        <time>2017-06-01T08:38:58.000Z</time>
      </trkpt>
      <trkpt lat="43.46676" lon="2.28565">
        <ele>916.6</ele>
        <time>2017-06-01T08:38:59.000Z</time>
      </trkpt>
      <trkpt lat="43.46669" lon="2.28561">
        <ele>918.2</ele>
        <time>2017-06-01T08:39:02.000Z</time>
      </trkpt>
      <trkpt lat="43.46669" lon="2.28554">
        <ele>919.3</ele>
        <time>2017-06-01T08:39:03.000Z</time>
      </trkpt>
      <trkpt lat="43.46667" lon="2.2855">
        <ele>920</ele>
        <time>2017-06-01T08:39:04.000Z</time>
      </trkpt>
      <trkpt lat="43.46666" lon="2.28547">
        <ele>920.7</ele>
        <time>2017-06-01T08:39:06.000Z</time>
      </trkpt>
      <trkpt lat="43.46662" lon="2.28542">
        <ele>922</ele>
        <time>2017-06-01T08:39:08.000Z</time>
      </trkpt>
      <trkpt lat="43.46657" lon="2.28544">
        <ele>923.2</ele>
        <time>2017-06-01T08:39:09.000Z</time>
      </trkpt>
      <trkpt lat="43.46657" lon="2.28537">
        <ele>924.3</ele>
        <time>2017-06-01T08:39:11.000Z</time>
      </trkpt>
      <trkpt lat="43.46652" lon="2.28535">
        <ele>925.7</ele>
        <time>2017-06-01T08:39:13.000Z</time>
      </trkpt>
      <trkpt lat="43.46649" lon="2.28532">
        <ele>926.4</ele>
        <time>2017-06-01T08:39:15.000Z</time>
      </trkpt>
      <trkpt lat="43.46648" lon="2.28536">
        <ele>931</ele>
        <time>2017-06-01T08:39:18.000Z</time>
      </trkpt>
      <trkpt lat="43.46642" lon="2.28416">
        <ele>926.3</ele>
        <time>2017-06-01T08:39:39.000Z</time>
      </trkpt>
      <trkpt lat="43.46635" lon="2.28423">
        <ele>927.9</ele>
        <time>2017-06-01T08:39:41.000Z</time>
      </trkpt>
      <trkpt lat="43.46638" lon="2.28422">
        <ele>927.8</ele>
        <time>2017-06-01T08:39:44.000Z</time>
      </trkpt>
      <trkpt lat="43.46643" lon="2.28422">
        <ele>927.7</ele>
        <time>2017-06-01T08:39:46.000Z</time>
      </trkpt>
      <trkpt lat="43.4664" lon="2.2843">
        <ele>928.7</ele>
        <time>2017-06-01T08:39:47.000Z</time>
      </trkpt>
      <trkpt lat="43.46632" lon="2.28439">
        <ele>931.2</ele>
        <time>2017-06-01T08:39:48.000Z</time>
      </trkpt>
      <trkpt lat="43.46636" lon="2.28434">
        <ele>930.5</ele>
        <time>2017-06-01T08:39:49.000Z</time>
      </trkpt>
      <trkpt lat="43.46629" lon="2.28438">
        <ele>932</ele>
        <time>2017-06-01T08:39:52.000Z</time>
      </trkpt>
      <trkpt lat="43.46631" lon="2.28423">
        <ele>930.9</ele>
        <time>2017-06-01T08:39:54.000Z</time>
      </trkpt>
      <trkpt lat="43.46635" lon="2.28405">
        <ele>929.2</ele>
        <time>2017-06-01T08:39:56.000Z</time>
      </trkpt>
      <trkpt lat="43.46644" lon="2.28377">
        <ele>925.4</ele>
        <time>2017-06-01T08:39:57.000Z</time>
      </trkpt>
      <trkpt lat="43.46618" lon="2.28382">
        <ele>930.9</ele>
        <time>2017-06-01T08:39:58.000Z</time>
      </trkpt>
      <trkpt lat="43.46605" lon="2.28387">
        <ele>933.1</ele>
        <time>2017-06-01T08:39:59.000Z</time>
      </trkpt>
      <trkpt lat="43.46599" lon="2.28393">
        <ele>933.2</ele>
        <time>2017-06-01T08:40:00.000Z</time>
      </trkpt>
      <trkpt lat="43.46586" lon="2.28393">
        <ele>933.3</ele>
        <time>2017-06-01T08:40:02.000Z</time>
      </trkpt>
      <trkpt lat="43.46584" lon="2.2839">
        <ele>933.4</ele>
        <time>2017-06-01T08:40:03.000Z</time>
      </trkpt>
      <trkpt lat="43.46582" lon="2.28383">
        <ele>933.4</ele>
        <time>2017-06-01T08:40:05.000Z</time>
      </trkpt>
      <trkpt lat="43.4658" lon="2.2838">
        <ele>933.5</ele>
        <time>2017-06-01T08:40:08.000Z</time>
      </trkpt>
      <trkpt lat="43.46578" lon="2.28377">
        <ele>933.5</ele>
        <time>2017-06-01T08:40:10.000Z</time>
      </trkpt>
      <trkpt lat="43.46576" lon="2.28374">
        <ele>933.6</ele>
        <time>2017-06-01T08:40:13.000Z</time>
      </trkpt>
      <trkpt lat="43.46574" lon="2.28371">
        <ele>933.6</ele>
        <time>2017-06-01T08:40:15.000Z</time>
      </trkpt>
      <trkpt lat="43.46569" lon="2.28375">
        <ele>933.7</ele>
        <time>2017-06-01T08:40:16.000Z</time>
      </trkpt>
      <trkpt lat="43.46558" lon="2.28367">
        <ele>934</ele>
        <time>2017-06-01T08:40:17.000Z</time>
      </trkpt>
      <trkpt lat="43.46567" lon="2.2835">
        <ele>934.4</ele>
        <time>2017-06-01T08:40:18.000Z</time>
      </trkpt>
      <trkpt lat="43.46564" lon="2.28347">
        <ele>934.5</ele>
        <time>2017-06-01T08:40:19.000Z</time>
      </trkpt>
      <trkpt lat="43.46554" lon="2.28344">
        <ele>934.7</ele>
        <time>2017-06-01T08:40:20.000Z</time>
      </trkpt>
      <trkpt lat="43.46552" lon="2.28343">
        <ele>934.8</ele>
        <time>2017-06-01T08:40:23.000Z</time>
      </trkpt>
      <trkpt lat="43.46552" lon="2.28333">
        <ele>935</ele>
        <time>2017-06-01T08:40:25.000Z</time>
      </trkpt>
      <trkpt lat="43.46557" lon="2.28328">
        <ele>935.2</ele>
        <time>2017-06-01T08:40:26.000Z</time>
      </trkpt>
      <trkpt lat="43.46553" lon="2.28331">
        <ele>935.4</ele>
        <time>2017-06-01T08:40:27.000Z</time>
      </trkpt>
      <trkpt lat="43.46549" lon="2.28328">
        <ele>935.6</ele>
        <time>2017-06-01T08:40:29.000Z</time>
      </trkpt>
      <trkpt lat="43.46543" lon="2.28328">
        <ele>935.9</ele>
        <time>2017-06-01T08:40:31.000Z</time>
      </trkpt>
      <trkpt lat="43.46537" lon="2.28326">
        <ele>936.1</ele>
        <time>2017-06-01T08:40:33.000Z</time>
      </trkpt>
      <trkpt lat="43.46529" lon="2.28327">
        <ele>936.4</ele>
        <time>2017-06-01T08:40:35.000Z</time>
      </trkpt>
      <trkpt lat="43.46526" lon="2.28321">
        <ele>936.6</ele>
        <time>2017-06-01T08:40:37.000Z</time>
      </trkpt>
      <trkpt lat="43.46521" lon="2.28321">
        <ele>936.8</ele>
        <time>2017-06-01T08:40:38.000Z</time>
      </trkpt>
      <trkpt lat="43.46523" lon="2.28315">
        <ele>936.9</ele>
        <time>2017-06-01T08:40:40.000Z</time>
      </trkpt>
      <trkpt lat="43.46525" lon="2.28309">
        <ele>937.1</ele>
        <time>2017-06-01T08:40:41.000Z</time>
      </trkpt>
      <trkpt lat="43.46524" lon="2.28304">
        <ele>937.2</ele>
        <time>2017-06-01T08:40:42.000Z</time>
      </trkpt>
      <trkpt lat="43.46523" lon="2.28299">
        <ele>937.3</ele>
        <time>2017-06-01T08:40:43.000Z</time>
      </trkpt>
      <trkpt lat="43.46521" lon="2.28295">
        <ele>937.4</ele>
        <time>2017-06-01T08:40:44.000Z</time>
      </trkpt>
      <trkpt lat="43.46514" lon="2.28291">
        <ele>937.6</ele>
        <time>2017-06-01T08:40:46.000Z</time>
      </trkpt>
      <trkpt lat="43.46509" lon="2.28293">
        <ele>937.7</ele>
        <time>2017-06-01T08:40:47.000Z</time>
      </trkpt>
      <trkpt lat="43.46504" lon="2.28287">
        <ele>937.9</ele>
        <time>2017-06-01T08:40:48.000Z</time>
      </trkpt>
      <trkpt lat="43.46507" lon="2.28286">
        <ele>937.9</ele>
        <time>2017-06-01T08:40:49.000Z</time>
      </trkpt>
      <trkpt lat="43.46507" lon="2.28282">
        <ele>938</ele>
        <time>2017-06-01T08:40:50.000Z</time>
      </trkpt>
      <trkpt lat="43.46508" lon="2.28278">
        <ele>938.1</ele>
        <time>2017-06-01T08:40:51.000Z</time>
      </trkpt>
      <trkpt lat="43.46507" lon="2.28273">
        <ele>938.2</ele>
        <time>2017-06-01T08:40:53.000Z</time>
      </trkpt>
      <trkpt lat="43.46502" lon="2.2827">
        <ele>938.3</ele>
        <time>2017-06-01T08:40:54.000Z</time>
      </trkpt>
      <trkpt lat="43.465" lon="2.28268">
        <ele>938.4</ele>
        <time>2017-06-01T08:40:55.000Z</time>
      </trkpt>
      <trkpt lat="43.46498" lon="2.28266">
        <ele>938.5</ele>
        <time>2017-06-01T08:40:56.000Z</time>
      </trkpt>
      <trkpt lat="43.46495" lon="2.28261">
        <ele>938.6</ele>
        <time>2017-06-01T08:40:58.000Z</time>
      </trkpt>
      <trkpt lat="43.46496" lon="2.28254">
        <ele>938.7</ele>
        <time>2017-06-01T08:41:04.000Z</time>
      </trkpt>
      <trkpt lat="43.46456" lon="2.28211">
        <ele>939.6</ele>
        <time>2017-06-01T08:41:13.000Z</time>
      </trkpt>
      <trkpt lat="43.46456" lon="2.28205">
        <ele>939.7</ele>
        <time>2017-06-01T08:41:14.000Z</time>
      </trkpt>
      <trkpt lat="43.46457" lon="2.282">
        <ele>939.8</ele>
        <time>2017-06-01T08:41:15.000Z</time>
      </trkpt>
      <trkpt lat="43.4646" lon="2.28194">
        <ele>939.9</ele>
        <time>2017-06-01T08:41:17.000Z</time>
      </trkpt>
      <trkpt lat="43.46458" lon="2.28191">
        <ele>940</ele>
        <time>2017-06-01T08:41:18.000Z</time>
      </trkpt>
      <trkpt lat="43.46455" lon="2.28194">
        <ele>940</ele>
        <time>2017-06-01T08:41:19.000Z</time>
      </trkpt>
      <trkpt lat="43.46447" lon="2.28193">
        <ele>940.1</ele>
        <time>2017-06-01T08:41:20.000Z</time>
      </trkpt>
      <trkpt lat="43.46451" lon="2.28183">
        <ele>940.3</ele>
        <time>2017-06-01T08:41:21.000Z</time>
      </trkpt>
      <trkpt lat="43.46447" lon="2.28183">
        <ele>940.3</ele>
        <time>2017-06-01T08:41:23.000Z</time>
      </trkpt>
      <trkpt lat="43.46449" lon="2.28179">
        <ele>940.3</ele>
        <time>2017-06-01T08:41:24.000Z</time>
      </trkpt>
      <trkpt lat="43.46451" lon="2.28173">
        <ele>940.4</ele>
        <time>2017-06-01T08:41:25.000Z</time>
      </trkpt>
      <trkpt lat="43.4644" lon="2.28174">
        <ele>940.6</ele>
        <time>2017-06-01T08:41:26.000Z</time>
      </trkpt>
      <trkpt lat="43.46435" lon="2.28175">
        <ele>940.7</ele>
        <time>2017-06-01T08:41:27.000Z</time>
      </trkpt>
      <trkpt lat="43.46429" lon="2.28179">
        <ele>940.8</ele>
        <time>2017-06-01T08:41:28.000Z</time>
      </trkpt>
      <trkpt lat="43.46424" lon="2.28176">
        <ele>940.9</ele>
        <time>2017-06-01T08:41:29.000Z</time>
      </trkpt>
      <trkpt lat="43.46424" lon="2.2817">
        <ele>941</ele>
        <time>2017-06-01T08:41:30.000Z</time>
      </trkpt>
      <trkpt lat="43.46432" lon="2.28156">
        <ele>941.2</ele>
        <time>2017-06-01T08:41:31.000Z</time>
      </trkpt>
      <trkpt lat="43.46434" lon="2.28152">
        <ele>941.2</ele>
        <time>2017-06-01T08:41:32.000Z</time>
      </trkpt>
      <trkpt lat="43.46435" lon="2.28146">
        <ele>941.3</ele>
        <time>2017-06-01T08:41:33.000Z</time>
      </trkpt>
      <trkpt lat="43.46429" lon="2.28141">
        <ele>941.4</ele>
        <time>2017-06-01T08:41:35.000Z</time>
      </trkpt>
      <trkpt lat="43.46429" lon="2.28136">
        <ele>941.4</ele>
        <time>2017-06-01T08:41:36.000Z</time>
      </trkpt>
      <trkpt lat="43.46425" lon="2.28135">
        <ele>941.4</ele>
        <time>2017-06-01T08:41:37.000Z</time>
      </trkpt>
      <trkpt lat="43.46433" lon="2.28126">
        <ele>941.5</ele>
        <time>2017-06-01T08:41:38.000Z</time>
      </trkpt>
      <trkpt lat="43.46433" lon="2.28118">
        <ele>941.6</ele>
        <time>2017-06-01T08:41:39.000Z</time>
      </trkpt>
      <trkpt lat="43.46428" lon="2.28114">
        <ele>941.7</ele>
        <time>2017-06-01T08:41:40.000Z</time>
      </trkpt>
      <trkpt lat="43.46433" lon="2.28104">
        <ele>941.9</ele>
        <time>2017-06-01T08:41:41.000Z</time>
      </trkpt>
      <trkpt lat="43.46426" lon="2.28105">
        <ele>942</ele>
        <time>2017-06-01T08:41:42.000Z</time>
      </trkpt>
      <trkpt lat="43.46428" lon="2.281">
        <ele>942</ele>
        <time>2017-06-01T08:41:43.000Z</time>
      </trkpt>
      <trkpt lat="43.46418" lon="2.28102">
        <ele>942.2</ele>
        <time>2017-06-01T08:41:46.000Z</time>
      </trkpt>
      <trkpt lat="43.46421" lon="2.28096">
        <ele>942.3</ele>
        <time>2017-06-01T08:41:47.000Z</time>
      </trkpt>
      <trkpt lat="43.46418" lon="2.28094">
        <ele>942.4</ele>
        <time>2017-06-01T08:41:48.000Z</time>
      </trkpt>
      <trkpt lat="43.46414" lon="2.2809">
        <ele>942.5</ele>
        <time>2017-06-01T08:41:50.000Z</time>
      </trkpt>
      <trkpt lat="43.46415" lon="2.28086">
        <ele>942.6</ele>
        <time>2017-06-01T08:41:51.000Z</time>
      </trkpt>
      <trkpt lat="43.46416" lon="2.2808">
        <ele>942.7</ele>
        <time>2017-06-01T08:41:53.000Z</time>
      </trkpt>
      <trkpt lat="43.46414" lon="2.28069">
        <ele>942.9</ele>
        <time>2017-06-01T08:41:55.000Z</time>
      </trkpt>
      <trkpt lat="43.46417" lon="2.28063">
        <ele>943</ele>
        <time>2017-06-01T08:41:56.000Z</time>
      </trkpt>
      <trkpt lat="43.46422" lon="2.28062">
        <ele>943.2</ele>
        <time>2017-06-01T08:41:57.000Z</time>
      </trkpt>
      <trkpt lat="43.46424" lon="2.28057">
        <ele>943.3</ele>
        <time>2017-06-01T08:41:58.000Z</time>
      </trkpt>
      <trkpt lat="43.46421" lon="2.2805">
        <ele>943.4</ele>
        <time>2017-06-01T08:42:00.000Z</time>
      </trkpt>
      <trkpt lat="43.46418" lon="2.28051">
        <ele>943.5</ele>
        <time>2017-06-01T08:42:01.000Z</time>
      </trkpt>
      <trkpt lat="43.46421" lon="2.28045">
        <ele>943.7</ele>
        <time>2017-06-01T08:42:03.000Z</time>
      </trkpt>
      <trkpt lat="43.46422" lon="2.28041">
        <ele>943.8</ele>
        <time>2017-06-01T08:42:04.000Z</time>
      </trkpt>
      <trkpt lat="43.46417" lon="2.28037">
        <ele>943.9</ele>
        <time>2017-06-01T08:42:06.000Z</time>
      </trkpt>
      <trkpt lat="43.46414" lon="2.28034">
        <ele>944</ele>
        <time>2017-06-01T08:42:07.000Z</time>
      </trkpt>
      <trkpt lat="43.4642" lon="2.2803">
        <ele>944.1</ele>
        <time>2017-06-01T08:42:09.000Z</time>
      </trkpt>
      <trkpt lat="43.46423" lon="2.28024">
        <ele>944.3</ele>
        <time>2017-06-01T08:42:10.000Z</time>
      </trkpt>
      <trkpt lat="43.46425" lon="2.28021">
        <ele>944.4</ele>
        <time>2017-06-01T08:42:12.000Z</time>
      </trkpt>
      <trkpt lat="43.46429" lon="2.27968">
        <ele>945.2</ele>
        <time>2017-06-01T08:42:28.000Z</time>
      </trkpt>
      <trkpt lat="43.46433" lon="2.27961">
        <ele>945.3</ele>
        <time>2017-06-01T08:42:29.000Z</time>
      </trkpt>
      <trkpt lat="43.46438" lon="2.27957">
        <ele>945.3</ele>
        <time>2017-06-01T08:42:30.000Z</time>
      </trkpt>
      <trkpt lat="43.46444" lon="2.27956">
        <ele>945.4</ele>
        <time>2017-06-01T08:42:31.000Z</time>
      </trkpt>
      <trkpt lat="43.46446" lon="2.27954">
        <ele>945.5</ele>
        <time>2017-06-01T08:42:32.000Z</time>
      </trkpt>
      <trkpt lat="43.46451" lon="2.2795">
        <ele>945.6</ele>
        <time>2017-06-01T08:42:34.000Z</time>
      </trkpt>
      <trkpt lat="43.46452" lon="2.27945">
        <ele>945.7</ele>
        <time>2017-06-01T08:42:35.000Z</time>
      </trkpt>
      <trkpt lat="43.46455" lon="2.27942">
        <ele>945.8</ele>
        <time>2017-06-01T08:42:36.000Z</time>
      </trkpt>
      <trkpt lat="43.4646" lon="2.27938">
        <ele>945.9</ele>
        <time>2017-06-01T08:42:37.000Z</time>
      </trkpt>
      <trkpt lat="43.46463" lon="2.27932">
        <ele>945.9</ele>
        <time>2017-06-01T08:42:38.000Z</time>
      </trkpt>
      <trkpt lat="43.46467" lon="2.27935">
        <ele>946</ele>
        <time>2017-06-01T08:42:39.000Z</time>
      </trkpt>
      <trkpt lat="43.46474" lon="2.27939">
        <ele>946.1</ele>
        <time>2017-06-01T08:42:41.000Z</time>
      </trkpt>
      <trkpt lat="43.46478" lon="2.27938">
        <ele>946.1</ele>
        <time>2017-06-01T08:42:42.000Z</time>
      </trkpt>
      <trkpt lat="43.46482" lon="2.27935">
        <ele>946.2</ele>
        <time>2017-06-01T08:42:44.000Z</time>
      </trkpt>
      <trkpt lat="43.46488" lon="2.27931">
        <ele>946.2</ele>
        <time>2017-06-01T08:42:46.000Z</time>
      </trkpt>
      <trkpt lat="43.46489" lon="2.27941">
        <ele>946.3</ele>
        <time>2017-06-01T08:42:47.000Z</time>
      </trkpt>
      <trkpt lat="43.46488" lon="2.27922">
        <ele>946.5</ele>
        <time>2017-06-01T08:42:48.000Z</time>
      </trkpt>
      <trkpt lat="43.46484" lon="2.27914">
        <ele>946.6</ele>
        <time>2017-06-01T08:42:49.000Z</time>
      </trkpt>
      <trkpt lat="43.46484" lon="2.27904">
        <ele>946.7</ele>
        <time>2017-06-01T08:42:51.000Z</time>
      </trkpt>
      <trkpt lat="43.46486" lon="2.27898">
        <ele>946.7</ele>
        <time>2017-06-01T08:42:52.000Z</time>
      </trkpt>
      <trkpt lat="43.46492" lon="2.27905">
        <ele>946.8</ele>
        <time>2017-06-01T08:42:54.000Z</time>
      </trkpt>
      <trkpt lat="43.46491" lon="2.27901">
        <ele>946.8</ele>
        <time>2017-06-01T08:42:55.000Z</time>
      </trkpt>
      <trkpt lat="43.46494" lon="2.27903">
        <ele>946.9</ele>
        <time>2017-06-01T08:42:56.000Z</time>
      </trkpt>
      <trkpt lat="43.46493" lon="2.27898">
        <ele>946.9</ele>
        <time>2017-06-01T08:42:58.000Z</time>
      </trkpt>
      <trkpt lat="43.46497" lon="2.27886">
        <ele>947</ele>
        <time>2017-06-01T08:43:00.000Z</time>
      </trkpt>
      <trkpt lat="43.46498" lon="2.27883">
        <ele>947.1</ele>
        <time>2017-06-01T08:43:01.000Z</time>
      </trkpt>
      <trkpt lat="43.46498" lon="2.27878">
        <ele>947.1</ele>
        <time>2017-06-01T08:43:03.000Z</time>
      </trkpt>
      <trkpt lat="43.46494" lon="2.27874">
        <ele>947.2</ele>
        <time>2017-06-01T08:43:05.000Z</time>
      </trkpt>
      <trkpt lat="43.4649" lon="2.27874">
        <ele>947.2</ele>
        <time>2017-06-01T08:43:06.000Z</time>
      </trkpt>
      <trkpt lat="43.46486" lon="2.27874">
        <ele>947.2</ele>
        <time>2017-06-01T08:43:07.000Z</time>
      </trkpt>
      <trkpt lat="43.46489" lon="2.27872">
        <ele>947.2</ele>
        <time>2017-06-01T08:43:08.000Z</time>
      </trkpt>
      <trkpt lat="43.46491" lon="2.27863">
        <ele>947.3</ele>
        <time>2017-06-01T08:43:09.000Z</time>
      </trkpt>
      <trkpt lat="43.46491" lon="2.27859">
        <ele>947.3</ele>
        <time>2017-06-01T08:43:10.000Z</time>
      </trkpt>
      <trkpt lat="43.46489" lon="2.27857">
        <ele>947.3</ele>
        <time>2017-06-01T08:43:11.000Z</time>
      </trkpt>
      <trkpt lat="43.46491" lon="2.27849">
        <ele>947.4</ele>
        <time>2017-06-01T08:43:13.000Z</time>
      </trkpt>
      <trkpt lat="43.4649" lon="2.27841">
        <ele>947.5</ele>
        <time>2017-06-01T08:43:16.000Z</time>
      </trkpt>
      <trkpt lat="43.46488" lon="2.27838">
        <ele>947.5</ele>
        <time>2017-06-01T08:43:17.000Z</time>
      </trkpt>
      <trkpt lat="43.4649" lon="2.27831">
        <ele>947.5</ele>
        <time>2017-06-01T08:43:18.000Z</time>
      </trkpt>
      <trkpt lat="43.46486" lon="2.27827">
        <ele>947.6</ele>
        <time>2017-06-01T08:43:20.000Z</time>
      </trkpt>
      <trkpt lat="43.46481" lon="2.2783">
        <ele>947.6</ele>
        <time>2017-06-01T08:43:21.000Z</time>
      </trkpt>
      <trkpt lat="43.46477" lon="2.27829">
        <ele>947.7</ele>
        <time>2017-06-01T08:43:22.000Z</time>
      </trkpt>
      <trkpt lat="43.46474" lon="2.27827">
        <ele>947.7</ele>
        <time>2017-06-01T08:43:23.000Z</time>
      </trkpt>
      <trkpt lat="43.46472" lon="2.27825">
        <ele>947.7</ele>
        <time>2017-06-01T08:43:24.000Z</time>
      </trkpt>
      <trkpt lat="43.46468" lon="2.27821">
        <ele>947.8</ele>
        <time>2017-06-01T08:43:26.000Z</time>
      </trkpt>
      <trkpt lat="43.46467" lon="2.27817">
        <ele>947.8</ele>
        <time>2017-06-01T08:43:27.000Z</time>
      </trkpt>
      <trkpt lat="43.46465" lon="2.27811">
        <ele>947.8</ele>
        <time>2017-06-01T08:43:28.000Z</time>
      </trkpt>
      <trkpt lat="43.46462" lon="2.2781">
        <ele>947.8</ele>
        <time>2017-06-01T08:43:29.000Z</time>
      </trkpt>
      <trkpt lat="43.4646" lon="2.27806">
        <ele>947.9</ele>
        <time>2017-06-01T08:43:31.000Z</time>
      </trkpt>
      <trkpt lat="43.46455" lon="2.27805">
        <ele>947.9</ele>
        <time>2017-06-01T08:43:33.000Z</time>
      </trkpt>
      <trkpt lat="43.46456" lon="2.278">
        <ele>948</ele>
        <time>2017-06-01T08:43:34.000Z</time>
      </trkpt>
      <trkpt lat="43.46453" lon="2.27797">
        <ele>948</ele>
        <time>2017-06-01T08:43:35.000Z</time>
      </trkpt>
      <trkpt lat="43.46451" lon="2.27795">
        <ele>948.1</ele>
        <time>2017-06-01T08:43:36.000Z</time>
      </trkpt>
      <trkpt lat="43.46449" lon="2.27791">
        <ele>948.1</ele>
        <time>2017-06-01T08:43:37.000Z</time>
      </trkpt>
      <trkpt lat="43.46446" lon="2.27789">
        <ele>948.2</ele>
        <time>2017-06-01T08:43:38.000Z</time>
      </trkpt>
      <trkpt lat="43.46441" lon="2.27791">
        <ele>948.3</ele>
        <time>2017-06-01T08:43:39.000Z</time>
      </trkpt>
      <trkpt lat="43.46436" lon="2.27791">
        <ele>948.3</ele>
        <time>2017-06-01T08:43:40.000Z</time>
      </trkpt>
      <trkpt lat="43.46432" lon="2.27789">
        <ele>948.4</ele>
        <time>2017-06-01T08:43:42.000Z</time>
      </trkpt>
      <trkpt lat="43.46428" lon="2.2779">
        <ele>948.4</ele>
        <time>2017-06-01T08:43:43.000Z</time>
      </trkpt>
      <trkpt lat="43.46426" lon="2.27784">
        <ele>948.5</ele>
        <time>2017-06-01T08:43:44.000Z</time>
      </trkpt>
      <trkpt lat="43.46423" lon="2.27781">
        <ele>948.5</ele>
        <time>2017-06-01T08:43:46.000Z</time>
      </trkpt>
      <trkpt lat="43.46418" lon="2.27781">
        <ele>948.6</ele>
        <time>2017-06-01T08:43:47.000Z</time>
      </trkpt>
      <trkpt lat="43.46414" lon="2.2778">
        <ele>948.6</ele>
        <time>2017-06-01T08:43:48.000Z</time>
      </trkpt>
      <trkpt lat="43.4641" lon="2.2778">
        <ele>948.7</ele>
        <time>2017-06-01T08:43:49.000Z</time>
      </trkpt>
      <trkpt lat="43.46406" lon="2.27778">
        <ele>948.8</ele>
        <time>2017-06-01T08:43:50.000Z</time>
      </trkpt>
      <trkpt lat="43.46405" lon="2.27774">
        <ele>948.8</ele>
        <time>2017-06-01T08:43:51.000Z</time>
      </trkpt>
      <trkpt lat="43.46405" lon="2.27768">
        <ele>948.9</ele>
        <time>2017-06-01T08:43:53.000Z</time>
      </trkpt>
      <trkpt lat="43.46399" lon="2.27761">
        <ele>949</ele>
        <time>2017-06-01T08:43:55.000Z</time>
      </trkpt>
      <trkpt lat="43.46401" lon="2.27756">
        <ele>949.1</ele>
        <time>2017-06-01T08:43:57.000Z</time>
      </trkpt>
      <trkpt lat="43.46398" lon="2.27751">
        <ele>949.2</ele>
        <time>2017-06-01T08:43:59.000Z</time>
      </trkpt>
      <trkpt lat="43.46397" lon="2.27743">
        <ele>949.3</ele>
        <time>2017-06-01T08:44:01.000Z</time>
      </trkpt>
      <trkpt lat="43.464" lon="2.27738">
        <ele>949.4</ele>
        <time>2017-06-01T08:44:02.000Z</time>
      </trkpt>
      <trkpt lat="43.46395" lon="2.27739">
        <ele>949.6</ele>
        <time>2017-06-01T08:44:03.000Z</time>
      </trkpt>
      <trkpt lat="43.46392" lon="2.27735">
        <ele>949.6</ele>
        <time>2017-06-01T08:44:04.000Z</time>
      </trkpt>
      <trkpt lat="43.46388" lon="2.27728">
        <ele>949.8</ele>
        <time>2017-06-01T08:44:06.000Z</time>
      </trkpt>
      <trkpt lat="43.46384" lon="2.27728">
        <ele>949.8</ele>
        <time>2017-06-01T08:44:07.000Z</time>
      </trkpt>
      <trkpt lat="43.46381" lon="2.27725">
        <ele>949.9</ele>
        <time>2017-06-01T08:44:09.000Z</time>
      </trkpt>
      <trkpt lat="43.46381" lon="2.27718">
        <ele>950</ele>
        <time>2017-06-01T08:44:11.000Z</time>
      </trkpt>
      <trkpt lat="43.46382" lon="2.27712">
        <ele>950.1</ele>
        <time>2017-06-01T08:44:12.000Z</time>
      </trkpt>
      <trkpt lat="43.4638" lon="2.27709">
        <ele>950.1</ele>
        <time>2017-06-01T08:44:13.000Z</time>
      </trkpt>
      <trkpt lat="43.46376" lon="2.27706">
        <ele>950.2</ele>
        <time>2017-06-01T08:44:14.000Z</time>
      </trkpt>
      <trkpt lat="43.46375" lon="2.277">
        <ele>950.3</ele>
        <time>2017-06-01T08:44:15.000Z</time>
      </trkpt>
      <trkpt lat="43.46373" lon="2.27695">
        <ele>950.3</ele>
        <time>2017-06-01T08:44:16.000Z</time>
      </trkpt>
      <trkpt lat="43.46369" lon="2.27691">
        <ele>950.4</ele>
        <time>2017-06-01T08:44:17.000Z</time>
      </trkpt>
      <trkpt lat="43.46366" lon="2.27689">
        <ele>950.4</ele>
        <time>2017-06-01T08:44:18.000Z</time>
      </trkpt>
      <trkpt lat="43.46364" lon="2.27686">
        <ele>950.5</ele>
        <time>2017-06-01T08:44:19.000Z</time>
      </trkpt>
      <trkpt lat="43.46359" lon="2.27686">
        <ele>950.5</ele>
        <time>2017-06-01T08:44:20.000Z</time>
      </trkpt>
      <trkpt lat="43.46356" lon="2.27685">
        <ele>950.5</ele>
        <time>2017-06-01T08:44:21.000Z</time>
      </trkpt>
      <trkpt lat="43.46354" lon="2.2768">
        <ele>950.6</ele>
        <time>2017-06-01T08:44:22.000Z</time>
      </trkpt>
      <trkpt lat="43.46352" lon="2.27677">
        <ele>950.6</ele>
        <time>2017-06-01T08:44:23.000Z</time>
      </trkpt>
      <trkpt lat="43.46349" lon="2.27673">
        <ele>950.6</ele>
        <time>2017-06-01T08:44:24.000Z</time>
      </trkpt>
      <trkpt lat="43.46346" lon="2.27672">
        <ele>950.7</ele>
        <time>2017-06-01T08:44:25.000Z</time>
      </trkpt>
      <trkpt lat="43.46343" lon="2.27669">
        <ele>950.7</ele>
        <time>2017-06-01T08:44:26.000Z</time>
      </trkpt>
      <trkpt lat="43.4634" lon="2.27667">
        <ele>950.8</ele>
        <time>2017-06-01T08:44:27.000Z</time>
      </trkpt>
      <trkpt lat="43.46339" lon="2.27662">
        <ele>950.8</ele>
        <time>2017-06-01T08:44:28.000Z</time>
      </trkpt>
      <trkpt lat="43.46335" lon="2.27658">
        <ele>950.8</ele>
        <time>2017-06-01T08:44:30.000Z</time>
      </trkpt>
      <trkpt lat="43.46332" lon="2.27654">
        <ele>950.8</ele>
        <time>2017-06-01T08:44:31.000Z</time>
      </trkpt>
      <trkpt lat="43.46329" lon="2.27651">
        <ele>950.9</ele>
        <time>2017-06-01T08:44:32.000Z</time>
      </trkpt>
      <trkpt lat="43.46325" lon="2.27651">
        <ele>950.9</ele>
        <time>2017-06-01T08:44:33.000Z</time>
      </trkpt>
      <trkpt lat="43.46324" lon="2.27647">
        <ele>950.9</ele>
        <time>2017-06-01T08:44:34.000Z</time>
      </trkpt>
      <trkpt lat="43.46322" lon="2.27645">
        <ele>950.9</ele>
        <time>2017-06-01T08:44:35.000Z</time>
      </trkpt>
      <trkpt lat="43.46317" lon="2.27644">
        <ele>950.9</ele>
        <time>2017-06-01T08:44:36.000Z</time>
      </trkpt>
      <trkpt lat="43.46314" lon="2.2764">
        <ele>951</ele>
        <time>2017-06-01T08:44:38.000Z</time>
      </trkpt>
      <trkpt lat="43.46317" lon="2.27631">
        <ele>951</ele>
        <time>2017-06-01T08:44:39.000Z</time>
      </trkpt>
      <trkpt lat="43.46312" lon="2.27633">
        <ele>951</ele>
        <time>2017-06-01T08:44:40.000Z</time>
      </trkpt>
      <trkpt lat="43.46306" lon="2.27638">
        <ele>951</ele>
        <time>2017-06-01T08:44:41.000Z</time>
      </trkpt>
      <trkpt lat="43.46305" lon="2.27634">
        <ele>951</ele>
        <time>2017-06-01T08:44:42.000Z</time>
      </trkpt>
      <trkpt lat="43.46299" lon="2.27631">
        <ele>951.1</ele>
        <time>2017-06-01T08:44:43.000Z</time>
      </trkpt>
      <trkpt lat="43.46294" lon="2.27624">
        <ele>951.1</ele>
        <time>2017-06-01T08:44:44.000Z</time>
      </trkpt>
      <trkpt lat="43.4629" lon="2.27622">
        <ele>951.1</ele>
        <time>2017-06-01T08:44:45.000Z</time>
      </trkpt>
      <trkpt lat="43.46294" lon="2.27613">
        <ele>951.2</ele>
        <time>2017-06-01T08:44:46.000Z</time>
      </trkpt>
      <trkpt lat="43.46293" lon="2.2761">
        <ele>951.2</ele>
        <time>2017-06-01T08:44:47.000Z</time>
      </trkpt>
      <trkpt lat="43.4629" lon="2.27605">
        <ele>951.3</ele>
        <time>2017-06-01T08:44:48.000Z</time>
      </trkpt>
      <trkpt lat="43.46286" lon="2.27606">
        <ele>951.3</ele>
        <time>2017-06-01T08:44:49.000Z</time>
      </trkpt>
      <trkpt lat="43.46288" lon="2.276">
        <ele>951.3</ele>
        <time>2017-06-01T08:44:50.000Z</time>
      </trkpt>
      <trkpt lat="43.46286" lon="2.27589">
        <ele>951.4</ele>
        <time>2017-06-01T08:44:52.000Z</time>
      </trkpt>
      <trkpt lat="43.46283" lon="2.27582">
        <ele>951.5</ele>
        <time>2017-06-01T08:44:53.000Z</time>
      </trkpt>
      <trkpt lat="43.4628" lon="2.2758">
        <ele>951.5</ele>
        <time>2017-06-01T08:44:54.000Z</time>
      </trkpt>
      <trkpt lat="43.46278" lon="2.27571">
        <ele>951.7</ele>
        <time>2017-06-01T08:44:55.000Z</time>
      </trkpt>
      <trkpt lat="43.46284" lon="2.2756">
        <ele>951.9</ele>
        <time>2017-06-01T08:44:56.000Z</time>
      </trkpt>
      <trkpt lat="43.46292" lon="2.27548">
        <ele>951.4</ele>
        <time>2017-06-01T08:44:57.000Z</time>
      </trkpt>
      <trkpt lat="43.46289" lon="2.27552">
        <ele>951.4</ele>
        <time>2017-06-01T08:44:58.000Z</time>
      </trkpt>
      <trkpt lat="43.46293" lon="2.27545">
        <ele>951.1</ele>
        <time>2017-06-01T08:44:59.000Z</time>
      </trkpt>
      <trkpt lat="43.46293" lon="2.2754">
        <ele>951.1</ele>
        <time>2017-06-01T08:45:00.000Z</time>
      </trkpt>
      <trkpt lat="43.46292" lon="2.27536">
        <ele>951.2</ele>
        <time>2017-06-01T08:45:02.000Z</time>
      </trkpt>
      <trkpt lat="43.46295" lon="2.27532">
        <ele>950.8</ele>
        <time>2017-06-01T08:45:03.000Z</time>
      </trkpt>
      <trkpt lat="43.46293" lon="2.27528">
        <ele>951.2</ele>
        <time>2017-06-01T08:45:04.000Z</time>
      </trkpt>
      <trkpt lat="43.46295" lon="2.27523">
        <ele>951.2</ele>
        <time>2017-06-01T08:45:05.000Z</time>
      </trkpt>
      <trkpt lat="43.46281" lon="2.27527">
        <ele>952.6</ele>
        <time>2017-06-01T08:45:06.000Z</time>
      </trkpt>
      <trkpt lat="43.46273" lon="2.27533">
        <ele>952.7</ele>
        <time>2017-06-01T08:45:07.000Z</time>
      </trkpt>
      <trkpt lat="43.46269" lon="2.27534">
        <ele>952.8</ele>
        <time>2017-06-01T08:45:08.000Z</time>
      </trkpt>
      <trkpt lat="43.46265" lon="2.27534">
        <ele>952.8</ele>
        <time>2017-06-01T08:45:10.000Z</time>
      </trkpt>
      <trkpt lat="43.46268" lon="2.27537">
        <ele>953.2</ele>
        <time>2017-06-01T08:45:11.000Z</time>
      </trkpt>
      <trkpt lat="43.46268" lon="2.27544">
        <ele>953.4</ele>
        <time>2017-06-01T08:45:12.000Z</time>
      </trkpt>
      <trkpt lat="43.46268" lon="2.27551">
        <ele>953.6</ele>
        <time>2017-06-01T08:45:14.000Z</time>
      </trkpt>
      <trkpt lat="43.46261" lon="2.27558">
        <ele>953.9</ele>
        <time>2017-06-01T08:45:16.000Z</time>
      </trkpt>
      <trkpt lat="43.4626" lon="2.27562">
        <ele>954</ele>
        <time>2017-06-01T08:45:17.000Z</time>
      </trkpt>
      <trkpt lat="43.46262" lon="2.27565">
        <ele>954</ele>
        <time>2017-06-01T08:45:18.000Z</time>
      </trkpt>
      <trkpt lat="43.46263" lon="2.27569">
        <ele>954.1</ele>
        <time>2017-06-01T08:45:19.000Z</time>
      </trkpt>
      <trkpt lat="43.4626" lon="2.27574">
        <ele>954.3</ele>
        <time>2017-06-01T08:45:20.000Z</time>
      </trkpt>
      <trkpt lat="43.46263" lon="2.27581">
        <ele>954.4</ele>
        <time>2017-06-01T08:45:22.000Z</time>
      </trkpt>
      <trkpt lat="43.46262" lon="2.27585">
        <ele>954.5</ele>
        <time>2017-06-01T08:45:23.000Z</time>
      </trkpt>
      <trkpt lat="43.46265" lon="2.2759">
        <ele>954.7</ele>
        <time>2017-06-01T08:45:24.000Z</time>
      </trkpt>
      <trkpt lat="43.46264" lon="2.27593">
        <ele>954.8</ele>
        <time>2017-06-01T08:45:25.000Z</time>
      </trkpt>
      <trkpt lat="43.46263" lon="2.27597">
        <ele>954.8</ele>
        <time>2017-06-01T08:45:26.000Z</time>
      </trkpt>
      <trkpt lat="43.4626" lon="2.27602">
        <ele>954.9</ele>
        <time>2017-06-01T08:45:27.000Z</time>
      </trkpt>
      <trkpt lat="43.46258" lon="2.27607">
        <ele>955.1</ele>
        <time>2017-06-01T08:45:29.000Z</time>
      </trkpt>
      <trkpt lat="43.46259" lon="2.27612">
        <ele>955.1</ele>
        <time>2017-06-01T08:45:31.000Z</time>
      </trkpt>
      <trkpt lat="43.46259" lon="2.27616">
        <ele>955.2</ele>
        <time>2017-06-01T08:45:33.000Z</time>
      </trkpt>
      <trkpt lat="43.46261" lon="2.27621">
        <ele>955.3</ele>
        <time>2017-06-01T08:45:35.000Z</time>
      </trkpt>
      <trkpt lat="43.46262" lon="2.27626">
        <ele>955.4</ele>
        <time>2017-06-01T08:45:36.000Z</time>
      </trkpt>
      <trkpt lat="43.46266" lon="2.2763">
        <ele>955.6</ele>
        <time>2017-06-01T08:45:38.000Z</time>
      </trkpt>
      <trkpt lat="43.46268" lon="2.27634">
        <ele>955.6</ele>
        <time>2017-06-01T08:45:39.000Z</time>
      </trkpt>
      <trkpt lat="43.46273" lon="2.27637">
        <ele>955.8</ele>
        <time>2017-06-01T08:45:40.000Z</time>
      </trkpt>
      <trkpt lat="43.46273" lon="2.2764">
        <ele>955.8</ele>
        <time>2017-06-01T08:45:41.000Z</time>
      </trkpt>
      <trkpt lat="43.46273" lon="2.27644">
        <ele>955.9</ele>
        <time>2017-06-01T08:45:42.000Z</time>
      </trkpt>
      <trkpt lat="43.4627" lon="2.27649">
        <ele>956</ele>
        <time>2017-06-01T08:45:43.000Z</time>
      </trkpt>
      <trkpt lat="43.46271" lon="2.27653">
        <ele>956.1</ele>
        <time>2017-06-01T08:45:44.000Z</time>
      </trkpt>
      <trkpt lat="43.46268" lon="2.2766">
        <ele>956.3</ele>
        <time>2017-06-01T08:45:45.000Z</time>
      </trkpt>
      <trkpt lat="43.46264" lon="2.27664">
        <ele>956.4</ele>
        <time>2017-06-01T08:45:46.000Z</time>
      </trkpt>
      <trkpt lat="43.46262" lon="2.27669">
        <ele>956.6</ele>
        <time>2017-06-01T08:45:47.000Z</time>
      </trkpt>
      <trkpt lat="43.46262" lon="2.27673">
        <ele>956.7</ele>
        <time>2017-06-01T08:45:48.000Z</time>
      </trkpt>
      <trkpt lat="43.46263" lon="2.27679">
        <ele>956.8</ele>
        <time>2017-06-01T08:45:49.000Z</time>
      </trkpt>
      <trkpt lat="43.46262" lon="2.27684">
        <ele>956.9</ele>
        <time>2017-06-01T08:45:50.000Z</time>
      </trkpt>
      <trkpt lat="43.4626" lon="2.27688">
        <ele>957</ele>
        <time>2017-06-01T08:45:51.000Z</time>
      </trkpt>
      <trkpt lat="43.46262" lon="2.27693">
        <ele>957.2</ele>
        <time>2017-06-01T08:45:53.000Z</time>
      </trkpt>
      <trkpt lat="43.4626" lon="2.27699">
        <ele>957.4</ele>
        <time>2017-06-01T08:45:56.000Z</time>
      </trkpt>
      <trkpt lat="43.46262" lon="2.27705">
        <ele>957.6</ele>
        <time>2017-06-01T08:45:57.000Z</time>
      </trkpt>
      <trkpt lat="43.46264" lon="2.2771">
        <ele>957.8</ele>
        <time>2017-06-01T08:45:58.000Z</time>
      </trkpt>
      <trkpt lat="43.46263" lon="2.27717">
        <ele>958</ele>
        <time>2017-06-01T08:45:59.000Z</time>
      </trkpt>
      <trkpt lat="43.46256" lon="2.2773">
        <ele>958.6</ele>
        <time>2017-06-01T08:46:00.000Z</time>
      </trkpt>
      <trkpt lat="43.46255" lon="2.27741">
        <ele>959.1</ele>
        <time>2017-06-01T08:46:01.000Z</time>
      </trkpt>
      <trkpt lat="43.4626" lon="2.27741">
        <ele>959.2</ele>
        <time>2017-06-01T08:46:02.000Z</time>
      </trkpt>
      <trkpt lat="43.46257" lon="2.27745">
        <ele>959.4</ele>
        <time>2017-06-01T08:46:03.000Z</time>
      </trkpt>
      <trkpt lat="43.46257" lon="2.2775">
        <ele>959.5</ele>
        <time>2017-06-01T08:46:04.000Z</time>
      </trkpt>
      <trkpt lat="43.46258" lon="2.27754">
        <ele>959.6</ele>
        <time>2017-06-01T08:46:05.000Z</time>
      </trkpt>
      <trkpt lat="43.46261" lon="2.27756">
        <ele>959.6</ele>
        <time>2017-06-01T08:46:06.000Z</time>
      </trkpt>
      <trkpt lat="43.46265" lon="2.27755">
        <ele>959.8</ele>
        <time>2017-06-01T08:46:07.000Z</time>
      </trkpt>
      <trkpt lat="43.46257" lon="2.27754">
        <ele>960</ele>
        <time>2017-06-01T08:46:09.000Z</time>
      </trkpt>
      <trkpt lat="43.46265" lon="2.27756">
        <ele>960.2</ele>
        <time>2017-06-01T08:46:10.000Z</time>
      </trkpt>
      <trkpt lat="43.46273" lon="2.27754">
        <ele>960.5</ele>
        <time>2017-06-01T08:46:12.000Z</time>
      </trkpt>
      <trkpt lat="43.46277" lon="2.27752">
        <ele>960.6</ele>
        <time>2017-06-01T08:46:13.000Z</time>
      </trkpt>
      <trkpt lat="43.46274" lon="2.27756">
        <ele>960.8</ele>
        <time>2017-06-01T08:46:14.000Z</time>
      </trkpt>
      <trkpt lat="43.46272" lon="2.27762">
        <ele>960.9</ele>
        <time>2017-06-01T08:46:16.000Z</time>
      </trkpt>
      <trkpt lat="43.4627" lon="2.27764">
        <ele>961</ele>
        <time>2017-06-01T08:46:17.000Z</time>
      </trkpt>
      <trkpt lat="43.46269" lon="2.27768">
        <ele>961.1</ele>
        <time>2017-06-01T08:46:18.000Z</time>
      </trkpt>
      <trkpt lat="43.46272" lon="2.27768">
        <ele>961.3</ele>
        <time>2017-06-01T08:46:19.000Z</time>
      </trkpt>
      <trkpt lat="43.46269" lon="2.27772">
        <ele>961.5</ele>
        <time>2017-06-01T08:46:21.000Z</time>
      </trkpt>
      <trkpt lat="43.46273" lon="2.27771">
        <ele>961.7</ele>
        <time>2017-06-01T08:46:22.000Z</time>
      </trkpt>
      <trkpt lat="43.46269" lon="2.27776">
        <ele>962</ele>
        <time>2017-06-01T08:46:24.000Z</time>
      </trkpt>
      <trkpt lat="43.46268" lon="2.27782">
        <ele>962.1</ele>
        <time>2017-06-01T08:46:26.000Z</time>
      </trkpt>
      <trkpt lat="43.46267" lon="2.27787">
        <ele>962.2</ele>
        <time>2017-06-01T08:46:28.000Z</time>
      </trkpt>
      <trkpt lat="43.46267" lon="2.27791">
        <ele>962.3</ele>
        <time>2017-06-01T08:46:30.000Z</time>
      </trkpt>
      <trkpt lat="43.46269" lon="2.27796">
        <ele>962.5</ele>
        <time>2017-06-01T08:46:32.000Z</time>
      </trkpt>
      <trkpt lat="43.46269" lon="2.27788">
        <ele>962.6</ele>
        <time>2017-06-01T08:46:34.000Z</time>
      </trkpt>
      <trkpt lat="43.46271" lon="2.27793">
        <ele>962.8</ele>
        <time>2017-06-01T08:46:35.000Z</time>
      </trkpt>
      <trkpt lat="43.4626" lon="2.27828">
        <ele>965.6</ele>
        <time>2017-06-01T08:46:57.000Z</time>
      </trkpt>
      <trkpt lat="43.46257" lon="2.27831">
        <ele>965.9</ele>
        <time>2017-06-01T08:47:00.000Z</time>
      </trkpt>
      <trkpt lat="43.46252" lon="2.27834">
        <ele>966</ele>
        <time>2017-06-01T08:47:01.000Z</time>
      </trkpt>
      <trkpt lat="43.46241" lon="2.27837">
        <ele>965.2</ele>
        <time>2017-06-01T08:47:02.000Z</time>
      </trkpt>
      <trkpt lat="43.46244" lon="2.27831">
        <ele>965.3</ele>
        <time>2017-06-01T08:47:07.000Z</time>
      </trkpt>
      <trkpt lat="43.46245" lon="2.27842">
        <ele>966.5</ele>
        <time>2017-06-01T08:47:09.000Z</time>
      </trkpt>
      <trkpt lat="43.46247" lon="2.27854">
        <ele>967.2</ele>
        <time>2017-06-01T08:47:10.000Z</time>
      </trkpt>
      <trkpt lat="43.46248" lon="2.2786">
        <ele>967.9</ele>
        <time>2017-06-01T08:47:11.000Z</time>
      </trkpt>
      <trkpt lat="43.46245" lon="2.27866">
        <ele>968.1</ele>
        <time>2017-06-01T08:47:14.000Z</time>
      </trkpt>
      <trkpt lat="43.46245" lon="2.27871">
        <ele>968.6</ele>
        <time>2017-06-01T08:47:15.000Z</time>
      </trkpt>
      <trkpt lat="43.46242" lon="2.2787">
        <ele>968.5</ele>
        <time>2017-06-01T08:47:16.000Z</time>
      </trkpt>
      <trkpt lat="43.46232" lon="2.27874">
        <ele>968.5</ele>
        <time>2017-06-01T08:47:18.000Z</time>
      </trkpt>
      <trkpt lat="43.46231" lon="2.27884">
        <ele>969.5</ele>
        <time>2017-06-01T08:47:19.000Z</time>
      </trkpt>
      <trkpt lat="43.46228" lon="2.27883">
        <ele>969.5</ele>
        <time>2017-06-01T08:47:20.000Z</time>
      </trkpt>
      <trkpt lat="43.46229" lon="2.27888">
        <ele>970</ele>
        <time>2017-06-01T08:47:21.000Z</time>
      </trkpt>
      <trkpt lat="43.46226" lon="2.27891">
        <ele>970.4</ele>
        <time>2017-06-01T08:47:24.000Z</time>
      </trkpt>
      <trkpt lat="43.46223" lon="2.27895">
        <ele>970.8</ele>
        <time>2017-06-01T08:47:25.000Z</time>
      </trkpt>
      <trkpt lat="43.4622" lon="2.27901">
        <ele>971.1</ele>
        <time>2017-06-01T08:47:26.000Z</time>
      </trkpt>
      <trkpt lat="43.46217" lon="2.27906">
        <ele>971.4</ele>
        <time>2017-06-01T08:47:28.000Z</time>
      </trkpt>
      <trkpt lat="43.46219" lon="2.27908">
        <ele>972</ele>
        <time>2017-06-01T08:47:30.000Z</time>
      </trkpt>
      <trkpt lat="43.46221" lon="2.27911">
        <ele>972.4</ele>
        <time>2017-06-01T08:47:31.000Z</time>
      </trkpt>
      <trkpt lat="43.46207" lon="2.27907">
        <ele>971.1</ele>
        <time>2017-06-01T08:47:33.000Z</time>
      </trkpt>
      <trkpt lat="43.46222" lon="2.27915">
        <ele>972.8</ele>
        <time>2017-06-01T08:47:34.000Z</time>
      </trkpt>
      <trkpt lat="43.4622" lon="2.27921">
        <ele>972.9</ele>
        <time>2017-06-01T08:47:35.000Z</time>
      </trkpt>
      <trkpt lat="43.462" lon="2.27969">
        <ele>975.1</ele>
        <time>2017-06-01T08:47:37.000Z</time>
      </trkpt>
      <trkpt lat="43.46195" lon="2.27976">
        <ele>975.4</ele>
        <time>2017-06-01T08:47:40.000Z</time>
      </trkpt>
      <trkpt lat="43.46207" lon="2.27972">
        <ele>975.7</ele>
        <time>2017-06-01T08:47:44.000Z</time>
      </trkpt>
      <trkpt lat="43.46179" lon="2.28037">
        <ele>973.7</ele>
        <time>2017-06-01T08:47:56.000Z</time>
      </trkpt>
      <trkpt lat="43.46174" lon="2.28034">
        <ele>973.9</ele>
        <time>2017-06-01T08:47:58.000Z</time>
      </trkpt>
      <trkpt lat="43.4617" lon="2.28038">
        <ele>973</ele>
        <time>2017-06-01T08:47:59.000Z</time>
      </trkpt>
      <trkpt lat="43.46177" lon="2.28035">
        <ele>974.4</ele>
        <time>2017-06-01T08:48:00.000Z</time>
      </trkpt>
      <trkpt lat="43.46184" lon="2.2803">
        <ele>975.3</ele>
        <time>2017-06-01T08:48:01.000Z</time>
      </trkpt>
      <trkpt lat="43.46187" lon="2.28027">
        <ele>975.5</ele>
        <time>2017-06-01T08:48:02.000Z</time>
      </trkpt>
      <trkpt lat="43.46187" lon="2.28036">
        <ele>975</ele>
        <time>2017-06-01T08:48:04.000Z</time>
      </trkpt>
      <trkpt lat="43.46191" lon="2.28033">
        <ele>975.6</ele>
        <time>2017-06-01T08:48:06.000Z</time>
      </trkpt>
      <trkpt lat="43.46188" lon="2.28033">
        <ele>975.5</ele>
        <time>2017-06-01T08:48:07.000Z</time>
      </trkpt>
      <trkpt lat="43.4619" lon="2.28037">
        <ele>975.5</ele>
        <time>2017-06-01T08:48:08.000Z</time>
      </trkpt>
      <trkpt lat="43.46193" lon="2.28039">
        <ele>975.7</ele>
        <time>2017-06-01T08:48:09.000Z</time>
      </trkpt>
      <trkpt lat="43.46197" lon="2.28045">
        <ele>975.3</ele>
        <time>2017-06-01T08:48:10.000Z</time>
      </trkpt>
      <trkpt lat="43.46198" lon="2.28051">
        <ele>975.4</ele>
        <time>2017-06-01T08:48:11.000Z</time>
      </trkpt>
      <trkpt lat="43.46195" lon="2.28061">
        <ele>975.5</ele>
        <time>2017-06-01T08:48:12.000Z</time>
      </trkpt>
      <trkpt lat="43.46198" lon="2.2807">
        <ele>975.6</ele>
        <time>2017-06-01T08:48:13.000Z</time>
      </trkpt>
      <trkpt lat="43.46201" lon="2.2808">
        <ele>975.8</ele>
        <time>2017-06-01T08:48:14.000Z</time>
      </trkpt>
      <trkpt lat="43.46202" lon="2.2809">
        <ele>976</ele>
        <time>2017-06-01T08:48:15.000Z</time>
      </trkpt>
      <trkpt lat="43.46205" lon="2.28098">
        <ele>976</ele>
        <time>2017-06-01T08:48:16.000Z</time>
      </trkpt>
      <trkpt lat="43.46207" lon="2.28106">
        <ele>976</ele>
        <time>2017-06-01T08:48:17.000Z</time>
      </trkpt>
      <trkpt lat="43.4621" lon="2.28112">
        <ele>976.1</ele>
        <time>2017-06-01T08:48:18.000Z</time>
      </trkpt>
      <trkpt lat="43.46213" lon="2.28114">
        <ele>976.2</ele>
        <time>2017-06-01T08:48:19.000Z</time>
      </trkpt>
      <trkpt lat="43.46218" lon="2.28118">
        <ele>976.3</ele>
        <time>2017-06-01T08:48:21.000Z</time>
      </trkpt>
      <trkpt lat="43.46222" lon="2.2812">
        <ele>976.5</ele>
        <time>2017-06-01T08:48:23.000Z</time>
      </trkpt>
      <trkpt lat="43.46225" lon="2.28122">
        <ele>976.5</ele>
        <time>2017-06-01T08:48:24.000Z</time>
      </trkpt>
      <trkpt lat="43.46229" lon="2.28127">
        <ele>976.7</ele>
        <time>2017-06-01T08:48:26.000Z</time>
      </trkpt>
      <trkpt lat="43.46232" lon="2.2813">
        <ele>976.8</ele>
        <time>2017-06-01T08:48:27.000Z</time>
      </trkpt>
      <trkpt lat="43.46234" lon="2.28132">
        <ele>976.8</ele>
        <time>2017-06-01T08:48:28.000Z</time>
      </trkpt>
      <trkpt lat="43.46237" lon="2.28139">
        <ele>977</ele>
        <time>2017-06-01T08:48:30.000Z</time>
      </trkpt>
      <trkpt lat="43.46238" lon="2.28143">
        <ele>977.1</ele>
        <time>2017-06-01T08:48:31.000Z</time>
      </trkpt>
      <trkpt lat="43.46241" lon="2.28147">
        <ele>977.3</ele>
        <time>2017-06-01T08:48:32.000Z</time>
      </trkpt>
      <trkpt lat="43.46243" lon="2.2815">
        <ele>977.5</ele>
        <time>2017-06-01T08:48:33.000Z</time>
      </trkpt>
      <trkpt lat="43.46245" lon="2.28154">
        <ele>977.6</ele>
        <time>2017-06-01T08:48:34.000Z</time>
      </trkpt>
      <trkpt lat="43.4625" lon="2.28157">
        <ele>977.8</ele>
        <time>2017-06-01T08:48:36.000Z</time>
      </trkpt>
      <trkpt lat="43.46245" lon="2.28163">
        <ele>978.1</ele>
        <time>2017-06-01T08:48:37.000Z</time>
      </trkpt>
      <trkpt lat="43.46252" lon="2.28156">
        <ele>978.6</ele>
        <time>2017-06-01T08:48:38.000Z</time>
      </trkpt>
      <trkpt lat="43.46254" lon="2.28152">
        <ele>978.8</ele>
        <time>2017-06-01T08:48:39.000Z</time>
      </trkpt>
      <trkpt lat="43.46258" lon="2.28164">
        <ele>979.3</ele>
        <time>2017-06-01T08:48:40.000Z</time>
      </trkpt>
      <trkpt lat="43.46263" lon="2.28169">
        <ele>979.6</ele>
        <time>2017-06-01T08:48:41.000Z</time>
      </trkpt>
      <trkpt lat="43.46267" lon="2.2818">
        <ele>980.1</ele>
        <time>2017-06-01T08:48:43.000Z</time>
      </trkpt>
      <trkpt lat="43.46267" lon="2.28189">
        <ele>980.5</ele>
        <time>2017-06-01T08:48:45.000Z</time>
      </trkpt>
      <trkpt lat="43.46269" lon="2.282">
        <ele>981</ele>
        <time>2017-06-01T08:48:46.000Z</time>
      </trkpt>
      <trkpt lat="43.46271" lon="2.28203">
        <ele>981.2</ele>
        <time>2017-06-01T08:48:47.000Z</time>
      </trkpt>
      <trkpt lat="43.46274" lon="2.28207">
        <ele>981.5</ele>
        <time>2017-06-01T08:48:49.000Z</time>
      </trkpt>
      <trkpt lat="43.46276" lon="2.28211">
        <ele>981.7</ele>
        <time>2017-06-01T08:48:50.000Z</time>
      </trkpt>
      <trkpt lat="43.46278" lon="2.2822">
        <ele>982.1</ele>
        <time>2017-06-01T08:48:52.000Z</time>
      </trkpt>
      <trkpt lat="43.46279" lon="2.28224">
        <ele>982.3</ele>
        <time>2017-06-01T08:48:53.000Z</time>
      </trkpt>
      <trkpt lat="43.46281" lon="2.28227">
        <ele>982.4</ele>
        <time>2017-06-01T08:48:54.000Z</time>
      </trkpt>
      <trkpt lat="43.46282" lon="2.28231">
        <ele>982.6</ele>
        <time>2017-06-01T08:48:55.000Z</time>
      </trkpt>
      <trkpt lat="43.46285" lon="2.28235">
        <ele>982.9</ele>
        <time>2017-06-01T08:48:56.000Z</time>
      </trkpt>
      <trkpt lat="43.46288" lon="2.28239">
        <ele>983</ele>
        <time>2017-06-01T08:48:57.000Z</time>
      </trkpt>
      <trkpt lat="43.46291" lon="2.28242">
        <ele>983.2</ele>
        <time>2017-06-01T08:48:58.000Z</time>
      </trkpt>
      <trkpt lat="43.46292" lon="2.28246">
        <ele>983.4</ele>
        <time>2017-06-01T08:48:59.000Z</time>
      </trkpt>
      <trkpt lat="43.46294" lon="2.28251">
        <ele>983.5</ele>
        <time>2017-06-01T08:49:00.000Z</time>
      </trkpt>
      <trkpt lat="43.46298" lon="2.28254">
        <ele>983.7</ele>
        <time>2017-06-01T08:49:01.000Z</time>
      </trkpt>
      <trkpt lat="43.463" lon="2.28258">
        <ele>983.9</ele>
        <time>2017-06-01T08:49:02.000Z</time>
      </trkpt>
      <trkpt lat="43.46302" lon="2.28264">
        <ele>984</ele>
        <time>2017-06-01T08:49:03.000Z</time>
      </trkpt>
      <trkpt lat="43.46307" lon="2.28267">
        <ele>984.1</ele>
        <time>2017-06-01T08:49:05.000Z</time>
      </trkpt>
      <trkpt lat="43.4631" lon="2.28268">
        <ele>984.2</ele>
        <time>2017-06-01T08:49:06.000Z</time>
      </trkpt>
      <trkpt lat="43.46313" lon="2.28268">
        <ele>984.3</ele>
        <time>2017-06-01T08:49:07.000Z</time>
      </trkpt>
      <trkpt lat="43.46315" lon="2.2827">
        <ele>984.4</ele>
        <time>2017-06-01T08:49:08.000Z</time>
      </trkpt>
      <trkpt lat="43.46317" lon="2.28277">
        <ele>984.5</ele>
        <time>2017-06-01T08:49:10.000Z</time>
      </trkpt>
      <trkpt lat="43.4632" lon="2.28278">
        <ele>984.6</ele>
        <time>2017-06-01T08:49:11.000Z</time>
      </trkpt>
      <trkpt lat="43.46322" lon="2.28287">
        <ele>984.7</ele>
        <time>2017-06-01T08:49:13.000Z</time>
      </trkpt>
      <trkpt lat="43.4632" lon="2.2829">
        <ele>984.8</ele>
        <time>2017-06-01T08:49:14.000Z</time>
      </trkpt>
      <trkpt lat="43.46321" lon="2.28296">
        <ele>984.9</ele>
        <time>2017-06-01T08:49:15.000Z</time>
      </trkpt>
      <trkpt lat="43.46328" lon="2.28297">
        <ele>985.1</ele>
        <time>2017-06-01T08:49:16.000Z</time>
      </trkpt>
      <trkpt lat="43.46328" lon="2.28315">
        <ele>985.4</ele>
        <time>2017-06-01T08:49:17.000Z</time>
      </trkpt>
      <trkpt lat="43.46329" lon="2.28318">
        <ele>985.5</ele>
        <time>2017-06-01T08:49:18.000Z</time>
      </trkpt>
      <trkpt lat="43.46332" lon="2.28326">
        <ele>985.6</ele>
        <time>2017-06-01T08:49:20.000Z</time>
      </trkpt>
      <trkpt lat="43.46339" lon="2.28333">
        <ele>985.7</ele>
        <time>2017-06-01T08:49:22.000Z</time>
      </trkpt>
      <trkpt lat="43.46339" lon="2.28338">
        <ele>985.7</ele>
        <time>2017-06-01T08:49:23.000Z</time>
      </trkpt>
      <trkpt lat="43.46343" lon="2.28341">
        <ele>985.7</ele>
        <time>2017-06-01T08:49:24.000Z</time>
      </trkpt>
      <trkpt lat="43.46346" lon="2.28345">
        <ele>985.7</ele>
        <time>2017-06-01T08:49:25.000Z</time>
      </trkpt>
      <trkpt lat="43.46347" lon="2.28354">
        <ele>985.8</ele>
        <time>2017-06-01T08:49:26.000Z</time>
      </trkpt>
      <trkpt lat="43.46348" lon="2.28361">
        <ele>985.8</ele>
        <time>2017-06-01T08:49:27.000Z</time>
      </trkpt>
      <trkpt lat="43.46349" lon="2.28365">
        <ele>985.8</ele>
        <time>2017-06-01T08:49:28.000Z</time>
      </trkpt>
      <trkpt lat="43.46355" lon="2.28365">
        <ele>985.8</ele>
        <time>2017-06-01T08:49:29.000Z</time>
      </trkpt>
      <trkpt lat="43.46357" lon="2.28373">
        <ele>985.8</ele>
        <time>2017-06-01T08:49:30.000Z</time>
      </trkpt>
      <trkpt lat="43.46359" lon="2.28377">
        <ele>985.8</ele>
        <time>2017-06-01T08:49:31.000Z</time>
      </trkpt>
      <trkpt lat="43.46361" lon="2.28381">
        <ele>985.8</ele>
        <time>2017-06-01T08:49:32.000Z</time>
      </trkpt>
      <trkpt lat="43.46364" lon="2.28384">
        <ele>985.8</ele>
        <time>2017-06-01T08:49:33.000Z</time>
      </trkpt>
      <trkpt lat="43.46367" lon="2.28387">
        <ele>985.8</ele>
        <time>2017-06-01T08:49:34.000Z</time>
      </trkpt>
      <trkpt lat="43.4637" lon="2.28391">
        <ele>985.8</ele>
        <time>2017-06-01T08:49:36.000Z</time>
      </trkpt>
      <trkpt lat="43.46373" lon="2.28395">
        <ele>985.8</ele>
        <time>2017-06-01T08:49:37.000Z</time>
      </trkpt>
      <trkpt lat="43.46375" lon="2.28402">
        <ele>985.8</ele>
        <time>2017-06-01T08:49:38.000Z</time>
      </trkpt>
      <trkpt lat="43.46375" lon="2.28412">
        <ele>985.8</ele>
        <time>2017-06-01T08:49:39.000Z</time>
      </trkpt>
      <trkpt lat="43.46378" lon="2.28418">
        <ele>985.8</ele>
        <time>2017-06-01T08:49:40.000Z</time>
      </trkpt>
      <trkpt lat="43.46379" lon="2.28423">
        <ele>985.8</ele>
        <time>2017-06-01T08:49:41.000Z</time>
      </trkpt>
      <trkpt lat="43.46381" lon="2.2843">
        <ele>985.8</ele>
        <time>2017-06-01T08:49:42.000Z</time>
      </trkpt>
      <trkpt lat="43.46383" lon="2.28436">
        <ele>985.9</ele>
        <time>2017-06-01T08:49:43.000Z</time>
      </trkpt>
      <trkpt lat="43.46388" lon="2.28438">
        <ele>985.9</ele>
        <time>2017-06-01T08:49:44.000Z</time>
      </trkpt>
      <trkpt lat="43.46389" lon="2.28442">
        <ele>985.9</ele>
        <time>2017-06-01T08:49:45.000Z</time>
      </trkpt>
      <trkpt lat="43.46392" lon="2.28449">
        <ele>986</ele>
        <time>2017-06-01T08:49:46.000Z</time>
      </trkpt>
      <trkpt lat="43.46393" lon="2.28455">
        <ele>986.1</ele>
        <time>2017-06-01T08:49:47.000Z</time>
      </trkpt>
      <trkpt lat="43.46392" lon="2.28463">
        <ele>986.2</ele>
        <time>2017-06-01T08:49:48.000Z</time>
      </trkpt>
      <trkpt lat="43.46394" lon="2.28468">
        <ele>986.3</ele>
        <time>2017-06-01T08:49:49.000Z</time>
      </trkpt>
      <trkpt lat="43.46393" lon="2.28475">
        <ele>986.4</ele>
        <time>2017-06-01T08:49:50.000Z</time>
      </trkpt>
      <trkpt lat="43.46392" lon="2.28484">
        <ele>986.5</ele>
        <time>2017-06-01T08:49:51.000Z</time>
      </trkpt>
      <trkpt lat="43.46396" lon="2.28483">
        <ele>986.6</ele>
        <time>2017-06-01T08:49:52.000Z</time>
      </trkpt>
      <trkpt lat="43.46398" lon="2.28487">
        <ele>986.7</ele>
        <time>2017-06-01T08:49:53.000Z</time>
      </trkpt>
      <trkpt lat="43.46397" lon="2.28493">
        <ele>986.9</ele>
        <time>2017-06-01T08:49:54.000Z</time>
      </trkpt>
      <trkpt lat="43.46397" lon="2.28499">
        <ele>987</ele>
        <time>2017-06-01T08:49:55.000Z</time>
      </trkpt>
      <trkpt lat="43.46396" lon="2.28504">
        <ele>987.2</ele>
        <time>2017-06-01T08:49:56.000Z</time>
      </trkpt>
      <trkpt lat="43.46398" lon="2.28508">
        <ele>987.3</ele>
        <time>2017-06-01T08:49:57.000Z</time>
      </trkpt>
      <trkpt lat="43.46398" lon="2.28516">
        <ele>987.5</ele>
        <time>2017-06-01T08:49:58.000Z</time>
      </trkpt>
      <trkpt lat="43.464" lon="2.28521">
        <ele>987.7</ele>
        <time>2017-06-01T08:49:59.000Z</time>
      </trkpt>
      <trkpt lat="43.46399" lon="2.28525">
        <ele>987.8</ele>
        <time>2017-06-01T08:50:00.000Z</time>
      </trkpt>
      <trkpt lat="43.46401" lon="2.28529">
        <ele>987.9</ele>
        <time>2017-06-01T08:50:01.000Z</time>
      </trkpt>
      <trkpt lat="43.46404" lon="2.28538">
        <ele>987.6</ele>
        <time>2017-06-01T08:50:03.000Z</time>
      </trkpt>
      <trkpt lat="43.46405" lon="2.28541">
        <ele>987.5</ele>
        <time>2017-06-01T08:50:04.000Z</time>
      </trkpt>
      <trkpt lat="43.46408" lon="2.28542">
        <ele>987.4</ele>
        <time>2017-06-01T08:50:06.000Z</time>
      </trkpt>
      <trkpt lat="43.46406" lon="2.28545">
        <ele>987.3</ele>
        <time>2017-06-01T08:50:11.000Z</time>
      </trkpt>
      <trkpt lat="43.46406" lon="2.28549">
        <ele>987.3</ele>
        <time>2017-06-01T08:50:38.000Z</time>
      </trkpt>
      <trkpt lat="43.46408" lon="2.28546">
        <ele>987.2</ele>
        <time>2017-06-01T08:50:40.000Z</time>
      </trkpt>
      <trkpt lat="43.4641" lon="2.28546">
        <ele>987.2</ele>
        <time>2017-06-01T08:50:43.000Z</time>
      </trkpt>
      <trkpt lat="43.46413" lon="2.2855">
        <ele>987.1</ele>
        <time>2017-06-01T08:50:45.000Z</time>
      </trkpt>
      <trkpt lat="43.46413" lon="2.28554">
        <ele>987</ele>
        <time>2017-06-01T08:50:47.000Z</time>
      </trkpt>
      <trkpt lat="43.4641" lon="2.28553">
        <ele>987</ele>
        <time>2017-06-01T08:50:49.000Z</time>
      </trkpt>
      <trkpt lat="43.46407" lon="2.28552">
        <ele>987.1</ele>
        <time>2017-06-01T08:50:51.000Z</time>
      </trkpt>
      <trkpt lat="43.46402" lon="2.28553">
        <ele>987.2</ele>
        <time>2017-06-01T08:50:53.000Z</time>
      </trkpt>
      <trkpt lat="43.46399" lon="2.28549">
        <ele>987.3</ele>
        <time>2017-06-01T08:50:57.000Z</time>
      </trkpt>
      <trkpt lat="43.46396" lon="2.28546">
        <ele>989.3</ele>
        <time>2017-06-01T09:02:28.000Z</time>
      </trkpt>
      <trkpt lat="43.46392" lon="2.28556">
        <ele>990.1</ele>
        <time>2017-06-01T09:02:30.000Z</time>
      </trkpt>
      <trkpt lat="43.46391" lon="2.28562">
        <ele>990.6</ele>
        <time>2017-06-01T09:02:31.000Z</time>
      </trkpt>
      <trkpt lat="43.46384" lon="2.2857">
        <ele>991.8</ele>
        <time>2017-06-01T09:02:32.000Z</time>
      </trkpt>
      <trkpt lat="43.46383" lon="2.28576">
        <ele>992.3</ele>
        <time>2017-06-01T09:02:33.000Z</time>
      </trkpt>
      <trkpt lat="43.46381" lon="2.28581">
        <ele>992.7</ele>
        <time>2017-06-01T09:02:34.000Z</time>
      </trkpt>
      <trkpt lat="43.4638" lon="2.28587">
        <ele>993.2</ele>
        <time>2017-06-01T09:02:35.000Z</time>
      </trkpt>
      <trkpt lat="43.46378" lon="2.2859">
        <ele>993.5</ele>
        <time>2017-06-01T09:02:36.000Z</time>
      </trkpt>
      <trkpt lat="43.46374" lon="2.28602">
        <ele>994.5</ele>
        <time>2017-06-01T09:02:37.000Z</time>
      </trkpt>
      <trkpt lat="43.4637" lon="2.28611">
        <ele>995.2</ele>
        <time>2017-06-01T09:02:39.000Z</time>
      </trkpt>
      <trkpt lat="43.46373" lon="2.28611">
        <ele>995.4</ele>
        <time>2017-06-01T09:02:40.000Z</time>
      </trkpt>
      <trkpt lat="43.46368" lon="2.28619">
        <ele>996</ele>
        <time>2017-06-01T09:02:41.000Z</time>
      </trkpt>
      <trkpt lat="43.46366" lon="2.28623">
        <ele>996.2</ele>
        <time>2017-06-01T09:02:42.000Z</time>
      </trkpt>
      <trkpt lat="43.4636" lon="2.28632">
        <ele>996.9</ele>
        <time>2017-06-01T09:02:43.000Z</time>
      </trkpt>
      <trkpt lat="43.46352" lon="2.28644">
        <ele>997.9</ele>
        <time>2017-06-01T09:02:44.000Z</time>
      </trkpt>
      <trkpt lat="43.46348" lon="2.28647">
        <ele>998.3</ele>
        <time>2017-06-01T09:02:45.000Z</time>
      </trkpt>
      <trkpt lat="43.46346" lon="2.2865">
        <ele>998.6</ele>
        <time>2017-06-01T09:02:46.000Z</time>
      </trkpt>
      <trkpt lat="43.46344" lon="2.28658">
        <ele>999</ele>
        <time>2017-06-01T09:02:47.000Z</time>
      </trkpt>
      <trkpt lat="43.46338" lon="2.28668">
        <ele>999.8</ele>
        <time>2017-06-01T09:02:48.000Z</time>
      </trkpt>
      <trkpt lat="43.46337" lon="2.28673">
        <ele>1000.1</ele>
        <time>2017-06-01T09:02:49.000Z</time>
      </trkpt>
      <trkpt lat="43.46329" lon="2.28679">
        <ele>1001</ele>
        <time>2017-06-01T09:02:52.000Z</time>
      </trkpt>
      <trkpt lat="43.46324" lon="2.28683">
        <ele>1001.5</ele>
        <time>2017-06-01T09:02:53.000Z</time>
      </trkpt>
      <trkpt lat="43.46323" lon="2.28679">
        <ele>1001.8</ele>
        <time>2017-06-01T09:02:54.000Z</time>
      </trkpt>
      <trkpt lat="43.4632" lon="2.2869">
        <ele>1002.6</ele>
        <time>2017-06-01T09:02:55.000Z</time>
      </trkpt>
      <trkpt lat="43.46316" lon="2.28692">
        <ele>1003.1</ele>
        <time>2017-06-01T09:02:57.000Z</time>
      </trkpt>
      <trkpt lat="43.46315" lon="2.28696">
        <ele>1003.3</ele>
        <time>2017-06-01T09:02:58.000Z</time>
      </trkpt>
      <trkpt lat="43.46316" lon="2.28689">
        <ele>1004</ele>
        <time>2017-06-01T09:02:59.000Z</time>
      </trkpt>
      <trkpt lat="43.46315" lon="2.28694">
        <ele>1004.3</ele>
        <time>2017-06-01T09:03:00.000Z</time>
      </trkpt>
      <trkpt lat="43.46315" lon="2.2869">
        <ele>1004.5</ele>
        <time>2017-06-01T09:03:01.000Z</time>
      </trkpt>
      <trkpt lat="43.46316" lon="2.28686">
        <ele>1004.7</ele>
        <time>2017-06-01T09:03:02.000Z</time>
      </trkpt>
      <trkpt lat="43.46318" lon="2.28695">
        <ele>1005.3</ele>
        <time>2017-06-01T09:03:03.000Z</time>
      </trkpt>
      <trkpt lat="43.4631" lon="2.28698">
        <ele>1005.7</ele>
        <time>2017-06-01T09:03:06.000Z</time>
      </trkpt>
      <trkpt lat="43.46305" lon="2.28699">
        <ele>1006.1</ele>
        <time>2017-06-01T09:03:10.000Z</time>
      </trkpt>
      <trkpt lat="43.46302" lon="2.28703">
        <ele>1006.2</ele>
        <time>2017-06-01T09:03:11.000Z</time>
      </trkpt>
      <trkpt lat="43.46302" lon="2.28698">
        <ele>1006.4</ele>
        <time>2017-06-01T09:03:13.000Z</time>
      </trkpt>
      <trkpt lat="43.46298" lon="2.28702">
        <ele>1006.7</ele>
        <time>2017-06-01T09:03:14.000Z</time>
      </trkpt>
      <trkpt lat="43.46295" lon="2.28705">
        <ele>1006.9</ele>
        <time>2017-06-01T09:03:16.000Z</time>
      </trkpt>
      <trkpt lat="43.46292" lon="2.28712">
        <ele>1007.3</ele>
        <time>2017-06-01T09:03:19.000Z</time>
      </trkpt>
      <trkpt lat="43.46288" lon="2.28712">
        <ele>1007.4</ele>
        <time>2017-06-01T09:03:21.000Z</time>
      </trkpt>
      <trkpt lat="43.46287" lon="2.28715">
        <ele>1007.6</ele>
        <time>2017-06-01T09:03:22.000Z</time>
      </trkpt>
      <trkpt lat="43.46278" lon="2.28723">
        <ele>1008.3</ele>
        <time>2017-06-01T09:03:25.000Z</time>
      </trkpt>
      <trkpt lat="43.4628" lon="2.28718">
        <ele>1008.5</ele>
        <time>2017-06-01T09:03:26.000Z</time>
      </trkpt>
      <trkpt lat="43.46274" lon="2.28726">
        <ele>1009</ele>
        <time>2017-06-01T09:03:28.000Z</time>
      </trkpt>
      <trkpt lat="43.46266" lon="2.2873">
        <ele>1009.9</ele>
        <time>2017-06-01T09:03:32.000Z</time>
      </trkpt>
      <trkpt lat="43.46266" lon="2.28724">
        <ele>1010.1</ele>
        <time>2017-06-01T09:03:33.000Z</time>
      </trkpt>
      <trkpt lat="43.46264" lon="2.28728">
        <ele>1010.3</ele>
        <time>2017-06-01T09:03:34.000Z</time>
      </trkpt>
      <trkpt lat="43.46262" lon="2.28724">
        <ele>1007.5</ele>
        <time>2017-06-01T09:03:35.000Z</time>
      </trkpt>
      <trkpt lat="43.46263" lon="2.28716">
        <ele>1005.8</ele>
        <time>2017-06-01T09:03:36.000Z</time>
      </trkpt>
      <trkpt lat="43.46259" lon="2.28716">
        <ele>1006</ele>
        <time>2017-06-01T09:03:40.000Z</time>
      </trkpt>
      <trkpt lat="43.46256" lon="2.28716">
        <ele>1006.3</ele>
        <time>2017-06-01T09:03:42.000Z</time>
      </trkpt>
      <trkpt lat="43.46254" lon="2.28721">
        <ele>1006.5</ele>
        <time>2017-06-01T09:03:44.000Z</time>
      </trkpt>
      <trkpt lat="43.4625" lon="2.28728">
        <ele>1006.9</ele>
        <time>2017-06-01T09:03:45.000Z</time>
      </trkpt>
      <trkpt lat="43.46247" lon="2.28729">
        <ele>1007.2</ele>
        <time>2017-06-01T09:03:47.000Z</time>
      </trkpt>
      <trkpt lat="43.46245" lon="2.28733">
        <ele>1007.4</ele>
        <time>2017-06-01T09:03:49.000Z</time>
      </trkpt>
      <trkpt lat="43.4623" lon="2.28721">
        <ele>1008.8</ele>
        <time>2017-06-01T09:04:01.000Z</time>
      </trkpt>
      <trkpt lat="43.46189" lon="2.28792">
        <ele>1014.6</ele>
        <time>2017-06-01T09:04:24.000Z</time>
      </trkpt>
      <trkpt lat="43.46188" lon="2.28786">
        <ele>1016.6</ele>
        <time>2017-06-01T09:04:25.000Z</time>
      </trkpt>
      <trkpt lat="43.4619" lon="2.28781">
        <ele>1018</ele>
        <time>2017-06-01T09:04:26.000Z</time>
      </trkpt>
      <trkpt lat="43.46185" lon="2.28787">
        <ele>1019.4</ele>
        <time>2017-06-01T09:04:27.000Z</time>
      </trkpt>
      <trkpt lat="43.46184" lon="2.28793">
        <ele>1019</ele>
        <time>2017-06-01T09:04:29.000Z</time>
      </trkpt>
      <trkpt lat="43.46185" lon="2.28794">
        <ele>1019.8</ele>
        <time>2017-06-01T09:04:33.000Z</time>
      </trkpt>
      <trkpt lat="43.46187" lon="2.28791">
        <ele>1019.4</ele>
        <time>2017-06-01T09:04:40.000Z</time>
      </trkpt>
      <trkpt lat="43.46189" lon="2.28788">
        <ele>1020.2</ele>
        <time>2017-06-01T09:04:41.000Z</time>
      </trkpt>
      <trkpt lat="43.46189" lon="2.288">
        <ele>1017.3</ele>
        <time>2017-06-01T09:04:42.000Z</time>
      </trkpt>
      <trkpt lat="43.46189" lon="2.28796">
        <ele>1019.3</ele>
        <time>2017-06-01T09:04:44.000Z</time>
      </trkpt>
      <trkpt lat="43.46189" lon="2.28803">
        <ele>1018.8</ele>
        <time>2017-06-01T09:04:46.000Z</time>
      </trkpt>
      <trkpt lat="43.46132" lon="2.28877">
        <ele>1024.3</ele>
        <time>2017-06-01T09:05:07.000Z</time>
      </trkpt>
      <trkpt lat="43.4608" lon="2.29007">
        <ele>1028.5</ele>
        <time>2017-06-01T09:06:04.000Z</time>
      </trkpt>
      <trkpt lat="43.46081" lon="2.29018">
        <ele>1027.6</ele>
        <time>2017-06-01T09:06:05.000Z</time>
      </trkpt>
      <trkpt lat="43.46096" lon="2.29001">
        <ele>1025.7</ele>
        <time>2017-06-01T09:06:07.000Z</time>
      </trkpt>
      <trkpt lat="43.46096" lon="2.29005">
        <ele>1025.1</ele>
        <time>2017-06-01T09:06:08.000Z</time>
      </trkpt>
      <trkpt lat="43.46096" lon="2.29008">
        <ele>1026.3</ele>
        <time>2017-06-01T09:06:09.000Z</time>
      </trkpt>
      <trkpt lat="43.46098" lon="2.29013">
        <ele>1025.8</ele>
        <time>2017-06-01T09:06:10.000Z</time>
      </trkpt>
      <trkpt lat="43.46081" lon="2.29065">
        <ele>1030.2</ele>
        <time>2017-06-01T09:06:33.000Z</time>
      </trkpt>
      <trkpt lat="43.46079" lon="2.29064">
        <ele>1030.2</ele>
        <time>2017-06-01T09:06:34.000Z</time>
      </trkpt>
      <trkpt lat="43.46077" lon="2.29068">
        <ele>1030.1</ele>
        <time>2017-06-01T09:06:35.000Z</time>
      </trkpt>
      <trkpt lat="43.4607" lon="2.29057">
        <ele>1029.9</ele>
        <time>2017-06-01T09:06:37.000Z</time>
      </trkpt>
      <trkpt lat="43.46071" lon="2.29053">
        <ele>1029.9</ele>
        <time>2017-06-01T09:06:38.000Z</time>
      </trkpt>
      <trkpt lat="43.46067" lon="2.29057">
        <ele>1029.8</ele>
        <time>2017-06-01T09:06:39.000Z</time>
      </trkpt>
      <trkpt lat="43.4607" lon="2.29048">
        <ele>1029.7</ele>
        <time>2017-06-01T09:06:40.000Z</time>
      </trkpt>
      <trkpt lat="43.46068" lon="2.29045">
        <ele>1029.7</ele>
        <time>2017-06-01T09:06:44.000Z</time>
      </trkpt>
      <trkpt lat="43.46062" lon="2.29046">
        <ele>1030.1</ele>
        <time>2017-06-01T09:06:46.000Z</time>
      </trkpt>
      <trkpt lat="43.46059" lon="2.29044">
        <ele>1029.5</ele>
        <time>2017-06-01T09:06:47.000Z</time>
      </trkpt>
      <trkpt lat="43.46052" lon="2.29049">
        <ele>1029.8</ele>
        <time>2017-06-01T09:06:49.000Z</time>
      </trkpt>
      <trkpt lat="43.46049" lon="2.29052">
        <ele>1030.4</ele>
        <time>2017-06-01T09:06:50.000Z</time>
      </trkpt>
      <trkpt lat="43.46043" lon="2.29052">
        <ele>1030.2</ele>
        <time>2017-06-01T09:06:51.000Z</time>
      </trkpt>
      <trkpt lat="43.46041" lon="2.29055">
        <ele>1030.1</ele>
        <time>2017-06-01T09:06:52.000Z</time>
      </trkpt>
      <trkpt lat="43.46046" lon="2.29042">
        <ele>1029.7</ele>
        <time>2017-06-01T09:06:57.000Z</time>
      </trkpt>
      <trkpt lat="43.46043" lon="2.29038">
        <ele>1029.4</ele>
        <time>2017-06-01T09:06:59.000Z</time>
      </trkpt>
      <trkpt lat="43.46029" lon="2.29046">
        <ele>1028.2</ele>
        <time>2017-06-01T09:07:02.000Z</time>
      </trkpt>
      <trkpt lat="43.46033" lon="2.29036">
        <ele>1027.9</ele>
        <time>2017-06-01T09:07:03.000Z</time>
      </trkpt>
      <trkpt lat="43.46031" lon="2.29034">
        <ele>1027.7</ele>
        <time>2017-06-01T09:07:05.000Z</time>
      </trkpt>
      <trkpt lat="43.46032" lon="2.29026">
        <ele>1027</ele>
        <time>2017-06-01T09:07:07.000Z</time>
      </trkpt>
      <trkpt lat="43.46031" lon="2.29022">
        <ele>1026.9</ele>
        <time>2017-06-01T09:07:08.000Z</time>
      </trkpt>
      <trkpt lat="43.46031" lon="2.29017">
        <ele>1026.7</ele>
        <time>2017-06-01T09:07:09.000Z</time>
      </trkpt>
      <trkpt lat="43.4603" lon="2.29014">
        <ele>1026.6</ele>
        <time>2017-06-01T09:07:10.000Z</time>
      </trkpt>
      <trkpt lat="43.46033" lon="2.2901">
        <ele>1026.3</ele>
        <time>2017-06-01T09:07:13.000Z</time>
      </trkpt>
      <trkpt lat="43.46032" lon="2.29005">
        <ele>1026.2</ele>
        <time>2017-06-01T09:07:15.000Z</time>
      </trkpt>
      <trkpt lat="43.4603" lon="2.29">
        <ele>1026.1</ele>
        <time>2017-06-01T09:07:16.000Z</time>
      </trkpt>
      <trkpt lat="43.46029" lon="2.28996">
        <ele>1026.1</ele>
        <time>2017-06-01T09:07:19.000Z</time>
      </trkpt>
      <trkpt lat="43.46032" lon="2.2899">
        <ele>1026</ele>
        <time>2017-06-01T09:07:22.000Z</time>
      </trkpt>
      <trkpt lat="43.46033" lon="2.28983">
        <ele>1026</ele>
        <time>2017-06-01T09:07:24.000Z</time>
      </trkpt>
      <trkpt lat="43.46031" lon="2.28978">
        <ele>1025.9</ele>
        <time>2017-06-01T09:07:26.000Z</time>
      </trkpt>
      <trkpt lat="43.46033" lon="2.28972">
        <ele>1025.9</ele>
        <time>2017-06-01T09:07:27.000Z</time>
      </trkpt>
      <trkpt lat="43.46031" lon="2.2897">
        <ele>1025.9</ele>
        <time>2017-06-01T09:07:28.000Z</time>
      </trkpt>
      <trkpt lat="43.46028" lon="2.28967">
        <ele>1025.9</ele>
        <time>2017-06-01T09:07:29.000Z</time>
      </trkpt>
      <trkpt lat="43.46027" lon="2.28963">
        <ele>1025.9</ele>
        <time>2017-06-01T09:07:30.000Z</time>
      </trkpt>
      <trkpt lat="43.46023" lon="2.28963">
        <ele>1025.9</ele>
        <time>2017-06-01T09:07:31.000Z</time>
      </trkpt>
      <trkpt lat="43.46018" lon="2.28959">
        <ele>1025.9</ele>
        <time>2017-06-01T09:07:33.000Z</time>
      </trkpt>
      <trkpt lat="43.4602" lon="2.28957">
        <ele>1025.9</ele>
        <time>2017-06-01T09:07:34.000Z</time>
      </trkpt>
      <trkpt lat="43.46026" lon="2.28958">
        <ele>1026</ele>
        <time>2017-06-01T09:07:36.000Z</time>
      </trkpt>
      <trkpt lat="43.4603" lon="2.28958">
        <ele>1026</ele>
        <time>2017-06-01T09:07:38.000Z</time>
      </trkpt>
      <trkpt lat="43.46022" lon="2.28957">
        <ele>1026</ele>
        <time>2017-06-01T09:07:39.000Z</time>
      </trkpt>
      <trkpt lat="43.46022" lon="2.28953">
        <ele>1026</ele>
        <time>2017-06-01T09:07:40.000Z</time>
      </trkpt>
      <trkpt lat="43.46019" lon="2.28952">
        <ele>1026</ele>
        <time>2017-06-01T09:07:41.000Z</time>
      </trkpt>
      <trkpt lat="43.46018" lon="2.28948">
        <ele>1026</ele>
        <time>2017-06-01T09:08:18.000Z</time>
      </trkpt>
      <trkpt lat="43.46016" lon="2.28944">
        <ele>1026</ele>
        <time>2017-06-01T09:08:20.000Z</time>
      </trkpt>
      <trkpt lat="43.46011" lon="2.28946">
        <ele>1026</ele>
        <time>2017-06-01T09:08:21.000Z</time>
      </trkpt>
      <trkpt lat="43.46006" lon="2.28947">
        <ele>1026</ele>
        <time>2017-06-01T09:08:23.000Z</time>
      </trkpt>
      <trkpt lat="43.46004" lon="2.2895">
        <ele>1026.2</ele>
        <time>2017-06-01T09:08:25.000Z</time>
      </trkpt>
      <trkpt lat="43.46004" lon="2.28955">
        <ele>1026.4</ele>
        <time>2017-06-01T09:08:27.000Z</time>
      </trkpt>
      <trkpt lat="43.46002" lon="2.28959">
        <ele>1026.7</ele>
        <time>2017-06-01T09:08:28.000Z</time>
      </trkpt>
      <trkpt lat="43.45996" lon="2.28963">
        <ele>1027.2</ele>
        <time>2017-06-01T09:08:29.000Z</time>
      </trkpt>
      <trkpt lat="43.45998" lon="2.28975">
        <ele>1027.9</ele>
        <time>2017-06-01T09:08:35.000Z</time>
      </trkpt>
      <trkpt lat="43.45999" lon="2.28979">
        <ele>1028.1</ele>
        <time>2017-06-01T09:08:36.000Z</time>
      </trkpt>
      <trkpt lat="43.45991" lon="2.28986">
        <ele>1029.9</ele>
        <time>2017-06-01T09:08:38.000Z</time>
      </trkpt>
      <trkpt lat="43.45987" lon="2.28991">
        <ele>1030.8</ele>
        <time>2017-06-01T09:08:40.000Z</time>
      </trkpt>
      <trkpt lat="43.45981" lon="2.28996">
        <ele>1031.7</ele>
        <time>2017-06-01T09:08:41.000Z</time>
      </trkpt>
      <trkpt lat="43.45978" lon="2.28999">
        <ele>1032.3</ele>
        <time>2017-06-01T09:08:42.000Z</time>
      </trkpt>
      <trkpt lat="43.45977" lon="2.29005">
        <ele>1033.1</ele>
        <time>2017-06-01T09:08:43.000Z</time>
      </trkpt>
      <trkpt lat="43.45974" lon="2.29007">
        <ele>1033.3</ele>
        <time>2017-06-01T09:08:44.000Z</time>
      </trkpt>
      <trkpt lat="43.45969" lon="2.29009">
        <ele>1033.5</ele>
        <time>2017-06-01T09:08:45.000Z</time>
      </trkpt>
      <trkpt lat="43.45967" lon="2.29012">
        <ele>1034.1</ele>
        <time>2017-06-01T09:08:46.000Z</time>
      </trkpt>
      <trkpt lat="43.45961" lon="2.2902">
        <ele>1035.1</ele>
        <time>2017-06-01T09:08:47.000Z</time>
      </trkpt>
      <trkpt lat="43.45958" lon="2.29021">
        <ele>1035.3</ele>
        <time>2017-06-01T09:08:49.000Z</time>
      </trkpt>
      <trkpt lat="43.4596" lon="2.29017">
        <ele>1035</ele>
        <time>2017-06-01T09:08:51.000Z</time>
      </trkpt>
      <trkpt lat="43.45964" lon="2.2901">
        <ele>1034.7</ele>
        <time>2017-06-01T09:08:54.000Z</time>
      </trkpt>
      <trkpt lat="43.45969" lon="2.29003">
        <ele>1034.1</ele>
        <time>2017-06-01T09:08:56.000Z</time>
      </trkpt>
      <trkpt lat="43.45962" lon="2.29006">
        <ele>1034.6</ele>
        <time>2017-06-01T09:08:58.000Z</time>
      </trkpt>
      <trkpt lat="43.45968" lon="2.28991">
        <ele>1033.7</ele>
        <time>2017-06-01T09:08:59.000Z</time>
      </trkpt>
      <trkpt lat="43.45966" lon="2.28998">
        <ele>1034.3</ele>
        <time>2017-06-01T09:09:00.000Z</time>
      </trkpt>
      <trkpt lat="43.45963" lon="2.28995">
        <ele>1034.1</ele>
        <time>2017-06-01T09:09:02.000Z</time>
      </trkpt>
      <trkpt lat="43.45962" lon="2.29004">
        <ele>1034.8</ele>
        <time>2017-06-01T09:09:04.000Z</time>
      </trkpt>
      <trkpt lat="43.45958" lon="2.29008">
        <ele>1035.3</ele>
        <time>2017-06-01T09:09:05.000Z</time>
      </trkpt>
      <trkpt lat="43.45953" lon="2.29013">
        <ele>1035.9</ele>
        <time>2017-06-01T09:09:06.000Z</time>
      </trkpt>
      <trkpt lat="43.45955" lon="2.29023">
        <ele>1037.4</ele>
        <time>2017-06-01T09:09:08.000Z</time>
      </trkpt>
      <trkpt lat="43.45958" lon="2.29022">
        <ele>1037.7</ele>
        <time>2017-06-01T09:09:10.000Z</time>
      </trkpt>
      <trkpt lat="43.45958" lon="2.29027">
        <ele>1038.1</ele>
        <time>2017-06-01T09:09:11.000Z</time>
      </trkpt>
      <trkpt lat="43.45959" lon="2.29031">
        <ele>1038.5</ele>
        <time>2017-06-01T09:09:12.000Z</time>
      </trkpt>
      <trkpt lat="43.45958" lon="2.29028">
        <ele>1038.5</ele>
        <time>2017-06-01T09:09:13.000Z</time>
      </trkpt>
      <trkpt lat="43.45956" lon="2.29032">
        <ele>1038.9</ele>
        <time>2017-06-01T09:09:14.000Z</time>
      </trkpt>
      <trkpt lat="43.45954" lon="2.29039">
        <ele>1039.2</ele>
        <time>2017-06-01T09:09:15.000Z</time>
      </trkpt>
      <trkpt lat="43.45952" lon="2.29045">
        <ele>1039.5</ele>
        <time>2017-06-01T09:09:18.000Z</time>
      </trkpt>
      <trkpt lat="43.45953" lon="2.2905">
        <ele>1039.9</ele>
        <time>2017-06-01T09:09:19.000Z</time>
      </trkpt>
      <trkpt lat="43.45954" lon="2.29043">
        <ele>1039.8</ele>
        <time>2017-06-01T09:09:21.000Z</time>
      </trkpt>
      <trkpt lat="43.45959" lon="2.29071">
        <ele>1040.5</ele>
        <time>2017-06-01T09:09:24.000Z</time>
      </trkpt>
      <trkpt lat="43.45959" lon="2.29065">
        <ele>1040.6</ele>
        <time>2017-06-01T09:09:25.000Z</time>
      </trkpt>
      <trkpt lat="43.45959" lon="2.2907">
        <ele>1040.8</ele>
        <time>2017-06-01T09:09:27.000Z</time>
      </trkpt>
      <trkpt lat="43.45951" lon="2.29149">
        <ele>1043.6</ele>
        <time>2017-06-01T09:10:36.000Z</time>
      </trkpt>
      <trkpt lat="43.45947" lon="2.29137">
        <ele>1043.6</ele>
        <time>2017-06-01T09:10:41.000Z</time>
      </trkpt>
      <trkpt lat="43.45949" lon="2.29142">
        <ele>1043.8</ele>
        <time>2017-06-01T09:10:42.000Z</time>
      </trkpt>
      <trkpt lat="43.45933" lon="2.29162">
        <ele>1043.9</ele>
        <time>2017-06-01T09:10:45.000Z</time>
      </trkpt>
      <trkpt lat="43.4592" lon="2.29177">
        <ele>1044.5</ele>
        <time>2017-06-01T09:10:47.000Z</time>
      </trkpt>
      <trkpt lat="43.45918" lon="2.29178">
        <ele>1044.7</ele>
        <time>2017-06-01T09:10:49.000Z</time>
      </trkpt>
      <trkpt lat="43.4592" lon="2.29172">
        <ele>1044.7</ele>
        <time>2017-06-01T09:10:50.000Z</time>
      </trkpt>
      <trkpt lat="43.45923" lon="2.29176">
        <ele>1044.8</ele>
        <time>2017-06-01T09:10:52.000Z</time>
      </trkpt>
      <trkpt lat="43.4592" lon="2.29178">
        <ele>1045.1</ele>
        <time>2017-06-01T09:10:53.000Z</time>
      </trkpt>
      <trkpt lat="43.45921" lon="2.29182">
        <ele>1045.4</ele>
        <time>2017-06-01T09:10:54.000Z</time>
      </trkpt>
      <trkpt lat="43.45909" lon="2.29169">
        <ele>1045.2</ele>
        <time>2017-06-01T09:11:45.000Z</time>
      </trkpt>
      <trkpt lat="43.45906" lon="2.29163">
        <ele>1044.9</ele>
        <time>2017-06-01T09:11:46.000Z</time>
      </trkpt>
      <trkpt lat="43.45911" lon="2.29175">
        <ele>1045.7</ele>
        <time>2017-06-01T09:11:47.000Z</time>
      </trkpt>
      <trkpt lat="43.45917" lon="2.29171">
        <ele>1045.7</ele>
        <time>2017-06-01T09:11:49.000Z</time>
      </trkpt>
      <trkpt lat="43.45921" lon="2.29167">
        <ele>1045.8</ele>
        <time>2017-06-01T09:11:51.000Z</time>
      </trkpt>
      <trkpt lat="43.45918" lon="2.29177">
        <ele>1046.2</ele>
        <time>2017-06-01T09:11:55.000Z</time>
      </trkpt>
      <trkpt lat="43.45919" lon="2.29181">
        <ele>1046.5</ele>
        <time>2017-06-01T09:11:56.000Z</time>
      </trkpt>
      <trkpt lat="43.45917" lon="2.29186">
        <ele>1047</ele>
        <time>2017-06-01T09:12:34.000Z</time>
      </trkpt>
      <trkpt lat="43.4592" lon="2.29186">
        <ele>1047.1</ele>
        <time>2017-06-01T09:12:35.000Z</time>
      </trkpt>
      <trkpt lat="43.4592" lon="2.29195">
        <ele>1047.5</ele>
        <time>2017-06-01T09:12:36.000Z</time>
      </trkpt>
      <trkpt lat="43.45919" lon="2.29202">
        <ele>1047.9</ele>
        <time>2017-06-01T09:12:37.000Z</time>
      </trkpt>
      <trkpt lat="43.45922" lon="2.29203">
        <ele>1048.1</ele>
        <time>2017-06-01T09:12:38.000Z</time>
      </trkpt>
      <trkpt lat="43.4592" lon="2.29205">
        <ele>1048.4</ele>
        <time>2017-06-01T09:12:39.000Z</time>
      </trkpt>
      <trkpt lat="43.45922" lon="2.29204">
        <ele>1048.4</ele>
        <time>2017-06-01T09:12:40.000Z</time>
      </trkpt>
      <trkpt lat="43.45922" lon="2.29211">
        <ele>1048.9</ele>
        <time>2017-06-01T09:12:41.000Z</time>
      </trkpt>
      <trkpt lat="43.45922" lon="2.29236">
        <ele>1049.4</ele>
        <time>2017-06-01T09:14:21.000Z</time>
      </trkpt>
      <trkpt lat="43.45922" lon="2.29241">
        <ele>1049.5</ele>
        <time>2017-06-01T09:14:22.000Z</time>
      </trkpt>
      <trkpt lat="43.45922" lon="2.29232">
        <ele>1049.7</ele>
        <time>2017-06-01T09:14:25.000Z</time>
      </trkpt>
      <trkpt lat="43.45921" lon="2.29227">
        <ele>1050</ele>
        <time>2017-06-01T09:14:26.000Z</time>
      </trkpt>
      <trkpt lat="43.45922" lon="2.29222">
        <ele>1049.9</ele>
        <time>2017-06-01T09:14:29.000Z</time>
      </trkpt>
      <trkpt lat="43.4592" lon="2.29226">
        <ele>1050.3</ele>
        <time>2017-06-01T09:14:30.000Z</time>
      </trkpt>
      <trkpt lat="43.45921" lon="2.2922">
        <ele>1050.2</ele>
        <time>2017-06-01T09:14:31.000Z</time>
      </trkpt>
      <trkpt lat="43.45923" lon="2.29223">
        <ele>1050.4</ele>
        <time>2017-06-01T09:14:32.000Z</time>
      </trkpt>
      <trkpt lat="43.45931" lon="2.29218">
        <ele>1049.8</ele>
        <time>2017-06-01T09:14:34.000Z</time>
      </trkpt>
      <trkpt lat="43.45918" lon="2.29225">
        <ele>1051</ele>
        <time>2017-06-01T09:14:35.000Z</time>
      </trkpt>
      <trkpt lat="43.45912" lon="2.29229">
        <ele>1051.5</ele>
        <time>2017-06-01T09:14:36.000Z</time>
      </trkpt>
      <trkpt lat="43.45909" lon="2.29231">
        <ele>1051.7</ele>
        <time>2017-06-01T09:14:41.000Z</time>
      </trkpt>
      <trkpt lat="43.45907" lon="2.29211">
        <ele>1051.7</ele>
        <time>2017-06-01T09:14:48.000Z</time>
      </trkpt>
      <trkpt lat="43.45908" lon="2.29208">
        <ele>1051.8</ele>
        <time>2017-06-01T09:14:49.000Z</time>
      </trkpt>
      <trkpt lat="43.45905" lon="2.29211">
        <ele>1052</ele>
        <time>2017-06-01T09:14:51.000Z</time>
      </trkpt>
      <trkpt lat="43.45902" lon="2.29212">
        <ele>1052.3</ele>
        <time>2017-06-01T09:14:56.000Z</time>
      </trkpt>
      <trkpt lat="43.45901" lon="2.29216">
        <ele>1052.6</ele>
        <time>2017-06-01T09:14:59.000Z</time>
      </trkpt>
      <trkpt lat="43.45895" lon="2.29217">
        <ele>1052.6</ele>
        <time>2017-06-01T09:15:01.000Z</time>
      </trkpt>
      <trkpt lat="43.45889" lon="2.29221">
        <ele>1052.5</ele>
        <time>2017-06-01T09:15:03.000Z</time>
      </trkpt>
      <trkpt lat="43.45891" lon="2.29196">
        <ele>1052</ele>
        <time>2017-06-01T09:15:06.000Z</time>
      </trkpt>
      <trkpt lat="43.45895" lon="2.29195">
        <ele>1052.3</ele>
        <time>2017-06-01T09:15:09.000Z</time>
      </trkpt>
      <trkpt lat="43.45895" lon="2.29191">
        <ele>1052.2</ele>
        <time>2017-06-01T09:15:10.000Z</time>
      </trkpt>
      <trkpt lat="43.45901" lon="2.29187">
        <ele>1052.2</ele>
        <time>2017-06-01T09:15:12.000Z</time>
      </trkpt>
      <trkpt lat="43.45903" lon="2.29185">
        <ele>1052.1</ele>
        <time>2017-06-01T09:15:13.000Z</time>
      </trkpt>
      <trkpt lat="43.45911" lon="2.29194">
        <ele>1052.9</ele>
        <time>2017-06-01T09:15:15.000Z</time>
      </trkpt>
      <trkpt lat="43.45912" lon="2.29189">
        <ele>1052.5</ele>
        <time>2017-06-01T09:15:16.000Z</time>
      </trkpt>
      <trkpt lat="43.45915" lon="2.29186">
        <ele>1052.7</ele>
        <time>2017-06-01T09:15:18.000Z</time>
      </trkpt>
      <trkpt lat="43.45915" lon="2.29192">
        <ele>1053.1</ele>
        <time>2017-06-01T09:15:19.000Z</time>
      </trkpt>
      <trkpt lat="43.45917" lon="2.29197">
        <ele>1053.3</ele>
        <time>2017-06-01T09:15:20.000Z</time>
      </trkpt>
      <trkpt lat="43.45912" lon="2.29198">
        <ele>1053.6</ele>
        <time>2017-06-01T09:15:24.000Z</time>
      </trkpt>
      <trkpt lat="43.45912" lon="2.29194">
        <ele>1053.7</ele>
        <time>2017-06-01T09:15:25.000Z</time>
      </trkpt>
      <trkpt lat="43.45911" lon="2.29182">
        <ele>1053.4</ele>
        <time>2017-06-01T09:15:26.000Z</time>
      </trkpt>
      <trkpt lat="43.45907" lon="2.29177">
        <ele>1053.4</ele>
        <time>2017-06-01T09:15:30.000Z</time>
      </trkpt>
      <trkpt lat="43.45906" lon="2.29173">
        <ele>1053.3</ele>
        <time>2017-06-01T09:15:34.000Z</time>
      </trkpt>
      <trkpt lat="43.4591" lon="2.29177">
        <ele>1053.7</ele>
        <time>2017-06-01T09:15:37.000Z</time>
      </trkpt>
      <trkpt lat="43.45907" lon="2.29181">
        <ele>1053.9</ele>
        <time>2017-06-01T09:15:39.000Z</time>
      </trkpt>
      <trkpt lat="43.45899" lon="2.29181">
        <ele>1054.2</ele>
        <time>2017-06-01T09:15:44.000Z</time>
      </trkpt>
      <trkpt lat="43.45895" lon="2.2918">
        <ele>1053.9</ele>
        <time>2017-06-01T09:15:46.000Z</time>
      </trkpt>
      <trkpt lat="43.45913" lon="2.29205">
        <ele>1055.4</ele>
        <time>2017-06-01T09:17:47.000Z</time>
      </trkpt>
      <trkpt lat="43.45926" lon="2.29228">
        <ele>1055.6</ele>
        <time>2017-06-01T09:17:53.000Z</time>
      </trkpt>
      <trkpt lat="43.45932" lon="2.29221">
        <ele>1055.2</ele>
        <time>2017-06-01T09:17:54.000Z</time>
      </trkpt>
      <trkpt lat="43.45935" lon="2.29221">
        <ele>1055.1</ele>
        <time>2017-06-01T09:17:55.000Z</time>
      </trkpt>
      <trkpt lat="43.4594" lon="2.29224">
        <ele>1055.1</ele>
        <time>2017-06-01T09:17:56.000Z</time>
      </trkpt>
      <trkpt lat="43.45946" lon="2.29228">
        <ele>1054.8</ele>
        <time>2017-06-01T09:17:57.000Z</time>
      </trkpt>
      <trkpt lat="43.4595" lon="2.29227">
        <ele>1054.4</ele>
        <time>2017-06-01T09:17:58.000Z</time>
      </trkpt>
      <trkpt lat="43.45953" lon="2.29225">
        <ele>1054.3</ele>
        <time>2017-06-01T09:17:59.000Z</time>
      </trkpt>
      <trkpt lat="43.45956" lon="2.29227">
        <ele>1054.1</ele>
        <time>2017-06-01T09:18:00.000Z</time>
      </trkpt>
      <trkpt lat="43.45958" lon="2.29231">
        <ele>1054.3</ele>
        <time>2017-06-01T09:18:01.000Z</time>
      </trkpt>
      <trkpt lat="43.45963" lon="2.29232">
        <ele>1053.6</ele>
        <time>2017-06-01T09:18:02.000Z</time>
      </trkpt>
      <trkpt lat="43.45966" lon="2.29232">
        <ele>1053.3</ele>
        <time>2017-06-01T09:18:03.000Z</time>
      </trkpt>
      <trkpt lat="43.45968" lon="2.2923">
        <ele>1053</ele>
        <time>2017-06-01T09:18:04.000Z</time>
      </trkpt>
      <trkpt lat="43.45982" lon="2.29251">
        <ele>1050.1</ele>
        <time>2017-06-01T09:18:06.000Z</time>
      </trkpt>
      <trkpt lat="43.45987" lon="2.29253">
        <ele>1049.6</ele>
        <time>2017-06-01T09:18:07.000Z</time>
      </trkpt>
      <trkpt lat="43.45995" lon="2.29255">
        <ele>1047.2</ele>
        <time>2017-06-01T09:18:08.000Z</time>
      </trkpt>
      <trkpt lat="43.45995" lon="2.2926">
        <ele>1047</ele>
        <time>2017-06-01T09:18:09.000Z</time>
      </trkpt>
      <trkpt lat="43.46012" lon="2.29253">
        <ele>1043.3</ele>
        <time>2017-06-01T09:18:11.000Z</time>
      </trkpt>
      <trkpt lat="43.46016" lon="2.29257">
        <ele>1042.3</ele>
        <time>2017-06-01T09:18:13.000Z</time>
      </trkpt>
      <trkpt lat="43.46019" lon="2.2926">
        <ele>1041.2</ele>
        <time>2017-06-01T09:18:14.000Z</time>
      </trkpt>
      <trkpt lat="43.46016" lon="2.29265">
        <ele>1041.8</ele>
        <time>2017-06-01T09:18:15.000Z</time>
      </trkpt>
      <trkpt lat="43.4602" lon="2.29262">
        <ele>1041.6</ele>
        <time>2017-06-01T09:18:17.000Z</time>
      </trkpt>
      <trkpt lat="43.46028" lon="2.29261">
        <ele>1039.6</ele>
        <time>2017-06-01T09:18:19.000Z</time>
      </trkpt>
      <trkpt lat="43.4604" lon="2.29262">
        <ele>1036.7</ele>
        <time>2017-06-01T09:18:20.000Z</time>
      </trkpt>
      <trkpt lat="43.46047" lon="2.29265">
        <ele>1034.9</ele>
        <time>2017-06-01T09:18:21.000Z</time>
      </trkpt>
      <trkpt lat="43.46058" lon="2.29255">
        <ele>1033.4</ele>
        <time>2017-06-01T09:18:22.000Z</time>
      </trkpt>
      <trkpt lat="43.4606" lon="2.29259">
        <ele>1032.5</ele>
        <time>2017-06-01T09:18:23.000Z</time>
      </trkpt>
      <trkpt lat="43.46067" lon="2.29255">
        <ele>1031.2</ele>
        <time>2017-06-01T09:18:24.000Z</time>
      </trkpt>
      <trkpt lat="43.46076" lon="2.29253">
        <ele>1028.7</ele>
        <time>2017-06-01T09:18:25.000Z</time>
      </trkpt>
      <trkpt lat="43.46068" lon="2.29269">
        <ele>1028.4</ele>
        <time>2017-06-01T09:18:26.000Z</time>
      </trkpt>
      <trkpt lat="43.46066" lon="2.29272">
        <ele>1028.4</ele>
        <time>2017-06-01T09:18:27.000Z</time>
      </trkpt>
      <trkpt lat="43.46065" lon="2.29278">
        <ele>1028.3</ele>
        <time>2017-06-01T09:18:28.000Z</time>
      </trkpt>
      <trkpt lat="43.46069" lon="2.29285">
        <ele>1028.2</ele>
        <time>2017-06-01T09:18:29.000Z</time>
      </trkpt>
      <trkpt lat="43.46072" lon="2.29278">
        <ele>1028.1</ele>
        <time>2017-06-01T09:18:30.000Z</time>
      </trkpt>
      <trkpt lat="43.4607" lon="2.29285">
        <ele>1028</ele>
        <time>2017-06-01T09:18:31.000Z</time>
      </trkpt>
      <trkpt lat="43.46068" lon="2.29295">
        <ele>1027.8</ele>
        <time>2017-06-01T09:18:32.000Z</time>
      </trkpt>
      <trkpt lat="43.46063" lon="2.29302">
        <ele>1027.7</ele>
        <time>2017-06-01T09:18:33.000Z</time>
      </trkpt>
      <trkpt lat="43.46061" lon="2.2931">
        <ele>1027.5</ele>
        <time>2017-06-01T09:18:34.000Z</time>
      </trkpt>
      <trkpt lat="43.4606" lon="2.29316">
        <ele>1027.4</ele>
        <time>2017-06-01T09:18:35.000Z</time>
      </trkpt>
      <trkpt lat="43.46056" lon="2.29317">
        <ele>1027.3</ele>
        <time>2017-06-01T09:18:36.000Z</time>
      </trkpt>
      <trkpt lat="43.46052" lon="2.29322">
        <ele>1027.2</ele>
        <time>2017-06-01T09:18:37.000Z</time>
      </trkpt>
      <trkpt lat="43.46052" lon="2.29327">
        <ele>1027.1</ele>
        <time>2017-06-01T09:18:38.000Z</time>
      </trkpt>
      <trkpt lat="43.46057" lon="2.29324">
        <ele>1025.4</ele>
        <time>2017-06-01T09:18:39.000Z</time>
      </trkpt>
      <trkpt lat="43.46062" lon="2.29332">
        <ele>1023.4</ele>
        <time>2017-06-01T09:18:40.000Z</time>
      </trkpt>
      <trkpt lat="43.46068" lon="2.29337">
        <ele>1021.7</ele>
        <time>2017-06-01T09:18:41.000Z</time>
      </trkpt>
      <trkpt lat="43.46071" lon="2.29341">
        <ele>1020.7</ele>
        <time>2017-06-01T09:18:43.000Z</time>
      </trkpt>
      <trkpt lat="43.46074" lon="2.29344">
        <ele>1019.8</ele>
        <time>2017-06-01T09:18:44.000Z</time>
      </trkpt>
      <trkpt lat="43.46076" lon="2.29347">
        <ele>1019</ele>
        <time>2017-06-01T09:18:45.000Z</time>
      </trkpt>
      <trkpt lat="43.46081" lon="2.29353">
        <ele>1018.9</ele>
        <time>2017-06-01T09:18:47.000Z</time>
      </trkpt>
      <trkpt lat="43.46084" lon="2.29356">
        <ele>1018.9</ele>
        <time>2017-06-01T09:18:48.000Z</time>
      </trkpt>
      <trkpt lat="43.46087" lon="2.2936">
        <ele>1018.8</ele>
        <time>2017-06-01T09:18:49.000Z</time>
      </trkpt>
      <trkpt lat="43.46085" lon="2.29364">
        <ele>1018.8</ele>
        <time>2017-06-01T09:18:50.000Z</time>
      </trkpt>
      <trkpt lat="43.46088" lon="2.29368">
        <ele>1018.6</ele>
        <time>2017-06-01T09:18:51.000Z</time>
      </trkpt>
      <trkpt lat="43.46091" lon="2.29374">
        <ele>1016.7</ele>
        <time>2017-06-01T09:18:53.000Z</time>
      </trkpt>
      <trkpt lat="43.46093" lon="2.29378">
        <ele>1014.7</ele>
        <time>2017-06-01T09:18:54.000Z</time>
      </trkpt>
      <trkpt lat="43.46096" lon="2.29386">
        <ele>1012</ele>
        <time>2017-06-01T09:18:55.000Z</time>
      </trkpt>
      <trkpt lat="43.46101" lon="2.29388">
        <ele>1010</ele>
        <time>2017-06-01T09:18:56.000Z</time>
      </trkpt>
      <trkpt lat="43.46105" lon="2.2939">
        <ele>1008.6</ele>
        <time>2017-06-01T09:18:57.000Z</time>
      </trkpt>
      <trkpt lat="43.46101" lon="2.29393">
        <ele>1008.2</ele>
        <time>2017-06-01T09:18:58.000Z</time>
      </trkpt>
      <trkpt lat="43.46109" lon="2.29401">
        <ele>1003.4</ele>
        <time>2017-06-01T09:18:59.000Z</time>
      </trkpt>
      <trkpt lat="43.46114" lon="2.29396">
        <ele>1003.3</ele>
        <time>2017-06-01T09:19:00.000Z</time>
      </trkpt>
      <trkpt lat="43.46119" lon="2.29392">
        <ele>1002.2</ele>
        <time>2017-06-01T09:19:01.000Z</time>
      </trkpt>
      <trkpt lat="43.46124" lon="2.29392">
        <ele>1000</ele>
        <time>2017-06-01T09:19:02.000Z</time>
      </trkpt>
      <trkpt lat="43.46135" lon="2.29389">
        <ele>997.8</ele>
        <time>2017-06-01T09:19:03.000Z</time>
      </trkpt>
      <trkpt lat="43.46142" lon="2.29397">
        <ele>994.5</ele>
        <time>2017-06-01T09:19:04.000Z</time>
      </trkpt>
      <trkpt lat="43.46148" lon="2.29392">
        <ele>993.3</ele>
        <time>2017-06-01T09:19:05.000Z</time>
      </trkpt>
      <trkpt lat="43.46155" lon="2.29396">
        <ele>990.4</ele>
        <time>2017-06-01T09:19:06.000Z</time>
      </trkpt>
      <trkpt lat="43.46162" lon="2.29392">
        <ele>988.2</ele>
        <time>2017-06-01T09:19:07.000Z</time>
      </trkpt>
      <trkpt lat="43.46171" lon="2.29387">
        <ele>986.8</ele>
        <time>2017-06-01T09:19:08.000Z</time>
      </trkpt>
      <trkpt lat="43.46178" lon="2.29384">
        <ele>984.8</ele>
        <time>2017-06-01T09:19:09.000Z</time>
      </trkpt>
      <trkpt lat="43.46184" lon="2.29382">
        <ele>983.4</ele>
        <time>2017-06-01T09:19:10.000Z</time>
      </trkpt>
      <trkpt lat="43.46194" lon="2.29377">
        <ele>981.1</ele>
        <time>2017-06-01T09:19:11.000Z</time>
      </trkpt>
      <trkpt lat="43.46199" lon="2.29374">
        <ele>979.4</ele>
        <time>2017-06-01T09:19:12.000Z</time>
      </trkpt>
      <trkpt lat="43.46202" lon="2.29377">
        <ele>978.1</ele>
        <time>2017-06-01T09:19:13.000Z</time>
      </trkpt>
      <trkpt lat="43.46211" lon="2.29371">
        <ele>974.7</ele>
        <time>2017-06-01T09:19:15.000Z</time>
      </trkpt>
      <trkpt lat="43.46217" lon="2.29371">
        <ele>973.4</ele>
        <time>2017-06-01T09:19:16.000Z</time>
      </trkpt>
      <trkpt lat="43.46221" lon="2.29372">
        <ele>972.6</ele>
        <time>2017-06-01T09:19:17.000Z</time>
      </trkpt>
      <trkpt lat="43.46226" lon="2.29379">
        <ele>970.6</ele>
        <time>2017-06-01T09:19:18.000Z</time>
      </trkpt>
      <trkpt lat="43.46231" lon="2.29379">
        <ele>969.8</ele>
        <time>2017-06-01T09:19:19.000Z</time>
      </trkpt>
      <trkpt lat="43.46235" lon="2.29383">
        <ele>967.6</ele>
        <time>2017-06-01T09:19:20.000Z</time>
      </trkpt>
      <trkpt lat="43.46238" lon="2.29387">
        <ele>966.6</ele>
        <time>2017-06-01T09:19:21.000Z</time>
      </trkpt>
      <trkpt lat="43.46242" lon="2.29394">
        <ele>965.5</ele>
        <time>2017-06-01T09:19:22.000Z</time>
      </trkpt>
      <trkpt lat="43.46246" lon="2.29398">
        <ele>965</ele>
        <time>2017-06-01T09:19:23.000Z</time>
      </trkpt>
      <trkpt lat="43.46257" lon="2.29392">
        <ele>963.5</ele>
        <time>2017-06-01T09:19:25.000Z</time>
      </trkpt>
      <trkpt lat="43.46263" lon="2.2939">
        <ele>962.8</ele>
        <time>2017-06-01T09:19:26.000Z</time>
      </trkpt>
      <trkpt lat="43.46267" lon="2.29393">
        <ele>962.1</ele>
        <time>2017-06-01T09:19:27.000Z</time>
      </trkpt>
      <trkpt lat="43.46272" lon="2.29393">
        <ele>961.5</ele>
        <time>2017-06-01T09:19:28.000Z</time>
      </trkpt>
      <trkpt lat="43.4628" lon="2.2939">
        <ele>959.7</ele>
        <time>2017-06-01T09:19:29.000Z</time>
      </trkpt>
      <trkpt lat="43.46287" lon="2.29387">
        <ele>958.6</ele>
        <time>2017-06-01T09:19:30.000Z</time>
      </trkpt>
      <trkpt lat="43.46296" lon="2.2938">
        <ele>956.4</ele>
        <time>2017-06-01T09:19:31.000Z</time>
      </trkpt>
      <trkpt lat="43.463" lon="2.29374">
        <ele>955.2</ele>
        <time>2017-06-01T09:19:32.000Z</time>
      </trkpt>
      <trkpt lat="43.46307" lon="2.29369">
        <ele>953.3</ele>
        <time>2017-06-01T09:19:33.000Z</time>
      </trkpt>
      <trkpt lat="43.46312" lon="2.29367">
        <ele>952.1</ele>
        <time>2017-06-01T09:19:34.000Z</time>
      </trkpt>
      <trkpt lat="43.46317" lon="2.29363">
        <ele>950.9</ele>
        <time>2017-06-01T09:19:35.000Z</time>
      </trkpt>
      <trkpt lat="43.46347" lon="2.29397">
        <ele>937.2</ele>
        <time>2017-06-01T09:19:45.000Z</time>
      </trkpt>
      <trkpt lat="43.46373" lon="2.29399">
        <ele>930.4</ele>
        <time>2017-06-01T09:19:47.000Z</time>
      </trkpt>
      <trkpt lat="43.46368" lon="2.29407">
        <ele>927.5</ele>
        <time>2017-06-01T09:19:48.000Z</time>
      </trkpt>
      <trkpt lat="43.46375" lon="2.29408">
        <ele>923.5</ele>
        <time>2017-06-01T09:19:49.000Z</time>
      </trkpt>
      <trkpt lat="43.46384" lon="2.29415">
        <ele>918.8</ele>
        <time>2017-06-01T09:19:50.000Z</time>
      </trkpt>
      <trkpt lat="43.4639" lon="2.29414">
        <ele>915.7</ele>
        <time>2017-06-01T09:19:51.000Z</time>
      </trkpt>
      <trkpt lat="43.46396" lon="2.29414">
        <ele>912.4</ele>
        <time>2017-06-01T09:19:52.000Z</time>
      </trkpt>
      <trkpt lat="43.464" lon="2.29414">
        <ele>909.7</ele>
        <time>2017-06-01T09:19:53.000Z</time>
      </trkpt>
      <trkpt lat="43.46406" lon="2.29414">
        <ele>909</ele>
        <time>2017-06-01T09:19:54.000Z</time>
      </trkpt>
      <trkpt lat="43.46411" lon="2.29412">
        <ele>908.3</ele>
        <time>2017-06-01T09:19:55.000Z</time>
      </trkpt>
      <trkpt lat="43.46407" lon="2.29418">
        <ele>907.5</ele>
        <time>2017-06-01T09:19:56.000Z</time>
      </trkpt>
      <trkpt lat="43.46403" lon="2.29424">
        <ele>906.5</ele>
        <time>2017-06-01T09:19:59.000Z</time>
      </trkpt>
      <trkpt lat="43.46408" lon="2.2943">
        <ele>905.2</ele>
        <time>2017-06-01T09:20:01.000Z</time>
      </trkpt>
      <trkpt lat="43.46401" lon="2.29437">
        <ele>903.7</ele>
        <time>2017-06-01T09:20:02.000Z</time>
      </trkpt>
      <trkpt lat="43.46406" lon="2.29441">
        <ele>903.1</ele>
        <time>2017-06-01T09:20:03.000Z</time>
      </trkpt>
      <trkpt lat="43.46406" lon="2.29446">
        <ele>902.7</ele>
        <time>2017-06-01T09:20:04.000Z</time>
      </trkpt>
      <trkpt lat="43.46409" lon="2.29445">
        <ele>902.4</ele>
        <time>2017-06-01T09:20:05.000Z</time>
      </trkpt>
      <trkpt lat="43.4641" lon="2.2945">
        <ele>902.1</ele>
        <time>2017-06-01T09:20:06.000Z</time>
      </trkpt>
      <trkpt lat="43.46411" lon="2.29454">
        <ele>901.7</ele>
        <time>2017-06-01T09:20:07.000Z</time>
      </trkpt>
      <trkpt lat="43.46414" lon="2.29459">
        <ele>901.2</ele>
        <time>2017-06-01T09:20:08.000Z</time>
      </trkpt>
      <trkpt lat="43.46426" lon="2.29468">
        <ele>899.2</ele>
        <time>2017-06-01T09:20:09.000Z</time>
      </trkpt>
      <trkpt lat="43.46428" lon="2.29473">
        <ele>898.7</ele>
        <time>2017-06-01T09:20:10.000Z</time>
      </trkpt>
      <trkpt lat="43.46457" lon="2.29514">
        <ele>894.7</ele>
        <time>2017-06-01T09:20:19.000Z</time>
      </trkpt>
      <trkpt lat="43.4646" lon="2.29517">
        <ele>894.5</ele>
        <time>2017-06-01T09:20:20.000Z</time>
      </trkpt>
      <trkpt lat="43.46462" lon="2.29523">
        <ele>894.1</ele>
        <time>2017-06-01T09:20:21.000Z</time>
      </trkpt>
      <trkpt lat="43.46472" lon="2.29518">
        <ele>893.3</ele>
        <time>2017-06-01T09:20:22.000Z</time>
      </trkpt>
      <trkpt lat="43.46475" lon="2.29527">
        <ele>892.8</ele>
        <time>2017-06-01T09:20:23.000Z</time>
      </trkpt>
      <trkpt lat="43.46478" lon="2.29531">
        <ele>892.5</ele>
        <time>2017-06-01T09:20:24.000Z</time>
      </trkpt>
      <trkpt lat="43.46512" lon="2.29522">
        <ele>889.5</ele>
        <time>2017-06-01T09:20:35.000Z</time>
      </trkpt>
      <trkpt lat="43.46503" lon="2.29521">
        <ele>888.8</ele>
        <time>2017-06-01T09:20:36.000Z</time>
      </trkpt>
      <trkpt lat="43.46501" lon="2.29525">
        <ele>888.5</ele>
        <time>2017-06-01T09:20:37.000Z</time>
      </trkpt>
      <trkpt lat="43.46496" lon="2.29526">
        <ele>888.1</ele>
        <time>2017-06-01T09:20:39.000Z</time>
      </trkpt>
      <trkpt lat="43.46497" lon="2.29529">
        <ele>888</ele>
        <time>2017-06-01T09:20:45.000Z</time>
      </trkpt>
      <trkpt lat="43.46496" lon="2.29532">
        <ele>887.7</ele>
        <time>2017-06-01T09:20:46.000Z</time>
      </trkpt>
      <trkpt lat="43.46505" lon="2.29556">
        <ele>886.1</ele>
        <time>2017-06-01T09:20:52.000Z</time>
      </trkpt>
      <trkpt lat="43.4651" lon="2.29556">
        <ele>885.6</ele>
        <time>2017-06-01T09:20:54.000Z</time>
      </trkpt>
      <trkpt lat="43.46496" lon="2.29551">
        <ele>884.3</ele>
        <time>2017-06-01T09:20:55.000Z</time>
      </trkpt>
      <trkpt lat="43.46493" lon="2.29552">
        <ele>884.1</ele>
        <time>2017-06-01T09:20:56.000Z</time>
      </trkpt>
      <trkpt lat="43.46489" lon="2.29546">
        <ele>883.8</ele>
        <time>2017-06-01T09:20:57.000Z</time>
      </trkpt>
      <trkpt lat="43.46497" lon="2.29542">
        <ele>883.4</ele>
        <time>2017-06-01T09:20:59.000Z</time>
      </trkpt>
      <trkpt lat="43.46491" lon="2.2954">
        <ele>883</ele>
        <time>2017-06-01T09:21:00.000Z</time>
      </trkpt>
      <trkpt lat="43.46489" lon="2.29534">
        <ele>882.7</ele>
        <time>2017-06-01T09:21:01.000Z</time>
      </trkpt>
      <trkpt lat="43.4649" lon="2.29531">
        <ele>882.4</ele>
        <time>2017-06-01T09:21:02.000Z</time>
      </trkpt>
      <trkpt lat="43.46483" lon="2.29536">
        <ele>881.8</ele>
        <time>2017-06-01T09:21:03.000Z</time>
      </trkpt>
      <trkpt lat="43.46486" lon="2.29541">
        <ele>881.5</ele>
        <time>2017-06-01T09:21:06.000Z</time>
      </trkpt>
      <trkpt lat="43.46492" lon="2.2954">
        <ele>881.1</ele>
        <time>2017-06-01T09:21:08.000Z</time>
      </trkpt>
      <trkpt lat="43.46497" lon="2.29535">
        <ele>880.6</ele>
        <time>2017-06-01T09:21:10.000Z</time>
      </trkpt>
      <trkpt lat="43.46496" lon="2.29532">
        <ele>880.5</ele>
        <time>2017-06-01T09:21:12.000Z</time>
      </trkpt>
      <trkpt lat="43.46492" lon="2.29532">
        <ele>880.3</ele>
        <time>2017-06-01T09:21:13.000Z</time>
      </trkpt>
      <trkpt lat="43.46489" lon="2.29533">
        <ele>880</ele>
        <time>2017-06-01T09:21:15.000Z</time>
      </trkpt>
      <trkpt lat="43.46485" lon="2.29537">
        <ele>880</ele>
        <time>2017-06-01T09:21:16.000Z</time>
      </trkpt>
      <trkpt lat="43.46496" lon="2.2952">
        <ele>880</ele>
        <time>2017-06-01T09:21:18.000Z</time>
      </trkpt>
      <trkpt lat="43.4649" lon="2.29521">
        <ele>875.2</ele>
        <time>2017-06-01T09:21:19.000Z</time>
      </trkpt>
      <trkpt lat="43.46495" lon="2.29515">
        <ele>873.5</ele>
        <time>2017-06-01T09:21:21.000Z</time>
      </trkpt>
      <trkpt lat="43.46494" lon="2.29518">
        <ele>872.8</ele>
        <time>2017-06-01T09:21:23.000Z</time>
      </trkpt>
      <trkpt lat="43.46505" lon="2.29512">
        <ele>870</ele>
        <time>2017-06-01T09:21:28.000Z</time>
      </trkpt>
      <trkpt lat="43.46513" lon="2.29514">
        <ele>868.1</ele>
        <time>2017-06-01T09:21:33.000Z</time>
      </trkpt>
      <trkpt lat="43.46515" lon="2.29518">
        <ele>867.3</ele>
        <time>2017-06-01T09:21:34.000Z</time>
      </trkpt>
      <trkpt lat="43.46506" lon="2.29513">
        <ele>867</ele>
        <time>2017-06-01T09:21:35.000Z</time>
      </trkpt>
      <trkpt lat="43.46509" lon="2.2951">
        <ele>867</ele>
        <time>2017-06-01T09:21:36.000Z</time>
      </trkpt>
      <trkpt lat="43.46512" lon="2.29505">
        <ele>868.2</ele>
        <time>2017-06-01T09:21:37.000Z</time>
      </trkpt>
      <trkpt lat="43.46508" lon="2.29508">
        <ele>869.5</ele>
        <time>2017-06-01T09:21:39.000Z</time>
      </trkpt>
      <trkpt lat="43.46506" lon="2.29512">
        <ele>870.3</ele>
        <time>2017-06-01T09:21:40.000Z</time>
      </trkpt>
      <trkpt lat="43.46497" lon="2.29514">
        <ele>872.6</ele>
        <time>2017-06-01T09:21:41.000Z</time>
      </trkpt>
      <trkpt lat="43.46492" lon="2.29519">
        <ele>874.2</ele>
        <time>2017-06-01T09:21:42.000Z</time>
      </trkpt>
      <trkpt lat="43.46491" lon="2.29523">
        <ele>875.3</ele>
        <time>2017-06-01T09:21:43.000Z</time>
      </trkpt>
      <trkpt lat="43.46488" lon="2.29528">
        <ele>876.7</ele>
        <time>2017-06-01T09:21:45.000Z</time>
      </trkpt>
      <trkpt lat="43.46485" lon="2.29529">
        <ele>877.5</ele>
        <time>2017-06-01T09:21:47.000Z</time>
      </trkpt>
      <trkpt lat="43.46483" lon="2.29526">
        <ele>880</ele>
        <time>2017-06-01T09:21:48.000Z</time>
      </trkpt>
      <trkpt lat="43.4648" lon="2.29521">
        <ele>880</ele>
        <time>2017-06-01T09:21:59.000Z</time>
      </trkpt>
      <trkpt lat="43.46477" lon="2.29518">
        <ele>880.1</ele>
        <time>2017-06-01T09:22:00.000Z</time>
      </trkpt>
      <trkpt lat="43.4648" lon="2.29512">
        <ele>880.8</ele>
        <time>2017-06-01T09:22:02.000Z</time>
      </trkpt>
      <trkpt lat="43.46477" lon="2.29513">
        <ele>881.2</ele>
        <time>2017-06-01T09:22:03.000Z</time>
      </trkpt>
      <trkpt lat="43.46478" lon="2.29509">
        <ele>881.4</ele>
        <time>2017-06-01T09:22:04.000Z</time>
      </trkpt>
      <trkpt lat="43.4648" lon="2.29515">
        <ele>875.9</ele>
        <time>2017-06-01T09:22:05.000Z</time>
      </trkpt>
      <trkpt lat="43.46482" lon="2.29512">
        <ele>875.8</ele>
        <time>2017-06-01T09:22:06.000Z</time>
      </trkpt>
      <trkpt lat="43.46479" lon="2.29507">
        <ele>875.6</ele>
        <time>2017-06-01T09:22:08.000Z</time>
      </trkpt>
      <trkpt lat="43.46481" lon="2.29513">
        <ele>875.4</ele>
        <time>2017-06-01T09:22:10.000Z</time>
      </trkpt>
      <trkpt lat="43.4648" lon="2.29509">
        <ele>875.3</ele>
        <time>2017-06-01T09:22:13.000Z</time>
      </trkpt>
      <trkpt lat="43.46482" lon="2.29506">
        <ele>875.2</ele>
        <time>2017-06-01T09:22:14.000Z</time>
      </trkpt>
      <trkpt lat="43.46473" lon="2.29506">
        <ele>875</ele>
        <time>2017-06-01T09:22:15.000Z</time>
      </trkpt>
      <trkpt lat="43.46477" lon="2.29501">
        <ele>874.8</ele>
        <time>2017-06-01T09:22:16.000Z</time>
      </trkpt>
      <trkpt lat="43.4648" lon="2.29494">
        <ele>874.6</ele>
        <time>2017-06-01T09:22:17.000Z</time>
      </trkpt>
      <trkpt lat="43.4648" lon="2.29498">
        <ele>874.5</ele>
        <time>2017-06-01T09:22:18.000Z</time>
      </trkpt>
      <trkpt lat="43.46477" lon="2.29497">
        <ele>874.4</ele>
        <time>2017-06-01T09:22:20.000Z</time>
      </trkpt>
      <trkpt lat="43.46475" lon="2.29494">
        <ele>874.3</ele>
        <time>2017-06-01T09:22:29.000Z</time>
      </trkpt>
      <trkpt lat="43.46479" lon="2.29495">
        <ele>874.1</ele>
        <time>2017-06-01T09:22:31.000Z</time>
      </trkpt>
      <trkpt lat="43.46483" lon="2.29502">
        <ele>873.9</ele>
        <time>2017-06-01T09:22:37.000Z</time>
      </trkpt>
      <trkpt lat="43.46487" lon="2.29504">
        <ele>873.8</ele>
        <time>2017-06-01T09:23:04.000Z</time>
      </trkpt>
      <trkpt lat="43.4649" lon="2.29507">
        <ele>873.2</ele>
        <time>2017-06-01T09:23:05.000Z</time>
      </trkpt>
      <trkpt lat="43.46487" lon="2.295">
        <ele>873.7</ele>
        <time>2017-06-01T09:23:06.000Z</time>
      </trkpt>
      <trkpt lat="43.46479" lon="2.29509">
        <ele>874.7</ele>
        <time>2017-06-01T09:23:13.000Z</time>
      </trkpt>
      <trkpt lat="43.46478" lon="2.29514">
        <ele>875.1</ele>
        <time>2017-06-01T09:23:14.000Z</time>
      </trkpt>
      <trkpt lat="43.46484" lon="2.29526">
        <ele>876.2</ele>
        <time>2017-06-01T09:23:15.000Z</time>
      </trkpt>
      <trkpt lat="43.46489" lon="2.29538">
        <ele>877.2</ele>
        <time>2017-06-01T09:23:16.000Z</time>
      </trkpt>
      <trkpt lat="43.46478" lon="2.29559">
        <ele>879.2</ele>
        <time>2017-06-01T09:23:18.000Z</time>
      </trkpt>
      <trkpt lat="43.46474" lon="2.29557">
        <ele>879.6</ele>
        <time>2017-06-01T09:23:20.000Z</time>
      </trkpt>
      <trkpt lat="43.46473" lon="2.29562">
        <ele>880</ele>
        <time>2017-06-01T09:23:22.000Z</time>
      </trkpt>
      <trkpt lat="43.46477" lon="2.29557">
        <ele>879.9</ele>
        <time>2017-06-01T09:23:23.000Z</time>
      </trkpt>
      <trkpt lat="43.46474" lon="2.29559">
        <ele>879.9</ele>
        <time>2017-06-01T09:23:24.000Z</time>
      </trkpt>
      <trkpt lat="43.4647" lon="2.29563">
        <ele>879.9</ele>
        <time>2017-06-01T09:23:25.000Z</time>
      </trkpt>
      <trkpt lat="43.46472" lon="2.29559">
        <ele>879.9</ele>
        <time>2017-06-01T09:23:26.000Z</time>
      </trkpt>
      <trkpt lat="43.46469" lon="2.29559">
        <ele>879.9</ele>
        <time>2017-06-01T09:23:27.000Z</time>
      </trkpt>
      <trkpt lat="43.46473" lon="2.29559">
        <ele>879.8</ele>
        <time>2017-06-01T09:23:30.000Z</time>
      </trkpt>
      <trkpt lat="43.46469" lon="2.2956">
        <ele>879.8</ele>
        <time>2017-06-01T09:23:31.000Z</time>
      </trkpt>
      <trkpt lat="43.46466" lon="2.29563">
        <ele>879.8</ele>
        <time>2017-06-01T09:23:32.000Z</time>
      </trkpt>
      <trkpt lat="43.46463" lon="2.29569">
        <ele>879.8</ele>
        <time>2017-06-01T09:23:34.000Z</time>
      </trkpt>
      <trkpt lat="43.46461" lon="2.29578">
        <ele>879.8</ele>
        <time>2017-06-01T09:23:35.000Z</time>
      </trkpt>
      <trkpt lat="43.46453" lon="2.29578">
        <ele>879.8</ele>
        <time>2017-06-01T09:23:36.000Z</time>
      </trkpt>
      <trkpt lat="43.46449" lon="2.29589">
        <ele>879.7</ele>
        <time>2017-06-01T09:23:37.000Z</time>
      </trkpt>
      <trkpt lat="43.46445" lon="2.29591">
        <ele>879.7</ele>
        <time>2017-06-01T09:23:38.000Z</time>
      </trkpt>
      <trkpt lat="43.46436" lon="2.29598">
        <ele>879.7</ele>
        <time>2017-06-01T09:23:39.000Z</time>
      </trkpt>
      <trkpt lat="43.46436" lon="2.29611">
        <ele>879.7</ele>
        <time>2017-06-01T09:23:40.000Z</time>
      </trkpt>
      <trkpt lat="43.46439" lon="2.29613">
        <ele>879.7</ele>
        <time>2017-06-01T09:23:41.000Z</time>
      </trkpt>
      <trkpt lat="43.46429" lon="2.29616">
        <ele>879.6</ele>
        <time>2017-06-01T09:23:42.000Z</time>
      </trkpt>
      <trkpt lat="43.46433" lon="2.29611">
        <ele>879.6</ele>
        <time>2017-06-01T09:23:43.000Z</time>
      </trkpt>
      <trkpt lat="43.4643" lon="2.29611">
        <ele>879.6</ele>
        <time>2017-06-01T09:23:44.000Z</time>
      </trkpt>
      <trkpt lat="43.46455" lon="2.2961">
        <ele>879.5</ele>
        <time>2017-06-01T09:23:46.000Z</time>
      </trkpt>
      <trkpt lat="43.46462" lon="2.29592">
        <ele>879.5</ele>
        <time>2017-06-01T09:23:47.000Z</time>
      </trkpt>
      <trkpt lat="43.46458" lon="2.29599">
        <ele>879.4</ele>
        <time>2017-06-01T09:23:48.000Z</time>
      </trkpt>
      <trkpt lat="43.4645" lon="2.29593">
        <ele>879.4</ele>
        <time>2017-06-01T09:23:49.000Z</time>
      </trkpt>
      <trkpt lat="43.4644" lon="2.29598">
        <ele>879.4</ele>
        <time>2017-06-01T09:23:50.000Z</time>
      </trkpt>
      <trkpt lat="43.46434" lon="2.29606">
        <ele>879.3</ele>
        <time>2017-06-01T09:23:51.000Z</time>
      </trkpt>
      <trkpt lat="43.46431" lon="2.29612">
        <ele>879.3</ele>
        <time>2017-06-01T09:23:52.000Z</time>
      </trkpt>
      <trkpt lat="43.46439" lon="2.29617">
        <ele>879.3</ele>
        <time>2017-06-01T09:23:53.000Z</time>
      </trkpt>
      <trkpt lat="43.46445" lon="2.29615">
        <ele>877.8</ele>
        <time>2017-06-01T09:23:54.000Z</time>
      </trkpt>
      <trkpt lat="43.46443" lon="2.2962">
        <ele>878.2</ele>
        <time>2017-06-01T09:23:56.000Z</time>
      </trkpt>
      <trkpt lat="43.46448" lon="2.29638">
        <ele>876.4</ele>
        <time>2017-06-01T09:23:58.000Z</time>
      </trkpt>
      <trkpt lat="43.46453" lon="2.29657">
        <ele>875.2</ele>
        <time>2017-06-01T09:23:59.000Z</time>
      </trkpt>
      <trkpt lat="43.46453" lon="2.29698">
        <ele>873.7</ele>
        <time>2017-06-01T09:24:03.000Z</time>
      </trkpt>
      <trkpt lat="43.46417" lon="2.29743">
        <ele>877.2</ele>
        <time>2017-06-01T09:24:12.000Z</time>
      </trkpt>
      <trkpt lat="43.46422" lon="2.29743">
        <ele>876.7</ele>
        <time>2017-06-01T09:24:13.000Z</time>
      </trkpt>
      <trkpt lat="43.4642" lon="2.2975">
        <ele>876.5</ele>
        <time>2017-06-01T09:24:15.000Z</time>
      </trkpt>
      <trkpt lat="43.46417" lon="2.29753">
        <ele>876.6</ele>
        <time>2017-06-01T09:24:16.000Z</time>
      </trkpt>
      <trkpt lat="43.46404" lon="2.29767">
        <ele>877.8</ele>
        <time>2017-06-01T09:24:18.000Z</time>
      </trkpt>
      <trkpt lat="43.46403" lon="2.29834">
        <ele>877.3</ele>
        <time>2017-06-01T09:24:29.000Z</time>
      </trkpt>
      <trkpt lat="43.46397" lon="2.29833">
        <ele>877.3</ele>
        <time>2017-06-01T09:24:31.000Z</time>
      </trkpt>
      <trkpt lat="43.46393" lon="2.29835">
        <ele>877.3</ele>
        <time>2017-06-01T09:24:32.000Z</time>
      </trkpt>
      <trkpt lat="43.46387" lon="2.29829">
        <ele>877.4</ele>
        <time>2017-06-01T09:24:33.000Z</time>
      </trkpt>
      <trkpt lat="43.46392" lon="2.29834">
        <ele>877.4</ele>
        <time>2017-06-01T09:24:34.000Z</time>
      </trkpt>
      <trkpt lat="43.46393" lon="2.29841">
        <ele>877.4</ele>
        <time>2017-06-01T09:24:35.000Z</time>
      </trkpt>
      <trkpt lat="43.46384" lon="2.29846">
        <ele>877.5</ele>
        <time>2017-06-01T09:24:36.000Z</time>
      </trkpt>
      <trkpt lat="43.46377" lon="2.29854">
        <ele>877.6</ele>
        <time>2017-06-01T09:24:37.000Z</time>
      </trkpt>
      <trkpt lat="43.46351" lon="2.29851">
        <ele>884.1</ele>
        <time>2017-06-01T09:24:39.000Z</time>
      </trkpt>
      <trkpt lat="43.46356" lon="2.29856">
        <ele>883.2</ele>
        <time>2017-06-01T09:24:40.000Z</time>
      </trkpt>
      <trkpt lat="43.46348" lon="2.29858">
        <ele>885.9</ele>
        <time>2017-06-01T09:24:41.000Z</time>
      </trkpt>
      <trkpt lat="43.46353" lon="2.2985">
        <ele>884.8</ele>
        <time>2017-06-01T09:24:42.000Z</time>
      </trkpt>
      <trkpt lat="43.46359" lon="2.2986">
        <ele>882.8</ele>
        <time>2017-06-01T09:24:44.000Z</time>
      </trkpt>
      <trkpt lat="43.46364" lon="2.29874">
        <ele>881.1</ele>
        <time>2017-06-01T09:24:45.000Z</time>
      </trkpt>
      <trkpt lat="43.46362" lon="2.29871">
        <ele>882.1</ele>
        <time>2017-06-01T09:24:46.000Z</time>
      </trkpt>
      <trkpt lat="43.46361" lon="2.29878">
        <ele>881.9</ele>
        <time>2017-06-01T09:24:47.000Z</time>
      </trkpt>
      <trkpt lat="43.46383" lon="2.29913">
        <ele>876.2</ele>
        <time>2017-06-01T09:24:52.000Z</time>
      </trkpt>
      <trkpt lat="43.46377" lon="2.29923">
        <ele>877.5</ele>
        <time>2017-06-01T09:24:54.000Z</time>
      </trkpt>
      <trkpt lat="43.46378" lon="2.29928">
        <ele>877.1</ele>
        <time>2017-06-01T09:24:55.000Z</time>
      </trkpt>
      <trkpt lat="43.46365" lon="2.29926">
        <ele>880.3</ele>
        <time>2017-06-01T09:24:56.000Z</time>
      </trkpt>
      <trkpt lat="43.46362" lon="2.29932">
        <ele>880.2</ele>
        <time>2017-06-01T09:24:57.000Z</time>
      </trkpt>
      <trkpt lat="43.46356" lon="2.2995">
        <ele>879.6</ele>
        <time>2017-06-01T09:24:58.000Z</time>
      </trkpt>
      <trkpt lat="43.4636" lon="2.29944">
        <ele>879.7</ele>
        <time>2017-06-01T09:24:59.000Z</time>
      </trkpt>
      <trkpt lat="43.4637" lon="2.29938">
        <ele>878.6</ele>
        <time>2017-06-01T09:25:00.000Z</time>
      </trkpt>
      <trkpt lat="43.46374" lon="2.29931">
        <ele>878.7</ele>
        <time>2017-06-01T09:25:01.000Z</time>
      </trkpt>
      <trkpt lat="43.46374" lon="2.29944">
        <ele>877.7</ele>
        <time>2017-06-01T09:25:02.000Z</time>
      </trkpt>
      <trkpt lat="43.4637" lon="2.29939">
        <ele>879</ele>
        <time>2017-06-01T09:25:03.000Z</time>
      </trkpt>
      <trkpt lat="43.46364" lon="2.29942">
        <ele>879.1</ele>
        <time>2017-06-01T09:25:04.000Z</time>
      </trkpt>
      <trkpt lat="43.46362" lon="2.29951">
        <ele>879.2</ele>
        <time>2017-06-01T09:25:05.000Z</time>
      </trkpt>
      <trkpt lat="43.46365" lon="2.29954">
        <ele>879.2</ele>
        <time>2017-06-01T09:25:06.000Z</time>
      </trkpt>
      <trkpt lat="43.46356" lon="2.29951">
        <ele>879.3</ele>
        <time>2017-06-01T09:25:07.000Z</time>
      </trkpt>
      <trkpt lat="43.46352" lon="2.29953">
        <ele>879.4</ele>
        <time>2017-06-01T09:25:08.000Z</time>
      </trkpt>
      <trkpt lat="43.46353" lon="2.29958">
        <ele>879.5</ele>
        <time>2017-06-01T09:25:09.000Z</time>
      </trkpt>
      <trkpt lat="43.4635" lon="2.29959">
        <ele>879.5</ele>
        <time>2017-06-01T09:25:10.000Z</time>
      </trkpt>
      <trkpt lat="43.46347" lon="2.2996">
        <ele>879.5</ele>
        <time>2017-06-01T09:25:11.000Z</time>
      </trkpt>
      <trkpt lat="43.46354" lon="2.29965">
        <ele>879.6</ele>
        <time>2017-06-01T09:25:12.000Z</time>
      </trkpt>
      <trkpt lat="43.46352" lon="2.29978">
        <ele>879.8</ele>
        <time>2017-06-01T09:25:14.000Z</time>
      </trkpt>
      <trkpt lat="43.4635" lon="2.29991">
        <ele>879.9</ele>
        <time>2017-06-01T09:25:16.000Z</time>
      </trkpt>
      <trkpt lat="43.46343" lon="2.29991">
        <ele>880</ele>
        <time>2017-06-01T09:25:17.000Z</time>
      </trkpt>
      <trkpt lat="43.46339" lon="2.2999">
        <ele>880</ele>
        <time>2017-06-01T09:25:18.000Z</time>
      </trkpt>
      <trkpt lat="43.46323" lon="2.29983">
        <ele>880.3</ele>
        <time>2017-06-01T09:25:21.000Z</time>
      </trkpt>
      <trkpt lat="43.46323" lon="2.29978">
        <ele>880.3</ele>
        <time>2017-06-01T09:25:22.000Z</time>
      </trkpt>
      <trkpt lat="43.46317" lon="2.29984">
        <ele>880.4</ele>
        <time>2017-06-01T09:25:23.000Z</time>
      </trkpt>
      <trkpt lat="43.4632" lon="2.29987">
        <ele>880.5</ele>
        <time>2017-06-01T09:25:24.000Z</time>
      </trkpt>
      <trkpt lat="43.46325" lon="2.29971">
        <ele>880.6</ele>
        <time>2017-06-01T09:25:25.000Z</time>
      </trkpt>
      <trkpt lat="43.4632" lon="2.29977">
        <ele>880.8</ele>
        <time>2017-06-01T09:25:26.000Z</time>
      </trkpt>
      <trkpt lat="43.46315" lon="2.29972">
        <ele>881</ele>
        <time>2017-06-01T09:25:27.000Z</time>
      </trkpt>
      <trkpt lat="43.46318" lon="2.29984">
        <ele>881.3</ele>
        <time>2017-06-01T09:25:28.000Z</time>
      </trkpt>
      <trkpt lat="43.46326" lon="2.29997">
        <ele>881.6</ele>
        <time>2017-06-01T09:25:29.000Z</time>
      </trkpt>
      <trkpt lat="43.46326" lon="2.29991">
        <ele>881.6</ele>
        <time>2017-06-01T09:25:30.000Z</time>
      </trkpt>
      <trkpt lat="43.46321" lon="2.29986">
        <ele>881.7</ele>
        <time>2017-06-01T09:25:31.000Z</time>
      </trkpt>
      <trkpt lat="43.46317" lon="2.29983">
        <ele>881.8</ele>
        <time>2017-06-01T09:25:32.000Z</time>
      </trkpt>
      <trkpt lat="43.4632" lon="2.29995">
        <ele>882</ele>
        <time>2017-06-01T09:25:33.000Z</time>
      </trkpt>
      <trkpt lat="43.46325" lon="2.29987">
        <ele>882.1</ele>
        <time>2017-06-01T09:25:34.000Z</time>
      </trkpt>
      <trkpt lat="43.46318" lon="2.29976">
        <ele>882.3</ele>
        <time>2017-06-01T09:25:36.000Z</time>
      </trkpt>
      <trkpt lat="43.46317" lon="2.29986">
        <ele>882.4</ele>
        <time>2017-06-01T09:25:37.000Z</time>
      </trkpt>
      <trkpt lat="43.46315" lon="2.29974">
        <ele>882.6</ele>
        <time>2017-06-01T09:25:38.000Z</time>
      </trkpt>
      <trkpt lat="43.46309" lon="2.29967">
        <ele>882.7</ele>
        <time>2017-06-01T09:25:39.000Z</time>
      </trkpt>
      <trkpt lat="43.46312" lon="2.30006">
        <ele>883.2</ele>
        <time>2017-06-01T09:25:42.000Z</time>
      </trkpt>
      <trkpt lat="43.46303" lon="2.3003">
        <ele>883.5</ele>
        <time>2017-06-01T09:25:49.000Z</time>
      </trkpt>
      <trkpt lat="43.46286" lon="2.30042">
        <ele>883.8</ele>
        <time>2017-06-01T09:25:51.000Z</time>
      </trkpt>
      <trkpt lat="43.46278" lon="2.30043">
        <ele>884</ele>
        <time>2017-06-01T09:25:52.000Z</time>
      </trkpt>
      <trkpt lat="43.46295" lon="2.3004">
        <ele>884.3</ele>
        <time>2017-06-01T09:25:53.000Z</time>
      </trkpt>
      <trkpt lat="43.46288" lon="2.30046">
        <ele>884.4</ele>
        <time>2017-06-01T09:25:54.000Z</time>
      </trkpt>
      <trkpt lat="43.46288" lon="2.30038">
        <ele>884.5</ele>
        <time>2017-06-01T09:25:55.000Z</time>
      </trkpt>
      <trkpt lat="43.46284" lon="2.30047">
        <ele>884.6</ele>
        <time>2017-06-01T09:25:56.000Z</time>
      </trkpt>
      <trkpt lat="43.46281" lon="2.30054">
        <ele>884.7</ele>
        <time>2017-06-01T09:25:57.000Z</time>
      </trkpt>
      <trkpt lat="43.46288" lon="2.30053">
        <ele>884.7</ele>
        <time>2017-06-01T09:25:58.000Z</time>
      </trkpt>
      <trkpt lat="43.46293" lon="2.3007">
        <ele>884.9</ele>
        <time>2017-06-01T09:25:59.000Z</time>
      </trkpt>
      <trkpt lat="43.46286" lon="2.3007">
        <ele>885</ele>
        <time>2017-06-01T09:26:00.000Z</time>
      </trkpt>
      <trkpt lat="43.46284" lon="2.30063">
        <ele>885.1</ele>
        <time>2017-06-01T09:26:02.000Z</time>
      </trkpt>
      <trkpt lat="43.4628" lon="2.30061">
        <ele>885.1</ele>
        <time>2017-06-01T09:26:03.000Z</time>
      </trkpt>
      <trkpt lat="43.46277" lon="2.30071">
        <ele>885.2</ele>
        <time>2017-06-01T09:26:04.000Z</time>
      </trkpt>
      <trkpt lat="43.46266" lon="2.30078">
        <ele>885.3</ele>
        <time>2017-06-01T09:26:05.000Z</time>
      </trkpt>
      <trkpt lat="43.46272" lon="2.30084">
        <ele>885.4</ele>
        <time>2017-06-01T09:26:06.000Z</time>
      </trkpt>
      <trkpt lat="43.46272" lon="2.3009">
        <ele>885.4</ele>
        <time>2017-06-01T09:26:07.000Z</time>
      </trkpt>
      <trkpt lat="43.46268" lon="2.30092">
        <ele>885.5</ele>
        <time>2017-06-01T09:26:08.000Z</time>
      </trkpt>
      <trkpt lat="43.46267" lon="2.30081">
        <ele>885.5</ele>
        <time>2017-06-01T09:26:09.000Z</time>
      </trkpt>
      <trkpt lat="43.4626" lon="2.30081">
        <ele>885.6</ele>
        <time>2017-06-01T09:26:10.000Z</time>
      </trkpt>
      <trkpt lat="43.46254" lon="2.30071">
        <ele>885.7</ele>
        <time>2017-06-01T09:26:11.000Z</time>
      </trkpt>
      <trkpt lat="43.46256" lon="2.30073">
        <ele>885.7</ele>
        <time>2017-06-01T09:26:12.000Z</time>
      </trkpt>
      <trkpt lat="43.46247" lon="2.30069">
        <ele>885.8</ele>
        <time>2017-06-01T09:26:13.000Z</time>
      </trkpt>
      <trkpt lat="43.46251" lon="2.30073">
        <ele>885.8</ele>
        <time>2017-06-01T09:26:14.000Z</time>
      </trkpt>
      <trkpt lat="43.46252" lon="2.30069">
        <ele>885.8</ele>
        <time>2017-06-01T09:26:15.000Z</time>
      </trkpt>
      <trkpt lat="43.4625" lon="2.30072">
        <ele>885.8</ele>
        <time>2017-06-01T09:26:16.000Z</time>
      </trkpt>
      <trkpt lat="43.46252" lon="2.30069">
        <ele>885.8</ele>
        <time>2017-06-01T09:26:17.000Z</time>
      </trkpt>
      <trkpt lat="43.46248" lon="2.30066">
        <ele>885.8</ele>
        <time>2017-06-01T09:26:18.000Z</time>
      </trkpt>
      <trkpt lat="43.46242" lon="2.3007">
        <ele>885.8</ele>
        <time>2017-06-01T09:26:19.000Z</time>
      </trkpt>
      <trkpt lat="43.46244" lon="2.30066">
        <ele>885.9</ele>
        <time>2017-06-01T09:26:20.000Z</time>
      </trkpt>
      <trkpt lat="43.46238" lon="2.30067">
        <ele>885.9</ele>
        <time>2017-06-01T09:26:21.000Z</time>
      </trkpt>
      <trkpt lat="43.46238" lon="2.30083">
        <ele>885.9</ele>
        <time>2017-06-01T09:26:22.000Z</time>
      </trkpt>
      <trkpt lat="43.46234" lon="2.30084">
        <ele>885.9</ele>
        <time>2017-06-01T09:26:24.000Z</time>
      </trkpt>
      <trkpt lat="43.46236" lon="2.30086">
        <ele>885.9</ele>
        <time>2017-06-01T09:26:25.000Z</time>
      </trkpt>
      <trkpt lat="43.46232" lon="2.3009">
        <ele>885.8</ele>
        <time>2017-06-01T09:26:26.000Z</time>
      </trkpt>
      <trkpt lat="43.46232" lon="2.30095">
        <ele>885.8</ele>
        <time>2017-06-01T09:26:27.000Z</time>
      </trkpt>
      <trkpt lat="43.46229" lon="2.30095">
        <ele>885.8</ele>
        <time>2017-06-01T09:26:28.000Z</time>
      </trkpt>
      <trkpt lat="43.46225" lon="2.30097">
        <ele>885.8</ele>
        <time>2017-06-01T09:26:29.000Z</time>
      </trkpt>
      <trkpt lat="43.4622" lon="2.30096">
        <ele>885.7</ele>
        <time>2017-06-01T09:26:31.000Z</time>
      </trkpt>
      <trkpt lat="43.46216" lon="2.30097">
        <ele>885.7</ele>
        <time>2017-06-01T09:26:32.000Z</time>
      </trkpt>
      <trkpt lat="43.46211" lon="2.301">
        <ele>885.6</ele>
        <time>2017-06-01T09:26:33.000Z</time>
      </trkpt>
      <trkpt lat="43.4621" lon="2.30093">
        <ele>885.6</ele>
        <time>2017-06-01T09:26:34.000Z</time>
      </trkpt>
      <trkpt lat="43.46203" lon="2.3009">
        <ele>885.5</ele>
        <time>2017-06-01T09:26:35.000Z</time>
      </trkpt>
      <trkpt lat="43.46204" lon="2.301">
        <ele>885.4</ele>
        <time>2017-06-01T09:26:37.000Z</time>
      </trkpt>
      <trkpt lat="43.46204" lon="2.30105">
        <ele>885.3</ele>
        <time>2017-06-01T09:26:38.000Z</time>
      </trkpt>
      <trkpt lat="43.462" lon="2.30102">
        <ele>885.3</ele>
        <time>2017-06-01T09:26:39.000Z</time>
      </trkpt>
      <trkpt lat="43.46196" lon="2.30103">
        <ele>885.1</ele>
        <time>2017-06-01T09:26:40.000Z</time>
      </trkpt>
      <trkpt lat="43.4619" lon="2.30103">
        <ele>884.9</ele>
        <time>2017-06-01T09:26:42.000Z</time>
      </trkpt>
      <trkpt lat="43.46187" lon="2.30105">
        <ele>884.9</ele>
        <time>2017-06-01T09:26:43.000Z</time>
      </trkpt>
      <trkpt lat="43.46184" lon="2.30101">
        <ele>884.8</ele>
        <time>2017-06-01T09:26:44.000Z</time>
      </trkpt>
      <trkpt lat="43.46182" lon="2.30098">
        <ele>884.8</ele>
        <time>2017-06-01T09:26:45.000Z</time>
      </trkpt>
      <trkpt lat="43.4618" lon="2.30102">
        <ele>884.7</ele>
        <time>2017-06-01T09:26:46.000Z</time>
      </trkpt>
      <trkpt lat="43.46178" lon="2.30121">
        <ele>884.6</ele>
        <time>2017-06-01T09:26:49.000Z</time>
      </trkpt>
      <trkpt lat="43.46172" lon="2.30119">
        <ele>884.5</ele>
        <time>2017-06-01T09:26:50.000Z</time>
      </trkpt>
      <trkpt lat="43.46162" lon="2.30113">
        <ele>884.5</ele>
        <time>2017-06-01T09:26:51.000Z</time>
      </trkpt>
      <trkpt lat="43.46164" lon="2.30106">
        <ele>884.4</ele>
        <time>2017-06-01T09:26:52.000Z</time>
      </trkpt>
      <trkpt lat="43.46158" lon="2.30102">
        <ele>884.4</ele>
        <time>2017-06-01T09:26:53.000Z</time>
      </trkpt>
      <trkpt lat="43.46152" lon="2.30102">
        <ele>884.3</ele>
        <time>2017-06-01T09:26:55.000Z</time>
      </trkpt>
      <trkpt lat="43.46147" lon="2.30101">
        <ele>884.3</ele>
        <time>2017-06-01T09:26:56.000Z</time>
      </trkpt>
      <trkpt lat="43.46143" lon="2.30102">
        <ele>884.3</ele>
        <time>2017-06-01T09:26:57.000Z</time>
      </trkpt>
      <trkpt lat="43.46142" lon="2.30106">
        <ele>884.3</ele>
        <time>2017-06-01T09:26:58.000Z</time>
      </trkpt>
      <trkpt lat="43.46133" lon="2.30106">
        <ele>884.3</ele>
        <time>2017-06-01T09:26:59.000Z</time>
      </trkpt>
      <trkpt lat="43.46119" lon="2.30098">
        <ele>887.2</ele>
        <time>2017-06-01T09:27:11.000Z</time>
      </trkpt>
      <trkpt lat="43.45925" lon="2.30087">
        <ele>886.2</ele>
        <time>2017-06-01T09:28:18.000Z</time>
      </trkpt>
      <trkpt lat="43.45927" lon="2.30094">
        <ele>886.5</ele>
        <time>2017-06-01T09:28:19.000Z</time>
      </trkpt>
      <trkpt lat="43.45926" lon="2.3011">
        <ele>887.1</ele>
        <time>2017-06-01T09:28:20.000Z</time>
      </trkpt>
      <trkpt lat="43.45922" lon="2.30109">
        <ele>887.3</ele>
        <time>2017-06-01T09:28:21.000Z</time>
      </trkpt>
      <trkpt lat="43.45913" lon="2.3011">
        <ele>887.7</ele>
        <time>2017-06-01T09:28:22.000Z</time>
      </trkpt>
      <trkpt lat="43.45913" lon="2.30105">
        <ele>887.9</ele>
        <time>2017-06-01T09:28:23.000Z</time>
      </trkpt>
      <trkpt lat="43.45908" lon="2.30117">
        <ele>888.5</ele>
        <time>2017-06-01T09:28:24.000Z</time>
      </trkpt>
      <trkpt lat="43.45914" lon="2.30114">
        <ele>888.8</ele>
        <time>2017-06-01T09:28:25.000Z</time>
      </trkpt>
      <trkpt lat="43.45904" lon="2.301">
        <ele>889.3</ele>
        <time>2017-06-01T09:28:26.000Z</time>
      </trkpt>
      <trkpt lat="43.459" lon="2.301">
        <ele>889.4</ele>
        <time>2017-06-01T09:28:27.000Z</time>
      </trkpt>
      <trkpt lat="43.45893" lon="2.30096">
        <ele>889.6</ele>
        <time>2017-06-01T09:28:28.000Z</time>
      </trkpt>
      <trkpt lat="43.45886" lon="2.30098">
        <ele>889.8</ele>
        <time>2017-06-01T09:28:29.000Z</time>
      </trkpt>
      <trkpt lat="43.45883" lon="2.30107">
        <ele>890</ele>
        <time>2017-06-01T09:28:30.000Z</time>
      </trkpt>
      <trkpt lat="43.45884" lon="2.30102">
        <ele>890.1</ele>
        <time>2017-06-01T09:28:33.000Z</time>
      </trkpt>
      <trkpt lat="43.45886" lon="2.30116">
        <ele>890.4</ele>
        <time>2017-06-01T09:28:35.000Z</time>
      </trkpt>
      <trkpt lat="43.45882" lon="2.3011">
        <ele>890.5</ele>
        <time>2017-06-01T09:28:36.000Z</time>
      </trkpt>
      <trkpt lat="43.45881" lon="2.30102">
        <ele>890.7</ele>
        <time>2017-06-01T09:28:37.000Z</time>
      </trkpt>
      <trkpt lat="43.45874" lon="2.30103">
        <ele>891</ele>
        <time>2017-06-01T09:28:38.000Z</time>
      </trkpt>
      <trkpt lat="43.45871" lon="2.30103">
        <ele>891.5</ele>
        <time>2017-06-01T09:28:41.000Z</time>
      </trkpt>
      <trkpt lat="43.45867" lon="2.30104">
        <ele>891.5</ele>
        <time>2017-06-01T09:28:43.000Z</time>
      </trkpt>
      <trkpt lat="43.45865" lon="2.30107">
        <ele>891.6</ele>
        <time>2017-06-01T09:28:44.000Z</time>
      </trkpt>
      <trkpt lat="43.45861" lon="2.30102">
        <ele>891.7</ele>
        <time>2017-06-01T09:28:45.000Z</time>
      </trkpt>
      <trkpt lat="43.45856" lon="2.30105">
        <ele>891.7</ele>
        <time>2017-06-01T09:28:47.000Z</time>
      </trkpt>
      <trkpt lat="43.45853" lon="2.30106">
        <ele>892</ele>
        <time>2017-06-01T09:28:48.000Z</time>
      </trkpt>
      <trkpt lat="43.4585" lon="2.30102">
        <ele>892.1</ele>
        <time>2017-06-01T09:28:49.000Z</time>
      </trkpt>
      <trkpt lat="43.45847" lon="2.301">
        <ele>892.2</ele>
        <time>2017-06-01T09:28:50.000Z</time>
      </trkpt>
      <trkpt lat="43.45845" lon="2.30096">
        <ele>892.3</ele>
        <time>2017-06-01T09:28:51.000Z</time>
      </trkpt>
      <trkpt lat="43.45841" lon="2.30097">
        <ele>892.4</ele>
        <time>2017-06-01T09:28:53.000Z</time>
      </trkpt>
      <trkpt lat="43.45837" lon="2.30098">
        <ele>892.5</ele>
        <time>2017-06-01T09:28:55.000Z</time>
      </trkpt>
      <trkpt lat="43.45829" lon="2.30099">
        <ele>892.7</ele>
        <time>2017-06-01T09:28:57.000Z</time>
      </trkpt>
      <trkpt lat="43.45824" lon="2.30099">
        <ele>892.9</ele>
        <time>2017-06-01T09:28:59.000Z</time>
      </trkpt>
      <trkpt lat="43.4582" lon="2.30099">
        <ele>893.1</ele>
        <time>2017-06-01T09:29:01.000Z</time>
      </trkpt>
      <trkpt lat="43.45816" lon="2.30098">
        <ele>893.2</ele>
        <time>2017-06-01T09:29:02.000Z</time>
      </trkpt>
      <trkpt lat="43.45813" lon="2.30095">
        <ele>893.3</ele>
        <time>2017-06-01T09:29:03.000Z</time>
      </trkpt>
      <trkpt lat="43.45812" lon="2.30089">
        <ele>893.5</ele>
        <time>2017-06-01T09:29:05.000Z</time>
      </trkpt>
      <trkpt lat="43.45812" lon="2.30084">
        <ele>893.6</ele>
        <time>2017-06-01T09:29:06.000Z</time>
      </trkpt>
      <trkpt lat="43.4581" lon="2.3008">
        <ele>893.7</ele>
        <time>2017-06-01T09:29:07.000Z</time>
      </trkpt>
      <trkpt lat="43.45808" lon="2.30077">
        <ele>893.9</ele>
        <time>2017-06-01T09:29:09.000Z</time>
      </trkpt>
      <trkpt lat="43.45807" lon="2.3008">
        <ele>894</ele>
        <time>2017-06-01T09:29:10.000Z</time>
      </trkpt>
      <trkpt lat="43.45802" lon="2.30078">
        <ele>894.2</ele>
        <time>2017-06-01T09:29:11.000Z</time>
      </trkpt>
      <trkpt lat="43.45799" lon="2.30075">
        <ele>894.3</ele>
        <time>2017-06-01T09:29:12.000Z</time>
      </trkpt>
      <trkpt lat="43.45794" lon="2.30077">
        <ele>894.5</ele>
        <time>2017-06-01T09:29:13.000Z</time>
      </trkpt>
      <trkpt lat="43.45786" lon="2.30077">
        <ele>894.8</ele>
        <time>2017-06-01T09:29:16.000Z</time>
      </trkpt>
      <trkpt lat="43.45783" lon="2.30074">
        <ele>894.9</ele>
        <time>2017-06-01T09:29:17.000Z</time>
      </trkpt>
      <trkpt lat="43.45787" lon="2.30067">
        <ele>895.1</ele>
        <time>2017-06-01T09:29:19.000Z</time>
      </trkpt>
      <trkpt lat="43.45781" lon="2.30066">
        <ele>895.3</ele>
        <time>2017-06-01T09:29:20.000Z</time>
      </trkpt>
      <trkpt lat="43.45779" lon="2.30063">
        <ele>895.4</ele>
        <time>2017-06-01T09:29:22.000Z</time>
      </trkpt>
      <trkpt lat="43.45776" lon="2.3006">
        <ele>895.6</ele>
        <time>2017-06-01T09:29:23.000Z</time>
      </trkpt>
      <trkpt lat="43.45779" lon="2.30057">
        <ele>895.7</ele>
        <time>2017-06-01T09:29:24.000Z</time>
      </trkpt>
      <trkpt lat="43.45774" lon="2.30053">
        <ele>895.9</ele>
        <time>2017-06-01T09:29:25.000Z</time>
      </trkpt>
      <trkpt lat="43.4577" lon="2.3005">
        <ele>896.1</ele>
        <time>2017-06-01T09:29:26.000Z</time>
      </trkpt>
      <trkpt lat="43.45763" lon="2.30046">
        <ele>896.3</ele>
        <time>2017-06-01T09:29:28.000Z</time>
      </trkpt>
      <trkpt lat="43.45764" lon="2.30042">
        <ele>896.4</ele>
        <time>2017-06-01T09:29:29.000Z</time>
      </trkpt>
      <trkpt lat="43.45755" lon="2.30045">
        <ele>896.6</ele>
        <time>2017-06-01T09:29:30.000Z</time>
      </trkpt>
      <trkpt lat="43.45749" lon="2.30047">
        <ele>896.8</ele>
        <time>2017-06-01T09:29:31.000Z</time>
      </trkpt>
      <trkpt lat="43.45748" lon="2.3005">
        <ele>896.9</ele>
        <time>2017-06-01T09:29:32.000Z</time>
      </trkpt>
      <trkpt lat="43.45741" lon="2.3005">
        <ele>897.2</ele>
        <time>2017-06-01T09:29:33.000Z</time>
      </trkpt>
      <trkpt lat="43.45731" lon="2.30049">
        <ele>897.4</ele>
        <time>2017-06-01T09:29:34.000Z</time>
      </trkpt>
      <trkpt lat="43.45736" lon="2.30045">
        <ele>897.6</ele>
        <time>2017-06-01T09:29:35.000Z</time>
      </trkpt>
      <trkpt lat="43.45732" lon="2.30046">
        <ele>897.7</ele>
        <time>2017-06-01T09:29:36.000Z</time>
      </trkpt>
      <trkpt lat="43.45729" lon="2.30047">
        <ele>897.7</ele>
        <time>2017-06-01T09:29:37.000Z</time>
      </trkpt>
      <trkpt lat="43.45731" lon="2.30044">
        <ele>897.8</ele>
        <time>2017-06-01T09:29:38.000Z</time>
      </trkpt>
      <trkpt lat="43.45734" lon="2.30041">
        <ele>897.9</ele>
        <time>2017-06-01T09:29:39.000Z</time>
      </trkpt>
      <trkpt lat="43.45729" lon="2.30042">
        <ele>897.9</ele>
        <time>2017-06-01T09:29:42.000Z</time>
      </trkpt>
      <trkpt lat="43.45732" lon="2.30041">
        <ele>898</ele>
        <time>2017-06-01T09:29:45.000Z</time>
      </trkpt>
      <trkpt lat="43.45729" lon="2.30039">
        <ele>898.1</ele>
        <time>2017-06-01T09:29:49.000Z</time>
      </trkpt>
      <trkpt lat="43.45725" lon="2.3004">
        <ele>898.2</ele>
        <time>2017-06-01T09:29:52.000Z</time>
      </trkpt>
      <trkpt lat="43.45722" lon="2.3004">
        <ele>898.3</ele>
        <time>2017-06-01T09:29:53.000Z</time>
      </trkpt>
      <trkpt lat="43.45716" lon="2.3004">
        <ele>898.4</ele>
        <time>2017-06-01T09:29:54.000Z</time>
      </trkpt>
      <trkpt lat="43.45711" lon="2.30043">
        <ele>898.5</ele>
        <time>2017-06-01T09:29:55.000Z</time>
      </trkpt>
      <trkpt lat="43.45703" lon="2.30046">
        <ele>898.7</ele>
        <time>2017-06-01T09:29:56.000Z</time>
      </trkpt>
      <trkpt lat="43.45699" lon="2.30045">
        <ele>898.8</ele>
        <time>2017-06-01T09:29:57.000Z</time>
      </trkpt>
      <trkpt lat="43.45692" lon="2.30039">
        <ele>899</ele>
        <time>2017-06-01T09:29:58.000Z</time>
      </trkpt>
      <trkpt lat="43.45689" lon="2.30037">
        <ele>899</ele>
        <time>2017-06-01T09:30:00.000Z</time>
      </trkpt>
      <trkpt lat="43.4569" lon="2.30031">
        <ele>899</ele>
        <time>2017-06-01T09:30:02.000Z</time>
      </trkpt>
      <trkpt lat="43.45695" lon="2.30026">
        <ele>899</ele>
        <time>2017-06-01T09:30:03.000Z</time>
      </trkpt>
      <trkpt lat="43.45692" lon="2.30023">
        <ele>899</ele>
        <time>2017-06-01T09:30:04.000Z</time>
      </trkpt>
      <trkpt lat="43.45698" lon="2.30017">
        <ele>900.9</ele>
        <time>2017-06-01T09:30:05.000Z</time>
      </trkpt>
      <trkpt lat="43.45695" lon="2.30012">
        <ele>901.5</ele>
        <time>2017-06-01T09:30:07.000Z</time>
      </trkpt>
      <trkpt lat="43.45693" lon="2.30005">
        <ele>902.2</ele>
        <time>2017-06-01T09:30:08.000Z</time>
      </trkpt>
      <trkpt lat="43.45691" lon="2.30002">
        <ele>902.5</ele>
        <time>2017-06-01T09:30:09.000Z</time>
      </trkpt>
      <trkpt lat="43.45691" lon="2.29997">
        <ele>902.7</ele>
        <time>2017-06-01T09:30:12.000Z</time>
      </trkpt>
      <trkpt lat="43.45695" lon="2.29996">
        <ele>903</ele>
        <time>2017-06-01T09:30:17.000Z</time>
      </trkpt>
      <trkpt lat="43.45696" lon="2.29992">
        <ele>903.3</ele>
        <time>2017-06-01T09:30:19.000Z</time>
      </trkpt>
      <trkpt lat="43.457" lon="2.2999">
        <ele>903.7</ele>
        <time>2017-06-01T09:30:22.000Z</time>
      </trkpt>
      <trkpt lat="43.457" lon="2.29986">
        <ele>904</ele>
        <time>2017-06-01T09:30:23.000Z</time>
      </trkpt>
      <trkpt lat="43.45705" lon="2.29984">
        <ele>904.4</ele>
        <time>2017-06-01T09:30:24.000Z</time>
      </trkpt>
      <trkpt lat="43.45711" lon="2.2998">
        <ele>904.8</ele>
        <time>2017-06-01T09:30:25.000Z</time>
      </trkpt>
      <trkpt lat="43.45717" lon="2.29981">
        <ele>905.3</ele>
        <time>2017-06-01T09:30:27.000Z</time>
      </trkpt>
      <trkpt lat="43.45722" lon="2.29977">
        <ele>905.7</ele>
        <time>2017-06-01T09:30:28.000Z</time>
      </trkpt>
      <trkpt lat="43.45726" lon="2.29975">
        <ele>906.2</ele>
        <time>2017-06-01T09:30:30.000Z</time>
      </trkpt>
      <trkpt lat="43.45727" lon="2.29972">
        <ele>906.4</ele>
        <time>2017-06-01T09:30:32.000Z</time>
      </trkpt>
      <trkpt lat="43.4573" lon="2.2997">
        <ele>906.7</ele>
        <time>2017-06-01T09:30:33.000Z</time>
      </trkpt>
      <trkpt lat="43.45738" lon="2.29971">
        <ele>907.4</ele>
        <time>2017-06-01T09:30:38.000Z</time>
      </trkpt>
      <trkpt lat="43.45739" lon="2.29975">
        <ele>907.8</ele>
        <time>2017-06-01T09:30:39.000Z</time>
      </trkpt>
      <trkpt lat="43.45741" lon="2.29964">
        <ele>908.7</ele>
        <time>2017-06-01T09:30:40.000Z</time>
      </trkpt>
      <trkpt lat="43.4574" lon="2.29958">
        <ele>909.1</ele>
        <time>2017-06-01T09:30:42.000Z</time>
      </trkpt>
      <trkpt lat="43.45746" lon="2.29953">
        <ele>909.8</ele>
        <time>2017-06-01T09:30:43.000Z</time>
      </trkpt>
      <trkpt lat="43.45743" lon="2.29957">
        <ele>910.3</ele>
        <time>2017-06-01T09:30:44.000Z</time>
      </trkpt>
      <trkpt lat="43.45735" lon="2.29957">
        <ele>911</ele>
        <time>2017-06-01T09:30:45.000Z</time>
      </trkpt>
      <trkpt lat="43.45734" lon="2.29953">
        <ele>911.2</ele>
        <time>2017-06-01T09:30:46.000Z</time>
      </trkpt>
      <trkpt lat="43.45738" lon="2.29957">
        <ele>911.6</ele>
        <time>2017-06-01T09:30:47.000Z</time>
      </trkpt>
      <trkpt lat="43.45743" lon="2.29953">
        <ele>912.2</ele>
        <time>2017-06-01T09:30:48.000Z</time>
      </trkpt>
      <trkpt lat="43.45746" lon="2.29957">
        <ele>912.6</ele>
        <time>2017-06-01T09:30:49.000Z</time>
      </trkpt>
      <trkpt lat="43.45752" lon="2.29957">
        <ele>913</ele>
        <time>2017-06-01T09:30:50.000Z</time>
      </trkpt>
      <trkpt lat="43.45758" lon="2.29955">
        <ele>913.5</ele>
        <time>2017-06-01T09:30:52.000Z</time>
      </trkpt>
      <trkpt lat="43.45761" lon="2.29955">
        <ele>913.7</ele>
        <time>2017-06-01T09:30:53.000Z</time>
      </trkpt>
      <trkpt lat="43.45765" lon="2.29954">
        <ele>914.1</ele>
        <time>2017-06-01T09:30:55.000Z</time>
      </trkpt>
      <trkpt lat="43.4577" lon="2.29949">
        <ele>914.5</ele>
        <time>2017-06-01T09:30:57.000Z</time>
      </trkpt>
      <trkpt lat="43.45772" lon="2.29946">
        <ele>914.8</ele>
        <time>2017-06-01T09:30:58.000Z</time>
      </trkpt>
      <trkpt lat="43.45779" lon="2.2994">
        <ele>915.6</ele>
        <time>2017-06-01T09:31:01.000Z</time>
      </trkpt>
      <trkpt lat="43.45779" lon="2.29936">
        <ele>915.8</ele>
        <time>2017-06-01T09:31:02.000Z</time>
      </trkpt>
      <trkpt lat="43.45786" lon="2.29935">
        <ele>916.4</ele>
        <time>2017-06-01T09:31:04.000Z</time>
      </trkpt>
      <trkpt lat="43.45789" lon="2.29932">
        <ele>916.7</ele>
        <time>2017-06-01T09:31:05.000Z</time>
      </trkpt>
      <trkpt lat="43.45792" lon="2.29926">
        <ele>917.1</ele>
        <time>2017-06-01T09:31:06.000Z</time>
      </trkpt>
      <trkpt lat="43.45799" lon="2.29925">
        <ele>917.6</ele>
        <time>2017-06-01T09:31:10.000Z</time>
      </trkpt>
      <trkpt lat="43.45802" lon="2.29924">
        <ele>917.8</ele>
        <time>2017-06-01T09:31:11.000Z</time>
      </trkpt>
      <trkpt lat="43.45808" lon="2.29923">
        <ele>918.3</ele>
        <time>2017-06-01T09:31:13.000Z</time>
      </trkpt>
      <trkpt lat="43.45809" lon="2.29926">
        <ele>918.5</ele>
        <time>2017-06-01T09:31:14.000Z</time>
      </trkpt>
      <trkpt lat="43.45813" lon="2.29928">
        <ele>918.8</ele>
        <time>2017-06-01T09:31:16.000Z</time>
      </trkpt>
      <trkpt lat="43.45816" lon="2.29929">
        <ele>919</ele>
        <time>2017-06-01T09:31:17.000Z</time>
      </trkpt>
      <trkpt lat="43.45819" lon="2.29924">
        <ele>919.5</ele>
        <time>2017-06-01T09:31:18.000Z</time>
      </trkpt>
      <trkpt lat="43.4582" lon="2.2992">
        <ele>919.9</ele>
        <time>2017-06-01T09:31:22.000Z</time>
      </trkpt>
      <trkpt lat="43.45816" lon="2.29921">
        <ele>920.5</ele>
        <time>2017-06-01T09:31:23.000Z</time>
      </trkpt>
      <trkpt lat="43.45822" lon="2.29918">
        <ele>922.9</ele>
        <time>2017-06-01T09:31:24.000Z</time>
      </trkpt>
      <trkpt lat="43.45828" lon="2.29912">
        <ele>924.1</ele>
        <time>2017-06-01T09:31:26.000Z</time>
      </trkpt>
      <trkpt lat="43.45831" lon="2.29908">
        <ele>925</ele>
        <time>2017-06-01T09:31:27.000Z</time>
      </trkpt>
      <trkpt lat="43.45834" lon="2.29909">
        <ele>925.7</ele>
        <time>2017-06-01T09:31:28.000Z</time>
      </trkpt>
      <trkpt lat="43.45838" lon="2.2991">
        <ele>926.4</ele>
        <time>2017-06-01T09:31:29.000Z</time>
      </trkpt>
      <trkpt lat="43.45835" lon="2.29913">
        <ele>925.3</ele>
        <time>2017-06-01T09:31:30.000Z</time>
      </trkpt>
      <trkpt lat="43.45838" lon="2.29911">
        <ele>921.7</ele>
        <time>2017-06-01T09:31:32.000Z</time>
      </trkpt>
      <trkpt lat="43.45842" lon="2.29915">
        <ele>922</ele>
        <time>2017-06-01T09:31:34.000Z</time>
      </trkpt>
      <trkpt lat="43.45846" lon="2.29916">
        <ele>922.2</ele>
        <time>2017-06-01T09:31:36.000Z</time>
      </trkpt>
      <trkpt lat="43.4585" lon="2.29916">
        <ele>922.5</ele>
        <time>2017-06-01T09:31:37.000Z</time>
      </trkpt>
      <trkpt lat="43.45854" lon="2.29916">
        <ele>922.7</ele>
        <time>2017-06-01T09:31:38.000Z</time>
      </trkpt>
      <trkpt lat="43.45856" lon="2.29923">
        <ele>923.1</ele>
        <time>2017-06-01T09:31:40.000Z</time>
      </trkpt>
      <trkpt lat="43.4586" lon="2.2992">
        <ele>923.5</ele>
        <time>2017-06-01T09:31:42.000Z</time>
      </trkpt>
      <trkpt lat="43.45863" lon="2.29922">
        <ele>923.7</ele>
        <time>2017-06-01T09:31:43.000Z</time>
      </trkpt>
      <trkpt lat="43.45866" lon="2.29925">
        <ele>923.9</ele>
        <time>2017-06-01T09:31:45.000Z</time>
      </trkpt>
      <trkpt lat="43.45862" lon="2.29927">
        <ele>924.2</ele>
        <time>2017-06-01T09:31:46.000Z</time>
      </trkpt>
      <trkpt lat="43.45873" lon="2.29927">
        <ele>925</ele>
        <time>2017-06-01T09:31:47.000Z</time>
      </trkpt>
      <trkpt lat="43.4588" lon="2.29925">
        <ele>925.3</ele>
        <time>2017-06-01T09:31:48.000Z</time>
      </trkpt>
      <trkpt lat="43.45874" lon="2.29926">
        <ele>925.6</ele>
        <time>2017-06-01T09:31:50.000Z</time>
      </trkpt>
      <trkpt lat="43.45877" lon="2.29924">
        <ele>926</ele>
        <time>2017-06-01T09:31:51.000Z</time>
      </trkpt>
      <trkpt lat="43.4587" lon="2.29928">
        <ele>926.5</ele>
        <time>2017-06-01T09:31:54.000Z</time>
      </trkpt>
      <trkpt lat="43.45876" lon="2.29929">
        <ele>926.8</ele>
        <time>2017-06-01T09:31:55.000Z</time>
      </trkpt>
      <trkpt lat="43.45871" lon="2.29928">
        <ele>927.3</ele>
        <time>2017-06-01T09:31:56.000Z</time>
      </trkpt>
      <trkpt lat="43.45874" lon="2.2993">
        <ele>927.7</ele>
        <time>2017-06-01T09:31:57.000Z</time>
      </trkpt>
      <trkpt lat="43.45881" lon="2.2993">
        <ele>928.2</ele>
        <time>2017-06-01T09:31:59.000Z</time>
      </trkpt>
      <trkpt lat="43.45882" lon="2.29925">
        <ele>928.5</ele>
        <time>2017-06-01T09:32:00.000Z</time>
      </trkpt>
      <trkpt lat="43.45883" lon="2.29929">
        <ele>928.7</ele>
        <time>2017-06-01T09:32:04.000Z</time>
      </trkpt>
      <trkpt lat="43.45885" lon="2.29926">
        <ele>929</ele>
        <time>2017-06-01T09:32:05.000Z</time>
      </trkpt>
      <trkpt lat="43.4589" lon="2.29923">
        <ele>929.5</ele>
        <time>2017-06-01T09:32:06.000Z</time>
      </trkpt>
      <trkpt lat="43.45894" lon="2.29921">
        <ele>930</ele>
        <time>2017-06-01T09:32:10.000Z</time>
      </trkpt>
      <trkpt lat="43.45902" lon="2.2992">
        <ele>930.6</ele>
        <time>2017-06-01T09:32:13.000Z</time>
      </trkpt>
      <trkpt lat="43.45905" lon="2.29919">
        <ele>930.8</ele>
        <time>2017-06-01T09:32:14.000Z</time>
      </trkpt>
      <trkpt lat="43.4591" lon="2.29921">
        <ele>931.4</ele>
        <time>2017-06-01T09:32:17.000Z</time>
      </trkpt>
      <trkpt lat="43.45915" lon="2.29918">
        <ele>931.8</ele>
        <time>2017-06-01T09:32:18.000Z</time>
      </trkpt>
      <trkpt lat="43.4592" lon="2.29916">
        <ele>932.2</ele>
        <time>2017-06-01T09:32:20.000Z</time>
      </trkpt>
      <trkpt lat="43.45928" lon="2.29914">
        <ele>932.8</ele>
        <time>2017-06-01T09:32:21.000Z</time>
      </trkpt>
      <trkpt lat="43.45935" lon="2.29915">
        <ele>933.5</ele>
        <time>2017-06-01T09:32:22.000Z</time>
      </trkpt>
      <trkpt lat="43.45941" lon="2.29914">
        <ele>933.9</ele>
        <time>2017-06-01T09:32:25.000Z</time>
      </trkpt>
      <trkpt lat="43.45938" lon="2.29915">
        <ele>934.1</ele>
        <time>2017-06-01T09:32:26.000Z</time>
      </trkpt>
      <trkpt lat="43.45931" lon="2.29917">
        <ele>934.9</ele>
        <time>2017-06-01T09:32:27.000Z</time>
      </trkpt>
      <trkpt lat="43.45925" lon="2.2992">
        <ele>935.3</ele>
        <time>2017-06-01T09:32:28.000Z</time>
      </trkpt>
      <trkpt lat="43.45929" lon="2.29914">
        <ele>935.7</ele>
        <time>2017-06-01T09:32:29.000Z</time>
      </trkpt>
      <trkpt lat="43.45934" lon="2.29912">
        <ele>936.2</ele>
        <time>2017-06-01T09:32:32.000Z</time>
      </trkpt>
      <trkpt lat="43.45937" lon="2.29916">
        <ele>936.4</ele>
        <time>2017-06-01T09:32:33.000Z</time>
      </trkpt>
      <trkpt lat="43.45942" lon="2.29921">
        <ele>936.7</ele>
        <time>2017-06-01T09:32:34.000Z</time>
      </trkpt>
      <trkpt lat="43.45945" lon="2.29927">
        <ele>937</ele>
        <time>2017-06-01T09:32:35.000Z</time>
      </trkpt>
      <trkpt lat="43.45951" lon="2.29926">
        <ele>937.3</ele>
        <time>2017-06-01T09:32:36.000Z</time>
      </trkpt>
      <trkpt lat="43.45953" lon="2.29914">
        <ele>937.8</ele>
        <time>2017-06-01T09:32:39.000Z</time>
      </trkpt>
      <trkpt lat="43.45946" lon="2.29918">
        <ele>938.2</ele>
        <time>2017-06-01T09:32:40.000Z</time>
      </trkpt>
      <trkpt lat="43.45946" lon="2.29922">
        <ele>938.4</ele>
        <time>2017-06-01T09:32:41.000Z</time>
      </trkpt>
      <trkpt lat="43.45947" lon="2.29915">
        <ele>938.9</ele>
        <time>2017-06-01T09:32:42.000Z</time>
      </trkpt>
      <trkpt lat="43.4595" lon="2.29914">
        <ele>939.2</ele>
        <time>2017-06-01T09:32:44.000Z</time>
      </trkpt>
      <trkpt lat="43.45953" lon="2.29916">
        <ele>939.5</ele>
        <time>2017-06-01T09:32:45.000Z</time>
      </trkpt>
      <trkpt lat="43.45955" lon="2.29912">
        <ele>939.7</ele>
        <time>2017-06-01T09:32:46.000Z</time>
      </trkpt>
      <trkpt lat="43.45959" lon="2.29905">
        <ele>940.1</ele>
        <time>2017-06-01T09:32:47.000Z</time>
      </trkpt>
      <trkpt lat="43.45962" lon="2.29904">
        <ele>940.3</ele>
        <time>2017-06-01T09:32:51.000Z</time>
      </trkpt>
      <trkpt lat="43.45967" lon="2.29909">
        <ele>940.6</ele>
        <time>2017-06-01T09:32:53.000Z</time>
      </trkpt>
      <trkpt lat="43.45969" lon="2.29911">
        <ele>940.8</ele>
        <time>2017-06-01T09:32:54.000Z</time>
      </trkpt>
      <trkpt lat="43.45969" lon="2.29905">
        <ele>941.1</ele>
        <time>2017-06-01T09:32:55.000Z</time>
      </trkpt>
      <trkpt lat="43.45972" lon="2.2991">
        <ele>941.4</ele>
        <time>2017-06-01T09:32:56.000Z</time>
      </trkpt>
      <trkpt lat="43.45975" lon="2.29915">
        <ele>941.7</ele>
        <time>2017-06-01T09:32:58.000Z</time>
      </trkpt>
      <trkpt lat="43.4598" lon="2.29922">
        <ele>942</ele>
        <time>2017-06-01T09:33:00.000Z</time>
      </trkpt>
      <trkpt lat="43.45989" lon="2.29901">
        <ele>942.9</ele>
        <time>2017-06-01T09:33:03.000Z</time>
      </trkpt>
      <trkpt lat="43.45989" lon="2.29896">
        <ele>943.1</ele>
        <time>2017-06-01T09:33:05.000Z</time>
      </trkpt>
      <trkpt lat="43.45996" lon="2.29888">
        <ele>943.5</ele>
        <time>2017-06-01T09:33:06.000Z</time>
      </trkpt>
      <trkpt lat="43.45996" lon="2.29893">
        <ele>943.6</ele>
        <time>2017-06-01T09:33:07.000Z</time>
      </trkpt>
      <trkpt lat="43.45999" lon="2.29891">
        <ele>943.8</ele>
        <time>2017-06-01T09:33:09.000Z</time>
      </trkpt>
      <trkpt lat="43.45992" lon="2.29891">
        <ele>944.2</ele>
        <time>2017-06-01T09:33:11.000Z</time>
      </trkpt>
      <trkpt lat="43.4599" lon="2.29892">
        <ele>944.3</ele>
        <time>2017-06-01T09:33:15.000Z</time>
      </trkpt>
      <trkpt lat="43.45994" lon="2.29888">
        <ele>944.5</ele>
        <time>2017-06-01T09:33:19.000Z</time>
      </trkpt>
      <trkpt lat="43.45991" lon="2.29888">
        <ele>944.6</ele>
        <time>2017-06-01T09:33:20.000Z</time>
      </trkpt>
      <trkpt lat="43.45991" lon="2.29883">
        <ele>944.7</ele>
        <time>2017-06-01T09:33:22.000Z</time>
      </trkpt>
      <trkpt lat="43.45994" lon="2.29879">
        <ele>944.8</ele>
        <time>2017-06-01T09:33:23.000Z</time>
      </trkpt>
      <trkpt lat="43.46004" lon="2.29877">
        <ele>945.1</ele>
        <time>2017-06-01T09:33:24.000Z</time>
      </trkpt>
      <trkpt lat="43.46009" lon="2.29874">
        <ele>945.1</ele>
        <time>2017-06-01T09:33:25.000Z</time>
      </trkpt>
      <trkpt lat="43.46011" lon="2.29871">
        <ele>945.2</ele>
        <time>2017-06-01T09:33:26.000Z</time>
      </trkpt>
      <trkpt lat="43.46013" lon="2.29864">
        <ele>945.2</ele>
        <time>2017-06-01T09:33:28.000Z</time>
      </trkpt>
      <trkpt lat="43.46016" lon="2.2986">
        <ele>945.2</ele>
        <time>2017-06-01T09:33:30.000Z</time>
      </trkpt>
      <trkpt lat="43.46024" lon="2.29856">
        <ele>945.2</ele>
        <time>2017-06-01T09:33:31.000Z</time>
      </trkpt>
      <trkpt lat="43.46022" lon="2.29852">
        <ele>945.2</ele>
        <time>2017-06-01T09:33:33.000Z</time>
      </trkpt>
      <trkpt lat="43.46017" lon="2.2985">
        <ele>945.2</ele>
        <time>2017-06-01T09:33:35.000Z</time>
      </trkpt>
      <trkpt lat="43.46022" lon="2.29847">
        <ele>945.2</ele>
        <time>2017-06-01T09:33:36.000Z</time>
      </trkpt>
      <trkpt lat="43.4603" lon="2.29843">
        <ele>945.1</ele>
        <time>2017-06-01T09:33:37.000Z</time>
      </trkpt>
      <trkpt lat="43.46038" lon="2.29842">
        <ele>945</ele>
        <time>2017-06-01T09:33:39.000Z</time>
      </trkpt>
      <trkpt lat="43.46046" lon="2.29843">
        <ele>944.9</ele>
        <time>2017-06-01T09:33:41.000Z</time>
      </trkpt>
      <trkpt lat="43.4605" lon="2.2984">
        <ele>944.8</ele>
        <time>2017-06-01T09:33:42.000Z</time>
      </trkpt>
      <trkpt lat="43.46065" lon="2.29828">
        <ele>944.4</ele>
        <time>2017-06-01T09:33:46.000Z</time>
      </trkpt>
      <trkpt lat="43.46062" lon="2.29833">
        <ele>944.3</ele>
        <time>2017-06-01T09:33:47.000Z</time>
      </trkpt>
      <trkpt lat="43.46063" lon="2.29827">
        <ele>944.2</ele>
        <time>2017-06-01T09:33:49.000Z</time>
      </trkpt>
      <trkpt lat="43.46057" lon="2.29824">
        <ele>944.1</ele>
        <time>2017-06-01T09:33:50.000Z</time>
      </trkpt>
      <trkpt lat="43.4606" lon="2.29824">
        <ele>944</ele>
        <time>2017-06-01T09:33:52.000Z</time>
      </trkpt>
      <trkpt lat="43.4606" lon="2.2982">
        <ele>944</ele>
        <time>2017-06-01T09:33:55.000Z</time>
      </trkpt>
      <trkpt lat="43.46063" lon="2.29815">
        <ele>943.9</ele>
        <time>2017-06-01T09:33:56.000Z</time>
      </trkpt>
      <trkpt lat="43.4606" lon="2.2981">
        <ele>943.8</ele>
        <time>2017-06-01T09:33:57.000Z</time>
      </trkpt>
      <trkpt lat="43.46058" lon="2.29812">
        <ele>943.8</ele>
        <time>2017-06-01T09:34:00.000Z</time>
      </trkpt>
      <trkpt lat="43.46061" lon="2.29812">
        <ele>943.7</ele>
        <time>2017-06-01T09:34:01.000Z</time>
      </trkpt>
      <trkpt lat="43.46067" lon="2.29807">
        <ele>943.6</ele>
        <time>2017-06-01T09:34:03.000Z</time>
      </trkpt>
      <trkpt lat="43.46075" lon="2.298">
        <ele>943.4</ele>
        <time>2017-06-01T09:34:05.000Z</time>
      </trkpt>
      <trkpt lat="43.4612" lon="2.29775">
        <ele>942.3</ele>
        <time>2017-06-01T09:34:07.000Z</time>
      </trkpt>
      <trkpt lat="43.46129" lon="2.29765">
        <ele>942</ele>
        <time>2017-06-01T09:34:10.000Z</time>
      </trkpt>
      <trkpt lat="43.46141" lon="2.29756">
        <ele>941.6</ele>
        <time>2017-06-01T09:34:12.000Z</time>
      </trkpt>
      <trkpt lat="43.46137" lon="2.29751">
        <ele>941.5</ele>
        <time>2017-06-01T09:34:13.000Z</time>
      </trkpt>
      <trkpt lat="43.46138" lon="2.29747">
        <ele>941.4</ele>
        <time>2017-06-01T09:34:14.000Z</time>
      </trkpt>
      <trkpt lat="43.46133" lon="2.29743">
        <ele>941.3</ele>
        <time>2017-06-01T09:34:15.000Z</time>
      </trkpt>
      <trkpt lat="43.46137" lon="2.29737">
        <ele>941.2</ele>
        <time>2017-06-01T09:34:16.000Z</time>
      </trkpt>
      <trkpt lat="43.46137" lon="2.29731">
        <ele>941.1</ele>
        <time>2017-06-01T09:34:17.000Z</time>
      </trkpt>
      <trkpt lat="43.46135" lon="2.29724">
        <ele>941</ele>
        <time>2017-06-01T09:34:18.000Z</time>
      </trkpt>
      <trkpt lat="43.4613" lon="2.29719">
        <ele>940.9</ele>
        <time>2017-06-01T09:34:19.000Z</time>
      </trkpt>
      <trkpt lat="43.46122" lon="2.29718">
        <ele>940.7</ele>
        <time>2017-06-01T09:34:20.000Z</time>
      </trkpt>
      <trkpt lat="43.46119" lon="2.29714">
        <ele>940.7</ele>
        <time>2017-06-01T09:34:21.000Z</time>
      </trkpt>
      <trkpt lat="43.46139" lon="2.29715">
        <ele>940.3</ele>
        <time>2017-06-01T09:34:23.000Z</time>
      </trkpt>
      <trkpt lat="43.46153" lon="2.29712">
        <ele>940.1</ele>
        <time>2017-06-01T09:34:24.000Z</time>
      </trkpt>
      <trkpt lat="43.46154" lon="2.29708">
        <ele>940</ele>
        <time>2017-06-01T09:34:25.000Z</time>
      </trkpt>
      <trkpt lat="43.46154" lon="2.29702">
        <ele>939.9</ele>
        <time>2017-06-01T09:34:26.000Z</time>
      </trkpt>
      <trkpt lat="43.46154" lon="2.29697">
        <ele>939.8</ele>
        <time>2017-06-01T09:34:27.000Z</time>
      </trkpt>
      <trkpt lat="43.46151" lon="2.29698">
        <ele>939.7</ele>
        <time>2017-06-01T09:34:28.000Z</time>
      </trkpt>
      <trkpt lat="43.4615" lon="2.29693">
        <ele>939.7</ele>
        <time>2017-06-01T09:34:29.000Z</time>
      </trkpt>
      <trkpt lat="43.4616" lon="2.29685">
        <ele>939.6</ele>
        <time>2017-06-01T09:34:30.000Z</time>
      </trkpt>
      <trkpt lat="43.46162" lon="2.2968">
        <ele>939.6</ele>
        <time>2017-06-01T09:34:31.000Z</time>
      </trkpt>
      <trkpt lat="43.46164" lon="2.29673">
        <ele>939.5</ele>
        <time>2017-06-01T09:34:32.000Z</time>
      </trkpt>
      <trkpt lat="43.46171" lon="2.29665">
        <ele>939.6</ele>
        <time>2017-06-01T09:34:33.000Z</time>
      </trkpt>
      <trkpt lat="43.4617" lon="2.29657">
        <ele>939.6</ele>
        <time>2017-06-01T09:34:34.000Z</time>
      </trkpt>
      <trkpt lat="43.46171" lon="2.29651">
        <ele>939.7</ele>
        <time>2017-06-01T09:34:35.000Z</time>
      </trkpt>
      <trkpt lat="43.46173" lon="2.29647">
        <ele>939.8</ele>
        <time>2017-06-01T09:34:36.000Z</time>
      </trkpt>
      <trkpt lat="43.46175" lon="2.29641">
        <ele>939.9</ele>
        <time>2017-06-01T09:34:37.000Z</time>
      </trkpt>
      <trkpt lat="43.4618" lon="2.2964">
        <ele>940.1</ele>
        <time>2017-06-01T09:34:38.000Z</time>
      </trkpt>
      <trkpt lat="43.46178" lon="2.29636">
        <ele>940.2</ele>
        <time>2017-06-01T09:34:39.000Z</time>
      </trkpt>
      <trkpt lat="43.46176" lon="2.29631">
        <ele>940.3</ele>
        <time>2017-06-01T09:34:40.000Z</time>
      </trkpt>
      <trkpt lat="43.4617" lon="2.29627">
        <ele>940.4</ele>
        <time>2017-06-01T09:34:41.000Z</time>
      </trkpt>
      <trkpt lat="43.46165" lon="2.29623">
        <ele>940.6</ele>
        <time>2017-06-01T09:34:42.000Z</time>
      </trkpt>
      <trkpt lat="43.46163" lon="2.29619">
        <ele>940.8</ele>
        <time>2017-06-01T09:34:43.000Z</time>
      </trkpt>
      <trkpt lat="43.46154" lon="2.29619">
        <ele>941.1</ele>
        <time>2017-06-01T09:34:44.000Z</time>
      </trkpt>
      <trkpt lat="43.4616" lon="2.29614">
        <ele>941.5</ele>
        <time>2017-06-01T09:34:45.000Z</time>
      </trkpt>
      <trkpt lat="43.46165" lon="2.29609">
        <ele>941.7</ele>
        <time>2017-06-01T09:34:46.000Z</time>
      </trkpt>
      <trkpt lat="43.46164" lon="2.29604">
        <ele>941.9</ele>
        <time>2017-06-01T09:34:47.000Z</time>
      </trkpt>
      <trkpt lat="43.46172" lon="2.29599">
        <ele>942.5</ele>
        <time>2017-06-01T09:34:48.000Z</time>
      </trkpt>
      <trkpt lat="43.46179" lon="2.29592">
        <ele>942.9</ele>
        <time>2017-06-01T09:34:49.000Z</time>
      </trkpt>
      <trkpt lat="43.46187" lon="2.29588">
        <ele>943.3</ele>
        <time>2017-06-01T09:34:51.000Z</time>
      </trkpt>
      <trkpt lat="43.4619" lon="2.29582">
        <ele>943.5</ele>
        <time>2017-06-01T09:34:53.000Z</time>
      </trkpt>
      <trkpt lat="43.46194" lon="2.29578">
        <ele>943.7</ele>
        <time>2017-06-01T09:34:54.000Z</time>
      </trkpt>
      <trkpt lat="43.4621" lon="2.29569">
        <ele>944.4</ele>
        <time>2017-06-01T09:34:56.000Z</time>
      </trkpt>
      <trkpt lat="43.46225" lon="2.29563">
        <ele>941.3</ele>
        <time>2017-06-01T09:34:58.000Z</time>
      </trkpt>
      <trkpt lat="43.46241" lon="2.29557">
        <ele>937.4</ele>
        <time>2017-06-01T09:35:01.000Z</time>
      </trkpt>
      <trkpt lat="43.46236" lon="2.29555">
        <ele>939.5</ele>
        <time>2017-06-01T09:35:03.000Z</time>
      </trkpt>
      <trkpt lat="43.46232" lon="2.29552">
        <ele>941.1</ele>
        <time>2017-06-01T09:35:04.000Z</time>
      </trkpt>
      <trkpt lat="43.46227" lon="2.29549">
        <ele>942.7</ele>
        <time>2017-06-01T09:35:05.000Z</time>
      </trkpt>
      <trkpt lat="43.46221" lon="2.29546">
        <ele>944.1</ele>
        <time>2017-06-01T09:35:07.000Z</time>
      </trkpt>
      <trkpt lat="43.4623" lon="2.29542">
        <ele>942.1</ele>
        <time>2017-06-01T09:35:08.000Z</time>
      </trkpt>
      <trkpt lat="43.46226" lon="2.29539">
        <ele>944.5</ele>
        <time>2017-06-01T09:35:09.000Z</time>
      </trkpt>
      <trkpt lat="43.4622" lon="2.29536">
        <ele>946.6</ele>
        <time>2017-06-01T09:35:10.000Z</time>
      </trkpt>
      <trkpt lat="43.46223" lon="2.29534">
        <ele>946.7</ele>
        <time>2017-06-01T09:35:11.000Z</time>
      </trkpt>
      <trkpt lat="43.4622" lon="2.2953">
        <ele>946.8</ele>
        <time>2017-06-01T09:35:13.000Z</time>
      </trkpt>
      <trkpt lat="43.46216" lon="2.29525">
        <ele>947</ele>
        <time>2017-06-01T09:35:14.000Z</time>
      </trkpt>
      <trkpt lat="43.46213" lon="2.29525">
        <ele>947</ele>
        <time>2017-06-01T09:35:15.000Z</time>
      </trkpt>
      <trkpt lat="43.46211" lon="2.29523">
        <ele>947.1</ele>
        <time>2017-06-01T09:35:16.000Z</time>
      </trkpt>
      <trkpt lat="43.46218" lon="2.29516">
        <ele>947.3</ele>
        <time>2017-06-01T09:35:19.000Z</time>
      </trkpt>
      <trkpt lat="43.46215" lon="2.29512">
        <ele>947.5</ele>
        <time>2017-06-01T09:35:21.000Z</time>
      </trkpt>
      <trkpt lat="43.46221" lon="2.29508">
        <ele>947.6</ele>
        <time>2017-06-01T09:35:22.000Z</time>
      </trkpt>
      <trkpt lat="43.46216" lon="2.29503">
        <ele>947.6</ele>
        <time>2017-06-01T09:35:24.000Z</time>
      </trkpt>
      <trkpt lat="43.4621" lon="2.29503">
        <ele>947.6</ele>
        <time>2017-06-01T09:35:26.000Z</time>
      </trkpt>
      <trkpt lat="43.46215" lon="2.29499">
        <ele>947.7</ele>
        <time>2017-06-01T09:35:28.000Z</time>
      </trkpt>
      <trkpt lat="43.46223" lon="2.29493">
        <ele>947.7</ele>
        <time>2017-06-01T09:35:29.000Z</time>
      </trkpt>
      <trkpt lat="43.46212" lon="2.29491">
        <ele>947.7</ele>
        <time>2017-06-01T09:35:30.000Z</time>
      </trkpt>
      <trkpt lat="43.46216" lon="2.29499">
        <ele>947.6</ele>
        <time>2017-06-01T09:35:31.000Z</time>
      </trkpt>
      <trkpt lat="43.46216" lon="2.29485">
        <ele>947.5</ele>
        <time>2017-06-01T09:35:32.000Z</time>
      </trkpt>
      <trkpt lat="43.46218" lon="2.29482">
        <ele>947.5</ele>
        <time>2017-06-01T09:35:33.000Z</time>
      </trkpt>
      <trkpt lat="43.46221" lon="2.29484">
        <ele>947.4</ele>
        <time>2017-06-01T09:35:34.000Z</time>
      </trkpt>
      <trkpt lat="43.46226" lon="2.29475">
        <ele>947.3</ele>
        <time>2017-06-01T09:35:35.000Z</time>
      </trkpt>
      <trkpt lat="43.46228" lon="2.29471">
        <ele>947.3</ele>
        <time>2017-06-01T09:35:37.000Z</time>
      </trkpt>
      <trkpt lat="43.46232" lon="2.2947">
        <ele>947.2</ele>
        <time>2017-06-01T09:35:39.000Z</time>
      </trkpt>
      <trkpt lat="43.46233" lon="2.29466">
        <ele>947.2</ele>
        <time>2017-06-01T09:35:40.000Z</time>
      </trkpt>
      <trkpt lat="43.46236" lon="2.29463">
        <ele>947.1</ele>
        <time>2017-06-01T09:35:41.000Z</time>
      </trkpt>
      <trkpt lat="43.4625" lon="2.29449">
        <ele>946.9</ele>
        <time>2017-06-01T09:35:44.000Z</time>
      </trkpt>
      <trkpt lat="43.46256" lon="2.29442">
        <ele>946.8</ele>
        <time>2017-06-01T09:35:45.000Z</time>
      </trkpt>
      <trkpt lat="43.46258" lon="2.29438">
        <ele>946.8</ele>
        <time>2017-06-01T09:35:46.000Z</time>
      </trkpt>
      <trkpt lat="43.46263" lon="2.29433">
        <ele>946.7</ele>
        <time>2017-06-01T09:35:47.000Z</time>
      </trkpt>
      <trkpt lat="43.46274" lon="2.29418">
        <ele>946.6</ele>
        <time>2017-06-01T09:35:48.000Z</time>
      </trkpt>
      <trkpt lat="43.46283" lon="2.29408">
        <ele>946.5</ele>
        <time>2017-06-01T09:35:49.000Z</time>
      </trkpt>
      <trkpt lat="43.46291" lon="2.29402">
        <ele>946.5</ele>
        <time>2017-06-01T09:35:50.000Z</time>
      </trkpt>
      <trkpt lat="43.46295" lon="2.29392">
        <ele>946.5</ele>
        <time>2017-06-01T09:35:51.000Z</time>
      </trkpt>
      <trkpt lat="43.4629" lon="2.29397">
        <ele>946.5</ele>
        <time>2017-06-01T09:35:52.000Z</time>
      </trkpt>
      <trkpt lat="43.46296" lon="2.29394">
        <ele>946.6</ele>
        <time>2017-06-01T09:35:53.000Z</time>
      </trkpt>
      <trkpt lat="43.46306" lon="2.29386">
        <ele>946.9</ele>
        <time>2017-06-01T09:35:57.000Z</time>
      </trkpt>
      <trkpt lat="43.46312" lon="2.29383">
        <ele>947</ele>
        <time>2017-06-01T09:35:58.000Z</time>
      </trkpt>
      <trkpt lat="43.46323" lon="2.2938">
        <ele>947.3</ele>
        <time>2017-06-01T09:35:59.000Z</time>
      </trkpt>
      <trkpt lat="43.46323" lon="2.29376">
        <ele>947.4</ele>
        <time>2017-06-01T09:36:00.000Z</time>
      </trkpt>
      <trkpt lat="43.46329" lon="2.29368">
        <ele>947.6</ele>
        <time>2017-06-01T09:36:05.000Z</time>
      </trkpt>
      <trkpt lat="43.46326" lon="2.29364">
        <ele>947.7</ele>
        <time>2017-06-01T09:36:06.000Z</time>
      </trkpt>
      <trkpt lat="43.46329" lon="2.29361">
        <ele>947.8</ele>
        <time>2017-06-01T09:36:09.000Z</time>
      </trkpt>
      <trkpt lat="43.46326" lon="2.29356">
        <ele>948.1</ele>
        <time>2017-06-01T09:36:10.000Z</time>
      </trkpt>
      <trkpt lat="43.46332" lon="2.29349">
        <ele>948.4</ele>
        <time>2017-06-01T09:36:11.000Z</time>
      </trkpt>
      <trkpt lat="43.46338" lon="2.29345">
        <ele>948.6</ele>
        <time>2017-06-01T09:36:12.000Z</time>
      </trkpt>
      <trkpt lat="43.46333" lon="2.29339">
        <ele>948.8</ele>
        <time>2017-06-01T09:36:14.000Z</time>
      </trkpt>
      <trkpt lat="43.46328" lon="2.29337">
        <ele>949</ele>
        <time>2017-06-01T09:36:15.000Z</time>
      </trkpt>
      <trkpt lat="43.46324" lon="2.29335">
        <ele>949.5</ele>
        <time>2017-06-01T09:36:16.000Z</time>
      </trkpt>
      <trkpt lat="43.46326" lon="2.29331">
        <ele>949.5</ele>
        <time>2017-06-01T09:36:19.000Z</time>
      </trkpt>
      <trkpt lat="43.46333" lon="2.29323">
        <ele>949.8</ele>
        <time>2017-06-01T09:36:21.000Z</time>
      </trkpt>
      <trkpt lat="43.4634" lon="2.29316">
        <ele>950</ele>
        <time>2017-06-01T09:36:22.000Z</time>
      </trkpt>
      <trkpt lat="43.46344" lon="2.29312">
        <ele>950.1</ele>
        <time>2017-06-01T09:36:23.000Z</time>
      </trkpt>
      <trkpt lat="43.46346" lon="2.29309">
        <ele>950.2</ele>
        <time>2017-06-01T09:36:24.000Z</time>
      </trkpt>
      <trkpt lat="43.46345" lon="2.29303">
        <ele>950.3</ele>
        <time>2017-06-01T09:36:26.000Z</time>
      </trkpt>
      <trkpt lat="43.4635" lon="2.29302">
        <ele>950.4</ele>
        <time>2017-06-01T09:36:27.000Z</time>
      </trkpt>
      <trkpt lat="43.46353" lon="2.29298">
        <ele>950.5</ele>
        <time>2017-06-01T09:36:28.000Z</time>
      </trkpt>
      <trkpt lat="43.4635" lon="2.29297">
        <ele>950.6</ele>
        <time>2017-06-01T09:36:29.000Z</time>
      </trkpt>
      <trkpt lat="43.46351" lon="2.29293">
        <ele>950.7</ele>
        <time>2017-06-01T09:36:30.000Z</time>
      </trkpt>
      <trkpt lat="43.46354" lon="2.29288">
        <ele>950.9</ele>
        <time>2017-06-01T09:36:31.000Z</time>
      </trkpt>
      <trkpt lat="43.46351" lon="2.29286">
        <ele>951</ele>
        <time>2017-06-01T09:36:32.000Z</time>
      </trkpt>
      <trkpt lat="43.46351" lon="2.29282">
        <ele>951.1</ele>
        <time>2017-06-01T09:36:33.000Z</time>
      </trkpt>
      <trkpt lat="43.46354" lon="2.29275">
        <ele>951.3</ele>
        <time>2017-06-01T09:36:34.000Z</time>
      </trkpt>
      <trkpt lat="43.46354" lon="2.2927">
        <ele>951.4</ele>
        <time>2017-06-01T09:36:35.000Z</time>
      </trkpt>
      <trkpt lat="43.46356" lon="2.29266">
        <ele>951.6</ele>
        <time>2017-06-01T09:36:36.000Z</time>
      </trkpt>
      <trkpt lat="43.46361" lon="2.29263">
        <ele>951.9</ele>
        <time>2017-06-01T09:36:37.000Z</time>
      </trkpt>
      <trkpt lat="43.46361" lon="2.29259">
        <ele>952.1</ele>
        <time>2017-06-01T09:36:39.000Z</time>
      </trkpt>
      <trkpt lat="43.46362" lon="2.29252">
        <ele>952.4</ele>
        <time>2017-06-01T09:36:41.000Z</time>
      </trkpt>
      <trkpt lat="43.46359" lon="2.29249">
        <ele>952.7</ele>
        <time>2017-06-01T09:36:42.000Z</time>
      </trkpt>
      <trkpt lat="43.46356" lon="2.29244">
        <ele>953.1</ele>
        <time>2017-06-01T09:36:44.000Z</time>
      </trkpt>
      <trkpt lat="43.46359" lon="2.29239">
        <ele>953.4</ele>
        <time>2017-06-01T09:36:45.000Z</time>
      </trkpt>
      <trkpt lat="43.46361" lon="2.29236">
        <ele>953.7</ele>
        <time>2017-06-01T09:36:46.000Z</time>
      </trkpt>
      <trkpt lat="43.46365" lon="2.29233">
        <ele>954</ele>
        <time>2017-06-01T09:36:47.000Z</time>
      </trkpt>
      <trkpt lat="43.46377" lon="2.29228">
        <ele>954.6</ele>
        <time>2017-06-01T09:36:49.000Z</time>
      </trkpt>
      <trkpt lat="43.46398" lon="2.29221">
        <ele>950.8</ele>
        <time>2017-06-01T09:36:51.000Z</time>
      </trkpt>
      <trkpt lat="43.46401" lon="2.29218">
        <ele>949.1</ele>
        <time>2017-06-01T09:36:52.000Z</time>
      </trkpt>
      <trkpt lat="43.46389" lon="2.29215">
        <ele>951.9</ele>
        <time>2017-06-01T09:36:54.000Z</time>
      </trkpt>
      <trkpt lat="43.4639" lon="2.2921">
        <ele>951.7</ele>
        <time>2017-06-01T09:36:55.000Z</time>
      </trkpt>
      <trkpt lat="43.4638" lon="2.29209">
        <ele>953.6</ele>
        <time>2017-06-01T09:36:56.000Z</time>
      </trkpt>
      <trkpt lat="43.46372" lon="2.29208">
        <ele>955.8</ele>
        <time>2017-06-01T09:36:57.000Z</time>
      </trkpt>
      <trkpt lat="43.46369" lon="2.29206">
        <ele>955.9</ele>
        <time>2017-06-01T09:36:58.000Z</time>
      </trkpt>
      <trkpt lat="43.46362" lon="2.29201">
        <ele>956.1</ele>
        <time>2017-06-01T09:37:00.000Z</time>
      </trkpt>
      <trkpt lat="43.46355" lon="2.29199">
        <ele>956.2</ele>
        <time>2017-06-01T09:37:01.000Z</time>
      </trkpt>
      <trkpt lat="43.46357" lon="2.29196">
        <ele>956.3</ele>
        <time>2017-06-01T09:37:02.000Z</time>
      </trkpt>
      <trkpt lat="43.46353" lon="2.29194">
        <ele>956.5</ele>
        <time>2017-06-01T09:37:03.000Z</time>
      </trkpt>
      <trkpt lat="43.46351" lon="2.29191">
        <ele>956.7</ele>
        <time>2017-06-01T09:37:04.000Z</time>
      </trkpt>
      <trkpt lat="43.46345" lon="2.29189">
        <ele>956.9</ele>
        <time>2017-06-01T09:37:05.000Z</time>
      </trkpt>
      <trkpt lat="43.46343" lon="2.29185">
        <ele>957</ele>
        <time>2017-06-01T09:37:06.000Z</time>
      </trkpt>
      <trkpt lat="43.46347" lon="2.29183">
        <ele>957.1</ele>
        <time>2017-06-01T09:37:07.000Z</time>
      </trkpt>
      <trkpt lat="43.46343" lon="2.29181">
        <ele>957.2</ele>
        <time>2017-06-01T09:37:08.000Z</time>
      </trkpt>
      <trkpt lat="43.46331" lon="2.29178">
        <ele>957.5</ele>
        <time>2017-06-01T09:37:09.000Z</time>
      </trkpt>
      <trkpt lat="43.46345" lon="2.29173">
        <ele>958</ele>
        <time>2017-06-01T09:37:10.000Z</time>
      </trkpt>
      <trkpt lat="43.46363" lon="2.29167">
        <ele>958.8</ele>
        <time>2017-06-01T09:37:11.000Z</time>
      </trkpt>
      <trkpt lat="43.46369" lon="2.29164">
        <ele>959.1</ele>
        <time>2017-06-01T09:37:12.000Z</time>
      </trkpt>
      <trkpt lat="43.4637" lon="2.2916">
        <ele>959.2</ele>
        <time>2017-06-01T09:37:14.000Z</time>
      </trkpt>
      <trkpt lat="43.46373" lon="2.29157">
        <ele>959.3</ele>
        <time>2017-06-01T09:37:15.000Z</time>
      </trkpt>
      <trkpt lat="43.46366" lon="2.29154">
        <ele>959.6</ele>
        <time>2017-06-01T09:37:16.000Z</time>
      </trkpt>
      <trkpt lat="43.4636" lon="2.29152">
        <ele>959.8</ele>
        <time>2017-06-01T09:37:17.000Z</time>
      </trkpt>
      <trkpt lat="43.46375" lon="2.29147">
        <ele>960.5</ele>
        <time>2017-06-01T09:37:18.000Z</time>
      </trkpt>
      <trkpt lat="43.46377" lon="2.29144">
        <ele>960.6</ele>
        <time>2017-06-01T09:37:19.000Z</time>
      </trkpt>
      <trkpt lat="43.46373" lon="2.29141">
        <ele>960.7</ele>
        <time>2017-06-01T09:37:20.000Z</time>
      </trkpt>
      <trkpt lat="43.46368" lon="2.2914">
        <ele>960.9</ele>
        <time>2017-06-01T09:37:21.000Z</time>
      </trkpt>
      <trkpt lat="43.46367" lon="2.29137">
        <ele>960.9</ele>
        <time>2017-06-01T09:37:22.000Z</time>
      </trkpt>
      <trkpt lat="43.46357" lon="2.29137">
        <ele>961.2</ele>
        <time>2017-06-01T09:37:23.000Z</time>
      </trkpt>
      <trkpt lat="43.46361" lon="2.29135">
        <ele>961.4</ele>
        <time>2017-06-01T09:37:24.000Z</time>
      </trkpt>
      <trkpt lat="43.4635" lon="2.29135">
        <ele>961.8</ele>
        <time>2017-06-01T09:37:25.000Z</time>
      </trkpt>
      <trkpt lat="43.46362" lon="2.29131">
        <ele>962.1</ele>
        <time>2017-06-01T09:37:26.000Z</time>
      </trkpt>
      <trkpt lat="43.46358" lon="2.2913">
        <ele>962.2</ele>
        <time>2017-06-01T09:37:27.000Z</time>
      </trkpt>
      <trkpt lat="43.46367" lon="2.29128">
        <ele>962.4</ele>
        <time>2017-06-01T09:37:28.000Z</time>
      </trkpt>
      <trkpt lat="43.46364" lon="2.29126">
        <ele>962.5</ele>
        <time>2017-06-01T09:37:30.000Z</time>
      </trkpt>
      <trkpt lat="43.46361" lon="2.29125">
        <ele>962.5</ele>
        <time>2017-06-01T09:37:31.000Z</time>
      </trkpt>
      <trkpt lat="43.46363" lon="2.29122">
        <ele>962.6</ele>
        <time>2017-06-01T09:37:32.000Z</time>
      </trkpt>
      <trkpt lat="43.46366" lon="2.29118">
        <ele>962.8</ele>
        <time>2017-06-01T09:37:33.000Z</time>
      </trkpt>
      <trkpt lat="43.46348" lon="2.29112">
        <ele>963.5</ele>
        <time>2017-06-01T09:37:36.000Z</time>
      </trkpt>
      <trkpt lat="43.46353" lon="2.29109">
        <ele>963.6</ele>
        <time>2017-06-01T09:37:37.000Z</time>
      </trkpt>
      <trkpt lat="43.46351" lon="2.29105">
        <ele>963.8</ele>
        <time>2017-06-01T09:37:38.000Z</time>
      </trkpt>
      <trkpt lat="43.46346" lon="2.29102">
        <ele>963.9</ele>
        <time>2017-06-01T09:37:40.000Z</time>
      </trkpt>
      <trkpt lat="43.46347" lon="2.29099">
        <ele>964</ele>
        <time>2017-06-01T09:37:41.000Z</time>
      </trkpt>
      <trkpt lat="43.46343" lon="2.29097">
        <ele>964.1</ele>
        <time>2017-06-01T09:37:42.000Z</time>
      </trkpt>
      <trkpt lat="43.46338" lon="2.29092">
        <ele>964.2</ele>
        <time>2017-06-01T09:37:44.000Z</time>
      </trkpt>
      <trkpt lat="43.46336" lon="2.2909">
        <ele>964.3</ele>
        <time>2017-06-01T09:37:45.000Z</time>
      </trkpt>
      <trkpt lat="43.46335" lon="2.29087">
        <ele>964.4</ele>
        <time>2017-06-01T09:37:46.000Z</time>
      </trkpt>
      <trkpt lat="43.46332" lon="2.29084">
        <ele>964.5</ele>
        <time>2017-06-01T09:37:47.000Z</time>
      </trkpt>
      <trkpt lat="43.4633" lon="2.29081">
        <ele>964.5</ele>
        <time>2017-06-01T09:37:48.000Z</time>
      </trkpt>
      <trkpt lat="43.46336" lon="2.29077">
        <ele>964.7</ele>
        <time>2017-06-01T09:37:50.000Z</time>
      </trkpt>
      <trkpt lat="43.46333" lon="2.2907">
        <ele>965</ele>
        <time>2017-06-01T09:37:52.000Z</time>
      </trkpt>
      <trkpt lat="43.46337" lon="2.2907">
        <ele>966</ele>
        <time>2017-06-01T09:37:53.000Z</time>
      </trkpt>
      <trkpt lat="43.46359" lon="2.29061">
        <ele>958.3</ele>
        <time>2017-06-01T09:37:56.000Z</time>
      </trkpt>
      <trkpt lat="43.46361" lon="2.29058">
        <ele>956.6</ele>
        <time>2017-06-01T09:37:57.000Z</time>
      </trkpt>
      <trkpt lat="43.46358" lon="2.29055">
        <ele>956.6</ele>
        <time>2017-06-01T09:37:59.000Z</time>
      </trkpt>
      <trkpt lat="43.4635" lon="2.29056">
        <ele>959.3</ele>
        <time>2017-06-01T09:38:00.000Z</time>
      </trkpt>
      <trkpt lat="43.46341" lon="2.29056">
        <ele>962.1</ele>
        <time>2017-06-01T09:38:01.000Z</time>
      </trkpt>
      <trkpt lat="43.46344" lon="2.29053">
        <ele>960.6</ele>
        <time>2017-06-01T09:38:02.000Z</time>
      </trkpt>
      <trkpt lat="43.46336" lon="2.29053">
        <ele>962</ele>
        <time>2017-06-01T09:38:03.000Z</time>
      </trkpt>
      <trkpt lat="43.46342" lon="2.29051">
        <ele>959.2</ele>
        <time>2017-06-01T09:38:04.000Z</time>
      </trkpt>
      <trkpt lat="43.46343" lon="2.29055">
        <ele>959.6</ele>
        <time>2017-06-01T09:38:05.000Z</time>
      </trkpt>
      <trkpt lat="43.46338" lon="2.29055">
        <ele>960.4</ele>
        <time>2017-06-01T09:38:06.000Z</time>
      </trkpt>
      <trkpt lat="43.46332" lon="2.29052">
        <ele>961.4</ele>
        <time>2017-06-01T09:38:07.000Z</time>
      </trkpt>
      <trkpt lat="43.46327" lon="2.29048">
        <ele>963</ele>
        <time>2017-06-01T09:38:09.000Z</time>
      </trkpt>
      <trkpt lat="43.4632" lon="2.29048">
        <ele>964.3</ele>
        <time>2017-06-01T09:38:10.000Z</time>
      </trkpt>
      <trkpt lat="43.46311" lon="2.29049">
        <ele>967.1</ele>
        <time>2017-06-01T09:38:11.000Z</time>
      </trkpt>
      <trkpt lat="43.46304" lon="2.29042">
        <ele>967.4</ele>
        <time>2017-06-01T09:38:12.000Z</time>
      </trkpt>
      <trkpt lat="43.46298" lon="2.29042">
        <ele>967.5</ele>
        <time>2017-06-01T09:38:13.000Z</time>
      </trkpt>
      <trkpt lat="43.46295" lon="2.29039">
        <ele>967.6</ele>
        <time>2017-06-01T09:38:14.000Z</time>
      </trkpt>
      <trkpt lat="43.46291" lon="2.29032">
        <ele>967.8</ele>
        <time>2017-06-01T09:38:15.000Z</time>
      </trkpt>
      <trkpt lat="43.46287" lon="2.29026">
        <ele>967.9</ele>
        <time>2017-06-01T09:38:16.000Z</time>
      </trkpt>
      <trkpt lat="43.46287" lon="2.29037">
        <ele>968.1</ele>
        <time>2017-06-01T09:38:17.000Z</time>
      </trkpt>
      <trkpt lat="43.46285" lon="2.29034">
        <ele>968.2</ele>
        <time>2017-06-01T09:38:18.000Z</time>
      </trkpt>
      <trkpt lat="43.46287" lon="2.29029">
        <ele>968.3</ele>
        <time>2017-06-01T09:38:19.000Z</time>
      </trkpt>
      <trkpt lat="43.46297" lon="2.29024">
        <ele>968.6</ele>
        <time>2017-06-01T09:38:21.000Z</time>
      </trkpt>
      <trkpt lat="43.46294" lon="2.29023">
        <ele>968.8</ele>
        <time>2017-06-01T09:38:22.000Z</time>
      </trkpt>
      <trkpt lat="43.46287" lon="2.29019">
        <ele>969</ele>
        <time>2017-06-01T09:38:24.000Z</time>
      </trkpt>
      <trkpt lat="43.46301" lon="2.29018">
        <ele>969.4</ele>
        <time>2017-06-01T09:38:25.000Z</time>
      </trkpt>
      <trkpt lat="43.46297" lon="2.29017">
        <ele>969.5</ele>
        <time>2017-06-01T09:38:27.000Z</time>
      </trkpt>
      <trkpt lat="43.46311" lon="2.29011">
        <ele>969.8</ele>
        <time>2017-06-01T09:38:30.000Z</time>
      </trkpt>
      <trkpt lat="43.46319" lon="2.29017">
        <ele>970</ele>
        <time>2017-06-01T09:38:32.000Z</time>
      </trkpt>
      <trkpt lat="43.46313" lon="2.29017">
        <ele>970.1</ele>
        <time>2017-06-01T09:38:33.000Z</time>
      </trkpt>
      <trkpt lat="43.46306" lon="2.29016">
        <ele>970.3</ele>
        <time>2017-06-01T09:38:34.000Z</time>
      </trkpt>
      <trkpt lat="43.46296" lon="2.29012">
        <ele>970.5</ele>
        <time>2017-06-01T09:38:35.000Z</time>
      </trkpt>
      <trkpt lat="43.46292" lon="2.2901">
        <ele>970.6</ele>
        <time>2017-06-01T09:38:36.000Z</time>
      </trkpt>
      <trkpt lat="43.46285" lon="2.29008">
        <ele>970.8</ele>
        <time>2017-06-01T09:38:37.000Z</time>
      </trkpt>
      <trkpt lat="43.46295" lon="2.29009">
        <ele>971.1</ele>
        <time>2017-06-01T09:38:38.000Z</time>
      </trkpt>
      <trkpt lat="43.46285" lon="2.29003">
        <ele>971.5</ele>
        <time>2017-06-01T09:38:39.000Z</time>
      </trkpt>
      <trkpt lat="43.46296" lon="2.29005">
        <ele>971.8</ele>
        <time>2017-06-01T09:38:40.000Z</time>
      </trkpt>
      <trkpt lat="43.46287" lon="2.29">
        <ele>972.1</ele>
        <time>2017-06-01T09:38:42.000Z</time>
      </trkpt>
      <trkpt lat="43.46283" lon="2.28997">
        <ele>972.2</ele>
        <time>2017-06-01T09:38:44.000Z</time>
      </trkpt>
      <trkpt lat="43.46283" lon="2.28993">
        <ele>972.3</ele>
        <time>2017-06-01T09:38:45.000Z</time>
      </trkpt>
      <trkpt lat="43.46277" lon="2.2899">
        <ele>972.4</ele>
        <time>2017-06-01T09:38:46.000Z</time>
      </trkpt>
      <trkpt lat="43.46274" lon="2.28987">
        <ele>972.5</ele>
        <time>2017-06-01T09:38:47.000Z</time>
      </trkpt>
      <trkpt lat="43.46272" lon="2.28983">
        <ele>972.5</ele>
        <time>2017-06-01T09:38:48.000Z</time>
      </trkpt>
      <trkpt lat="43.46277" lon="2.28978">
        <ele>972.6</ele>
        <time>2017-06-01T09:38:50.000Z</time>
      </trkpt>
      <trkpt lat="43.46271" lon="2.28976">
        <ele>972.7</ele>
        <time>2017-06-01T09:38:51.000Z</time>
      </trkpt>
      <trkpt lat="43.46269" lon="2.28972">
        <ele>972.8</ele>
        <time>2017-06-01T09:38:53.000Z</time>
      </trkpt>
      <trkpt lat="43.46263" lon="2.2897">
        <ele>972.9</ele>
        <time>2017-06-01T09:38:54.000Z</time>
      </trkpt>
      <trkpt lat="43.46259" lon="2.28967">
        <ele>973</ele>
        <time>2017-06-01T09:38:56.000Z</time>
      </trkpt>
      <trkpt lat="43.46259" lon="2.28962">
        <ele>973</ele>
        <time>2017-06-01T09:38:58.000Z</time>
      </trkpt>
      <trkpt lat="43.46255" lon="2.2896">
        <ele>973.1</ele>
        <time>2017-06-01T09:38:59.000Z</time>
      </trkpt>
      <trkpt lat="43.46248" lon="2.28959">
        <ele>976.8</ele>
        <time>2017-06-01T09:39:00.000Z</time>
      </trkpt>
      <trkpt lat="43.46236" lon="2.28954">
        <ele>980.8</ele>
        <time>2017-06-01T09:39:01.000Z</time>
      </trkpt>
      <trkpt lat="43.46242" lon="2.28953">
        <ele>979.9</ele>
        <time>2017-06-01T09:39:02.000Z</time>
      </trkpt>
      <trkpt lat="43.46244" lon="2.2895">
        <ele>979</ele>
        <time>2017-06-01T09:39:03.000Z</time>
      </trkpt>
      <trkpt lat="43.46238" lon="2.28948">
        <ele>981.8</ele>
        <time>2017-06-01T09:39:04.000Z</time>
      </trkpt>
      <trkpt lat="43.46234" lon="2.28944">
        <ele>983.3</ele>
        <time>2017-06-01T09:39:05.000Z</time>
      </trkpt>
      <trkpt lat="43.46233" lon="2.2894">
        <ele>983.5</ele>
        <time>2017-06-01T09:39:06.000Z</time>
      </trkpt>
      <trkpt lat="43.46243" lon="2.28935">
        <ele>980.3</ele>
        <time>2017-06-01T09:39:07.000Z</time>
      </trkpt>
      <trkpt lat="43.46243" lon="2.2893">
        <ele>980.7</ele>
        <time>2017-06-01T09:39:08.000Z</time>
      </trkpt>
      <trkpt lat="43.46253" lon="2.28926">
        <ele>978.1</ele>
        <time>2017-06-01T09:39:09.000Z</time>
      </trkpt>
      <trkpt lat="43.46256" lon="2.28924">
        <ele>977.4</ele>
        <time>2017-06-01T09:39:10.000Z</time>
      </trkpt>
      <trkpt lat="43.46255" lon="2.2892">
        <ele>978</ele>
        <time>2017-06-01T09:39:11.000Z</time>
      </trkpt>
      <trkpt lat="43.46265" lon="2.2892">
        <ele>974.4</ele>
        <time>2017-06-01T09:39:12.000Z</time>
      </trkpt>
      <trkpt lat="43.46269" lon="2.28915">
        <ele>974.5</ele>
        <time>2017-06-01T09:39:14.000Z</time>
      </trkpt>
      <trkpt lat="43.46283" lon="2.28896">
        <ele>975</ele>
        <time>2017-06-01T09:39:22.000Z</time>
      </trkpt>
      <trkpt lat="43.46269" lon="2.28891">
        <ele>975.3</ele>
        <time>2017-06-01T09:39:24.000Z</time>
      </trkpt>
      <trkpt lat="43.46274" lon="2.28887">
        <ele>975.4</ele>
        <time>2017-06-01T09:39:25.000Z</time>
      </trkpt>
      <trkpt lat="43.46272" lon="2.28881">
        <ele>975.5</ele>
        <time>2017-06-01T09:39:27.000Z</time>
      </trkpt>
      <trkpt lat="43.46271" lon="2.28877">
        <ele>975.6</ele>
        <time>2017-06-01T09:39:28.000Z</time>
      </trkpt>
      <trkpt lat="43.4629" lon="2.28875">
        <ele>976.1</ele>
        <time>2017-06-01T09:39:30.000Z</time>
      </trkpt>
      <trkpt lat="43.46293" lon="2.28874">
        <ele>976.2</ele>
        <time>2017-06-01T09:39:32.000Z</time>
      </trkpt>
      <trkpt lat="43.4629" lon="2.28868">
        <ele>976.3</ele>
        <time>2017-06-01T09:39:34.000Z</time>
      </trkpt>
      <trkpt lat="43.4629" lon="2.28862">
        <ele>976.3</ele>
        <time>2017-06-01T09:39:36.000Z</time>
      </trkpt>
      <trkpt lat="43.4629" lon="2.28859">
        <ele>976.4</ele>
        <time>2017-06-01T09:39:37.000Z</time>
      </trkpt>
      <trkpt lat="43.46284" lon="2.28855">
        <ele>976.5</ele>
        <time>2017-06-01T09:39:38.000Z</time>
      </trkpt>
      <trkpt lat="43.46284" lon="2.28849">
        <ele>976.6</ele>
        <time>2017-06-01T09:39:40.000Z</time>
      </trkpt>
      <trkpt lat="43.46287" lon="2.28846">
        <ele>976.8</ele>
        <time>2017-06-01T09:39:42.000Z</time>
      </trkpt>
      <trkpt lat="43.46277" lon="2.28843">
        <ele>977.1</ele>
        <time>2017-06-01T09:39:43.000Z</time>
      </trkpt>
      <trkpt lat="43.46282" lon="2.28839">
        <ele>977.2</ele>
        <time>2017-06-01T09:39:44.000Z</time>
      </trkpt>
      <trkpt lat="43.46289" lon="2.28834">
        <ele>977.4</ele>
        <time>2017-06-01T09:39:45.000Z</time>
      </trkpt>
      <trkpt lat="43.46281" lon="2.28832">
        <ele>977.7</ele>
        <time>2017-06-01T09:39:46.000Z</time>
      </trkpt>
      <trkpt lat="43.46273" lon="2.28828">
        <ele>978</ele>
        <time>2017-06-01T09:39:47.000Z</time>
      </trkpt>
      <trkpt lat="43.46269" lon="2.28824">
        <ele>982.1</ele>
        <time>2017-06-01T09:39:48.000Z</time>
      </trkpt>
      <trkpt lat="43.46279" lon="2.28822">
        <ele>991</ele>
        <time>2017-06-01T09:39:49.000Z</time>
      </trkpt>
      <trkpt lat="43.46293" lon="2.28821">
        <ele>990</ele>
        <time>2017-06-01T09:39:50.000Z</time>
      </trkpt>
      <trkpt lat="43.46296" lon="2.28819">
        <ele>989.8</ele>
        <time>2017-06-01T09:39:51.000Z</time>
      </trkpt>
      <trkpt lat="43.46297" lon="2.28815">
        <ele>989.6</ele>
        <time>2017-06-01T09:39:52.000Z</time>
      </trkpt>
      <trkpt lat="43.463" lon="2.28812">
        <ele>989.5</ele>
        <time>2017-06-01T09:39:53.000Z</time>
      </trkpt>
      <trkpt lat="43.46308" lon="2.28807">
        <ele>989.2</ele>
        <time>2017-06-01T09:39:55.000Z</time>
      </trkpt>
      <trkpt lat="43.46303" lon="2.28804">
        <ele>989.1</ele>
        <time>2017-06-01T09:39:56.000Z</time>
      </trkpt>
      <trkpt lat="43.46305" lon="2.28802">
        <ele>989.1</ele>
        <time>2017-06-01T09:39:57.000Z</time>
      </trkpt>
      <trkpt lat="43.46297" lon="2.28799">
        <ele>988.9</ele>
        <time>2017-06-01T09:39:58.000Z</time>
      </trkpt>
      <trkpt lat="43.46303" lon="2.28796">
        <ele>988.8</ele>
        <time>2017-06-01T09:39:59.000Z</time>
      </trkpt>
      <trkpt lat="43.463" lon="2.28794">
        <ele>990.1</ele>
        <time>2017-06-01T09:40:00.000Z</time>
      </trkpt>
      <trkpt lat="43.46297" lon="2.28792">
        <ele>990.4</ele>
        <time>2017-06-01T09:40:01.000Z</time>
      </trkpt>
      <trkpt lat="43.46289" lon="2.28788">
        <ele>992.8</ele>
        <time>2017-06-01T09:40:02.000Z</time>
      </trkpt>
      <trkpt lat="43.46292" lon="2.28785">
        <ele>992.1</ele>
        <time>2017-06-01T09:40:04.000Z</time>
      </trkpt>
      <trkpt lat="43.46287" lon="2.28782">
        <ele>994.1</ele>
        <time>2017-06-01T09:40:05.000Z</time>
      </trkpt>
      <trkpt lat="43.46282" lon="2.28778">
        <ele>994.9</ele>
        <time>2017-06-01T09:40:06.000Z</time>
      </trkpt>
      <trkpt lat="43.46284" lon="2.28775">
        <ele>994.3</ele>
        <time>2017-06-01T09:40:07.000Z</time>
      </trkpt>
      <trkpt lat="43.46288" lon="2.28774">
        <ele>992.8</ele>
        <time>2017-06-01T09:40:08.000Z</time>
      </trkpt>
      <trkpt lat="43.46294" lon="2.28771">
        <ele>991.3</ele>
        <time>2017-06-01T09:40:10.000Z</time>
      </trkpt>
      <trkpt lat="43.46308" lon="2.28765">
        <ele>987.9</ele>
        <time>2017-06-01T09:40:11.000Z</time>
      </trkpt>
      <trkpt lat="43.46317" lon="2.28761">
        <ele>987.4</ele>
        <time>2017-06-01T09:40:13.000Z</time>
      </trkpt>
      <trkpt lat="43.46321" lon="2.28759">
        <ele>987.3</ele>
        <time>2017-06-01T09:40:14.000Z</time>
      </trkpt>
      <trkpt lat="43.46322" lon="2.28751">
        <ele>987</ele>
        <time>2017-06-01T09:40:15.000Z</time>
      </trkpt>
      <trkpt lat="43.46319" lon="2.28754">
        <ele>986.8</ele>
        <time>2017-06-01T09:40:16.000Z</time>
      </trkpt>
      <trkpt lat="43.46314" lon="2.28757">
        <ele>986.7</ele>
        <time>2017-06-01T09:40:17.000Z</time>
      </trkpt>
      <trkpt lat="43.46318" lon="2.28757">
        <ele>986.7</ele>
        <time>2017-06-01T09:40:18.000Z</time>
      </trkpt>
      <trkpt lat="43.46325" lon="2.28748">
        <ele>986.5</ele>
        <time>2017-06-01T09:40:19.000Z</time>
      </trkpt>
      <trkpt lat="43.46333" lon="2.28745">
        <ele>986.3</ele>
        <time>2017-06-01T09:40:21.000Z</time>
      </trkpt>
      <trkpt lat="43.46341" lon="2.28742">
        <ele>986.1</ele>
        <time>2017-06-01T09:40:22.000Z</time>
      </trkpt>
      <trkpt lat="43.46344" lon="2.2874">
        <ele>986.1</ele>
        <time>2017-06-01T09:40:25.000Z</time>
      </trkpt>
      <trkpt lat="43.46355" lon="2.28737">
        <ele>985.8</ele>
        <time>2017-06-01T09:40:27.000Z</time>
      </trkpt>
      <trkpt lat="43.46359" lon="2.28738">
        <ele>985.8</ele>
        <time>2017-06-01T09:40:28.000Z</time>
      </trkpt>
      <trkpt lat="43.46366" lon="2.28736">
        <ele>985.7</ele>
        <time>2017-06-01T09:40:30.000Z</time>
      </trkpt>
      <trkpt lat="43.46372" lon="2.28739">
        <ele>985.6</ele>
        <time>2017-06-01T09:40:32.000Z</time>
      </trkpt>
      <trkpt lat="43.46372" lon="2.28734">
        <ele>985.5</ele>
        <time>2017-06-01T09:40:33.000Z</time>
      </trkpt>
      <trkpt lat="43.46373" lon="2.2873">
        <ele>985.5</ele>
        <time>2017-06-01T09:40:34.000Z</time>
      </trkpt>
      <trkpt lat="43.46366" lon="2.2873">
        <ele>985.3</ele>
        <time>2017-06-01T09:40:36.000Z</time>
      </trkpt>
      <trkpt lat="43.4637" lon="2.28726">
        <ele>985</ele>
        <time>2017-06-01T09:40:38.000Z</time>
      </trkpt>
      <trkpt lat="43.4638" lon="2.2872">
        <ele>984.6</ele>
        <time>2017-06-01T09:40:39.000Z</time>
      </trkpt>
      <trkpt lat="43.46374" lon="2.28727">
        <ele>984.4</ele>
        <time>2017-06-01T09:40:40.000Z</time>
      </trkpt>
      <trkpt lat="43.46384" lon="2.28708">
        <ele>983.9</ele>
        <time>2017-06-01T09:40:41.000Z</time>
      </trkpt>
      <trkpt lat="43.46387" lon="2.28704">
        <ele>983.8</ele>
        <time>2017-06-01T09:40:42.000Z</time>
      </trkpt>
      <trkpt lat="43.46384" lon="2.28714">
        <ele>983</ele>
        <time>2017-06-01T09:40:43.000Z</time>
      </trkpt>
      <trkpt lat="43.46395" lon="2.28704">
        <ele>983.1</ele>
        <time>2017-06-01T09:40:44.000Z</time>
      </trkpt>
      <trkpt lat="43.46398" lon="2.2871">
        <ele>983.1</ele>
        <time>2017-06-01T09:40:47.000Z</time>
      </trkpt>
      <trkpt lat="43.464" lon="2.28715">
        <ele>983.2</ele>
        <time>2017-06-01T09:40:48.000Z</time>
      </trkpt>
      <trkpt lat="43.46392" lon="2.28711">
        <ele>983.2</ele>
        <time>2017-06-01T09:40:49.000Z</time>
      </trkpt>
      <trkpt lat="43.4639" lon="2.28708">
        <ele>983.3</ele>
        <time>2017-06-01T09:40:50.000Z</time>
      </trkpt>
      <trkpt lat="43.46388" lon="2.28703">
        <ele>983.3</ele>
        <time>2017-06-01T09:40:51.000Z</time>
      </trkpt>
      <trkpt lat="43.46393" lon="2.28701">
        <ele>983.3</ele>
        <time>2017-06-01T09:40:53.000Z</time>
      </trkpt>
      <trkpt lat="43.46396" lon="2.28699">
        <ele>983.4</ele>
        <time>2017-06-01T09:40:54.000Z</time>
      </trkpt>
      <trkpt lat="43.46397" lon="2.28693">
        <ele>983.4</ele>
        <time>2017-06-01T09:40:57.000Z</time>
      </trkpt>
      <trkpt lat="43.46398" lon="2.28689">
        <ele>983.5</ele>
        <time>2017-06-01T09:40:59.000Z</time>
      </trkpt>
      <trkpt lat="43.46392" lon="2.2868">
        <ele>983.5</ele>
        <time>2017-06-01T09:41:00.000Z</time>
      </trkpt>
      <trkpt lat="43.46391" lon="2.28676">
        <ele>983.5</ele>
        <time>2017-06-01T09:41:01.000Z</time>
      </trkpt>
      <trkpt lat="43.46404" lon="2.28666">
        <ele>983.6</ele>
        <time>2017-06-01T09:41:03.000Z</time>
      </trkpt>
      <trkpt lat="43.46403" lon="2.2866">
        <ele>983.7</ele>
        <time>2017-06-01T09:41:04.000Z</time>
      </trkpt>
      <trkpt lat="43.46399" lon="2.28658">
        <ele>983.7</ele>
        <time>2017-06-01T09:41:05.000Z</time>
      </trkpt>
      <trkpt lat="43.46396" lon="2.2866">
        <ele>983.7</ele>
        <time>2017-06-01T09:41:06.000Z</time>
      </trkpt>
      <trkpt lat="43.46392" lon="2.2866">
        <ele>983.8</ele>
        <time>2017-06-01T09:41:07.000Z</time>
      </trkpt>
      <trkpt lat="43.464" lon="2.28652">
        <ele>983.9</ele>
        <time>2017-06-01T09:41:09.000Z</time>
      </trkpt>
      <trkpt lat="43.46406" lon="2.28649">
        <ele>984</ele>
        <time>2017-06-01T09:41:11.000Z</time>
      </trkpt>
      <trkpt lat="43.46409" lon="2.28648">
        <ele>984.1</ele>
        <time>2017-06-01T09:41:12.000Z</time>
      </trkpt>
      <trkpt lat="43.46412" lon="2.28648">
        <ele>984.2</ele>
        <time>2017-06-01T09:41:13.000Z</time>
      </trkpt>
      <trkpt lat="43.46417" lon="2.2865">
        <ele>984.4</ele>
        <time>2017-06-01T09:41:14.000Z</time>
      </trkpt>
      <trkpt lat="43.46421" lon="2.28647">
        <ele>984.5</ele>
        <time>2017-06-01T09:41:15.000Z</time>
      </trkpt>
      <trkpt lat="43.46425" lon="2.28643">
        <ele>984.7</ele>
        <time>2017-06-01T09:41:16.000Z</time>
      </trkpt>
      <trkpt lat="43.4643" lon="2.28635">
        <ele>985</ele>
        <time>2017-06-01T09:41:18.000Z</time>
      </trkpt>
      <trkpt lat="43.46424" lon="2.28623">
        <ele>985.2</ele>
        <time>2017-06-01T09:41:19.000Z</time>
      </trkpt>
      <trkpt lat="43.46425" lon="2.28616">
        <ele>985.3</ele>
        <time>2017-06-01T09:41:21.000Z</time>
      </trkpt>
      <trkpt lat="43.4642" lon="2.28616">
        <ele>985.4</ele>
        <time>2017-06-01T09:41:22.000Z</time>
      </trkpt>
      <trkpt lat="43.46417" lon="2.2861">
        <ele>985.5</ele>
        <time>2017-06-01T09:41:24.000Z</time>
      </trkpt>
      <trkpt lat="43.46414" lon="2.28608">
        <ele>985.6</ele>
        <time>2017-06-01T09:41:25.000Z</time>
      </trkpt>
      <trkpt lat="43.46417" lon="2.28598">
        <ele>985.7</ele>
        <time>2017-06-01T09:41:26.000Z</time>
      </trkpt>
      <trkpt lat="43.46415" lon="2.28592">
        <ele>985.8</ele>
        <time>2017-06-01T09:41:28.000Z</time>
      </trkpt>
      <trkpt lat="43.46415" lon="2.28597">
        <ele>986</ele>
        <time>2017-06-01T09:41:29.000Z</time>
      </trkpt>
      <trkpt lat="43.46409" lon="2.28595">
        <ele>986.1</ele>
        <time>2017-06-01T09:41:31.000Z</time>
      </trkpt>
      <trkpt lat="43.46416" lon="2.28589">
        <ele>986.2</ele>
        <time>2017-06-01T09:41:32.000Z</time>
      </trkpt>
      <trkpt lat="43.46405" lon="2.2859">
        <ele>986.3</ele>
        <time>2017-06-01T09:41:34.000Z</time>
      </trkpt>
      <trkpt lat="43.46415" lon="2.28583">
        <ele>986.5</ele>
        <time>2017-06-01T09:41:35.000Z</time>
      </trkpt>
      <trkpt lat="43.46417" lon="2.28579">
        <ele>986.5</ele>
        <time>2017-06-01T09:41:36.000Z</time>
      </trkpt>
      <trkpt lat="43.46414" lon="2.28574">
        <ele>986.6</ele>
        <time>2017-06-01T09:41:37.000Z</time>
      </trkpt>
      <trkpt lat="43.46411" lon="2.28567">
        <ele>986.7</ele>
        <time>2017-06-01T09:41:38.000Z</time>
      </trkpt>
      <trkpt lat="43.46414" lon="2.28567">
        <ele>986.7</ele>
        <time>2017-06-01T09:41:39.000Z</time>
      </trkpt>
      <trkpt lat="43.46417" lon="2.28563">
        <ele>986.8</ele>
        <time>2017-06-01T09:41:41.000Z</time>
      </trkpt>
      <trkpt lat="43.46411" lon="2.28554">
        <ele>986.9</ele>
        <time>2017-06-01T09:41:43.000Z</time>
      </trkpt>
      <trkpt lat="43.46407" lon="2.28551">
        <ele>987</ele>
        <time>2017-06-01T09:41:45.000Z</time>
      </trkpt>
      <trkpt lat="43.46403" lon="2.28552">
        <ele>987.1</ele>
        <time>2017-06-01T09:41:46.000Z</time>
      </trkpt>
      <trkpt lat="43.46408" lon="2.28549">
        <ele>987.2</ele>
        <time>2017-06-01T09:41:47.000Z</time>
      </trkpt>
      <trkpt lat="43.46405" lon="2.28549">
        <ele>987.2</ele>
        <time>2017-06-01T09:41:48.000Z</time>
      </trkpt>
      <trkpt lat="43.46402" lon="2.28553">
        <ele>989.6</ele>
        <time>2017-06-01T09:41:50.000Z</time>
      </trkpt>
      <trkpt lat="43.46397" lon="2.28554">
        <ele>989.9</ele>
        <time>2017-06-01T09:41:51.000Z</time>
      </trkpt>
      <trkpt lat="43.46394" lon="2.28556">
        <ele>990.1</ele>
        <time>2017-06-01T09:41:52.000Z</time>
      </trkpt>
      <trkpt lat="43.46391" lon="2.28559">
        <ele>990.4</ele>
        <time>2017-06-01T09:41:53.000Z</time>
      </trkpt>
      <trkpt lat="43.46386" lon="2.2856">
        <ele>990.8</ele>
        <time>2017-06-01T09:41:54.000Z</time>
      </trkpt>
      <trkpt lat="43.46399" lon="2.28561">
        <ele>991.8</ele>
        <time>2017-06-01T09:41:56.000Z</time>
      </trkpt>
      <trkpt lat="43.464" lon="2.28565">
        <ele>992</ele>
        <time>2017-06-01T09:41:59.000Z</time>
      </trkpt>
      <trkpt lat="43.46399" lon="2.28568">
        <ele>992.2</ele>
        <time>2017-06-01T09:42:00.000Z</time>
      </trkpt>
      <trkpt lat="43.46401" lon="2.28567">
        <ele>992.4</ele>
        <time>2017-06-01T09:42:01.000Z</time>
      </trkpt>
      <trkpt lat="43.46398" lon="2.2857">
        <ele>992.7</ele>
        <time>2017-06-01T09:42:03.000Z</time>
      </trkpt>
      <trkpt lat="43.46394" lon="2.28574">
        <ele>993</ele>
        <time>2017-06-01T09:42:04.000Z</time>
      </trkpt>
      <trkpt lat="43.46391" lon="2.2858">
        <ele>993.4</ele>
        <time>2017-06-01T09:42:07.000Z</time>
      </trkpt>
      <trkpt lat="43.46389" lon="2.28583">
        <ele>993.5</ele>
        <time>2017-06-01T09:42:09.000Z</time>
      </trkpt>
      <trkpt lat="43.46388" lon="2.28587">
        <ele>993.7</ele>
        <time>2017-06-01T09:42:11.000Z</time>
      </trkpt>
      <trkpt lat="43.46386" lon="2.28591">
        <ele>994</ele>
        <time>2017-06-01T09:42:12.000Z</time>
      </trkpt>
      <trkpt lat="43.46382" lon="2.28591">
        <ele>994.2</ele>
        <time>2017-06-01T09:42:14.000Z</time>
      </trkpt>
      <trkpt lat="43.46381" lon="2.28597">
        <ele>994.5</ele>
        <time>2017-06-01T09:42:16.000Z</time>
      </trkpt>
      <trkpt lat="43.46383" lon="2.28601">
        <ele>994.6</ele>
        <time>2017-06-01T09:42:17.000Z</time>
      </trkpt>
      <trkpt lat="43.46384" lon="2.28603">
        <ele>994.8</ele>
        <time>2017-06-01T09:42:19.000Z</time>
      </trkpt>
      <trkpt lat="43.46388" lon="2.28601">
        <ele>995</ele>
        <time>2017-06-01T09:42:20.000Z</time>
      </trkpt>
      <trkpt lat="43.46384" lon="2.28602">
        <ele>995.2</ele>
        <time>2017-06-01T09:42:21.000Z</time>
      </trkpt>
      <trkpt lat="43.46382" lon="2.28608">
        <ele>995.4</ele>
        <time>2017-06-01T09:42:23.000Z</time>
      </trkpt>
      <trkpt lat="43.46383" lon="2.28614">
        <ele>995.6</ele>
        <time>2017-06-01T09:42:25.000Z</time>
      </trkpt>
      <trkpt lat="43.46384" lon="2.2862">
        <ele>995.8</ele>
        <time>2017-06-01T09:42:26.000Z</time>
      </trkpt>
      <trkpt lat="43.46382" lon="2.28625">
        <ele>996</ele>
        <time>2017-06-01T09:42:27.000Z</time>
      </trkpt>
      <trkpt lat="43.46381" lon="2.28637">
        <ele>996.4</ele>
        <time>2017-06-01T09:42:28.000Z</time>
      </trkpt>
      <trkpt lat="43.4638" lon="2.28644">
        <ele>996.6</ele>
        <time>2017-06-01T09:42:29.000Z</time>
      </trkpt>
      <trkpt lat="43.46379" lon="2.2864">
        <ele>997.2</ele>
        <time>2017-06-01T09:42:32.000Z</time>
      </trkpt>
      <trkpt lat="43.46383" lon="2.28641">
        <ele>995.4</ele>
        <time>2017-06-01T09:42:33.000Z</time>
      </trkpt>
      <trkpt lat="43.46401" lon="2.28645">
        <ele>992.4</ele>
        <time>2017-06-01T09:42:35.000Z</time>
      </trkpt>
      <trkpt lat="43.46391" lon="2.28652">
        <ele>993.5</ele>
        <time>2017-06-01T09:42:36.000Z</time>
      </trkpt>
      <trkpt lat="43.46383" lon="2.28648">
        <ele>994.4</ele>
        <time>2017-06-01T09:42:37.000Z</time>
      </trkpt>
      <trkpt lat="43.46377" lon="2.28652">
        <ele>995.5</ele>
        <time>2017-06-01T09:42:38.000Z</time>
      </trkpt>
      <trkpt lat="43.4637" lon="2.28648">
        <ele>997.1</ele>
        <time>2017-06-01T09:42:39.000Z</time>
      </trkpt>
      <trkpt lat="43.46368" lon="2.28649">
        <ele>997.4</ele>
        <time>2017-06-01T09:42:40.000Z</time>
      </trkpt>
      <trkpt lat="43.4637" lon="2.28648">
        <ele>996.6</ele>
        <time>2017-06-01T09:42:41.000Z</time>
      </trkpt>
      <trkpt lat="43.46368" lon="2.28646">
        <ele>997.2</ele>
        <time>2017-06-01T09:42:42.000Z</time>
      </trkpt>
      <trkpt lat="43.46381" lon="2.28648">
        <ele>993.5</ele>
        <time>2017-06-01T09:42:45.000Z</time>
      </trkpt>
      <trkpt lat="43.46372" lon="2.28651">
        <ele>995.5</ele>
        <time>2017-06-01T09:42:46.000Z</time>
      </trkpt>
      <trkpt lat="43.46363" lon="2.28664">
        <ele>996.5</ele>
        <time>2017-06-01T09:42:48.000Z</time>
      </trkpt>
      <trkpt lat="43.46355" lon="2.28659">
        <ele>998</ele>
        <time>2017-06-01T09:42:49.000Z</time>
      </trkpt>
      <trkpt lat="43.4635" lon="2.28662">
        <ele>999.3</ele>
        <time>2017-06-01T09:42:50.000Z</time>
      </trkpt>
      <trkpt lat="43.46352" lon="2.28658">
        <ele>998.2</ele>
        <time>2017-06-01T09:42:56.000Z</time>
      </trkpt>
      <trkpt lat="43.46354" lon="2.28652">
        <ele>997.9</ele>
        <time>2017-06-01T09:42:59.000Z</time>
      </trkpt>
      <trkpt lat="43.4635" lon="2.28653">
        <ele>999.3</ele>
        <time>2017-06-01T09:43:03.000Z</time>
      </trkpt>
      <trkpt lat="43.46353" lon="2.28653">
        <ele>998.2</ele>
        <time>2017-06-01T09:43:04.000Z</time>
      </trkpt>
      <trkpt lat="43.46357" lon="2.28656">
        <ele>996.7</ele>
        <time>2017-06-01T09:43:05.000Z</time>
      </trkpt>
      <trkpt lat="43.46351" lon="2.28662">
        <ele>996.5</ele>
        <time>2017-06-01T09:43:08.000Z</time>
      </trkpt>
      <trkpt lat="43.46349" lon="2.28668">
        <ele>996.7</ele>
        <time>2017-06-01T09:43:32.000Z</time>
      </trkpt>
      <trkpt lat="43.46346" lon="2.28674">
        <ele>996.9</ele>
        <time>2017-06-01T09:43:33.000Z</time>
      </trkpt>
      <trkpt lat="43.46341" lon="2.28676">
        <ele>997.9</ele>
        <time>2017-06-01T09:43:34.000Z</time>
      </trkpt>
      <trkpt lat="43.46347" lon="2.28681">
        <ele>995.4</ele>
        <time>2017-06-01T09:43:35.000Z</time>
      </trkpt>
      <trkpt lat="43.46344" lon="2.2868">
        <ele>996</ele>
        <time>2017-06-01T09:43:36.000Z</time>
      </trkpt>
      <trkpt lat="43.46347" lon="2.28691">
        <ele>993.9</ele>
        <time>2017-06-01T09:43:37.000Z</time>
      </trkpt>
      <trkpt lat="43.46341" lon="2.28696">
        <ele>995.4</ele>
        <time>2017-06-01T09:43:38.000Z</time>
      </trkpt>
      <trkpt lat="43.46339" lon="2.28699">
        <ele>996</ele>
        <time>2017-06-01T09:43:39.000Z</time>
      </trkpt>
      <trkpt lat="43.46327" lon="2.28694">
        <ele>998.7</ele>
        <time>2017-06-01T09:43:41.000Z</time>
      </trkpt>
      <trkpt lat="43.4632" lon="2.28704">
        <ele>1001</ele>
        <time>2017-06-01T09:43:42.000Z</time>
      </trkpt>
      <trkpt lat="43.46315" lon="2.28712">
        <ele>1002.8</ele>
        <time>2017-06-01T09:43:43.000Z</time>
      </trkpt>
      <trkpt lat="43.46313" lon="2.28716">
        <ele>1004.6</ele>
        <time>2017-06-01T09:43:44.000Z</time>
      </trkpt>
      <trkpt lat="43.46309" lon="2.2872">
        <ele>1005.2</ele>
        <time>2017-06-01T09:43:45.000Z</time>
      </trkpt>
      <trkpt lat="43.46304" lon="2.28721">
        <ele>1005.7</ele>
        <time>2017-06-01T09:43:46.000Z</time>
      </trkpt>
      <trkpt lat="43.46303" lon="2.28725">
        <ele>1006</ele>
        <time>2017-06-01T09:43:47.000Z</time>
      </trkpt>
      <trkpt lat="43.46299" lon="2.28729">
        <ele>1006.4</ele>
        <time>2017-06-01T09:43:48.000Z</time>
      </trkpt>
      <trkpt lat="43.46294" lon="2.28733">
        <ele>1007</ele>
        <time>2017-06-01T09:43:49.000Z</time>
      </trkpt>
      <trkpt lat="43.46288" lon="2.28736">
        <ele>1007.5</ele>
        <time>2017-06-01T09:43:50.000Z</time>
      </trkpt>
      <trkpt lat="43.46286" lon="2.28733">
        <ele>1007.9</ele>
        <time>2017-06-01T09:43:51.000Z</time>
      </trkpt>
      <trkpt lat="43.46282" lon="2.28733">
        <ele>1008.2</ele>
        <time>2017-06-01T09:43:54.000Z</time>
      </trkpt>
      <trkpt lat="43.4628" lon="2.28738">
        <ele>1008.7</ele>
        <time>2017-06-01T09:43:55.000Z</time>
      </trkpt>
      <trkpt lat="43.46269" lon="2.28732">
        <ele>1010.2</ele>
        <time>2017-06-01T09:44:08.000Z</time>
      </trkpt>
      <trkpt lat="43.46265" lon="2.28731">
        <ele>1010.5</ele>
        <time>2017-06-01T09:44:10.000Z</time>
      </trkpt>
      <trkpt lat="43.46257" lon="2.28732">
        <ele>1011.2</ele>
        <time>2017-06-01T09:44:17.000Z</time>
      </trkpt>
      <trkpt lat="43.46254" lon="2.28734">
        <ele>1011.5</ele>
        <time>2017-06-01T09:44:19.000Z</time>
      </trkpt>
      <trkpt lat="43.46257" lon="2.2873">
        <ele>1011.1</ele>
        <time>2017-06-01T09:44:21.000Z</time>
      </trkpt>
      <trkpt lat="43.46261" lon="2.28727">
        <ele>1010.7</ele>
        <time>2017-06-01T09:44:24.000Z</time>
      </trkpt>
      <trkpt lat="43.4628" lon="2.28725">
        <ele>1008.6</ele>
        <time>2017-06-01T09:44:27.000Z</time>
      </trkpt>
      <trkpt lat="43.46283" lon="2.28724">
        <ele>1008.3</ele>
        <time>2017-06-01T09:44:28.000Z</time>
      </trkpt>
      <trkpt lat="43.46281" lon="2.28719">
        <ele>1007.9</ele>
        <time>2017-06-01T09:44:33.000Z</time>
      </trkpt>
      <trkpt lat="43.46282" lon="2.28714">
        <ele>1007.6</ele>
        <time>2017-06-01T09:44:36.000Z</time>
      </trkpt>
      <trkpt lat="43.46282" lon="2.28708">
        <ele>1004.5</ele>
        <time>2017-06-01T09:44:38.000Z</time>
      </trkpt>
      <trkpt lat="43.46276" lon="2.2871">
        <ele>1004.6</ele>
        <time>2017-06-01T09:44:39.000Z</time>
      </trkpt>
      <trkpt lat="43.46272" lon="2.2871">
        <ele>1004.8</ele>
        <time>2017-06-01T09:44:41.000Z</time>
      </trkpt>
      <trkpt lat="43.46267" lon="2.28713">
        <ele>1005</ele>
        <time>2017-06-01T09:44:43.000Z</time>
      </trkpt>
      <trkpt lat="43.46261" lon="2.28719">
        <ele>1005.2</ele>
        <time>2017-06-01T09:44:44.000Z</time>
      </trkpt>
      <trkpt lat="43.4627" lon="2.28715">
        <ele>1005.6</ele>
        <time>2017-06-01T09:44:45.000Z</time>
      </trkpt>
      <trkpt lat="43.46264" lon="2.28718">
        <ele>1005.9</ele>
        <time>2017-06-01T09:44:46.000Z</time>
      </trkpt>
      <trkpt lat="43.46258" lon="2.28715">
        <ele>1006.2</ele>
        <time>2017-06-01T09:44:49.000Z</time>
      </trkpt>
      <trkpt lat="43.46255" lon="2.28714">
        <ele>1006.4</ele>
        <time>2017-06-01T09:44:50.000Z</time>
      </trkpt>
      <trkpt lat="43.4626" lon="2.28722">
        <ele>1007</ele>
        <time>2017-06-01T09:44:52.000Z</time>
      </trkpt>
      <trkpt lat="43.46271" lon="2.28722">
        <ele>1007.9</ele>
        <time>2017-06-01T09:44:53.000Z</time>
      </trkpt>
      <trkpt lat="43.46274" lon="2.28728">
        <ele>1009.2</ele>
        <time>2017-06-01T09:44:54.000Z</time>
      </trkpt>
      <trkpt lat="43.46278" lon="2.28733">
        <ele>1008.5</ele>
        <time>2017-06-01T09:44:55.000Z</time>
      </trkpt>
      <trkpt lat="43.46282" lon="2.28728">
        <ele>1008</ele>
        <time>2017-06-01T09:44:59.000Z</time>
      </trkpt>
      <trkpt lat="43.46285" lon="2.28725">
        <ele>1007.7</ele>
        <time>2017-06-01T09:45:00.000Z</time>
      </trkpt>
      <trkpt lat="43.46289" lon="2.28723">
        <ele>1007.4</ele>
        <time>2017-06-01T09:45:02.000Z</time>
      </trkpt>
      <trkpt lat="43.46292" lon="2.28725">
        <ele>1007.2</ele>
        <time>2017-06-01T09:45:03.000Z</time>
      </trkpt>
      <trkpt lat="43.46287" lon="2.28727">
        <ele>1007.5</ele>
        <time>2017-06-01T09:45:04.000Z</time>
      </trkpt>
      <trkpt lat="43.46283" lon="2.28727">
        <ele>1007.7</ele>
        <time>2017-06-01T09:45:06.000Z</time>
      </trkpt>
      <trkpt lat="43.46287" lon="2.28724">
        <ele>1008</ele>
        <time>2017-06-01T09:45:07.000Z</time>
      </trkpt>
      <trkpt lat="43.46283" lon="2.28724">
        <ele>1008.2</ele>
        <time>2017-06-01T09:45:08.000Z</time>
      </trkpt>
      <trkpt lat="43.46282" lon="2.28728">
        <ele>1008.4</ele>
        <time>2017-06-01T09:45:13.000Z</time>
      </trkpt>
      <trkpt lat="43.46279" lon="2.28726">
        <ele>1008.6</ele>
        <time>2017-06-01T09:45:14.000Z</time>
      </trkpt>
      <trkpt lat="43.46274" lon="2.28724">
        <ele>1009</ele>
        <time>2017-06-01T09:45:18.000Z</time>
      </trkpt>
      <trkpt lat="43.46271" lon="2.28722">
        <ele>1009.5</ele>
        <time>2017-06-01T09:45:21.000Z</time>
      </trkpt>
      <trkpt lat="43.46266" lon="2.28718">
        <ele>1009.9</ele>
        <time>2017-06-01T09:45:23.000Z</time>
      </trkpt>
      <trkpt lat="43.46263" lon="2.28716">
        <ele>1010.2</ele>
        <time>2017-06-01T09:45:24.000Z</time>
      </trkpt>
      <trkpt lat="43.46258" lon="2.28715">
        <ele>1010.5</ele>
        <time>2017-06-01T09:45:26.000Z</time>
      </trkpt>
      <trkpt lat="43.46262" lon="2.28718">
        <ele>1010.8</ele>
        <time>2017-06-01T09:45:27.000Z</time>
      </trkpt>
      <trkpt lat="43.4625" lon="2.28729">
        <ele>1011.5</ele>
        <time>2017-06-01T09:45:32.000Z</time>
      </trkpt>
      <trkpt lat="43.46252" lon="2.28734">
        <ele>1011.7</ele>
        <time>2017-06-01T09:45:35.000Z</time>
      </trkpt>
      <trkpt lat="43.4625" lon="2.28736">
        <ele>1011.8</ele>
        <time>2017-06-01T09:45:42.000Z</time>
      </trkpt>
      <trkpt lat="43.46249" lon="2.28738">
        <ele>1011.9</ele>
        <time>2017-06-01T09:45:43.000Z</time>
      </trkpt>
      <trkpt lat="43.46252" lon="2.2874">
        <ele>1012.1</ele>
        <time>2017-06-01T09:45:44.000Z</time>
      </trkpt>
      <trkpt lat="43.46256" lon="2.28738">
        <ele>1012.3</ele>
        <time>2017-06-01T09:45:46.000Z</time>
      </trkpt>
      <trkpt lat="43.46267" lon="2.2873">
        <ele>1012.9</ele>
        <time>2017-06-01T09:45:47.000Z</time>
      </trkpt>
      <trkpt lat="43.46263" lon="2.28732">
        <ele>1013.1</ele>
        <time>2017-06-01T09:45:48.000Z</time>
      </trkpt>
      <trkpt lat="43.4626" lon="2.28733">
        <ele>1013.3</ele>
        <time>2017-06-01T09:45:49.000Z</time>
      </trkpt>
      <trkpt lat="43.46252" lon="2.28737">
        <ele>1013.7</ele>
        <time>2017-06-01T09:45:54.000Z</time>
      </trkpt>
      <trkpt lat="43.46248" lon="2.2874">
        <ele>1013.9</ele>
        <time>2017-06-01T09:45:57.000Z</time>
      </trkpt>
      <trkpt lat="43.46244" lon="2.28743">
        <ele>1014.1</ele>
        <time>2017-06-01T09:46:31.000Z</time>
      </trkpt>
      <trkpt lat="43.4624" lon="2.28746">
        <ele>1014.4</ele>
        <time>2017-06-01T09:46:32.000Z</time>
      </trkpt>
      <trkpt lat="43.46229" lon="2.28753">
        <ele>1015</ele>
        <time>2017-06-01T09:46:33.000Z</time>
      </trkpt>
      <trkpt lat="43.46224" lon="2.2876">
        <ele>1015.4</ele>
        <time>2017-06-01T09:46:34.000Z</time>
      </trkpt>
      <trkpt lat="43.46225" lon="2.28767">
        <ele>1015.7</ele>
        <time>2017-06-01T09:46:35.000Z</time>
      </trkpt>
      <trkpt lat="43.46221" lon="2.28774">
        <ele>1016.1</ele>
        <time>2017-06-01T09:46:36.000Z</time>
      </trkpt>
      <trkpt lat="43.46217" lon="2.28787">
        <ele>1016.6</ele>
        <time>2017-06-01T09:46:37.000Z</time>
      </trkpt>
      <trkpt lat="43.46217" lon="2.28793">
        <ele>1016.8</ele>
        <time>2017-06-01T09:46:38.000Z</time>
      </trkpt>
      <trkpt lat="43.46208" lon="2.2879">
        <ele>1017.3</ele>
        <time>2017-06-01T09:46:39.000Z</time>
      </trkpt>
      <trkpt lat="43.4621" lon="2.28784">
        <ele>1017.6</ele>
        <time>2017-06-01T09:46:40.000Z</time>
      </trkpt>
      <trkpt lat="43.46202" lon="2.28781">
        <ele>1018</ele>
        <time>2017-06-01T09:46:41.000Z</time>
      </trkpt>
      <trkpt lat="43.46198" lon="2.28787">
        <ele>1018.3</ele>
        <time>2017-06-01T09:46:43.000Z</time>
      </trkpt>
      <trkpt lat="43.46199" lon="2.28793">
        <ele>1018.5</ele>
        <time>2017-06-01T09:46:44.000Z</time>
      </trkpt>
      <trkpt lat="43.46198" lon="2.28797">
        <ele>1018.6</ele>
        <time>2017-06-01T09:46:46.000Z</time>
      </trkpt>
      <trkpt lat="43.46194" lon="2.28798">
        <ele>1018.8</ele>
        <time>2017-06-01T09:46:47.000Z</time>
      </trkpt>
      <trkpt lat="43.46192" lon="2.28802">
        <ele>1019</ele>
        <time>2017-06-01T09:46:49.000Z</time>
      </trkpt>
      <trkpt lat="43.46192" lon="2.28806">
        <ele>1019.1</ele>
        <time>2017-06-01T09:46:50.000Z</time>
      </trkpt>
      <trkpt lat="43.46185" lon="2.28812">
        <ele>1019.5</ele>
        <time>2017-06-01T09:46:52.000Z</time>
      </trkpt>
      <trkpt lat="43.46181" lon="2.28814">
        <ele>1019.7</ele>
        <time>2017-06-01T09:46:54.000Z</time>
      </trkpt>
      <trkpt lat="43.46172" lon="2.28815">
        <ele>1020.1</ele>
        <time>2017-06-01T09:46:55.000Z</time>
      </trkpt>
      <trkpt lat="43.46163" lon="2.28822">
        <ele>1020.9</ele>
        <time>2017-06-01T09:46:58.000Z</time>
      </trkpt>
      <trkpt lat="43.46159" lon="2.28824">
        <ele>1021.1</ele>
        <time>2017-06-01T09:46:59.000Z</time>
      </trkpt>
      <trkpt lat="43.46155" lon="2.28825">
        <ele>1021.4</ele>
        <time>2017-06-01T09:47:00.000Z</time>
      </trkpt>
      <trkpt lat="43.46161" lon="2.2883">
        <ele>1021.7</ele>
        <time>2017-06-01T09:47:02.000Z</time>
      </trkpt>
      <trkpt lat="43.46158" lon="2.28835">
        <ele>1022</ele>
        <time>2017-06-01T09:47:04.000Z</time>
      </trkpt>
      <trkpt lat="43.46165" lon="2.28834">
        <ele>1022.3</ele>
        <time>2017-06-01T09:47:05.000Z</time>
      </trkpt>
      <trkpt lat="43.46163" lon="2.28838">
        <ele>1022.5</ele>
        <time>2017-06-01T09:47:07.000Z</time>
      </trkpt>
      <trkpt lat="43.46159" lon="2.28839">
        <ele>1022.8</ele>
        <time>2017-06-01T09:47:10.000Z</time>
      </trkpt>
      <trkpt lat="43.46159" lon="2.28843">
        <ele>1022.9</ele>
        <time>2017-06-01T09:47:12.000Z</time>
      </trkpt>
      <trkpt lat="43.46156" lon="2.28848">
        <ele>1023.2</ele>
        <time>2017-06-01T09:47:14.000Z</time>
      </trkpt>
      <trkpt lat="43.46155" lon="2.28854">
        <ele>1023.4</ele>
        <time>2017-06-01T09:47:15.000Z</time>
      </trkpt>
      <trkpt lat="43.46151" lon="2.28857">
        <ele>1023.7</ele>
        <time>2017-06-01T09:47:17.000Z</time>
      </trkpt>
      <trkpt lat="43.46148" lon="2.28862">
        <ele>1024</ele>
        <time>2017-06-01T09:47:19.000Z</time>
      </trkpt>
      <trkpt lat="43.46144" lon="2.28858">
        <ele>1024</ele>
        <time>2017-06-01T09:47:20.000Z</time>
      </trkpt>
      <trkpt lat="43.46148" lon="2.28863">
        <ele>1024</ele>
        <time>2017-06-01T09:47:23.000Z</time>
      </trkpt>
      <trkpt lat="43.46156" lon="2.28872">
        <ele>1024</ele>
        <time>2017-06-01T09:47:25.000Z</time>
      </trkpt>
      <trkpt lat="43.4616" lon="2.28874">
        <ele>1024.1</ele>
        <time>2017-06-01T09:47:26.000Z</time>
      </trkpt>
      <trkpt lat="43.46158" lon="2.28878">
        <ele>1024.1</ele>
        <time>2017-06-01T09:47:27.000Z</time>
      </trkpt>
      <trkpt lat="43.46148" lon="2.28881">
        <ele>1024.3</ele>
        <time>2017-06-01T09:47:29.000Z</time>
      </trkpt>
      <trkpt lat="43.46141" lon="2.28882">
        <ele>1024.4</ele>
        <time>2017-06-01T09:47:30.000Z</time>
      </trkpt>
      <trkpt lat="43.46132" lon="2.28883">
        <ele>1024.6</ele>
        <time>2017-06-01T09:47:31.000Z</time>
      </trkpt>
      <trkpt lat="43.46125" lon="2.28883">
        <ele>1024.8</ele>
        <time>2017-06-01T09:47:32.000Z</time>
      </trkpt>
      <trkpt lat="43.4612" lon="2.28883">
        <ele>1024.9</ele>
        <time>2017-06-01T09:47:33.000Z</time>
      </trkpt>
      <trkpt lat="43.46125" lon="2.28892">
        <ele>1025</ele>
        <time>2017-06-01T09:47:34.000Z</time>
      </trkpt>
      <trkpt lat="43.46118" lon="2.28893">
        <ele>1025.2</ele>
        <time>2017-06-01T09:47:35.000Z</time>
      </trkpt>
      <trkpt lat="43.46107" lon="2.28891">
        <ele>1025.4</ele>
        <time>2017-06-01T09:47:36.000Z</time>
      </trkpt>
      <trkpt lat="43.46101" lon="2.28891">
        <ele>1025.5</ele>
        <time>2017-06-01T09:47:38.000Z</time>
      </trkpt>
      <trkpt lat="43.46105" lon="2.28898">
        <ele>1025.6</ele>
        <time>2017-06-01T09:47:39.000Z</time>
      </trkpt>
      <trkpt lat="43.46096" lon="2.28895">
        <ele>1025.8</ele>
        <time>2017-06-01T09:47:40.000Z</time>
      </trkpt>
      <trkpt lat="43.46107" lon="2.28899">
        <ele>1026</ele>
        <time>2017-06-01T09:47:41.000Z</time>
      </trkpt>
      <trkpt lat="43.46111" lon="2.28905">
        <ele>1026.1</ele>
        <time>2017-06-01T09:47:42.000Z</time>
      </trkpt>
      <trkpt lat="43.46115" lon="2.28909">
        <ele>1026.2</ele>
        <time>2017-06-01T09:47:43.000Z</time>
      </trkpt>
      <trkpt lat="43.4612" lon="2.28915">
        <ele>1026.3</ele>
        <time>2017-06-01T09:47:45.000Z</time>
      </trkpt>
      <trkpt lat="43.4612" lon="2.2892">
        <ele>1026.3</ele>
        <time>2017-06-01T09:47:48.000Z</time>
      </trkpt>
      <trkpt lat="43.4612" lon="2.28925">
        <ele>1026.4</ele>
        <time>2017-06-01T09:47:49.000Z</time>
      </trkpt>
      <trkpt lat="43.46119" lon="2.28929">
        <ele>1026.5</ele>
        <time>2017-06-01T09:47:50.000Z</time>
      </trkpt>
      <trkpt lat="43.46113" lon="2.2893">
        <ele>1026.6</ele>
        <time>2017-06-01T09:47:52.000Z</time>
      </trkpt>
      <trkpt lat="43.46109" lon="2.28929">
        <ele>1026.6</ele>
        <time>2017-06-01T09:47:53.000Z</time>
      </trkpt>
      <trkpt lat="43.46105" lon="2.28929">
        <ele>1026.7</ele>
        <time>2017-06-01T09:47:55.000Z</time>
      </trkpt>
      <trkpt lat="43.46101" lon="2.28933">
        <ele>1026.8</ele>
        <time>2017-06-01T09:47:56.000Z</time>
      </trkpt>
      <trkpt lat="43.46098" lon="2.2894">
        <ele>1026.9</ele>
        <time>2017-06-01T09:47:58.000Z</time>
      </trkpt>
      <trkpt lat="43.46096" lon="2.28945">
        <ele>1027</ele>
        <time>2017-06-01T09:48:00.000Z</time>
      </trkpt>
      <trkpt lat="43.46094" lon="2.2895">
        <ele>1027</ele>
        <time>2017-06-01T09:48:01.000Z</time>
      </trkpt>
      <trkpt lat="43.46093" lon="2.28957">
        <ele>1027.1</ele>
        <time>2017-06-01T09:48:02.000Z</time>
      </trkpt>
      <trkpt lat="43.46091" lon="2.28961">
        <ele>1027.2</ele>
        <time>2017-06-01T09:48:03.000Z</time>
      </trkpt>
      <trkpt lat="43.46088" lon="2.28965">
        <ele>1027.2</ele>
        <time>2017-06-01T09:48:04.000Z</time>
      </trkpt>
      <trkpt lat="43.46088" lon="2.28969">
        <ele>1027.3</ele>
        <time>2017-06-01T09:48:05.000Z</time>
      </trkpt>
      <trkpt lat="43.46107" lon="2.28982">
        <ele>1028</ele>
        <time>2017-06-01T09:48:07.000Z</time>
      </trkpt>
      <trkpt lat="43.46098" lon="2.28973">
        <ele>1028.3</ele>
        <time>2017-06-01T09:48:08.000Z</time>
      </trkpt>
      <trkpt lat="43.46092" lon="2.28974">
        <ele>1028.4</ele>
        <time>2017-06-01T09:48:09.000Z</time>
      </trkpt>
      <trkpt lat="43.4609" lon="2.28977">
        <ele>1028.5</ele>
        <time>2017-06-01T09:48:10.000Z</time>
      </trkpt>
      <trkpt lat="43.46087" lon="2.2898">
        <ele>1028.6</ele>
        <time>2017-06-01T09:48:11.000Z</time>
      </trkpt>
      <trkpt lat="43.46085" lon="2.28984">
        <ele>1028.6</ele>
        <time>2017-06-01T09:48:12.000Z</time>
      </trkpt>
      <trkpt lat="43.46085" lon="2.28987">
        <ele>1028.7</ele>
        <time>2017-06-01T09:48:13.000Z</time>
      </trkpt>
      <trkpt lat="43.46089" lon="2.28989">
        <ele>1028.8</ele>
        <time>2017-06-01T09:48:14.000Z</time>
      </trkpt>
      <trkpt lat="43.46082" lon="2.28995">
        <ele>1028.9</ele>
        <time>2017-06-01T09:48:15.000Z</time>
      </trkpt>
      <trkpt lat="43.4608" lon="2.28998">
        <ele>1029</ele>
        <time>2017-06-01T09:48:16.000Z</time>
      </trkpt>
      <trkpt lat="43.46077" lon="2.29001">
        <ele>1029</ele>
        <time>2017-06-01T09:48:19.000Z</time>
      </trkpt>
      <trkpt lat="43.46075" lon="2.29006">
        <ele>1029.1</ele>
        <time>2017-06-01T09:48:20.000Z</time>
      </trkpt>
      <trkpt lat="43.4607" lon="2.29014">
        <ele>1029.2</ele>
        <time>2017-06-01T09:48:23.000Z</time>
      </trkpt>
      <trkpt lat="43.46066" lon="2.29015">
        <ele>1029.3</ele>
        <time>2017-06-01T09:48:24.000Z</time>
      </trkpt>
      <trkpt lat="43.46061" lon="2.29018">
        <ele>1029.3</ele>
        <time>2017-06-01T09:48:25.000Z</time>
      </trkpt>
      <trkpt lat="43.46063" lon="2.29022">
        <ele>1029.4</ele>
        <time>2017-06-01T09:48:26.000Z</time>
      </trkpt>
      <trkpt lat="43.46061" lon="2.29025">
        <ele>1029.4</ele>
        <time>2017-06-01T09:48:27.000Z</time>
      </trkpt>
      <trkpt lat="43.46061" lon="2.29029">
        <ele>1029.5</ele>
        <time>2017-06-01T09:48:29.000Z</time>
      </trkpt>
      <trkpt lat="43.46063" lon="2.29035">
        <ele>1029.5</ele>
        <time>2017-06-01T09:48:31.000Z</time>
      </trkpt>
      <trkpt lat="43.4606" lon="2.29039">
        <ele>1029.6</ele>
        <time>2017-06-01T09:48:32.000Z</time>
      </trkpt>
      <trkpt lat="43.46059" lon="2.29043">
        <ele>1029.7</ele>
        <time>2017-06-01T09:48:33.000Z</time>
      </trkpt>
      <trkpt lat="43.46063" lon="2.29045">
        <ele>1029.7</ele>
        <time>2017-06-01T09:48:35.000Z</time>
      </trkpt>
      <trkpt lat="43.46061" lon="2.2905">
        <ele>1029.8</ele>
        <time>2017-06-01T09:48:36.000Z</time>
      </trkpt>
      <trkpt lat="43.46063" lon="2.29054">
        <ele>1029.9</ele>
        <time>2017-06-01T09:48:37.000Z</time>
      </trkpt>
      <trkpt lat="43.46066" lon="2.29057">
        <ele>1030</ele>
        <time>2017-06-01T09:48:39.000Z</time>
      </trkpt>
      <trkpt lat="43.46071" lon="2.29058">
        <ele>1030.1</ele>
        <time>2017-06-01T09:48:40.000Z</time>
      </trkpt>
      <trkpt lat="43.46066" lon="2.29058">
        <ele>1030.2</ele>
        <time>2017-06-01T09:48:41.000Z</time>
      </trkpt>
      <trkpt lat="43.46066" lon="2.29063">
        <ele>1030.3</ele>
        <time>2017-06-01T09:48:43.000Z</time>
      </trkpt>
      <trkpt lat="43.46063" lon="2.29069">
        <ele>1030.4</ele>
        <time>2017-06-01T09:48:45.000Z</time>
      </trkpt>
      <trkpt lat="43.46066" lon="2.29072">
        <ele>1030.5</ele>
        <time>2017-06-01T09:48:46.000Z</time>
      </trkpt>
      <trkpt lat="43.46065" lon="2.29076">
        <ele>1030.5</ele>
        <time>2017-06-01T09:48:47.000Z</time>
      </trkpt>
      <trkpt lat="43.46067" lon="2.29079">
        <ele>1030.6</ele>
        <time>2017-06-01T09:48:49.000Z</time>
      </trkpt>
      <trkpt lat="43.46061" lon="2.29081">
        <ele>1030.7</ele>
        <time>2017-06-01T09:48:52.000Z</time>
      </trkpt>
      <trkpt lat="43.46059" lon="2.29084">
        <ele>1030.8</ele>
        <time>2017-06-01T09:48:53.000Z</time>
      </trkpt>
      <trkpt lat="43.46065" lon="2.29089">
        <ele>1030.9</ele>
        <time>2017-06-01T09:48:54.000Z</time>
      </trkpt>
      <trkpt lat="43.4607" lon="2.29094">
        <ele>1031</ele>
        <time>2017-06-01T09:48:55.000Z</time>
      </trkpt>
      <trkpt lat="43.46067" lon="2.29094">
        <ele>1031</ele>
        <time>2017-06-01T09:48:56.000Z</time>
      </trkpt>
      <trkpt lat="43.46062" lon="2.29096">
        <ele>1031</ele>
        <time>2017-06-01T09:48:59.000Z</time>
      </trkpt>
      <trkpt lat="43.46056" lon="2.291">
        <ele>1031</ele>
        <time>2017-06-01T09:49:00.000Z</time>
      </trkpt>
      <trkpt lat="43.46065" lon="2.29112">
        <ele>1030.3</ele>
        <time>2017-06-01T09:49:01.000Z</time>
      </trkpt>
      <trkpt lat="43.46068" lon="2.29109">
        <ele>1030.3</ele>
        <time>2017-06-01T09:49:03.000Z</time>
      </trkpt>
      <trkpt lat="43.46065" lon="2.29104">
        <ele>1030.4</ele>
        <time>2017-06-01T09:49:04.000Z</time>
      </trkpt>
      <trkpt lat="43.46062" lon="2.29095">
        <ele>1030.5</ele>
        <time>2017-06-01T09:49:06.000Z</time>
      </trkpt>
      <trkpt lat="43.46057" lon="2.29093">
        <ele>1030.6</ele>
        <time>2017-06-01T09:49:09.000Z</time>
      </trkpt>
      <trkpt lat="43.46054" lon="2.29091">
        <ele>1030.7</ele>
        <time>2017-06-01T09:49:10.000Z</time>
      </trkpt>
      <trkpt lat="43.46051" lon="2.29084">
        <ele>1030.8</ele>
        <time>2017-06-01T09:49:12.000Z</time>
      </trkpt>
      <trkpt lat="43.46048" lon="2.29079">
        <ele>1030.9</ele>
        <time>2017-06-01T09:49:14.000Z</time>
      </trkpt>
      <trkpt lat="43.46049" lon="2.29075">
        <ele>1030.9</ele>
        <time>2017-06-01T09:49:15.000Z</time>
      </trkpt>
      <trkpt lat="43.46054" lon="2.29071">
        <ele>1031</ele>
        <time>2017-06-01T09:49:17.000Z</time>
      </trkpt>
      <trkpt lat="43.4605" lon="2.29069">
        <ele>1031</ele>
        <time>2017-06-01T09:49:18.000Z</time>
      </trkpt>
      <trkpt lat="43.46048" lon="2.29072">
        <ele>1031</ele>
        <time>2017-06-01T09:49:20.000Z</time>
      </trkpt>
      <trkpt lat="43.46047" lon="2.29065">
        <ele>1031</ele>
        <time>2017-06-01T09:49:21.000Z</time>
      </trkpt>
      <trkpt lat="43.46051" lon="2.29067">
        <ele>1030.9</ele>
        <time>2017-06-01T09:49:23.000Z</time>
      </trkpt>
      <trkpt lat="43.46054" lon="2.29065">
        <ele>1030.9</ele>
        <time>2017-06-01T09:49:34.000Z</time>
      </trkpt>
      <trkpt lat="43.46056" lon="2.29067">
        <ele>1030.8</ele>
        <time>2017-06-01T09:49:37.000Z</time>
      </trkpt>
      <trkpt lat="43.4606" lon="2.29067">
        <ele>1030.8</ele>
        <time>2017-06-01T09:49:39.000Z</time>
      </trkpt>
      <trkpt lat="43.46064" lon="2.29062">
        <ele>1030.7</ele>
        <time>2017-06-01T09:49:40.000Z</time>
      </trkpt>
      <trkpt lat="43.46061" lon="2.29065">
        <ele>1030.6</ele>
        <time>2017-06-01T09:49:42.000Z</time>
      </trkpt>
      <trkpt lat="43.46067" lon="2.29059">
        <ele>1030.4</ele>
        <time>2017-06-01T09:49:44.000Z</time>
      </trkpt>
      <trkpt lat="43.46065" lon="2.29055">
        <ele>1030.3</ele>
        <time>2017-06-01T09:49:45.000Z</time>
      </trkpt>
      <trkpt lat="43.46059" lon="2.29048">
        <ele>1030.1</ele>
        <time>2017-06-01T09:49:47.000Z</time>
      </trkpt>
      <trkpt lat="43.46066" lon="2.29046">
        <ele>1029.7</ele>
        <time>2017-06-01T09:49:49.000Z</time>
      </trkpt>
      <trkpt lat="43.46064" lon="2.29041">
        <ele>1029.5</ele>
        <time>2017-06-01T09:49:50.000Z</time>
      </trkpt>
      <trkpt lat="43.46053" lon="2.29033">
        <ele>1028.4</ele>
        <time>2017-06-01T09:49:51.000Z</time>
      </trkpt>
      <trkpt lat="43.46049" lon="2.29026">
        <ele>1028.1</ele>
        <time>2017-06-01T09:49:53.000Z</time>
      </trkpt>
      <trkpt lat="43.46044" lon="2.29023">
        <ele>1028</ele>
        <time>2017-06-01T09:49:57.000Z</time>
      </trkpt>
      <trkpt lat="43.46043" lon="2.29018">
        <ele>1027.8</ele>
        <time>2017-06-01T09:49:59.000Z</time>
      </trkpt>
      <trkpt lat="43.46038" lon="2.29018">
        <ele>1027.1</ele>
        <time>2017-06-01T09:50:01.000Z</time>
      </trkpt>
      <trkpt lat="43.4604" lon="2.29012">
        <ele>1026.9</ele>
        <time>2017-06-01T09:50:02.000Z</time>
      </trkpt>
      <trkpt lat="43.46041" lon="2.29006">
        <ele>1026.7</ele>
        <time>2017-06-01T09:50:05.000Z</time>
      </trkpt>
      <trkpt lat="43.4604" lon="2.29002">
        <ele>1026.5</ele>
        <time>2017-06-01T09:50:07.000Z</time>
      </trkpt>
      <trkpt lat="43.46035" lon="2.29001">
        <ele>1026.3</ele>
        <time>2017-06-01T09:50:08.000Z</time>
      </trkpt>
      <trkpt lat="43.46037" lon="2.28994">
        <ele>1026.2</ele>
        <time>2017-06-01T09:50:09.000Z</time>
      </trkpt>
      <trkpt lat="43.46031" lon="2.28996">
        <ele>1026</ele>
        <time>2017-06-01T09:50:10.000Z</time>
      </trkpt>
      <trkpt lat="43.46042" lon="2.28993">
        <ele>1026</ele>
        <time>2017-06-01T09:50:11.000Z</time>
      </trkpt>
      <trkpt lat="43.46039" lon="2.28986">
        <ele>1025.9</ele>
        <time>2017-06-01T09:50:13.000Z</time>
      </trkpt>
      <trkpt lat="43.46037" lon="2.28982">
        <ele>1025.9</ele>
        <time>2017-06-01T09:50:14.000Z</time>
      </trkpt>
      <trkpt lat="43.4603" lon="2.28983">
        <ele>1025.9</ele>
        <time>2017-06-01T09:50:15.000Z</time>
      </trkpt>
      <trkpt lat="43.46024" lon="2.28984">
        <ele>1025.9</ele>
        <time>2017-06-01T09:50:16.000Z</time>
      </trkpt>
      <trkpt lat="43.4603" lon="2.28977">
        <ele>1025.9</ele>
        <time>2017-06-01T09:50:17.000Z</time>
      </trkpt>
      <trkpt lat="43.46027" lon="2.28974">
        <ele>1026</ele>
        <time>2017-06-01T09:50:19.000Z</time>
      </trkpt>
      <trkpt lat="43.46026" lon="2.28971">
        <ele>1026</ele>
        <time>2017-06-01T09:50:22.000Z</time>
      </trkpt>
      <trkpt lat="43.46025" lon="2.28967">
        <ele>1026</ele>
        <time>2017-06-01T09:50:25.000Z</time>
      </trkpt>
      <trkpt lat="43.46025" lon="2.28961">
        <ele>1026</ele>
        <time>2017-06-01T09:50:27.000Z</time>
      </trkpt>
      <trkpt lat="43.46022" lon="2.28957">
        <ele>1026</ele>
        <time>2017-06-01T09:50:29.000Z</time>
      </trkpt>
      <trkpt lat="43.46022" lon="2.28952">
        <ele>1026</ele>
        <time>2017-06-01T09:50:31.000Z</time>
      </trkpt>
      <trkpt lat="43.46022" lon="2.28946">
        <ele>1026</ele>
        <time>2017-06-01T09:50:32.000Z</time>
      </trkpt>
      <trkpt lat="43.4602" lon="2.28943">
        <ele>1026</ele>
        <time>2017-06-01T09:50:33.000Z</time>
      </trkpt>
      <trkpt lat="43.46025" lon="2.28939">
        <ele>1026</ele>
        <time>2017-06-01T09:50:35.000Z</time>
      </trkpt>
      <trkpt lat="43.4603" lon="2.28938">
        <ele>1025.7</ele>
        <time>2017-06-01T09:50:36.000Z</time>
      </trkpt>
      <trkpt lat="43.46037" lon="2.28934">
        <ele>1025.2</ele>
        <time>2017-06-01T09:50:37.000Z</time>
      </trkpt>
      <trkpt lat="43.46036" lon="2.28929">
        <ele>1025.7</ele>
        <time>2017-06-01T09:50:38.000Z</time>
      </trkpt>
      <trkpt lat="43.46046" lon="2.28927">
        <ele>1024.5</ele>
        <time>2017-06-01T09:50:39.000Z</time>
      </trkpt>
      <trkpt lat="43.46042" lon="2.2892">
        <ele>1025.5</ele>
        <time>2017-06-01T09:50:40.000Z</time>
      </trkpt>
      <trkpt lat="43.4603" lon="2.28923">
        <ele>1026</ele>
        <time>2017-06-01T09:50:41.000Z</time>
      </trkpt>
      <trkpt lat="43.46025" lon="2.2893">
        <ele>1026</ele>
        <time>2017-06-01T09:50:43.000Z</time>
      </trkpt>
      <trkpt lat="43.46023" lon="2.28933">
        <ele>1026</ele>
        <time>2017-06-01T09:50:44.000Z</time>
      </trkpt>
      <trkpt lat="43.46023" lon="2.28937">
        <ele>1026</ele>
        <time>2017-06-01T09:50:46.000Z</time>
      </trkpt>
      <trkpt lat="43.46021" lon="2.28942">
        <ele>1026</ele>
        <time>2017-06-01T09:50:48.000Z</time>
      </trkpt>
      <trkpt lat="43.46014" lon="2.28949">
        <ele>1026</ele>
        <time>2017-06-01T09:50:50.000Z</time>
      </trkpt>
      <trkpt lat="43.4601" lon="2.28953">
        <ele>1026</ele>
        <time>2017-06-01T09:50:51.000Z</time>
      </trkpt>
      <trkpt lat="43.46006" lon="2.28959">
        <ele>1026</ele>
        <time>2017-06-01T09:50:54.000Z</time>
      </trkpt>
      <trkpt lat="43.46004" lon="2.28962">
        <ele>1026</ele>
        <time>2017-06-01T09:50:55.000Z</time>
      </trkpt>
      <trkpt lat="43.46" lon="2.28966">
        <ele>1026</ele>
        <time>2017-06-01T09:50:56.000Z</time>
      </trkpt>
      <trkpt lat="43.46004" lon="2.28966">
        <ele>1026</ele>
        <time>2017-06-01T09:50:57.000Z</time>
      </trkpt>
      <trkpt lat="43.46005" lon="2.2897">
        <ele>1026</ele>
        <time>2017-06-01T09:51:00.000Z</time>
      </trkpt>
      <trkpt lat="43.46003" lon="2.28973">
        <ele>1026</ele>
        <time>2017-06-01T09:51:01.000Z</time>
      </trkpt>
      <trkpt lat="43.45999" lon="2.2898">
        <ele>1027.2</ele>
        <time>2017-06-01T09:51:02.000Z</time>
      </trkpt>
      <trkpt lat="43.45992" lon="2.28982">
        <ele>1028</ele>
        <time>2017-06-01T09:51:05.000Z</time>
      </trkpt>
      <trkpt lat="43.45989" lon="2.28981">
        <ele>1028.4</ele>
        <time>2017-06-01T09:51:06.000Z</time>
      </trkpt>
      <trkpt lat="43.45992" lon="2.28983">
        <ele>1028.2</ele>
        <time>2017-06-01T09:51:07.000Z</time>
      </trkpt>
      <trkpt lat="43.45987" lon="2.2899">
        <ele>1029.5</ele>
        <time>2017-06-01T09:51:08.000Z</time>
      </trkpt>
      <trkpt lat="43.45993" lon="2.28993">
        <ele>1029.7</ele>
        <time>2017-06-01T09:51:10.000Z</time>
      </trkpt>
      <trkpt lat="43.45989" lon="2.28994">
        <ele>1030.1</ele>
        <time>2017-06-01T09:51:11.000Z</time>
      </trkpt>
      <trkpt lat="43.45974" lon="2.28991">
        <ele>1030.7</ele>
        <time>2017-06-01T09:51:14.000Z</time>
      </trkpt>
      <trkpt lat="43.4597" lon="2.28997">
        <ele>1031.3</ele>
        <time>2017-06-01T09:51:15.000Z</time>
      </trkpt>
      <trkpt lat="43.4596" lon="2.28998">
        <ele>1031.3</ele>
        <time>2017-06-01T09:51:16.000Z</time>
      </trkpt>
      <trkpt lat="43.4596" lon="2.29005">
        <ele>1032.2</ele>
        <time>2017-06-01T09:51:18.000Z</time>
      </trkpt>
      <trkpt lat="43.45957" lon="2.29005">
        <ele>1032.2</ele>
        <time>2017-06-01T09:51:19.000Z</time>
      </trkpt>
      <trkpt lat="43.45956" lon="2.29009">
        <ele>1032.4</ele>
        <time>2017-06-01T09:51:20.000Z</time>
      </trkpt>
      <trkpt lat="43.45951" lon="2.29013">
        <ele>1032.8</ele>
        <time>2017-06-01T09:51:21.000Z</time>
      </trkpt>
      <trkpt lat="43.45952" lon="2.29019">
        <ele>1033.9</ele>
        <time>2017-06-01T09:51:22.000Z</time>
      </trkpt>
      <trkpt lat="43.45952" lon="2.29014">
        <ele>1033.6</ele>
        <time>2017-06-01T09:51:24.000Z</time>
      </trkpt>
      <trkpt lat="43.45951" lon="2.29019">
        <ele>1034.2</ele>
        <time>2017-06-01T09:51:25.000Z</time>
      </trkpt>
      <trkpt lat="43.45951" lon="2.29022">
        <ele>1034.8</ele>
        <time>2017-06-01T09:51:26.000Z</time>
      </trkpt>
      <trkpt lat="43.45954" lon="2.2903">
        <ele>1035.3</ele>
        <time>2017-06-01T09:51:28.000Z</time>
      </trkpt>
      <trkpt lat="43.45947" lon="2.29034">
        <ele>1035.4</ele>
        <time>2017-06-01T09:51:30.000Z</time>
      </trkpt>
      <trkpt lat="43.45948" lon="2.29038">
        <ele>1035.8</ele>
        <time>2017-06-01T09:51:31.000Z</time>
      </trkpt>
      <trkpt lat="43.4595" lon="2.29045">
        <ele>1036.3</ele>
        <time>2017-06-01T09:51:34.000Z</time>
      </trkpt>
      <trkpt lat="43.45953" lon="2.29046">
        <ele>1036.6</ele>
        <time>2017-06-01T09:51:35.000Z</time>
      </trkpt>
      <trkpt lat="43.45954" lon="2.29051">
        <ele>1036.8</ele>
        <time>2017-06-01T09:51:36.000Z</time>
      </trkpt>
      <trkpt lat="43.45955" lon="2.29057">
        <ele>1037</ele>
        <time>2017-06-01T09:51:37.000Z</time>
      </trkpt>
      <trkpt lat="43.45951" lon="2.29058">
        <ele>1037.1</ele>
        <time>2017-06-01T09:51:38.000Z</time>
      </trkpt>
      <trkpt lat="43.45954" lon="2.2906">
        <ele>1037.3</ele>
        <time>2017-06-01T09:51:39.000Z</time>
      </trkpt>
      <trkpt lat="43.45948" lon="2.29058">
        <ele>1037.3</ele>
        <time>2017-06-01T09:51:41.000Z</time>
      </trkpt>
      <trkpt lat="43.45947" lon="2.29062">
        <ele>1037.5</ele>
        <time>2017-06-01T09:51:42.000Z</time>
      </trkpt>
      <trkpt lat="43.45947" lon="2.29067">
        <ele>1037.8</ele>
        <time>2017-06-01T09:51:44.000Z</time>
      </trkpt>
      <trkpt lat="43.45948" lon="2.29074">
        <ele>1038.3</ele>
        <time>2017-06-01T09:51:45.000Z</time>
      </trkpt>
      <trkpt lat="43.45945" lon="2.29079">
        <ele>1038.6</ele>
        <time>2017-06-01T09:51:46.000Z</time>
      </trkpt>
      <trkpt lat="43.45938" lon="2.29083">
        <ele>1038.7</ele>
        <time>2017-06-01T09:51:47.000Z</time>
      </trkpt>
      <trkpt lat="43.4594" lon="2.29089">
        <ele>1039.1</ele>
        <time>2017-06-01T09:51:49.000Z</time>
      </trkpt>
      <trkpt lat="43.4594" lon="2.29093">
        <ele>1039.3</ele>
        <time>2017-06-01T09:51:51.000Z</time>
      </trkpt>
      <trkpt lat="43.45946" lon="2.29099">
        <ele>1039.8</ele>
        <time>2017-06-01T09:51:53.000Z</time>
      </trkpt>
      <trkpt lat="43.45939" lon="2.291">
        <ele>1039.9</ele>
        <time>2017-06-01T09:51:54.000Z</time>
      </trkpt>
      <trkpt lat="43.45941" lon="2.29105">
        <ele>1040.3</ele>
        <time>2017-06-01T09:51:58.000Z</time>
      </trkpt>
      <trkpt lat="43.4595" lon="2.2913">
        <ele>1041.6</ele>
        <time>2017-06-01T09:52:02.000Z</time>
      </trkpt>
      <trkpt lat="43.45945" lon="2.29128">
        <ele>1041.5</ele>
        <time>2017-06-01T09:52:03.000Z</time>
      </trkpt>
      <trkpt lat="43.45945" lon="2.29141">
        <ele>1042</ele>
        <time>2017-06-01T09:52:05.000Z</time>
      </trkpt>
      <trkpt lat="43.45947" lon="2.2914">
        <ele>1042.2</ele>
        <time>2017-06-01T09:52:08.000Z</time>
      </trkpt>
      <trkpt lat="43.45948" lon="2.29135">
        <ele>1042.3</ele>
        <time>2017-06-01T09:52:09.000Z</time>
      </trkpt>
      <trkpt lat="43.45946" lon="2.29138">
        <ele>1042.5</ele>
        <time>2017-06-01T09:52:10.000Z</time>
      </trkpt>
      <trkpt lat="43.45948" lon="2.29142">
        <ele>1042.7</ele>
        <time>2017-06-01T09:52:13.000Z</time>
      </trkpt>
      <trkpt lat="43.45944" lon="2.29148">
        <ele>1042.8</ele>
        <time>2017-06-01T09:52:16.000Z</time>
      </trkpt>
      <trkpt lat="43.45943" lon="2.29154">
        <ele>1042.9</ele>
        <time>2017-06-01T09:52:18.000Z</time>
      </trkpt>
      <trkpt lat="43.45933" lon="2.29157">
        <ele>1042.9</ele>
        <time>2017-06-01T09:52:19.000Z</time>
      </trkpt>
      <trkpt lat="43.45932" lon="2.2916">
        <ele>1043.1</ele>
        <time>2017-06-01T09:52:21.000Z</time>
      </trkpt>
      <trkpt lat="43.45934" lon="2.29163">
        <ele>1043.3</ele>
        <time>2017-06-01T09:52:22.000Z</time>
      </trkpt>
      <trkpt lat="43.45938" lon="2.29177">
        <ele>1043.5</ele>
        <time>2017-06-01T09:52:23.000Z</time>
      </trkpt>
      <trkpt lat="43.45938" lon="2.29184">
        <ele>1043.6</ele>
        <time>2017-06-01T09:52:24.000Z</time>
      </trkpt>
      <trkpt lat="43.45942" lon="2.29188">
        <ele>1043.7</ele>
        <time>2017-06-01T09:52:26.000Z</time>
      </trkpt>
      <trkpt lat="43.45946" lon="2.292">
        <ele>1043.8</ele>
        <time>2017-06-01T09:52:27.000Z</time>
      </trkpt>
      <trkpt lat="43.4594" lon="2.29201">
        <ele>1044.2</ele>
        <time>2017-06-01T09:52:28.000Z</time>
      </trkpt>
      <trkpt lat="43.45939" lon="2.29205">
        <ele>1044.4</ele>
        <time>2017-06-01T09:52:29.000Z</time>
      </trkpt>
      <trkpt lat="43.45934" lon="2.29203">
        <ele>1044.7</ele>
        <time>2017-06-01T09:52:30.000Z</time>
      </trkpt>
      <trkpt lat="43.45933" lon="2.29207">
        <ele>1045.1</ele>
        <time>2017-06-01T09:52:31.000Z</time>
      </trkpt>
      <trkpt lat="43.45932" lon="2.29216">
        <ele>1045.4</ele>
        <time>2017-06-01T09:52:32.000Z</time>
      </trkpt>
      <trkpt lat="43.4594" lon="2.29229">
        <ele>1045.1</ele>
        <time>2017-06-01T09:52:33.000Z</time>
      </trkpt>
      <trkpt lat="43.45932" lon="2.29224">
        <ele>1045.9</ele>
        <time>2017-06-01T09:52:34.000Z</time>
      </trkpt>
      <trkpt lat="43.45933" lon="2.29219">
        <ele>1045.9</ele>
        <time>2017-06-01T09:52:35.000Z</time>
      </trkpt>
      <trkpt lat="43.45931" lon="2.29221">
        <ele>1046.1</ele>
        <time>2017-06-01T09:52:36.000Z</time>
      </trkpt>
      <trkpt lat="43.45929" lon="2.29218">
        <ele>1046.4</ele>
        <time>2017-06-01T09:52:41.000Z</time>
      </trkpt>
      <trkpt lat="43.45927" lon="2.29221">
        <ele>1046.9</ele>
        <time>2017-06-01T09:52:42.000Z</time>
      </trkpt>
      <trkpt lat="43.45924" lon="2.29218">
        <ele>1046.9</ele>
        <time>2017-06-01T09:52:45.000Z</time>
      </trkpt>
      <trkpt lat="43.4592" lon="2.29216">
        <ele>1047.5</ele>
        <time>2017-06-01T09:52:49.000Z</time>
      </trkpt>
      <trkpt lat="43.45917" lon="2.29217">
        <ele>1047.8</ele>
        <time>2017-06-01T09:52:53.000Z</time>
      </trkpt>
      <trkpt lat="43.45919" lon="2.29214">
        <ele>1047.6</ele>
        <time>2017-06-01T09:52:54.000Z</time>
      </trkpt>
      <trkpt lat="43.45916" lon="2.29212">
        <ele>1047.9</ele>
        <time>2017-06-01T09:52:57.000Z</time>
      </trkpt>
      <trkpt lat="43.45919" lon="2.29216">
        <ele>1048</ele>
        <time>2017-06-01T09:52:58.000Z</time>
      </trkpt>
      <trkpt lat="43.45917" lon="2.29214">
        <ele>1048.2</ele>
        <time>2017-06-01T09:52:59.000Z</time>
      </trkpt>
      <trkpt lat="43.45917" lon="2.29211">
        <ele>1048.3</ele>
        <time>2017-06-01T09:53:01.000Z</time>
      </trkpt>
      <trkpt lat="43.4592" lon="2.2921">
        <ele>1048.2</ele>
        <time>2017-06-01T10:03:59.000Z</time>
      </trkpt>
      <trkpt lat="43.45923" lon="2.29209">
        <ele>1048.1</ele>
        <time>2017-06-01T10:04:00.000Z</time>
      </trkpt>
      <trkpt lat="43.45931" lon="2.29203">
        <ele>1047.6</ele>
        <time>2017-06-01T10:04:01.000Z</time>
      </trkpt>
      <trkpt lat="43.45931" lon="2.29194">
        <ele>1047.5</ele>
        <time>2017-06-01T10:04:02.000Z</time>
      </trkpt>
      <trkpt lat="43.45948" lon="2.2919">
        <ele>1047.2</ele>
        <time>2017-06-01T10:04:03.000Z</time>
      </trkpt>
      <trkpt lat="43.45954" lon="2.29191">
        <ele>1047.1</ele>
        <time>2017-06-01T10:04:04.000Z</time>
      </trkpt>
      <trkpt lat="43.45977" lon="2.29158">
        <ele>1046.4</ele>
        <time>2017-06-01T10:04:09.000Z</time>
      </trkpt>
      <trkpt lat="43.45981" lon="2.29154">
        <ele>1045.8</ele>
        <time>2017-06-01T10:04:10.000Z</time>
      </trkpt>
      <trkpt lat="43.45989" lon="2.29152">
        <ele>1044.8</ele>
        <time>2017-06-01T10:04:11.000Z</time>
      </trkpt>
      <trkpt lat="43.45993" lon="2.29149">
        <ele>1043.8</ele>
        <time>2017-06-01T10:04:12.000Z</time>
      </trkpt>
      <trkpt lat="43.45994" lon="2.29153">
        <ele>1043.9</ele>
        <time>2017-06-01T10:04:13.000Z</time>
      </trkpt>
      <trkpt lat="43.4601" lon="2.2914">
        <ele>1041.3</ele>
        <time>2017-06-01T10:04:15.000Z</time>
      </trkpt>
      <trkpt lat="43.46055" lon="2.29085">
        <ele>1031</ele>
        <time>2017-06-01T10:04:26.000Z</time>
      </trkpt>
      <trkpt lat="43.46062" lon="2.29078">
        <ele>1031</ele>
        <time>2017-06-01T10:04:27.000Z</time>
      </trkpt>
      <trkpt lat="43.46065" lon="2.29075">
        <ele>1031</ele>
        <time>2017-06-01T10:04:28.000Z</time>
      </trkpt>
      <trkpt lat="43.46069" lon="2.29071">
        <ele>1030.8</ele>
        <time>2017-06-01T10:04:29.000Z</time>
      </trkpt>
      <trkpt lat="43.46073" lon="2.29069">
        <ele>1030</ele>
        <time>2017-06-01T10:04:30.000Z</time>
      </trkpt>
      <trkpt lat="43.46077" lon="2.2907">
        <ele>1029.5</ele>
        <time>2017-06-01T10:04:31.000Z</time>
      </trkpt>
      <trkpt lat="43.46082" lon="2.29069">
        <ele>1028.6</ele>
        <time>2017-06-01T10:04:32.000Z</time>
      </trkpt>
      <trkpt lat="43.46087" lon="2.29067">
        <ele>1027.9</ele>
        <time>2017-06-01T10:04:33.000Z</time>
      </trkpt>
      <trkpt lat="43.46092" lon="2.29063">
        <ele>1027.1</ele>
        <time>2017-06-01T10:04:34.000Z</time>
      </trkpt>
      <trkpt lat="43.46095" lon="2.29062">
        <ele>1026.7</ele>
        <time>2017-06-01T10:04:35.000Z</time>
      </trkpt>
      <trkpt lat="43.46098" lon="2.2906">
        <ele>1026.4</ele>
        <time>2017-06-01T10:04:36.000Z</time>
      </trkpt>
      <trkpt lat="43.46101" lon="2.29061">
        <ele>1025.8</ele>
        <time>2017-06-01T10:04:37.000Z</time>
      </trkpt>
      <trkpt lat="43.46107" lon="2.29059">
        <ele>1024.7</ele>
        <time>2017-06-01T10:04:39.000Z</time>
      </trkpt>
      <trkpt lat="43.46116" lon="2.29058">
        <ele>1023.1</ele>
        <time>2017-06-01T10:04:41.000Z</time>
      </trkpt>
      <trkpt lat="43.46128" lon="2.29067">
        <ele>1021.1</ele>
        <time>2017-06-01T10:04:42.000Z</time>
      </trkpt>
      <trkpt lat="43.46134" lon="2.29063">
        <ele>1019.7</ele>
        <time>2017-06-01T10:04:43.000Z</time>
      </trkpt>
      <trkpt lat="43.46141" lon="2.29051">
        <ele>1017.1</ele>
        <time>2017-06-01T10:04:44.000Z</time>
      </trkpt>
      <trkpt lat="43.46147" lon="2.2905">
        <ele>1015.7</ele>
        <time>2017-06-01T10:04:45.000Z</time>
      </trkpt>
      <trkpt lat="43.46163" lon="2.2905">
        <ele>1012.5</ele>
        <time>2017-06-01T10:04:46.000Z</time>
      </trkpt>
      <trkpt lat="43.4617" lon="2.29055">
        <ele>1010.5</ele>
        <time>2017-06-01T10:04:47.000Z</time>
      </trkpt>
      <trkpt lat="43.46174" lon="2.29052">
        <ele>1009.5</ele>
        <time>2017-06-01T10:04:48.000Z</time>
      </trkpt>
      <trkpt lat="43.4618" lon="2.29055">
        <ele>1008.1</ele>
        <time>2017-06-01T10:04:49.000Z</time>
      </trkpt>
      <trkpt lat="43.46182" lon="2.29061">
        <ele>1007.1</ele>
        <time>2017-06-01T10:04:50.000Z</time>
      </trkpt>
      <trkpt lat="43.46185" lon="2.29065">
        <ele>1006.3</ele>
        <time>2017-06-01T10:04:51.000Z</time>
      </trkpt>
      <trkpt lat="43.4619" lon="2.29066">
        <ele>1005.5</ele>
        <time>2017-06-01T10:04:52.000Z</time>
      </trkpt>
      <trkpt lat="43.46198" lon="2.29076">
        <ele>1003.2</ele>
        <time>2017-06-01T10:04:53.000Z</time>
      </trkpt>
      <trkpt lat="43.46231" lon="2.29079">
        <ele>996.1</ele>
        <time>2017-06-01T10:04:58.000Z</time>
      </trkpt>
      <trkpt lat="43.46229" lon="2.2907">
        <ele>994.8</ele>
        <time>2017-06-01T10:04:59.000Z</time>
      </trkpt>
      <trkpt lat="43.46232" lon="2.29072">
        <ele>994.2</ele>
        <time>2017-06-01T10:05:00.000Z</time>
      </trkpt>
      <trkpt lat="43.46243" lon="2.2907">
        <ele>991.8</ele>
        <time>2017-06-01T10:05:01.000Z</time>
      </trkpt>
      <trkpt lat="43.46247" lon="2.29068">
        <ele>990.6</ele>
        <time>2017-06-01T10:05:02.000Z</time>
      </trkpt>
      <trkpt lat="43.46254" lon="2.29064">
        <ele>988.6</ele>
        <time>2017-06-01T10:05:03.000Z</time>
      </trkpt>
      <trkpt lat="43.46258" lon="2.29067">
        <ele>987.4</ele>
        <time>2017-06-01T10:05:04.000Z</time>
      </trkpt>
      <trkpt lat="43.46258" lon="2.29082">
        <ele>985.1</ele>
        <time>2017-06-01T10:05:05.000Z</time>
      </trkpt>
      <trkpt lat="43.46263" lon="2.29087">
        <ele>983.9</ele>
        <time>2017-06-01T10:05:06.000Z</time>
      </trkpt>
      <trkpt lat="43.46275" lon="2.29082">
        <ele>981.2</ele>
        <time>2017-06-01T10:05:07.000Z</time>
      </trkpt>
      <trkpt lat="43.46277" lon="2.29079">
        <ele>980.6</ele>
        <time>2017-06-01T10:05:08.000Z</time>
      </trkpt>
      <trkpt lat="43.46283" lon="2.29074">
        <ele>979</ele>
        <time>2017-06-01T10:05:09.000Z</time>
      </trkpt>
      <trkpt lat="43.46287" lon="2.29069">
        <ele>978</ele>
        <time>2017-06-01T10:05:10.000Z</time>
      </trkpt>
      <trkpt lat="43.4629" lon="2.29066">
        <ele>977.2</ele>
        <time>2017-06-01T10:05:11.000Z</time>
      </trkpt>
      <trkpt lat="43.46297" lon="2.29061">
        <ele>975.1</ele>
        <time>2017-06-01T10:05:12.000Z</time>
      </trkpt>
      <trkpt lat="43.46302" lon="2.29056">
        <ele>973.7</ele>
        <time>2017-06-01T10:05:13.000Z</time>
      </trkpt>
      <trkpt lat="43.46301" lon="2.29063">
        <ele>972.4</ele>
        <time>2017-06-01T10:05:14.000Z</time>
      </trkpt>
      <trkpt lat="43.46306" lon="2.29062">
        <ele>971.2</ele>
        <time>2017-06-01T10:05:15.000Z</time>
      </trkpt>
      <trkpt lat="43.46306" lon="2.29055">
        <ele>967.2</ele>
        <time>2017-06-01T10:05:16.000Z</time>
      </trkpt>
      <trkpt lat="43.46308" lon="2.29049">
        <ele>967.4</ele>
        <time>2017-06-01T10:05:17.000Z</time>
      </trkpt>
      <trkpt lat="43.46309" lon="2.29043">
        <ele>967.6</ele>
        <time>2017-06-01T10:05:18.000Z</time>
      </trkpt>
      <trkpt lat="43.46309" lon="2.29038">
        <ele>967.8</ele>
        <time>2017-06-01T10:05:19.000Z</time>
      </trkpt>
      <trkpt lat="43.46311" lon="2.29033">
        <ele>968</ele>
        <time>2017-06-01T10:05:20.000Z</time>
      </trkpt>
      <trkpt lat="43.46312" lon="2.29028">
        <ele>968.1</ele>
        <time>2017-06-01T10:05:21.000Z</time>
      </trkpt>
      <trkpt lat="43.46318" lon="2.29022">
        <ele>965.2</ele>
        <time>2017-06-01T10:05:22.000Z</time>
      </trkpt>
      <trkpt lat="43.46321" lon="2.29017">
        <ele>962.3</ele>
        <time>2017-06-01T10:05:23.000Z</time>
      </trkpt>
      <trkpt lat="43.46329" lon="2.29014">
        <ele>959.9</ele>
        <time>2017-06-01T10:05:24.000Z</time>
      </trkpt>
      <trkpt lat="43.46355" lon="2.29016">
        <ele>950.8</ele>
        <time>2017-06-01T10:05:26.000Z</time>
      </trkpt>
      <trkpt lat="43.46369" lon="2.29015">
        <ele>947.4</ele>
        <time>2017-06-01T10:05:27.000Z</time>
      </trkpt>
      <trkpt lat="43.4638" lon="2.29011">
        <ele>944.9</ele>
        <time>2017-06-01T10:05:28.000Z</time>
      </trkpt>
      <trkpt lat="43.46382" lon="2.29005">
        <ele>943.9</ele>
        <time>2017-06-01T10:05:29.000Z</time>
      </trkpt>
      <trkpt lat="43.4639" lon="2.28995">
        <ele>941.2</ele>
        <time>2017-06-01T10:05:31.000Z</time>
      </trkpt>
      <trkpt lat="43.46393" lon="2.28992">
        <ele>940.1</ele>
        <time>2017-06-01T10:05:32.000Z</time>
      </trkpt>
      <trkpt lat="43.46396" lon="2.28983">
        <ele>938.2</ele>
        <time>2017-06-01T10:05:33.000Z</time>
      </trkpt>
      <trkpt lat="43.46398" lon="2.28979">
        <ele>937.2</ele>
        <time>2017-06-01T10:05:34.000Z</time>
      </trkpt>
      <trkpt lat="43.46399" lon="2.28964">
        <ele>934</ele>
        <time>2017-06-01T10:05:35.000Z</time>
      </trkpt>
      <trkpt lat="43.46398" lon="2.2896">
        <ele>933.1</ele>
        <time>2017-06-01T10:05:36.000Z</time>
      </trkpt>
      <trkpt lat="43.46396" lon="2.28953">
        <ele>931.9</ele>
        <time>2017-06-01T10:05:37.000Z</time>
      </trkpt>
      <trkpt lat="43.46403" lon="2.28945">
        <ele>930.1</ele>
        <time>2017-06-01T10:05:38.000Z</time>
      </trkpt>
      <trkpt lat="43.46407" lon="2.28937">
        <ele>928.4</ele>
        <time>2017-06-01T10:05:39.000Z</time>
      </trkpt>
      <trkpt lat="43.46402" lon="2.28924">
        <ele>925.3</ele>
        <time>2017-06-01T10:05:41.000Z</time>
      </trkpt>
      <trkpt lat="43.46398" lon="2.28928">
        <ele>923.7</ele>
        <time>2017-06-01T10:05:43.000Z</time>
      </trkpt>
      <trkpt lat="43.46405" lon="2.28929">
        <ele>921.9</ele>
        <time>2017-06-01T10:05:44.000Z</time>
      </trkpt>
      <trkpt lat="43.46419" lon="2.28929">
        <ele>918.8</ele>
        <time>2017-06-01T10:05:45.000Z</time>
      </trkpt>
      <trkpt lat="43.46429" lon="2.28933">
        <ele>916.3</ele>
        <time>2017-06-01T10:05:47.000Z</time>
      </trkpt>
      <trkpt lat="43.46446" lon="2.28945">
        <ele>913</ele>
        <time>2017-06-01T10:05:48.000Z</time>
      </trkpt>
      <trkpt lat="43.46453" lon="2.28951">
        <ele>912.5</ele>
        <time>2017-06-01T10:05:49.000Z</time>
      </trkpt>
      <trkpt lat="43.46456" lon="2.28954">
        <ele>912.3</ele>
        <time>2017-06-01T10:05:50.000Z</time>
      </trkpt>
      <trkpt lat="43.46462" lon="2.28957">
        <ele>912</ele>
        <time>2017-06-01T10:05:51.000Z</time>
      </trkpt>
      <trkpt lat="43.46467" lon="2.28959">
        <ele>911.7</ele>
        <time>2017-06-01T10:05:52.000Z</time>
      </trkpt>
      <trkpt lat="43.46471" lon="2.2896">
        <ele>911.5</ele>
        <time>2017-06-01T10:05:53.000Z</time>
      </trkpt>
      <trkpt lat="43.46474" lon="2.28962">
        <ele>911.2</ele>
        <time>2017-06-01T10:05:54.000Z</time>
      </trkpt>
      <trkpt lat="43.46471" lon="2.2897">
        <ele>910.8</ele>
        <time>2017-06-01T10:05:55.000Z</time>
      </trkpt>
      <trkpt lat="43.46468" lon="2.28977">
        <ele>910.4</ele>
        <time>2017-06-01T10:05:57.000Z</time>
      </trkpt>
      <trkpt lat="43.46472" lon="2.28982">
        <ele>910.1</ele>
        <time>2017-06-01T10:05:59.000Z</time>
      </trkpt>
      <trkpt lat="43.4647" lon="2.28988">
        <ele>909.8</ele>
        <time>2017-06-01T10:06:00.000Z</time>
      </trkpt>
      <trkpt lat="43.46468" lon="2.28993">
        <ele>909.6</ele>
        <time>2017-06-01T10:06:01.000Z</time>
      </trkpt>
      <trkpt lat="43.46472" lon="2.29003">
        <ele>909.1</ele>
        <time>2017-06-01T10:06:02.000Z</time>
      </trkpt>
      <trkpt lat="43.46475" lon="2.2901">
        <ele>908.3</ele>
        <time>2017-06-01T10:06:03.000Z</time>
      </trkpt>
      <trkpt lat="43.46479" lon="2.29015">
        <ele>907.8</ele>
        <time>2017-06-01T10:06:04.000Z</time>
      </trkpt>
      <trkpt lat="43.46479" lon="2.2902">
        <ele>907.4</ele>
        <time>2017-06-01T10:06:05.000Z</time>
      </trkpt>
      <trkpt lat="43.46483" lon="2.29026">
        <ele>906.9</ele>
        <time>2017-06-01T10:06:06.000Z</time>
      </trkpt>
      <trkpt lat="43.46489" lon="2.29035">
        <ele>906.1</ele>
        <time>2017-06-01T10:06:07.000Z</time>
      </trkpt>
      <trkpt lat="43.46498" lon="2.29048">
        <ele>902</ele>
        <time>2017-06-01T10:06:08.000Z</time>
      </trkpt>
      <trkpt lat="43.46493" lon="2.29043">
        <ele>899.7</ele>
        <time>2017-06-01T10:06:09.000Z</time>
      </trkpt>
      <trkpt lat="43.46496" lon="2.29049">
        <ele>898</ele>
        <time>2017-06-01T10:06:10.000Z</time>
      </trkpt>
      <trkpt lat="43.4651" lon="2.29061">
        <ele>892.6</ele>
        <time>2017-06-01T10:06:12.000Z</time>
      </trkpt>
      <trkpt lat="43.46519" lon="2.29067">
        <ele>889.4</ele>
        <time>2017-06-01T10:06:13.000Z</time>
      </trkpt>
      <trkpt lat="43.46524" lon="2.29071">
        <ele>888.9</ele>
        <time>2017-06-01T10:06:14.000Z</time>
      </trkpt>
      <trkpt lat="43.46528" lon="2.29077">
        <ele>888.4</ele>
        <time>2017-06-01T10:06:15.000Z</time>
      </trkpt>
      <trkpt lat="43.46529" lon="2.29082">
        <ele>888</ele>
        <time>2017-06-01T10:06:16.000Z</time>
      </trkpt>
      <trkpt lat="43.46534" lon="2.29092">
        <ele>887.6</ele>
        <time>2017-06-01T10:06:18.000Z</time>
      </trkpt>
      <trkpt lat="43.46541" lon="2.29097">
        <ele>887.2</ele>
        <time>2017-06-01T10:06:19.000Z</time>
      </trkpt>
      <trkpt lat="43.46547" lon="2.29105">
        <ele>886.8</ele>
        <time>2017-06-01T10:06:20.000Z</time>
      </trkpt>
      <trkpt lat="43.46552" lon="2.29113">
        <ele>886.6</ele>
        <time>2017-06-01T10:06:21.000Z</time>
      </trkpt>
      <trkpt lat="43.46554" lon="2.29115">
        <ele>886.6</ele>
        <time>2017-06-01T10:06:22.000Z</time>
      </trkpt>
      <trkpt lat="43.46561" lon="2.29118">
        <ele>886.4</ele>
        <time>2017-06-01T10:06:23.000Z</time>
      </trkpt>
      <trkpt lat="43.46568" lon="2.29123">
        <ele>886.3</ele>
        <time>2017-06-01T10:06:24.000Z</time>
      </trkpt>
      <trkpt lat="43.46572" lon="2.29129">
        <ele>886.2</ele>
        <time>2017-06-01T10:06:25.000Z</time>
      </trkpt>
      <trkpt lat="43.46576" lon="2.29135">
        <ele>886.1</ele>
        <time>2017-06-01T10:06:26.000Z</time>
      </trkpt>
      <trkpt lat="43.4658" lon="2.29141">
        <ele>885.8</ele>
        <time>2017-06-01T10:06:27.000Z</time>
      </trkpt>
      <trkpt lat="43.46585" lon="2.29147">
        <ele>885.5</ele>
        <time>2017-06-01T10:06:28.000Z</time>
      </trkpt>
      <trkpt lat="43.4659" lon="2.29151">
        <ele>885.2</ele>
        <time>2017-06-01T10:06:29.000Z</time>
      </trkpt>
      <trkpt lat="43.46602" lon="2.29152">
        <ele>884.4</ele>
        <time>2017-06-01T10:06:30.000Z</time>
      </trkpt>
      <trkpt lat="43.46615" lon="2.29156">
        <ele>883.2</ele>
        <time>2017-06-01T10:06:31.000Z</time>
      </trkpt>
      <trkpt lat="43.46629" lon="2.29157">
        <ele>881.3</ele>
        <time>2017-06-01T10:06:32.000Z</time>
      </trkpt>
      <trkpt lat="43.46632" lon="2.29158">
        <ele>881</ele>
        <time>2017-06-01T10:06:33.000Z</time>
      </trkpt>
      <trkpt lat="43.46641" lon="2.29158">
        <ele>880.1</ele>
        <time>2017-06-01T10:06:34.000Z</time>
      </trkpt>
      <trkpt lat="43.46646" lon="2.29159">
        <ele>879.6</ele>
        <time>2017-06-01T10:06:35.000Z</time>
      </trkpt>
      <trkpt lat="43.46653" lon="2.29161">
        <ele>878.6</ele>
        <time>2017-06-01T10:06:36.000Z</time>
      </trkpt>
      <trkpt lat="43.46663" lon="2.29164">
        <ele>877.4</ele>
        <time>2017-06-01T10:06:38.000Z</time>
      </trkpt>
      <trkpt lat="43.46673" lon="2.29167">
        <ele>876.3</ele>
        <time>2017-06-01T10:06:39.000Z</time>
      </trkpt>
      <trkpt lat="43.4668" lon="2.29169">
        <ele>875.5</ele>
        <time>2017-06-01T10:06:40.000Z</time>
      </trkpt>
      <trkpt lat="43.46683" lon="2.29173">
        <ele>875.1</ele>
        <time>2017-06-01T10:06:41.000Z</time>
      </trkpt>
      <trkpt lat="43.46688" lon="2.29177">
        <ele>874.5</ele>
        <time>2017-06-01T10:06:42.000Z</time>
      </trkpt>
      <trkpt lat="43.46694" lon="2.29183">
        <ele>873.9</ele>
        <time>2017-06-01T10:06:43.000Z</time>
      </trkpt>
      <trkpt lat="43.46712" lon="2.29188">
        <ele>872.4</ele>
        <time>2017-06-01T10:06:44.000Z</time>
      </trkpt>
      <trkpt lat="43.46713" lon="2.29197">
        <ele>871.9</ele>
        <time>2017-06-01T10:06:45.000Z</time>
      </trkpt>
      <trkpt lat="43.46705" lon="2.29217">
        <ele>870.7</ele>
        <time>2017-06-01T10:06:46.000Z</time>
      </trkpt>
      <trkpt lat="43.4671" lon="2.29225">
        <ele>870.4</ele>
        <time>2017-06-01T10:06:47.000Z</time>
      </trkpt>
      <trkpt lat="43.46713" lon="2.29237">
        <ele>870</ele>
        <time>2017-06-01T10:06:48.000Z</time>
      </trkpt>
      <trkpt lat="43.46709" lon="2.29246">
        <ele>869.7</ele>
        <time>2017-06-01T10:06:49.000Z</time>
      </trkpt>
      <trkpt lat="43.46705" lon="2.29251">
        <ele>869.5</ele>
        <time>2017-06-01T10:06:50.000Z</time>
      </trkpt>
      <trkpt lat="43.46706" lon="2.29257">
        <ele>869.4</ele>
        <time>2017-06-01T10:06:51.000Z</time>
      </trkpt>
      <trkpt lat="43.46703" lon="2.29269">
        <ele>869.2</ele>
        <time>2017-06-01T10:06:52.000Z</time>
      </trkpt>
      <trkpt lat="43.46703" lon="2.29277">
        <ele>869.1</ele>
        <time>2017-06-01T10:06:53.000Z</time>
      </trkpt>
      <trkpt lat="43.46699" lon="2.29288">
        <ele>869</ele>
        <time>2017-06-01T10:06:54.000Z</time>
      </trkpt>
      <trkpt lat="43.46703" lon="2.29295">
        <ele>869</ele>
        <time>2017-06-01T10:06:55.000Z</time>
      </trkpt>
      <trkpt lat="43.46708" lon="2.29303">
        <ele>868.1</ele>
        <time>2017-06-01T10:06:56.000Z</time>
      </trkpt>
      <trkpt lat="43.4671" lon="2.29307">
        <ele>867.7</ele>
        <time>2017-06-01T10:06:57.000Z</time>
      </trkpt>
      <trkpt lat="43.46709" lon="2.29312">
        <ele>867.3</ele>
        <time>2017-06-01T10:06:58.000Z</time>
      </trkpt>
      <trkpt lat="43.46709" lon="2.29319">
        <ele>866.7</ele>
        <time>2017-06-01T10:06:59.000Z</time>
      </trkpt>
      <trkpt lat="43.46714" lon="2.29325">
        <ele>865.7</ele>
        <time>2017-06-01T10:07:01.000Z</time>
      </trkpt>
      <trkpt lat="43.46723" lon="2.29328">
        <ele>864.6</ele>
        <time>2017-06-01T10:07:02.000Z</time>
      </trkpt>
      <trkpt lat="43.46726" lon="2.29335">
        <ele>863.8</ele>
        <time>2017-06-01T10:07:04.000Z</time>
      </trkpt>
      <trkpt lat="43.46728" lon="2.29343">
        <ele>863</ele>
        <time>2017-06-01T10:07:05.000Z</time>
      </trkpt>
      <trkpt lat="43.46727" lon="2.2935">
        <ele>862.2</ele>
        <time>2017-06-01T10:07:06.000Z</time>
      </trkpt>
      <trkpt lat="43.46725" lon="2.29361">
        <ele>861.1</ele>
        <time>2017-06-01T10:07:07.000Z</time>
      </trkpt>
      <trkpt lat="43.46719" lon="2.29373">
        <ele>860.1</ele>
        <time>2017-06-01T10:07:08.000Z</time>
      </trkpt>
      <trkpt lat="43.46717" lon="2.29383">
        <ele>858.7</ele>
        <time>2017-06-01T10:07:09.000Z</time>
      </trkpt>
      <trkpt lat="43.46724" lon="2.29396">
        <ele>855.6</ele>
        <time>2017-06-01T10:07:10.000Z</time>
      </trkpt>
      <trkpt lat="43.46733" lon="2.29404">
        <ele>853.1</ele>
        <time>2017-06-01T10:07:11.000Z</time>
      </trkpt>
      <trkpt lat="43.46741" lon="2.29398">
        <ele>851.3</ele>
        <time>2017-06-01T10:07:12.000Z</time>
      </trkpt>
      <trkpt lat="43.46744" lon="2.294">
        <ele>849.8</ele>
        <time>2017-06-01T10:07:13.000Z</time>
      </trkpt>
      <trkpt lat="43.46748" lon="2.29401">
        <ele>848.6</ele>
        <time>2017-06-01T10:07:14.000Z</time>
      </trkpt>
      <trkpt lat="43.4675" lon="2.2941">
        <ele>849</ele>
        <time>2017-06-01T10:07:15.000Z</time>
      </trkpt>
      <trkpt lat="43.46746" lon="2.29415">
        <ele>849.4</ele>
        <time>2017-06-01T10:07:16.000Z</time>
      </trkpt>
      <trkpt lat="43.46752" lon="2.29423">
        <ele>850.9</ele>
        <time>2017-06-01T10:07:18.000Z</time>
      </trkpt>
      <trkpt lat="43.46755" lon="2.29427">
        <ele>850.6</ele>
        <time>2017-06-01T10:07:19.000Z</time>
      </trkpt>
      <trkpt lat="43.46758" lon="2.29431">
        <ele>850.4</ele>
        <time>2017-06-01T10:07:20.000Z</time>
      </trkpt>
      <trkpt lat="43.46758" lon="2.29436">
        <ele>850.3</ele>
        <time>2017-06-01T10:07:21.000Z</time>
      </trkpt>
      <trkpt lat="43.46762" lon="2.29439">
        <ele>850.1</ele>
        <time>2017-06-01T10:07:22.000Z</time>
      </trkpt>
      <trkpt lat="43.46767" lon="2.29441">
        <ele>850</ele>
        <time>2017-06-01T10:07:23.000Z</time>
      </trkpt>
      <trkpt lat="43.46776" lon="2.29443">
        <ele>849.7</ele>
        <time>2017-06-01T10:07:24.000Z</time>
      </trkpt>
      <trkpt lat="43.46783" lon="2.2944">
        <ele>849.4</ele>
        <time>2017-06-01T10:07:25.000Z</time>
      </trkpt>
      <trkpt lat="43.46789" lon="2.2944">
        <ele>849.2</ele>
        <time>2017-06-01T10:07:26.000Z</time>
      </trkpt>
      <trkpt lat="43.46793" lon="2.2944">
        <ele>849.1</ele>
        <time>2017-06-01T10:07:27.000Z</time>
      </trkpt>
      <trkpt lat="43.46798" lon="2.29445">
        <ele>849</ele>
        <time>2017-06-01T10:07:28.000Z</time>
      </trkpt>
      <trkpt lat="43.46803" lon="2.29442">
        <ele>848.9</ele>
        <time>2017-06-01T10:07:29.000Z</time>
      </trkpt>
      <trkpt lat="43.4681" lon="2.29444">
        <ele>848.2</ele>
        <time>2017-06-01T10:07:30.000Z</time>
      </trkpt>
      <trkpt lat="43.46815" lon="2.29445">
        <ele>847.7</ele>
        <time>2017-06-01T10:07:31.000Z</time>
      </trkpt>
      <trkpt lat="43.46818" lon="2.29443">
        <ele>847.3</ele>
        <time>2017-06-01T10:07:32.000Z</time>
      </trkpt>
      <trkpt lat="43.46829" lon="2.2944">
        <ele>846.9</ele>
        <time>2017-06-01T10:07:33.000Z</time>
      </trkpt>
      <trkpt lat="43.46836" lon="2.29436">
        <ele>846.4</ele>
        <time>2017-06-01T10:07:34.000Z</time>
      </trkpt>
      <trkpt lat="43.46843" lon="2.29435">
        <ele>846</ele>
        <time>2017-06-01T10:07:35.000Z</time>
      </trkpt>
      <trkpt lat="43.46848" lon="2.29432">
        <ele>845.5</ele>
        <time>2017-06-01T10:07:36.000Z</time>
      </trkpt>
      <trkpt lat="43.4685" lon="2.29429">
        <ele>845</ele>
        <time>2017-06-01T10:07:37.000Z</time>
      </trkpt>
      <trkpt lat="43.46853" lon="2.29435">
        <ele>844.8</ele>
        <time>2017-06-01T10:07:38.000Z</time>
      </trkpt>
      <trkpt lat="43.4686" lon="2.29437">
        <ele>844.4</ele>
        <time>2017-06-01T10:07:39.000Z</time>
      </trkpt>
      <trkpt lat="43.46867" lon="2.29435">
        <ele>843.9</ele>
        <time>2017-06-01T10:07:40.000Z</time>
      </trkpt>
      <trkpt lat="43.46903" lon="2.29447">
        <ele>843.7</ele>
        <time>2017-06-01T10:07:42.000Z</time>
      </trkpt>
      <trkpt lat="43.46911" lon="2.29447">
        <ele>843.4</ele>
        <time>2017-06-01T10:07:43.000Z</time>
      </trkpt>
      <trkpt lat="43.46916" lon="2.29444">
        <ele>842.8</ele>
        <time>2017-06-01T10:07:44.000Z</time>
      </trkpt>
      <trkpt lat="43.46926" lon="2.29441">
        <ele>842</ele>
        <time>2017-06-01T10:07:45.000Z</time>
      </trkpt>
      <trkpt lat="43.46929" lon="2.29439">
        <ele>841.2</ele>
        <time>2017-06-01T10:07:46.000Z</time>
      </trkpt>
      <trkpt lat="43.4694" lon="2.2944">
        <ele>839.2</ele>
        <time>2017-06-01T10:07:47.000Z</time>
      </trkpt>
      <trkpt lat="43.46948" lon="2.29441">
        <ele>838.1</ele>
        <time>2017-06-01T10:07:48.000Z</time>
      </trkpt>
      <trkpt lat="43.46945" lon="2.29431">
        <ele>838.7</ele>
        <time>2017-06-01T10:07:49.000Z</time>
      </trkpt>
      <trkpt lat="43.46954" lon="2.2943">
        <ele>837.3</ele>
        <time>2017-06-01T10:07:50.000Z</time>
      </trkpt>
      <trkpt lat="43.47065" lon="2.29366">
        <ele>829.7</ele>
        <time>2017-06-01T10:08:06.000Z</time>
      </trkpt>
      <trkpt lat="43.47042" lon="2.29291">
        <ele>827</ele>
        <time>2017-06-01T10:08:09.000Z</time>
      </trkpt>
      <trkpt lat="43.47045" lon="2.29288">
        <ele>826.9</ele>
        <time>2017-06-01T10:08:10.000Z</time>
      </trkpt>
      <trkpt lat="43.47044" lon="2.2928">
        <ele>826.9</ele>
        <time>2017-06-01T10:08:11.000Z</time>
      </trkpt>
      <trkpt lat="43.47049" lon="2.29277">
        <ele>826.8</ele>
        <time>2017-06-01T10:08:12.000Z</time>
      </trkpt>
      <trkpt lat="43.47051" lon="2.29272">
        <ele>826.7</ele>
        <time>2017-06-01T10:08:13.000Z</time>
      </trkpt>
      <trkpt lat="43.47055" lon="2.29273">
        <ele>826.7</ele>
        <time>2017-06-01T10:08:14.000Z</time>
      </trkpt>
      <trkpt lat="43.47059" lon="2.29275">
        <ele>826.6</ele>
        <time>2017-06-01T10:08:15.000Z</time>
      </trkpt>
      <trkpt lat="43.47069" lon="2.29283">
        <ele>826.5</ele>
        <time>2017-06-01T10:08:16.000Z</time>
      </trkpt>
      <trkpt lat="43.47072" lon="2.29286">
        <ele>826.4</ele>
        <time>2017-06-01T10:08:17.000Z</time>
      </trkpt>
      <trkpt lat="43.47087" lon="2.29297">
        <ele>826.1</ele>
        <time>2017-06-01T10:08:19.000Z</time>
      </trkpt>
      <trkpt lat="43.47083" lon="2.29291">
        <ele>825.9</ele>
        <time>2017-06-01T10:08:20.000Z</time>
      </trkpt>
      <trkpt lat="43.4709" lon="2.29293">
        <ele>825.7</ele>
        <time>2017-06-01T10:08:21.000Z</time>
      </trkpt>
      <trkpt lat="43.47104" lon="2.29292">
        <ele>825.3</ele>
        <time>2017-06-01T10:08:22.000Z</time>
      </trkpt>
      <trkpt lat="43.47108" lon="2.29293">
        <ele>825.2</ele>
        <time>2017-06-01T10:08:23.000Z</time>
      </trkpt>
      <trkpt lat="43.47113" lon="2.29297">
        <ele>825</ele>
        <time>2017-06-01T10:08:24.000Z</time>
      </trkpt>
      <trkpt lat="43.47125" lon="2.29293">
        <ele>824.5</ele>
        <time>2017-06-01T10:08:26.000Z</time>
      </trkpt>
      <trkpt lat="43.47131" lon="2.29292">
        <ele>824.2</ele>
        <time>2017-06-01T10:08:27.000Z</time>
      </trkpt>
      <trkpt lat="43.47135" lon="2.29287">
        <ele>824</ele>
        <time>2017-06-01T10:08:28.000Z</time>
      </trkpt>
      <trkpt lat="43.47145" lon="2.29286">
        <ele>823.6</ele>
        <time>2017-06-01T10:08:29.000Z</time>
      </trkpt>
      <trkpt lat="43.47159" lon="2.29285">
        <ele>823</ele>
        <time>2017-06-01T10:08:30.000Z</time>
      </trkpt>
      <trkpt lat="43.4716" lon="2.29273">
        <ele>822.7</ele>
        <time>2017-06-01T10:08:31.000Z</time>
      </trkpt>
      <trkpt lat="43.47166" lon="2.2927">
        <ele>822.6</ele>
        <time>2017-06-01T10:08:33.000Z</time>
      </trkpt>
      <trkpt lat="43.47175" lon="2.29269">
        <ele>822.2</ele>
        <time>2017-06-01T10:08:34.000Z</time>
      </trkpt>
      <trkpt lat="43.4718" lon="2.29264">
        <ele>821.8</ele>
        <time>2017-06-01T10:08:35.000Z</time>
      </trkpt>
      <trkpt lat="43.47185" lon="2.29261">
        <ele>821.5</ele>
        <time>2017-06-01T10:08:36.000Z</time>
      </trkpt>
      <trkpt lat="43.47189" lon="2.29264">
        <ele>821.3</ele>
        <time>2017-06-01T10:08:37.000Z</time>
      </trkpt>
      <trkpt lat="43.47192" lon="2.2926">
        <ele>821.1</ele>
        <time>2017-06-01T10:08:38.000Z</time>
      </trkpt>
      <trkpt lat="43.47201" lon="2.29259">
        <ele>820.6</ele>
        <time>2017-06-01T10:08:39.000Z</time>
      </trkpt>
      <trkpt lat="43.47211" lon="2.2925">
        <ele>819.8</ele>
        <time>2017-06-01T10:08:40.000Z</time>
      </trkpt>
      <trkpt lat="43.47216" lon="2.29246">
        <ele>819.2</ele>
        <time>2017-06-01T10:08:41.000Z</time>
      </trkpt>
      <trkpt lat="43.47221" lon="2.29244">
        <ele>818.7</ele>
        <time>2017-06-01T10:08:42.000Z</time>
      </trkpt>
      <trkpt lat="43.47219" lon="2.29226">
        <ele>817.3</ele>
        <time>2017-06-01T10:08:43.000Z</time>
      </trkpt>
      <trkpt lat="43.47223" lon="2.2922">
        <ele>816.8</ele>
        <time>2017-06-01T10:08:44.000Z</time>
      </trkpt>
      <trkpt lat="43.47226" lon="2.29215">
        <ele>816.5</ele>
        <time>2017-06-01T10:08:45.000Z</time>
      </trkpt>
      <trkpt lat="43.47229" lon="2.29195">
        <ele>814.9</ele>
        <time>2017-06-01T10:08:48.000Z</time>
      </trkpt>
      <trkpt lat="43.4723" lon="2.29193">
        <ele>814.7</ele>
        <time>2017-06-01T10:08:50.000Z</time>
      </trkpt>
      <trkpt lat="43.47234" lon="2.29192">
        <ele>814.7</ele>
        <time>2017-06-01T10:08:51.000Z</time>
      </trkpt>
      <trkpt lat="43.47239" lon="2.29188">
        <ele>814.3</ele>
        <time>2017-06-01T10:08:52.000Z</time>
      </trkpt>
      <trkpt lat="43.47244" lon="2.29187">
        <ele>814.2</ele>
        <time>2017-06-01T10:08:53.000Z</time>
      </trkpt>
      <trkpt lat="43.47247" lon="2.29174">
        <ele>813.3</ele>
        <time>2017-06-01T10:08:55.000Z</time>
      </trkpt>
      <trkpt lat="43.47319" lon="2.29159">
        <ele>799.2</ele>
        <time>2017-06-01T10:09:08.000Z</time>
      </trkpt>
      <trkpt lat="43.47323" lon="2.29159">
        <ele>798.5</ele>
        <time>2017-06-01T10:09:09.000Z</time>
      </trkpt>
      <trkpt lat="43.47318" lon="2.29162">
        <ele>799.7</ele>
        <time>2017-06-01T10:09:12.000Z</time>
      </trkpt>
      <trkpt lat="43.47335" lon="2.29179">
        <ele>798.1</ele>
        <time>2017-06-01T10:09:14.000Z</time>
      </trkpt>
      <trkpt lat="43.47344" lon="2.29183">
        <ele>797.6</ele>
        <time>2017-06-01T10:09:15.000Z</time>
      </trkpt>
      <trkpt lat="43.4735" lon="2.29183">
        <ele>796.8</ele>
        <time>2017-06-01T10:09:17.000Z</time>
      </trkpt>
      <trkpt lat="43.47353" lon="2.29182">
        <ele>796.5</ele>
        <time>2017-06-01T10:09:19.000Z</time>
      </trkpt>
      <trkpt lat="43.47357" lon="2.29182">
        <ele>795.9</ele>
        <time>2017-06-01T10:09:20.000Z</time>
      </trkpt>
      <trkpt lat="43.47364" lon="2.29178">
        <ele>795.2</ele>
        <time>2017-06-01T10:09:21.000Z</time>
      </trkpt>
      <trkpt lat="43.47367" lon="2.29177">
        <ele>794.8</ele>
        <time>2017-06-01T10:09:22.000Z</time>
      </trkpt>
      <trkpt lat="43.4737" lon="2.29175">
        <ele>794.8</ele>
        <time>2017-06-01T10:09:23.000Z</time>
      </trkpt>
      <trkpt lat="43.47377" lon="2.29172">
        <ele>793.3</ele>
        <time>2017-06-01T10:09:26.000Z</time>
      </trkpt>
      <trkpt lat="43.4738" lon="2.29171">
        <ele>792.8</ele>
        <time>2017-06-01T10:09:27.000Z</time>
      </trkpt>
      <trkpt lat="43.47389" lon="2.29174">
        <ele>791.9</ele>
        <time>2017-06-01T10:09:28.000Z</time>
      </trkpt>
      <trkpt lat="43.47386" lon="2.29175">
        <ele>792.3</ele>
        <time>2017-06-01T10:09:29.000Z</time>
      </trkpt>
      <trkpt lat="43.47397" lon="2.29172">
        <ele>791.2</ele>
        <time>2017-06-01T10:09:31.000Z</time>
      </trkpt>
      <trkpt lat="43.47406" lon="2.29168">
        <ele>789.6</ele>
        <time>2017-06-01T10:09:32.000Z</time>
      </trkpt>
      <trkpt lat="43.47412" lon="2.29165">
        <ele>788.7</ele>
        <time>2017-06-01T10:09:33.000Z</time>
      </trkpt>
      <trkpt lat="43.47416" lon="2.29163">
        <ele>788.1</ele>
        <time>2017-06-01T10:09:34.000Z</time>
      </trkpt>
      <trkpt lat="43.47422" lon="2.2916">
        <ele>787.2</ele>
        <time>2017-06-01T10:09:35.000Z</time>
      </trkpt>
      <trkpt lat="43.47427" lon="2.29157">
        <ele>786.4</ele>
        <time>2017-06-01T10:09:36.000Z</time>
      </trkpt>
      <trkpt lat="43.47434" lon="2.29145">
        <ele>784.6</ele>
        <time>2017-06-01T10:09:37.000Z</time>
      </trkpt>
      <trkpt lat="43.47439" lon="2.29142">
        <ele>783.8</ele>
        <time>2017-06-01T10:09:38.000Z</time>
      </trkpt>
      <trkpt lat="43.47441" lon="2.29139">
        <ele>783.2</ele>
        <time>2017-06-01T10:09:40.000Z</time>
      </trkpt>
      <trkpt lat="43.47455" lon="2.29123">
        <ele>780</ele>
        <time>2017-06-01T10:09:42.000Z</time>
      </trkpt>
      <trkpt lat="43.47452" lon="2.29116">
        <ele>779.2</ele>
        <time>2017-06-01T10:09:43.000Z</time>
      </trkpt>
      <trkpt lat="43.47458" lon="2.29119">
        <ele>778</ele>
        <time>2017-06-01T10:09:44.000Z</time>
      </trkpt>
      <trkpt lat="43.47481" lon="2.29134">
        <ele>774.6</ele>
        <time>2017-06-01T10:09:46.000Z</time>
      </trkpt>
      <trkpt lat="43.47483" lon="2.2913">
        <ele>772.6</ele>
        <time>2017-06-01T10:09:47.000Z</time>
      </trkpt>
      <trkpt lat="43.47486" lon="2.29135">
        <ele>772.7</ele>
        <time>2017-06-01T10:09:48.000Z</time>
      </trkpt>
      <trkpt lat="43.47482" lon="2.29128">
        <ele>772.5</ele>
        <time>2017-06-01T10:09:50.000Z</time>
      </trkpt>
      <trkpt lat="43.47476" lon="2.29122">
        <ele>772.3</ele>
        <time>2017-06-01T10:09:51.000Z</time>
      </trkpt>
      <trkpt lat="43.47479" lon="2.29123">
        <ele>773.8</ele>
        <time>2017-06-01T10:09:54.000Z</time>
      </trkpt>
      <trkpt lat="43.47474" lon="2.29127">
        <ele>774.1</ele>
        <time>2017-06-01T10:09:57.000Z</time>
      </trkpt>
      <trkpt lat="43.47471" lon="2.29128">
        <ele>774.2</ele>
        <time>2017-06-01T10:09:59.000Z</time>
      </trkpt>
      <trkpt lat="43.47468" lon="2.29128">
        <ele>774.3</ele>
        <time>2017-06-01T10:10:00.000Z</time>
      </trkpt>
      <trkpt lat="43.47468" lon="2.29133">
        <ele>774.5</ele>
        <time>2017-06-01T10:10:04.000Z</time>
      </trkpt>
      <trkpt lat="43.47474" lon="2.29129">
        <ele>774.9</ele>
        <time>2017-06-01T10:10:06.000Z</time>
      </trkpt>
      <trkpt lat="43.47477" lon="2.29134">
        <ele>775.1</ele>
        <time>2017-06-01T10:10:10.000Z</time>
      </trkpt>
      <trkpt lat="43.47481" lon="2.29134">
        <ele>774.3</ele>
        <time>2017-06-01T10:10:12.000Z</time>
      </trkpt>
      <trkpt lat="43.47489" lon="2.29131">
        <ele>772.6</ele>
        <time>2017-06-01T10:10:16.000Z</time>
      </trkpt>
      <trkpt lat="43.4749" lon="2.29129">
        <ele>772.6</ele>
        <time>2017-06-01T10:10:23.000Z</time>
      </trkpt>
      <trkpt lat="43.47492" lon="2.29128">
        <ele>772.6</ele>
        <time>2017-06-01T10:15:53.000Z</time>
      </trkpt>
      <trkpt lat="43.47493" lon="2.29127">
        <ele>772.6</ele>
        <time>2017-06-01T10:15:54.000Z</time>
      </trkpt>
      <trkpt lat="43.47501" lon="2.29126">
        <ele>772</ele>
        <time>2017-06-01T10:15:55.000Z</time>
      </trkpt>
      <trkpt lat="43.47509" lon="2.29127">
        <ele>765.5</ele>
        <time>2017-06-01T10:15:56.000Z</time>
      </trkpt>
      <trkpt lat="43.47517" lon="2.29127">
        <ele>764.8</ele>
        <time>2017-06-01T10:15:57.000Z</time>
      </trkpt>
      <trkpt lat="43.47524" lon="2.29128">
        <ele>764.1</ele>
        <time>2017-06-01T10:15:58.000Z</time>
      </trkpt>
      <trkpt lat="43.47527" lon="2.29128">
        <ele>763.8</ele>
        <time>2017-06-01T10:15:59.000Z</time>
      </trkpt>
      <trkpt lat="43.47535" lon="2.29126">
        <ele>763</ele>
        <time>2017-06-01T10:16:00.000Z</time>
      </trkpt>
      <trkpt lat="43.47539" lon="2.29124">
        <ele>762.6</ele>
        <time>2017-06-01T10:16:01.000Z</time>
      </trkpt>
      <trkpt lat="43.47544" lon="2.29121">
        <ele>762.2</ele>
        <time>2017-06-01T10:16:02.000Z</time>
      </trkpt>
      <trkpt lat="43.47547" lon="2.29121">
        <ele>761.9</ele>
        <time>2017-06-01T10:16:03.000Z</time>
      </trkpt>
      <trkpt lat="43.4755" lon="2.29116">
        <ele>761.5</ele>
        <time>2017-06-01T10:16:04.000Z</time>
      </trkpt>
      <trkpt lat="43.47548" lon="2.29102">
        <ele>760.9</ele>
        <time>2017-06-01T10:16:05.000Z</time>
      </trkpt>
      <trkpt lat="43.47551" lon="2.29098">
        <ele>760.2</ele>
        <time>2017-06-01T10:16:06.000Z</time>
      </trkpt>
      <trkpt lat="43.47553" lon="2.29092">
        <ele>760</ele>
        <time>2017-06-01T10:16:07.000Z</time>
      </trkpt>
      <trkpt lat="43.47555" lon="2.29087">
        <ele>759.4</ele>
        <time>2017-06-01T10:16:08.000Z</time>
      </trkpt>
      <trkpt lat="43.47556" lon="2.29082">
        <ele>759.1</ele>
        <time>2017-06-01T10:16:09.000Z</time>
      </trkpt>
      <trkpt lat="43.4756" lon="2.29082">
        <ele>758.5</ele>
        <time>2017-06-01T10:16:10.000Z</time>
      </trkpt>
      <trkpt lat="43.47564" lon="2.29077">
        <ele>757.6</ele>
        <time>2017-06-01T10:16:11.000Z</time>
      </trkpt>
      <trkpt lat="43.47566" lon="2.29071">
        <ele>756.8</ele>
        <time>2017-06-01T10:16:12.000Z</time>
      </trkpt>
      <trkpt lat="43.47566" lon="2.29064">
        <ele>756.1</ele>
        <time>2017-06-01T10:16:13.000Z</time>
      </trkpt>
      <trkpt lat="43.47565" lon="2.29058">
        <ele>756.2</ele>
        <time>2017-06-01T10:16:15.000Z</time>
      </trkpt>
      <trkpt lat="43.47562" lon="2.29048">
        <ele>755.9</ele>
        <time>2017-06-01T10:16:16.000Z</time>
      </trkpt>
      <trkpt lat="43.47568" lon="2.2904">
        <ele>754.5</ele>
        <time>2017-06-01T10:16:17.000Z</time>
      </trkpt>
      <trkpt lat="43.4757" lon="2.29035">
        <ele>753.7</ele>
        <time>2017-06-01T10:16:18.000Z</time>
      </trkpt>
      <trkpt lat="43.4757" lon="2.2903">
        <ele>752.9</ele>
        <time>2017-06-01T10:16:19.000Z</time>
      </trkpt>
      <trkpt lat="43.47573" lon="2.29023">
        <ele>752.3</ele>
        <time>2017-06-01T10:16:20.000Z</time>
      </trkpt>
      <trkpt lat="43.47576" lon="2.29017">
        <ele>751.1</ele>
        <time>2017-06-01T10:16:21.000Z</time>
      </trkpt>
      <trkpt lat="43.47578" lon="2.29014">
        <ele>751.1</ele>
        <time>2017-06-01T10:16:22.000Z</time>
      </trkpt>
      <trkpt lat="43.47575" lon="2.29002">
        <ele>749.7</ele>
        <time>2017-06-01T10:16:24.000Z</time>
      </trkpt>
      <trkpt lat="43.47589" lon="2.28997">
        <ele>747.8</ele>
        <time>2017-06-01T10:16:25.000Z</time>
      </trkpt>
      <trkpt lat="43.47585" lon="2.2899">
        <ele>747</ele>
        <time>2017-06-01T10:16:26.000Z</time>
      </trkpt>
      <trkpt lat="43.47583" lon="2.28983">
        <ele>745.9</ele>
        <time>2017-06-01T10:16:28.000Z</time>
      </trkpt>
      <trkpt lat="43.47582" lon="2.28978">
        <ele>745.3</ele>
        <time>2017-06-01T10:16:29.000Z</time>
      </trkpt>
      <trkpt lat="43.47587" lon="2.28965">
        <ele>743.3</ele>
        <time>2017-06-01T10:16:30.000Z</time>
      </trkpt>
      <trkpt lat="43.4759" lon="2.28962">
        <ele>742.2</ele>
        <time>2017-06-01T10:16:31.000Z</time>
      </trkpt>
      <trkpt lat="43.4759" lon="2.28956">
        <ele>741.5</ele>
        <time>2017-06-01T10:16:32.000Z</time>
      </trkpt>
      <trkpt lat="43.47589" lon="2.28948">
        <ele>740.1</ele>
        <time>2017-06-01T10:16:33.000Z</time>
      </trkpt>
      <trkpt lat="43.4759" lon="2.28942">
        <ele>739.5</ele>
        <time>2017-06-01T10:16:34.000Z</time>
      </trkpt>
      <trkpt lat="43.47586" lon="2.2893">
        <ele>737.1</ele>
        <time>2017-06-01T10:16:35.000Z</time>
      </trkpt>
      <trkpt lat="43.47584" lon="2.28921">
        <ele>735.3</ele>
        <time>2017-06-01T10:16:36.000Z</time>
      </trkpt>
      <trkpt lat="43.47585" lon="2.28908">
        <ele>732.9</ele>
        <time>2017-06-01T10:16:37.000Z</time>
      </trkpt>
      <trkpt lat="43.47584" lon="2.28901">
        <ele>731.6</ele>
        <time>2017-06-01T10:16:38.000Z</time>
      </trkpt>
      <trkpt lat="43.47586" lon="2.28891">
        <ele>730.4</ele>
        <time>2017-06-01T10:16:39.000Z</time>
      </trkpt>
      <trkpt lat="43.47585" lon="2.28881">
        <ele>729.6</ele>
        <time>2017-06-01T10:16:40.000Z</time>
      </trkpt>
      <trkpt lat="43.47583" lon="2.28872">
        <ele>728.2</ele>
        <time>2017-06-01T10:16:41.000Z</time>
      </trkpt>
      <trkpt lat="43.47587" lon="2.28867">
        <ele>727.6</ele>
        <time>2017-06-01T10:16:42.000Z</time>
      </trkpt>
      <trkpt lat="43.47592" lon="2.28862">
        <ele>726.9</ele>
        <time>2017-06-01T10:16:43.000Z</time>
      </trkpt>
      <trkpt lat="43.47589" lon="2.28849">
        <ele>725.2</ele>
        <time>2017-06-01T10:16:44.000Z</time>
      </trkpt>
      <trkpt lat="43.47592" lon="2.28844">
        <ele>724</ele>
        <time>2017-06-01T10:16:45.000Z</time>
      </trkpt>
      <trkpt lat="43.47595" lon="2.28836">
        <ele>722.1</ele>
        <time>2017-06-01T10:16:46.000Z</time>
      </trkpt>
      <trkpt lat="43.47597" lon="2.28831">
        <ele>721</ele>
        <time>2017-06-01T10:16:47.000Z</time>
      </trkpt>
      <trkpt lat="43.476" lon="2.28828">
        <ele>719.9</ele>
        <time>2017-06-01T10:16:48.000Z</time>
      </trkpt>
      <trkpt lat="43.47606" lon="2.28824">
        <ele>718.9</ele>
        <time>2017-06-01T10:16:49.000Z</time>
      </trkpt>
      <trkpt lat="43.47608" lon="2.2882">
        <ele>718</ele>
        <time>2017-06-01T10:16:50.000Z</time>
      </trkpt>
      <trkpt lat="43.47611" lon="2.28819">
        <ele>717.8</ele>
        <time>2017-06-01T10:16:51.000Z</time>
      </trkpt>
      <trkpt lat="43.47615" lon="2.28817">
        <ele>717.6</ele>
        <time>2017-06-01T10:16:52.000Z</time>
      </trkpt>
      <trkpt lat="43.47615" lon="2.28812">
        <ele>716.9</ele>
        <time>2017-06-01T10:16:53.000Z</time>
      </trkpt>
      <trkpt lat="43.47622" lon="2.28804">
        <ele>715.5</ele>
        <time>2017-06-01T10:16:54.000Z</time>
      </trkpt>
      <trkpt lat="43.47625" lon="2.28794">
        <ele>713.4</ele>
        <time>2017-06-01T10:16:55.000Z</time>
      </trkpt>
      <trkpt lat="43.47625" lon="2.28785">
        <ele>712</ele>
        <time>2017-06-01T10:16:56.000Z</time>
      </trkpt>
      <trkpt lat="43.47622" lon="2.28779">
        <ele>711.3</ele>
        <time>2017-06-01T10:16:57.000Z</time>
      </trkpt>
      <trkpt lat="43.47625" lon="2.28771">
        <ele>710.2</ele>
        <time>2017-06-01T10:16:58.000Z</time>
      </trkpt>
      <trkpt lat="43.4762" lon="2.28766">
        <ele>709.4</ele>
        <time>2017-06-01T10:16:59.000Z</time>
      </trkpt>
      <trkpt lat="43.47623" lon="2.2876">
        <ele>708.2</ele>
        <time>2017-06-01T10:17:00.000Z</time>
      </trkpt>
      <trkpt lat="43.47621" lon="2.28753">
        <ele>707.5</ele>
        <time>2017-06-01T10:17:01.000Z</time>
      </trkpt>
      <trkpt lat="43.47617" lon="2.28738">
        <ele>704.8</ele>
        <time>2017-06-01T10:17:02.000Z</time>
      </trkpt>
      <trkpt lat="43.47623" lon="2.28733">
        <ele>704.4</ele>
        <time>2017-06-01T10:17:03.000Z</time>
      </trkpt>
      <trkpt lat="43.47629" lon="2.2873">
        <ele>704</ele>
        <time>2017-06-01T10:17:04.000Z</time>
      </trkpt>
      <trkpt lat="43.4763" lon="2.28722">
        <ele>703.2</ele>
        <time>2017-06-01T10:17:05.000Z</time>
      </trkpt>
      <trkpt lat="43.47631" lon="2.28714">
        <ele>701.6</ele>
        <time>2017-06-01T10:17:06.000Z</time>
      </trkpt>
      <trkpt lat="43.47632" lon="2.2871">
        <ele>700.8</ele>
        <time>2017-06-01T10:17:07.000Z</time>
      </trkpt>
      <trkpt lat="43.4764" lon="2.28708">
        <ele>700.4</ele>
        <time>2017-06-01T10:17:08.000Z</time>
      </trkpt>
      <trkpt lat="43.47645" lon="2.2871">
        <ele>701.8</ele>
        <time>2017-06-01T10:17:11.000Z</time>
      </trkpt>
      <trkpt lat="43.47649" lon="2.28711">
        <ele>701.9</ele>
        <time>2017-06-01T10:17:12.000Z</time>
      </trkpt>
      <trkpt lat="43.47653" lon="2.2871">
        <ele>702.1</ele>
        <time>2017-06-01T10:17:13.000Z</time>
      </trkpt>
      <trkpt lat="43.47657" lon="2.28711">
        <ele>702.1</ele>
        <time>2017-06-01T10:17:14.000Z</time>
      </trkpt>
      <trkpt lat="43.4766" lon="2.2871">
        <ele>702.1</ele>
        <time>2017-06-01T10:17:15.000Z</time>
      </trkpt>
      <trkpt lat="43.47672" lon="2.28711">
        <ele>702</ele>
        <time>2017-06-01T10:17:17.000Z</time>
      </trkpt>
      <trkpt lat="43.47677" lon="2.28713">
        <ele>702.4</ele>
        <time>2017-06-01T10:17:18.000Z</time>
      </trkpt>
      <trkpt lat="43.47682" lon="2.28711">
        <ele>701.6</ele>
        <time>2017-06-01T10:17:20.000Z</time>
      </trkpt>
      <trkpt lat="43.47686" lon="2.28712">
        <ele>701.5</ele>
        <time>2017-06-01T10:17:21.000Z</time>
      </trkpt>
      <trkpt lat="43.47694" lon="2.28712">
        <ele>700.9</ele>
        <time>2017-06-01T10:17:22.000Z</time>
      </trkpt>
      <trkpt lat="43.47699" lon="2.28712">
        <ele>700.7</ele>
        <time>2017-06-01T10:17:23.000Z</time>
      </trkpt>
      <trkpt lat="43.47708" lon="2.2871">
        <ele>700.1</ele>
        <time>2017-06-01T10:17:24.000Z</time>
      </trkpt>
      <trkpt lat="43.47714" lon="2.2871">
        <ele>699.5</ele>
        <time>2017-06-01T10:17:25.000Z</time>
      </trkpt>
      <trkpt lat="43.47719" lon="2.2871">
        <ele>699</ele>
        <time>2017-06-01T10:17:26.000Z</time>
      </trkpt>
      <trkpt lat="43.47726" lon="2.28708">
        <ele>697.8</ele>
        <time>2017-06-01T10:17:27.000Z</time>
      </trkpt>
      <trkpt lat="43.47741" lon="2.28711">
        <ele>696.9</ele>
        <time>2017-06-01T10:17:28.000Z</time>
      </trkpt>
      <trkpt lat="43.47747" lon="2.28714">
        <ele>696.7</ele>
        <time>2017-06-01T10:17:29.000Z</time>
      </trkpt>
      <trkpt lat="43.47751" lon="2.28712">
        <ele>696.2</ele>
        <time>2017-06-01T10:17:31.000Z</time>
      </trkpt>
      <trkpt lat="43.47758" lon="2.28712">
        <ele>695.8</ele>
        <time>2017-06-01T10:17:32.000Z</time>
      </trkpt>
      <trkpt lat="43.47761" lon="2.28714">
        <ele>695.9</ele>
        <time>2017-06-01T10:17:33.000Z</time>
      </trkpt>
      <trkpt lat="43.47769" lon="2.28713">
        <ele>695</ele>
        <time>2017-06-01T10:17:34.000Z</time>
      </trkpt>
      <trkpt lat="43.47779" lon="2.28716">
        <ele>695.2</ele>
        <time>2017-06-01T10:17:35.000Z</time>
      </trkpt>
      <trkpt lat="43.47784" lon="2.28723">
        <ele>695.7</ele>
        <time>2017-06-01T10:17:37.000Z</time>
      </trkpt>
      <trkpt lat="43.47789" lon="2.28727">
        <ele>695.7</ele>
        <time>2017-06-01T10:17:38.000Z</time>
      </trkpt>
      <trkpt lat="43.47793" lon="2.28729">
        <ele>695.4</ele>
        <time>2017-06-01T10:17:39.000Z</time>
      </trkpt>
      <trkpt lat="43.478" lon="2.2873">
        <ele>694.5</ele>
        <time>2017-06-01T10:17:41.000Z</time>
      </trkpt>
      <trkpt lat="43.47803" lon="2.28731">
        <ele>694.6</ele>
        <time>2017-06-01T10:17:42.000Z</time>
      </trkpt>
      <trkpt lat="43.47807" lon="2.28734">
        <ele>694.3</ele>
        <time>2017-06-01T10:17:44.000Z</time>
      </trkpt>
      <trkpt lat="43.47811" lon="2.28732">
        <ele>694</ele>
        <time>2017-06-01T10:17:45.000Z</time>
      </trkpt>
      <trkpt lat="43.47817" lon="2.2873">
        <ele>692.7</ele>
        <time>2017-06-01T10:17:47.000Z</time>
      </trkpt>
      <trkpt lat="43.47824" lon="2.28731">
        <ele>691.9</ele>
        <time>2017-06-01T10:17:48.000Z</time>
      </trkpt>
      <trkpt lat="43.47826" lon="2.2873">
        <ele>690.8</ele>
        <time>2017-06-01T10:17:49.000Z</time>
      </trkpt>
      <trkpt lat="43.4783" lon="2.28726">
        <ele>689.7</ele>
        <time>2017-06-01T10:17:50.000Z</time>
      </trkpt>
      <trkpt lat="43.47838" lon="2.28725">
        <ele>687.4</ele>
        <time>2017-06-01T10:17:51.000Z</time>
      </trkpt>
      <trkpt lat="43.47843" lon="2.28724">
        <ele>686.5</ele>
        <time>2017-06-01T10:17:52.000Z</time>
      </trkpt>
      <trkpt lat="43.47847" lon="2.28724">
        <ele>684.4</ele>
        <time>2017-06-01T10:17:53.000Z</time>
      </trkpt>
      <trkpt lat="43.47851" lon="2.28722">
        <ele>683.4</ele>
        <time>2017-06-01T10:17:54.000Z</time>
      </trkpt>
      <trkpt lat="43.47855" lon="2.28725">
        <ele>681.5</ele>
        <time>2017-06-01T10:17:55.000Z</time>
      </trkpt>
      <trkpt lat="43.47855" lon="2.28717">
        <ele>681.7</ele>
        <time>2017-06-01T10:17:56.000Z</time>
      </trkpt>
      <trkpt lat="43.47857" lon="2.28714">
        <ele>680.8</ele>
        <time>2017-06-01T10:17:57.000Z</time>
      </trkpt>
      <trkpt lat="43.47858" lon="2.28709">
        <ele>680.5</ele>
        <time>2017-06-01T10:17:58.000Z</time>
      </trkpt>
      <trkpt lat="43.47861" lon="2.28703">
        <ele>680.8</ele>
        <time>2017-06-01T10:17:59.000Z</time>
      </trkpt>
      <trkpt lat="43.47864" lon="2.28698">
        <ele>681.1</ele>
        <time>2017-06-01T10:18:00.000Z</time>
      </trkpt>
      <trkpt lat="43.47865" lon="2.28703">
        <ele>681.4</ele>
        <time>2017-06-01T10:18:01.000Z</time>
      </trkpt>
      <trkpt lat="43.47863" lon="2.28706">
        <ele>681.6</ele>
        <time>2017-06-01T10:18:02.000Z</time>
      </trkpt>
      <trkpt lat="43.47865" lon="2.28709">
        <ele>681.9</ele>
        <time>2017-06-01T10:18:03.000Z</time>
      </trkpt>
      <trkpt lat="43.47872" lon="2.28712">
        <ele>682.2</ele>
        <time>2017-06-01T10:18:06.000Z</time>
      </trkpt>
      <trkpt lat="43.4788" lon="2.28712">
        <ele>682.6</ele>
        <time>2017-06-01T10:18:08.000Z</time>
      </trkpt>
      <trkpt lat="43.47881" lon="2.28717">
        <ele>682.4</ele>
        <time>2017-06-01T10:18:12.000Z</time>
      </trkpt>
      <trkpt lat="43.47882" lon="2.28712">
        <ele>681.8</ele>
        <time>2017-06-01T10:18:14.000Z</time>
      </trkpt>
      <trkpt lat="43.4788" lon="2.2871">
        <ele>681.4</ele>
        <time>2017-06-01T10:18:16.000Z</time>
      </trkpt>
      <trkpt lat="43.47885" lon="2.28713">
        <ele>680.5</ele>
        <time>2017-06-01T10:18:18.000Z</time>
      </trkpt>
      <trkpt lat="43.47891" lon="2.28709">
        <ele>678.9</ele>
        <time>2017-06-01T10:18:28.000Z</time>
      </trkpt>
      <trkpt lat="43.47894" lon="2.28707">
        <ele>678.3</ele>
        <time>2017-06-01T10:19:04.000Z</time>
      </trkpt>
      <trkpt lat="43.47897" lon="2.28704">
        <ele>677.6</ele>
        <time>2017-06-01T10:19:05.000Z</time>
      </trkpt>
      <trkpt lat="43.47904" lon="2.28702">
        <ele>675.7</ele>
        <time>2017-06-01T10:19:06.000Z</time>
      </trkpt>
      <trkpt lat="43.47909" lon="2.28698">
        <ele>674.7</ele>
        <time>2017-06-01T10:19:07.000Z</time>
      </trkpt>
      <trkpt lat="43.47913" lon="2.28692">
        <ele>673.6</ele>
        <time>2017-06-01T10:19:08.000Z</time>
      </trkpt>
      <trkpt lat="43.47914" lon="2.28684">
        <ele>672.1</ele>
        <time>2017-06-01T10:19:09.000Z</time>
      </trkpt>
      <trkpt lat="43.47916" lon="2.2868">
        <ele>671.3</ele>
        <time>2017-06-01T10:19:10.000Z</time>
      </trkpt>
      <trkpt lat="43.47934" lon="2.28674">
        <ele>667.7</ele>
        <time>2017-06-01T10:19:13.000Z</time>
      </trkpt>
      <trkpt lat="43.47937" lon="2.28669">
        <ele>666.9</ele>
        <time>2017-06-01T10:19:14.000Z</time>
      </trkpt>
      <trkpt lat="43.47941" lon="2.28666">
        <ele>666.1</ele>
        <time>2017-06-01T10:19:15.000Z</time>
      </trkpt>
      <trkpt lat="43.47946" lon="2.28667">
        <ele>665.4</ele>
        <time>2017-06-01T10:19:16.000Z</time>
      </trkpt>
      <trkpt lat="43.47958" lon="2.28663">
        <ele>663.8</ele>
        <time>2017-06-01T10:19:17.000Z</time>
      </trkpt>
      <trkpt lat="43.47962" lon="2.28661">
        <ele>663.1</ele>
        <time>2017-06-01T10:19:18.000Z</time>
      </trkpt>
      <trkpt lat="43.47964" lon="2.28656">
        <ele>662.3</ele>
        <time>2017-06-01T10:19:19.000Z</time>
      </trkpt>
      <trkpt lat="43.47975" lon="2.28651">
        <ele>655.7</ele>
        <time>2017-06-01T10:19:20.000Z</time>
      </trkpt>
      <trkpt lat="43.4798" lon="2.28645">
        <ele>653.6</ele>
        <time>2017-06-01T10:19:21.000Z</time>
      </trkpt>
      <trkpt lat="43.47987" lon="2.28642">
        <ele>651.7</ele>
        <time>2017-06-01T10:19:22.000Z</time>
      </trkpt>
      <trkpt lat="43.4799" lon="2.28638">
        <ele>650.4</ele>
        <time>2017-06-01T10:19:23.000Z</time>
      </trkpt>
      <trkpt lat="43.47991" lon="2.28631">
        <ele>649.4</ele>
        <time>2017-06-01T10:19:25.000Z</time>
      </trkpt>
      <trkpt lat="43.47994" lon="2.28628">
        <ele>648.5</ele>
        <time>2017-06-01T10:19:26.000Z</time>
      </trkpt>
      <trkpt lat="43.47997" lon="2.28626">
        <ele>647.7</ele>
        <time>2017-06-01T10:19:27.000Z</time>
      </trkpt>
      <trkpt lat="43.48006" lon="2.28633">
        <ele>645.7</ele>
        <time>2017-06-01T10:19:28.000Z</time>
      </trkpt>
      <trkpt lat="43.48009" lon="2.28636">
        <ele>644.8</ele>
        <time>2017-06-01T10:19:29.000Z</time>
      </trkpt>
      <trkpt lat="43.48014" lon="2.28637">
        <ele>643.9</ele>
        <time>2017-06-01T10:19:30.000Z</time>
      </trkpt>
      <trkpt lat="43.48015" lon="2.28649">
        <ele>642</ele>
        <time>2017-06-01T10:19:32.000Z</time>
      </trkpt>
      <trkpt lat="43.48011" lon="2.28657">
        <ele>640.4</ele>
        <time>2017-06-01T10:19:33.000Z</time>
      </trkpt>
      <trkpt lat="43.4801" lon="2.28666">
        <ele>639.2</ele>
        <time>2017-06-01T10:19:34.000Z</time>
      </trkpt>
      <trkpt lat="43.48009" lon="2.28674">
        <ele>638.4</ele>
        <time>2017-06-01T10:19:35.000Z</time>
      </trkpt>
      <trkpt lat="43.4801" lon="2.28682">
        <ele>637.4</ele>
        <time>2017-06-01T10:19:36.000Z</time>
      </trkpt>
      <trkpt lat="43.48007" lon="2.28688">
        <ele>636.5</ele>
        <time>2017-06-01T10:19:37.000Z</time>
      </trkpt>
      <trkpt lat="43.48003" lon="2.28695">
        <ele>634.8</ele>
        <time>2017-06-01T10:19:38.000Z</time>
      </trkpt>
      <trkpt lat="43.48008" lon="2.28704">
        <ele>632.8</ele>
        <time>2017-06-01T10:19:39.000Z</time>
      </trkpt>
      <trkpt lat="43.48002" lon="2.2871">
        <ele>631.3</ele>
        <time>2017-06-01T10:19:40.000Z</time>
      </trkpt>
      <trkpt lat="43.48002" lon="2.28722">
        <ele>629.2</ele>
        <time>2017-06-01T10:19:41.000Z</time>
      </trkpt>
      <trkpt lat="43.48002" lon="2.28728">
        <ele>627.8</ele>
        <time>2017-06-01T10:19:42.000Z</time>
      </trkpt>
      <trkpt lat="43.47998" lon="2.28737">
        <ele>626.3</ele>
        <time>2017-06-01T10:19:43.000Z</time>
      </trkpt>
      <trkpt lat="43.47994" lon="2.28742">
        <ele>624.7</ele>
        <time>2017-06-01T10:19:44.000Z</time>
      </trkpt>
      <trkpt lat="43.47989" lon="2.28749">
        <ele>623.5</ele>
        <time>2017-06-01T10:19:45.000Z</time>
      </trkpt>
      <trkpt lat="43.47995" lon="2.28752">
        <ele>622.5</ele>
        <time>2017-06-01T10:19:46.000Z</time>
      </trkpt>
      <trkpt lat="43.47999" lon="2.28751">
        <ele>621.3</ele>
        <time>2017-06-01T10:19:47.000Z</time>
      </trkpt>
      <trkpt lat="43.47999" lon="2.28758">
        <ele>620</ele>
        <time>2017-06-01T10:19:48.000Z</time>
      </trkpt>
      <trkpt lat="43.47996" lon="2.28749">
        <ele>617.9</ele>
        <time>2017-06-01T10:19:50.000Z</time>
      </trkpt>
      <trkpt lat="43.48001" lon="2.28748">
        <ele>615.8</ele>
        <time>2017-06-01T10:19:51.000Z</time>
      </trkpt>
      <trkpt lat="43.48009" lon="2.28747">
        <ele>613.5</ele>
        <time>2017-06-01T10:19:52.000Z</time>
      </trkpt>
      <trkpt lat="43.48025" lon="2.28748">
        <ele>611</ele>
        <time>2017-06-01T10:19:53.000Z</time>
      </trkpt>
      <trkpt lat="43.48028" lon="2.28754">
        <ele>610.5</ele>
        <time>2017-06-01T10:19:55.000Z</time>
      </trkpt>
      <trkpt lat="43.48036" lon="2.28761">
        <ele>609.5</ele>
        <time>2017-06-01T10:19:57.000Z</time>
      </trkpt>
      <trkpt lat="43.4804" lon="2.28764">
        <ele>609</ele>
        <time>2017-06-01T10:19:58.000Z</time>
      </trkpt>
      <trkpt lat="43.48035" lon="2.28772">
        <ele>608.2</ele>
        <time>2017-06-01T10:19:59.000Z</time>
      </trkpt>
      <trkpt lat="43.48047" lon="2.28761">
        <ele>605.6</ele>
        <time>2017-06-01T10:20:00.000Z</time>
      </trkpt>
      <trkpt lat="43.4805" lon="2.28763">
        <ele>605.1</ele>
        <time>2017-06-01T10:20:02.000Z</time>
      </trkpt>
      <trkpt lat="43.48053" lon="2.2875">
        <ele>603.9</ele>
        <time>2017-06-01T10:20:03.000Z</time>
      </trkpt>
      <trkpt lat="43.48054" lon="2.28743">
        <ele>603.3</ele>
        <time>2017-06-01T10:20:04.000Z</time>
      </trkpt>
      <trkpt lat="43.48059" lon="2.28739">
        <ele>602.3</ele>
        <time>2017-06-01T10:20:06.000Z</time>
      </trkpt>
      <trkpt lat="43.48064" lon="2.28736">
        <ele>600.7</ele>
        <time>2017-06-01T10:20:07.000Z</time>
      </trkpt>
      <trkpt lat="43.4807" lon="2.28731">
        <ele>598.9</ele>
        <time>2017-06-01T10:20:09.000Z</time>
      </trkpt>
      <trkpt lat="43.48074" lon="2.28728">
        <ele>598.1</ele>
        <time>2017-06-01T10:20:10.000Z</time>
      </trkpt>
      <trkpt lat="43.48077" lon="2.28722">
        <ele>597</ele>
        <time>2017-06-01T10:20:11.000Z</time>
      </trkpt>
      <trkpt lat="43.48082" lon="2.28719">
        <ele>596.2</ele>
        <time>2017-06-01T10:20:12.000Z</time>
      </trkpt>
      <trkpt lat="43.4809" lon="2.28715">
        <ele>595.2</ele>
        <time>2017-06-01T10:20:13.000Z</time>
      </trkpt>
      <trkpt lat="43.48098" lon="2.2871">
        <ele>594.2</ele>
        <time>2017-06-01T10:20:14.000Z</time>
      </trkpt>
      <trkpt lat="43.48105" lon="2.28705">
        <ele>591.1</ele>
        <time>2017-06-01T10:20:15.000Z</time>
      </trkpt>
      <trkpt lat="43.48111" lon="2.287">
        <ele>586.6</ele>
        <time>2017-06-01T10:20:16.000Z</time>
      </trkpt>
      <trkpt lat="43.48116" lon="2.28697">
        <ele>583.1</ele>
        <time>2017-06-01T10:20:17.000Z</time>
      </trkpt>
      <trkpt lat="43.48124" lon="2.28695">
        <ele>581.3</ele>
        <time>2017-06-01T10:20:18.000Z</time>
      </trkpt>
      <trkpt lat="43.48128" lon="2.28694">
        <ele>580.3</ele>
        <time>2017-06-01T10:20:19.000Z</time>
      </trkpt>
      <trkpt lat="43.48133" lon="2.28694">
        <ele>579.5</ele>
        <time>2017-06-01T10:20:22.000Z</time>
      </trkpt>
      <trkpt lat="43.48137" lon="2.28695">
        <ele>578.5</ele>
        <time>2017-06-01T10:20:23.000Z</time>
      </trkpt>
      <trkpt lat="43.4814" lon="2.28697">
        <ele>578</ele>
        <time>2017-06-01T10:20:24.000Z</time>
      </trkpt>
      <trkpt lat="43.48144" lon="2.28696">
        <ele>577.5</ele>
        <time>2017-06-01T10:20:25.000Z</time>
      </trkpt>
      <trkpt lat="43.48149" lon="2.28693">
        <ele>576.6</ele>
        <time>2017-06-01T10:20:26.000Z</time>
      </trkpt>
      <trkpt lat="43.48156" lon="2.28691">
        <ele>575.9</ele>
        <time>2017-06-01T10:20:27.000Z</time>
      </trkpt>
      <trkpt lat="43.48162" lon="2.28688">
        <ele>575.3</ele>
        <time>2017-06-01T10:20:29.000Z</time>
      </trkpt>
      <trkpt lat="43.48169" lon="2.28685">
        <ele>574.9</ele>
        <time>2017-06-01T10:20:30.000Z</time>
      </trkpt>
      <trkpt lat="43.48174" lon="2.28684">
        <ele>574.6</ele>
        <time>2017-06-01T10:20:31.000Z</time>
      </trkpt>
      <trkpt lat="43.4818" lon="2.28683">
        <ele>574</ele>
        <time>2017-06-01T10:20:32.000Z</time>
      </trkpt>
      <trkpt lat="43.48187" lon="2.28678">
        <ele>573.3</ele>
        <time>2017-06-01T10:20:33.000Z</time>
      </trkpt>
      <trkpt lat="43.482" lon="2.28669">
        <ele>571.3</ele>
        <time>2017-06-01T10:20:34.000Z</time>
      </trkpt>
      <trkpt lat="43.48207" lon="2.28662">
        <ele>569.8</ele>
        <time>2017-06-01T10:20:35.000Z</time>
      </trkpt>
      <trkpt lat="43.48213" lon="2.28652">
        <ele>568.4</ele>
        <time>2017-06-01T10:20:36.000Z</time>
      </trkpt>
      <trkpt lat="43.48222" lon="2.28649">
        <ele>566.9</ele>
        <time>2017-06-01T10:20:37.000Z</time>
      </trkpt>
      <trkpt lat="43.48228" lon="2.28644">
        <ele>566.1</ele>
        <time>2017-06-01T10:20:38.000Z</time>
      </trkpt>
      <trkpt lat="43.48232" lon="2.28641">
        <ele>565.6</ele>
        <time>2017-06-01T10:20:39.000Z</time>
      </trkpt>
      <trkpt lat="43.48236" lon="2.28637">
        <ele>565</ele>
        <time>2017-06-01T10:20:40.000Z</time>
      </trkpt>
      <trkpt lat="43.48242" lon="2.28638">
        <ele>563.8</ele>
        <time>2017-06-01T10:20:42.000Z</time>
      </trkpt>
      <trkpt lat="43.48245" lon="2.28637">
        <ele>563.5</ele>
        <time>2017-06-01T10:20:43.000Z</time>
      </trkpt>
      <trkpt lat="43.48248" lon="2.28635">
        <ele>563.2</ele>
        <time>2017-06-01T10:20:44.000Z</time>
      </trkpt>
      <trkpt lat="43.48249" lon="2.2863">
        <ele>562.8</ele>
        <time>2017-06-01T10:20:45.000Z</time>
      </trkpt>
      <trkpt lat="43.48249" lon="2.28615">
        <ele>560.9</ele>
        <time>2017-06-01T10:20:46.000Z</time>
      </trkpt>
      <trkpt lat="43.48266" lon="2.28602">
        <ele>556.3</ele>
        <time>2017-06-01T10:20:47.000Z</time>
      </trkpt>
      <trkpt lat="43.4827" lon="2.28595">
        <ele>555.4</ele>
        <time>2017-06-01T10:20:48.000Z</time>
      </trkpt>
      <trkpt lat="43.48271" lon="2.2859">
        <ele>554.9</ele>
        <time>2017-06-01T10:20:49.000Z</time>
      </trkpt>
      <trkpt lat="43.48274" lon="2.2859">
        <ele>554.2</ele>
        <time>2017-06-01T10:20:50.000Z</time>
      </trkpt>
      <trkpt lat="43.48272" lon="2.28574">
        <ele>553</ele>
        <time>2017-06-01T10:20:51.000Z</time>
      </trkpt>
      <trkpt lat="43.48279" lon="2.28563">
        <ele>552</ele>
        <time>2017-06-01T10:20:52.000Z</time>
      </trkpt>
      <trkpt lat="43.48286" lon="2.28554">
        <ele>551.1</ele>
        <time>2017-06-01T10:20:53.000Z</time>
      </trkpt>
      <trkpt lat="43.48295" lon="2.28543">
        <ele>550.1</ele>
        <time>2017-06-01T10:20:54.000Z</time>
      </trkpt>
      <trkpt lat="43.48302" lon="2.28533">
        <ele>549.2</ele>
        <time>2017-06-01T10:20:55.000Z</time>
      </trkpt>
      <trkpt lat="43.48305" lon="2.28521">
        <ele>548</ele>
        <time>2017-06-01T10:20:56.000Z</time>
      </trkpt>
      <trkpt lat="43.48308" lon="2.28507">
        <ele>546.6</ele>
        <time>2017-06-01T10:20:57.000Z</time>
      </trkpt>
      <trkpt lat="43.4832" lon="2.28495">
        <ele>544.2</ele>
        <time>2017-06-01T10:20:58.000Z</time>
      </trkpt>
      <trkpt lat="43.48315" lon="2.28482">
        <ele>542.4</ele>
        <time>2017-06-01T10:21:00.000Z</time>
      </trkpt>
      <trkpt lat="43.48317" lon="2.28474">
        <ele>541.1</ele>
        <time>2017-06-01T10:21:01.000Z</time>
      </trkpt>
      <trkpt lat="43.48327" lon="2.28466">
        <ele>538.5</ele>
        <time>2017-06-01T10:21:02.000Z</time>
      </trkpt>
      <trkpt lat="43.48332" lon="2.28459">
        <ele>537</ele>
        <time>2017-06-01T10:21:03.000Z</time>
      </trkpt>
      <trkpt lat="43.48339" lon="2.28452">
        <ele>535.3</ele>
        <time>2017-06-01T10:21:04.000Z</time>
      </trkpt>
      <trkpt lat="43.48338" lon="2.28445">
        <ele>534.4</ele>
        <time>2017-06-01T10:21:05.000Z</time>
      </trkpt>
      <trkpt lat="43.48342" lon="2.28444">
        <ele>533.6</ele>
        <time>2017-06-01T10:21:07.000Z</time>
      </trkpt>
      <trkpt lat="43.48339" lon="2.28444">
        <ele>532.8</ele>
        <time>2017-06-01T10:21:10.000Z</time>
      </trkpt>
      <trkpt lat="43.48347" lon="2.28442">
        <ele>530.9</ele>
        <time>2017-06-01T10:21:12.000Z</time>
      </trkpt>
      <trkpt lat="43.4835" lon="2.28443">
        <ele>530.4</ele>
        <time>2017-06-01T10:21:14.000Z</time>
      </trkpt>
      <trkpt lat="43.48355" lon="2.28441">
        <ele>529.8</ele>
        <time>2017-06-01T10:21:20.000Z</time>
      </trkpt>
      <trkpt lat="43.48358" lon="2.28441">
        <ele>529.1</ele>
        <time>2017-06-01T10:21:23.000Z</time>
      </trkpt>
      <trkpt lat="43.48363" lon="2.28441">
        <ele>528.4</ele>
        <time>2017-06-01T10:21:25.000Z</time>
      </trkpt>
      <trkpt lat="43.48365" lon="2.28438">
        <ele>528</ele>
        <time>2017-06-01T10:21:26.000Z</time>
      </trkpt>
      <trkpt lat="43.48362" lon="2.28431">
        <ele>527.5</ele>
        <time>2017-06-01T10:21:28.000Z</time>
      </trkpt>
      <trkpt lat="43.48356" lon="2.28433">
        <ele>527.8</ele>
        <time>2017-06-01T10:21:32.000Z</time>
      </trkpt>
      <trkpt lat="43.48354" lon="2.28434">
        <ele>527.9</ele>
        <time>2017-06-01T10:21:33.000Z</time>
      </trkpt>
      <trkpt lat="43.48354" lon="2.28438">
        <ele>528</ele>
        <time>2017-06-01T10:21:36.000Z</time>
      </trkpt>
      <trkpt lat="43.48348" lon="2.28435">
        <ele>528.3</ele>
        <time>2017-06-01T10:21:39.000Z</time>
      </trkpt>
      <trkpt lat="43.48345" lon="2.28436">
        <ele>528.4</ele>
        <time>2017-06-01T10:21:40.000Z</time>
      </trkpt>
      <trkpt lat="43.4835" lon="2.28437">
        <ele>528.7</ele>
        <time>2017-06-01T10:21:43.000Z</time>
      </trkpt>
      <trkpt lat="43.48347" lon="2.28435">
        <ele>528.8</ele>
        <time>2017-06-01T10:21:44.000Z</time>
      </trkpt>
      <trkpt lat="43.48341" lon="2.28434">
        <ele>529.1</ele>
        <time>2017-06-01T10:21:45.000Z</time>
      </trkpt>
      <trkpt lat="43.4833" lon="2.28427">
        <ele>529.9</ele>
        <time>2017-06-01T10:21:50.000Z</time>
      </trkpt>
      <trkpt lat="43.48327" lon="2.28425">
        <ele>530</ele>
        <time>2017-06-01T10:21:51.000Z</time>
      </trkpt>
      <trkpt lat="43.48329" lon="2.28428">
        <ele>530.2</ele>
        <time>2017-06-01T10:21:53.000Z</time>
      </trkpt>
      <trkpt lat="43.48332" lon="2.28427">
        <ele>529.8</ele>
        <time>2017-06-01T10:21:55.000Z</time>
      </trkpt>
      <trkpt lat="43.48337" lon="2.28421">
        <ele>528.7</ele>
        <time>2017-06-01T10:21:57.000Z</time>
      </trkpt>
      <trkpt lat="43.48334" lon="2.28419">
        <ele>528.3</ele>
        <time>2017-06-01T10:21:58.000Z</time>
      </trkpt>
      <trkpt lat="43.48333" lon="2.28412">
        <ele>527.6</ele>
        <time>2017-06-01T10:21:59.000Z</time>
      </trkpt>
      <trkpt lat="43.48335" lon="2.28409">
        <ele>527</ele>
        <time>2017-06-01T10:22:00.000Z</time>
      </trkpt>
      <trkpt lat="43.48338" lon="2.28406">
        <ele>526.5</ele>
        <time>2017-06-01T10:22:01.000Z</time>
      </trkpt>
      <trkpt lat="43.48339" lon="2.28396">
        <ele>525.3</ele>
        <time>2017-06-01T10:22:02.000Z</time>
      </trkpt>
      <trkpt lat="43.4834" lon="2.2839">
        <ele>518.1</ele>
        <time>2017-06-01T10:22:03.000Z</time>
      </trkpt>
      <trkpt lat="43.48341" lon="2.28381">
        <ele>517.4</ele>
        <time>2017-06-01T10:22:04.000Z</time>
      </trkpt>
      <trkpt lat="43.48342" lon="2.28373">
        <ele>516.7</ele>
        <time>2017-06-01T10:22:05.000Z</time>
      </trkpt>
      <trkpt lat="43.48346" lon="2.28366">
        <ele>515.9</ele>
        <time>2017-06-01T10:22:06.000Z</time>
      </trkpt>
      <trkpt lat="43.4835" lon="2.28362">
        <ele>515.7</ele>
        <time>2017-06-01T10:22:07.000Z</time>
      </trkpt>
      <trkpt lat="43.48349" lon="2.28346">
        <ele>515.1</ele>
        <time>2017-06-01T10:22:08.000Z</time>
      </trkpt>
      <trkpt lat="43.48349" lon="2.28331">
        <ele>515</ele>
        <time>2017-06-01T10:22:09.000Z</time>
      </trkpt>
      <trkpt lat="43.48347" lon="2.28321">
        <ele>514.3</ele>
        <time>2017-06-01T10:22:10.000Z</time>
      </trkpt>
      <trkpt lat="43.48349" lon="2.28314">
        <ele>513.4</ele>
        <time>2017-06-01T10:22:11.000Z</time>
      </trkpt>
      <trkpt lat="43.4835" lon="2.28306">
        <ele>513.6</ele>
        <time>2017-06-01T10:22:12.000Z</time>
      </trkpt>
      <trkpt lat="43.48348" lon="2.28297">
        <ele>512.6</ele>
        <time>2017-06-01T10:22:13.000Z</time>
      </trkpt>
      <trkpt lat="43.48357" lon="2.28298">
        <ele>513.4</ele>
        <time>2017-06-01T10:22:14.000Z</time>
      </trkpt>
      <trkpt lat="43.48367" lon="2.28296">
        <ele>513.2</ele>
        <time>2017-06-01T10:22:15.000Z</time>
      </trkpt>
      <trkpt lat="43.48369" lon="2.28291">
        <ele>512.9</ele>
        <time>2017-06-01T10:22:16.000Z</time>
      </trkpt>
      <trkpt lat="43.48378" lon="2.28289">
        <ele>513.8</ele>
        <time>2017-06-01T10:22:17.000Z</time>
      </trkpt>
      <trkpt lat="43.48386" lon="2.28285">
        <ele>513.9</ele>
        <time>2017-06-01T10:22:18.000Z</time>
      </trkpt>
      <trkpt lat="43.48392" lon="2.28281">
        <ele>514</ele>
        <time>2017-06-01T10:22:19.000Z</time>
      </trkpt>
      <trkpt lat="43.48399" lon="2.28277">
        <ele>514.2</ele>
        <time>2017-06-01T10:22:20.000Z</time>
      </trkpt>
      <trkpt lat="43.48403" lon="2.28277">
        <ele>515.4</ele>
        <time>2017-06-01T10:22:21.000Z</time>
      </trkpt>
      <trkpt lat="43.48411" lon="2.28274">
        <ele>515.4</ele>
        <time>2017-06-01T10:22:22.000Z</time>
      </trkpt>
      <trkpt lat="43.48413" lon="2.28271">
        <ele>516.3</ele>
        <time>2017-06-01T10:22:23.000Z</time>
      </trkpt>
      <trkpt lat="43.48423" lon="2.28271">
        <ele>517.8</ele>
        <time>2017-06-01T10:22:24.000Z</time>
      </trkpt>
      <trkpt lat="43.48416" lon="2.28257">
        <ele>516.7</ele>
        <time>2017-06-01T10:22:25.000Z</time>
      </trkpt>
      <trkpt lat="43.48419" lon="2.28255">
        <ele>516.4</ele>
        <time>2017-06-01T10:22:27.000Z</time>
      </trkpt>
      <trkpt lat="43.48423" lon="2.28253">
        <ele>516</ele>
        <time>2017-06-01T10:22:28.000Z</time>
      </trkpt>
      <trkpt lat="43.48427" lon="2.28252">
        <ele>515.4</ele>
        <time>2017-06-01T10:22:29.000Z</time>
      </trkpt>
      <trkpt lat="43.48423" lon="2.28237">
        <ele>514.7</ele>
        <time>2017-06-01T10:22:30.000Z</time>
      </trkpt>
      <trkpt lat="43.48429" lon="2.28229">
        <ele>513.5</ele>
        <time>2017-06-01T10:22:31.000Z</time>
      </trkpt>
      <trkpt lat="43.48435" lon="2.28224">
        <ele>512.3</ele>
        <time>2017-06-01T10:22:32.000Z</time>
      </trkpt>
      <trkpt lat="43.48444" lon="2.2822">
        <ele>510.7</ele>
        <time>2017-06-01T10:22:33.000Z</time>
      </trkpt>
      <trkpt lat="43.48448" lon="2.28216">
        <ele>509.8</ele>
        <time>2017-06-01T10:22:34.000Z</time>
      </trkpt>
      <trkpt lat="43.48458" lon="2.2821">
        <ele>508.4</ele>
        <time>2017-06-01T10:22:35.000Z</time>
      </trkpt>
      <trkpt lat="43.48466" lon="2.28208">
        <ele>507.5</ele>
        <time>2017-06-01T10:22:36.000Z</time>
      </trkpt>
      <trkpt lat="43.48477" lon="2.28206">
        <ele>506.2</ele>
        <time>2017-06-01T10:22:37.000Z</time>
      </trkpt>
      <trkpt lat="43.48485" lon="2.28203">
        <ele>505.2</ele>
        <time>2017-06-01T10:22:38.000Z</time>
      </trkpt>
      <trkpt lat="43.48491" lon="2.282">
        <ele>504.3</ele>
        <time>2017-06-01T10:22:39.000Z</time>
      </trkpt>
      <trkpt lat="43.485" lon="2.28196">
        <ele>502.8</ele>
        <time>2017-06-01T10:22:40.000Z</time>
      </trkpt>
      <trkpt lat="43.48507" lon="2.28192">
        <ele>501.8</ele>
        <time>2017-06-01T10:22:41.000Z</time>
      </trkpt>
      <trkpt lat="43.48512" lon="2.28188">
        <ele>501</ele>
        <time>2017-06-01T10:22:42.000Z</time>
      </trkpt>
      <trkpt lat="43.48519" lon="2.28183">
        <ele>500.4</ele>
        <time>2017-06-01T10:22:43.000Z</time>
      </trkpt>
      <trkpt lat="43.48524" lon="2.28177">
        <ele>499.9</ele>
        <time>2017-06-01T10:22:44.000Z</time>
      </trkpt>
      <trkpt lat="43.48547" lon="2.28171">
        <ele>498.2</ele>
        <time>2017-06-01T10:22:46.000Z</time>
      </trkpt>
      <trkpt lat="43.48549" lon="2.28165">
        <ele>497.9</ele>
        <time>2017-06-01T10:22:47.000Z</time>
      </trkpt>
      <trkpt lat="43.48551" lon="2.28158">
        <ele>497.6</ele>
        <time>2017-06-01T10:22:48.000Z</time>
      </trkpt>
      <trkpt lat="43.48553" lon="2.28151">
        <ele>497.2</ele>
        <time>2017-06-01T10:22:49.000Z</time>
      </trkpt>
      <trkpt lat="43.48564" lon="2.28148">
        <ele>496.5</ele>
        <time>2017-06-01T10:22:50.000Z</time>
      </trkpt>
      <trkpt lat="43.48573" lon="2.2814">
        <ele>495.6</ele>
        <time>2017-06-01T10:22:51.000Z</time>
      </trkpt>
      <trkpt lat="43.48578" lon="2.28139">
        <ele>495.2</ele>
        <time>2017-06-01T10:22:53.000Z</time>
      </trkpt>
      <trkpt lat="43.48581" lon="2.28147">
        <ele>494.3</ele>
        <time>2017-06-01T10:22:54.000Z</time>
      </trkpt>
      <trkpt lat="43.48585" lon="2.28155">
        <ele>493.2</ele>
        <time>2017-06-01T10:22:55.000Z</time>
      </trkpt>
      <trkpt lat="43.48597" lon="2.28156">
        <ele>490.4</ele>
        <time>2017-06-01T10:22:56.000Z</time>
      </trkpt>
      <trkpt lat="43.48606" lon="2.28157">
        <ele>486.8</ele>
        <time>2017-06-01T10:22:58.000Z</time>
      </trkpt>
      <trkpt lat="43.48621" lon="2.28159">
        <ele>479.9</ele>
        <time>2017-06-01T10:22:59.000Z</time>
      </trkpt>
      <trkpt lat="43.48633" lon="2.28158">
        <ele>479.1</ele>
        <time>2017-06-01T10:23:00.000Z</time>
      </trkpt>
      <trkpt lat="43.48641" lon="2.28162">
        <ele>478.6</ele>
        <time>2017-06-01T10:23:02.000Z</time>
      </trkpt>
      <trkpt lat="43.48649" lon="2.28161">
        <ele>478</ele>
        <time>2017-06-01T10:23:03.000Z</time>
      </trkpt>
      <trkpt lat="43.48652" lon="2.28163">
        <ele>477.8</ele>
        <time>2017-06-01T10:23:04.000Z</time>
      </trkpt>
      <trkpt lat="43.48653" lon="2.28172">
        <ele>476.1</ele>
        <time>2017-06-01T10:23:05.000Z</time>
      </trkpt>
      <trkpt lat="43.48657" lon="2.28175">
        <ele>474.7</ele>
        <time>2017-06-01T10:23:07.000Z</time>
      </trkpt>
      <trkpt lat="43.48661" lon="2.28178">
        <ele>473.8</ele>
        <time>2017-06-01T10:23:08.000Z</time>
      </trkpt>
      <trkpt lat="43.48664" lon="2.28175">
        <ele>473.5</ele>
        <time>2017-06-01T10:23:09.000Z</time>
      </trkpt>
      <trkpt lat="43.4867" lon="2.28177">
        <ele>473</ele>
        <time>2017-06-01T10:23:11.000Z</time>
      </trkpt>
      <trkpt lat="43.48679" lon="2.28175">
        <ele>472.5</ele>
        <time>2017-06-01T10:23:13.000Z</time>
      </trkpt>
      <trkpt lat="43.48683" lon="2.28172">
        <ele>472.2</ele>
        <time>2017-06-01T10:23:14.000Z</time>
      </trkpt>
      <trkpt lat="43.48688" lon="2.28169">
        <ele>471.8</ele>
        <time>2017-06-01T10:23:15.000Z</time>
      </trkpt>
      <trkpt lat="43.48691" lon="2.28166">
        <ele>471.6</ele>
        <time>2017-06-01T10:23:16.000Z</time>
      </trkpt>
      <trkpt lat="43.48694" lon="2.28165">
        <ele>471.3</ele>
        <time>2017-06-01T10:23:17.000Z</time>
      </trkpt>
      <trkpt lat="43.48701" lon="2.28167">
        <ele>471.1</ele>
        <time>2017-06-01T10:23:18.000Z</time>
      </trkpt>
      <trkpt lat="43.48712" lon="2.28162">
        <ele>471.4</ele>
        <time>2017-06-01T10:23:19.000Z</time>
      </trkpt>
      <trkpt lat="43.4871" lon="2.28158">
        <ele>471.5</ele>
        <time>2017-06-01T10:23:20.000Z</time>
      </trkpt>
      <trkpt lat="43.48712" lon="2.28151">
        <ele>471.6</ele>
        <time>2017-06-01T10:23:21.000Z</time>
      </trkpt>
      <trkpt lat="43.48715" lon="2.28147">
        <ele>471.7</ele>
        <time>2017-06-01T10:23:22.000Z</time>
      </trkpt>
      <trkpt lat="43.48722" lon="2.2815">
        <ele>471.6</ele>
        <time>2017-06-01T10:23:23.000Z</time>
      </trkpt>
      <trkpt lat="43.48732" lon="2.28154">
        <ele>471.4</ele>
        <time>2017-06-01T10:23:24.000Z</time>
      </trkpt>
      <trkpt lat="43.48736" lon="2.28154">
        <ele>471.2</ele>
        <time>2017-06-01T10:23:25.000Z</time>
      </trkpt>
      <trkpt lat="43.48743" lon="2.28152">
        <ele>470.9</ele>
        <time>2017-06-01T10:23:26.000Z</time>
      </trkpt>
      <trkpt lat="43.48747" lon="2.28149">
        <ele>470.7</ele>
        <time>2017-06-01T10:23:27.000Z</time>
      </trkpt>
      <trkpt lat="43.48753" lon="2.28149">
        <ele>470.4</ele>
        <time>2017-06-01T10:23:28.000Z</time>
      </trkpt>
      <trkpt lat="43.48751" lon="2.28151">
        <ele>470</ele>
        <time>2017-06-01T10:23:29.000Z</time>
      </trkpt>
      <trkpt lat="43.4876" lon="2.28145">
        <ele>468.6</ele>
        <time>2017-06-01T10:23:30.000Z</time>
      </trkpt>
      <trkpt lat="43.48763" lon="2.28144">
        <ele>468</ele>
        <time>2017-06-01T10:23:31.000Z</time>
      </trkpt>
      <trkpt lat="43.48764" lon="2.28141">
        <ele>467.5</ele>
        <time>2017-06-01T10:23:32.000Z</time>
      </trkpt>
      <trkpt lat="43.48768" lon="2.28138">
        <ele>466.8</ele>
        <time>2017-06-01T10:23:33.000Z</time>
      </trkpt>
      <trkpt lat="43.48772" lon="2.28134">
        <ele>465.8</ele>
        <time>2017-06-01T10:23:34.000Z</time>
      </trkpt>
      <trkpt lat="43.48778" lon="2.28132">
        <ele>464.6</ele>
        <time>2017-06-01T10:23:35.000Z</time>
      </trkpt>
      <trkpt lat="43.48789" lon="2.28128">
        <ele>462.9</ele>
        <time>2017-06-01T10:23:36.000Z</time>
      </trkpt>
      <trkpt lat="43.48798" lon="2.28128">
        <ele>461.5</ele>
        <time>2017-06-01T10:23:37.000Z</time>
      </trkpt>
      <trkpt lat="43.48806" lon="2.28125">
        <ele>459.9</ele>
        <time>2017-06-01T10:23:38.000Z</time>
      </trkpt>
      <trkpt lat="43.4881" lon="2.28125">
        <ele>459</ele>
        <time>2017-06-01T10:23:40.000Z</time>
      </trkpt>
      <trkpt lat="43.48817" lon="2.28121">
        <ele>458</ele>
        <time>2017-06-01T10:23:41.000Z</time>
      </trkpt>
      <trkpt lat="43.48828" lon="2.28119">
        <ele>456.5</ele>
        <time>2017-06-01T10:23:42.000Z</time>
      </trkpt>
      <trkpt lat="43.48838" lon="2.2812">
        <ele>454.4</ele>
        <time>2017-06-01T10:23:43.000Z</time>
      </trkpt>
      <trkpt lat="43.48845" lon="2.28123">
        <ele>451.8</ele>
        <time>2017-06-01T10:23:44.000Z</time>
      </trkpt>
      <trkpt lat="43.48857" lon="2.28126">
        <ele>448</ele>
        <time>2017-06-01T10:23:45.000Z</time>
      </trkpt>
      <trkpt lat="43.48864" lon="2.28127">
        <ele>445.6</ele>
        <time>2017-06-01T10:23:46.000Z</time>
      </trkpt>
      <trkpt lat="43.4887" lon="2.28126">
        <ele>443.7</ele>
        <time>2017-06-01T10:23:47.000Z</time>
      </trkpt>
      <trkpt lat="43.48876" lon="2.28125">
        <ele>443</ele>
        <time>2017-06-01T10:23:48.000Z</time>
      </trkpt>
      <trkpt lat="43.4888" lon="2.28125">
        <ele>443</ele>
        <time>2017-06-01T10:23:49.000Z</time>
      </trkpt>
      <trkpt lat="43.48886" lon="2.28124">
        <ele>443</ele>
        <time>2017-06-01T10:23:50.000Z</time>
      </trkpt>
      <trkpt lat="43.48897" lon="2.28123">
        <ele>443</ele>
        <time>2017-06-01T10:23:51.000Z</time>
      </trkpt>
      <trkpt lat="43.48888" lon="2.2813">
        <ele>443</ele>
        <time>2017-06-01T10:23:52.000Z</time>
      </trkpt>
      <trkpt lat="43.489" lon="2.2813">
        <ele>443</ele>
        <time>2017-06-01T10:23:53.000Z</time>
      </trkpt>
      <trkpt lat="43.48895" lon="2.28134">
        <ele>443</ele>
        <time>2017-06-01T10:23:55.000Z</time>
      </trkpt>
      <trkpt lat="43.48891" lon="2.28135">
        <ele>443</ele>
        <time>2017-06-01T10:23:56.000Z</time>
      </trkpt>
      <trkpt lat="43.48887" lon="2.28134">
        <ele>443</ele>
        <time>2017-06-01T10:24:00.000Z</time>
      </trkpt>
      <trkpt lat="43.4889" lon="2.28135">
        <ele>443</ele>
        <time>2017-06-01T10:24:01.000Z</time>
      </trkpt>
      <trkpt lat="43.48887" lon="2.28134">
        <ele>443</ele>
        <time>2017-06-01T10:24:03.000Z</time>
      </trkpt>
      <trkpt lat="43.48884" lon="2.28138">
        <ele>443</ele>
        <time>2017-06-01T10:24:05.000Z</time>
      </trkpt>
      <trkpt lat="43.48885" lon="2.28136">
        <ele>443</ele>
        <time>2017-06-01T10:24:09.000Z</time>
      </trkpt>
      <trkpt lat="43.48884" lon="2.28133">
        <ele>443</ele>
        <time>2017-06-01T10:24:10.000Z</time>
      </trkpt>
      <trkpt lat="43.4893" lon="2.28124">
        <ele>443</ele>
        <time>2017-06-01T10:26:09.000Z</time>
      </trkpt>
      <trkpt lat="43.48893" lon="2.28143">
        <ele>443</ele>
        <time>2017-06-01T10:26:39.000Z</time>
      </trkpt>
      <trkpt lat="43.48889" lon="2.28145">
        <ele>442.6</ele>
        <time>2017-06-01T10:26:40.000Z</time>
      </trkpt>
      <trkpt lat="43.48894" lon="2.28141">
        <ele>442.3</ele>
        <time>2017-06-01T10:26:41.000Z</time>
      </trkpt>
      <trkpt lat="43.48901" lon="2.2814">
        <ele>441.7</ele>
        <time>2017-06-01T10:26:48.000Z</time>
      </trkpt>
      <trkpt lat="43.48905" lon="2.28136">
        <ele>441.3</ele>
        <time>2017-06-01T10:29:07.000Z</time>
      </trkpt>
      <trkpt lat="43.4891" lon="2.28133">
        <ele>441</ele>
        <time>2017-06-01T10:29:08.000Z</time>
      </trkpt>
      <trkpt lat="43.48919" lon="2.2814">
        <ele>440.1</ele>
        <time>2017-06-01T10:29:09.000Z</time>
      </trkpt>
      <trkpt lat="43.48924" lon="2.28138">
        <ele>439.6</ele>
        <time>2017-06-01T10:29:10.000Z</time>
      </trkpt>
      <trkpt lat="43.48927" lon="2.28134">
        <ele>439.2</ele>
        <time>2017-06-01T10:29:11.000Z</time>
      </trkpt>
      <trkpt lat="43.49094" lon="2.28181">
        <ele>417.1</ele>
        <time>2017-06-01T10:29:49.000Z</time>
      </trkpt>
      <trkpt lat="43.49094" lon="2.28174">
        <ele>414.4</ele>
        <time>2017-06-01T10:29:50.000Z</time>
      </trkpt>
      <trkpt lat="43.49098" lon="2.28179">
        <ele>410.7</ele>
        <time>2017-06-01T10:29:53.000Z</time>
      </trkpt>
      <trkpt lat="43.491" lon="2.2817">
        <ele>413.8</ele>
        <time>2017-06-01T10:29:54.000Z</time>
      </trkpt>
      <trkpt lat="43.49101" lon="2.28165">
        <ele>415.4</ele>
        <time>2017-06-01T10:29:55.000Z</time>
      </trkpt>
      <trkpt lat="43.49106" lon="2.28159">
        <ele>421.5</ele>
        <time>2017-06-01T10:29:56.000Z</time>
      </trkpt>
      <trkpt lat="43.49115" lon="2.28163">
        <ele>422.4</ele>
        <time>2017-06-01T10:29:57.000Z</time>
      </trkpt>
      <trkpt lat="43.49119" lon="2.2816">
        <ele>422.9</ele>
        <time>2017-06-01T10:29:58.000Z</time>
      </trkpt>
      <trkpt lat="43.49123" lon="2.28157">
        <ele>423.3</ele>
        <time>2017-06-01T10:30:00.000Z</time>
      </trkpt>
      <trkpt lat="43.49129" lon="2.28154">
        <ele>423.8</ele>
        <time>2017-06-01T10:30:01.000Z</time>
      </trkpt>
      <trkpt lat="43.49132" lon="2.28152">
        <ele>424.1</ele>
        <time>2017-06-01T10:30:04.000Z</time>
      </trkpt>
      <trkpt lat="43.49136" lon="2.28152">
        <ele>424.4</ele>
        <time>2017-06-01T10:30:06.000Z</time>
      </trkpt>
      <trkpt lat="43.49137" lon="2.28146">
        <ele>424.8</ele>
        <time>2017-06-01T10:30:07.000Z</time>
      </trkpt>
      <trkpt lat="43.49138" lon="2.28152">
        <ele>425.1</ele>
        <time>2017-06-01T10:30:08.000Z</time>
      </trkpt>
      <trkpt lat="43.49138" lon="2.28147">
        <ele>425.4</ele>
        <time>2017-06-01T10:30:09.000Z</time>
      </trkpt>
      <trkpt lat="43.49142" lon="2.28144">
        <ele>425.7</ele>
        <time>2017-06-01T10:30:10.000Z</time>
      </trkpt>
      <trkpt lat="43.49149" lon="2.28144">
        <ele>426.3</ele>
        <time>2017-06-01T10:30:14.000Z</time>
      </trkpt>
      <trkpt lat="43.49152" lon="2.28143">
        <ele>426.5</ele>
        <time>2017-06-01T10:30:18.000Z</time>
      </trkpt>
      <trkpt lat="43.49155" lon="2.28142">
        <ele>426.7</ele>
        <time>2017-06-01T10:30:19.000Z</time>
      </trkpt>
      <trkpt lat="43.49151" lon="2.28139">
        <ele>427.2</ele>
        <time>2017-06-01T10:30:22.000Z</time>
      </trkpt>
      <trkpt lat="43.49155" lon="2.28137">
        <ele>427.7</ele>
        <time>2017-06-01T10:30:25.000Z</time>
      </trkpt>
      <trkpt lat="43.49161" lon="2.28137">
        <ele>428</ele>
        <time>2017-06-01T10:30:26.000Z</time>
      </trkpt>
      <trkpt lat="43.49163" lon="2.28135">
        <ele>428.3</ele>
        <time>2017-06-01T10:30:27.000Z</time>
      </trkpt>
      <trkpt lat="43.49166" lon="2.28131">
        <ele>428.7</ele>
        <time>2017-06-01T10:30:29.000Z</time>
      </trkpt>
      <trkpt lat="43.49169" lon="2.28131">
        <ele>429.1</ele>
        <time>2017-06-01T10:30:30.000Z</time>
      </trkpt>
      <trkpt lat="43.49173" lon="2.28135">
        <ele>429.8</ele>
        <time>2017-06-01T10:30:34.000Z</time>
      </trkpt>
      <trkpt lat="43.49176" lon="2.28135">
        <ele>430</ele>
        <time>2017-06-01T10:30:36.000Z</time>
      </trkpt>
      <trkpt lat="43.49179" lon="2.28132">
        <ele>430.4</ele>
        <time>2017-06-01T10:30:38.000Z</time>
      </trkpt>
      <trkpt lat="43.49183" lon="2.28134">
        <ele>430.8</ele>
        <time>2017-06-01T10:30:39.000Z</time>
      </trkpt>
      <trkpt lat="43.49186" lon="2.28136">
        <ele>431</ele>
        <time>2017-06-01T10:30:43.000Z</time>
      </trkpt>
      <trkpt lat="43.49189" lon="2.28143">
        <ele>431.7</ele>
        <time>2017-06-01T10:30:45.000Z</time>
      </trkpt>
      <trkpt lat="43.49192" lon="2.28148">
        <ele>432.1</ele>
        <time>2017-06-01T10:30:46.000Z</time>
      </trkpt>
      <trkpt lat="43.49194" lon="2.28141">
        <ele>432.8</ele>
        <time>2017-06-01T10:30:48.000Z</time>
      </trkpt>
      <trkpt lat="43.49196" lon="2.28146">
        <ele>433.3</ele>
        <time>2017-06-01T10:30:50.000Z</time>
      </trkpt>
      <trkpt lat="43.492" lon="2.28147">
        <ele>433.6</ele>
        <time>2017-06-01T10:30:52.000Z</time>
      </trkpt>
      <trkpt lat="43.49203" lon="2.28145">
        <ele>433.8</ele>
        <time>2017-06-01T10:30:53.000Z</time>
      </trkpt>
      <trkpt lat="43.49206" lon="2.28147">
        <ele>434.2</ele>
        <time>2017-06-01T10:30:56.000Z</time>
      </trkpt>
      <trkpt lat="43.4921" lon="2.28147">
        <ele>434.6</ele>
        <time>2017-06-01T10:30:58.000Z</time>
      </trkpt>
      <trkpt lat="43.49215" lon="2.28145">
        <ele>435.1</ele>
        <time>2017-06-01T10:31:01.000Z</time>
      </trkpt>
      <trkpt lat="43.49219" lon="2.28144">
        <ele>435.4</ele>
        <time>2017-06-01T10:31:03.000Z</time>
      </trkpt>
      <trkpt lat="43.49223" lon="2.2814">
        <ele>435.8</ele>
        <time>2017-06-01T10:31:04.000Z</time>
      </trkpt>
      <trkpt lat="43.49224" lon="2.28145">
        <ele>436.1</ele>
        <time>2017-06-01T10:31:05.000Z</time>
      </trkpt>
      <trkpt lat="43.49227" lon="2.28143">
        <ele>436.5</ele>
        <time>2017-06-01T10:31:07.000Z</time>
      </trkpt>
      <trkpt lat="43.49228" lon="2.28147">
        <ele>436.7</ele>
        <time>2017-06-01T10:31:09.000Z</time>
      </trkpt>
      <trkpt lat="43.49233" lon="2.28146">
        <ele>437.1</ele>
        <time>2017-06-01T10:31:11.000Z</time>
      </trkpt>
      <trkpt lat="43.49232" lon="2.28152">
        <ele>437.6</ele>
        <time>2017-06-01T10:31:12.000Z</time>
      </trkpt>
      <trkpt lat="43.49236" lon="2.2815">
        <ele>438</ele>
        <time>2017-06-01T10:31:14.000Z</time>
      </trkpt>
      <trkpt lat="43.49239" lon="2.28151">
        <ele>438.2</ele>
        <time>2017-06-01T10:31:16.000Z</time>
      </trkpt>
      <trkpt lat="43.49237" lon="2.28145">
        <ele>438.6</ele>
        <time>2017-06-01T10:31:17.000Z</time>
      </trkpt>
      <trkpt lat="43.4924" lon="2.28144">
        <ele>438.8</ele>
        <time>2017-06-01T10:31:19.000Z</time>
      </trkpt>
      <trkpt lat="43.49244" lon="2.28143">
        <ele>439.1</ele>
        <time>2017-06-01T10:31:21.000Z</time>
      </trkpt>
      <trkpt lat="43.49247" lon="2.28142">
        <ele>439.3</ele>
        <time>2017-06-01T10:31:22.000Z</time>
      </trkpt>
      <trkpt lat="43.4925" lon="2.28147">
        <ele>439.6</ele>
        <time>2017-06-01T10:31:24.000Z</time>
      </trkpt>
      <trkpt lat="43.49254" lon="2.28146">
        <ele>440</ele>
        <time>2017-06-01T10:31:26.000Z</time>
      </trkpt>
      <trkpt lat="43.49258" lon="2.28144">
        <ele>440.4</ele>
        <time>2017-06-01T10:31:27.000Z</time>
      </trkpt>
      <trkpt lat="43.49258" lon="2.28149">
        <ele>440.8</ele>
        <time>2017-06-01T10:31:28.000Z</time>
      </trkpt>
      <trkpt lat="43.4926" lon="2.28152">
        <ele>441</ele>
        <time>2017-06-01T10:31:29.000Z</time>
      </trkpt>
      <trkpt lat="43.49264" lon="2.28151">
        <ele>441.4</ele>
        <time>2017-06-01T10:31:30.000Z</time>
      </trkpt>
      <trkpt lat="43.49269" lon="2.28146">
        <ele>441.9</ele>
        <time>2017-06-01T10:31:34.000Z</time>
      </trkpt>
      <trkpt lat="43.49273" lon="2.28148">
        <ele>442.2</ele>
        <time>2017-06-01T10:31:36.000Z</time>
      </trkpt>
      <trkpt lat="43.49271" lon="2.28152">
        <ele>442.4</ele>
        <time>2017-06-01T10:31:39.000Z</time>
      </trkpt>
      <trkpt lat="43.49273" lon="2.28154">
        <ele>442.6</ele>
        <time>2017-06-01T10:31:43.000Z</time>
      </trkpt>
      <trkpt lat="43.49277" lon="2.2815">
        <ele>443</ele>
        <time>2017-06-01T10:31:47.000Z</time>
      </trkpt>
      <trkpt lat="43.49281" lon="2.28151">
        <ele>443.3</ele>
        <time>2017-06-01T10:31:48.000Z</time>
      </trkpt>
      <trkpt lat="43.49282" lon="2.28158">
        <ele>443.6</ele>
        <time>2017-06-01T10:31:50.000Z</time>
      </trkpt>
      <trkpt lat="43.49285" lon="2.2816">
        <ele>443.8</ele>
        <time>2017-06-01T10:31:53.000Z</time>
      </trkpt>
      <trkpt lat="43.49287" lon="2.28163">
        <ele>444</ele>
        <time>2017-06-01T10:31:55.000Z</time>
      </trkpt>
      <trkpt lat="43.49289" lon="2.28161">
        <ele>444.2</ele>
        <time>2017-06-01T10:31:56.000Z</time>
      </trkpt>
      <trkpt lat="43.49292" lon="2.28161">
        <ele>444.5</ele>
        <time>2017-06-01T10:31:57.000Z</time>
      </trkpt>
      <trkpt lat="43.49296" lon="2.28162">
        <ele>444.8</ele>
        <time>2017-06-01T10:32:00.000Z</time>
      </trkpt>
      <trkpt lat="43.49296" lon="2.28167">
        <ele>445</ele>
        <time>2017-06-01T10:32:02.000Z</time>
      </trkpt>
      <trkpt lat="43.49299" lon="2.28167">
        <ele>445.1</ele>
        <time>2017-06-01T10:32:06.000Z</time>
      </trkpt>
      <trkpt lat="43.49299" lon="2.28173">
        <ele>445.4</ele>
        <time>2017-06-01T10:32:08.000Z</time>
      </trkpt>
      <trkpt lat="43.49298" lon="2.28178">
        <ele>445.7</ele>
        <time>2017-06-01T10:32:09.000Z</time>
      </trkpt>
      <trkpt lat="43.49298" lon="2.2819">
        <ele>446.5</ele>
        <time>2017-06-01T10:32:13.000Z</time>
      </trkpt>
      <trkpt lat="43.49297" lon="2.28194">
        <ele>446.6</ele>
        <time>2017-06-01T10:32:15.000Z</time>
      </trkpt>
      <trkpt lat="43.49296" lon="2.28197">
        <ele>446.8</ele>
        <time>2017-06-01T10:32:16.000Z</time>
      </trkpt>
      <trkpt lat="43.49296" lon="2.28204">
        <ele>447.1</ele>
        <time>2017-06-01T10:32:20.000Z</time>
      </trkpt>
      <trkpt lat="43.49299" lon="2.28207">
        <ele>447.5</ele>
        <time>2017-06-01T10:32:22.000Z</time>
      </trkpt>
      <trkpt lat="43.49305" lon="2.28205">
        <ele>450.8</ele>
        <time>2017-06-01T10:32:23.000Z</time>
      </trkpt>
      <trkpt lat="43.49307" lon="2.28199">
        <ele>452.5</ele>
        <time>2017-06-01T10:32:25.000Z</time>
      </trkpt>
      <trkpt lat="43.49306" lon="2.28207">
        <ele>449.4</ele>
        <time>2017-06-01T10:32:26.000Z</time>
      </trkpt>
      <trkpt lat="43.493" lon="2.28205">
        <ele>447.4</ele>
        <time>2017-06-01T10:32:27.000Z</time>
      </trkpt>
      <trkpt lat="43.49298" lon="2.28209">
        <ele>447.7</ele>
        <time>2017-06-01T10:32:28.000Z</time>
      </trkpt>
      <trkpt lat="43.49305" lon="2.28218">
        <ele>448.6</ele>
        <time>2017-06-01T10:32:30.000Z</time>
      </trkpt>
      <trkpt lat="43.49302" lon="2.28222">
        <ele>448.8</ele>
        <time>2017-06-01T10:32:31.000Z</time>
      </trkpt>
      <trkpt lat="43.49308" lon="2.28224">
        <ele>449.2</ele>
        <time>2017-06-01T10:32:34.000Z</time>
      </trkpt>
      <trkpt lat="43.49311" lon="2.28225">
        <ele>449.6</ele>
        <time>2017-06-01T10:32:35.000Z</time>
      </trkpt>
      <trkpt lat="43.49313" lon="2.28228">
        <ele>449.9</ele>
        <time>2017-06-01T10:32:37.000Z</time>
      </trkpt>
      <trkpt lat="43.49314" lon="2.28233">
        <ele>450.3</ele>
        <time>2017-06-01T10:32:38.000Z</time>
      </trkpt>
      <trkpt lat="43.49317" lon="2.28237">
        <ele>450.6</ele>
        <time>2017-06-01T10:32:40.000Z</time>
      </trkpt>
      <trkpt lat="43.49316" lon="2.28242">
        <ele>450.8</ele>
        <time>2017-06-01T10:32:44.000Z</time>
      </trkpt>
      <trkpt lat="43.49321" lon="2.28244">
        <ele>451.2</ele>
        <time>2017-06-01T10:32:46.000Z</time>
      </trkpt>
      <trkpt lat="43.49325" lon="2.28247">
        <ele>451.6</ele>
        <time>2017-06-01T10:32:51.000Z</time>
      </trkpt>
      <trkpt lat="43.49327" lon="2.28246">
        <ele>451.7</ele>
        <time>2017-06-01T10:32:52.000Z</time>
      </trkpt>
      <trkpt lat="43.49331" lon="2.28245">
        <ele>452.2</ele>
        <time>2017-06-01T10:32:53.000Z</time>
      </trkpt>
      <trkpt lat="43.49334" lon="2.28242">
        <ele>452.5</ele>
        <time>2017-06-01T10:32:54.000Z</time>
      </trkpt>
      <trkpt lat="43.49337" lon="2.28241">
        <ele>452.7</ele>
        <time>2017-06-01T10:32:55.000Z</time>
      </trkpt>
      <trkpt lat="43.49342" lon="2.2824">
        <ele>453.3</ele>
        <time>2017-06-01T10:32:57.000Z</time>
      </trkpt>
      <trkpt lat="43.49345" lon="2.28239">
        <ele>453.6</ele>
        <time>2017-06-01T10:32:58.000Z</time>
      </trkpt>
      <trkpt lat="43.49345" lon="2.28243">
        <ele>451.9</ele>
        <time>2017-06-01T10:32:59.000Z</time>
      </trkpt>
      <trkpt lat="43.49345" lon="2.28248">
        <ele>450.2</ele>
        <time>2017-06-01T10:33:00.000Z</time>
      </trkpt>
      <trkpt lat="43.49347" lon="2.28252">
        <ele>449.3</ele>
        <time>2017-06-01T10:33:04.000Z</time>
      </trkpt>
      <trkpt lat="43.49351" lon="2.28252">
        <ele>449.7</ele>
        <time>2017-06-01T10:33:05.000Z</time>
      </trkpt>
      <trkpt lat="43.49354" lon="2.28251">
        <ele>450</ele>
        <time>2017-06-01T10:33:06.000Z</time>
      </trkpt>
      <trkpt lat="43.49359" lon="2.28257">
        <ele>448.8</ele>
        <time>2017-06-01T10:33:07.000Z</time>
      </trkpt>
      <trkpt lat="43.49363" lon="2.28255">
        <ele>449.4</ele>
        <time>2017-06-01T10:33:10.000Z</time>
      </trkpt>
      <trkpt lat="43.49361" lon="2.28247">
        <ele>451.3</ele>
        <time>2017-06-01T10:33:12.000Z</time>
      </trkpt>
      <trkpt lat="43.49365" lon="2.28245">
        <ele>452.9</ele>
        <time>2017-06-01T10:33:13.000Z</time>
      </trkpt>
      <trkpt lat="43.49363" lon="2.28236">
        <ele>455.8</ele>
        <time>2017-06-01T10:33:14.000Z</time>
      </trkpt>
      <trkpt lat="43.49363" lon="2.28229">
        <ele>456.1</ele>
        <time>2017-06-01T10:33:15.000Z</time>
      </trkpt>
      <trkpt lat="43.49368" lon="2.28228">
        <ele>456.5</ele>
        <time>2017-06-01T10:33:17.000Z</time>
      </trkpt>
      <trkpt lat="43.49371" lon="2.28231">
        <ele>456.7</ele>
        <time>2017-06-01T10:33:19.000Z</time>
      </trkpt>
      <trkpt lat="43.49373" lon="2.28233">
        <ele>456.8</ele>
        <time>2017-06-01T10:33:20.000Z</time>
      </trkpt>
      <trkpt lat="43.49376" lon="2.28231">
        <ele>457.1</ele>
        <time>2017-06-01T10:33:21.000Z</time>
      </trkpt>
      <trkpt lat="43.49374" lon="2.28228">
        <ele>457.3</ele>
        <time>2017-06-01T10:33:23.000Z</time>
      </trkpt>
      <trkpt lat="43.49373" lon="2.28224">
        <ele>457.4</ele>
        <time>2017-06-01T10:33:25.000Z</time>
      </trkpt>
      <trkpt lat="43.49376" lon="2.28226">
        <ele>457.6</ele>
        <time>2017-06-01T10:33:27.000Z</time>
      </trkpt>
      <trkpt lat="43.49379" lon="2.28224">
        <ele>457.8</ele>
        <time>2017-06-01T10:33:28.000Z</time>
      </trkpt>
      <trkpt lat="43.49377" lon="2.28215">
        <ele>458.3</ele>
        <time>2017-06-01T10:33:29.000Z</time>
      </trkpt>
      <trkpt lat="43.4938" lon="2.28223">
        <ele>458.7</ele>
        <time>2017-06-01T10:33:31.000Z</time>
      </trkpt>
      <trkpt lat="43.49377" lon="2.28215">
        <ele>459.1</ele>
        <time>2017-06-01T10:33:34.000Z</time>
      </trkpt>
      <trkpt lat="43.4938" lon="2.28217">
        <ele>459.4</ele>
        <time>2017-06-01T10:33:36.000Z</time>
      </trkpt>
      <trkpt lat="43.49383" lon="2.28215">
        <ele>459.6</ele>
        <time>2017-06-01T10:33:37.000Z</time>
      </trkpt>
      <trkpt lat="43.49386" lon="2.28215">
        <ele>460</ele>
        <time>2017-06-01T10:33:38.000Z</time>
      </trkpt>
      <trkpt lat="43.49389" lon="2.28219">
        <ele>460.4</ele>
        <time>2017-06-01T10:33:40.000Z</time>
      </trkpt>
      <trkpt lat="43.49392" lon="2.28221">
        <ele>460.6</ele>
        <time>2017-06-01T10:33:41.000Z</time>
      </trkpt>
      <trkpt lat="43.49395" lon="2.28224">
        <ele>460.9</ele>
        <time>2017-06-01T10:33:42.000Z</time>
      </trkpt>
      <trkpt lat="43.49394" lon="2.2822">
        <ele>461.1</ele>
        <time>2017-06-01T10:33:47.000Z</time>
      </trkpt>
      <trkpt lat="43.49392" lon="2.28225">
        <ele>461.4</ele>
        <time>2017-06-01T10:33:48.000Z</time>
      </trkpt>
      <trkpt lat="43.49396" lon="2.28229">
        <ele>461.6</ele>
        <time>2017-06-01T10:33:51.000Z</time>
      </trkpt>
      <trkpt lat="43.49397" lon="2.28226">
        <ele>462</ele>
        <time>2017-06-01T10:33:53.000Z</time>
      </trkpt>
      <trkpt lat="43.49402" lon="2.28227">
        <ele>462.3</ele>
        <time>2017-06-01T10:33:54.000Z</time>
      </trkpt>
      <trkpt lat="43.49402" lon="2.28233">
        <ele>462.6</ele>
        <time>2017-06-01T10:33:56.000Z</time>
      </trkpt>
      <trkpt lat="43.49405" lon="2.2823">
        <ele>462.9</ele>
        <time>2017-06-01T10:33:57.000Z</time>
      </trkpt>
      <trkpt lat="43.49404" lon="2.28234">
        <ele>463.1</ele>
        <time>2017-06-01T10:33:58.000Z</time>
      </trkpt>
      <trkpt lat="43.49408" lon="2.28235">
        <ele>463.4</ele>
        <time>2017-06-01T10:34:00.000Z</time>
      </trkpt>
      <trkpt lat="43.49412" lon="2.28238">
        <ele>463.7</ele>
        <time>2017-06-01T10:34:02.000Z</time>
      </trkpt>
      <trkpt lat="43.49409" lon="2.28246">
        <ele>464.3</ele>
        <time>2017-06-01T10:34:07.000Z</time>
      </trkpt>
      <trkpt lat="43.49409" lon="2.2825">
        <ele>464.5</ele>
        <time>2017-06-01T10:34:08.000Z</time>
      </trkpt>
      <trkpt lat="43.4941" lon="2.28257">
        <ele>464.8</ele>
        <time>2017-06-01T10:34:14.000Z</time>
      </trkpt>
      <trkpt lat="43.49412" lon="2.2826">
        <ele>465</ele>
        <time>2017-06-01T10:34:16.000Z</time>
      </trkpt>
      <trkpt lat="43.49415" lon="2.28267">
        <ele>465.3</ele>
        <time>2017-06-01T10:34:19.000Z</time>
      </trkpt>
      <trkpt lat="43.49414" lon="2.28274">
        <ele>465.6</ele>
        <time>2017-06-01T10:34:21.000Z</time>
      </trkpt>
      <trkpt lat="43.49417" lon="2.28271">
        <ele>465.8</ele>
        <time>2017-06-01T10:34:23.000Z</time>
      </trkpt>
      <trkpt lat="43.49419" lon="2.28276">
        <ele>466</ele>
        <time>2017-06-01T10:34:25.000Z</time>
      </trkpt>
      <trkpt lat="43.4942" lon="2.28281">
        <ele>466.1</ele>
        <time>2017-06-01T10:34:26.000Z</time>
      </trkpt>
      <trkpt lat="43.49422" lon="2.28281">
        <ele>466.3</ele>
        <time>2017-06-01T10:34:28.000Z</time>
      </trkpt>
      <trkpt lat="43.49424" lon="2.28285">
        <ele>466.4</ele>
        <time>2017-06-01T10:34:30.000Z</time>
      </trkpt>
      <trkpt lat="43.49426" lon="2.28282">
        <ele>466.5</ele>
        <time>2017-06-01T10:34:32.000Z</time>
      </trkpt>
      <trkpt lat="43.49428" lon="2.2828">
        <ele>466.6</ele>
        <time>2017-06-01T10:34:33.000Z</time>
      </trkpt>
      <trkpt lat="43.49431" lon="2.28277">
        <ele>466.8</ele>
        <time>2017-06-01T10:34:34.000Z</time>
      </trkpt>
      <trkpt lat="43.49434" lon="2.28279">
        <ele>467</ele>
        <time>2017-06-01T10:34:35.000Z</time>
      </trkpt>
      <trkpt lat="43.49437" lon="2.2828">
        <ele>467.1</ele>
        <time>2017-06-01T10:34:37.000Z</time>
      </trkpt>
      <trkpt lat="43.4944" lon="2.28279">
        <ele>467.2</ele>
        <time>2017-06-01T10:34:39.000Z</time>
      </trkpt>
      <trkpt lat="43.49443" lon="2.28277">
        <ele>467.3</ele>
        <time>2017-06-01T10:34:41.000Z</time>
      </trkpt>
      <trkpt lat="43.49446" lon="2.28279">
        <ele>467.4</ele>
        <time>2017-06-01T10:34:43.000Z</time>
      </trkpt>
      <trkpt lat="43.4945" lon="2.28279">
        <ele>467.6</ele>
        <time>2017-06-01T10:34:44.000Z</time>
      </trkpt>
      <trkpt lat="43.49452" lon="2.28278">
        <ele>467.7</ele>
        <time>2017-06-01T10:34:47.000Z</time>
      </trkpt>
      <trkpt lat="43.49451" lon="2.28275">
        <ele>467.9</ele>
        <time>2017-06-01T10:34:48.000Z</time>
      </trkpt>
      <trkpt lat="43.49454" lon="2.28273">
        <ele>468.1</ele>
        <time>2017-06-01T10:34:49.000Z</time>
      </trkpt>
      <trkpt lat="43.49459" lon="2.28274">
        <ele>468.3</ele>
        <time>2017-06-01T10:34:51.000Z</time>
      </trkpt>
      <trkpt lat="43.49464" lon="2.28273">
        <ele>468.5</ele>
        <time>2017-06-01T10:34:53.000Z</time>
      </trkpt>
      <trkpt lat="43.49468" lon="2.28271">
        <ele>468.6</ele>
        <time>2017-06-01T10:34:55.000Z</time>
      </trkpt>
      <trkpt lat="43.49473" lon="2.28268">
        <ele>468.8</ele>
        <time>2017-06-01T10:34:59.000Z</time>
      </trkpt>
      <trkpt lat="43.49478" lon="2.28268">
        <ele>469.1</ele>
        <time>2017-06-01T10:35:01.000Z</time>
      </trkpt>
      <trkpt lat="43.49482" lon="2.28266">
        <ele>469.2</ele>
        <time>2017-06-01T10:35:03.000Z</time>
      </trkpt>
      <trkpt lat="43.49487" lon="2.28267">
        <ele>469.4</ele>
        <time>2017-06-01T10:35:06.000Z</time>
      </trkpt>
      <trkpt lat="43.4949" lon="2.28277">
        <ele>469.7</ele>
        <time>2017-06-01T10:35:08.000Z</time>
      </trkpt>
      <trkpt lat="43.49494" lon="2.28281">
        <ele>469.9</ele>
        <time>2017-06-01T10:35:09.000Z</time>
      </trkpt>
      <trkpt lat="43.49496" lon="2.28275">
        <ele>470.1</ele>
        <time>2017-06-01T10:35:13.000Z</time>
      </trkpt>
      <trkpt lat="43.49496" lon="2.28271">
        <ele>470.2</ele>
        <time>2017-06-01T10:35:14.000Z</time>
      </trkpt>
      <trkpt lat="43.49498" lon="2.28278">
        <ele>470.3</ele>
        <time>2017-06-01T10:35:15.000Z</time>
      </trkpt>
      <trkpt lat="43.49501" lon="2.28281">
        <ele>470.4</ele>
        <time>2017-06-01T10:35:16.000Z</time>
      </trkpt>
      <trkpt lat="43.49505" lon="2.28282">
        <ele>470.6</ele>
        <time>2017-06-01T10:35:17.000Z</time>
      </trkpt>
      <trkpt lat="43.49508" lon="2.28282">
        <ele>470.7</ele>
        <time>2017-06-01T10:35:19.000Z</time>
      </trkpt>
      <trkpt lat="43.4951" lon="2.28285">
        <ele>470.7</ele>
        <time>2017-06-01T10:35:22.000Z</time>
      </trkpt>
      <trkpt lat="43.49514" lon="2.2828">
        <ele>470.8</ele>
        <time>2017-06-01T10:35:24.000Z</time>
      </trkpt>
      <trkpt lat="43.49513" lon="2.28274">
        <ele>470.9</ele>
        <time>2017-06-01T10:35:25.000Z</time>
      </trkpt>
      <trkpt lat="43.49516" lon="2.28271">
        <ele>471</ele>
        <time>2017-06-01T10:35:28.000Z</time>
      </trkpt>
      <trkpt lat="43.49515" lon="2.28265">
        <ele>472.2</ele>
        <time>2017-06-01T10:35:29.000Z</time>
      </trkpt>
      <trkpt lat="43.49518" lon="2.28264">
        <ele>472.5</ele>
        <time>2017-06-01T10:35:31.000Z</time>
      </trkpt>
      <trkpt lat="43.49522" lon="2.28266">
        <ele>472.8</ele>
        <time>2017-06-01T10:35:32.000Z</time>
      </trkpt>
      <trkpt lat="43.49524" lon="2.28271">
        <ele>473.1</ele>
        <time>2017-06-01T10:35:33.000Z</time>
      </trkpt>
      <trkpt lat="43.49526" lon="2.28272">
        <ele>473.3</ele>
        <time>2017-06-01T10:35:34.000Z</time>
      </trkpt>
      <trkpt lat="43.4953" lon="2.28273">
        <ele>473.7</ele>
        <time>2017-06-01T10:35:36.000Z</time>
      </trkpt>
      <trkpt lat="43.49534" lon="2.28277">
        <ele>474.1</ele>
        <time>2017-06-01T10:35:37.000Z</time>
      </trkpt>
      <trkpt lat="43.49533" lon="2.28273">
        <ele>474.3</ele>
        <time>2017-06-01T10:35:39.000Z</time>
      </trkpt>
      <trkpt lat="43.49535" lon="2.28269">
        <ele>474.6</ele>
        <time>2017-06-01T10:35:43.000Z</time>
      </trkpt>
      <trkpt lat="43.49541" lon="2.2827">
        <ele>475</ele>
        <time>2017-06-01T10:35:45.000Z</time>
      </trkpt>
      <trkpt lat="43.49542" lon="2.28266">
        <ele>475.2</ele>
        <time>2017-06-01T10:35:47.000Z</time>
      </trkpt>
      <trkpt lat="43.49545" lon="2.28262">
        <ele>475.8</ele>
        <time>2017-06-01T10:35:49.000Z</time>
      </trkpt>
      <trkpt lat="43.49549" lon="2.28263">
        <ele>476.2</ele>
        <time>2017-06-01T10:35:50.000Z</time>
      </trkpt>
      <trkpt lat="43.49552" lon="2.2826">
        <ele>476.5</ele>
        <time>2017-06-01T10:35:52.000Z</time>
      </trkpt>
      <trkpt lat="43.49554" lon="2.28256">
        <ele>476.8</ele>
        <time>2017-06-01T10:35:54.000Z</time>
      </trkpt>
      <trkpt lat="43.49557" lon="2.28256">
        <ele>477.1</ele>
        <time>2017-06-01T10:35:56.000Z</time>
      </trkpt>
      <trkpt lat="43.4956" lon="2.28259">
        <ele>477.4</ele>
        <time>2017-06-01T10:36:00.000Z</time>
      </trkpt>
      <trkpt lat="43.49566" lon="2.28256">
        <ele>477.9</ele>
        <time>2017-06-01T10:36:03.000Z</time>
      </trkpt>
      <trkpt lat="43.49572" lon="2.28255">
        <ele>478.4</ele>
        <time>2017-06-01T10:36:04.000Z</time>
      </trkpt>
      <trkpt lat="43.49575" lon="2.28256">
        <ele>478.7</ele>
        <time>2017-06-01T10:36:06.000Z</time>
      </trkpt>
      <trkpt lat="43.49578" lon="2.28257">
        <ele>478.9</ele>
        <time>2017-06-01T10:36:07.000Z</time>
      </trkpt>
      <trkpt lat="43.49582" lon="2.28261">
        <ele>479.6</ele>
        <time>2017-06-01T10:36:08.000Z</time>
      </trkpt>
      <trkpt lat="43.49587" lon="2.28261">
        <ele>480</ele>
        <time>2017-06-01T10:36:10.000Z</time>
      </trkpt>
      <trkpt lat="43.49589" lon="2.28262">
        <ele>480.2</ele>
        <time>2017-06-01T10:36:12.000Z</time>
      </trkpt>
      <trkpt lat="43.49591" lon="2.28262">
        <ele>480.3</ele>
        <time>2017-06-01T10:36:15.000Z</time>
      </trkpt>
      <trkpt lat="43.49593" lon="2.28262">
        <ele>480.5</ele>
        <time>2017-06-01T10:36:18.000Z</time>
      </trkpt>
      <trkpt lat="43.49595" lon="2.28263">
        <ele>480.6</ele>
        <time>2017-06-01T10:36:19.000Z</time>
      </trkpt>
      <trkpt lat="43.49593" lon="2.28259">
        <ele>481.1</ele>
        <time>2017-06-01T10:36:21.000Z</time>
      </trkpt>
      <trkpt lat="43.49595" lon="2.28261">
        <ele>481.3</ele>
        <time>2017-06-01T10:36:24.000Z</time>
      </trkpt>
      <trkpt lat="43.49597" lon="2.28269">
        <ele>481.9</ele>
        <time>2017-06-01T10:36:26.000Z</time>
      </trkpt>
      <trkpt lat="43.496" lon="2.28276">
        <ele>482.8</ele>
        <time>2017-06-01T10:36:28.000Z</time>
      </trkpt>
      <trkpt lat="43.49603" lon="2.28278">
        <ele>483.3</ele>
        <time>2017-06-01T10:36:30.000Z</time>
      </trkpt>
      <trkpt lat="43.49605" lon="2.28282">
        <ele>483.6</ele>
        <time>2017-06-01T10:36:32.000Z</time>
      </trkpt>
      <trkpt lat="43.49602" lon="2.28286">
        <ele>484</ele>
        <time>2017-06-01T10:36:34.000Z</time>
      </trkpt>
      <trkpt lat="43.49605" lon="2.28285">
        <ele>484.3</ele>
        <time>2017-06-01T10:36:39.000Z</time>
      </trkpt>
      <trkpt lat="43.49608" lon="2.28282">
        <ele>484.8</ele>
        <time>2017-06-01T10:36:40.000Z</time>
      </trkpt>
      <trkpt lat="43.49612" lon="2.28286">
        <ele>485.3</ele>
        <time>2017-06-01T10:36:43.000Z</time>
      </trkpt>
      <trkpt lat="43.49613" lon="2.2829">
        <ele>485.6</ele>
        <time>2017-06-01T10:36:44.000Z</time>
      </trkpt>
      <trkpt lat="43.49616" lon="2.28292">
        <ele>486.2</ele>
        <time>2017-06-01T10:36:46.000Z</time>
      </trkpt>
      <trkpt lat="43.49621" lon="2.28294">
        <ele>486.8</ele>
        <time>2017-06-01T10:36:48.000Z</time>
      </trkpt>
      <trkpt lat="43.49625" lon="2.28298">
        <ele>487.4</ele>
        <time>2017-06-01T10:36:50.000Z</time>
      </trkpt>
      <trkpt lat="43.49626" lon="2.28301">
        <ele>487.8</ele>
        <time>2017-06-01T10:36:51.000Z</time>
      </trkpt>
      <trkpt lat="43.49629" lon="2.28302">
        <ele>488</ele>
        <time>2017-06-01T10:36:52.000Z</time>
      </trkpt>
      <trkpt lat="43.49633" lon="2.28302">
        <ele>488.6</ele>
        <time>2017-06-01T10:36:54.000Z</time>
      </trkpt>
      <trkpt lat="43.49635" lon="2.28305">
        <ele>489</ele>
        <time>2017-06-01T10:36:55.000Z</time>
      </trkpt>
      <trkpt lat="43.49637" lon="2.2831">
        <ele>489.6</ele>
        <time>2017-06-01T10:36:57.000Z</time>
      </trkpt>
      <trkpt lat="43.4964" lon="2.28313">
        <ele>490.1</ele>
        <time>2017-06-01T10:37:00.000Z</time>
      </trkpt>
      <trkpt lat="43.49643" lon="2.28319">
        <ele>490.6</ele>
        <time>2017-06-01T10:37:01.000Z</time>
      </trkpt>
      <trkpt lat="43.49645" lon="2.28322">
        <ele>490.9</ele>
        <time>2017-06-01T10:37:03.000Z</time>
      </trkpt>
      <trkpt lat="43.49647" lon="2.28326">
        <ele>491.5</ele>
        <time>2017-06-01T10:37:05.000Z</time>
      </trkpt>
      <trkpt lat="43.49648" lon="2.28334">
        <ele>492.2</ele>
        <time>2017-06-01T10:37:08.000Z</time>
      </trkpt>
      <trkpt lat="43.49653" lon="2.28339">
        <ele>492.9</ele>
        <time>2017-06-01T10:37:12.000Z</time>
      </trkpt>
      <trkpt lat="43.49657" lon="2.28341">
        <ele>493.4</ele>
        <time>2017-06-01T10:37:15.000Z</time>
      </trkpt>
      <trkpt lat="43.49661" lon="2.28345">
        <ele>493.7</ele>
        <time>2017-06-01T10:37:17.000Z</time>
      </trkpt>
      <trkpt lat="43.49665" lon="2.28347">
        <ele>494.3</ele>
        <time>2017-06-01T10:37:19.000Z</time>
      </trkpt>
      <trkpt lat="43.4967" lon="2.28348">
        <ele>494.8</ele>
        <time>2017-06-01T10:37:20.000Z</time>
      </trkpt>
      <trkpt lat="43.49674" lon="2.28352">
        <ele>495.4</ele>
        <time>2017-06-01T10:37:22.000Z</time>
      </trkpt>
      <trkpt lat="43.49675" lon="2.28342">
        <ele>495.9</ele>
        <time>2017-06-01T10:37:24.000Z</time>
      </trkpt>
      <trkpt lat="43.49679" lon="2.28344">
        <ele>496.4</ele>
        <time>2017-06-01T10:37:25.000Z</time>
      </trkpt>
      <trkpt lat="43.49678" lon="2.28348">
        <ele>496.7</ele>
        <time>2017-06-01T10:37:26.000Z</time>
      </trkpt>
      <trkpt lat="43.49678" lon="2.28341">
        <ele>497.5</ele>
        <time>2017-06-01T10:37:27.000Z</time>
      </trkpt>
      <trkpt lat="43.49681" lon="2.28339">
        <ele>497.8</ele>
        <time>2017-06-01T10:37:28.000Z</time>
      </trkpt>
      <trkpt lat="43.49684" lon="2.28339">
        <ele>498</ele>
        <time>2017-06-01T10:37:30.000Z</time>
      </trkpt>
      <trkpt lat="43.49681" lon="2.28338">
        <ele>498.3</ele>
        <time>2017-06-01T10:37:34.000Z</time>
      </trkpt>
      <trkpt lat="43.49679" lon="2.28334">
        <ele>498.6</ele>
        <time>2017-06-01T10:37:35.000Z</time>
      </trkpt>
      <trkpt lat="43.49673" lon="2.28335">
        <ele>499.1</ele>
        <time>2017-06-01T10:37:37.000Z</time>
      </trkpt>
      <trkpt lat="43.49678" lon="2.28335">
        <ele>499.5</ele>
        <time>2017-06-01T10:37:39.000Z</time>
      </trkpt>
      <trkpt lat="43.49675" lon="2.2833">
        <ele>500.1</ele>
        <time>2017-06-01T10:37:43.000Z</time>
      </trkpt>
      <trkpt lat="43.49673" lon="2.28327">
        <ele>500.4</ele>
        <time>2017-06-01T10:37:45.000Z</time>
      </trkpt>
      <trkpt lat="43.4967" lon="2.28325">
        <ele>500.8</ele>
        <time>2017-06-01T10:37:46.000Z</time>
      </trkpt>
      <trkpt lat="43.49674" lon="2.28319">
        <ele>501.4</ele>
        <time>2017-06-01T10:37:48.000Z</time>
      </trkpt>
      <trkpt lat="43.49675" lon="2.28316">
        <ele>501.8</ele>
        <time>2017-06-01T10:37:53.000Z</time>
      </trkpt>
      <trkpt lat="43.49677" lon="2.28313">
        <ele>502.1</ele>
        <time>2017-06-01T10:37:54.000Z</time>
      </trkpt>
      <trkpt lat="43.49674" lon="2.28308">
        <ele>502.8</ele>
        <time>2017-06-01T10:37:55.000Z</time>
      </trkpt>
      <trkpt lat="43.4967" lon="2.28306">
        <ele>503.2</ele>
        <time>2017-06-01T10:37:56.000Z</time>
      </trkpt>
      <trkpt lat="43.49668" lon="2.28299">
        <ele>503.7</ele>
        <time>2017-06-01T10:37:58.000Z</time>
      </trkpt>
      <trkpt lat="43.49668" lon="2.28294">
        <ele>504.1</ele>
        <time>2017-06-01T10:37:59.000Z</time>
      </trkpt>
      <trkpt lat="43.49664" lon="2.28295">
        <ele>504.5</ele>
        <time>2017-06-01T10:38:00.000Z</time>
      </trkpt>
      <trkpt lat="43.49663" lon="2.28288">
        <ele>505.2</ele>
        <time>2017-06-01T10:38:02.000Z</time>
      </trkpt>
      <trkpt lat="43.49662" lon="2.28285">
        <ele>505.5</ele>
        <time>2017-06-01T10:38:04.000Z</time>
      </trkpt>
      <trkpt lat="43.49663" lon="2.2828">
        <ele>505.8</ele>
        <time>2017-06-01T10:38:06.000Z</time>
      </trkpt>
      <trkpt lat="43.49658" lon="2.28276">
        <ele>506.4</ele>
        <time>2017-06-01T10:38:10.000Z</time>
      </trkpt>
      <trkpt lat="43.49657" lon="2.28271">
        <ele>506.6</ele>
        <time>2017-06-01T10:38:12.000Z</time>
      </trkpt>
      <trkpt lat="43.49658" lon="2.28266">
        <ele>506.8</ele>
        <time>2017-06-01T10:38:14.000Z</time>
      </trkpt>
      <trkpt lat="43.49656" lon="2.28262">
        <ele>507.2</ele>
        <time>2017-06-01T10:38:15.000Z</time>
      </trkpt>
      <trkpt lat="43.49656" lon="2.28257">
        <ele>507.5</ele>
        <time>2017-06-01T10:38:17.000Z</time>
      </trkpt>
      <trkpt lat="43.49656" lon="2.28249">
        <ele>507.8</ele>
        <time>2017-06-01T10:38:19.000Z</time>
      </trkpt>
      <trkpt lat="43.49655" lon="2.28244">
        <ele>508</ele>
        <time>2017-06-01T10:38:21.000Z</time>
      </trkpt>
      <trkpt lat="43.49657" lon="2.28239">
        <ele>508.4</ele>
        <time>2017-06-01T10:38:24.000Z</time>
      </trkpt>
      <trkpt lat="43.4966" lon="2.28237">
        <ele>508.7</ele>
        <time>2017-06-01T10:38:26.000Z</time>
      </trkpt>
      <trkpt lat="43.49659" lon="2.28232">
        <ele>509</ele>
        <time>2017-06-01T10:38:27.000Z</time>
      </trkpt>
      <trkpt lat="43.49662" lon="2.28229">
        <ele>509.4</ele>
        <time>2017-06-01T10:38:29.000Z</time>
      </trkpt>
      <trkpt lat="43.49661" lon="2.28223">
        <ele>509.9</ele>
        <time>2017-06-01T10:38:31.000Z</time>
      </trkpt>
      <trkpt lat="43.4966" lon="2.28219">
        <ele>510.2</ele>
        <time>2017-06-01T10:38:33.000Z</time>
      </trkpt>
      <trkpt lat="43.49657" lon="2.28214">
        <ele>510.6</ele>
        <time>2017-06-01T10:38:35.000Z</time>
      </trkpt>
      <trkpt lat="43.49655" lon="2.28209">
        <ele>511.1</ele>
        <time>2017-06-01T10:38:37.000Z</time>
      </trkpt>
      <trkpt lat="43.49651" lon="2.28205">
        <ele>511.7</ele>
        <time>2017-06-01T10:38:39.000Z</time>
      </trkpt>
      <trkpt lat="43.49648" lon="2.28204">
        <ele>511.9</ele>
        <time>2017-06-01T10:38:40.000Z</time>
      </trkpt>
      <trkpt lat="43.49645" lon="2.28201">
        <ele>512.1</ele>
        <time>2017-06-01T10:38:42.000Z</time>
      </trkpt>
      <trkpt lat="43.49642" lon="2.28199">
        <ele>512.4</ele>
        <time>2017-06-01T10:38:43.000Z</time>
      </trkpt>
      <trkpt lat="43.49641" lon="2.28195">
        <ele>512.8</ele>
        <time>2017-06-01T10:38:44.000Z</time>
      </trkpt>
      <trkpt lat="43.49644" lon="2.28191">
        <ele>513.1</ele>
        <time>2017-06-01T10:38:46.000Z</time>
      </trkpt>
      <trkpt lat="43.49643" lon="2.28187">
        <ele>513.4</ele>
        <time>2017-06-01T10:38:48.000Z</time>
      </trkpt>
      <trkpt lat="43.4964" lon="2.28181">
        <ele>514</ele>
        <time>2017-06-01T10:38:50.000Z</time>
      </trkpt>
      <trkpt lat="43.49637" lon="2.2818">
        <ele>514.2</ele>
        <time>2017-06-01T10:38:51.000Z</time>
      </trkpt>
      <trkpt lat="43.49637" lon="2.28175">
        <ele>514.5</ele>
        <time>2017-06-01T10:38:53.000Z</time>
      </trkpt>
      <trkpt lat="43.49634" lon="2.28171">
        <ele>514.8</ele>
        <time>2017-06-01T10:38:55.000Z</time>
      </trkpt>
      <trkpt lat="43.49633" lon="2.28166">
        <ele>515.2</ele>
        <time>2017-06-01T10:38:57.000Z</time>
      </trkpt>
      <trkpt lat="43.49632" lon="2.2816">
        <ele>515.5</ele>
        <time>2017-06-01T10:38:59.000Z</time>
      </trkpt>
      <trkpt lat="43.49628" lon="2.28155">
        <ele>515.8</ele>
        <time>2017-06-01T10:39:01.000Z</time>
      </trkpt>
      <trkpt lat="43.49628" lon="2.28151">
        <ele>516</ele>
        <time>2017-06-01T10:39:04.000Z</time>
      </trkpt>
      <trkpt lat="43.49627" lon="2.28146">
        <ele>516.4</ele>
        <time>2017-06-01T10:39:07.000Z</time>
      </trkpt>
      <trkpt lat="43.49628" lon="2.28141">
        <ele>516.7</ele>
        <time>2017-06-01T10:39:09.000Z</time>
      </trkpt>
      <trkpt lat="43.49625" lon="2.28138">
        <ele>517</ele>
        <time>2017-06-01T10:39:10.000Z</time>
      </trkpt>
      <trkpt lat="43.49625" lon="2.28132">
        <ele>517.4</ele>
        <time>2017-06-01T10:39:14.000Z</time>
      </trkpt>
      <trkpt lat="43.49623" lon="2.28127">
        <ele>517.8</ele>
        <time>2017-06-01T10:39:16.000Z</time>
      </trkpt>
      <trkpt lat="43.49621" lon="2.28118">
        <ele>518.3</ele>
        <time>2017-06-01T10:39:18.000Z</time>
      </trkpt>
      <trkpt lat="43.4962" lon="2.28115">
        <ele>518.6</ele>
        <time>2017-06-01T10:39:19.000Z</time>
      </trkpt>
      <trkpt lat="43.49617" lon="2.28111">
        <ele>518.9</ele>
        <time>2017-06-01T10:39:22.000Z</time>
      </trkpt>
      <trkpt lat="43.49616" lon="2.28107">
        <ele>519.3</ele>
        <time>2017-06-01T10:39:24.000Z</time>
      </trkpt>
      <trkpt lat="43.49615" lon="2.28103">
        <ele>519.5</ele>
        <time>2017-06-01T10:39:26.000Z</time>
      </trkpt>
      <trkpt lat="43.49613" lon="2.281">
        <ele>520.2</ele>
        <time>2017-06-01T10:39:28.000Z</time>
      </trkpt>
      <trkpt lat="43.4961" lon="2.28095">
        <ele>520.5</ele>
        <time>2017-06-01T10:39:30.000Z</time>
      </trkpt>
      <trkpt lat="43.49607" lon="2.28092">
        <ele>520.8</ele>
        <time>2017-06-01T10:39:31.000Z</time>
      </trkpt>
      <trkpt lat="43.49606" lon="2.28085">
        <ele>521.3</ele>
        <time>2017-06-01T10:39:32.000Z</time>
      </trkpt>
      <trkpt lat="43.49604" lon="2.2808">
        <ele>521.8</ele>
        <time>2017-06-01T10:39:34.000Z</time>
      </trkpt>
      <trkpt lat="43.49607" lon="2.2808">
        <ele>522.2</ele>
        <time>2017-06-01T10:39:36.000Z</time>
      </trkpt>
      <trkpt lat="43.49602" lon="2.28077">
        <ele>522.8</ele>
        <time>2017-06-01T10:39:38.000Z</time>
      </trkpt>
      <trkpt lat="43.496" lon="2.2807">
        <ele>523.4</ele>
        <time>2017-06-01T10:39:42.000Z</time>
      </trkpt>
      <trkpt lat="43.49602" lon="2.28072">
        <ele>523.7</ele>
        <time>2017-06-01T10:39:44.000Z</time>
      </trkpt>
      <trkpt lat="43.49604" lon="2.28068">
        <ele>524.2</ele>
        <time>2017-06-01T10:39:45.000Z</time>
      </trkpt>
      <trkpt lat="43.49601" lon="2.28064">
        <ele>524.7</ele>
        <time>2017-06-01T10:39:47.000Z</time>
      </trkpt>
      <trkpt lat="43.49595" lon="2.2806">
        <ele>525.7</ele>
        <time>2017-06-01T10:39:49.000Z</time>
      </trkpt>
      <trkpt lat="43.49592" lon="2.28057">
        <ele>526</ele>
        <time>2017-06-01T10:39:50.000Z</time>
      </trkpt>
      <trkpt lat="43.49592" lon="2.2805">
        <ele>526.4</ele>
        <time>2017-06-01T10:39:53.000Z</time>
      </trkpt>
      <trkpt lat="43.49588" lon="2.2805">
        <ele>526.8</ele>
        <time>2017-06-01T10:39:56.000Z</time>
      </trkpt>
      <trkpt lat="43.49585" lon="2.28049">
        <ele>527.1</ele>
        <time>2017-06-01T10:39:57.000Z</time>
      </trkpt>
      <trkpt lat="43.49582" lon="2.28046">
        <ele>527.4</ele>
        <time>2017-06-01T10:39:58.000Z</time>
      </trkpt>
      <trkpt lat="43.4958" lon="2.28046">
        <ele>527.8</ele>
        <time>2017-06-01T10:39:59.000Z</time>
      </trkpt>
      <trkpt lat="43.49577" lon="2.28044">
        <ele>528.1</ele>
        <time>2017-06-01T10:40:00.000Z</time>
      </trkpt>
      <trkpt lat="43.49575" lon="2.28043">
        <ele>528.4</ele>
        <time>2017-06-01T10:40:01.000Z</time>
      </trkpt>
      <trkpt lat="43.49573" lon="2.28038">
        <ele>528.7</ele>
        <time>2017-06-01T10:40:03.000Z</time>
      </trkpt>
      <trkpt lat="43.49575" lon="2.28034">
        <ele>529</ele>
        <time>2017-06-01T10:40:04.000Z</time>
      </trkpt>
      <trkpt lat="43.49574" lon="2.28025">
        <ele>529.7</ele>
        <time>2017-06-01T10:40:06.000Z</time>
      </trkpt>
      <trkpt lat="43.49576" lon="2.28021">
        <ele>530.1</ele>
        <time>2017-06-01T10:40:07.000Z</time>
      </trkpt>
      <trkpt lat="43.49572" lon="2.28018">
        <ele>530.7</ele>
        <time>2017-06-01T10:40:09.000Z</time>
      </trkpt>
      <trkpt lat="43.49571" lon="2.28015">
        <ele>531.1</ele>
        <time>2017-06-01T10:40:10.000Z</time>
      </trkpt>
      <trkpt lat="43.49568" lon="2.28015">
        <ele>531.4</ele>
        <time>2017-06-01T10:40:11.000Z</time>
      </trkpt>
      <trkpt lat="43.49565" lon="2.28011">
        <ele>531.8</ele>
        <time>2017-06-01T10:40:13.000Z</time>
      </trkpt>
      <trkpt lat="43.49561" lon="2.28009">
        <ele>532.1</ele>
        <time>2017-06-01T10:40:15.000Z</time>
      </trkpt>
      <trkpt lat="43.4956" lon="2.28013">
        <ele>532.3</ele>
        <time>2017-06-01T10:40:16.000Z</time>
      </trkpt>
      <trkpt lat="43.49556" lon="2.28012">
        <ele>532.6</ele>
        <time>2017-06-01T10:40:19.000Z</time>
      </trkpt>
      <trkpt lat="43.49555" lon="2.28009">
        <ele>533.1</ele>
        <time>2017-06-01T10:40:20.000Z</time>
      </trkpt>
      <trkpt lat="43.49554" lon="2.28005">
        <ele>533.3</ele>
        <time>2017-06-01T10:40:23.000Z</time>
      </trkpt>
      <trkpt lat="43.4955" lon="2.28007">
        <ele>533.6</ele>
        <time>2017-06-01T10:40:25.000Z</time>
      </trkpt>
      <trkpt lat="43.49547" lon="2.28007">
        <ele>533.9</ele>
        <time>2017-06-01T10:40:26.000Z</time>
      </trkpt>
      <trkpt lat="43.49545" lon="2.28001">
        <ele>534.4</ele>
        <time>2017-06-01T10:40:28.000Z</time>
      </trkpt>
      <trkpt lat="43.49539" lon="2.27999">
        <ele>535.1</ele>
        <time>2017-06-01T10:40:30.000Z</time>
      </trkpt>
      <trkpt lat="43.49537" lon="2.27996">
        <ele>535.3</ele>
        <time>2017-06-01T10:40:32.000Z</time>
      </trkpt>
      <trkpt lat="43.49541" lon="2.27995">
        <ele>535.7</ele>
        <time>2017-06-01T10:40:35.000Z</time>
      </trkpt>
      <trkpt lat="43.49539" lon="2.27993">
        <ele>536</ele>
        <time>2017-06-01T10:40:37.000Z</time>
      </trkpt>
      <trkpt lat="43.49538" lon="2.27989">
        <ele>536.3</ele>
        <time>2017-06-01T10:40:38.000Z</time>
      </trkpt>
      <trkpt lat="43.49536" lon="2.27987">
        <ele>536.6</ele>
        <time>2017-06-01T10:40:39.000Z</time>
      </trkpt>
      <trkpt lat="43.49532" lon="2.27983">
        <ele>537.2</ele>
        <time>2017-06-01T10:40:42.000Z</time>
      </trkpt>
      <trkpt lat="43.49528" lon="2.27982">
        <ele>537.6</ele>
        <time>2017-06-01T10:40:43.000Z</time>
      </trkpt>
      <trkpt lat="43.49525" lon="2.2798">
        <ele>537.9</ele>
        <time>2017-06-01T10:40:44.000Z</time>
      </trkpt>
      <trkpt lat="43.49527" lon="2.27975">
        <ele>538.2</ele>
        <time>2017-06-01T10:40:48.000Z</time>
      </trkpt>
      <trkpt lat="43.49525" lon="2.27972">
        <ele>538.5</ele>
        <time>2017-06-01T10:40:50.000Z</time>
      </trkpt>
      <trkpt lat="43.49519" lon="2.27972">
        <ele>539</ele>
        <time>2017-06-01T10:40:52.000Z</time>
      </trkpt>
      <trkpt lat="43.49515" lon="2.2797">
        <ele>539.4</ele>
        <time>2017-06-01T10:40:54.000Z</time>
      </trkpt>
      <trkpt lat="43.49512" lon="2.2797">
        <ele>539.9</ele>
        <time>2017-06-01T10:40:55.000Z</time>
      </trkpt>
      <trkpt lat="43.4951" lon="2.27967">
        <ele>540.4</ele>
        <time>2017-06-01T10:40:57.000Z</time>
      </trkpt>
      <trkpt lat="43.49507" lon="2.27961">
        <ele>540.7</ele>
        <time>2017-06-01T10:40:59.000Z</time>
      </trkpt>
      <trkpt lat="43.49504" lon="2.27958">
        <ele>541</ele>
        <time>2017-06-01T10:41:00.000Z</time>
      </trkpt>
      <trkpt lat="43.49502" lon="2.27952">
        <ele>541.4</ele>
        <time>2017-06-01T10:41:04.000Z</time>
      </trkpt>
      <trkpt lat="43.49503" lon="2.27949">
        <ele>541.6</ele>
        <time>2017-06-01T10:41:06.000Z</time>
      </trkpt>
      <trkpt lat="43.495" lon="2.27948">
        <ele>541.8</ele>
        <time>2017-06-01T10:41:08.000Z</time>
      </trkpt>
      <trkpt lat="43.49495" lon="2.2795">
        <ele>542</ele>
        <time>2017-06-01T10:41:10.000Z</time>
      </trkpt>
      <trkpt lat="43.49491" lon="2.2795">
        <ele>542.3</ele>
        <time>2017-06-01T10:41:12.000Z</time>
      </trkpt>
      <trkpt lat="43.49493" lon="2.27945">
        <ele>542.5</ele>
        <time>2017-06-01T10:41:14.000Z</time>
      </trkpt>
      <trkpt lat="43.4949" lon="2.27942">
        <ele>542.6</ele>
        <time>2017-06-01T10:41:15.000Z</time>
      </trkpt>
      <trkpt lat="43.49487" lon="2.27942">
        <ele>542.8</ele>
        <time>2017-06-01T10:41:16.000Z</time>
      </trkpt>
      <trkpt lat="43.49482" lon="2.27944">
        <ele>543.1</ele>
        <time>2017-06-01T10:41:18.000Z</time>
      </trkpt>
      <trkpt lat="43.49477" lon="2.27942">
        <ele>543.3</ele>
        <time>2017-06-01T10:41:19.000Z</time>
      </trkpt>
      <trkpt lat="43.49474" lon="2.27943">
        <ele>543.5</ele>
        <time>2017-06-01T10:41:20.000Z</time>
      </trkpt>
      <trkpt lat="43.4947" lon="2.27945">
        <ele>543.7</ele>
        <time>2017-06-01T10:41:21.000Z</time>
      </trkpt>
      <trkpt lat="43.49464" lon="2.27946">
        <ele>544</ele>
        <time>2017-06-01T10:41:24.000Z</time>
      </trkpt>
      <trkpt lat="43.49459" lon="2.27944">
        <ele>544.3</ele>
        <time>2017-06-01T10:41:26.000Z</time>
      </trkpt>
      <trkpt lat="43.49458" lon="2.27941">
        <ele>544.5</ele>
        <time>2017-06-01T10:41:27.000Z</time>
      </trkpt>
      <trkpt lat="43.49454" lon="2.27939">
        <ele>544.7</ele>
        <time>2017-06-01T10:41:29.000Z</time>
      </trkpt>
      <trkpt lat="43.49451" lon="2.27937">
        <ele>544.9</ele>
        <time>2017-06-01T10:41:30.000Z</time>
      </trkpt>
      <trkpt lat="43.49447" lon="2.27935">
        <ele>545.4</ele>
        <time>2017-06-01T10:41:32.000Z</time>
      </trkpt>
      <trkpt lat="43.49445" lon="2.27931">
        <ele>545.6</ele>
        <time>2017-06-01T10:41:33.000Z</time>
      </trkpt>
      <trkpt lat="43.49441" lon="2.27933">
        <ele>545.8</ele>
        <time>2017-06-01T10:41:34.000Z</time>
      </trkpt>
      <trkpt lat="43.49438" lon="2.27929">
        <ele>546.1</ele>
        <time>2017-06-01T10:41:36.000Z</time>
      </trkpt>
      <trkpt lat="43.49432" lon="2.27925">
        <ele>546.8</ele>
        <time>2017-06-01T10:41:37.000Z</time>
      </trkpt>
      <trkpt lat="43.49428" lon="2.27923">
        <ele>547.1</ele>
        <time>2017-06-01T10:41:39.000Z</time>
      </trkpt>
      <trkpt lat="43.49425" lon="2.2792">
        <ele>547.4</ele>
        <time>2017-06-01T10:41:41.000Z</time>
      </trkpt>
      <trkpt lat="43.49428" lon="2.27921">
        <ele>547.8</ele>
        <time>2017-06-01T10:41:42.000Z</time>
      </trkpt>
      <trkpt lat="43.49423" lon="2.27922">
        <ele>548.2</ele>
        <time>2017-06-01T10:41:44.000Z</time>
      </trkpt>
      <trkpt lat="43.4942" lon="2.27924">
        <ele>548.5</ele>
        <time>2017-06-01T10:41:46.000Z</time>
      </trkpt>
      <trkpt lat="43.49415" lon="2.27922">
        <ele>548.9</ele>
        <time>2017-06-01T10:41:48.000Z</time>
      </trkpt>
      <trkpt lat="43.49411" lon="2.2792">
        <ele>549.2</ele>
        <time>2017-06-01T10:41:49.000Z</time>
      </trkpt>
      <trkpt lat="43.49407" lon="2.27917">
        <ele>549.7</ele>
        <time>2017-06-01T10:41:52.000Z</time>
      </trkpt>
      <trkpt lat="43.49404" lon="2.27913">
        <ele>550</ele>
        <time>2017-06-01T10:41:53.000Z</time>
      </trkpt>
      <trkpt lat="43.49401" lon="2.27914">
        <ele>550.3</ele>
        <time>2017-06-01T10:41:54.000Z</time>
      </trkpt>
      <trkpt lat="43.49398" lon="2.27916">
        <ele>550.6</ele>
        <time>2017-06-01T10:41:57.000Z</time>
      </trkpt>
      <trkpt lat="43.49394" lon="2.27917">
        <ele>550.8</ele>
        <time>2017-06-01T10:41:59.000Z</time>
      </trkpt>
      <trkpt lat="43.49391" lon="2.27917">
        <ele>551</ele>
        <time>2017-06-01T10:42:00.000Z</time>
      </trkpt>
      <trkpt lat="43.49387" lon="2.2792">
        <ele>551.4</ele>
        <time>2017-06-01T10:42:04.000Z</time>
      </trkpt>
      <trkpt lat="43.49384" lon="2.2792">
        <ele>551.6</ele>
        <time>2017-06-01T10:42:05.000Z</time>
      </trkpt>
      <trkpt lat="43.49381" lon="2.27921">
        <ele>551.7</ele>
        <time>2017-06-01T10:42:06.000Z</time>
      </trkpt>
      <trkpt lat="43.49378" lon="2.27923">
        <ele>551.8</ele>
        <time>2017-06-01T10:42:08.000Z</time>
      </trkpt>
      <trkpt lat="43.49377" lon="2.27919">
        <ele>551.9</ele>
        <time>2017-06-01T10:42:13.000Z</time>
      </trkpt>
      <trkpt lat="43.49376" lon="2.27914">
        <ele>552.1</ele>
        <time>2017-06-01T10:42:14.000Z</time>
      </trkpt>
      <trkpt lat="43.49376" lon="2.27909">
        <ele>552.3</ele>
        <time>2017-06-01T10:42:16.000Z</time>
      </trkpt>
      <trkpt lat="43.49372" lon="2.27905">
        <ele>552.5</ele>
        <time>2017-06-01T10:42:19.000Z</time>
      </trkpt>
      <trkpt lat="43.49367" lon="2.27902">
        <ele>552.7</ele>
        <time>2017-06-01T10:42:21.000Z</time>
      </trkpt>
      <trkpt lat="43.49364" lon="2.27897">
        <ele>552.7</ele>
        <time>2017-06-01T10:42:23.000Z</time>
      </trkpt>
      <trkpt lat="43.49361" lon="2.27894">
        <ele>552.7</ele>
        <time>2017-06-01T10:42:25.000Z</time>
      </trkpt>
      <trkpt lat="43.49357" lon="2.27892">
        <ele>552.7</ele>
        <time>2017-06-01T10:42:27.000Z</time>
      </trkpt>
      <trkpt lat="43.49357" lon="2.27887">
        <ele>552.7</ele>
        <time>2017-06-01T10:42:29.000Z</time>
      </trkpt>
      <trkpt lat="43.49354" lon="2.27887">
        <ele>552.7</ele>
        <time>2017-06-01T10:42:30.000Z</time>
      </trkpt>
      <trkpt lat="43.49353" lon="2.27882">
        <ele>552.7</ele>
        <time>2017-06-01T10:42:31.000Z</time>
      </trkpt>
      <trkpt lat="43.49353" lon="2.27877">
        <ele>552.7</ele>
        <time>2017-06-01T10:42:33.000Z</time>
      </trkpt>
      <trkpt lat="43.4935" lon="2.27873">
        <ele>552.7</ele>
        <time>2017-06-01T10:42:35.000Z</time>
      </trkpt>
      <trkpt lat="43.49348" lon="2.27869">
        <ele>552.7</ele>
        <time>2017-06-01T10:42:38.000Z</time>
      </trkpt>
      <trkpt lat="43.49347" lon="2.27865">
        <ele>552.7</ele>
        <time>2017-06-01T10:42:40.000Z</time>
      </trkpt>
      <trkpt lat="43.49345" lon="2.2786">
        <ele>552.6</ele>
        <time>2017-06-01T10:42:41.000Z</time>
      </trkpt>
      <trkpt lat="43.49339" lon="2.27856">
        <ele>552.6</ele>
        <time>2017-06-01T10:42:43.000Z</time>
      </trkpt>
      <trkpt lat="43.49334" lon="2.27852">
        <ele>552.5</ele>
        <time>2017-06-01T10:42:44.000Z</time>
      </trkpt>
      <trkpt lat="43.49331" lon="2.27846">
        <ele>552.5</ele>
        <time>2017-06-01T10:42:46.000Z</time>
      </trkpt>
      <trkpt lat="43.49328" lon="2.27841">
        <ele>552.5</ele>
        <time>2017-06-01T10:42:47.000Z</time>
      </trkpt>
      <trkpt lat="43.49325" lon="2.27836">
        <ele>552.4</ele>
        <time>2017-06-01T10:42:49.000Z</time>
      </trkpt>
      <trkpt lat="43.4932" lon="2.27832">
        <ele>552.3</ele>
        <time>2017-06-01T10:42:50.000Z</time>
      </trkpt>
      <trkpt lat="43.49316" lon="2.2783">
        <ele>552.3</ele>
        <time>2017-06-01T10:42:51.000Z</time>
      </trkpt>
      <trkpt lat="43.49313" lon="2.27821">
        <ele>552.1</ele>
        <time>2017-06-01T10:42:52.000Z</time>
      </trkpt>
      <trkpt lat="43.49308" lon="2.27815">
        <ele>551.9</ele>
        <time>2017-06-01T10:42:53.000Z</time>
      </trkpt>
      <trkpt lat="43.49306" lon="2.2781">
        <ele>551.9</ele>
        <time>2017-06-01T10:42:54.000Z</time>
      </trkpt>
      <trkpt lat="43.49307" lon="2.27801">
        <ele>551.7</ele>
        <time>2017-06-01T10:42:55.000Z</time>
      </trkpt>
      <trkpt lat="43.49306" lon="2.27793">
        <ele>551.5</ele>
        <time>2017-06-01T10:42:56.000Z</time>
      </trkpt>
      <trkpt lat="43.49304" lon="2.27785">
        <ele>551.3</ele>
        <time>2017-06-01T10:42:57.000Z</time>
      </trkpt>
      <trkpt lat="43.49302" lon="2.2778">
        <ele>551.2</ele>
        <time>2017-06-01T10:42:58.000Z</time>
      </trkpt>
      <trkpt lat="43.49298" lon="2.2778">
        <ele>551.1</ele>
        <time>2017-06-01T10:42:59.000Z</time>
      </trkpt>
      <trkpt lat="43.49293" lon="2.27778">
        <ele>551.1</ele>
        <time>2017-06-01T10:43:00.000Z</time>
      </trkpt>
      <trkpt lat="43.49282" lon="2.27773">
        <ele>550.9</ele>
        <time>2017-06-01T10:43:01.000Z</time>
      </trkpt>
      <trkpt lat="43.4928" lon="2.27769">
        <ele>550.9</ele>
        <time>2017-06-01T10:43:02.000Z</time>
      </trkpt>
      <trkpt lat="43.49278" lon="2.27765">
        <ele>550.9</ele>
        <time>2017-06-01T10:43:03.000Z</time>
      </trkpt>
      <trkpt lat="43.49273" lon="2.27762">
        <ele>550.9</ele>
        <time>2017-06-01T10:43:04.000Z</time>
      </trkpt>
      <trkpt lat="43.49271" lon="2.27758">
        <ele>550.9</ele>
        <time>2017-06-01T10:43:05.000Z</time>
      </trkpt>
      <trkpt lat="43.4927" lon="2.27753">
        <ele>550.9</ele>
        <time>2017-06-01T10:43:06.000Z</time>
      </trkpt>
      <trkpt lat="43.49266" lon="2.27753">
        <ele>550.9</ele>
        <time>2017-06-01T10:43:09.000Z</time>
      </trkpt>
      <trkpt lat="43.49261" lon="2.27753">
        <ele>550.9</ele>
        <time>2017-06-01T10:43:11.000Z</time>
      </trkpt>
      <trkpt lat="43.49258" lon="2.27752">
        <ele>551</ele>
        <time>2017-06-01T10:43:12.000Z</time>
      </trkpt>
      <trkpt lat="43.49251" lon="2.27752">
        <ele>552.4</ele>
        <time>2017-06-01T10:43:15.000Z</time>
      </trkpt>
      <trkpt lat="43.49248" lon="2.27754">
        <ele>552.5</ele>
        <time>2017-06-01T10:43:18.000Z</time>
      </trkpt>
      <trkpt lat="43.49245" lon="2.27754">
        <ele>552.7</ele>
        <time>2017-06-01T10:43:19.000Z</time>
      </trkpt>
      <trkpt lat="43.4924" lon="2.27758">
        <ele>553</ele>
        <time>2017-06-01T10:43:21.000Z</time>
      </trkpt>
      <trkpt lat="43.49237" lon="2.27758">
        <ele>553.2</ele>
        <time>2017-06-01T10:43:22.000Z</time>
      </trkpt>
      <trkpt lat="43.49234" lon="2.2776">
        <ele>553.3</ele>
        <time>2017-06-01T10:43:23.000Z</time>
      </trkpt>
      <trkpt lat="43.4923" lon="2.27762">
        <ele>553.5</ele>
        <time>2017-06-01T10:43:25.000Z</time>
      </trkpt>
      <trkpt lat="43.49228" lon="2.27764">
        <ele>553.7</ele>
        <time>2017-06-01T10:43:26.000Z</time>
      </trkpt>
      <trkpt lat="43.49223" lon="2.27768">
        <ele>554</ele>
        <time>2017-06-01T10:43:28.000Z</time>
      </trkpt>
      <trkpt lat="43.4922" lon="2.27769">
        <ele>554.2</ele>
        <time>2017-06-01T10:43:29.000Z</time>
      </trkpt>
      <trkpt lat="43.49214" lon="2.2777">
        <ele>554.5</ele>
        <time>2017-06-01T10:43:30.000Z</time>
      </trkpt>
      <trkpt lat="43.4921" lon="2.27773">
        <ele>554.7</ele>
        <time>2017-06-01T10:43:32.000Z</time>
      </trkpt>
      <trkpt lat="43.49207" lon="2.27772">
        <ele>554.9</ele>
        <time>2017-06-01T10:43:33.000Z</time>
      </trkpt>
      <trkpt lat="43.49204" lon="2.27773">
        <ele>555.1</ele>
        <time>2017-06-01T10:43:35.000Z</time>
      </trkpt>
      <trkpt lat="43.492" lon="2.27777">
        <ele>555.3</ele>
        <time>2017-06-01T10:43:37.000Z</time>
      </trkpt>
      <trkpt lat="43.49197" lon="2.27776">
        <ele>555.5</ele>
        <time>2017-06-01T10:43:38.000Z</time>
      </trkpt>
      <trkpt lat="43.49194" lon="2.27777">
        <ele>555.8</ele>
        <time>2017-06-01T10:43:39.000Z</time>
      </trkpt>
      <trkpt lat="43.49188" lon="2.27776">
        <ele>556.3</ele>
        <time>2017-06-01T10:43:40.000Z</time>
      </trkpt>
      <trkpt lat="43.49186" lon="2.27777">
        <ele>556.5</ele>
        <time>2017-06-01T10:43:41.000Z</time>
      </trkpt>
      <trkpt lat="43.49182" lon="2.2778">
        <ele>556.9</ele>
        <time>2017-06-01T10:43:43.000Z</time>
      </trkpt>
      <trkpt lat="43.49179" lon="2.2778">
        <ele>557.2</ele>
        <time>2017-06-01T10:43:44.000Z</time>
      </trkpt>
      <trkpt lat="43.49176" lon="2.27778">
        <ele>557.5</ele>
        <time>2017-06-01T10:43:45.000Z</time>
      </trkpt>
      <trkpt lat="43.49174" lon="2.27779">
        <ele>557.7</ele>
        <time>2017-06-01T10:43:46.000Z</time>
      </trkpt>
      <trkpt lat="43.4917" lon="2.27779">
        <ele>558</ele>
        <time>2017-06-01T10:43:47.000Z</time>
      </trkpt>
      <trkpt lat="43.49169" lon="2.27782">
        <ele>558.2</ele>
        <time>2017-06-01T10:43:50.000Z</time>
      </trkpt>
      <trkpt lat="43.49164" lon="2.27782">
        <ele>558.6</ele>
        <time>2017-06-01T10:43:53.000Z</time>
      </trkpt>
      <trkpt lat="43.4916" lon="2.27782">
        <ele>559</ele>
        <time>2017-06-01T10:43:55.000Z</time>
      </trkpt>
      <trkpt lat="43.49156" lon="2.27782">
        <ele>559.3</ele>
        <time>2017-06-01T10:43:56.000Z</time>
      </trkpt>
      <trkpt lat="43.49151" lon="2.27782">
        <ele>559.8</ele>
        <time>2017-06-01T10:43:58.000Z</time>
      </trkpt>
      <trkpt lat="43.49145" lon="2.2778">
        <ele>560.3</ele>
        <time>2017-06-01T10:43:59.000Z</time>
      </trkpt>
      <trkpt lat="43.4914" lon="2.27781">
        <ele>560.6</ele>
        <time>2017-06-01T10:44:02.000Z</time>
      </trkpt>
      <trkpt lat="43.49136" lon="2.27781">
        <ele>561</ele>
        <time>2017-06-01T10:44:04.000Z</time>
      </trkpt>
      <trkpt lat="43.4913" lon="2.27784">
        <ele>561.8</ele>
        <time>2017-06-01T10:44:08.000Z</time>
      </trkpt>
      <trkpt lat="43.49129" lon="2.27788">
        <ele>562.1</ele>
        <time>2017-06-01T10:44:10.000Z</time>
      </trkpt>
      <trkpt lat="43.49125" lon="2.27791">
        <ele>562.6</ele>
        <time>2017-06-01T10:44:12.000Z</time>
      </trkpt>
      <trkpt lat="43.49121" lon="2.27789">
        <ele>563.1</ele>
        <time>2017-06-01T10:44:14.000Z</time>
      </trkpt>
      <trkpt lat="43.49119" lon="2.27792">
        <ele>563.4</ele>
        <time>2017-06-01T10:44:16.000Z</time>
      </trkpt>
      <trkpt lat="43.49116" lon="2.27792">
        <ele>563.8</ele>
        <time>2017-06-01T10:44:20.000Z</time>
      </trkpt>
      <trkpt lat="43.49113" lon="2.27796">
        <ele>564.1</ele>
        <time>2017-06-01T10:44:22.000Z</time>
      </trkpt>
      <trkpt lat="43.4911" lon="2.27795">
        <ele>564.4</ele>
        <time>2017-06-01T10:44:23.000Z</time>
      </trkpt>
      <trkpt lat="43.49108" lon="2.2779">
        <ele>564.8</ele>
        <time>2017-06-01T10:44:25.000Z</time>
      </trkpt>
      <trkpt lat="43.49102" lon="2.27793">
        <ele>565.3</ele>
        <time>2017-06-01T10:44:28.000Z</time>
      </trkpt>
      <trkpt lat="43.49099" lon="2.27791">
        <ele>565.6</ele>
        <time>2017-06-01T10:44:29.000Z</time>
      </trkpt>
      <trkpt lat="43.49093" lon="2.27788">
        <ele>566.2</ele>
        <time>2017-06-01T10:44:32.000Z</time>
      </trkpt>
      <trkpt lat="43.49088" lon="2.27785">
        <ele>566.6</ele>
        <time>2017-06-01T10:44:34.000Z</time>
      </trkpt>
      <trkpt lat="43.49082" lon="2.2778">
        <ele>567.4</ele>
        <time>2017-06-01T10:44:36.000Z</time>
      </trkpt>
      <trkpt lat="43.49076" lon="2.27777">
        <ele>568.4</ele>
        <time>2017-06-01T10:44:38.000Z</time>
      </trkpt>
      <trkpt lat="43.49072" lon="2.27782">
        <ele>569.1</ele>
        <time>2017-06-01T10:44:39.000Z</time>
      </trkpt>
      <trkpt lat="43.49071" lon="2.27778">
        <ele>569.4</ele>
        <time>2017-06-01T10:44:40.000Z</time>
      </trkpt>
      <trkpt lat="43.49067" lon="2.27779">
        <ele>569.8</ele>
        <time>2017-06-01T10:44:42.000Z</time>
      </trkpt>
      <trkpt lat="43.49062" lon="2.27779">
        <ele>570.3</ele>
        <time>2017-06-01T10:44:44.000Z</time>
      </trkpt>
      <trkpt lat="43.49059" lon="2.27781">
        <ele>570.6</ele>
        <time>2017-06-01T10:44:46.000Z</time>
      </trkpt>
      <trkpt lat="43.49056" lon="2.27782">
        <ele>570.9</ele>
        <time>2017-06-01T10:44:51.000Z</time>
      </trkpt>
      <trkpt lat="43.49053" lon="2.27784">
        <ele>571.2</ele>
        <time>2017-06-01T10:44:53.000Z</time>
      </trkpt>
      <trkpt lat="43.4905" lon="2.27785">
        <ele>571.5</ele>
        <time>2017-06-01T10:44:56.000Z</time>
      </trkpt>
      <trkpt lat="43.49047" lon="2.27786">
        <ele>571.8</ele>
        <time>2017-06-01T10:44:57.000Z</time>
      </trkpt>
      <trkpt lat="43.49042" lon="2.27786">
        <ele>572.3</ele>
        <time>2017-06-01T10:45:00.000Z</time>
      </trkpt>
      <trkpt lat="43.49041" lon="2.2779">
        <ele>572.6</ele>
        <time>2017-06-01T10:45:01.000Z</time>
      </trkpt>
      <trkpt lat="43.49035" lon="2.27791">
        <ele>573.2</ele>
        <time>2017-06-01T10:45:03.000Z</time>
      </trkpt>
      <trkpt lat="43.49028" lon="2.27796">
        <ele>574</ele>
        <time>2017-06-01T10:45:05.000Z</time>
      </trkpt>
      <trkpt lat="43.49025" lon="2.27794">
        <ele>574.4</ele>
        <time>2017-06-01T10:45:06.000Z</time>
      </trkpt>
      <trkpt lat="43.49021" lon="2.27795">
        <ele>574.8</ele>
        <time>2017-06-01T10:45:08.000Z</time>
      </trkpt>
      <trkpt lat="43.49017" lon="2.27792">
        <ele>575.2</ele>
        <time>2017-06-01T10:45:10.000Z</time>
      </trkpt>
      <trkpt lat="43.49013" lon="2.27787">
        <ele>575.7</ele>
        <time>2017-06-01T10:45:12.000Z</time>
      </trkpt>
      <trkpt lat="43.49015" lon="2.27784">
        <ele>575.9</ele>
        <time>2017-06-01T10:45:13.000Z</time>
      </trkpt>
      <trkpt lat="43.49015" lon="2.27779">
        <ele>576.3</ele>
        <time>2017-06-01T10:45:15.000Z</time>
      </trkpt>
      <trkpt lat="43.49012" lon="2.27777">
        <ele>576.7</ele>
        <time>2017-06-01T10:45:16.000Z</time>
      </trkpt>
      <trkpt lat="43.4901" lon="2.27776">
        <ele>576.9</ele>
        <time>2017-06-01T10:45:19.000Z</time>
      </trkpt>
      <trkpt lat="43.49008" lon="2.27772">
        <ele>577.2</ele>
        <time>2017-06-01T10:45:21.000Z</time>
      </trkpt>
      <trkpt lat="43.48998" lon="2.27771">
        <ele>578.2</ele>
        <time>2017-06-01T10:45:25.000Z</time>
      </trkpt>
      <trkpt lat="43.48996" lon="2.27767">
        <ele>578.5</ele>
        <time>2017-06-01T10:45:27.000Z</time>
      </trkpt>
      <trkpt lat="43.48993" lon="2.27765">
        <ele>578.7</ele>
        <time>2017-06-01T10:45:29.000Z</time>
      </trkpt>
      <trkpt lat="43.48991" lon="2.27763">
        <ele>578.9</ele>
        <time>2017-06-01T10:45:31.000Z</time>
      </trkpt>
      <trkpt lat="43.4899" lon="2.27757">
        <ele>579.3</ele>
        <time>2017-06-01T10:45:33.000Z</time>
      </trkpt>
      <trkpt lat="43.48987" lon="2.27757">
        <ele>579.6</ele>
        <time>2017-06-01T10:45:34.000Z</time>
      </trkpt>
      <trkpt lat="43.48982" lon="2.27754">
        <ele>579.9</ele>
        <time>2017-06-01T10:45:35.000Z</time>
      </trkpt>
      <trkpt lat="43.48979" lon="2.27749">
        <ele>580.4</ele>
        <time>2017-06-01T10:45:37.000Z</time>
      </trkpt>
      <trkpt lat="43.48974" lon="2.27745">
        <ele>580.8</ele>
        <time>2017-06-01T10:45:39.000Z</time>
      </trkpt>
      <trkpt lat="43.48972" lon="2.27742">
        <ele>581.1</ele>
        <time>2017-06-01T10:45:40.000Z</time>
      </trkpt>
      <trkpt lat="43.48968" lon="2.27741">
        <ele>581.5</ele>
        <time>2017-06-01T10:45:41.000Z</time>
      </trkpt>
      <trkpt lat="43.48967" lon="2.27738">
        <ele>581.7</ele>
        <time>2017-06-01T10:45:44.000Z</time>
      </trkpt>
      <trkpt lat="43.48961" lon="2.27737">
        <ele>582.2</ele>
        <time>2017-06-01T10:45:46.000Z</time>
      </trkpt>
      <trkpt lat="43.48957" lon="2.27735">
        <ele>582.6</ele>
        <time>2017-06-01T10:45:47.000Z</time>
      </trkpt>
      <trkpt lat="43.48955" lon="2.27729">
        <ele>583.1</ele>
        <time>2017-06-01T10:45:49.000Z</time>
      </trkpt>
      <trkpt lat="43.48954" lon="2.27725">
        <ele>583.3</ele>
        <time>2017-06-01T10:45:50.000Z</time>
      </trkpt>
      <trkpt lat="43.48951" lon="2.27724">
        <ele>583.7</ele>
        <time>2017-06-01T10:45:52.000Z</time>
      </trkpt>
      <trkpt lat="43.48953" lon="2.27721">
        <ele>584</ele>
        <time>2017-06-01T10:45:53.000Z</time>
      </trkpt>
      <trkpt lat="43.48951" lon="2.27718">
        <ele>584.2</ele>
        <time>2017-06-01T10:45:56.000Z</time>
      </trkpt>
      <trkpt lat="43.4895" lon="2.27713">
        <ele>584.6</ele>
        <time>2017-06-01T10:45:58.000Z</time>
      </trkpt>
      <trkpt lat="43.48946" lon="2.27711">
        <ele>585</ele>
        <time>2017-06-01T10:45:59.000Z</time>
      </trkpt>
      <trkpt lat="43.48945" lon="2.27706">
        <ele>585.3</ele>
        <time>2017-06-01T10:46:01.000Z</time>
      </trkpt>
      <trkpt lat="43.48943" lon="2.27702">
        <ele>585.7</ele>
        <time>2017-06-01T10:46:02.000Z</time>
      </trkpt>
      <trkpt lat="43.48942" lon="2.27699">
        <ele>586</ele>
        <time>2017-06-01T10:46:03.000Z</time>
      </trkpt>
      <trkpt lat="43.48941" lon="2.27693">
        <ele>586.4</ele>
        <time>2017-06-01T10:46:04.000Z</time>
      </trkpt>
      <trkpt lat="43.4894" lon="2.27689">
        <ele>586.6</ele>
        <time>2017-06-01T10:46:05.000Z</time>
      </trkpt>
      <trkpt lat="43.48935" lon="2.27686">
        <ele>587</ele>
        <time>2017-06-01T10:46:06.000Z</time>
      </trkpt>
      <trkpt lat="43.48933" lon="2.27683">
        <ele>587.2</ele>
        <time>2017-06-01T10:46:07.000Z</time>
      </trkpt>
      <trkpt lat="43.48931" lon="2.27677">
        <ele>587.6</ele>
        <time>2017-06-01T10:46:09.000Z</time>
      </trkpt>
      <trkpt lat="43.4893" lon="2.27672">
        <ele>587.9</ele>
        <time>2017-06-01T10:46:11.000Z</time>
      </trkpt>
      <trkpt lat="43.48931" lon="2.27659">
        <ele>588.6</ele>
        <time>2017-06-01T10:46:12.000Z</time>
      </trkpt>
      <trkpt lat="43.48923" lon="2.27665">
        <ele>589.2</ele>
        <time>2017-06-01T10:46:13.000Z</time>
      </trkpt>
      <trkpt lat="43.48918" lon="2.27664">
        <ele>589.5</ele>
        <time>2017-06-01T10:46:14.000Z</time>
      </trkpt>
      <trkpt lat="43.48914" lon="2.27664">
        <ele>589.7</ele>
        <time>2017-06-01T10:46:16.000Z</time>
      </trkpt>
      <trkpt lat="43.4891" lon="2.27665">
        <ele>590</ele>
        <time>2017-06-01T10:46:17.000Z</time>
      </trkpt>
      <trkpt lat="43.48903" lon="2.27667">
        <ele>590.5</ele>
        <time>2017-06-01T10:46:20.000Z</time>
      </trkpt>
      <trkpt lat="43.489" lon="2.27669">
        <ele>590.7</ele>
        <time>2017-06-01T10:46:21.000Z</time>
      </trkpt>
      <trkpt lat="43.48898" lon="2.27666">
        <ele>590.9</ele>
        <time>2017-06-01T10:46:23.000Z</time>
      </trkpt>
      <trkpt lat="43.48894" lon="2.27665">
        <ele>591.2</ele>
        <time>2017-06-01T10:46:25.000Z</time>
      </trkpt>
      <trkpt lat="43.489" lon="2.27665">
        <ele>591.6</ele>
        <time>2017-06-01T10:46:26.000Z</time>
      </trkpt>
      <trkpt lat="43.48896" lon="2.27667">
        <ele>591.9</ele>
        <time>2017-06-01T10:46:28.000Z</time>
      </trkpt>
      <trkpt lat="43.48892" lon="2.27673">
        <ele>592.3</ele>
        <time>2017-06-01T10:46:31.000Z</time>
      </trkpt>
      <trkpt lat="43.48889" lon="2.27678">
        <ele>592.6</ele>
        <time>2017-06-01T10:46:32.000Z</time>
      </trkpt>
      <trkpt lat="43.4888" lon="2.27679">
        <ele>593.3</ele>
        <time>2017-06-01T10:46:34.000Z</time>
      </trkpt>
      <trkpt lat="43.48873" lon="2.27677">
        <ele>593.8</ele>
        <time>2017-06-01T10:46:35.000Z</time>
      </trkpt>
      <trkpt lat="43.4887" lon="2.27677">
        <ele>594</ele>
        <time>2017-06-01T10:46:37.000Z</time>
      </trkpt>
      <trkpt lat="43.48866" lon="2.27677">
        <ele>594.3</ele>
        <time>2017-06-01T10:46:38.000Z</time>
      </trkpt>
      <trkpt lat="43.48876" lon="2.27697">
        <ele>595.5</ele>
        <time>2017-06-01T10:46:40.000Z</time>
      </trkpt>
      <trkpt lat="43.4887" lon="2.27699">
        <ele>595.9</ele>
        <time>2017-06-01T10:46:41.000Z</time>
      </trkpt>
      <trkpt lat="43.48865" lon="2.27703">
        <ele>596.3</ele>
        <time>2017-06-01T10:46:43.000Z</time>
      </trkpt>
      <trkpt lat="43.4886" lon="2.27704">
        <ele>596.6</ele>
        <time>2017-06-01T10:46:45.000Z</time>
      </trkpt>
      <trkpt lat="43.48853" lon="2.277">
        <ele>597.1</ele>
        <time>2017-06-01T10:46:47.000Z</time>
      </trkpt>
      <trkpt lat="43.48849" lon="2.27701">
        <ele>597.4</ele>
        <time>2017-06-01T10:46:48.000Z</time>
      </trkpt>
      <trkpt lat="43.48843" lon="2.27696">
        <ele>597.8</ele>
        <time>2017-06-01T10:46:49.000Z</time>
      </trkpt>
      <trkpt lat="43.48839" lon="2.27702">
        <ele>598.1</ele>
        <time>2017-06-01T10:46:50.000Z</time>
      </trkpt>
      <trkpt lat="43.48833" lon="2.27703">
        <ele>598.4</ele>
        <time>2017-06-01T10:46:52.000Z</time>
      </trkpt>
      <trkpt lat="43.4883" lon="2.27704">
        <ele>598.6</ele>
        <time>2017-06-01T10:46:53.000Z</time>
      </trkpt>
      <trkpt lat="43.48828" lon="2.27702">
        <ele>598.8</ele>
        <time>2017-06-01T10:46:54.000Z</time>
      </trkpt>
      <trkpt lat="43.48826" lon="2.27706">
        <ele>599</ele>
        <time>2017-06-01T10:46:55.000Z</time>
      </trkpt>
      <trkpt lat="43.48825" lon="2.27702">
        <ele>599.1</ele>
        <time>2017-06-01T10:46:57.000Z</time>
      </trkpt>
      <trkpt lat="43.48821" lon="2.27701">
        <ele>599.4</ele>
        <time>2017-06-01T10:46:59.000Z</time>
      </trkpt>
      <trkpt lat="43.48814" lon="2.27705">
        <ele>599.8</ele>
        <time>2017-06-01T10:47:01.000Z</time>
      </trkpt>
      <trkpt lat="43.48811" lon="2.27703">
        <ele>600</ele>
        <time>2017-06-01T10:47:04.000Z</time>
      </trkpt>
      <trkpt lat="43.48809" lon="2.27704">
        <ele>600.1</ele>
        <time>2017-06-01T10:47:05.000Z</time>
      </trkpt>
      <trkpt lat="43.48806" lon="2.27707">
        <ele>600.1</ele>
        <time>2017-06-01T10:47:07.000Z</time>
      </trkpt>
      <trkpt lat="43.48805" lon="2.27711">
        <ele>600.2</ele>
        <time>2017-06-01T10:47:10.000Z</time>
      </trkpt>
      <trkpt lat="43.48796" lon="2.27715">
        <ele>600.4</ele>
        <time>2017-06-01T10:47:14.000Z</time>
      </trkpt>
      <trkpt lat="43.4879" lon="2.27715">
        <ele>600.5</ele>
        <time>2017-06-01T10:47:15.000Z</time>
      </trkpt>
      <trkpt lat="43.48785" lon="2.27715">
        <ele>600.6</ele>
        <time>2017-06-01T10:47:17.000Z</time>
      </trkpt>
      <trkpt lat="43.48777" lon="2.27709">
        <ele>600.8</ele>
        <time>2017-06-01T10:47:18.000Z</time>
      </trkpt>
      <trkpt lat="43.48772" lon="2.27708">
        <ele>600.9</ele>
        <time>2017-06-01T10:47:19.000Z</time>
      </trkpt>
      <trkpt lat="43.48765" lon="2.27703">
        <ele>601.2</ele>
        <time>2017-06-01T10:47:21.000Z</time>
      </trkpt>
      <trkpt lat="43.4876" lon="2.27696">
        <ele>601.3</ele>
        <time>2017-06-01T10:47:22.000Z</time>
      </trkpt>
      <trkpt lat="43.48757" lon="2.27695">
        <ele>601.4</ele>
        <time>2017-06-01T10:47:23.000Z</time>
      </trkpt>
      <trkpt lat="43.48754" lon="2.27693">
        <ele>601.5</ele>
        <time>2017-06-01T10:47:24.000Z</time>
      </trkpt>
      <trkpt lat="43.48751" lon="2.2769">
        <ele>601.6</ele>
        <time>2017-06-01T10:47:25.000Z</time>
      </trkpt>
      <trkpt lat="43.48751" lon="2.27686">
        <ele>601.7</ele>
        <time>2017-06-01T10:47:28.000Z</time>
      </trkpt>
      <trkpt lat="43.48748" lon="2.27685">
        <ele>601.8</ele>
        <time>2017-06-01T10:47:29.000Z</time>
      </trkpt>
      <trkpt lat="43.48744" lon="2.27684">
        <ele>602</ele>
        <time>2017-06-01T10:47:31.000Z</time>
      </trkpt>
      <trkpt lat="43.48741" lon="2.2768">
        <ele>602.1</ele>
        <time>2017-06-01T10:47:32.000Z</time>
      </trkpt>
      <trkpt lat="43.48741" lon="2.27672">
        <ele>602.2</ele>
        <time>2017-06-01T10:47:34.000Z</time>
      </trkpt>
      <trkpt lat="43.48736" lon="2.2767">
        <ele>602.4</ele>
        <time>2017-06-01T10:47:36.000Z</time>
      </trkpt>
      <trkpt lat="43.48735" lon="2.27665">
        <ele>602.5</ele>
        <time>2017-06-01T10:47:37.000Z</time>
      </trkpt>
      <trkpt lat="43.48726" lon="2.27679">
        <ele>603</ele>
        <time>2017-06-01T10:47:39.000Z</time>
      </trkpt>
      <trkpt lat="43.48721" lon="2.27674">
        <ele>603.2</ele>
        <time>2017-06-01T10:47:40.000Z</time>
      </trkpt>
      <trkpt lat="43.48711" lon="2.2768">
        <ele>603.5</ele>
        <time>2017-06-01T10:47:41.000Z</time>
      </trkpt>
      <trkpt lat="43.48708" lon="2.27678">
        <ele>603.7</ele>
        <time>2017-06-01T10:47:43.000Z</time>
      </trkpt>
      <trkpt lat="43.48711" lon="2.2768">
        <ele>603.8</ele>
        <time>2017-06-01T10:47:44.000Z</time>
      </trkpt>
      <trkpt lat="43.48709" lon="2.27684">
        <ele>603.9</ele>
        <time>2017-06-01T10:47:45.000Z</time>
      </trkpt>
      <trkpt lat="43.48702" lon="2.2768">
        <ele>604.3</ele>
        <time>2017-06-01T10:47:46.000Z</time>
      </trkpt>
      <trkpt lat="43.48694" lon="2.27678">
        <ele>604.7</ele>
        <time>2017-06-01T10:47:47.000Z</time>
      </trkpt>
      <trkpt lat="43.48697" lon="2.27683">
        <ele>604.9</ele>
        <time>2017-06-01T10:47:48.000Z</time>
      </trkpt>
      <trkpt lat="43.48693" lon="2.27685">
        <ele>605.1</ele>
        <time>2017-06-01T10:47:49.000Z</time>
      </trkpt>
      <trkpt lat="43.4869" lon="2.27678">
        <ele>605.5</ele>
        <time>2017-06-01T10:47:50.000Z</time>
      </trkpt>
      <trkpt lat="43.48687" lon="2.27677">
        <ele>605.7</ele>
        <time>2017-06-01T10:47:51.000Z</time>
      </trkpt>
      <trkpt lat="43.48683" lon="2.27681">
        <ele>606</ele>
        <time>2017-06-01T10:47:52.000Z</time>
      </trkpt>
      <trkpt lat="43.48679" lon="2.27686">
        <ele>606.3</ele>
        <time>2017-06-01T10:47:54.000Z</time>
      </trkpt>
      <trkpt lat="43.48681" lon="2.2769">
        <ele>606.5</ele>
        <time>2017-06-01T10:47:55.000Z</time>
      </trkpt>
      <trkpt lat="43.48672" lon="2.27686">
        <ele>607.2</ele>
        <time>2017-06-01T10:47:56.000Z</time>
      </trkpt>
      <trkpt lat="43.48668" lon="2.27682">
        <ele>607.5</ele>
        <time>2017-06-01T10:47:57.000Z</time>
      </trkpt>
      <trkpt lat="43.48666" lon="2.27687">
        <ele>607.7</ele>
        <time>2017-06-01T10:48:00.000Z</time>
      </trkpt>
      <trkpt lat="43.48664" lon="2.27689">
        <ele>607.8</ele>
        <time>2017-06-01T10:48:01.000Z</time>
      </trkpt>
      <trkpt lat="43.48668" lon="2.27697">
        <ele>608.2</ele>
        <time>2017-06-01T10:48:04.000Z</time>
      </trkpt>
      <trkpt lat="43.48663" lon="2.27697">
        <ele>608.4</ele>
        <time>2017-06-01T10:48:05.000Z</time>
      </trkpt>
      <trkpt lat="43.48658" lon="2.27696">
        <ele>608.6</ele>
        <time>2017-06-01T10:48:06.000Z</time>
      </trkpt>
      <trkpt lat="43.48662" lon="2.27702">
        <ele>608.8</ele>
        <time>2017-06-01T10:48:07.000Z</time>
      </trkpt>
      <trkpt lat="43.48655" lon="2.27697">
        <ele>609</ele>
        <time>2017-06-01T10:48:08.000Z</time>
      </trkpt>
      <trkpt lat="43.48654" lon="2.27702">
        <ele>609</ele>
        <time>2017-06-01T10:48:10.000Z</time>
      </trkpt>
      <trkpt lat="43.48647" lon="2.27705">
        <ele>609.2</ele>
        <time>2017-06-01T10:48:12.000Z</time>
      </trkpt>
      <trkpt lat="43.48645" lon="2.27706">
        <ele>609.2</ele>
        <time>2017-06-01T10:48:14.000Z</time>
      </trkpt>
      <trkpt lat="43.48641" lon="2.27706">
        <ele>609.3</ele>
        <time>2017-06-01T10:48:17.000Z</time>
      </trkpt>
      <trkpt lat="43.48641" lon="2.27702">
        <ele>609.3</ele>
        <time>2017-06-01T10:48:19.000Z</time>
      </trkpt>
      <trkpt lat="43.48638" lon="2.27704">
        <ele>609.4</ele>
        <time>2017-06-01T10:48:20.000Z</time>
      </trkpt>
      <trkpt lat="43.48633" lon="2.27704">
        <ele>609.5</ele>
        <time>2017-06-01T10:48:22.000Z</time>
      </trkpt>
      <trkpt lat="43.4863" lon="2.27703">
        <ele>609.6</ele>
        <time>2017-06-01T10:48:23.000Z</time>
      </trkpt>
      <trkpt lat="43.48634" lon="2.27707">
        <ele>609.7</ele>
        <time>2017-06-01T10:48:25.000Z</time>
      </trkpt>
      <trkpt lat="43.48633" lon="2.27712">
        <ele>609.8</ele>
        <time>2017-06-01T10:48:27.000Z</time>
      </trkpt>
      <trkpt lat="43.48632" lon="2.27717">
        <ele>609.9</ele>
        <time>2017-06-01T10:48:30.000Z</time>
      </trkpt>
      <trkpt lat="43.48627" lon="2.27715">
        <ele>610.1</ele>
        <time>2017-06-01T10:48:32.000Z</time>
      </trkpt>
      <trkpt lat="43.48624" lon="2.27714">
        <ele>610.1</ele>
        <time>2017-06-01T10:48:33.000Z</time>
      </trkpt>
      <trkpt lat="43.48617" lon="2.27713">
        <ele>610.3</ele>
        <time>2017-06-01T10:48:35.000Z</time>
      </trkpt>
      <trkpt lat="43.48612" lon="2.27714">
        <ele>610.5</ele>
        <time>2017-06-01T10:48:37.000Z</time>
      </trkpt>
      <trkpt lat="43.48616" lon="2.27719">
        <ele>610.7</ele>
        <time>2017-06-01T10:48:38.000Z</time>
      </trkpt>
      <trkpt lat="43.48612" lon="2.2772">
        <ele>610.9</ele>
        <time>2017-06-01T10:48:39.000Z</time>
      </trkpt>
      <trkpt lat="43.48616" lon="2.27732">
        <ele>611.2</ele>
        <time>2017-06-01T10:48:41.000Z</time>
      </trkpt>
      <trkpt lat="43.48613" lon="2.27729">
        <ele>611.3</ele>
        <time>2017-06-01T10:48:42.000Z</time>
      </trkpt>
      <trkpt lat="43.48608" lon="2.27731">
        <ele>611.5</ele>
        <time>2017-06-01T10:48:44.000Z</time>
      </trkpt>
      <trkpt lat="43.48605" lon="2.27735">
        <ele>611.7</ele>
        <time>2017-06-01T10:48:46.000Z</time>
      </trkpt>
      <trkpt lat="43.48598" lon="2.27734">
        <ele>612</ele>
        <time>2017-06-01T10:48:47.000Z</time>
      </trkpt>
      <trkpt lat="43.48589" lon="2.27735">
        <ele>612.4</ele>
        <time>2017-06-01T10:48:48.000Z</time>
      </trkpt>
      <trkpt lat="43.48584" lon="2.27732">
        <ele>612.7</ele>
        <time>2017-06-01T10:48:49.000Z</time>
      </trkpt>
      <trkpt lat="43.48579" lon="2.27735">
        <ele>612.9</ele>
        <time>2017-06-01T10:48:50.000Z</time>
      </trkpt>
      <trkpt lat="43.48575" lon="2.27734">
        <ele>613.1</ele>
        <time>2017-06-01T10:48:51.000Z</time>
      </trkpt>
      <trkpt lat="43.48572" lon="2.27735">
        <ele>613.3</ele>
        <time>2017-06-01T10:48:52.000Z</time>
      </trkpt>
      <trkpt lat="43.48566" lon="2.27734">
        <ele>613.5</ele>
        <time>2017-06-01T10:48:54.000Z</time>
      </trkpt>
      <trkpt lat="43.48562" lon="2.27736">
        <ele>613.7</ele>
        <time>2017-06-01T10:48:56.000Z</time>
      </trkpt>
      <trkpt lat="43.48546" lon="2.27731">
        <ele>614.5</ele>
        <time>2017-06-01T10:48:58.000Z</time>
      </trkpt>
      <trkpt lat="43.48541" lon="2.27729">
        <ele>614.6</ele>
        <time>2017-06-01T10:48:59.000Z</time>
      </trkpt>
      <trkpt lat="43.48536" lon="2.2773">
        <ele>614.8</ele>
        <time>2017-06-01T10:49:01.000Z</time>
      </trkpt>
      <trkpt lat="43.48529" lon="2.27728">
        <ele>615</ele>
        <time>2017-06-01T10:49:02.000Z</time>
      </trkpt>
      <trkpt lat="43.48526" lon="2.27726">
        <ele>615.2</ele>
        <time>2017-06-01T10:49:04.000Z</time>
      </trkpt>
      <trkpt lat="43.48524" lon="2.27723">
        <ele>615.3</ele>
        <time>2017-06-01T10:49:07.000Z</time>
      </trkpt>
      <trkpt lat="43.48521" lon="2.27719">
        <ele>615.4</ele>
        <time>2017-06-01T10:49:08.000Z</time>
      </trkpt>
      <trkpt lat="43.48519" lon="2.27715">
        <ele>615.5</ele>
        <time>2017-06-01T10:49:09.000Z</time>
      </trkpt>
      <trkpt lat="43.48512" lon="2.2771">
        <ele>615.7</ele>
        <time>2017-06-01T10:49:12.000Z</time>
      </trkpt>
      <trkpt lat="43.48508" lon="2.27705">
        <ele>615.8</ele>
        <time>2017-06-01T10:49:14.000Z</time>
      </trkpt>
      <trkpt lat="43.48508" lon="2.277">
        <ele>615.9</ele>
        <time>2017-06-01T10:49:17.000Z</time>
      </trkpt>
      <trkpt lat="43.48508" lon="2.27696">
        <ele>615.9</ele>
        <time>2017-06-01T10:49:19.000Z</time>
      </trkpt>
      <trkpt lat="43.48507" lon="2.27691">
        <ele>616</ele>
        <time>2017-06-01T10:49:21.000Z</time>
      </trkpt>
      <trkpt lat="43.48507" lon="2.27684">
        <ele>616.6</ele>
        <time>2017-06-01T10:49:24.000Z</time>
      </trkpt>
      <trkpt lat="43.48507" lon="2.2768">
        <ele>616.9</ele>
        <time>2017-06-01T10:49:25.000Z</time>
      </trkpt>
      <trkpt lat="43.48505" lon="2.27674">
        <ele>617.3</ele>
        <time>2017-06-01T10:49:27.000Z</time>
      </trkpt>
      <trkpt lat="43.48505" lon="2.27671">
        <ele>617.6</ele>
        <time>2017-06-01T10:49:28.000Z</time>
      </trkpt>
      <trkpt lat="43.48505" lon="2.27665">
        <ele>618</ele>
        <time>2017-06-01T10:49:30.000Z</time>
      </trkpt>
      <trkpt lat="43.48506" lon="2.2766">
        <ele>618.4</ele>
        <time>2017-06-01T10:49:32.000Z</time>
      </trkpt>
      <trkpt lat="43.48503" lon="2.27655">
        <ele>618.8</ele>
        <time>2017-06-01T10:49:34.000Z</time>
      </trkpt>
      <trkpt lat="43.48504" lon="2.27651">
        <ele>619.1</ele>
        <time>2017-06-01T10:49:35.000Z</time>
      </trkpt>
      <trkpt lat="43.48503" lon="2.27647">
        <ele>619.4</ele>
        <time>2017-06-01T10:49:36.000Z</time>
      </trkpt>
      <trkpt lat="43.48502" lon="2.27642">
        <ele>619.7</ele>
        <time>2017-06-01T10:49:37.000Z</time>
      </trkpt>
      <trkpt lat="43.48504" lon="2.27639">
        <ele>620</ele>
        <time>2017-06-01T10:49:38.000Z</time>
      </trkpt>
      <trkpt lat="43.48506" lon="2.27635">
        <ele>620.3</ele>
        <time>2017-06-01T10:49:39.000Z</time>
      </trkpt>
      <trkpt lat="43.48505" lon="2.2763">
        <ele>620.7</ele>
        <time>2017-06-01T10:49:40.000Z</time>
      </trkpt>
      <trkpt lat="43.48504" lon="2.27626">
        <ele>621</ele>
        <time>2017-06-01T10:49:41.000Z</time>
      </trkpt>
      <trkpt lat="43.48504" lon="2.27619">
        <ele>621.5</ele>
        <time>2017-06-01T10:49:43.000Z</time>
      </trkpt>
      <trkpt lat="43.48502" lon="2.27614">
        <ele>622</ele>
        <time>2017-06-01T10:49:45.000Z</time>
      </trkpt>
      <trkpt lat="43.48501" lon="2.2761">
        <ele>622.3</ele>
        <time>2017-06-01T10:49:46.000Z</time>
      </trkpt>
      <trkpt lat="43.48502" lon="2.27604">
        <ele>622.7</ele>
        <time>2017-06-01T10:49:48.000Z</time>
      </trkpt>
      <trkpt lat="43.48503" lon="2.27598">
        <ele>623.3</ele>
        <time>2017-06-01T10:49:51.000Z</time>
      </trkpt>
      <trkpt lat="43.48503" lon="2.27593">
        <ele>623.9</ele>
        <time>2017-06-01T10:49:54.000Z</time>
      </trkpt>
      <trkpt lat="43.48499" lon="2.27593">
        <ele>624.4</ele>
        <time>2017-06-01T10:49:55.000Z</time>
      </trkpt>
      <trkpt lat="43.48497" lon="2.2759">
        <ele>624.7</ele>
        <time>2017-06-01T10:49:56.000Z</time>
      </trkpt>
      <trkpt lat="43.48492" lon="2.27588">
        <ele>625.3</ele>
        <time>2017-06-01T10:49:58.000Z</time>
      </trkpt>
      <trkpt lat="43.48489" lon="2.27588">
        <ele>625.7</ele>
        <time>2017-06-01T10:50:00.000Z</time>
      </trkpt>
      <trkpt lat="43.48486" lon="2.27588">
        <ele>626</ele>
        <time>2017-06-01T10:50:03.000Z</time>
      </trkpt>
      <trkpt lat="43.48484" lon="2.27588">
        <ele>626.3</ele>
        <time>2017-06-01T10:50:04.000Z</time>
      </trkpt>
      <trkpt lat="43.48478" lon="2.27592">
        <ele>626.9</ele>
        <time>2017-06-01T10:50:05.000Z</time>
      </trkpt>
      <trkpt lat="43.4847" lon="2.27596">
        <ele>627.7</ele>
        <time>2017-06-01T10:50:07.000Z</time>
      </trkpt>
      <trkpt lat="43.48465" lon="2.27593">
        <ele>628.1</ele>
        <time>2017-06-01T10:50:08.000Z</time>
      </trkpt>
      <trkpt lat="43.48455" lon="2.27592">
        <ele>629.2</ele>
        <time>2017-06-01T10:50:10.000Z</time>
      </trkpt>
      <trkpt lat="43.48453" lon="2.27595">
        <ele>629.5</ele>
        <time>2017-06-01T10:50:11.000Z</time>
      </trkpt>
      <trkpt lat="43.48447" lon="2.27596">
        <ele>630</ele>
        <time>2017-06-01T10:50:14.000Z</time>
      </trkpt>
      <trkpt lat="43.48445" lon="2.27597">
        <ele>630.2</ele>
        <time>2017-06-01T10:50:15.000Z</time>
      </trkpt>
      <trkpt lat="43.48437" lon="2.27597">
        <ele>630.7</ele>
        <time>2017-06-01T10:50:17.000Z</time>
      </trkpt>
      <trkpt lat="43.48434" lon="2.27598">
        <ele>631</ele>
        <time>2017-06-01T10:50:18.000Z</time>
      </trkpt>
      <trkpt lat="43.4843" lon="2.27597">
        <ele>631.3</ele>
        <time>2017-06-01T10:50:19.000Z</time>
      </trkpt>
      <trkpt lat="43.48424" lon="2.27597">
        <ele>631.8</ele>
        <time>2017-06-01T10:50:21.000Z</time>
      </trkpt>
      <trkpt lat="43.48424" lon="2.27602">
        <ele>632</ele>
        <time>2017-06-01T10:50:23.000Z</time>
      </trkpt>
      <trkpt lat="43.48427" lon="2.27607">
        <ele>632.4</ele>
        <time>2017-06-01T10:50:24.000Z</time>
      </trkpt>
      <trkpt lat="43.48426" lon="2.27612">
        <ele>632.7</ele>
        <time>2017-06-01T10:50:26.000Z</time>
      </trkpt>
      <trkpt lat="43.48422" lon="2.27611">
        <ele>633</ele>
        <time>2017-06-01T10:50:28.000Z</time>
      </trkpt>
      <trkpt lat="43.48422" lon="2.27615">
        <ele>633.2</ele>
        <time>2017-06-01T10:50:29.000Z</time>
      </trkpt>
      <trkpt lat="43.48417" lon="2.27616">
        <ele>633.6</ele>
        <time>2017-06-01T10:50:32.000Z</time>
      </trkpt>
      <trkpt lat="43.48408" lon="2.27619">
        <ele>634.1</ele>
        <time>2017-06-01T10:50:34.000Z</time>
      </trkpt>
      <trkpt lat="43.48403" lon="2.27619">
        <ele>634.4</ele>
        <time>2017-06-01T10:50:36.000Z</time>
      </trkpt>
      <trkpt lat="43.48399" lon="2.27618">
        <ele>634.6</ele>
        <time>2017-06-01T10:50:37.000Z</time>
      </trkpt>
      <trkpt lat="43.48392" lon="2.27622">
        <ele>634.9</ele>
        <time>2017-06-01T10:50:39.000Z</time>
      </trkpt>
      <trkpt lat="43.48388" lon="2.27624">
        <ele>635.1</ele>
        <time>2017-06-01T10:50:41.000Z</time>
      </trkpt>
      <trkpt lat="43.48382" lon="2.27626">
        <ele>635.4</ele>
        <time>2017-06-01T10:50:43.000Z</time>
      </trkpt>
      <trkpt lat="43.48377" lon="2.27629">
        <ele>635.6</ele>
        <time>2017-06-01T10:50:45.000Z</time>
      </trkpt>
      <trkpt lat="43.48371" lon="2.27632">
        <ele>635.7</ele>
        <time>2017-06-01T10:50:47.000Z</time>
      </trkpt>
      <trkpt lat="43.48363" lon="2.27631">
        <ele>636</ele>
        <time>2017-06-01T10:50:48.000Z</time>
      </trkpt>
      <trkpt lat="43.48358" lon="2.27633">
        <ele>636.1</ele>
        <time>2017-06-01T10:50:50.000Z</time>
      </trkpt>
      <trkpt lat="43.48354" lon="2.27635">
        <ele>636.2</ele>
        <time>2017-06-01T10:50:51.000Z</time>
      </trkpt>
      <trkpt lat="43.48345" lon="2.27638">
        <ele>636.3</ele>
        <time>2017-06-01T10:50:52.000Z</time>
      </trkpt>
      <trkpt lat="43.48333" lon="2.27632">
        <ele>636.5</ele>
        <time>2017-06-01T10:50:53.000Z</time>
      </trkpt>
      <trkpt lat="43.48327" lon="2.27634">
        <ele>636.6</ele>
        <time>2017-06-01T10:50:54.000Z</time>
      </trkpt>
      <trkpt lat="43.4832" lon="2.27633">
        <ele>636.7</ele>
        <time>2017-06-01T10:50:55.000Z</time>
      </trkpt>
      <trkpt lat="43.48317" lon="2.27636">
        <ele>636.7</ele>
        <time>2017-06-01T10:50:56.000Z</time>
      </trkpt>
      <trkpt lat="43.48315" lon="2.27638">
        <ele>636.7</ele>
        <time>2017-06-01T10:50:57.000Z</time>
      </trkpt>
      <trkpt lat="43.48311" lon="2.27639">
        <ele>636.7</ele>
        <time>2017-06-01T10:50:58.000Z</time>
      </trkpt>
      <trkpt lat="43.48308" lon="2.27652">
        <ele>636.8</ele>
        <time>2017-06-01T10:50:59.000Z</time>
      </trkpt>
      <trkpt lat="43.48304" lon="2.27662">
        <ele>636.8</ele>
        <time>2017-06-01T10:51:00.000Z</time>
      </trkpt>
      <trkpt lat="43.483" lon="2.27662">
        <ele>636.8</ele>
        <time>2017-06-01T10:51:01.000Z</time>
      </trkpt>
      <trkpt lat="43.48296" lon="2.27653">
        <ele>636.8</ele>
        <time>2017-06-01T10:51:02.000Z</time>
      </trkpt>
      <trkpt lat="43.48292" lon="2.27655">
        <ele>636.8</ele>
        <time>2017-06-01T10:51:03.000Z</time>
      </trkpt>
      <trkpt lat="43.4829" lon="2.27659">
        <ele>636.8</ele>
        <time>2017-06-01T10:51:04.000Z</time>
      </trkpt>
      <trkpt lat="43.48285" lon="2.2766">
        <ele>636.8</ele>
        <time>2017-06-01T10:51:06.000Z</time>
      </trkpt>
      <trkpt lat="43.48281" lon="2.27658">
        <ele>636.8</ele>
        <time>2017-06-01T10:51:07.000Z</time>
      </trkpt>
      <trkpt lat="43.48275" lon="2.27658">
        <ele>636.8</ele>
        <time>2017-06-01T10:51:08.000Z</time>
      </trkpt>
      <trkpt lat="43.48272" lon="2.27658">
        <ele>636.8</ele>
        <time>2017-06-01T10:51:09.000Z</time>
      </trkpt>
      <trkpt lat="43.48269" lon="2.27652">
        <ele>636.8</ele>
        <time>2017-06-01T10:51:10.000Z</time>
      </trkpt>
      <trkpt lat="43.48265" lon="2.27652">
        <ele>636.8</ele>
        <time>2017-06-01T10:51:11.000Z</time>
      </trkpt>
      <trkpt lat="43.4826" lon="2.27654">
        <ele>636.8</ele>
        <time>2017-06-01T10:51:12.000Z</time>
      </trkpt>
      <trkpt lat="43.48251" lon="2.27647">
        <ele>636.9</ele>
        <time>2017-06-01T10:51:13.000Z</time>
      </trkpt>
      <trkpt lat="43.48247" lon="2.27646">
        <ele>636.9</ele>
        <time>2017-06-01T10:51:14.000Z</time>
      </trkpt>
      <trkpt lat="43.48242" lon="2.27647">
        <ele>636.9</ele>
        <time>2017-06-01T10:51:15.000Z</time>
      </trkpt>
      <trkpt lat="43.48238" lon="2.27643">
        <ele>636.9</ele>
        <time>2017-06-01T10:51:16.000Z</time>
      </trkpt>
      <trkpt lat="43.48235" lon="2.27643">
        <ele>636.9</ele>
        <time>2017-06-01T10:51:17.000Z</time>
      </trkpt>
      <trkpt lat="43.48229" lon="2.27642">
        <ele>637</ele>
        <time>2017-06-01T10:51:19.000Z</time>
      </trkpt>
      <trkpt lat="43.48224" lon="2.27644">
        <ele>637</ele>
        <time>2017-06-01T10:51:20.000Z</time>
      </trkpt>
      <trkpt lat="43.48219" lon="2.27643">
        <ele>637.1</ele>
        <time>2017-06-01T10:51:21.000Z</time>
      </trkpt>
      <trkpt lat="43.48213" lon="2.27643">
        <ele>637.1</ele>
        <time>2017-06-01T10:51:22.000Z</time>
      </trkpt>
      <trkpt lat="43.48208" lon="2.27642">
        <ele>637.2</ele>
        <time>2017-06-01T10:51:23.000Z</time>
      </trkpt>
      <trkpt lat="43.48204" lon="2.27642">
        <ele>637.3</ele>
        <time>2017-06-01T10:51:24.000Z</time>
      </trkpt>
      <trkpt lat="43.48199" lon="2.27641">
        <ele>637.3</ele>
        <time>2017-06-01T10:51:25.000Z</time>
      </trkpt>
      <trkpt lat="43.48192" lon="2.27641">
        <ele>637.4</ele>
        <time>2017-06-01T10:51:27.000Z</time>
      </trkpt>
      <trkpt lat="43.48188" lon="2.2764">
        <ele>637.4</ele>
        <time>2017-06-01T10:51:28.000Z</time>
      </trkpt>
      <trkpt lat="43.48181" lon="2.27639">
        <ele>637.5</ele>
        <time>2017-06-01T10:51:30.000Z</time>
      </trkpt>
      <trkpt lat="43.48179" lon="2.27643">
        <ele>637.6</ele>
        <time>2017-06-01T10:51:31.000Z</time>
      </trkpt>
      <trkpt lat="43.48177" lon="2.27661">
        <ele>637.9</ele>
        <time>2017-06-01T10:51:32.000Z</time>
      </trkpt>
      <trkpt lat="43.48172" lon="2.27657">
        <ele>638.1</ele>
        <time>2017-06-01T10:51:33.000Z</time>
      </trkpt>
      <trkpt lat="43.48169" lon="2.2766">
        <ele>638.1</ele>
        <time>2017-06-01T10:51:34.000Z</time>
      </trkpt>
      <trkpt lat="43.48164" lon="2.27665">
        <ele>638.3</ele>
        <time>2017-06-01T10:51:35.000Z</time>
      </trkpt>
      <trkpt lat="43.48165" lon="2.27675">
        <ele>638.6</ele>
        <time>2017-06-01T10:51:36.000Z</time>
      </trkpt>
      <trkpt lat="43.48159" lon="2.27677">
        <ele>638.8</ele>
        <time>2017-06-01T10:51:37.000Z</time>
      </trkpt>
      <trkpt lat="43.48156" lon="2.27683">
        <ele>639.1</ele>
        <time>2017-06-01T10:51:38.000Z</time>
      </trkpt>
      <trkpt lat="43.48152" lon="2.27689">
        <ele>639.3</ele>
        <time>2017-06-01T10:51:39.000Z</time>
      </trkpt>
      <trkpt lat="43.48147" lon="2.27694">
        <ele>639.7</ele>
        <time>2017-06-01T10:51:40.000Z</time>
      </trkpt>
      <trkpt lat="43.48144" lon="2.27701">
        <ele>640.1</ele>
        <time>2017-06-01T10:51:41.000Z</time>
      </trkpt>
      <trkpt lat="43.48147" lon="2.27702">
        <ele>640.3</ele>
        <time>2017-06-01T10:51:42.000Z</time>
      </trkpt>
      <trkpt lat="43.48151" lon="2.27703">
        <ele>640.5</ele>
        <time>2017-06-01T10:51:43.000Z</time>
      </trkpt>
      <trkpt lat="43.48151" lon="2.27699">
        <ele>640.7</ele>
        <time>2017-06-01T10:51:44.000Z</time>
      </trkpt>
      <trkpt lat="43.48147" lon="2.27704">
        <ele>641.1</ele>
        <time>2017-06-01T10:51:46.000Z</time>
      </trkpt>
      <trkpt lat="43.48146" lon="2.27709">
        <ele>641.4</ele>
        <time>2017-06-01T10:51:47.000Z</time>
      </trkpt>
      <trkpt lat="43.48142" lon="2.27712">
        <ele>641.8</ele>
        <time>2017-06-01T10:51:48.000Z</time>
      </trkpt>
      <trkpt lat="43.48141" lon="2.27718">
        <ele>642.1</ele>
        <time>2017-06-01T10:51:49.000Z</time>
      </trkpt>
      <trkpt lat="43.4814" lon="2.27722">
        <ele>642.4</ele>
        <time>2017-06-01T10:51:50.000Z</time>
      </trkpt>
      <trkpt lat="43.48133" lon="2.27724">
        <ele>643.1</ele>
        <time>2017-06-01T10:51:51.000Z</time>
      </trkpt>
      <trkpt lat="43.48132" lon="2.27731">
        <ele>643.7</ele>
        <time>2017-06-01T10:51:53.000Z</time>
      </trkpt>
      <trkpt lat="43.48126" lon="2.27731">
        <ele>644.3</ele>
        <time>2017-06-01T10:51:54.000Z</time>
      </trkpt>
      <trkpt lat="43.48122" lon="2.27735">
        <ele>644.8</ele>
        <time>2017-06-01T10:51:56.000Z</time>
      </trkpt>
      <trkpt lat="43.48119" lon="2.27737">
        <ele>645.2</ele>
        <time>2017-06-01T10:51:57.000Z</time>
      </trkpt>
      <trkpt lat="43.48113" lon="2.2774">
        <ele>645.7</ele>
        <time>2017-06-01T10:51:58.000Z</time>
      </trkpt>
      <trkpt lat="43.48118" lon="2.27743">
        <ele>646.1</ele>
        <time>2017-06-01T10:51:59.000Z</time>
      </trkpt>
      <trkpt lat="43.48114" lon="2.27741">
        <ele>646.4</ele>
        <time>2017-06-01T10:52:00.000Z</time>
      </trkpt>
      <trkpt lat="43.48109" lon="2.27737">
        <ele>647</ele>
        <time>2017-06-01T10:52:02.000Z</time>
      </trkpt>
      <trkpt lat="43.48105" lon="2.27734">
        <ele>647.5</ele>
        <time>2017-06-01T10:52:04.000Z</time>
      </trkpt>
      <trkpt lat="43.48102" lon="2.27734">
        <ele>647.8</ele>
        <time>2017-06-01T10:52:07.000Z</time>
      </trkpt>
      <trkpt lat="43.48096" lon="2.27734">
        <ele>648.4</ele>
        <time>2017-06-01T10:52:10.000Z</time>
      </trkpt>
      <trkpt lat="43.48092" lon="2.27733">
        <ele>648.8</ele>
        <time>2017-06-01T10:52:11.000Z</time>
      </trkpt>
      <trkpt lat="43.48086" lon="2.2774">
        <ele>649.6</ele>
        <time>2017-06-01T10:52:12.000Z</time>
      </trkpt>
      <trkpt lat="43.48089" lon="2.27744">
        <ele>650</ele>
        <time>2017-06-01T10:52:14.000Z</time>
      </trkpt>
      <trkpt lat="43.4808" lon="2.27744">
        <ele>650.3</ele>
        <time>2017-06-01T10:52:15.000Z</time>
      </trkpt>
      <trkpt lat="43.48076" lon="2.27746">
        <ele>650.4</ele>
        <time>2017-06-01T10:52:17.000Z</time>
      </trkpt>
      <trkpt lat="43.48072" lon="2.27743">
        <ele>650.6</ele>
        <time>2017-06-01T10:52:19.000Z</time>
      </trkpt>
      <trkpt lat="43.48067" lon="2.27734">
        <ele>650.9</ele>
        <time>2017-06-01T10:52:20.000Z</time>
      </trkpt>
      <trkpt lat="43.48065" lon="2.27737">
        <ele>651</ele>
        <time>2017-06-01T10:52:22.000Z</time>
      </trkpt>
      <trkpt lat="43.48068" lon="2.27733">
        <ele>651.1</ele>
        <time>2017-06-01T10:52:23.000Z</time>
      </trkpt>
      <trkpt lat="43.48063" lon="2.27737">
        <ele>651.3</ele>
        <time>2017-06-01T10:52:25.000Z</time>
      </trkpt>
      <trkpt lat="43.48055" lon="2.2774">
        <ele>651.7</ele>
        <time>2017-06-01T10:52:29.000Z</time>
      </trkpt>
      <trkpt lat="43.48044" lon="2.27737">
        <ele>652.3</ele>
        <time>2017-06-01T10:52:30.000Z</time>
      </trkpt>
      <trkpt lat="43.48041" lon="2.27736">
        <ele>652.4</ele>
        <time>2017-06-01T10:52:31.000Z</time>
      </trkpt>
      <trkpt lat="43.48037" lon="2.27733">
        <ele>652.7</ele>
        <time>2017-06-01T10:52:32.000Z</time>
      </trkpt>
      <trkpt lat="43.48032" lon="2.27731">
        <ele>652.9</ele>
        <time>2017-06-01T10:52:34.000Z</time>
      </trkpt>
      <trkpt lat="43.4803" lon="2.27728">
        <ele>653</ele>
        <time>2017-06-01T10:52:35.000Z</time>
      </trkpt>
      <trkpt lat="43.48025" lon="2.27722">
        <ele>653.3</ele>
        <time>2017-06-01T10:52:37.000Z</time>
      </trkpt>
      <trkpt lat="43.48022" lon="2.27715">
        <ele>653.6</ele>
        <time>2017-06-01T10:52:40.000Z</time>
      </trkpt>
      <trkpt lat="43.4802" lon="2.27714">
        <ele>653.7</ele>
        <time>2017-06-01T10:52:41.000Z</time>
      </trkpt>
      <trkpt lat="43.48017" lon="2.27708">
        <ele>653.9</ele>
        <time>2017-06-01T10:52:43.000Z</time>
      </trkpt>
      <trkpt lat="43.48015" lon="2.27705">
        <ele>654.1</ele>
        <time>2017-06-01T10:52:44.000Z</time>
      </trkpt>
      <trkpt lat="43.48013" lon="2.27701">
        <ele>654.2</ele>
        <time>2017-06-01T10:52:45.000Z</time>
      </trkpt>
      <trkpt lat="43.48011" lon="2.27696">
        <ele>654.4</ele>
        <time>2017-06-01T10:52:46.000Z</time>
      </trkpt>
      <trkpt lat="43.4801" lon="2.27692">
        <ele>654.5</ele>
        <time>2017-06-01T10:52:47.000Z</time>
      </trkpt>
      <trkpt lat="43.48008" lon="2.27687">
        <ele>654.7</ele>
        <time>2017-06-01T10:52:48.000Z</time>
      </trkpt>
      <trkpt lat="43.48006" lon="2.27684">
        <ele>654.8</ele>
        <time>2017-06-01T10:52:49.000Z</time>
      </trkpt>
      <trkpt lat="43.48004" lon="2.27677">
        <ele>655</ele>
        <time>2017-06-01T10:52:51.000Z</time>
      </trkpt>
      <trkpt lat="43.48004" lon="2.27671">
        <ele>655.2</ele>
        <time>2017-06-01T10:52:52.000Z</time>
      </trkpt>
      <trkpt lat="43.47998" lon="2.27665">
        <ele>655.5</ele>
        <time>2017-06-01T10:52:54.000Z</time>
      </trkpt>
      <trkpt lat="43.47998" lon="2.2766">
        <ele>655.6</ele>
        <time>2017-06-01T10:52:55.000Z</time>
      </trkpt>
      <trkpt lat="43.48" lon="2.27652">
        <ele>655.9</ele>
        <time>2017-06-01T10:52:57.000Z</time>
      </trkpt>
      <trkpt lat="43.47999" lon="2.27648">
        <ele>656</ele>
        <time>2017-06-01T10:52:58.000Z</time>
      </trkpt>
      <trkpt lat="43.47997" lon="2.27645">
        <ele>656.1</ele>
        <time>2017-06-01T10:52:59.000Z</time>
      </trkpt>
      <trkpt lat="43.47998" lon="2.2764">
        <ele>656.3</ele>
        <time>2017-06-01T10:53:00.000Z</time>
      </trkpt>
      <trkpt lat="43.47999" lon="2.27637">
        <ele>656.4</ele>
        <time>2017-06-01T10:53:02.000Z</time>
      </trkpt>
      <trkpt lat="43.47999" lon="2.27633">
        <ele>656.5</ele>
        <time>2017-06-01T10:53:03.000Z</time>
      </trkpt>
      <trkpt lat="43.47999" lon="2.27629">
        <ele>656.6</ele>
        <time>2017-06-01T10:53:04.000Z</time>
      </trkpt>
      <trkpt lat="43.47998" lon="2.27625">
        <ele>656.7</ele>
        <time>2017-06-01T10:53:05.000Z</time>
      </trkpt>
      <trkpt lat="43.47999" lon="2.2762">
        <ele>656.9</ele>
        <time>2017-06-01T10:53:06.000Z</time>
      </trkpt>
      <trkpt lat="43.47998" lon="2.27615">
        <ele>657.1</ele>
        <time>2017-06-01T10:53:07.000Z</time>
      </trkpt>
      <trkpt lat="43.47994" lon="2.27609">
        <ele>657.3</ele>
        <time>2017-06-01T10:53:08.000Z</time>
      </trkpt>
      <trkpt lat="43.47994" lon="2.276">
        <ele>657.6</ele>
        <time>2017-06-01T10:53:10.000Z</time>
      </trkpt>
      <trkpt lat="43.47994" lon="2.27595">
        <ele>657.8</ele>
        <time>2017-06-01T10:53:12.000Z</time>
      </trkpt>
      <trkpt lat="43.47996" lon="2.27592">
        <ele>657.9</ele>
        <time>2017-06-01T10:53:14.000Z</time>
      </trkpt>
      <trkpt lat="43.47995" lon="2.27586">
        <ele>658.1</ele>
        <time>2017-06-01T10:53:15.000Z</time>
      </trkpt>
      <trkpt lat="43.47996" lon="2.27579">
        <ele>658.4</ele>
        <time>2017-06-01T10:53:17.000Z</time>
      </trkpt>
      <trkpt lat="43.47993" lon="2.27575">
        <ele>658.6</ele>
        <time>2017-06-01T10:53:18.000Z</time>
      </trkpt>
      <trkpt lat="43.47986" lon="2.27571">
        <ele>658.8</ele>
        <time>2017-06-01T10:53:20.000Z</time>
      </trkpt>
      <trkpt lat="43.47982" lon="2.27567">
        <ele>659</ele>
        <time>2017-06-01T10:53:22.000Z</time>
      </trkpt>
      <trkpt lat="43.47978" lon="2.27564">
        <ele>659.2</ele>
        <time>2017-06-01T10:53:25.000Z</time>
      </trkpt>
      <trkpt lat="43.47976" lon="2.27557">
        <ele>659.3</ele>
        <time>2017-06-01T10:53:26.000Z</time>
      </trkpt>
      <trkpt lat="43.47976" lon="2.27553">
        <ele>659.4</ele>
        <time>2017-06-01T10:53:27.000Z</time>
      </trkpt>
      <trkpt lat="43.47964" lon="2.27552">
        <ele>659.7</ele>
        <time>2017-06-01T10:53:29.000Z</time>
      </trkpt>
      <trkpt lat="43.4796" lon="2.27548">
        <ele>659.9</ele>
        <time>2017-06-01T10:53:31.000Z</time>
      </trkpt>
      <trkpt lat="43.47956" lon="2.27544">
        <ele>660</ele>
        <time>2017-06-01T10:53:33.000Z</time>
      </trkpt>
      <trkpt lat="43.4795" lon="2.27546">
        <ele>660.1</ele>
        <time>2017-06-01T10:53:35.000Z</time>
      </trkpt>
      <trkpt lat="43.47947" lon="2.27547">
        <ele>660.2</ele>
        <time>2017-06-01T10:53:36.000Z</time>
      </trkpt>
      <trkpt lat="43.47942" lon="2.27547">
        <ele>660.3</ele>
        <time>2017-06-01T10:53:38.000Z</time>
      </trkpt>
      <trkpt lat="43.47938" lon="2.27548">
        <ele>660.3</ele>
        <time>2017-06-01T10:53:40.000Z</time>
      </trkpt>
      <trkpt lat="43.47941" lon="2.27543">
        <ele>660.4</ele>
        <time>2017-06-01T10:53:41.000Z</time>
      </trkpt>
      <trkpt lat="43.47933" lon="2.27538">
        <ele>660.6</ele>
        <time>2017-06-01T10:53:43.000Z</time>
      </trkpt>
      <trkpt lat="43.47925" lon="2.27544">
        <ele>660.7</ele>
        <time>2017-06-01T10:53:44.000Z</time>
      </trkpt>
      <trkpt lat="43.47919" lon="2.27546">
        <ele>660.8</ele>
        <time>2017-06-01T10:53:47.000Z</time>
      </trkpt>
      <trkpt lat="43.47916" lon="2.2754">
        <ele>660.9</ele>
        <time>2017-06-01T10:53:49.000Z</time>
      </trkpt>
      <trkpt lat="43.47914" lon="2.27538">
        <ele>660.9</ele>
        <time>2017-06-01T10:53:50.000Z</time>
      </trkpt>
      <trkpt lat="43.47914" lon="2.27543">
        <ele>661</ele>
        <time>2017-06-01T10:53:51.000Z</time>
      </trkpt>
      <trkpt lat="43.4791" lon="2.27545">
        <ele>661</ele>
        <time>2017-06-01T10:53:52.000Z</time>
      </trkpt>
      <trkpt lat="43.47907" lon="2.2755">
        <ele>661</ele>
        <time>2017-06-01T10:53:54.000Z</time>
      </trkpt>
      <trkpt lat="43.47906" lon="2.27554">
        <ele>661</ele>
        <time>2017-06-01T10:53:55.000Z</time>
      </trkpt>
      <trkpt lat="43.47911" lon="2.27555">
        <ele>661</ele>
        <time>2017-06-01T10:53:56.000Z</time>
      </trkpt>
      <trkpt lat="43.47905" lon="2.2756">
        <ele>661</ele>
        <time>2017-06-01T10:53:57.000Z</time>
      </trkpt>
      <trkpt lat="43.47908" lon="2.27562">
        <ele>661</ele>
        <time>2017-06-01T10:53:58.000Z</time>
      </trkpt>
      <trkpt lat="43.4791" lon="2.27567">
        <ele>661</ele>
        <time>2017-06-01T10:53:59.000Z</time>
      </trkpt>
      <trkpt lat="43.47918" lon="2.27574">
        <ele>661</ele>
        <time>2017-06-01T10:54:01.000Z</time>
      </trkpt>
      <trkpt lat="43.47919" lon="2.27577">
        <ele>660.9</ele>
        <time>2017-06-01T10:54:02.000Z</time>
      </trkpt>
      <trkpt lat="43.47928" lon="2.27579">
        <ele>660.9</ele>
        <time>2017-06-01T10:54:03.000Z</time>
      </trkpt>
      <trkpt lat="43.47931" lon="2.27584">
        <ele>660.9</ele>
        <time>2017-06-01T10:54:04.000Z</time>
      </trkpt>
      <trkpt lat="43.47925" lon="2.27587">
        <ele>660.9</ele>
        <time>2017-06-01T10:54:05.000Z</time>
      </trkpt>
      <trkpt lat="43.47929" lon="2.27591">
        <ele>660.9</ele>
        <time>2017-06-01T10:54:06.000Z</time>
      </trkpt>
      <trkpt lat="43.47935" lon="2.27599">
        <ele>660.9</ele>
        <time>2017-06-01T10:54:07.000Z</time>
      </trkpt>
      <trkpt lat="43.47937" lon="2.2761">
        <ele>660.9</ele>
        <time>2017-06-01T10:54:08.000Z</time>
      </trkpt>
      <trkpt lat="43.47936" lon="2.27617">
        <ele>660.9</ele>
        <time>2017-06-01T10:54:09.000Z</time>
      </trkpt>
      <trkpt lat="43.4794" lon="2.27618">
        <ele>661</ele>
        <time>2017-06-01T10:54:10.000Z</time>
      </trkpt>
      <trkpt lat="43.47939" lon="2.27624">
        <ele>661</ele>
        <time>2017-06-01T10:54:11.000Z</time>
      </trkpt>
      <trkpt lat="43.47941" lon="2.2763">
        <ele>661.1</ele>
        <time>2017-06-01T10:54:12.000Z</time>
      </trkpt>
      <trkpt lat="43.47939" lon="2.27637">
        <ele>661.2</ele>
        <time>2017-06-01T10:54:13.000Z</time>
      </trkpt>
      <trkpt lat="43.4794" lon="2.27642">
        <ele>661.2</ele>
        <time>2017-06-01T10:54:14.000Z</time>
      </trkpt>
      <trkpt lat="43.4794" lon="2.27649">
        <ele>661.3</ele>
        <time>2017-06-01T10:54:16.000Z</time>
      </trkpt>
      <trkpt lat="43.4794" lon="2.27653">
        <ele>661.3</ele>
        <time>2017-06-01T10:54:17.000Z</time>
      </trkpt>
      <trkpt lat="43.4794" lon="2.27658">
        <ele>661.4</ele>
        <time>2017-06-01T10:54:18.000Z</time>
      </trkpt>
      <trkpt lat="43.4794" lon="2.27662">
        <ele>661.5</ele>
        <time>2017-06-01T10:54:19.000Z</time>
      </trkpt>
      <trkpt lat="43.47939" lon="2.27669">
        <ele>661.6</ele>
        <time>2017-06-01T10:54:21.000Z</time>
      </trkpt>
      <trkpt lat="43.47935" lon="2.27672">
        <ele>661.7</ele>
        <time>2017-06-01T10:54:22.000Z</time>
      </trkpt>
      <trkpt lat="43.4793" lon="2.27676">
        <ele>661.8</ele>
        <time>2017-06-01T10:54:23.000Z</time>
      </trkpt>
      <trkpt lat="43.47916" lon="2.27696">
        <ele>662.2</ele>
        <time>2017-06-01T10:54:26.000Z</time>
      </trkpt>
      <trkpt lat="43.47914" lon="2.277">
        <ele>662.3</ele>
        <time>2017-06-01T10:54:27.000Z</time>
      </trkpt>
      <trkpt lat="43.47898" lon="2.27714">
        <ele>662.9</ele>
        <time>2017-06-01T10:54:30.000Z</time>
      </trkpt>
      <trkpt lat="43.479" lon="2.27718">
        <ele>663</ele>
        <time>2017-06-01T10:54:31.000Z</time>
      </trkpt>
      <trkpt lat="43.47897" lon="2.27722">
        <ele>663.2</ele>
        <time>2017-06-01T10:54:32.000Z</time>
      </trkpt>
      <trkpt lat="43.47892" lon="2.27726">
        <ele>663.3</ele>
        <time>2017-06-01T10:54:33.000Z</time>
      </trkpt>
      <trkpt lat="43.47886" lon="2.27727">
        <ele>663.5</ele>
        <time>2017-06-01T10:54:34.000Z</time>
      </trkpt>
      <trkpt lat="43.47882" lon="2.27731">
        <ele>663.7</ele>
        <time>2017-06-01T10:54:35.000Z</time>
      </trkpt>
      <trkpt lat="43.47877" lon="2.27736">
        <ele>663.9</ele>
        <time>2017-06-01T10:54:36.000Z</time>
      </trkpt>
      <trkpt lat="43.47877" lon="2.27743">
        <ele>664.1</ele>
        <time>2017-06-01T10:54:37.000Z</time>
      </trkpt>
      <trkpt lat="43.47874" lon="2.27746">
        <ele>664.3</ele>
        <time>2017-06-01T10:54:38.000Z</time>
      </trkpt>
      <trkpt lat="43.47871" lon="2.27747">
        <ele>664.4</ele>
        <time>2017-06-01T10:54:39.000Z</time>
      </trkpt>
      <trkpt lat="43.47865" lon="2.27753">
        <ele>664.7</ele>
        <time>2017-06-01T10:54:41.000Z</time>
      </trkpt>
      <trkpt lat="43.47857" lon="2.27757">
        <ele>665.1</ele>
        <time>2017-06-01T10:54:43.000Z</time>
      </trkpt>
      <trkpt lat="43.47859" lon="2.27763">
        <ele>665.3</ele>
        <time>2017-06-01T10:54:45.000Z</time>
      </trkpt>
      <trkpt lat="43.47866" lon="2.27773">
        <ele>665.8</ele>
        <time>2017-06-01T10:54:46.000Z</time>
      </trkpt>
      <trkpt lat="43.4786" lon="2.27773">
        <ele>666.1</ele>
        <time>2017-06-01T10:54:47.000Z</time>
      </trkpt>
      <trkpt lat="43.47857" lon="2.27775">
        <ele>666.2</ele>
        <time>2017-06-01T10:54:48.000Z</time>
      </trkpt>
      <trkpt lat="43.47856" lon="2.27779">
        <ele>666.4</ele>
        <time>2017-06-01T10:54:49.000Z</time>
      </trkpt>
      <trkpt lat="43.47865" lon="2.27782">
        <ele>666.8</ele>
        <time>2017-06-01T10:54:51.000Z</time>
      </trkpt>
      <trkpt lat="43.47862" lon="2.27784">
        <ele>666.9</ele>
        <time>2017-06-01T10:54:52.000Z</time>
      </trkpt>
      <trkpt lat="43.47856" lon="2.27784">
        <ele>667.2</ele>
        <time>2017-06-01T10:54:53.000Z</time>
      </trkpt>
      <trkpt lat="43.47845" lon="2.27787">
        <ele>667.7</ele>
        <time>2017-06-01T10:54:54.000Z</time>
      </trkpt>
      <trkpt lat="43.47844" lon="2.27793">
        <ele>667.9</ele>
        <time>2017-06-01T10:54:55.000Z</time>
      </trkpt>
      <trkpt lat="43.4784" lon="2.27794">
        <ele>668.1</ele>
        <time>2017-06-01T10:54:56.000Z</time>
      </trkpt>
      <trkpt lat="43.47829" lon="2.278">
        <ele>668.6</ele>
        <time>2017-06-01T10:54:58.000Z</time>
      </trkpt>
      <trkpt lat="43.4782" lon="2.27802">
        <ele>669</ele>
        <time>2017-06-01T10:54:59.000Z</time>
      </trkpt>
      <trkpt lat="43.47824" lon="2.27806">
        <ele>669.2</ele>
        <time>2017-06-01T10:55:00.000Z</time>
      </trkpt>
      <trkpt lat="43.47821" lon="2.27808">
        <ele>669.3</ele>
        <time>2017-06-01T10:55:02.000Z</time>
      </trkpt>
      <trkpt lat="43.47815" lon="2.27811">
        <ele>669.6</ele>
        <time>2017-06-01T10:55:04.000Z</time>
      </trkpt>
      <trkpt lat="43.47812" lon="2.27811">
        <ele>669.7</ele>
        <time>2017-06-01T10:55:05.000Z</time>
      </trkpt>
      <trkpt lat="43.47808" lon="2.27811">
        <ele>669.8</ele>
        <time>2017-06-01T10:55:07.000Z</time>
      </trkpt>
      <trkpt lat="43.47806" lon="2.27811">
        <ele>669.9</ele>
        <time>2017-06-01T10:55:08.000Z</time>
      </trkpt>
      <trkpt lat="43.47799" lon="2.2781">
        <ele>670.2</ele>
        <time>2017-06-01T10:55:09.000Z</time>
      </trkpt>
      <trkpt lat="43.47795" lon="2.27808">
        <ele>670.4</ele>
        <time>2017-06-01T10:55:10.000Z</time>
      </trkpt>
      <trkpt lat="43.4779" lon="2.27808">
        <ele>670.6</ele>
        <time>2017-06-01T10:55:11.000Z</time>
      </trkpt>
      <trkpt lat="43.47785" lon="2.27809">
        <ele>670.7</ele>
        <time>2017-06-01T10:55:12.000Z</time>
      </trkpt>
      <trkpt lat="43.47788" lon="2.2781">
        <ele>670.8</ele>
        <time>2017-06-01T10:55:13.000Z</time>
      </trkpt>
      <trkpt lat="43.47785" lon="2.2781">
        <ele>671</ele>
        <time>2017-06-01T10:55:14.000Z</time>
      </trkpt>
      <trkpt lat="43.47781" lon="2.27807">
        <ele>671.1</ele>
        <time>2017-06-01T10:55:15.000Z</time>
      </trkpt>
      <trkpt lat="43.47776" lon="2.27806">
        <ele>671.3</ele>
        <time>2017-06-01T10:55:17.000Z</time>
      </trkpt>
      <trkpt lat="43.47772" lon="2.27805">
        <ele>671.5</ele>
        <time>2017-06-01T10:55:18.000Z</time>
      </trkpt>
      <trkpt lat="43.47766" lon="2.27803">
        <ele>671.7</ele>
        <time>2017-06-01T10:55:20.000Z</time>
      </trkpt>
      <trkpt lat="43.4776" lon="2.27802">
        <ele>672</ele>
        <time>2017-06-01T10:55:22.000Z</time>
      </trkpt>
      <trkpt lat="43.47757" lon="2.278">
        <ele>672.1</ele>
        <time>2017-06-01T10:55:23.000Z</time>
      </trkpt>
      <trkpt lat="43.47753" lon="2.278">
        <ele>672.3</ele>
        <time>2017-06-01T10:55:25.000Z</time>
      </trkpt>
      <trkpt lat="43.47749" lon="2.27799">
        <ele>672.5</ele>
        <time>2017-06-01T10:55:26.000Z</time>
      </trkpt>
      <trkpt lat="43.47743" lon="2.278">
        <ele>672.8</ele>
        <time>2017-06-01T10:55:27.000Z</time>
      </trkpt>
      <trkpt lat="43.4774" lon="2.27799">
        <ele>672.9</ele>
        <time>2017-06-01T10:55:29.000Z</time>
      </trkpt>
      <trkpt lat="43.47734" lon="2.27801">
        <ele>673.1</ele>
        <time>2017-06-01T10:55:31.000Z</time>
      </trkpt>
      <trkpt lat="43.47731" lon="2.27801">
        <ele>673.3</ele>
        <time>2017-06-01T10:55:32.000Z</time>
      </trkpt>
      <trkpt lat="43.47724" lon="2.27799">
        <ele>673.6</ele>
        <time>2017-06-01T10:55:34.000Z</time>
      </trkpt>
      <trkpt lat="43.47722" lon="2.27797">
        <ele>673.7</ele>
        <time>2017-06-01T10:55:35.000Z</time>
      </trkpt>
      <trkpt lat="43.47717" lon="2.27802">
        <ele>673.9</ele>
        <time>2017-06-01T10:55:37.000Z</time>
      </trkpt>
      <trkpt lat="43.47715" lon="2.27803">
        <ele>674</ele>
        <time>2017-06-01T10:55:38.000Z</time>
      </trkpt>
      <trkpt lat="43.4771" lon="2.27804">
        <ele>674.3</ele>
        <time>2017-06-01T10:55:40.000Z</time>
      </trkpt>
      <trkpt lat="43.47706" lon="2.27806">
        <ele>674.5</ele>
        <time>2017-06-01T10:55:42.000Z</time>
      </trkpt>
      <trkpt lat="43.47701" lon="2.27808">
        <ele>674.7</ele>
        <time>2017-06-01T10:55:43.000Z</time>
      </trkpt>
      <trkpt lat="43.47695" lon="2.27805">
        <ele>675</ele>
        <time>2017-06-01T10:55:44.000Z</time>
      </trkpt>
      <trkpt lat="43.47691" lon="2.27806">
        <ele>675.2</ele>
        <time>2017-06-01T10:55:45.000Z</time>
      </trkpt>
      <trkpt lat="43.47681" lon="2.27807">
        <ele>675.7</ele>
        <time>2017-06-01T10:55:47.000Z</time>
      </trkpt>
      <trkpt lat="43.47678" lon="2.27809">
        <ele>675.8</ele>
        <time>2017-06-01T10:55:48.000Z</time>
      </trkpt>
      <trkpt lat="43.47679" lon="2.27812">
        <ele>675.9</ele>
        <time>2017-06-01T10:55:49.000Z</time>
      </trkpt>
      <trkpt lat="43.47682" lon="2.27819">
        <ele>676.2</ele>
        <time>2017-06-01T10:55:50.000Z</time>
      </trkpt>
      <trkpt lat="43.47678" lon="2.27819">
        <ele>676.4</ele>
        <time>2017-06-01T10:55:51.000Z</time>
      </trkpt>
      <trkpt lat="43.47675" lon="2.2782">
        <ele>676.5</ele>
        <time>2017-06-01T10:55:52.000Z</time>
      </trkpt>
      <trkpt lat="43.47668" lon="2.27817">
        <ele>676.9</ele>
        <time>2017-06-01T10:55:53.000Z</time>
      </trkpt>
      <trkpt lat="43.47665" lon="2.27816">
        <ele>677.1</ele>
        <time>2017-06-01T10:55:54.000Z</time>
      </trkpt>
      <trkpt lat="43.47669" lon="2.27814">
        <ele>677.3</ele>
        <time>2017-06-01T10:55:55.000Z</time>
      </trkpt>
      <trkpt lat="43.47666" lon="2.27812">
        <ele>677.5</ele>
        <time>2017-06-01T10:55:56.000Z</time>
      </trkpt>
      <trkpt lat="43.47662" lon="2.27812">
        <ele>677.8</ele>
        <time>2017-06-01T10:55:57.000Z</time>
      </trkpt>
      <trkpt lat="43.47657" lon="2.27816">
        <ele>678.1</ele>
        <time>2017-06-01T10:55:59.000Z</time>
      </trkpt>
      <trkpt lat="43.47653" lon="2.27821">
        <ele>678.4</ele>
        <time>2017-06-01T10:56:01.000Z</time>
      </trkpt>
      <trkpt lat="43.4765" lon="2.27822">
        <ele>678.6</ele>
        <time>2017-06-01T10:56:02.000Z</time>
      </trkpt>
      <trkpt lat="43.47645" lon="2.27826">
        <ele>679</ele>
        <time>2017-06-01T10:56:04.000Z</time>
      </trkpt>
      <trkpt lat="43.47641" lon="2.27829">
        <ele>679.3</ele>
        <time>2017-06-01T10:56:05.000Z</time>
      </trkpt>
      <trkpt lat="43.47632" lon="2.27833">
        <ele>679.8</ele>
        <time>2017-06-01T10:56:06.000Z</time>
      </trkpt>
      <trkpt lat="43.47634" lon="2.27836">
        <ele>679.9</ele>
        <time>2017-06-01T10:56:07.000Z</time>
      </trkpt>
      <trkpt lat="43.47631" lon="2.27836">
        <ele>680</ele>
        <time>2017-06-01T10:56:08.000Z</time>
      </trkpt>
      <trkpt lat="43.47628" lon="2.27836">
        <ele>680.2</ele>
        <time>2017-06-01T10:56:11.000Z</time>
      </trkpt>
      <trkpt lat="43.47625" lon="2.27836">
        <ele>680.3</ele>
        <time>2017-06-01T10:56:12.000Z</time>
      </trkpt>
      <trkpt lat="43.47619" lon="2.27838">
        <ele>680.5</ele>
        <time>2017-06-01T10:56:14.000Z</time>
      </trkpt>
      <trkpt lat="43.47618" lon="2.27844">
        <ele>680.7</ele>
        <time>2017-06-01T10:56:15.000Z</time>
      </trkpt>
      <trkpt lat="43.47593" lon="2.2784">
        <ele>681.3</ele>
        <time>2017-06-01T10:56:17.000Z</time>
      </trkpt>
      <trkpt lat="43.4759" lon="2.27841">
        <ele>681.4</ele>
        <time>2017-06-01T10:56:18.000Z</time>
      </trkpt>
      <trkpt lat="43.47584" lon="2.27838">
        <ele>681.4</ele>
        <time>2017-06-01T10:56:19.000Z</time>
      </trkpt>
      <trkpt lat="43.47581" lon="2.2784">
        <ele>681.4</ele>
        <time>2017-06-01T10:56:20.000Z</time>
      </trkpt>
      <trkpt lat="43.47572" lon="2.27837">
        <ele>681.5</ele>
        <time>2017-06-01T10:56:23.000Z</time>
      </trkpt>
      <trkpt lat="43.47569" lon="2.27837">
        <ele>681.5</ele>
        <time>2017-06-01T10:56:25.000Z</time>
      </trkpt>
      <trkpt lat="43.47557" lon="2.2784">
        <ele>681.6</ele>
        <time>2017-06-01T10:56:27.000Z</time>
      </trkpt>
      <trkpt lat="43.47547" lon="2.27844">
        <ele>681.6</ele>
        <time>2017-06-01T10:56:28.000Z</time>
      </trkpt>
      <trkpt lat="43.47544" lon="2.27844">
        <ele>681.6</ele>
        <time>2017-06-01T10:56:29.000Z</time>
      </trkpt>
      <trkpt lat="43.47541" lon="2.27846">
        <ele>681.6</ele>
        <time>2017-06-01T10:56:31.000Z</time>
      </trkpt>
      <trkpt lat="43.47538" lon="2.27844">
        <ele>681.6</ele>
        <time>2017-06-01T10:56:32.000Z</time>
      </trkpt>
      <trkpt lat="43.47533" lon="2.27841">
        <ele>681.6</ele>
        <time>2017-06-01T10:56:34.000Z</time>
      </trkpt>
      <trkpt lat="43.47528" lon="2.27843">
        <ele>681.6</ele>
        <time>2017-06-01T10:56:35.000Z</time>
      </trkpt>
      <trkpt lat="43.47524" lon="2.27843">
        <ele>681.6</ele>
        <time>2017-06-01T10:56:36.000Z</time>
      </trkpt>
      <trkpt lat="43.47528" lon="2.27845">
        <ele>681.6</ele>
        <time>2017-06-01T10:56:37.000Z</time>
      </trkpt>
      <trkpt lat="43.47524" lon="2.27844">
        <ele>681.6</ele>
        <time>2017-06-01T10:56:38.000Z</time>
      </trkpt>
      <trkpt lat="43.4752" lon="2.27844">
        <ele>681.6</ele>
        <time>2017-06-01T10:56:39.000Z</time>
      </trkpt>
      <trkpt lat="43.47515" lon="2.27845">
        <ele>681.6</ele>
        <time>2017-06-01T10:56:42.000Z</time>
      </trkpt>
      <trkpt lat="43.4751" lon="2.27847">
        <ele>681.5</ele>
        <time>2017-06-01T10:56:43.000Z</time>
      </trkpt>
      <trkpt lat="43.47499" lon="2.27839">
        <ele>681.5</ele>
        <time>2017-06-01T10:56:44.000Z</time>
      </trkpt>
      <trkpt lat="43.47491" lon="2.27832">
        <ele>681.5</ele>
        <time>2017-06-01T10:56:45.000Z</time>
      </trkpt>
      <trkpt lat="43.47487" lon="2.27831">
        <ele>681.5</ele>
        <time>2017-06-01T10:56:46.000Z</time>
      </trkpt>
      <trkpt lat="43.47483" lon="2.27829">
        <ele>681.4</ele>
        <time>2017-06-01T10:56:47.000Z</time>
      </trkpt>
      <trkpt lat="43.47478" lon="2.27827">
        <ele>681.4</ele>
        <time>2017-06-01T10:56:48.000Z</time>
      </trkpt>
      <trkpt lat="43.47474" lon="2.27824">
        <ele>681.4</ele>
        <time>2017-06-01T10:56:49.000Z</time>
      </trkpt>
      <trkpt lat="43.4747" lon="2.27823">
        <ele>681.4</ele>
        <time>2017-06-01T10:56:50.000Z</time>
      </trkpt>
      <trkpt lat="43.47466" lon="2.27821">
        <ele>681.4</ele>
        <time>2017-06-01T10:56:51.000Z</time>
      </trkpt>
      <trkpt lat="43.47461" lon="2.27819">
        <ele>681.4</ele>
        <time>2017-06-01T10:56:52.000Z</time>
      </trkpt>
      <trkpt lat="43.47457" lon="2.27818">
        <ele>681.4</ele>
        <time>2017-06-01T10:56:53.000Z</time>
      </trkpt>
      <trkpt lat="43.47453" lon="2.27816">
        <ele>681.3</ele>
        <time>2017-06-01T10:56:54.000Z</time>
      </trkpt>
      <trkpt lat="43.47448" lon="2.27816">
        <ele>681.3</ele>
        <time>2017-06-01T10:56:55.000Z</time>
      </trkpt>
      <trkpt lat="43.47341" lon="2.27769">
        <ele>686.8</ele>
        <time>2017-06-01T10:57:21.000Z</time>
      </trkpt>
      <trkpt lat="43.47338" lon="2.27767">
        <ele>688.9</ele>
        <time>2017-06-01T10:57:22.000Z</time>
      </trkpt>
      <trkpt lat="43.47333" lon="2.2777">
        <ele>687.8</ele>
        <time>2017-06-01T10:57:23.000Z</time>
      </trkpt>
      <trkpt lat="43.47329" lon="2.27767">
        <ele>689.9</ele>
        <time>2017-06-01T10:57:24.000Z</time>
      </trkpt>
      <trkpt lat="43.47324" lon="2.27772">
        <ele>688.7</ele>
        <time>2017-06-01T10:57:25.000Z</time>
      </trkpt>
      <trkpt lat="43.47315" lon="2.27781">
        <ele>687.5</ele>
        <time>2017-06-01T10:57:26.000Z</time>
      </trkpt>
      <trkpt lat="43.47311" lon="2.27782">
        <ele>687.8</ele>
        <time>2017-06-01T10:57:28.000Z</time>
      </trkpt>
      <trkpt lat="43.47311" lon="2.27788">
        <ele>688.1</ele>
        <time>2017-06-01T10:57:29.000Z</time>
      </trkpt>
      <trkpt lat="43.4735" lon="2.27972">
        <ele>692.8</ele>
        <time>2017-06-01T10:58:19.000Z</time>
      </trkpt>
      <trkpt lat="43.4736" lon="2.27976">
        <ele>693.1</ele>
        <time>2017-06-01T10:58:21.000Z</time>
      </trkpt>
      <trkpt lat="43.47358" lon="2.2798">
        <ele>693.3</ele>
        <time>2017-06-01T10:58:22.000Z</time>
      </trkpt>
      <trkpt lat="43.47356" lon="2.27984">
        <ele>693.4</ele>
        <time>2017-06-01T10:58:23.000Z</time>
      </trkpt>
      <trkpt lat="43.47339" lon="2.27995">
        <ele>694</ele>
        <time>2017-06-01T10:58:25.000Z</time>
      </trkpt>
      <trkpt lat="43.47324" lon="2.27995">
        <ele>694.6</ele>
        <time>2017-06-01T10:58:27.000Z</time>
      </trkpt>
      <trkpt lat="43.47329" lon="2.27999">
        <ele>694.9</ele>
        <time>2017-06-01T10:58:28.000Z</time>
      </trkpt>
      <trkpt lat="43.47329" lon="2.28004">
        <ele>695</ele>
        <time>2017-06-01T10:58:29.000Z</time>
      </trkpt>
      <trkpt lat="43.47327" lon="2.28007">
        <ele>695.1</ele>
        <time>2017-06-01T10:58:30.000Z</time>
      </trkpt>
      <trkpt lat="43.47331" lon="2.28017">
        <ele>695.4</ele>
        <time>2017-06-01T10:58:31.000Z</time>
      </trkpt>
      <trkpt lat="43.47332" lon="2.28022">
        <ele>695.6</ele>
        <time>2017-06-01T10:58:32.000Z</time>
      </trkpt>
      <trkpt lat="43.47331" lon="2.28028">
        <ele>695.9</ele>
        <time>2017-06-01T10:58:33.000Z</time>
      </trkpt>
      <trkpt lat="43.47327" lon="2.28031">
        <ele>696.1</ele>
        <time>2017-06-01T10:58:35.000Z</time>
      </trkpt>
      <trkpt lat="43.47326" lon="2.28035">
        <ele>696.3</ele>
        <time>2017-06-01T10:58:36.000Z</time>
      </trkpt>
      <trkpt lat="43.47325" lon="2.28039">
        <ele>696.4</ele>
        <time>2017-06-01T10:58:37.000Z</time>
      </trkpt>
      <trkpt lat="43.47329" lon="2.28047">
        <ele>696.7</ele>
        <time>2017-06-01T10:58:38.000Z</time>
      </trkpt>
      <trkpt lat="43.47405" lon="2.28124">
        <ele>700</ele>
        <time>2017-06-01T10:58:59.000Z</time>
      </trkpt>
      <trkpt lat="43.47411" lon="2.28117">
        <ele>700.2</ele>
        <time>2017-06-01T10:59:00.000Z</time>
      </trkpt>
      <trkpt lat="43.47416" lon="2.28119">
        <ele>700.4</ele>
        <time>2017-06-01T10:59:01.000Z</time>
      </trkpt>
      <trkpt lat="43.4742" lon="2.28118">
        <ele>700.6</ele>
        <time>2017-06-01T10:59:03.000Z</time>
      </trkpt>
      <trkpt lat="43.47423" lon="2.28121">
        <ele>700.8</ele>
        <time>2017-06-01T10:59:05.000Z</time>
      </trkpt>
      <trkpt lat="43.47428" lon="2.28121">
        <ele>701</ele>
        <time>2017-06-01T10:59:06.000Z</time>
      </trkpt>
      <trkpt lat="43.47433" lon="2.28128">
        <ele>701.4</ele>
        <time>2017-06-01T10:59:07.000Z</time>
      </trkpt>
      <trkpt lat="43.47437" lon="2.28131">
        <ele>701.6</ele>
        <time>2017-06-01T10:59:08.000Z</time>
      </trkpt>
      <trkpt lat="43.4744" lon="2.28132">
        <ele>701.8</ele>
        <time>2017-06-01T10:59:09.000Z</time>
      </trkpt>
      <trkpt lat="43.47442" lon="2.28139">
        <ele>702.2</ele>
        <time>2017-06-01T10:59:10.000Z</time>
      </trkpt>
      <trkpt lat="43.47445" lon="2.28138">
        <ele>702.5</ele>
        <time>2017-06-01T10:59:11.000Z</time>
      </trkpt>
      <trkpt lat="43.47444" lon="2.28145">
        <ele>702.9</ele>
        <time>2017-06-01T10:59:12.000Z</time>
      </trkpt>
      <trkpt lat="43.47445" lon="2.28152">
        <ele>703.2</ele>
        <time>2017-06-01T10:59:13.000Z</time>
      </trkpt>
      <trkpt lat="43.47448" lon="2.28152">
        <ele>703.4</ele>
        <time>2017-06-01T10:59:15.000Z</time>
      </trkpt>
      <trkpt lat="43.47446" lon="2.28163">
        <ele>703.9</ele>
        <time>2017-06-01T10:59:17.000Z</time>
      </trkpt>
      <trkpt lat="43.4745" lon="2.28163">
        <ele>704.2</ele>
        <time>2017-06-01T10:59:19.000Z</time>
      </trkpt>
      <trkpt lat="43.47455" lon="2.28163">
        <ele>704.6</ele>
        <time>2017-06-01T10:59:21.000Z</time>
      </trkpt>
      <trkpt lat="43.47457" lon="2.28164">
        <ele>704.8</ele>
        <time>2017-06-01T10:59:23.000Z</time>
      </trkpt>
      <trkpt lat="43.47459" lon="2.28176">
        <ele>705.4</ele>
        <time>2017-06-01T10:59:25.000Z</time>
      </trkpt>
      <trkpt lat="43.47459" lon="2.28182">
        <ele>705.7</ele>
        <time>2017-06-01T10:59:27.000Z</time>
      </trkpt>
      <trkpt lat="43.47455" lon="2.28187">
        <ele>706</ele>
        <time>2017-06-01T10:59:28.000Z</time>
      </trkpt>
      <trkpt lat="43.47463" lon="2.28173">
        <ele>706.8</ele>
        <time>2017-06-01T10:59:30.000Z</time>
      </trkpt>
      <trkpt lat="43.47461" lon="2.28182">
        <ele>707.3</ele>
        <time>2017-06-01T10:59:31.000Z</time>
      </trkpt>
      <trkpt lat="43.47461" lon="2.28187">
        <ele>707.5</ele>
        <time>2017-06-01T10:59:32.000Z</time>
      </trkpt>
      <trkpt lat="43.47461" lon="2.28193">
        <ele>707.8</ele>
        <time>2017-06-01T10:59:33.000Z</time>
      </trkpt>
      <trkpt lat="43.4746" lon="2.28199">
        <ele>708.1</ele>
        <time>2017-06-01T10:59:34.000Z</time>
      </trkpt>
      <trkpt lat="43.4746" lon="2.28204">
        <ele>708.4</ele>
        <time>2017-06-01T10:59:35.000Z</time>
      </trkpt>
      <trkpt lat="43.4746" lon="2.2821">
        <ele>708.6</ele>
        <time>2017-06-01T10:59:37.000Z</time>
      </trkpt>
      <trkpt lat="43.47455" lon="2.28221">
        <ele>709</ele>
        <time>2017-06-01T10:59:41.000Z</time>
      </trkpt>
      <trkpt lat="43.47445" lon="2.28226">
        <ele>709.5</ele>
        <time>2017-06-01T10:59:43.000Z</time>
      </trkpt>
      <trkpt lat="43.47449" lon="2.28228">
        <ele>709.7</ele>
        <time>2017-06-01T10:59:45.000Z</time>
      </trkpt>
      <trkpt lat="43.47453" lon="2.28228">
        <ele>709.9</ele>
        <time>2017-06-01T10:59:47.000Z</time>
      </trkpt>
      <trkpt lat="43.47456" lon="2.28231">
        <ele>710</ele>
        <time>2017-06-01T10:59:49.000Z</time>
      </trkpt>
      <trkpt lat="43.47462" lon="2.28236">
        <ele>710.3</ele>
        <time>2017-06-01T10:59:50.000Z</time>
      </trkpt>
      <trkpt lat="43.47468" lon="2.28235">
        <ele>710.5</ele>
        <time>2017-06-01T10:59:51.000Z</time>
      </trkpt>
      <trkpt lat="43.47472" lon="2.28241">
        <ele>710.8</ele>
        <time>2017-06-01T10:59:53.000Z</time>
      </trkpt>
      <trkpt lat="43.47475" lon="2.28242">
        <ele>710.9</ele>
        <time>2017-06-01T10:59:54.000Z</time>
      </trkpt>
      <trkpt lat="43.47479" lon="2.28246">
        <ele>711.2</ele>
        <time>2017-06-01T10:59:55.000Z</time>
      </trkpt>
      <trkpt lat="43.47482" lon="2.28248">
        <ele>711.4</ele>
        <time>2017-06-01T10:59:56.000Z</time>
      </trkpt>
      <trkpt lat="43.47485" lon="2.28249">
        <ele>711.6</ele>
        <time>2017-06-01T10:59:58.000Z</time>
      </trkpt>
      <trkpt lat="43.47489" lon="2.28248">
        <ele>711.7</ele>
        <time>2017-06-01T10:59:59.000Z</time>
      </trkpt>
      <trkpt lat="43.47489" lon="2.28254">
        <ele>712</ele>
        <time>2017-06-01T11:00:00.000Z</time>
      </trkpt>
      <trkpt lat="43.47493" lon="2.28258">
        <ele>712.4</ele>
        <time>2017-06-01T11:00:02.000Z</time>
      </trkpt>
      <trkpt lat="43.47492" lon="2.2827">
        <ele>713</ele>
        <time>2017-06-01T11:00:04.000Z</time>
      </trkpt>
      <trkpt lat="43.47496" lon="2.28273">
        <ele>713.3</ele>
        <time>2017-06-01T11:00:06.000Z</time>
      </trkpt>
      <trkpt lat="43.475" lon="2.2827">
        <ele>713.7</ele>
        <time>2017-06-01T11:00:08.000Z</time>
      </trkpt>
      <trkpt lat="43.47497" lon="2.28285">
        <ele>714.8</ele>
        <time>2017-06-01T11:00:10.000Z</time>
      </trkpt>
      <trkpt lat="43.47493" lon="2.28296">
        <ele>715.7</ele>
        <time>2017-06-01T11:00:12.000Z</time>
      </trkpt>
      <trkpt lat="43.47497" lon="2.28311">
        <ele>716.5</ele>
        <time>2017-06-01T11:00:13.000Z</time>
      </trkpt>
      <trkpt lat="43.47499" lon="2.28312">
        <ele>716.7</ele>
        <time>2017-06-01T11:00:14.000Z</time>
      </trkpt>
      <trkpt lat="43.47503" lon="2.2832">
        <ele>717.2</ele>
        <time>2017-06-01T11:00:15.000Z</time>
      </trkpt>
      <trkpt lat="43.47506" lon="2.28325">
        <ele>717.6</ele>
        <time>2017-06-01T11:00:17.000Z</time>
      </trkpt>
      <trkpt lat="43.47509" lon="2.28334">
        <ele>718.2</ele>
        <time>2017-06-01T11:00:19.000Z</time>
      </trkpt>
      <trkpt lat="43.47518" lon="2.28335">
        <ele>718.9</ele>
        <time>2017-06-01T11:00:24.000Z</time>
      </trkpt>
      <trkpt lat="43.47519" lon="2.28339">
        <ele>719.3</ele>
        <time>2017-06-01T11:00:25.000Z</time>
      </trkpt>
      <trkpt lat="43.47521" lon="2.28332">
        <ele>719.9</ele>
        <time>2017-06-01T11:00:26.000Z</time>
      </trkpt>
      <trkpt lat="43.47517" lon="2.2833">
        <ele>720.2</ele>
        <time>2017-06-01T11:00:27.000Z</time>
      </trkpt>
      <trkpt lat="43.47526" lon="2.2834">
        <ele>721</ele>
        <time>2017-06-01T11:00:28.000Z</time>
      </trkpt>
      <trkpt lat="43.47531" lon="2.28339">
        <ele>721.3</ele>
        <time>2017-06-01T11:00:29.000Z</time>
      </trkpt>
      <trkpt lat="43.47537" lon="2.28331">
        <ele>721.7</ele>
        <time>2017-06-01T11:00:30.000Z</time>
      </trkpt>
      <trkpt lat="43.4754" lon="2.28331">
        <ele>721.9</ele>
        <time>2017-06-01T11:00:31.000Z</time>
      </trkpt>
      <trkpt lat="43.47542" lon="2.28328">
        <ele>722</ele>
        <time>2017-06-01T11:00:32.000Z</time>
      </trkpt>
      <trkpt lat="43.47546" lon="2.28336">
        <ele>722</ele>
        <time>2017-06-01T11:00:35.000Z</time>
      </trkpt>
      <trkpt lat="43.47548" lon="2.28339">
        <ele>722</ele>
        <time>2017-06-01T11:00:37.000Z</time>
      </trkpt>
      <trkpt lat="43.47549" lon="2.28342">
        <ele>722</ele>
        <time>2017-06-01T11:00:38.000Z</time>
      </trkpt>
      <trkpt lat="43.47553" lon="2.28341">
        <ele>721.5</ele>
        <time>2017-06-01T11:00:39.000Z</time>
      </trkpt>
      <trkpt lat="43.47555" lon="2.28344">
        <ele>721.2</ele>
        <time>2017-06-01T11:00:40.000Z</time>
      </trkpt>
      <trkpt lat="43.47558" lon="2.28347">
        <ele>721.1</ele>
        <time>2017-06-01T11:00:42.000Z</time>
      </trkpt>
      <trkpt lat="43.4756" lon="2.28344">
        <ele>721</ele>
        <time>2017-06-01T11:00:43.000Z</time>
      </trkpt>
      <trkpt lat="43.47564" lon="2.2834">
        <ele>721</ele>
        <time>2017-06-01T11:00:44.000Z</time>
      </trkpt>
      <trkpt lat="43.47566" lon="2.28335">
        <ele>720.9</ele>
        <time>2017-06-01T11:00:45.000Z</time>
      </trkpt>
      <trkpt lat="43.47568" lon="2.28329">
        <ele>721</ele>
        <time>2017-06-01T11:00:47.000Z</time>
      </trkpt>
      <trkpt lat="43.47569" lon="2.28324">
        <ele>721</ele>
        <time>2017-06-01T11:00:49.000Z</time>
      </trkpt>
      <trkpt lat="43.47572" lon="2.28319">
        <ele>721.1</ele>
        <time>2017-06-01T11:00:50.000Z</time>
      </trkpt>
      <trkpt lat="43.47573" lon="2.28317">
        <ele>721.1</ele>
        <time>2017-06-01T11:00:51.000Z</time>
      </trkpt>
      <trkpt lat="43.47577" lon="2.28311">
        <ele>721.2</ele>
        <time>2017-06-01T11:00:52.000Z</time>
      </trkpt>
      <trkpt lat="43.47578" lon="2.28306">
        <ele>721.2</ele>
        <time>2017-06-01T11:00:53.000Z</time>
      </trkpt>
      <trkpt lat="43.47579" lon="2.28302">
        <ele>721.3</ele>
        <time>2017-06-01T11:00:54.000Z</time>
      </trkpt>
      <trkpt lat="43.47581" lon="2.28296">
        <ele>721.4</ele>
        <time>2017-06-01T11:00:57.000Z</time>
      </trkpt>
      <trkpt lat="43.47583" lon="2.28293">
        <ele>721.4</ele>
        <time>2017-06-01T11:00:58.000Z</time>
      </trkpt>
      <trkpt lat="43.47586" lon="2.28291">
        <ele>721.5</ele>
        <time>2017-06-01T11:01:00.000Z</time>
      </trkpt>
      <trkpt lat="43.4759" lon="2.28291">
        <ele>721.5</ele>
        <time>2017-06-01T11:01:02.000Z</time>
      </trkpt>
      <trkpt lat="43.47593" lon="2.28289">
        <ele>721.5</ele>
        <time>2017-06-01T11:01:03.000Z</time>
      </trkpt>
      <trkpt lat="43.47597" lon="2.28286">
        <ele>721.6</ele>
        <time>2017-06-01T11:01:04.000Z</time>
      </trkpt>
      <trkpt lat="43.47602" lon="2.28286">
        <ele>721.6</ele>
        <time>2017-06-01T11:01:06.000Z</time>
      </trkpt>
      <trkpt lat="43.47605" lon="2.28288">
        <ele>721.6</ele>
        <time>2017-06-01T11:01:07.000Z</time>
      </trkpt>
      <trkpt lat="43.47608" lon="2.28287">
        <ele>721.6</ele>
        <time>2017-06-01T11:01:08.000Z</time>
      </trkpt>
      <trkpt lat="43.47612" lon="2.28287">
        <ele>721.6</ele>
        <time>2017-06-01T11:01:09.000Z</time>
      </trkpt>
      <trkpt lat="43.47615" lon="2.28288">
        <ele>721.6</ele>
        <time>2017-06-01T11:01:10.000Z</time>
      </trkpt>
      <trkpt lat="43.47619" lon="2.28292">
        <ele>721.6</ele>
        <time>2017-06-01T11:01:12.000Z</time>
      </trkpt>
      <trkpt lat="43.47622" lon="2.28296">
        <ele>721.5</ele>
        <time>2017-06-01T11:01:14.000Z</time>
      </trkpt>
      <trkpt lat="43.47624" lon="2.28301">
        <ele>721.5</ele>
        <time>2017-06-01T11:01:16.000Z</time>
      </trkpt>
      <trkpt lat="43.47625" lon="2.28308">
        <ele>721.5</ele>
        <time>2017-06-01T11:01:18.000Z</time>
      </trkpt>
      <trkpt lat="43.47626" lon="2.28314">
        <ele>721.5</ele>
        <time>2017-06-01T11:01:20.000Z</time>
      </trkpt>
      <trkpt lat="43.47627" lon="2.28318">
        <ele>721.5</ele>
        <time>2017-06-01T11:01:21.000Z</time>
      </trkpt>
      <trkpt lat="43.47627" lon="2.28322">
        <ele>721.5</ele>
        <time>2017-06-01T11:01:22.000Z</time>
      </trkpt>
      <trkpt lat="43.47627" lon="2.28329">
        <ele>721.6</ele>
        <time>2017-06-01T11:01:24.000Z</time>
      </trkpt>
      <trkpt lat="43.47626" lon="2.28334">
        <ele>721.6</ele>
        <time>2017-06-01T11:01:25.000Z</time>
      </trkpt>
      <trkpt lat="43.47625" lon="2.28337">
        <ele>721.6</ele>
        <time>2017-06-01T11:01:26.000Z</time>
      </trkpt>
      <trkpt lat="43.47624" lon="2.28341">
        <ele>721.6</ele>
        <time>2017-06-01T11:01:28.000Z</time>
      </trkpt>
      <trkpt lat="43.47625" lon="2.28346">
        <ele>721.6</ele>
        <time>2017-06-01T11:01:31.000Z</time>
      </trkpt>
      <trkpt lat="43.47624" lon="2.28352">
        <ele>721.7</ele>
        <time>2017-06-01T11:01:32.000Z</time>
      </trkpt>
      <trkpt lat="43.47625" lon="2.28357">
        <ele>721.7</ele>
        <time>2017-06-01T11:01:33.000Z</time>
      </trkpt>
      <trkpt lat="43.47625" lon="2.28361">
        <ele>721.7</ele>
        <time>2017-06-01T11:01:34.000Z</time>
      </trkpt>
      <trkpt lat="43.47623" lon="2.28364">
        <ele>721.7</ele>
        <time>2017-06-01T11:01:35.000Z</time>
      </trkpt>
      <trkpt lat="43.47618" lon="2.28365">
        <ele>721.7</ele>
        <time>2017-06-01T11:01:36.000Z</time>
      </trkpt>
      <trkpt lat="43.47616" lon="2.28369">
        <ele>721.8</ele>
        <time>2017-06-01T11:01:37.000Z</time>
      </trkpt>
      <trkpt lat="43.47614" lon="2.28372">
        <ele>721.8</ele>
        <time>2017-06-01T11:01:38.000Z</time>
      </trkpt>
      <trkpt lat="43.4761" lon="2.28375">
        <ele>721.8</ele>
        <time>2017-06-01T11:01:39.000Z</time>
      </trkpt>
      <trkpt lat="43.47611" lon="2.28382">
        <ele>721.9</ele>
        <time>2017-06-01T11:01:40.000Z</time>
      </trkpt>
      <trkpt lat="43.47609" lon="2.28384">
        <ele>721.9</ele>
        <time>2017-06-01T11:01:41.000Z</time>
      </trkpt>
      <trkpt lat="43.47605" lon="2.28385">
        <ele>721.9</ele>
        <time>2017-06-01T11:01:42.000Z</time>
      </trkpt>
      <trkpt lat="43.47604" lon="2.28388">
        <ele>721.9</ele>
        <time>2017-06-01T11:01:43.000Z</time>
      </trkpt>
      <trkpt lat="43.47601" lon="2.28391">
        <ele>721.9</ele>
        <time>2017-06-01T11:01:44.000Z</time>
      </trkpt>
      <trkpt lat="43.47598" lon="2.2839">
        <ele>721.9</ele>
        <time>2017-06-01T11:01:45.000Z</time>
      </trkpt>
      <trkpt lat="43.47593" lon="2.28392">
        <ele>721.9</ele>
        <time>2017-06-01T11:01:46.000Z</time>
      </trkpt>
      <trkpt lat="43.47589" lon="2.28396">
        <ele>722</ele>
        <time>2017-06-01T11:01:48.000Z</time>
      </trkpt>
      <trkpt lat="43.47584" lon="2.284">
        <ele>722</ele>
        <time>2017-06-01T11:01:50.000Z</time>
      </trkpt>
      <trkpt lat="43.47581" lon="2.28402">
        <ele>722</ele>
        <time>2017-06-01T11:01:51.000Z</time>
      </trkpt>
      <trkpt lat="43.47577" lon="2.28406">
        <ele>722</ele>
        <time>2017-06-01T11:01:52.000Z</time>
      </trkpt>
      <trkpt lat="43.47574" lon="2.28406">
        <ele>722.3</ele>
        <time>2017-06-01T11:01:53.000Z</time>
      </trkpt>
      <trkpt lat="43.47571" lon="2.28407">
        <ele>723.3</ele>
        <time>2017-06-01T11:01:54.000Z</time>
      </trkpt>
      <trkpt lat="43.47563" lon="2.2841">
        <ele>725.7</ele>
        <time>2017-06-01T11:01:56.000Z</time>
      </trkpt>
      <trkpt lat="43.47561" lon="2.28413">
        <ele>726.6</ele>
        <time>2017-06-01T11:01:57.000Z</time>
      </trkpt>
      <trkpt lat="43.47557" lon="2.28418">
        <ele>728.2</ele>
        <time>2017-06-01T11:01:59.000Z</time>
      </trkpt>
      <trkpt lat="43.47557" lon="2.28422">
        <ele>729.2</ele>
        <time>2017-06-01T11:02:00.000Z</time>
      </trkpt>
      <trkpt lat="43.47555" lon="2.28425">
        <ele>730</ele>
        <time>2017-06-01T11:02:01.000Z</time>
      </trkpt>
      <trkpt lat="43.47552" lon="2.28426">
        <ele>730.9</ele>
        <time>2017-06-01T11:02:02.000Z</time>
      </trkpt>
      <trkpt lat="43.47546" lon="2.28438">
        <ele>734.2</ele>
        <time>2017-06-01T11:02:04.000Z</time>
      </trkpt>
      <trkpt lat="43.47547" lon="2.2843">
        <ele>736</ele>
        <time>2017-06-01T11:02:05.000Z</time>
      </trkpt>
      <trkpt lat="43.4755" lon="2.28429">
        <ele>736</ele>
        <time>2017-06-01T11:02:06.000Z</time>
      </trkpt>
      <trkpt lat="43.47547" lon="2.28434">
        <ele>736</ele>
        <time>2017-06-01T11:02:07.000Z</time>
      </trkpt>
      <trkpt lat="43.47544" lon="2.28434">
        <ele>736</ele>
        <time>2017-06-01T11:02:10.000Z</time>
      </trkpt>
      <trkpt lat="43.47547" lon="2.28436">
        <ele>736</ele>
        <time>2017-06-01T11:02:11.000Z</time>
      </trkpt>
      <trkpt lat="43.47555" lon="2.28443">
        <ele>736</ele>
        <time>2017-06-01T11:02:14.000Z</time>
      </trkpt>
      <trkpt lat="43.47558" lon="2.28442">
        <ele>736</ele>
        <time>2017-06-01T11:02:18.000Z</time>
      </trkpt>
      <trkpt lat="43.4756" lon="2.28435">
        <ele>735.5</ele>
        <time>2017-06-01T11:05:21.000Z</time>
      </trkpt>
      <trkpt lat="43.47563" lon="2.28437">
        <ele>735.4</ele>
        <time>2017-06-01T11:05:23.000Z</time>
      </trkpt>
      <trkpt lat="43.47359" lon="2.28672">
        <ele>761.4</ele>
        <time>2017-06-01T11:09:11.000Z</time>
      </trkpt>
      <trkpt lat="43.47362" lon="2.28701">
        <ele>762.6</ele>
        <time>2017-06-01T11:09:23.000Z</time>
      </trkpt>
      <trkpt lat="43.47358" lon="2.28703">
        <ele>762.9</ele>
        <time>2017-06-01T11:09:24.000Z</time>
      </trkpt>
      <trkpt lat="43.47333" lon="2.28706">
        <ele>764.6</ele>
        <time>2017-06-01T11:09:26.000Z</time>
      </trkpt>
      <trkpt lat="43.47336" lon="2.2871">
        <ele>765</ele>
        <time>2017-06-01T11:09:27.000Z</time>
      </trkpt>
      <trkpt lat="43.4734" lon="2.28716">
        <ele>765</ele>
        <time>2017-06-01T11:09:28.000Z</time>
      </trkpt>
      <trkpt lat="43.4734" lon="2.28721">
        <ele>765</ele>
        <time>2017-06-01T11:09:29.000Z</time>
      </trkpt>
      <trkpt lat="43.47337" lon="2.28719">
        <ele>765</ele>
        <time>2017-06-01T11:09:31.000Z</time>
      </trkpt>
      <trkpt lat="43.47331" lon="2.28719">
        <ele>765</ele>
        <time>2017-06-01T11:09:32.000Z</time>
      </trkpt>
      <trkpt lat="43.47328" lon="2.2872">
        <ele>765</ele>
        <time>2017-06-01T11:09:33.000Z</time>
      </trkpt>
      <trkpt lat="43.47329" lon="2.28727">
        <ele>765</ele>
        <time>2017-06-01T11:09:35.000Z</time>
      </trkpt>
      <trkpt lat="43.47325" lon="2.28731">
        <ele>762.5</ele>
        <time>2017-06-01T11:09:37.000Z</time>
      </trkpt>
      <trkpt lat="43.47321" lon="2.28733">
        <ele>760.6</ele>
        <time>2017-06-01T11:09:39.000Z</time>
      </trkpt>
      <trkpt lat="43.47317" lon="2.28736">
        <ele>758.3</ele>
        <time>2017-06-01T11:09:41.000Z</time>
      </trkpt>
      <trkpt lat="43.47198" lon="2.28776">
        <ele>765.9</ele>
        <time>2017-06-01T11:10:05.000Z</time>
      </trkpt>
      <trkpt lat="43.47194" lon="2.2878">
        <ele>766</ele>
        <time>2017-06-01T11:10:06.000Z</time>
      </trkpt>
      <trkpt lat="43.47189" lon="2.28779">
        <ele>766</ele>
        <time>2017-06-01T11:10:07.000Z</time>
      </trkpt>
      <trkpt lat="43.47185" lon="2.28783">
        <ele>766</ele>
        <time>2017-06-01T11:10:08.000Z</time>
      </trkpt>
      <trkpt lat="43.47181" lon="2.28786">
        <ele>766</ele>
        <time>2017-06-01T11:10:09.000Z</time>
      </trkpt>
      <trkpt lat="43.47177" lon="2.28789">
        <ele>766</ele>
        <time>2017-06-01T11:10:10.000Z</time>
      </trkpt>
      <trkpt lat="43.47174" lon="2.28791">
        <ele>766</ele>
        <time>2017-06-01T11:10:11.000Z</time>
      </trkpt>
      <trkpt lat="43.47169" lon="2.28795">
        <ele>766</ele>
        <time>2017-06-01T11:10:12.000Z</time>
      </trkpt>
      <trkpt lat="43.4719" lon="2.28818">
        <ele>766</ele>
        <time>2017-06-01T11:10:15.000Z</time>
      </trkpt>
      <trkpt lat="43.47195" lon="2.28824">
        <ele>766</ele>
        <time>2017-06-01T11:10:16.000Z</time>
      </trkpt>
      <trkpt lat="43.47201" lon="2.28828">
        <ele>766</ele>
        <time>2017-06-01T11:10:17.000Z</time>
      </trkpt>
      <trkpt lat="43.47202" lon="2.28833">
        <ele>766</ele>
        <time>2017-06-01T11:10:18.000Z</time>
      </trkpt>
      <trkpt lat="43.47204" lon="2.28838">
        <ele>766</ele>
        <time>2017-06-01T11:10:19.000Z</time>
      </trkpt>
      <trkpt lat="43.47206" lon="2.28843">
        <ele>766.9</ele>
        <time>2017-06-01T11:10:20.000Z</time>
      </trkpt>
      <trkpt lat="43.47489" lon="2.29109">
        <ele>772</ele>
        <time>2017-06-01T11:12:01.000Z</time>
      </trkpt>
      <trkpt lat="43.47491" lon="2.29111">
        <ele>772</ele>
        <time>2017-06-01T11:12:02.000Z</time>
      </trkpt>
      <trkpt lat="43.47487" lon="2.29113">
        <ele>772.2</ele>
        <time>2017-06-01T11:12:03.000Z</time>
      </trkpt>
      <trkpt lat="43.47491" lon="2.29117">
        <ele>772.4</ele>
        <time>2017-06-01T11:12:05.000Z</time>
      </trkpt>
      <trkpt lat="43.47111" lon="2.29114">
        <ele>811.6</ele>
        <time>2017-06-01T11:14:24.000Z</time>
      </trkpt>
      <trkpt lat="43.46794" lon="2.29413">
        <ele>847</ele>
        <time>2017-06-01T11:17:47.000Z</time>
      </trkpt>
      <trkpt lat="43.46804" lon="2.29415">
        <ele>846.9</ele>
        <time>2017-06-01T11:17:48.000Z</time>
      </trkpt>
      <trkpt lat="43.46801" lon="2.2942">
        <ele>846.9</ele>
        <time>2017-06-01T11:17:50.000Z</time>
      </trkpt>
      <trkpt lat="43.46819" lon="2.29429">
        <ele>846.7</ele>
        <time>2017-06-01T11:17:52.000Z</time>
      </trkpt>
      <trkpt lat="43.46817" lon="2.29418">
        <ele>846.7</ele>
        <time>2017-06-01T11:17:53.000Z</time>
      </trkpt>
      <trkpt lat="43.46817" lon="2.29422">
        <ele>846.6</ele>
        <time>2017-06-01T11:17:55.000Z</time>
      </trkpt>
      <trkpt lat="43.46813" lon="2.29427">
        <ele>846.6</ele>
        <time>2017-06-01T11:17:56.000Z</time>
      </trkpt>
      <trkpt lat="43.46811" lon="2.29433">
        <ele>846.6</ele>
        <time>2017-06-01T11:17:58.000Z</time>
      </trkpt>
      <trkpt lat="43.46812" lon="2.29438">
        <ele>846.6</ele>
        <time>2017-06-01T11:17:59.000Z</time>
      </trkpt>
      <trkpt lat="43.46811" lon="2.29432">
        <ele>846.6</ele>
        <time>2017-06-01T11:18:00.000Z</time>
      </trkpt>
      <trkpt lat="43.4681" lon="2.29439">
        <ele>846.5</ele>
        <time>2017-06-01T11:18:01.000Z</time>
      </trkpt>
      <trkpt lat="43.46816" lon="2.29437">
        <ele>846.6</ele>
        <time>2017-06-01T11:18:02.000Z</time>
      </trkpt>
      <trkpt lat="43.46829" lon="2.29428">
        <ele>846.6</ele>
        <time>2017-06-01T11:18:04.000Z</time>
      </trkpt>
      <trkpt lat="43.46831" lon="2.29433">
        <ele>846.6</ele>
        <time>2017-06-01T11:18:05.000Z</time>
      </trkpt>
      <trkpt lat="43.46826" lon="2.29428">
        <ele>846.6</ele>
        <time>2017-06-01T11:18:06.000Z</time>
      </trkpt>
      <trkpt lat="43.46822" lon="2.29422">
        <ele>846.6</ele>
        <time>2017-06-01T11:18:08.000Z</time>
      </trkpt>
      <trkpt lat="43.46814" lon="2.29415">
        <ele>846.6</ele>
        <time>2017-06-01T11:18:09.000Z</time>
      </trkpt>
      <trkpt lat="43.46805" lon="2.29403">
        <ele>846.7</ele>
        <time>2017-06-01T11:18:10.000Z</time>
      </trkpt>
      <trkpt lat="43.46796" lon="2.29406">
        <ele>846.7</ele>
        <time>2017-06-01T11:18:11.000Z</time>
      </trkpt>
      <trkpt lat="43.46791" lon="2.29406">
        <ele>846.7</ele>
        <time>2017-06-01T11:18:13.000Z</time>
      </trkpt>
      <trkpt lat="43.46782" lon="2.29404">
        <ele>846.8</ele>
        <time>2017-06-01T11:18:15.000Z</time>
      </trkpt>
      <trkpt lat="43.46774" lon="2.294">
        <ele>846.9</ele>
        <time>2017-06-01T11:18:16.000Z</time>
      </trkpt>
      <trkpt lat="43.46772" lon="2.29402">
        <ele>846.9</ele>
        <time>2017-06-01T11:18:17.000Z</time>
      </trkpt>
      <trkpt lat="43.46769" lon="2.29406">
        <ele>846.9</ele>
        <time>2017-06-01T11:18:18.000Z</time>
      </trkpt>
      <trkpt lat="43.46765" lon="2.29406">
        <ele>847</ele>
        <time>2017-06-01T11:18:19.000Z</time>
      </trkpt>
      <trkpt lat="43.46763" lon="2.29409">
        <ele>847.3</ele>
        <time>2017-06-01T11:18:20.000Z</time>
      </trkpt>
      <trkpt lat="43.46755" lon="2.29406">
        <ele>848</ele>
        <time>2017-06-01T11:18:24.000Z</time>
      </trkpt>
      <trkpt lat="43.46752" lon="2.29405">
        <ele>848.2</ele>
        <time>2017-06-01T11:18:26.000Z</time>
      </trkpt>
      <trkpt lat="43.46749" lon="2.29405">
        <ele>848.4</ele>
        <time>2017-06-01T11:18:27.000Z</time>
      </trkpt>
      <trkpt lat="43.46752" lon="2.29414">
        <ele>849</ele>
        <time>2017-06-01T11:18:28.000Z</time>
      </trkpt>
      <trkpt lat="43.46747" lon="2.29419">
        <ele>849.5</ele>
        <time>2017-06-01T11:18:30.000Z</time>
      </trkpt>
      <trkpt lat="43.46744" lon="2.29421">
        <ele>849.8</ele>
        <time>2017-06-01T11:18:31.000Z</time>
      </trkpt>
      <trkpt lat="43.46746" lon="2.29425">
        <ele>850.1</ele>
        <time>2017-06-01T11:18:32.000Z</time>
      </trkpt>
      <trkpt lat="43.46743" lon="2.29427">
        <ele>850.4</ele>
        <time>2017-06-01T11:18:33.000Z</time>
      </trkpt>
      <trkpt lat="43.46737" lon="2.29422">
        <ele>851</ele>
        <time>2017-06-01T11:18:34.000Z</time>
      </trkpt>
      <trkpt lat="43.46735" lon="2.29425">
        <ele>851.2</ele>
        <time>2017-06-01T11:18:35.000Z</time>
      </trkpt>
      <trkpt lat="43.46729" lon="2.29422">
        <ele>851.7</ele>
        <time>2017-06-01T11:18:39.000Z</time>
      </trkpt>
      <trkpt lat="43.46726" lon="2.29418">
        <ele>852</ele>
        <time>2017-06-01T11:18:40.000Z</time>
      </trkpt>
      <trkpt lat="43.46734" lon="2.2943">
        <ele>852</ele>
        <time>2017-06-01T11:18:41.000Z</time>
      </trkpt>
      <trkpt lat="43.46731" lon="2.29428">
        <ele>852.2</ele>
        <time>2017-06-01T11:18:42.000Z</time>
      </trkpt>
      <trkpt lat="43.4673" lon="2.29433">
        <ele>852.4</ele>
        <time>2017-06-01T11:18:44.000Z</time>
      </trkpt>
      <trkpt lat="43.46727" lon="2.2943">
        <ele>852.6</ele>
        <time>2017-06-01T11:18:46.000Z</time>
      </trkpt>
      <trkpt lat="43.46723" lon="2.29435">
        <ele>852.9</ele>
        <time>2017-06-01T11:18:48.000Z</time>
      </trkpt>
      <trkpt lat="43.4671" lon="2.29437">
        <ele>853.6</ele>
        <time>2017-06-01T11:18:53.000Z</time>
      </trkpt>
      <trkpt lat="43.46706" lon="2.29436">
        <ele>853.8</ele>
        <time>2017-06-01T11:18:54.000Z</time>
      </trkpt>
      <trkpt lat="43.46701" lon="2.29448">
        <ele>854.3</ele>
        <time>2017-06-01T11:18:55.000Z</time>
      </trkpt>
      <trkpt lat="43.467" lon="2.29458">
        <ele>855.1</ele>
        <time>2017-06-01T11:18:56.000Z</time>
      </trkpt>
      <trkpt lat="43.46693" lon="2.29464">
        <ele>856</ele>
        <time>2017-06-01T11:18:58.000Z</time>
      </trkpt>
      <trkpt lat="43.46687" lon="2.29472">
        <ele>856.7</ele>
        <time>2017-06-01T11:19:01.000Z</time>
      </trkpt>
      <trkpt lat="43.46684" lon="2.29474">
        <ele>857</ele>
        <time>2017-06-01T11:19:02.000Z</time>
      </trkpt>
      <trkpt lat="43.46686" lon="2.2947">
        <ele>857.3</ele>
        <time>2017-06-01T11:19:03.000Z</time>
      </trkpt>
      <trkpt lat="43.46682" lon="2.29471">
        <ele>857.6</ele>
        <time>2017-06-01T11:19:04.000Z</time>
      </trkpt>
      <trkpt lat="43.46678" lon="2.29473">
        <ele>857.9</ele>
        <time>2017-06-01T11:19:06.000Z</time>
      </trkpt>
      <trkpt lat="43.46674" lon="2.29473">
        <ele>858.2</ele>
        <time>2017-06-01T11:19:07.000Z</time>
      </trkpt>
      <trkpt lat="43.46669" lon="2.29467">
        <ele>858.6</ele>
        <time>2017-06-01T11:19:08.000Z</time>
      </trkpt>
      <trkpt lat="43.46665" lon="2.29469">
        <ele>858.9</ele>
        <time>2017-06-01T11:19:10.000Z</time>
      </trkpt>
      <trkpt lat="43.4666" lon="2.29468">
        <ele>859.3</ele>
        <time>2017-06-01T11:19:12.000Z</time>
      </trkpt>
      <trkpt lat="43.46656" lon="2.29469">
        <ele>859.6</ele>
        <time>2017-06-01T11:19:14.000Z</time>
      </trkpt>
      <trkpt lat="43.46524" lon="2.29518">
        <ele>866.4</ele>
        <time>2017-06-01T11:20:11.000Z</time>
      </trkpt>
      <trkpt lat="43.46511" lon="2.29515">
        <ele>868.3</ele>
        <time>2017-06-01T11:20:14.000Z</time>
      </trkpt>
      <trkpt lat="43.46507" lon="2.29518">
        <ele>869.4</ele>
        <time>2017-06-01T11:20:15.000Z</time>
      </trkpt>
      <trkpt lat="43.46504" lon="2.29519">
        <ele>870.3</ele>
        <time>2017-06-01T11:20:16.000Z</time>
      </trkpt>
      <trkpt lat="43.46493" lon="2.29518">
        <ele>873</ele>
        <time>2017-06-01T11:20:18.000Z</time>
      </trkpt>
      <trkpt lat="43.46491" lon="2.2952">
        <ele>873.7</ele>
        <time>2017-06-01T11:20:19.000Z</time>
      </trkpt>
      <trkpt lat="43.46487" lon="2.29521">
        <ele>874.9</ele>
        <time>2017-06-01T11:20:20.000Z</time>
      </trkpt>
      <trkpt lat="43.46484" lon="2.29522">
        <ele>876.1</ele>
        <time>2017-06-01T11:20:21.000Z</time>
      </trkpt>
      <trkpt lat="43.4648" lon="2.29523">
        <ele>877.5</ele>
        <time>2017-06-01T11:20:22.000Z</time>
      </trkpt>
      <trkpt lat="43.46476" lon="2.29525">
        <ele>880</ele>
        <time>2017-06-01T11:20:23.000Z</time>
      </trkpt>
      <trkpt lat="43.46473" lon="2.29527">
        <ele>880.3</ele>
        <time>2017-06-01T11:20:24.000Z</time>
      </trkpt>
      <trkpt lat="43.4647" lon="2.29528">
        <ele>880.5</ele>
        <time>2017-06-01T11:20:25.000Z</time>
      </trkpt>
      <trkpt lat="43.45831" lon="2.30121">
        <ele>886.1</ele>
        <time>2017-06-01T11:24:15.000Z</time>
      </trkpt>
      <trkpt lat="43.45763" lon="2.30031">
        <ele>896.4</ele>
        <time>2017-06-01T11:24:52.000Z</time>
      </trkpt>
      <trkpt lat="43.45759" lon="2.30045">
        <ele>896.6</ele>
        <time>2017-06-01T11:24:53.000Z</time>
      </trkpt>
      <trkpt lat="43.45762" lon="2.30038">
        <ele>896.7</ele>
        <time>2017-06-01T11:24:54.000Z</time>
      </trkpt>
      <trkpt lat="43.45766" lon="2.30029">
        <ele>896.8</ele>
        <time>2017-06-01T11:24:55.000Z</time>
      </trkpt>
      <trkpt lat="43.45761" lon="2.30028">
        <ele>896.9</ele>
        <time>2017-06-01T11:24:56.000Z</time>
      </trkpt>
      <trkpt lat="43.45754" lon="2.30029">
        <ele>897.1</ele>
        <time>2017-06-01T11:24:58.000Z</time>
      </trkpt>
      <trkpt lat="43.45747" lon="2.30031">
        <ele>897.2</ele>
        <time>2017-06-01T11:25:00.000Z</time>
      </trkpt>
      <trkpt lat="43.45746" lon="2.30027">
        <ele>897.3</ele>
        <time>2017-06-01T11:25:01.000Z</time>
      </trkpt>
      <trkpt lat="43.4574" lon="2.30028">
        <ele>897.4</ele>
        <time>2017-06-01T11:25:03.000Z</time>
      </trkpt>
      <trkpt lat="43.46006" lon="2.28922">
        <ele>1018.1</ele>
        <time>2017-06-01T11:39:15.000Z</time>
      </trkpt>
      <trkpt lat="43.46065" lon="2.28748">
        <ele>1017.4</ele>
        <time>2017-06-01T11:40:06.000Z</time>
      </trkpt>
      <trkpt lat="43.46078" lon="2.28742">
        <ele>1018.4</ele>
        <time>2017-06-01T11:40:13.000Z</time>
      </trkpt>
      <trkpt lat="43.46081" lon="2.2874">
        <ele>1018.7</ele>
        <time>2017-06-01T11:40:14.000Z</time>
      </trkpt>
      <trkpt lat="43.46091" lon="2.28749">
        <ele>1020.8</ele>
        <time>2017-06-01T11:40:15.000Z</time>
      </trkpt>
      <trkpt lat="43.46109" lon="2.28723">
        <ele>1022.4</ele>
        <time>2017-06-01T11:40:56.000Z</time>
      </trkpt>
      <trkpt lat="43.46112" lon="2.28719">
        <ele>1022.5</ele>
        <time>2017-06-01T11:40:57.000Z</time>
      </trkpt>
      <trkpt lat="43.46105" lon="2.28726">
        <ele>1022.8</ele>
        <time>2017-06-01T11:40:58.000Z</time>
      </trkpt>
      <trkpt lat="43.46103" lon="2.28733">
        <ele>1022.9</ele>
        <time>2017-06-01T11:40:59.000Z</time>
      </trkpt>
      <trkpt lat="43.46083" lon="2.2874">
        <ele>1022.6</ele>
        <time>2017-06-01T11:41:01.000Z</time>
      </trkpt>
      <trkpt lat="43.46096" lon="2.28745">
        <ele>1021.8</ele>
        <time>2017-06-01T11:41:02.000Z</time>
      </trkpt>
      <trkpt lat="43.46083" lon="2.28751">
        <ele>1021</ele>
        <time>2017-06-01T11:41:03.000Z</time>
      </trkpt>
      <trkpt lat="43.46086" lon="2.28746">
        <ele>1020.6</ele>
        <time>2017-06-01T11:41:06.000Z</time>
      </trkpt>
      <trkpt lat="43.46088" lon="2.28745">
        <ele>1020.5</ele>
        <time>2017-06-01T11:41:09.000Z</time>
      </trkpt>
      <trkpt lat="43.4609" lon="2.28744">
        <ele>1020.4</ele>
        <time>2017-06-01T11:41:11.000Z</time>
      </trkpt>
      <trkpt lat="43.46091" lon="2.28743">
        <ele>1020.2</ele>
        <time>2017-06-01T11:41:14.000Z</time>
      </trkpt>
      <trkpt lat="43.46093" lon="2.28742">
        <ele>1020.1</ele>
        <time>2017-06-01T11:41:20.000Z</time>
      </trkpt>
      <trkpt lat="43.46095" lon="2.28741">
        <ele>1020</ele>
        <time>2017-06-01T11:47:50.000Z</time>
      </trkpt>
      <trkpt lat="43.46096" lon="2.2874">
        <ele>1019.8</ele>
        <time>2017-06-01T11:47:51.000Z</time>
      </trkpt>
      <trkpt lat="43.46103" lon="2.28738">
        <ele>1019.3</ele>
        <time>2017-06-01T11:47:52.000Z</time>
      </trkpt>
      <trkpt lat="43.46111" lon="2.28734">
        <ele>1018.5</ele>
        <time>2017-06-01T11:47:53.000Z</time>
      </trkpt>
      <trkpt lat="43.46126" lon="2.2873">
        <ele>1017.2</ele>
        <time>2017-06-01T11:47:54.000Z</time>
      </trkpt>
      <trkpt lat="43.46133" lon="2.28734">
        <ele>1016.4</ele>
        <time>2017-06-01T11:47:55.000Z</time>
      </trkpt>
      <trkpt lat="43.46137" lon="2.28737">
        <ele>1015.8</ele>
        <time>2017-06-01T11:47:56.000Z</time>
      </trkpt>
      <trkpt lat="43.46145" lon="2.28737">
        <ele>1014.7</ele>
        <time>2017-06-01T11:47:57.000Z</time>
      </trkpt>
      <trkpt lat="43.46149" lon="2.28737">
        <ele>1014</ele>
        <time>2017-06-01T11:47:58.000Z</time>
      </trkpt>
      <trkpt lat="43.46154" lon="2.28737">
        <ele>1013.2</ele>
        <time>2017-06-01T11:47:59.000Z</time>
      </trkpt>
      <trkpt lat="43.46159" lon="2.28735">
        <ele>1012.5</ele>
        <time>2017-06-01T11:48:00.000Z</time>
      </trkpt>
      <trkpt lat="43.46164" lon="2.28734">
        <ele>1011.9</ele>
        <time>2017-06-01T11:48:01.000Z</time>
      </trkpt>
      <trkpt lat="43.4617" lon="2.28733">
        <ele>1011.1</ele>
        <time>2017-06-01T11:48:02.000Z</time>
      </trkpt>
      <trkpt lat="43.46176" lon="2.28733">
        <ele>1010.4</ele>
        <time>2017-06-01T11:48:04.000Z</time>
      </trkpt>
      <trkpt lat="43.46181" lon="2.28733">
        <ele>1009.9</ele>
        <time>2017-06-01T11:48:05.000Z</time>
      </trkpt>
      <trkpt lat="43.46188" lon="2.28733">
        <ele>1009.4</ele>
        <time>2017-06-01T11:48:06.000Z</time>
      </trkpt>
      <trkpt lat="43.46193" lon="2.2873">
        <ele>1008.9</ele>
        <time>2017-06-01T11:48:07.000Z</time>
      </trkpt>
      <trkpt lat="43.46199" lon="2.2873">
        <ele>1008.5</ele>
        <time>2017-06-01T11:48:08.000Z</time>
      </trkpt>
      <trkpt lat="43.46206" lon="2.28728">
        <ele>1007.9</ele>
        <time>2017-06-01T11:48:09.000Z</time>
      </trkpt>
      <trkpt lat="43.46213" lon="2.28729">
        <ele>1007.5</ele>
        <time>2017-06-01T11:48:10.000Z</time>
      </trkpt>
      <trkpt lat="43.46217" lon="2.2873">
        <ele>1007.2</ele>
        <time>2017-06-01T11:48:11.000Z</time>
      </trkpt>
      <trkpt lat="43.4622" lon="2.28726">
        <ele>1007</ele>
        <time>2017-06-01T11:48:12.000Z</time>
      </trkpt>
      <trkpt lat="43.46226" lon="2.28724">
        <ele>1006.7</ele>
        <time>2017-06-01T11:48:13.000Z</time>
      </trkpt>
      <trkpt lat="43.4623" lon="2.2872">
        <ele>1006.4</ele>
        <time>2017-06-01T11:48:14.000Z</time>
      </trkpt>
      <trkpt lat="43.46236" lon="2.28716">
        <ele>1006</ele>
        <time>2017-06-01T11:48:15.000Z</time>
      </trkpt>
      <trkpt lat="43.46241" lon="2.28713">
        <ele>1005.7</ele>
        <time>2017-06-01T11:48:16.000Z</time>
      </trkpt>
      <trkpt lat="43.46246" lon="2.28713">
        <ele>1005.4</ele>
        <time>2017-06-01T11:48:17.000Z</time>
      </trkpt>
      <trkpt lat="43.46251" lon="2.28711">
        <ele>1005.2</ele>
        <time>2017-06-01T11:48:18.000Z</time>
      </trkpt>
      <trkpt lat="43.46255" lon="2.28706">
        <ele>1005</ele>
        <time>2017-06-01T11:48:19.000Z</time>
      </trkpt>
      <trkpt lat="43.4626" lon="2.28705">
        <ele>1004.8</ele>
        <time>2017-06-01T11:48:20.000Z</time>
      </trkpt>
      <trkpt lat="43.46268" lon="2.28704">
        <ele>1004.5</ele>
        <time>2017-06-01T11:48:21.000Z</time>
      </trkpt>
      <trkpt lat="43.46275" lon="2.28699">
        <ele>1004.3</ele>
        <time>2017-06-01T11:48:22.000Z</time>
      </trkpt>
      <trkpt lat="43.46281" lon="2.28697">
        <ele>1004.2</ele>
        <time>2017-06-01T11:48:23.000Z</time>
      </trkpt>
      <trkpt lat="43.46286" lon="2.28696">
        <ele>1004.1</ele>
        <time>2017-06-01T11:48:24.000Z</time>
      </trkpt>
      <trkpt lat="43.46297" lon="2.28694">
        <ele>1004</ele>
        <time>2017-06-01T11:48:26.000Z</time>
      </trkpt>
      <trkpt lat="43.46304" lon="2.28693">
        <ele>1004</ele>
        <time>2017-06-01T11:48:27.000Z</time>
      </trkpt>
      <trkpt lat="43.46309" lon="2.28696">
        <ele>1003.6</ele>
        <time>2017-06-01T11:48:28.000Z</time>
      </trkpt>
      <trkpt lat="43.46311" lon="2.28699">
        <ele>1002.9</ele>
        <time>2017-06-01T11:48:29.000Z</time>
      </trkpt>
      <trkpt lat="43.46315" lon="2.28699">
        <ele>1001.8</ele>
        <time>2017-06-01T11:48:30.000Z</time>
      </trkpt>
      <trkpt lat="43.46319" lon="2.28701">
        <ele>1000.7</ele>
        <time>2017-06-01T11:48:31.000Z</time>
      </trkpt>
      <trkpt lat="43.46325" lon="2.28701">
        <ele>998.8</ele>
        <time>2017-06-01T11:48:32.000Z</time>
      </trkpt>
      <trkpt lat="43.46331" lon="2.28706">
        <ele>997</ele>
        <time>2017-06-01T11:48:33.000Z</time>
      </trkpt>
      <trkpt lat="43.46337" lon="2.28707">
        <ele>995.5</ele>
        <time>2017-06-01T11:48:34.000Z</time>
      </trkpt>
      <trkpt lat="43.46346" lon="2.28707">
        <ele>993.2</ele>
        <time>2017-06-01T11:48:35.000Z</time>
      </trkpt>
      <trkpt lat="43.4635" lon="2.28707">
        <ele>991.9</ele>
        <time>2017-06-01T11:48:36.000Z</time>
      </trkpt>
      <trkpt lat="43.46357" lon="2.28703">
        <ele>989.5</ele>
        <time>2017-06-01T11:48:37.000Z</time>
      </trkpt>
      <trkpt lat="43.46365" lon="2.287">
        <ele>988</ele>
        <time>2017-06-01T11:48:38.000Z</time>
      </trkpt>
      <trkpt lat="43.4637" lon="2.28696">
        <ele>987</ele>
        <time>2017-06-01T11:48:39.000Z</time>
      </trkpt>
      <trkpt lat="43.46376" lon="2.28693">
        <ele>986</ele>
        <time>2017-06-01T11:48:40.000Z</time>
      </trkpt>
      <trkpt lat="43.46379" lon="2.28686">
        <ele>985.3</ele>
        <time>2017-06-01T11:48:41.000Z</time>
      </trkpt>
      <trkpt lat="43.46385" lon="2.28684">
        <ele>984.3</ele>
        <time>2017-06-01T11:48:42.000Z</time>
      </trkpt>
      <trkpt lat="43.46389" lon="2.28685">
        <ele>983.7</ele>
        <time>2017-06-01T11:48:43.000Z</time>
      </trkpt>
      <trkpt lat="43.46395" lon="2.28685">
        <ele>982.3</ele>
        <time>2017-06-01T11:48:44.000Z</time>
      </trkpt>
      <trkpt lat="43.46399" lon="2.28688">
        <ele>981.5</ele>
        <time>2017-06-01T11:48:45.000Z</time>
      </trkpt>
      <trkpt lat="43.46406" lon="2.28687">
        <ele>979.8</ele>
        <time>2017-06-01T11:48:46.000Z</time>
      </trkpt>
      <trkpt lat="43.46414" lon="2.28692">
        <ele>977.8</ele>
        <time>2017-06-01T11:48:47.000Z</time>
      </trkpt>
      <trkpt lat="43.4642" lon="2.28692">
        <ele>976.5</ele>
        <time>2017-06-01T11:48:48.000Z</time>
      </trkpt>
      <trkpt lat="43.46423" lon="2.28694">
        <ele>975.6</ele>
        <time>2017-06-01T11:48:49.000Z</time>
      </trkpt>
      <trkpt lat="43.46428" lon="2.28696">
        <ele>974.2</ele>
        <time>2017-06-01T11:48:50.000Z</time>
      </trkpt>
      <trkpt lat="43.46433" lon="2.287">
        <ele>972.9</ele>
        <time>2017-06-01T11:48:51.000Z</time>
      </trkpt>
      <trkpt lat="43.46438" lon="2.28702">
        <ele>971.8</ele>
        <time>2017-06-01T11:48:52.000Z</time>
      </trkpt>
      <trkpt lat="43.46441" lon="2.28705">
        <ele>970.8</ele>
        <time>2017-06-01T11:48:53.000Z</time>
      </trkpt>
      <trkpt lat="43.46448" lon="2.28711">
        <ele>969.1</ele>
        <time>2017-06-01T11:48:54.000Z</time>
      </trkpt>
      <trkpt lat="43.46452" lon="2.28718">
        <ele>967.6</ele>
        <time>2017-06-01T11:48:55.000Z</time>
      </trkpt>
      <trkpt lat="43.46456" lon="2.28721">
        <ele>966.6</ele>
        <time>2017-06-01T11:48:56.000Z</time>
      </trkpt>
      <trkpt lat="43.46461" lon="2.28718">
        <ele>965.5</ele>
        <time>2017-06-01T11:48:57.000Z</time>
      </trkpt>
      <trkpt lat="43.46465" lon="2.28719">
        <ele>964.6</ele>
        <time>2017-06-01T11:48:58.000Z</time>
      </trkpt>
      <trkpt lat="43.46468" lon="2.28721">
        <ele>963.9</ele>
        <time>2017-06-01T11:48:59.000Z</time>
      </trkpt>
      <trkpt lat="43.46472" lon="2.28723">
        <ele>963</ele>
        <time>2017-06-01T11:49:00.000Z</time>
      </trkpt>
      <trkpt lat="43.46475" lon="2.28724">
        <ele>962.2</ele>
        <time>2017-06-01T11:49:01.000Z</time>
      </trkpt>
      <trkpt lat="43.46482" lon="2.28727">
        <ele>960.7</ele>
        <time>2017-06-01T11:49:02.000Z</time>
      </trkpt>
      <trkpt lat="43.46485" lon="2.28728">
        <ele>959.9</ele>
        <time>2017-06-01T11:49:03.000Z</time>
      </trkpt>
      <trkpt lat="43.46488" lon="2.2873">
        <ele>959.1</ele>
        <time>2017-06-01T11:49:04.000Z</time>
      </trkpt>
      <trkpt lat="43.46493" lon="2.28736">
        <ele>957.4</ele>
        <time>2017-06-01T11:49:05.000Z</time>
      </trkpt>
      <trkpt lat="43.465" lon="2.28741">
        <ele>955.4</ele>
        <time>2017-06-01T11:49:06.000Z</time>
      </trkpt>
      <trkpt lat="43.46506" lon="2.28746">
        <ele>953</ele>
        <time>2017-06-01T11:49:07.000Z</time>
      </trkpt>
      <trkpt lat="43.46513" lon="2.28745">
        <ele>951.1</ele>
        <time>2017-06-01T11:49:08.000Z</time>
      </trkpt>
      <trkpt lat="43.4652" lon="2.28748">
        <ele>948.8</ele>
        <time>2017-06-01T11:49:10.000Z</time>
      </trkpt>
      <trkpt lat="43.46526" lon="2.2875">
        <ele>947.3</ele>
        <time>2017-06-01T11:49:11.000Z</time>
      </trkpt>
      <trkpt lat="43.4653" lon="2.28755">
        <ele>945.9</ele>
        <time>2017-06-01T11:49:12.000Z</time>
      </trkpt>
      <trkpt lat="43.46535" lon="2.28756">
        <ele>944.7</ele>
        <time>2017-06-01T11:49:13.000Z</time>
      </trkpt>
      <trkpt lat="43.46539" lon="2.28757">
        <ele>943.4</ele>
        <time>2017-06-01T11:49:14.000Z</time>
      </trkpt>
      <trkpt lat="43.46544" lon="2.28758">
        <ele>941.7</ele>
        <time>2017-06-01T11:49:15.000Z</time>
      </trkpt>
      <trkpt lat="43.4655" lon="2.2876">
        <ele>940</ele>
        <time>2017-06-01T11:49:16.000Z</time>
      </trkpt>
      <trkpt lat="43.46556" lon="2.28765">
        <ele>937.8</ele>
        <time>2017-06-01T11:49:17.000Z</time>
      </trkpt>
      <trkpt lat="43.46559" lon="2.28767">
        <ele>936.8</ele>
        <time>2017-06-01T11:49:18.000Z</time>
      </trkpt>
      <trkpt lat="43.46563" lon="2.28767">
        <ele>935.3</ele>
        <time>2017-06-01T11:49:19.000Z</time>
      </trkpt>
      <trkpt lat="43.46567" lon="2.28767">
        <ele>934.2</ele>
        <time>2017-06-01T11:49:20.000Z</time>
      </trkpt>
      <trkpt lat="43.46572" lon="2.28765">
        <ele>932.4</ele>
        <time>2017-06-01T11:49:21.000Z</time>
      </trkpt>
      <trkpt lat="43.46576" lon="2.28763">
        <ele>931.1</ele>
        <time>2017-06-01T11:49:22.000Z</time>
      </trkpt>
      <trkpt lat="43.46583" lon="2.28761">
        <ele>929</ele>
        <time>2017-06-01T11:49:23.000Z</time>
      </trkpt>
      <trkpt lat="43.46589" lon="2.28759">
        <ele>927.1</ele>
        <time>2017-06-01T11:49:24.000Z</time>
      </trkpt>
      <trkpt lat="43.46595" lon="2.28754">
        <ele>925</ele>
        <time>2017-06-01T11:49:25.000Z</time>
      </trkpt>
      <trkpt lat="43.46598" lon="2.28752">
        <ele>923.3</ele>
        <time>2017-06-01T11:49:26.000Z</time>
      </trkpt>
      <trkpt lat="43.46602" lon="2.28747">
        <ele>922.6</ele>
        <time>2017-06-01T11:49:28.000Z</time>
      </trkpt>
      <trkpt lat="43.46605" lon="2.28744">
        <ele>921.1</ele>
        <time>2017-06-01T11:49:30.000Z</time>
      </trkpt>
      <trkpt lat="43.46611" lon="2.28741">
        <ele>919.3</ele>
        <time>2017-06-01T11:49:32.000Z</time>
      </trkpt>
      <trkpt lat="43.4661" lon="2.28737">
        <ele>919.3</ele>
        <time>2017-06-01T11:49:33.000Z</time>
      </trkpt>
      <trkpt lat="43.46613" lon="2.28736">
        <ele>918</ele>
        <time>2017-06-01T11:49:37.000Z</time>
      </trkpt>
      <trkpt lat="43.46616" lon="2.28735">
        <ele>916.7</ele>
        <time>2017-06-01T11:49:39.000Z</time>
      </trkpt>
      <trkpt lat="43.46618" lon="2.2873">
        <ele>917.1</ele>
        <time>2017-06-01T11:49:41.000Z</time>
      </trkpt>
      <trkpt lat="43.4662" lon="2.28725">
        <ele>916.3</ele>
        <time>2017-06-01T11:49:43.000Z</time>
      </trkpt>
      <trkpt lat="43.46621" lon="2.2872">
        <ele>916.3</ele>
        <time>2017-06-01T11:49:48.000Z</time>
      </trkpt>
      <trkpt lat="43.46625" lon="2.28716">
        <ele>915.6</ele>
        <time>2017-06-01T11:49:49.000Z</time>
      </trkpt>
      <trkpt lat="43.46626" lon="2.28712">
        <ele>915</ele>
        <time>2017-06-01T11:49:50.000Z</time>
      </trkpt>
      <trkpt lat="43.46628" lon="2.2871">
        <ele>914.5</ele>
        <time>2017-06-01T11:49:51.000Z</time>
      </trkpt>
      <trkpt lat="43.46631" lon="2.28706">
        <ele>914</ele>
        <time>2017-06-01T11:49:52.000Z</time>
      </trkpt>
      <trkpt lat="43.46629" lon="2.28703">
        <ele>914.3</ele>
        <time>2017-06-01T11:49:53.000Z</time>
      </trkpt>
      <trkpt lat="43.46634" lon="2.28699">
        <ele>913.8</ele>
        <time>2017-06-01T11:49:54.000Z</time>
      </trkpt>
      <trkpt lat="43.46635" lon="2.28696">
        <ele>913.3</ele>
        <time>2017-06-01T11:49:55.000Z</time>
      </trkpt>
      <trkpt lat="43.46637" lon="2.28692">
        <ele>912.7</ele>
        <time>2017-06-01T11:49:56.000Z</time>
      </trkpt>
      <trkpt lat="43.46636" lon="2.28688">
        <ele>913</ele>
        <time>2017-06-01T11:50:00.000Z</time>
      </trkpt>
      <trkpt lat="43.46637" lon="2.28682">
        <ele>914</ele>
        <time>2017-06-01T11:50:02.000Z</time>
      </trkpt>
      <trkpt lat="43.46636" lon="2.28678">
        <ele>914.3</ele>
        <time>2017-06-01T11:50:03.000Z</time>
      </trkpt>
      <trkpt lat="43.46639" lon="2.28674">
        <ele>913.9</ele>
        <time>2017-06-01T11:50:04.000Z</time>
      </trkpt>
      <trkpt lat="43.46637" lon="2.28669">
        <ele>914.5</ele>
        <time>2017-06-01T11:50:05.000Z</time>
      </trkpt>
      <trkpt lat="43.46637" lon="2.28665">
        <ele>914.6</ele>
        <time>2017-06-01T11:50:08.000Z</time>
      </trkpt>
      <trkpt lat="43.46636" lon="2.28659">
        <ele>914.7</ele>
        <time>2017-06-01T11:50:10.000Z</time>
      </trkpt>
      <trkpt lat="43.4664" lon="2.28656">
        <ele>914.2</ele>
        <time>2017-06-01T11:50:12.000Z</time>
      </trkpt>
      <trkpt lat="43.46643" lon="2.28651">
        <ele>913.6</ele>
        <time>2017-06-01T11:50:13.000Z</time>
      </trkpt>
      <trkpt lat="43.46647" lon="2.28644">
        <ele>913.5</ele>
        <time>2017-06-01T11:50:14.000Z</time>
      </trkpt>
      <trkpt lat="43.46648" lon="2.2864">
        <ele>913.5</ele>
        <time>2017-06-01T11:50:16.000Z</time>
      </trkpt>
      <trkpt lat="43.4665" lon="2.28634">
        <ele>913.5</ele>
        <time>2017-06-01T11:50:17.000Z</time>
      </trkpt>
      <trkpt lat="43.46653" lon="2.28627">
        <ele>913.4</ele>
        <time>2017-06-01T11:50:18.000Z</time>
      </trkpt>
      <trkpt lat="43.46659" lon="2.28621">
        <ele>913.4</ele>
        <time>2017-06-01T11:50:19.000Z</time>
      </trkpt>
      <trkpt lat="43.46663" lon="2.28617">
        <ele>913.3</ele>
        <time>2017-06-01T11:50:20.000Z</time>
      </trkpt>
      <trkpt lat="43.46666" lon="2.28611">
        <ele>913.2</ele>
        <time>2017-06-01T11:50:21.000Z</time>
      </trkpt>
      <trkpt lat="43.46669" lon="2.28607">
        <ele>913</ele>
        <time>2017-06-01T11:50:22.000Z</time>
      </trkpt>
      <trkpt lat="43.4667" lon="2.28603">
        <ele>912.9</ele>
        <time>2017-06-01T11:50:23.000Z</time>
      </trkpt>
      <trkpt lat="43.46668" lon="2.28599">
        <ele>912.8</ele>
        <time>2017-06-01T11:50:24.000Z</time>
      </trkpt>
      <trkpt lat="43.4667" lon="2.28595">
        <ele>912.6</ele>
        <time>2017-06-01T11:50:25.000Z</time>
      </trkpt>
      <trkpt lat="43.46668" lon="2.28591">
        <ele>912.4</ele>
        <time>2017-06-01T11:50:27.000Z</time>
      </trkpt>
      <trkpt lat="43.46669" lon="2.28587">
        <ele>912.3</ele>
        <time>2017-06-01T11:50:32.000Z</time>
      </trkpt>
      <trkpt lat="43.46673" lon="2.28575">
        <ele>913.7</ele>
        <time>2017-06-01T11:52:10.000Z</time>
      </trkpt>
      <trkpt lat="43.46673" lon="2.28571">
        <ele>914.5</ele>
        <time>2017-06-01T11:52:12.000Z</time>
      </trkpt>
      <trkpt lat="43.46671" lon="2.2857">
        <ele>915.3</ele>
        <time>2017-06-01T11:52:14.000Z</time>
      </trkpt>
      <trkpt lat="43.46667" lon="2.28567">
        <ele>916.2</ele>
        <time>2017-06-01T11:52:16.000Z</time>
      </trkpt>
      <trkpt lat="43.46664" lon="2.28565">
        <ele>917.2</ele>
        <time>2017-06-01T11:52:18.000Z</time>
      </trkpt>
      <trkpt lat="43.46658" lon="2.28565">
        <ele>918.5</ele>
        <time>2017-06-01T11:52:19.000Z</time>
      </trkpt>
      <trkpt lat="43.46662" lon="2.28556">
        <ele>920.5</ele>
        <time>2017-06-01T11:52:21.000Z</time>
      </trkpt>
      <trkpt lat="43.46659" lon="2.28553">
        <ele>921.3</ele>
        <time>2017-06-01T11:52:23.000Z</time>
      </trkpt>
      <trkpt lat="43.46658" lon="2.28549">
        <ele>922.1</ele>
        <time>2017-06-01T11:52:25.000Z</time>
      </trkpt>
      <trkpt lat="43.46655" lon="2.28544">
        <ele>923.5</ele>
        <time>2017-06-01T11:52:27.000Z</time>
      </trkpt>
      <trkpt lat="43.46651" lon="2.28543">
        <ele>924.5</ele>
        <time>2017-06-01T11:52:30.000Z</time>
      </trkpt>
      <trkpt lat="43.46645" lon="2.28538">
        <ele>926.3</ele>
        <time>2017-06-01T11:52:32.000Z</time>
      </trkpt>
      <trkpt lat="43.46643" lon="2.28536">
        <ele>927.1</ele>
        <time>2017-06-01T11:52:33.000Z</time>
      </trkpt>
      <trkpt lat="43.4664" lon="2.28533">
        <ele>928.2</ele>
        <time>2017-06-01T11:52:34.000Z</time>
      </trkpt>
      <trkpt lat="43.46639" lon="2.2853">
        <ele>929.1</ele>
        <time>2017-06-01T11:52:35.000Z</time>
      </trkpt>
      <trkpt lat="43.46633" lon="2.28526">
        <ele>931</ele>
        <time>2017-06-01T11:52:37.000Z</time>
      </trkpt>
      <trkpt lat="43.46636" lon="2.28523">
        <ele>929.9</ele>
        <time>2017-06-01T11:52:39.000Z</time>
      </trkpt>
      <trkpt lat="43.46639" lon="2.28517">
        <ele>928.5</ele>
        <time>2017-06-01T11:52:41.000Z</time>
      </trkpt>
      <trkpt lat="43.46644" lon="2.28512">
        <ele>927</ele>
        <time>2017-06-01T11:52:42.000Z</time>
      </trkpt>
      <trkpt lat="43.46648" lon="2.28512">
        <ele>925.8</ele>
        <time>2017-06-01T11:52:43.000Z</time>
      </trkpt>
      <trkpt lat="43.46652" lon="2.28513">
        <ele>924.8</ele>
        <time>2017-06-01T11:52:44.000Z</time>
      </trkpt>
      <trkpt lat="43.46657" lon="2.28513">
        <ele>923.4</ele>
        <time>2017-06-01T11:52:45.000Z</time>
      </trkpt>
      <trkpt lat="43.46663" lon="2.28513">
        <ele>921.5</ele>
        <time>2017-06-01T11:52:46.000Z</time>
      </trkpt>
      <trkpt lat="43.46668" lon="2.28513">
        <ele>920.7</ele>
        <time>2017-06-01T11:52:47.000Z</time>
      </trkpt>
      <trkpt lat="43.46673" lon="2.2851">
        <ele>919.9</ele>
        <time>2017-06-01T11:52:48.000Z</time>
      </trkpt>
      <trkpt lat="43.46681" lon="2.28508">
        <ele>918.5</ele>
        <time>2017-06-01T11:52:49.000Z</time>
      </trkpt>
      <trkpt lat="43.46685" lon="2.28513">
        <ele>917.7</ele>
        <time>2017-06-01T11:52:50.000Z</time>
      </trkpt>
      <trkpt lat="43.46691" lon="2.28514">
        <ele>916.6</ele>
        <time>2017-06-01T11:52:51.000Z</time>
      </trkpt>
      <trkpt lat="43.46697" lon="2.28518">
        <ele>915.6</ele>
        <time>2017-06-01T11:52:52.000Z</time>
      </trkpt>
      <trkpt lat="43.46701" lon="2.28515">
        <ele>914.7</ele>
        <time>2017-06-01T11:52:53.000Z</time>
      </trkpt>
      <trkpt lat="43.46705" lon="2.28515">
        <ele>914.1</ele>
        <time>2017-06-01T11:52:54.000Z</time>
      </trkpt>
      <trkpt lat="43.46707" lon="2.28513">
        <ele>913.6</ele>
        <time>2017-06-01T11:52:55.000Z</time>
      </trkpt>
      <trkpt lat="43.46711" lon="2.28507">
        <ele>912</ele>
        <time>2017-06-01T11:52:56.000Z</time>
      </trkpt>
      <trkpt lat="43.46713" lon="2.28497">
        <ele>910.7</ele>
        <time>2017-06-01T11:52:58.000Z</time>
      </trkpt>
      <trkpt lat="43.46714" lon="2.2849">
        <ele>909.8</ele>
        <time>2017-06-01T11:52:59.000Z</time>
      </trkpt>
      <trkpt lat="43.46715" lon="2.28485">
        <ele>908.9</ele>
        <time>2017-06-01T11:53:00.000Z</time>
      </trkpt>
      <trkpt lat="43.46714" lon="2.28477">
        <ele>907.9</ele>
        <time>2017-06-01T11:53:01.000Z</time>
      </trkpt>
      <trkpt lat="43.46716" lon="2.28463">
        <ele>906.4</ele>
        <time>2017-06-01T11:53:02.000Z</time>
      </trkpt>
      <trkpt lat="43.46721" lon="2.28457">
        <ele>905.4</ele>
        <time>2017-06-01T11:53:03.000Z</time>
      </trkpt>
      <trkpt lat="43.46721" lon="2.2845">
        <ele>904.3</ele>
        <time>2017-06-01T11:53:04.000Z</time>
      </trkpt>
      <trkpt lat="43.4672" lon="2.28445">
        <ele>903.3</ele>
        <time>2017-06-01T11:53:05.000Z</time>
      </trkpt>
      <trkpt lat="43.46718" lon="2.28441">
        <ele>902.5</ele>
        <time>2017-06-01T11:53:06.000Z</time>
      </trkpt>
      <trkpt lat="43.46718" lon="2.28437">
        <ele>901.9</ele>
        <time>2017-06-01T11:53:07.000Z</time>
      </trkpt>
      <trkpt lat="43.46714" lon="2.2843">
        <ele>900.3</ele>
        <time>2017-06-01T11:53:08.000Z</time>
      </trkpt>
      <trkpt lat="43.46714" lon="2.28424">
        <ele>899.4</ele>
        <time>2017-06-01T11:53:09.000Z</time>
      </trkpt>
      <trkpt lat="43.46715" lon="2.28417">
        <ele>898.1</ele>
        <time>2017-06-01T11:53:10.000Z</time>
      </trkpt>
      <trkpt lat="43.46718" lon="2.28411">
        <ele>896.8</ele>
        <time>2017-06-01T11:53:11.000Z</time>
      </trkpt>
      <trkpt lat="43.46718" lon="2.28402">
        <ele>895.2</ele>
        <time>2017-06-01T11:53:12.000Z</time>
      </trkpt>
      <trkpt lat="43.46719" lon="2.28394">
        <ele>893.3</ele>
        <time>2017-06-01T11:53:13.000Z</time>
      </trkpt>
      <trkpt lat="43.46721" lon="2.28387">
        <ele>892.5</ele>
        <time>2017-06-01T11:53:14.000Z</time>
      </trkpt>
      <trkpt lat="43.46722" lon="2.28378">
        <ele>891.4</ele>
        <time>2017-06-01T11:53:15.000Z</time>
      </trkpt>
      <trkpt lat="43.46723" lon="2.28369">
        <ele>890.5</ele>
        <time>2017-06-01T11:53:16.000Z</time>
      </trkpt>
      <trkpt lat="43.46725" lon="2.28358">
        <ele>889.2</ele>
        <time>2017-06-01T11:53:17.000Z</time>
      </trkpt>
      <trkpt lat="43.46725" lon="2.28349">
        <ele>887.9</ele>
        <time>2017-06-01T11:53:18.000Z</time>
      </trkpt>
      <trkpt lat="43.46724" lon="2.28345">
        <ele>886.9</ele>
        <time>2017-06-01T11:53:19.000Z</time>
      </trkpt>
      <trkpt lat="43.46723" lon="2.28338">
        <ele>885.5</ele>
        <time>2017-06-01T11:53:20.000Z</time>
      </trkpt>
      <trkpt lat="43.46725" lon="2.28327">
        <ele>883.7</ele>
        <time>2017-06-01T11:53:21.000Z</time>
      </trkpt>
      <trkpt lat="43.46725" lon="2.2832">
        <ele>882.2</ele>
        <time>2017-06-01T11:53:22.000Z</time>
      </trkpt>
      <trkpt lat="43.4673" lon="2.28313">
        <ele>880.3</ele>
        <time>2017-06-01T11:53:23.000Z</time>
      </trkpt>
      <trkpt lat="43.46732" lon="2.28306">
        <ele>879.1</ele>
        <time>2017-06-01T11:53:24.000Z</time>
      </trkpt>
      <trkpt lat="43.46732" lon="2.28296">
        <ele>877.8</ele>
        <time>2017-06-01T11:53:25.000Z</time>
      </trkpt>
      <trkpt lat="43.46732" lon="2.28285">
        <ele>876.2</ele>
        <time>2017-06-01T11:53:26.000Z</time>
      </trkpt>
      <trkpt lat="43.46734" lon="2.28277">
        <ele>874.9</ele>
        <time>2017-06-01T11:53:27.000Z</time>
      </trkpt>
      <trkpt lat="43.46738" lon="2.28267">
        <ele>873.4</ele>
        <time>2017-06-01T11:53:28.000Z</time>
      </trkpt>
      <trkpt lat="43.46741" lon="2.2826">
        <ele>872.3</ele>
        <time>2017-06-01T11:53:29.000Z</time>
      </trkpt>
      <trkpt lat="43.46747" lon="2.28249">
        <ele>870.4</ele>
        <time>2017-06-01T11:53:30.000Z</time>
      </trkpt>
      <trkpt lat="43.46752" lon="2.28239">
        <ele>868.7</ele>
        <time>2017-06-01T11:53:31.000Z</time>
      </trkpt>
      <trkpt lat="43.46755" lon="2.2823">
        <ele>867.3</ele>
        <time>2017-06-01T11:53:32.000Z</time>
      </trkpt>
      <trkpt lat="43.46756" lon="2.28223">
        <ele>866.3</ele>
        <time>2017-06-01T11:53:33.000Z</time>
      </trkpt>
      <trkpt lat="43.46759" lon="2.28218">
        <ele>865.3</ele>
        <time>2017-06-01T11:53:34.000Z</time>
      </trkpt>
      <trkpt lat="43.46762" lon="2.28213">
        <ele>864.2</ele>
        <time>2017-06-01T11:53:35.000Z</time>
      </trkpt>
      <trkpt lat="43.46765" lon="2.2821">
        <ele>863.2</ele>
        <time>2017-06-01T11:53:36.000Z</time>
      </trkpt>
      <trkpt lat="43.46769" lon="2.2821">
        <ele>862.2</ele>
        <time>2017-06-01T11:53:38.000Z</time>
      </trkpt>
      <trkpt lat="43.46772" lon="2.2821">
        <ele>861.2</ele>
        <time>2017-06-01T11:53:39.000Z</time>
      </trkpt>
      <trkpt lat="43.46774" lon="2.28213">
        <ele>860.4</ele>
        <time>2017-06-01T11:53:40.000Z</time>
      </trkpt>
      <trkpt lat="43.46776" lon="2.28217">
        <ele>859.6</ele>
        <time>2017-06-01T11:54:24.000Z</time>
      </trkpt>
      <trkpt lat="43.4678" lon="2.28223">
        <ele>857.2</ele>
        <time>2017-06-01T11:54:26.000Z</time>
      </trkpt>
      <trkpt lat="43.46784" lon="2.28223">
        <ele>855.9</ele>
        <time>2017-06-01T11:54:28.000Z</time>
      </trkpt>
      <trkpt lat="43.46787" lon="2.28225">
        <ele>854.8</ele>
        <time>2017-06-01T11:54:29.000Z</time>
      </trkpt>
      <trkpt lat="43.46792" lon="2.28226">
        <ele>853.4</ele>
        <time>2017-06-01T11:54:30.000Z</time>
      </trkpt>
      <trkpt lat="43.46796" lon="2.28229">
        <ele>851.5</ele>
        <time>2017-06-01T11:54:31.000Z</time>
      </trkpt>
      <trkpt lat="43.468" lon="2.2823">
        <ele>850.5</ele>
        <time>2017-06-01T11:54:32.000Z</time>
      </trkpt>
      <trkpt lat="43.46802" lon="2.28231">
        <ele>849.6</ele>
        <time>2017-06-01T11:54:33.000Z</time>
      </trkpt>
      <trkpt lat="43.46806" lon="2.28232">
        <ele>848.6</ele>
        <time>2017-06-01T11:54:34.000Z</time>
      </trkpt>
      <trkpt lat="43.4681" lon="2.28235">
        <ele>847.6</ele>
        <time>2017-06-01T11:54:35.000Z</time>
      </trkpt>
      <trkpt lat="43.46814" lon="2.28235">
        <ele>846.6</ele>
        <time>2017-06-01T11:54:38.000Z</time>
      </trkpt>
      <trkpt lat="43.46819" lon="2.28235">
        <ele>844.8</ele>
        <time>2017-06-01T11:54:40.000Z</time>
      </trkpt>
      <trkpt lat="43.46825" lon="2.28236">
        <ele>843.1</ele>
        <time>2017-06-01T11:54:41.000Z</time>
      </trkpt>
      <trkpt lat="43.46831" lon="2.28239">
        <ele>841.7</ele>
        <time>2017-06-01T11:54:42.000Z</time>
      </trkpt>
      <trkpt lat="43.46837" lon="2.2824">
        <ele>840.5</ele>
        <time>2017-06-01T11:54:43.000Z</time>
      </trkpt>
      <trkpt lat="43.46844" lon="2.28237">
        <ele>838.9</ele>
        <time>2017-06-01T11:54:44.000Z</time>
      </trkpt>
      <trkpt lat="43.4685" lon="2.28236">
        <ele>837.7</ele>
        <time>2017-06-01T11:54:45.000Z</time>
      </trkpt>
      <trkpt lat="43.46858" lon="2.28238">
        <ele>836.2</ele>
        <time>2017-06-01T11:54:46.000Z</time>
      </trkpt>
      <trkpt lat="43.46867" lon="2.28236">
        <ele>834.4</ele>
        <time>2017-06-01T11:54:47.000Z</time>
      </trkpt>
      <trkpt lat="43.46875" lon="2.28237">
        <ele>833.1</ele>
        <time>2017-06-01T11:54:48.000Z</time>
      </trkpt>
      <trkpt lat="43.46881" lon="2.28236">
        <ele>832</ele>
        <time>2017-06-01T11:54:49.000Z</time>
      </trkpt>
      <trkpt lat="43.46889" lon="2.28239">
        <ele>830.6</ele>
        <time>2017-06-01T11:54:50.000Z</time>
      </trkpt>
      <trkpt lat="43.46893" lon="2.2824">
        <ele>829.9</ele>
        <time>2017-06-01T11:54:51.000Z</time>
      </trkpt>
      <trkpt lat="43.46898" lon="2.28243">
        <ele>828.8</ele>
        <time>2017-06-01T11:54:52.000Z</time>
      </trkpt>
      <trkpt lat="43.46903" lon="2.28245">
        <ele>827.5</ele>
        <time>2017-06-01T11:54:53.000Z</time>
      </trkpt>
      <trkpt lat="43.46907" lon="2.2824">
        <ele>826.3</ele>
        <time>2017-06-01T11:54:55.000Z</time>
      </trkpt>
      <trkpt lat="43.46911" lon="2.28239">
        <ele>825.5</ele>
        <time>2017-06-01T11:54:56.000Z</time>
      </trkpt>
      <trkpt lat="43.46919" lon="2.28238">
        <ele>824.1</ele>
        <time>2017-06-01T11:54:57.000Z</time>
      </trkpt>
      <trkpt lat="43.46927" lon="2.28239">
        <ele>822.7</ele>
        <time>2017-06-01T11:54:58.000Z</time>
      </trkpt>
      <trkpt lat="43.46935" lon="2.28237">
        <ele>820.6</ele>
        <time>2017-06-01T11:54:59.000Z</time>
      </trkpt>
      <trkpt lat="43.46944" lon="2.28236">
        <ele>818.6</ele>
        <time>2017-06-01T11:55:00.000Z</time>
      </trkpt>
      <trkpt lat="43.46953" lon="2.28234">
        <ele>816.7</ele>
        <time>2017-06-01T11:55:01.000Z</time>
      </trkpt>
      <trkpt lat="43.46961" lon="2.28235">
        <ele>815.2</ele>
        <time>2017-06-01T11:55:02.000Z</time>
      </trkpt>
      <trkpt lat="43.46968" lon="2.28232">
        <ele>813.5</ele>
        <time>2017-06-01T11:55:03.000Z</time>
      </trkpt>
      <trkpt lat="43.46975" lon="2.28235">
        <ele>812.1</ele>
        <time>2017-06-01T11:55:04.000Z</time>
      </trkpt>
      <trkpt lat="43.4698" lon="2.28236">
        <ele>811.1</ele>
        <time>2017-06-01T11:55:06.000Z</time>
      </trkpt>
      <trkpt lat="43.46982" lon="2.28234">
        <ele>810.7</ele>
        <time>2017-06-01T11:55:07.000Z</time>
      </trkpt>
      <trkpt lat="43.46985" lon="2.28235">
        <ele>810.1</ele>
        <time>2017-06-01T11:55:08.000Z</time>
      </trkpt>
      <trkpt lat="43.46988" lon="2.28234">
        <ele>809.6</ele>
        <time>2017-06-01T11:55:09.000Z</time>
      </trkpt>
      <trkpt lat="43.46994" lon="2.28232">
        <ele>808.6</ele>
        <time>2017-06-01T11:55:11.000Z</time>
      </trkpt>
      <trkpt lat="43.46999" lon="2.28226">
        <ele>807.4</ele>
        <time>2017-06-01T11:55:14.000Z</time>
      </trkpt>
      <trkpt lat="43.47009" lon="2.28224">
        <ele>805.6</ele>
        <time>2017-06-01T11:55:15.000Z</time>
      </trkpt>
      <trkpt lat="43.47012" lon="2.28226">
        <ele>804.8</ele>
        <time>2017-06-01T11:55:16.000Z</time>
      </trkpt>
      <trkpt lat="43.47019" lon="2.28226">
        <ele>803.6</ele>
        <time>2017-06-01T11:55:17.000Z</time>
      </trkpt>
      <trkpt lat="43.47023" lon="2.28224">
        <ele>803</ele>
        <time>2017-06-01T11:55:18.000Z</time>
      </trkpt>
      <trkpt lat="43.47031" lon="2.28222">
        <ele>802.4</ele>
        <time>2017-06-01T11:55:20.000Z</time>
      </trkpt>
      <trkpt lat="43.47038" lon="2.2822">
        <ele>801.9</ele>
        <time>2017-06-01T11:55:22.000Z</time>
      </trkpt>
      <trkpt lat="43.47045" lon="2.28217">
        <ele>801.1</ele>
        <time>2017-06-01T11:55:23.000Z</time>
      </trkpt>
      <trkpt lat="43.4705" lon="2.28216">
        <ele>800.7</ele>
        <time>2017-06-01T11:55:24.000Z</time>
      </trkpt>
      <trkpt lat="43.47057" lon="2.28216">
        <ele>800.3</ele>
        <time>2017-06-01T11:55:25.000Z</time>
      </trkpt>
      <trkpt lat="43.47061" lon="2.28219">
        <ele>800.1</ele>
        <time>2017-06-01T11:55:26.000Z</time>
      </trkpt>
      <trkpt lat="43.47066" lon="2.28222">
        <ele>799.8</ele>
        <time>2017-06-01T11:55:27.000Z</time>
      </trkpt>
      <trkpt lat="43.47068" lon="2.28229">
        <ele>799.5</ele>
        <time>2017-06-01T11:55:32.000Z</time>
      </trkpt>
      <trkpt lat="43.47071" lon="2.28234">
        <ele>799.2</ele>
        <time>2017-06-01T11:55:33.000Z</time>
      </trkpt>
      <trkpt lat="43.47081" lon="2.28235">
        <ele>799.2</ele>
        <time>2017-06-01T11:55:38.000Z</time>
      </trkpt>
      <trkpt lat="43.47087" lon="2.28234">
        <ele>799.2</ele>
        <time>2017-06-01T11:55:56.000Z</time>
      </trkpt>
      <trkpt lat="43.47093" lon="2.28233">
        <ele>799.1</ele>
        <time>2017-06-01T11:55:57.000Z</time>
      </trkpt>
      <trkpt lat="43.47098" lon="2.28232">
        <ele>799</ele>
        <time>2017-06-01T11:55:58.000Z</time>
      </trkpt>
      <trkpt lat="43.47104" lon="2.28232">
        <ele>798.8</ele>
        <time>2017-06-01T11:55:59.000Z</time>
      </trkpt>
      <trkpt lat="43.4711" lon="2.28237">
        <ele>798.5</ele>
        <time>2017-06-01T11:56:00.000Z</time>
      </trkpt>
      <trkpt lat="43.47115" lon="2.2824">
        <ele>798.3</ele>
        <time>2017-06-01T11:56:01.000Z</time>
      </trkpt>
      <trkpt lat="43.4712" lon="2.28241">
        <ele>798</ele>
        <time>2017-06-01T11:56:02.000Z</time>
      </trkpt>
      <trkpt lat="43.47123" lon="2.28241">
        <ele>797.9</ele>
        <time>2017-06-01T11:56:03.000Z</time>
      </trkpt>
      <trkpt lat="43.47128" lon="2.2824">
        <ele>797.5</ele>
        <time>2017-06-01T11:56:04.000Z</time>
      </trkpt>
      <trkpt lat="43.47131" lon="2.28239">
        <ele>797.3</ele>
        <time>2017-06-01T11:56:05.000Z</time>
      </trkpt>
      <trkpt lat="43.47133" lon="2.28242">
        <ele>797</ele>
        <time>2017-06-01T11:56:06.000Z</time>
      </trkpt>
      <trkpt lat="43.47136" lon="2.28247">
        <ele>796.6</ele>
        <time>2017-06-01T11:56:07.000Z</time>
      </trkpt>
      <trkpt lat="43.4714" lon="2.28248">
        <ele>796.3</ele>
        <time>2017-06-01T11:56:08.000Z</time>
      </trkpt>
      <trkpt lat="43.47146" lon="2.28247">
        <ele>795.6</ele>
        <time>2017-06-01T11:56:09.000Z</time>
      </trkpt>
      <trkpt lat="43.47151" lon="2.28247">
        <ele>795</ele>
        <time>2017-06-01T11:56:10.000Z</time>
      </trkpt>
      <trkpt lat="43.47156" lon="2.28245">
        <ele>794.5</ele>
        <time>2017-06-01T11:56:11.000Z</time>
      </trkpt>
      <trkpt lat="43.47162" lon="2.28242">
        <ele>793.6</ele>
        <time>2017-06-01T11:56:12.000Z</time>
      </trkpt>
      <trkpt lat="43.47165" lon="2.28245">
        <ele>793.1</ele>
        <time>2017-06-01T11:56:13.000Z</time>
      </trkpt>
      <trkpt lat="43.47172" lon="2.28245">
        <ele>792.2</ele>
        <time>2017-06-01T11:56:14.000Z</time>
      </trkpt>
      <trkpt lat="43.47176" lon="2.28247">
        <ele>791.7</ele>
        <time>2017-06-01T11:56:15.000Z</time>
      </trkpt>
      <trkpt lat="43.47178" lon="2.28251">
        <ele>791.2</ele>
        <time>2017-06-01T11:56:16.000Z</time>
      </trkpt>
      <trkpt lat="43.47181" lon="2.28253">
        <ele>790.8</ele>
        <time>2017-06-01T11:56:17.000Z</time>
      </trkpt>
      <trkpt lat="43.47185" lon="2.2826">
        <ele>789.5</ele>
        <time>2017-06-01T11:56:19.000Z</time>
      </trkpt>
      <trkpt lat="43.4719" lon="2.2826">
        <ele>788.6</ele>
        <time>2017-06-01T11:56:20.000Z</time>
      </trkpt>
      <trkpt lat="43.47193" lon="2.28266">
        <ele>787</ele>
        <time>2017-06-01T11:56:21.000Z</time>
      </trkpt>
      <trkpt lat="43.47198" lon="2.28268">
        <ele>787</ele>
        <time>2017-06-01T11:56:22.000Z</time>
      </trkpt>
      <trkpt lat="43.47202" lon="2.28271">
        <ele>787</ele>
        <time>2017-06-01T11:56:23.000Z</time>
      </trkpt>
      <trkpt lat="43.47207" lon="2.28273">
        <ele>787</ele>
        <time>2017-06-01T11:56:24.000Z</time>
      </trkpt>
      <trkpt lat="43.47211" lon="2.28274">
        <ele>787</ele>
        <time>2017-06-01T11:56:25.000Z</time>
      </trkpt>
      <trkpt lat="43.47216" lon="2.28274">
        <ele>780</ele>
        <time>2017-06-01T11:56:26.000Z</time>
      </trkpt>
      <trkpt lat="43.4722" lon="2.28277">
        <ele>778.6</ele>
        <time>2017-06-01T11:56:28.000Z</time>
      </trkpt>
      <trkpt lat="43.47222" lon="2.28281">
        <ele>777.7</ele>
        <time>2017-06-01T11:56:30.000Z</time>
      </trkpt>
      <trkpt lat="43.47224" lon="2.28282">
        <ele>776.9</ele>
        <time>2017-06-01T11:56:32.000Z</time>
      </trkpt>
      <trkpt lat="43.47228" lon="2.28282">
        <ele>775.8</ele>
        <time>2017-06-01T11:56:33.000Z</time>
      </trkpt>
      <trkpt lat="43.47232" lon="2.28282">
        <ele>774.8</ele>
        <time>2017-06-01T11:56:34.000Z</time>
      </trkpt>
      <trkpt lat="43.47235" lon="2.28283">
        <ele>773.7</ele>
        <time>2017-06-01T11:56:35.000Z</time>
      </trkpt>
      <trkpt lat="43.47242" lon="2.28286">
        <ele>771.9</ele>
        <time>2017-06-01T11:56:36.000Z</time>
      </trkpt>
      <trkpt lat="43.47248" lon="2.28286">
        <ele>770.4</ele>
        <time>2017-06-01T11:56:37.000Z</time>
      </trkpt>
      <trkpt lat="43.47253" lon="2.28288">
        <ele>769.3</ele>
        <time>2017-06-01T11:56:38.000Z</time>
      </trkpt>
      <trkpt lat="43.47258" lon="2.28287">
        <ele>768.1</ele>
        <time>2017-06-01T11:56:39.000Z</time>
      </trkpt>
      <trkpt lat="43.47261" lon="2.28286">
        <ele>767.2</ele>
        <time>2017-06-01T11:56:40.000Z</time>
      </trkpt>
      <trkpt lat="43.47265" lon="2.28287">
        <ele>766.2</ele>
        <time>2017-06-01T11:56:41.000Z</time>
      </trkpt>
      <trkpt lat="43.4727" lon="2.28287">
        <ele>764.9</ele>
        <time>2017-06-01T11:56:42.000Z</time>
      </trkpt>
      <trkpt lat="43.47274" lon="2.28287">
        <ele>763.8</ele>
        <time>2017-06-01T11:56:43.000Z</time>
      </trkpt>
      <trkpt lat="43.47279" lon="2.28288">
        <ele>762.8</ele>
        <time>2017-06-01T11:56:44.000Z</time>
      </trkpt>
      <trkpt lat="43.47284" lon="2.28287">
        <ele>761.6</ele>
        <time>2017-06-01T11:56:45.000Z</time>
      </trkpt>
      <trkpt lat="43.47289" lon="2.28289">
        <ele>760.2</ele>
        <time>2017-06-01T11:56:46.000Z</time>
      </trkpt>
      <trkpt lat="43.47293" lon="2.28288">
        <ele>758.9</ele>
        <time>2017-06-01T11:56:47.000Z</time>
      </trkpt>
      <trkpt lat="43.473" lon="2.28291">
        <ele>756.9</ele>
        <time>2017-06-01T11:56:48.000Z</time>
      </trkpt>
      <trkpt lat="43.47306" lon="2.28293">
        <ele>755.5</ele>
        <time>2017-06-01T11:56:49.000Z</time>
      </trkpt>
      <trkpt lat="43.47313" lon="2.28299">
        <ele>754.1</ele>
        <time>2017-06-01T11:56:50.000Z</time>
      </trkpt>
      <trkpt lat="43.47317" lon="2.28299">
        <ele>753.5</ele>
        <time>2017-06-01T11:56:51.000Z</time>
      </trkpt>
      <trkpt lat="43.47322" lon="2.283">
        <ele>752.6</ele>
        <time>2017-06-01T11:56:52.000Z</time>
      </trkpt>
      <trkpt lat="43.47327" lon="2.283">
        <ele>751.9</ele>
        <time>2017-06-01T11:56:53.000Z</time>
      </trkpt>
      <trkpt lat="43.47331" lon="2.28301">
        <ele>751.3</ele>
        <time>2017-06-01T11:56:54.000Z</time>
      </trkpt>
      <trkpt lat="43.47337" lon="2.28302">
        <ele>750.2</ele>
        <time>2017-06-01T11:56:55.000Z</time>
      </trkpt>
      <trkpt lat="43.4734" lon="2.28305">
        <ele>749.6</ele>
        <time>2017-06-01T11:56:56.000Z</time>
      </trkpt>
      <trkpt lat="43.47343" lon="2.28307">
        <ele>749</ele>
        <time>2017-06-01T11:56:57.000Z</time>
      </trkpt>
      <trkpt lat="43.47347" lon="2.28308">
        <ele>748.4</ele>
        <time>2017-06-01T11:56:58.000Z</time>
      </trkpt>
      <trkpt lat="43.47352" lon="2.28313">
        <ele>747.4</ele>
        <time>2017-06-01T11:56:59.000Z</time>
      </trkpt>
      <trkpt lat="43.47358" lon="2.28317">
        <ele>746.4</ele>
        <time>2017-06-01T11:57:00.000Z</time>
      </trkpt>
      <trkpt lat="43.47362" lon="2.28321">
        <ele>746</ele>
        <time>2017-06-01T11:57:01.000Z</time>
      </trkpt>
      <trkpt lat="43.47365" lon="2.28323">
        <ele>745.7</ele>
        <time>2017-06-01T11:57:02.000Z</time>
      </trkpt>
      <trkpt lat="43.47369" lon="2.28324">
        <ele>745.3</ele>
        <time>2017-06-01T11:57:03.000Z</time>
      </trkpt>
      <trkpt lat="43.47373" lon="2.28325">
        <ele>745</ele>
        <time>2017-06-01T11:57:04.000Z</time>
      </trkpt>
      <trkpt lat="43.47377" lon="2.28326">
        <ele>744.8</ele>
        <time>2017-06-01T11:57:05.000Z</time>
      </trkpt>
      <trkpt lat="43.47382" lon="2.28328">
        <ele>744.5</ele>
        <time>2017-06-01T11:57:06.000Z</time>
      </trkpt>
      <trkpt lat="43.47387" lon="2.28329">
        <ele>744.2</ele>
        <time>2017-06-01T11:57:07.000Z</time>
      </trkpt>
      <trkpt lat="43.47392" lon="2.28331">
        <ele>743.9</ele>
        <time>2017-06-01T11:57:08.000Z</time>
      </trkpt>
      <trkpt lat="43.47398" lon="2.28336">
        <ele>743.6</ele>
        <time>2017-06-01T11:57:09.000Z</time>
      </trkpt>
      <trkpt lat="43.47402" lon="2.2834">
        <ele>743.3</ele>
        <time>2017-06-01T11:57:10.000Z</time>
      </trkpt>
      <trkpt lat="43.47409" lon="2.28341">
        <ele>742.9</ele>
        <time>2017-06-01T11:57:11.000Z</time>
      </trkpt>
      <trkpt lat="43.47417" lon="2.28344">
        <ele>742.6</ele>
        <time>2017-06-01T11:57:12.000Z</time>
      </trkpt>
      <trkpt lat="43.47419" lon="2.28349">
        <ele>742.4</ele>
        <time>2017-06-01T11:57:13.000Z</time>
      </trkpt>
      <trkpt lat="43.47424" lon="2.28351">
        <ele>742.2</ele>
        <time>2017-06-01T11:57:14.000Z</time>
      </trkpt>
      <trkpt lat="43.47429" lon="2.28355">
        <ele>742</ele>
        <time>2017-06-01T11:57:15.000Z</time>
      </trkpt>
      <trkpt lat="43.47436" lon="2.28358">
        <ele>741.8</ele>
        <time>2017-06-01T11:57:16.000Z</time>
      </trkpt>
      <trkpt lat="43.47439" lon="2.2836">
        <ele>741.6</ele>
        <time>2017-06-01T11:57:17.000Z</time>
      </trkpt>
      <trkpt lat="43.47441" lon="2.28364">
        <ele>741.5</ele>
        <time>2017-06-01T11:57:18.000Z</time>
      </trkpt>
      <trkpt lat="43.47446" lon="2.28367">
        <ele>741.2</ele>
        <time>2017-06-01T11:57:19.000Z</time>
      </trkpt>
      <trkpt lat="43.47452" lon="2.28372">
        <ele>740.9</ele>
        <time>2017-06-01T11:57:20.000Z</time>
      </trkpt>
      <trkpt lat="43.47456" lon="2.28374">
        <ele>740.7</ele>
        <time>2017-06-01T11:57:21.000Z</time>
      </trkpt>
      <trkpt lat="43.47462" lon="2.28376">
        <ele>740.3</ele>
        <time>2017-06-01T11:57:22.000Z</time>
      </trkpt>
      <trkpt lat="43.4747" lon="2.28381">
        <ele>739.9</ele>
        <time>2017-06-01T11:57:23.000Z</time>
      </trkpt>
      <trkpt lat="43.47481" lon="2.28386">
        <ele>739.2</ele>
        <time>2017-06-01T11:57:24.000Z</time>
      </trkpt>
      <trkpt lat="43.47486" lon="2.28393">
        <ele>738.8</ele>
        <time>2017-06-01T11:57:25.000Z</time>
      </trkpt>
      <trkpt lat="43.47492" lon="2.28396">
        <ele>738.4</ele>
        <time>2017-06-01T11:57:26.000Z</time>
      </trkpt>
      <trkpt lat="43.475" lon="2.28398">
        <ele>738.1</ele>
        <time>2017-06-01T11:57:27.000Z</time>
      </trkpt>
      <trkpt lat="43.47507" lon="2.28405">
        <ele>737.7</ele>
        <time>2017-06-01T11:57:28.000Z</time>
      </trkpt>
      <trkpt lat="43.47513" lon="2.28406">
        <ele>737.5</ele>
        <time>2017-06-01T11:57:29.000Z</time>
      </trkpt>
      <trkpt lat="43.47517" lon="2.28404">
        <ele>737.3</ele>
        <time>2017-06-01T11:57:31.000Z</time>
      </trkpt>
      <trkpt lat="43.4752" lon="2.28403">
        <ele>737.2</ele>
        <time>2017-06-01T11:57:32.000Z</time>
      </trkpt>
      <trkpt lat="43.47521" lon="2.28398">
        <ele>737.1</ele>
        <time>2017-06-01T11:57:33.000Z</time>
      </trkpt>
      <trkpt lat="43.47524" lon="2.28392">
        <ele>735</ele>
        <time>2017-06-01T11:57:34.000Z</time>
      </trkpt>
      <trkpt lat="43.47525" lon="2.28385">
        <ele>732.8</ele>
        <time>2017-06-01T11:57:35.000Z</time>
      </trkpt>
      <trkpt lat="43.47525" lon="2.28381">
        <ele>731</ele>
        <time>2017-06-01T11:57:36.000Z</time>
      </trkpt>
      <trkpt lat="43.47528" lon="2.28375">
        <ele>728.9</ele>
        <time>2017-06-01T11:57:37.000Z</time>
      </trkpt>
      <trkpt lat="43.47529" lon="2.28369">
        <ele>725.9</ele>
        <time>2017-06-01T11:57:38.000Z</time>
      </trkpt>
      <trkpt lat="43.4753" lon="2.28366">
        <ele>724.8</ele>
        <time>2017-06-01T11:57:39.000Z</time>
      </trkpt>
      <trkpt lat="43.4753" lon="2.28358">
        <ele>722</ele>
        <time>2017-06-01T11:57:41.000Z</time>
      </trkpt>
      <trkpt lat="43.47531" lon="2.28354">
        <ele>721.5</ele>
        <time>2017-06-01T11:57:42.000Z</time>
      </trkpt>
      <trkpt lat="43.47532" lon="2.28349">
        <ele>721</ele>
        <time>2017-06-01T11:57:43.000Z</time>
      </trkpt>
      <trkpt lat="43.47533" lon="2.28343">
        <ele>720.4</ele>
        <time>2017-06-01T11:57:44.000Z</time>
      </trkpt>
      <trkpt lat="43.47535" lon="2.28336">
        <ele>719.6</ele>
        <time>2017-06-01T11:57:45.000Z</time>
      </trkpt>
      <trkpt lat="43.47537" lon="2.28331">
        <ele>719</ele>
        <time>2017-06-01T11:57:46.000Z</time>
      </trkpt>
      <trkpt lat="43.47538" lon="2.28321">
        <ele>707.6</ele>
        <time>2017-06-01T11:57:47.000Z</time>
      </trkpt>
      <trkpt lat="43.47538" lon="2.28315">
        <ele>706.7</ele>
        <time>2017-06-01T11:57:48.000Z</time>
      </trkpt>
      <trkpt lat="43.47539" lon="2.28305">
        <ele>704.8</ele>
        <time>2017-06-01T11:57:49.000Z</time>
      </trkpt>
      <trkpt lat="43.47536" lon="2.28299">
        <ele>702.9</ele>
        <time>2017-06-01T11:57:50.000Z</time>
      </trkpt>
      <trkpt lat="43.47536" lon="2.28291">
        <ele>701.9</ele>
        <time>2017-06-01T11:57:51.000Z</time>
      </trkpt>
      <trkpt lat="43.47534" lon="2.28283">
        <ele>700.6</ele>
        <time>2017-06-01T11:57:52.000Z</time>
      </trkpt>
      <trkpt lat="43.47531" lon="2.28277">
        <ele>699.5</ele>
        <time>2017-06-01T11:57:53.000Z</time>
      </trkpt>
      <trkpt lat="43.47526" lon="2.28268">
        <ele>698</ele>
        <time>2017-06-01T11:57:54.000Z</time>
      </trkpt>
      <trkpt lat="43.47526" lon="2.28255">
        <ele>696.4</ele>
        <time>2017-06-01T11:57:55.000Z</time>
      </trkpt>
      <trkpt lat="43.47525" lon="2.28244">
        <ele>694.9</ele>
        <time>2017-06-01T11:57:56.000Z</time>
      </trkpt>
      <trkpt lat="43.47523" lon="2.28233">
        <ele>693.5</ele>
        <time>2017-06-01T11:57:57.000Z</time>
      </trkpt>
      <trkpt lat="43.47522" lon="2.28223">
        <ele>692.3</ele>
        <time>2017-06-01T11:57:58.000Z</time>
      </trkpt>
      <trkpt lat="43.4752" lon="2.28215">
        <ele>691.2</ele>
        <time>2017-06-01T11:57:59.000Z</time>
      </trkpt>
      <trkpt lat="43.47519" lon="2.2821">
        <ele>690.8</ele>
        <time>2017-06-01T11:58:00.000Z</time>
      </trkpt>
      <trkpt lat="43.47521" lon="2.28202">
        <ele>690.1</ele>
        <time>2017-06-01T11:58:01.000Z</time>
      </trkpt>
      <trkpt lat="43.47523" lon="2.28193">
        <ele>689.4</ele>
        <time>2017-06-01T11:58:02.000Z</time>
      </trkpt>
      <trkpt lat="43.47523" lon="2.28188">
        <ele>688.9</ele>
        <time>2017-06-01T11:58:03.000Z</time>
      </trkpt>
      <trkpt lat="43.47522" lon="2.2818">
        <ele>688.3</ele>
        <time>2017-06-01T11:58:04.000Z</time>
      </trkpt>
      <trkpt lat="43.47524" lon="2.28174">
        <ele>687.7</ele>
        <time>2017-06-01T11:58:05.000Z</time>
      </trkpt>
      <trkpt lat="43.47522" lon="2.28167">
        <ele>687.1</ele>
        <time>2017-06-01T11:58:06.000Z</time>
      </trkpt>
      <trkpt lat="43.47521" lon="2.28161">
        <ele>686.6</ele>
        <time>2017-06-01T11:58:07.000Z</time>
      </trkpt>
      <trkpt lat="43.4752" lon="2.28154">
        <ele>686</ele>
        <time>2017-06-01T11:58:08.000Z</time>
      </trkpt>
      <trkpt lat="43.47521" lon="2.28148">
        <ele>685.4</ele>
        <time>2017-06-01T11:58:09.000Z</time>
      </trkpt>
      <trkpt lat="43.4752" lon="2.28141">
        <ele>684.8</ele>
        <time>2017-06-01T11:58:10.000Z</time>
      </trkpt>
      <trkpt lat="43.47517" lon="2.28136">
        <ele>684.3</ele>
        <time>2017-06-01T11:58:11.000Z</time>
      </trkpt>
      <trkpt lat="43.47516" lon="2.28131">
        <ele>683.8</ele>
        <time>2017-06-01T11:58:12.000Z</time>
      </trkpt>
      <trkpt lat="43.47515" lon="2.28125">
        <ele>683.1</ele>
        <time>2017-06-01T11:58:13.000Z</time>
      </trkpt>
      <trkpt lat="43.47515" lon="2.28118">
        <ele>682.5</ele>
        <time>2017-06-01T11:58:14.000Z</time>
      </trkpt>
      <trkpt lat="43.47515" lon="2.28113">
        <ele>682</ele>
        <time>2017-06-01T11:58:15.000Z</time>
      </trkpt>
      <trkpt lat="43.47512" lon="2.28105">
        <ele>681.2</ele>
        <time>2017-06-01T11:58:16.000Z</time>
      </trkpt>
      <trkpt lat="43.47513" lon="2.28099">
        <ele>680.4</ele>
        <time>2017-06-01T11:58:17.000Z</time>
      </trkpt>
      <trkpt lat="43.47514" lon="2.28092">
        <ele>679.7</ele>
        <time>2017-06-01T11:58:18.000Z</time>
      </trkpt>
      <trkpt lat="43.47517" lon="2.28086">
        <ele>678.8</ele>
        <time>2017-06-01T11:58:19.000Z</time>
      </trkpt>
      <trkpt lat="43.47519" lon="2.28079">
        <ele>677.9</ele>
        <time>2017-06-01T11:58:20.000Z</time>
      </trkpt>
      <trkpt lat="43.47519" lon="2.28075">
        <ele>677.3</ele>
        <time>2017-06-01T11:58:21.000Z</time>
      </trkpt>
      <trkpt lat="43.4752" lon="2.28068">
        <ele>676.3</ele>
        <time>2017-06-01T11:58:22.000Z</time>
      </trkpt>
      <trkpt lat="43.4752" lon="2.2806">
        <ele>675.1</ele>
        <time>2017-06-01T11:58:24.000Z</time>
      </trkpt>
      <trkpt lat="43.4752" lon="2.28054">
        <ele>674.3</ele>
        <time>2017-06-01T11:58:25.000Z</time>
      </trkpt>
      <trkpt lat="43.47518" lon="2.2805">
        <ele>673.6</ele>
        <time>2017-06-01T11:58:26.000Z</time>
      </trkpt>
      <trkpt lat="43.4752" lon="2.28042">
        <ele>672.8</ele>
        <time>2017-06-01T11:58:27.000Z</time>
      </trkpt>
      <trkpt lat="43.47521" lon="2.28032">
        <ele>672</ele>
        <time>2017-06-01T11:58:28.000Z</time>
      </trkpt>
      <trkpt lat="43.47524" lon="2.28026">
        <ele>671.3</ele>
        <time>2017-06-01T11:58:29.000Z</time>
      </trkpt>
      <trkpt lat="43.47529" lon="2.2802">
        <ele>670.5</ele>
        <time>2017-06-01T11:58:30.000Z</time>
      </trkpt>
      <trkpt lat="43.47534" lon="2.2801">
        <ele>669.7</ele>
        <time>2017-06-01T11:58:31.000Z</time>
      </trkpt>
      <trkpt lat="43.47534" lon="2.28003">
        <ele>669.1</ele>
        <time>2017-06-01T11:58:32.000Z</time>
      </trkpt>
      <trkpt lat="43.47536" lon="2.27998">
        <ele>668.7</ele>
        <time>2017-06-01T11:58:33.000Z</time>
      </trkpt>
      <trkpt lat="43.47538" lon="2.27995">
        <ele>668.3</ele>
        <time>2017-06-01T11:58:34.000Z</time>
      </trkpt>
      <trkpt lat="43.47544" lon="2.27992">
        <ele>667.5</ele>
        <time>2017-06-01T11:58:35.000Z</time>
      </trkpt>
      <trkpt lat="43.47548" lon="2.2799">
        <ele>663.3</ele>
        <time>2017-06-01T11:58:36.000Z</time>
      </trkpt>
      <trkpt lat="43.47553" lon="2.27987">
        <ele>662.7</ele>
        <time>2017-06-01T11:58:37.000Z</time>
      </trkpt>
      <trkpt lat="43.47558" lon="2.27983">
        <ele>662.2</ele>
        <time>2017-06-01T11:58:38.000Z</time>
      </trkpt>
      <trkpt lat="43.47565" lon="2.27976">
        <ele>661.5</ele>
        <time>2017-06-01T11:58:40.000Z</time>
      </trkpt>
      <trkpt lat="43.47568" lon="2.27975">
        <ele>661.3</ele>
        <time>2017-06-01T11:58:41.000Z</time>
      </trkpt>
      <trkpt lat="43.47572" lon="2.27974">
        <ele>660.9</ele>
        <time>2017-06-01T11:58:43.000Z</time>
      </trkpt>
      <trkpt lat="43.47576" lon="2.27972">
        <ele>660.5</ele>
        <time>2017-06-01T11:58:44.000Z</time>
      </trkpt>
      <trkpt lat="43.4758" lon="2.27971">
        <ele>660.2</ele>
        <time>2017-06-01T11:58:45.000Z</time>
      </trkpt>
      <trkpt lat="43.47585" lon="2.27968">
        <ele>660</ele>
        <time>2017-06-01T11:58:46.000Z</time>
      </trkpt>
      <trkpt lat="43.47592" lon="2.27968">
        <ele>659.6</ele>
        <time>2017-06-01T11:58:48.000Z</time>
      </trkpt>
      <trkpt lat="43.47598" lon="2.27969">
        <ele>659</ele>
        <time>2017-06-01T11:58:49.000Z</time>
      </trkpt>
      <trkpt lat="43.47604" lon="2.27967">
        <ele>658.3</ele>
        <time>2017-06-01T11:58:50.000Z</time>
      </trkpt>
      <trkpt lat="43.4761" lon="2.27964">
        <ele>657.4</ele>
        <time>2017-06-01T11:58:51.000Z</time>
      </trkpt>
      <trkpt lat="43.47622" lon="2.27958">
        <ele>655.6</ele>
        <time>2017-06-01T11:58:52.000Z</time>
      </trkpt>
      <trkpt lat="43.47635" lon="2.2796">
        <ele>654.1</ele>
        <time>2017-06-01T11:58:53.000Z</time>
      </trkpt>
      <trkpt lat="43.47644" lon="2.27949">
        <ele>652.9</ele>
        <time>2017-06-01T11:58:54.000Z</time>
      </trkpt>
      <trkpt lat="43.47651" lon="2.27945">
        <ele>652.1</ele>
        <time>2017-06-01T11:58:56.000Z</time>
      </trkpt>
      <trkpt lat="43.47658" lon="2.27939">
        <ele>652</ele>
        <time>2017-06-01T11:58:57.000Z</time>
      </trkpt>
      <trkpt lat="43.47664" lon="2.27942">
        <ele>651.8</ele>
        <time>2017-06-01T11:58:58.000Z</time>
      </trkpt>
      <trkpt lat="43.47667" lon="2.27938">
        <ele>652.2</ele>
        <time>2017-06-01T11:58:59.000Z</time>
      </trkpt>
      <trkpt lat="43.47672" lon="2.27922">
        <ele>654.4</ele>
        <time>2017-06-01T11:59:00.000Z</time>
      </trkpt>
      <trkpt lat="43.4769" lon="2.27929">
        <ele>652.5</ele>
        <time>2017-06-01T11:59:01.000Z</time>
      </trkpt>
      <trkpt lat="43.47699" lon="2.27928">
        <ele>652.4</ele>
        <time>2017-06-01T11:59:02.000Z</time>
      </trkpt>
      <trkpt lat="43.47708" lon="2.27918">
        <ele>652.3</ele>
        <time>2017-06-01T11:59:03.000Z</time>
      </trkpt>
      <trkpt lat="43.47711" lon="2.27916">
        <ele>652.2</ele>
        <time>2017-06-01T11:59:04.000Z</time>
      </trkpt>
      <trkpt lat="43.47723" lon="2.27912">
        <ele>650.7</ele>
        <time>2017-06-01T11:59:05.000Z</time>
      </trkpt>
      <trkpt lat="43.47725" lon="2.27909">
        <ele>651.3</ele>
        <time>2017-06-01T11:59:06.000Z</time>
      </trkpt>
      <trkpt lat="43.4773" lon="2.27909">
        <ele>651.3</ele>
        <time>2017-06-01T11:59:07.000Z</time>
      </trkpt>
      <trkpt lat="43.47735" lon="2.27905">
        <ele>651.4</ele>
        <time>2017-06-01T11:59:08.000Z</time>
      </trkpt>
      <trkpt lat="43.47742" lon="2.27909">
        <ele>650.4</ele>
        <time>2017-06-01T11:59:09.000Z</time>
      </trkpt>
      <trkpt lat="43.47746" lon="2.27913">
        <ele>650.2</ele>
        <time>2017-06-01T11:59:10.000Z</time>
      </trkpt>
      <trkpt lat="43.47749" lon="2.27912">
        <ele>650.4</ele>
        <time>2017-06-01T11:59:11.000Z</time>
      </trkpt>
      <trkpt lat="43.47754" lon="2.2791">
        <ele>650.8</ele>
        <time>2017-06-01T11:59:12.000Z</time>
      </trkpt>
      <trkpt lat="43.47759" lon="2.27912">
        <ele>650.3</ele>
        <time>2017-06-01T11:59:13.000Z</time>
      </trkpt>
      <trkpt lat="43.47766" lon="2.2792">
        <ele>649.2</ele>
        <time>2017-06-01T11:59:14.000Z</time>
      </trkpt>
      <trkpt lat="43.47776" lon="2.27929">
        <ele>647.4</ele>
        <time>2017-06-01T11:59:15.000Z</time>
      </trkpt>
      <trkpt lat="43.47782" lon="2.27935">
        <ele>646.7</ele>
        <time>2017-06-01T11:59:16.000Z</time>
      </trkpt>
      <trkpt lat="43.47791" lon="2.27946">
        <ele>645.8</ele>
        <time>2017-06-01T11:59:17.000Z</time>
      </trkpt>
      <trkpt lat="43.47798" lon="2.2796">
        <ele>645.3</ele>
        <time>2017-06-01T11:59:18.000Z</time>
      </trkpt>
      <trkpt lat="43.47805" lon="2.27973">
        <ele>644.6</ele>
        <time>2017-06-01T11:59:19.000Z</time>
      </trkpt>
      <trkpt lat="43.47802" lon="2.27975">
        <ele>645.1</ele>
        <time>2017-06-01T11:59:20.000Z</time>
      </trkpt>
      <trkpt lat="43.47803" lon="2.2798">
        <ele>645</ele>
        <time>2017-06-01T11:59:21.000Z</time>
      </trkpt>
      <trkpt lat="43.47804" lon="2.27984">
        <ele>644.9</ele>
        <time>2017-06-01T11:59:22.000Z</time>
      </trkpt>
      <trkpt lat="43.47807" lon="2.27995">
        <ele>644.5</ele>
        <time>2017-06-01T11:59:24.000Z</time>
      </trkpt>
      <trkpt lat="43.47809" lon="2.28001">
        <ele>644.3</ele>
        <time>2017-06-01T11:59:26.000Z</time>
      </trkpt>
      <trkpt lat="43.47813" lon="2.28001">
        <ele>644.1</ele>
        <time>2017-06-01T11:59:30.000Z</time>
      </trkpt>
      <trkpt lat="43.47815" lon="2.28008">
        <ele>643.9</ele>
        <time>2017-06-01T11:59:33.000Z</time>
      </trkpt>
      <trkpt lat="43.4782" lon="2.28015">
        <ele>643.6</ele>
        <time>2017-06-01T11:59:34.000Z</time>
      </trkpt>
      <trkpt lat="43.47822" lon="2.28023">
        <ele>643.3</ele>
        <time>2017-06-01T11:59:35.000Z</time>
      </trkpt>
      <trkpt lat="43.47821" lon="2.28016">
        <ele>643.1</ele>
        <time>2017-06-01T11:59:37.000Z</time>
      </trkpt>
      <trkpt lat="43.47823" lon="2.28019">
        <ele>643</ele>
        <time>2017-06-01T11:59:38.000Z</time>
      </trkpt>
      <trkpt lat="43.47826" lon="2.28019">
        <ele>642.9</ele>
        <time>2017-06-01T11:59:40.000Z</time>
      </trkpt>
      <trkpt lat="43.47823" lon="2.2802">
        <ele>642.7</ele>
        <time>2017-06-01T11:59:41.000Z</time>
      </trkpt>
      <trkpt lat="43.4782" lon="2.28019">
        <ele>642.6</ele>
        <time>2017-06-01T11:59:42.000Z</time>
      </trkpt>
      <trkpt lat="43.47823" lon="2.2802">
        <ele>642.5</ele>
        <time>2017-06-01T11:59:44.000Z</time>
      </trkpt>
      <trkpt lat="43.47821" lon="2.28015">
        <ele>642.3</ele>
        <time>2017-06-01T11:59:46.000Z</time>
      </trkpt>
      <trkpt lat="43.47819" lon="2.28013">
        <ele>642.2</ele>
        <time>2017-06-01T11:59:47.000Z</time>
      </trkpt>
      <trkpt lat="43.47822" lon="2.28015">
        <ele>642.1</ele>
        <time>2017-06-01T11:59:49.000Z</time>
      </trkpt>
      <trkpt lat="43.47819" lon="2.28013">
        <ele>641.9</ele>
        <time>2017-06-01T11:59:52.000Z</time>
      </trkpt>
      <trkpt lat="43.47819" lon="2.28017">
        <ele>641.8</ele>
        <time>2017-06-01T11:59:53.000Z</time>
      </trkpt>
      <trkpt lat="43.47822" lon="2.2803">
        <ele>641.4</ele>
        <time>2017-06-01T12:00:27.000Z</time>
      </trkpt>
      <trkpt lat="43.47817" lon="2.28029">
        <ele>641.3</ele>
        <time>2017-06-01T12:00:30.000Z</time>
      </trkpt>
      <trkpt lat="43.47818" lon="2.28033">
        <ele>641.2</ele>
        <time>2017-06-01T12:00:31.000Z</time>
      </trkpt>
      <trkpt lat="43.47822" lon="2.28034">
        <ele>641.1</ele>
        <time>2017-06-01T12:00:57.000Z</time>
      </trkpt>
      <trkpt lat="43.47824" lon="2.28034">
        <ele>641</ele>
        <time>2017-06-01T12:00:58.000Z</time>
      </trkpt>
      <trkpt lat="43.47825" lon="2.28037">
        <ele>640.9</ele>
        <time>2017-06-01T12:00:59.000Z</time>
      </trkpt>
      <trkpt lat="43.47822" lon="2.28038">
        <ele>640.8</ele>
        <time>2017-06-01T12:01:01.000Z</time>
      </trkpt>
      <trkpt lat="43.47825" lon="2.28039">
        <ele>640.7</ele>
        <time>2017-06-01T12:01:06.000Z</time>
      </trkpt>
      <trkpt lat="43.47827" lon="2.28043">
        <ele>640.6</ele>
        <time>2017-06-01T12:01:07.000Z</time>
      </trkpt>
      <trkpt lat="43.47829" lon="2.28047">
        <ele>640.5</ele>
        <time>2017-06-01T12:01:09.000Z</time>
      </trkpt>
      <trkpt lat="43.47834" lon="2.28049">
        <ele>640.3</ele>
        <time>2017-06-01T12:01:11.000Z</time>
      </trkpt>
      <trkpt lat="43.47837" lon="2.28052">
        <ele>640.2</ele>
        <time>2017-06-01T12:01:12.000Z</time>
      </trkpt>
      <trkpt lat="43.4784" lon="2.28054">
        <ele>640</ele>
        <time>2017-06-01T12:01:13.000Z</time>
      </trkpt>
      <trkpt lat="43.4784" lon="2.28059">
        <ele>639.9</ele>
        <time>2017-06-01T12:01:14.000Z</time>
      </trkpt>
      <trkpt lat="43.47845" lon="2.28066">
        <ele>639.8</ele>
        <time>2017-06-01T12:01:15.000Z</time>
      </trkpt>
      <trkpt lat="43.47849" lon="2.28067">
        <ele>639.6</ele>
        <time>2017-06-01T12:01:16.000Z</time>
      </trkpt>
      <trkpt lat="43.47852" lon="2.28065">
        <ele>639.5</ele>
        <time>2017-06-01T12:01:17.000Z</time>
      </trkpt>
      <trkpt lat="43.47856" lon="2.28066">
        <ele>639.4</ele>
        <time>2017-06-01T12:01:18.000Z</time>
      </trkpt>
      <trkpt lat="43.47861" lon="2.28066">
        <ele>638.4</ele>
        <time>2017-06-01T12:01:19.000Z</time>
      </trkpt>
      <trkpt lat="43.47865" lon="2.28067">
        <ele>637.6</ele>
        <time>2017-06-01T12:01:20.000Z</time>
      </trkpt>
      <trkpt lat="43.47867" lon="2.28071">
        <ele>637.3</ele>
        <time>2017-06-01T12:01:21.000Z</time>
      </trkpt>
      <trkpt lat="43.47872" lon="2.28068">
        <ele>635</ele>
        <time>2017-06-01T12:01:22.000Z</time>
      </trkpt>
      <trkpt lat="43.47876" lon="2.28067">
        <ele>634.2</ele>
        <time>2017-06-01T12:01:23.000Z</time>
      </trkpt>
      <trkpt lat="43.47882" lon="2.28069">
        <ele>633</ele>
        <time>2017-06-01T12:01:24.000Z</time>
      </trkpt>
      <trkpt lat="43.47885" lon="2.28071">
        <ele>632.8</ele>
        <time>2017-06-01T12:01:25.000Z</time>
      </trkpt>
      <trkpt lat="43.47889" lon="2.2807">
        <ele>632.5</ele>
        <time>2017-06-01T12:01:26.000Z</time>
      </trkpt>
      <trkpt lat="43.47895" lon="2.28075">
        <ele>632.2</ele>
        <time>2017-06-01T12:01:27.000Z</time>
      </trkpt>
      <trkpt lat="43.47899" lon="2.28067">
        <ele>631.2</ele>
        <time>2017-06-01T12:01:28.000Z</time>
      </trkpt>
      <trkpt lat="43.47906" lon="2.28071">
        <ele>630.4</ele>
        <time>2017-06-01T12:01:29.000Z</time>
      </trkpt>
      <trkpt lat="43.4791" lon="2.28069">
        <ele>630.1</ele>
        <time>2017-06-01T12:01:30.000Z</time>
      </trkpt>
      <trkpt lat="43.47912" lon="2.28071">
        <ele>629.8</ele>
        <time>2017-06-01T12:01:31.000Z</time>
      </trkpt>
      <trkpt lat="43.47917" lon="2.28071">
        <ele>629.5</ele>
        <time>2017-06-01T12:01:32.000Z</time>
      </trkpt>
      <trkpt lat="43.47924" lon="2.28071">
        <ele>627.9</ele>
        <time>2017-06-01T12:01:33.000Z</time>
      </trkpt>
      <trkpt lat="43.47929" lon="2.2807">
        <ele>627.3</ele>
        <time>2017-06-01T12:01:34.000Z</time>
      </trkpt>
      <trkpt lat="43.47938" lon="2.28065">
        <ele>624.9</ele>
        <time>2017-06-01T12:01:35.000Z</time>
      </trkpt>
      <trkpt lat="43.47943" lon="2.28061">
        <ele>623.2</ele>
        <time>2017-06-01T12:01:36.000Z</time>
      </trkpt>
      <trkpt lat="43.4795" lon="2.2806">
        <ele>621.5</ele>
        <time>2017-06-01T12:01:37.000Z</time>
      </trkpt>
      <trkpt lat="43.47956" lon="2.2806">
        <ele>619.4</ele>
        <time>2017-06-01T12:01:38.000Z</time>
      </trkpt>
      <trkpt lat="43.47962" lon="2.28056">
        <ele>617</ele>
        <time>2017-06-01T12:01:39.000Z</time>
      </trkpt>
      <trkpt lat="43.47966" lon="2.28054">
        <ele>615.8</ele>
        <time>2017-06-01T12:01:40.000Z</time>
      </trkpt>
      <trkpt lat="43.47972" lon="2.28051">
        <ele>613.3</ele>
        <time>2017-06-01T12:01:41.000Z</time>
      </trkpt>
      <trkpt lat="43.47978" lon="2.28049">
        <ele>611.1</ele>
        <time>2017-06-01T12:01:42.000Z</time>
      </trkpt>
      <trkpt lat="43.47976" lon="2.28049">
        <ele>610.6</ele>
        <time>2017-06-01T12:01:43.000Z</time>
      </trkpt>
      <trkpt lat="43.4798" lon="2.28041">
        <ele>609.4</ele>
        <time>2017-06-01T12:01:45.000Z</time>
      </trkpt>
      <trkpt lat="43.47982" lon="2.28037">
        <ele>608.9</ele>
        <time>2017-06-01T12:01:46.000Z</time>
      </trkpt>
      <trkpt lat="43.4798" lon="2.28041">
        <ele>608.2</ele>
        <time>2017-06-01T12:01:50.000Z</time>
      </trkpt>
      <trkpt lat="43.47977" lon="2.28039">
        <ele>607.8</ele>
        <time>2017-06-01T12:01:51.000Z</time>
      </trkpt>
      <trkpt lat="43.47971" lon="2.28036">
        <ele>607</ele>
        <time>2017-06-01T12:01:53.000Z</time>
      </trkpt>
      <trkpt lat="43.4797" lon="2.28032">
        <ele>606.7</ele>
        <time>2017-06-01T12:01:55.000Z</time>
      </trkpt>
      <trkpt lat="43.47968" lon="2.28027">
        <ele>606.4</ele>
        <time>2017-06-01T12:01:57.000Z</time>
      </trkpt>
      <trkpt lat="43.47969" lon="2.28033">
        <ele>606.1</ele>
        <time>2017-06-01T12:01:59.000Z</time>
      </trkpt>
      <trkpt lat="43.47971" lon="2.2803">
        <ele>605.9</ele>
        <time>2017-06-01T12:02:02.000Z</time>
      </trkpt>
      <trkpt lat="43.47974" lon="2.28027">
        <ele>605.5</ele>
        <time>2017-06-01T12:02:05.000Z</time>
      </trkpt>
      <trkpt lat="43.47976" lon="2.28023">
        <ele>605.3</ele>
        <time>2017-06-01T12:02:08.000Z</time>
      </trkpt>
      <trkpt lat="43.4798" lon="2.28018">
        <ele>605</ele>
        <time>2017-06-01T12:02:10.000Z</time>
      </trkpt>
      <trkpt lat="43.47982" lon="2.28014">
        <ele>604.8</ele>
        <time>2017-06-01T12:02:11.000Z</time>
      </trkpt>
      <trkpt lat="43.47985" lon="2.28009">
        <ele>604.6</ele>
        <time>2017-06-01T12:02:12.000Z</time>
      </trkpt>
      <trkpt lat="43.47987" lon="2.28005">
        <ele>604.4</ele>
        <time>2017-06-01T12:02:15.000Z</time>
      </trkpt>
      <trkpt lat="43.47991" lon="2.28002">
        <ele>604.2</ele>
        <time>2017-06-01T12:02:17.000Z</time>
      </trkpt>
      <trkpt lat="43.47991" lon="2.27998">
        <ele>604</ele>
        <time>2017-06-01T12:02:18.000Z</time>
      </trkpt>
      <trkpt lat="43.47991" lon="2.27993">
        <ele>603.8</ele>
        <time>2017-06-01T12:02:20.000Z</time>
      </trkpt>
      <trkpt lat="43.47991" lon="2.27988">
        <ele>603.7</ele>
        <time>2017-06-01T12:02:21.000Z</time>
      </trkpt>
      <trkpt lat="43.47993" lon="2.27984">
        <ele>603.5</ele>
        <time>2017-06-01T12:02:22.000Z</time>
      </trkpt>
      <trkpt lat="43.47995" lon="2.27976">
        <ele>603.1</ele>
        <time>2017-06-01T12:02:23.000Z</time>
      </trkpt>
      <trkpt lat="43.47994" lon="2.27969">
        <ele>602.8</ele>
        <time>2017-06-01T12:02:24.000Z</time>
      </trkpt>
      <trkpt lat="43.47994" lon="2.27964">
        <ele>602.7</ele>
        <time>2017-06-01T12:02:25.000Z</time>
      </trkpt>
      <trkpt lat="43.47995" lon="2.27959">
        <ele>602.5</ele>
        <time>2017-06-01T12:02:26.000Z</time>
      </trkpt>
      <trkpt lat="43.47994" lon="2.27955">
        <ele>602.4</ele>
        <time>2017-06-01T12:02:27.000Z</time>
      </trkpt>
      <trkpt lat="43.47995" lon="2.27951">
        <ele>602.3</ele>
        <time>2017-06-01T12:02:28.000Z</time>
      </trkpt>
      <trkpt lat="43.47995" lon="2.27946">
        <ele>602.2</ele>
        <time>2017-06-01T12:02:31.000Z</time>
      </trkpt>
      <trkpt lat="43.47996" lon="2.27942">
        <ele>602.1</ele>
        <time>2017-06-01T12:02:32.000Z</time>
      </trkpt>
      <trkpt lat="43.47999" lon="2.27937">
        <ele>601.9</ele>
        <time>2017-06-01T12:02:34.000Z</time>
      </trkpt>
      <trkpt lat="43.48007" lon="2.27936">
        <ele>601.7</ele>
        <time>2017-06-01T12:02:38.000Z</time>
      </trkpt>
      <trkpt lat="43.4801" lon="2.27939">
        <ele>601.5</ele>
        <time>2017-06-01T12:02:39.000Z</time>
      </trkpt>
      <trkpt lat="43.48012" lon="2.27943">
        <ele>601.4</ele>
        <time>2017-06-01T12:02:40.000Z</time>
      </trkpt>
      <trkpt lat="43.48017" lon="2.27943">
        <ele>601.1</ele>
        <time>2017-06-01T12:02:41.000Z</time>
      </trkpt>
      <trkpt lat="43.48024" lon="2.27942">
        <ele>600.7</ele>
        <time>2017-06-01T12:02:43.000Z</time>
      </trkpt>
      <trkpt lat="43.48026" lon="2.27945">
        <ele>600.4</ele>
        <time>2017-06-01T12:02:44.000Z</time>
      </trkpt>
      <trkpt lat="43.48028" lon="2.27948">
        <ele>600.2</ele>
        <time>2017-06-01T12:02:45.000Z</time>
      </trkpt>
      <trkpt lat="43.48031" lon="2.27949">
        <ele>599.9</ele>
        <time>2017-06-01T12:02:46.000Z</time>
      </trkpt>
      <trkpt lat="43.48034" lon="2.2795">
        <ele>599.6</ele>
        <time>2017-06-01T12:02:47.000Z</time>
      </trkpt>
      <trkpt lat="43.48044" lon="2.2795">
        <ele>599</ele>
        <time>2017-06-01T12:02:49.000Z</time>
      </trkpt>
      <trkpt lat="43.48048" lon="2.27949">
        <ele>598.8</ele>
        <time>2017-06-01T12:02:50.000Z</time>
      </trkpt>
      <trkpt lat="43.48053" lon="2.27946">
        <ele>598.4</ele>
        <time>2017-06-01T12:02:51.000Z</time>
      </trkpt>
      <trkpt lat="43.48059" lon="2.27942">
        <ele>597.9</ele>
        <time>2017-06-01T12:02:52.000Z</time>
      </trkpt>
      <trkpt lat="43.48064" lon="2.27941">
        <ele>597.7</ele>
        <time>2017-06-01T12:02:53.000Z</time>
      </trkpt>
      <trkpt lat="43.48068" lon="2.27936">
        <ele>597.4</ele>
        <time>2017-06-01T12:02:54.000Z</time>
      </trkpt>
      <trkpt lat="43.48073" lon="2.27932">
        <ele>597.1</ele>
        <time>2017-06-01T12:02:55.000Z</time>
      </trkpt>
      <trkpt lat="43.48077" lon="2.27933">
        <ele>596.9</ele>
        <time>2017-06-01T12:02:57.000Z</time>
      </trkpt>
      <trkpt lat="43.48081" lon="2.27936">
        <ele>596.8</ele>
        <time>2017-06-01T12:02:59.000Z</time>
      </trkpt>
      <trkpt lat="43.48085" lon="2.27938">
        <ele>596.6</ele>
        <time>2017-06-01T12:03:01.000Z</time>
      </trkpt>
      <trkpt lat="43.48087" lon="2.27941">
        <ele>596.5</ele>
        <time>2017-06-01T12:03:03.000Z</time>
      </trkpt>
      <trkpt lat="43.48091" lon="2.27943">
        <ele>596.4</ele>
        <time>2017-06-01T12:03:04.000Z</time>
      </trkpt>
      <trkpt lat="43.48095" lon="2.27942">
        <ele>596.2</ele>
        <time>2017-06-01T12:03:05.000Z</time>
      </trkpt>
      <trkpt lat="43.481" lon="2.27942">
        <ele>596</ele>
        <time>2017-06-01T12:03:06.000Z</time>
      </trkpt>
      <trkpt lat="43.48106" lon="2.27939">
        <ele>595.8</ele>
        <time>2017-06-01T12:03:07.000Z</time>
      </trkpt>
      <trkpt lat="43.48104" lon="2.27942">
        <ele>595.7</ele>
        <time>2017-06-01T12:03:08.000Z</time>
      </trkpt>
      <trkpt lat="43.48105" lon="2.27947">
        <ele>595.5</ele>
        <time>2017-06-01T12:03:09.000Z</time>
      </trkpt>
      <trkpt lat="43.48114" lon="2.27948">
        <ele>595.2</ele>
        <time>2017-06-01T12:03:12.000Z</time>
      </trkpt>
      <trkpt lat="43.48125" lon="2.27941">
        <ele>594.7</ele>
        <time>2017-06-01T12:03:13.000Z</time>
      </trkpt>
      <trkpt lat="43.48128" lon="2.27949">
        <ele>594.4</ele>
        <time>2017-06-01T12:03:14.000Z</time>
      </trkpt>
      <trkpt lat="43.48131" lon="2.2795">
        <ele>594.3</ele>
        <time>2017-06-01T12:03:15.000Z</time>
      </trkpt>
      <trkpt lat="43.48133" lon="2.27952">
        <ele>594.1</ele>
        <time>2017-06-01T12:03:16.000Z</time>
      </trkpt>
      <trkpt lat="43.48136" lon="2.27957">
        <ele>593.8</ele>
        <time>2017-06-01T12:03:17.000Z</time>
      </trkpt>
      <trkpt lat="43.48141" lon="2.27956">
        <ele>593.5</ele>
        <time>2017-06-01T12:03:18.000Z</time>
      </trkpt>
      <trkpt lat="43.48143" lon="2.2796">
        <ele>593.2</ele>
        <time>2017-06-01T12:03:19.000Z</time>
      </trkpt>
      <trkpt lat="43.48147" lon="2.27964">
        <ele>592.8</ele>
        <time>2017-06-01T12:03:21.000Z</time>
      </trkpt>
      <trkpt lat="43.4815" lon="2.27965">
        <ele>592.6</ele>
        <time>2017-06-01T12:03:22.000Z</time>
      </trkpt>
      <trkpt lat="43.48155" lon="2.27962">
        <ele>592.2</ele>
        <time>2017-06-01T12:03:24.000Z</time>
      </trkpt>
      <trkpt lat="43.48155" lon="2.27957">
        <ele>592</ele>
        <time>2017-06-01T12:03:26.000Z</time>
      </trkpt>
      <trkpt lat="43.48156" lon="2.27954">
        <ele>592.1</ele>
        <time>2017-06-01T12:03:28.000Z</time>
      </trkpt>
      <trkpt lat="43.48157" lon="2.27948">
        <ele>592.1</ele>
        <time>2017-06-01T12:03:30.000Z</time>
      </trkpt>
      <trkpt lat="43.48156" lon="2.27942">
        <ele>592.2</ele>
        <time>2017-06-01T12:03:32.000Z</time>
      </trkpt>
      <trkpt lat="43.48157" lon="2.27937">
        <ele>592.2</ele>
        <time>2017-06-01T12:03:34.000Z</time>
      </trkpt>
      <trkpt lat="43.48158" lon="2.27933">
        <ele>592.3</ele>
        <time>2017-06-01T12:03:35.000Z</time>
      </trkpt>
      <trkpt lat="43.48155" lon="2.27931">
        <ele>592.3</ele>
        <time>2017-06-01T12:03:36.000Z</time>
      </trkpt>
      <trkpt lat="43.48154" lon="2.27926">
        <ele>592.3</ele>
        <time>2017-06-01T12:03:37.000Z</time>
      </trkpt>
      <trkpt lat="43.48153" lon="2.2792">
        <ele>592.4</ele>
        <time>2017-06-01T12:03:40.000Z</time>
      </trkpt>
      <trkpt lat="43.48152" lon="2.27916">
        <ele>592.4</ele>
        <time>2017-06-01T12:03:42.000Z</time>
      </trkpt>
      <trkpt lat="43.48151" lon="2.27913">
        <ele>592.4</ele>
        <time>2017-06-01T12:03:43.000Z</time>
      </trkpt>
      <trkpt lat="43.48151" lon="2.27906">
        <ele>592.5</ele>
        <time>2017-06-01T12:03:46.000Z</time>
      </trkpt>
      <trkpt lat="43.4815" lon="2.27903">
        <ele>592.5</ele>
        <time>2017-06-01T12:03:47.000Z</time>
      </trkpt>
      <trkpt lat="43.48148" lon="2.27895">
        <ele>592.5</ele>
        <time>2017-06-01T12:03:49.000Z</time>
      </trkpt>
      <trkpt lat="43.48147" lon="2.2789">
        <ele>592.4</ele>
        <time>2017-06-01T12:03:51.000Z</time>
      </trkpt>
      <trkpt lat="43.48151" lon="2.27886">
        <ele>592.4</ele>
        <time>2017-06-01T12:03:53.000Z</time>
      </trkpt>
      <trkpt lat="43.48152" lon="2.27882">
        <ele>592.4</ele>
        <time>2017-06-01T12:03:54.000Z</time>
      </trkpt>
      <trkpt lat="43.48155" lon="2.27877">
        <ele>592.4</ele>
        <time>2017-06-01T12:03:55.000Z</time>
      </trkpt>
      <trkpt lat="43.48156" lon="2.27871">
        <ele>592.3</ele>
        <time>2017-06-01T12:03:56.000Z</time>
      </trkpt>
      <trkpt lat="43.48158" lon="2.27868">
        <ele>592.2</ele>
        <time>2017-06-01T12:03:57.000Z</time>
      </trkpt>
      <trkpt lat="43.48161" lon="2.27864">
        <ele>592.1</ele>
        <time>2017-06-01T12:03:58.000Z</time>
      </trkpt>
      <trkpt lat="43.48163" lon="2.27862">
        <ele>592</ele>
        <time>2017-06-01T12:03:59.000Z</time>
      </trkpt>
      <trkpt lat="43.48165" lon="2.27858">
        <ele>591.9</ele>
        <time>2017-06-01T12:04:00.000Z</time>
      </trkpt>
      <trkpt lat="43.48168" lon="2.27852">
        <ele>591.7</ele>
        <time>2017-06-01T12:04:02.000Z</time>
      </trkpt>
      <trkpt lat="43.4817" lon="2.27848">
        <ele>591.6</ele>
        <time>2017-06-01T12:04:03.000Z</time>
      </trkpt>
      <trkpt lat="43.48173" lon="2.27843">
        <ele>591.4</ele>
        <time>2017-06-01T12:04:04.000Z</time>
      </trkpt>
      <trkpt lat="43.48177" lon="2.27837">
        <ele>591.1</ele>
        <time>2017-06-01T12:04:05.000Z</time>
      </trkpt>
      <trkpt lat="43.48182" lon="2.27828">
        <ele>590.9</ele>
        <time>2017-06-01T12:04:06.000Z</time>
      </trkpt>
      <trkpt lat="43.48187" lon="2.27821">
        <ele>590.6</ele>
        <time>2017-06-01T12:04:07.000Z</time>
      </trkpt>
      <trkpt lat="43.4819" lon="2.27813">
        <ele>590.3</ele>
        <time>2017-06-01T12:04:08.000Z</time>
      </trkpt>
      <trkpt lat="43.48193" lon="2.27806">
        <ele>590.1</ele>
        <time>2017-06-01T12:04:09.000Z</time>
      </trkpt>
      <trkpt lat="43.482" lon="2.27801">
        <ele>589.8</ele>
        <time>2017-06-01T12:04:10.000Z</time>
      </trkpt>
      <trkpt lat="43.48204" lon="2.278">
        <ele>589.6</ele>
        <time>2017-06-01T12:04:12.000Z</time>
      </trkpt>
      <trkpt lat="43.48216" lon="2.27797">
        <ele>588.6</ele>
        <time>2017-06-01T12:04:13.000Z</time>
      </trkpt>
      <trkpt lat="43.48224" lon="2.27803">
        <ele>587.9</ele>
        <time>2017-06-01T12:04:14.000Z</time>
      </trkpt>
      <trkpt lat="43.4823" lon="2.27804">
        <ele>587.5</ele>
        <time>2017-06-01T12:04:15.000Z</time>
      </trkpt>
      <trkpt lat="43.48235" lon="2.27807">
        <ele>587.2</ele>
        <time>2017-06-01T12:04:16.000Z</time>
      </trkpt>
      <trkpt lat="43.4824" lon="2.27814">
        <ele>586.8</ele>
        <time>2017-06-01T12:04:17.000Z</time>
      </trkpt>
      <trkpt lat="43.48242" lon="2.27824">
        <ele>586.4</ele>
        <time>2017-06-01T12:04:18.000Z</time>
      </trkpt>
      <trkpt lat="43.48247" lon="2.27824">
        <ele>586.2</ele>
        <time>2017-06-01T12:04:19.000Z</time>
      </trkpt>
      <trkpt lat="43.48251" lon="2.2783">
        <ele>585.9</ele>
        <time>2017-06-01T12:04:20.000Z</time>
      </trkpt>
      <trkpt lat="43.48259" lon="2.27832">
        <ele>585.6</ele>
        <time>2017-06-01T12:04:22.000Z</time>
      </trkpt>
      <trkpt lat="43.48266" lon="2.27835">
        <ele>585.4</ele>
        <time>2017-06-01T12:04:23.000Z</time>
      </trkpt>
      <trkpt lat="43.4827" lon="2.2784">
        <ele>585.2</ele>
        <time>2017-06-01T12:04:24.000Z</time>
      </trkpt>
      <trkpt lat="43.48276" lon="2.27841">
        <ele>585.1</ele>
        <time>2017-06-01T12:04:25.000Z</time>
      </trkpt>
      <trkpt lat="43.48281" lon="2.27844">
        <ele>584.9</ele>
        <time>2017-06-01T12:04:26.000Z</time>
      </trkpt>
      <trkpt lat="43.48284" lon="2.27844">
        <ele>584.8</ele>
        <time>2017-06-01T12:04:27.000Z</time>
      </trkpt>
      <trkpt lat="43.4829" lon="2.2784">
        <ele>584.6</ele>
        <time>2017-06-01T12:04:28.000Z</time>
      </trkpt>
      <trkpt lat="43.48295" lon="2.27833">
        <ele>584.4</ele>
        <time>2017-06-01T12:04:29.000Z</time>
      </trkpt>
      <trkpt lat="43.48304" lon="2.27831">
        <ele>584.2</ele>
        <time>2017-06-01T12:04:30.000Z</time>
      </trkpt>
      <trkpt lat="43.4831" lon="2.27826">
        <ele>584</ele>
        <time>2017-06-01T12:04:31.000Z</time>
      </trkpt>
      <trkpt lat="43.48316" lon="2.27821">
        <ele>583.9</ele>
        <time>2017-06-01T12:04:32.000Z</time>
      </trkpt>
      <trkpt lat="43.48323" lon="2.27816">
        <ele>583.8</ele>
        <time>2017-06-01T12:04:33.000Z</time>
      </trkpt>
      <trkpt lat="43.48329" lon="2.27813">
        <ele>583.7</ele>
        <time>2017-06-01T12:04:34.000Z</time>
      </trkpt>
      <trkpt lat="43.48333" lon="2.27807">
        <ele>583.7</ele>
        <time>2017-06-01T12:04:35.000Z</time>
      </trkpt>
      <trkpt lat="43.48338" lon="2.278">
        <ele>583.6</ele>
        <time>2017-06-01T12:04:36.000Z</time>
      </trkpt>
      <trkpt lat="43.48345" lon="2.27802">
        <ele>583.6</ele>
        <time>2017-06-01T12:04:37.000Z</time>
      </trkpt>
      <trkpt lat="43.48345" lon="2.27796">
        <ele>583.5</ele>
        <time>2017-06-01T12:04:38.000Z</time>
      </trkpt>
      <trkpt lat="43.4835" lon="2.27791">
        <ele>583.5</ele>
        <time>2017-06-01T12:04:40.000Z</time>
      </trkpt>
      <trkpt lat="43.48352" lon="2.27786">
        <ele>583.4</ele>
        <time>2017-06-01T12:04:41.000Z</time>
      </trkpt>
      <trkpt lat="43.48354" lon="2.27781">
        <ele>583.4</ele>
        <time>2017-06-01T12:04:42.000Z</time>
      </trkpt>
      <trkpt lat="43.48358" lon="2.27775">
        <ele>583.3</ele>
        <time>2017-06-01T12:04:44.000Z</time>
      </trkpt>
      <trkpt lat="43.48362" lon="2.27772">
        <ele>583.2</ele>
        <time>2017-06-01T12:04:45.000Z</time>
      </trkpt>
      <trkpt lat="43.48363" lon="2.27767">
        <ele>583.1</ele>
        <time>2017-06-01T12:04:46.000Z</time>
      </trkpt>
      <trkpt lat="43.48369" lon="2.27762">
        <ele>583</ele>
        <time>2017-06-01T12:04:48.000Z</time>
      </trkpt>
      <trkpt lat="43.48373" lon="2.2776">
        <ele>583</ele>
        <time>2017-06-01T12:04:49.000Z</time>
      </trkpt>
      <trkpt lat="43.48377" lon="2.27763">
        <ele>582.8</ele>
        <time>2017-06-01T12:04:50.000Z</time>
      </trkpt>
      <trkpt lat="43.48382" lon="2.27761">
        <ele>582.7</ele>
        <time>2017-06-01T12:04:51.000Z</time>
      </trkpt>
      <trkpt lat="43.48385" lon="2.27761">
        <ele>582.6</ele>
        <time>2017-06-01T12:04:52.000Z</time>
      </trkpt>
      <trkpt lat="43.48389" lon="2.27761">
        <ele>582.3</ele>
        <time>2017-06-01T12:04:53.000Z</time>
      </trkpt>
      <trkpt lat="43.48394" lon="2.27761">
        <ele>582</ele>
        <time>2017-06-01T12:04:54.000Z</time>
      </trkpt>
      <trkpt lat="43.48398" lon="2.27766">
        <ele>581.7</ele>
        <time>2017-06-01T12:04:55.000Z</time>
      </trkpt>
      <trkpt lat="43.48402" lon="2.27766">
        <ele>581.4</ele>
        <time>2017-06-01T12:04:56.000Z</time>
      </trkpt>
      <trkpt lat="43.4841" lon="2.27768">
        <ele>580.9</ele>
        <time>2017-06-01T12:05:00.000Z</time>
      </trkpt>
      <trkpt lat="43.48414" lon="2.27772">
        <ele>580.7</ele>
        <time>2017-06-01T12:05:02.000Z</time>
      </trkpt>
      <trkpt lat="43.48416" lon="2.27775">
        <ele>580.6</ele>
        <time>2017-06-01T12:05:03.000Z</time>
      </trkpt>
      <trkpt lat="43.48416" lon="2.27781">
        <ele>580.4</ele>
        <time>2017-06-01T12:05:04.000Z</time>
      </trkpt>
      <trkpt lat="43.48417" lon="2.2779">
        <ele>580.2</ele>
        <time>2017-06-01T12:05:05.000Z</time>
      </trkpt>
      <trkpt lat="43.48416" lon="2.27798">
        <ele>580</ele>
        <time>2017-06-01T12:05:06.000Z</time>
      </trkpt>
      <trkpt lat="43.48419" lon="2.27805">
        <ele>579.9</ele>
        <time>2017-06-01T12:05:07.000Z</time>
      </trkpt>
      <trkpt lat="43.48421" lon="2.27809">
        <ele>579.9</ele>
        <time>2017-06-01T12:05:08.000Z</time>
      </trkpt>
      <trkpt lat="43.48424" lon="2.27813">
        <ele>580.1</ele>
        <time>2017-06-01T12:05:09.000Z</time>
      </trkpt>
      <trkpt lat="43.48426" lon="2.27816">
        <ele>580.2</ele>
        <time>2017-06-01T12:05:10.000Z</time>
      </trkpt>
      <trkpt lat="43.48427" lon="2.27821">
        <ele>580.3</ele>
        <time>2017-06-01T12:05:11.000Z</time>
      </trkpt>
      <trkpt lat="43.48428" lon="2.27825">
        <ele>580.4</ele>
        <time>2017-06-01T12:05:12.000Z</time>
      </trkpt>
      <trkpt lat="43.48428" lon="2.2783">
        <ele>580.5</ele>
        <time>2017-06-01T12:05:13.000Z</time>
      </trkpt>
      <trkpt lat="43.48429" lon="2.27833">
        <ele>580.6</ele>
        <time>2017-06-01T12:05:14.000Z</time>
      </trkpt>
      <trkpt lat="43.48431" lon="2.27837">
        <ele>580.8</ele>
        <time>2017-06-01T12:05:15.000Z</time>
      </trkpt>
      <trkpt lat="43.48433" lon="2.2784">
        <ele>581</ele>
        <time>2017-06-01T12:05:16.000Z</time>
      </trkpt>
      <trkpt lat="43.48435" lon="2.27844">
        <ele>581.1</ele>
        <time>2017-06-01T12:05:17.000Z</time>
      </trkpt>
      <trkpt lat="43.48436" lon="2.2785">
        <ele>581.4</ele>
        <time>2017-06-01T12:05:19.000Z</time>
      </trkpt>
      <trkpt lat="43.48441" lon="2.27855">
        <ele>581.7</ele>
        <time>2017-06-01T12:05:21.000Z</time>
      </trkpt>
      <trkpt lat="43.48445" lon="2.2786">
        <ele>582.1</ele>
        <time>2017-06-01T12:05:23.000Z</time>
      </trkpt>
      <trkpt lat="43.48449" lon="2.27862">
        <ele>582.4</ele>
        <time>2017-06-01T12:05:25.000Z</time>
      </trkpt>
      <trkpt lat="43.48452" lon="2.27864">
        <ele>582.6</ele>
        <time>2017-06-01T12:05:26.000Z</time>
      </trkpt>
      <trkpt lat="43.48455" lon="2.27863">
        <ele>582.7</ele>
        <time>2017-06-01T12:05:27.000Z</time>
      </trkpt>
      <trkpt lat="43.48458" lon="2.27861">
        <ele>582.8</ele>
        <time>2017-06-01T12:05:29.000Z</time>
      </trkpt>
      <trkpt lat="43.48462" lon="2.27859">
        <ele>583</ele>
        <time>2017-06-01T12:05:31.000Z</time>
      </trkpt>
      <trkpt lat="43.48468" lon="2.27858">
        <ele>583.3</ele>
        <time>2017-06-01T12:05:33.000Z</time>
      </trkpt>
      <trkpt lat="43.48471" lon="2.27857">
        <ele>583.4</ele>
        <time>2017-06-01T12:05:34.000Z</time>
      </trkpt>
      <trkpt lat="43.48474" lon="2.27854">
        <ele>583.5</ele>
        <time>2017-06-01T12:05:35.000Z</time>
      </trkpt>
      <trkpt lat="43.48479" lon="2.27854">
        <ele>583.7</ele>
        <time>2017-06-01T12:05:36.000Z</time>
      </trkpt>
      <trkpt lat="43.48482" lon="2.27851">
        <ele>583.8</ele>
        <time>2017-06-01T12:05:37.000Z</time>
      </trkpt>
      <trkpt lat="43.48488" lon="2.27843">
        <ele>584</ele>
        <time>2017-06-01T12:05:38.000Z</time>
      </trkpt>
      <trkpt lat="43.48492" lon="2.27843">
        <ele>584.2</ele>
        <time>2017-06-01T12:05:39.000Z</time>
      </trkpt>
      <trkpt lat="43.48495" lon="2.27844">
        <ele>584.2</ele>
        <time>2017-06-01T12:05:40.000Z</time>
      </trkpt>
      <trkpt lat="43.48499" lon="2.27841">
        <ele>584.4</ele>
        <time>2017-06-01T12:05:42.000Z</time>
      </trkpt>
      <trkpt lat="43.48503" lon="2.27834">
        <ele>584.6</ele>
        <time>2017-06-01T12:05:44.000Z</time>
      </trkpt>
      <trkpt lat="43.48505" lon="2.2783">
        <ele>584.6</ele>
        <time>2017-06-01T12:05:49.000Z</time>
      </trkpt>
      <trkpt lat="43.48506" lon="2.27826">
        <ele>584.7</ele>
        <time>2017-06-01T12:05:50.000Z</time>
      </trkpt>
      <trkpt lat="43.48507" lon="2.2782">
        <ele>584.7</ele>
        <time>2017-06-01T12:05:52.000Z</time>
      </trkpt>
      <trkpt lat="43.48505" lon="2.27824">
        <ele>584.7</ele>
        <time>2017-06-01T12:05:53.000Z</time>
      </trkpt>
      <trkpt lat="43.48506" lon="2.27827">
        <ele>584.8</ele>
        <time>2017-06-01T12:06:07.000Z</time>
      </trkpt>
      <trkpt lat="43.48511" lon="2.27822">
        <ele>584.7</ele>
        <time>2017-06-01T12:06:28.000Z</time>
      </trkpt>
      <trkpt lat="43.48516" lon="2.2782">
        <ele>584.7</ele>
        <time>2017-06-01T12:06:30.000Z</time>
      </trkpt>
      <trkpt lat="43.48521" lon="2.2782">
        <ele>584.6</ele>
        <time>2017-06-01T12:06:32.000Z</time>
      </trkpt>
      <trkpt lat="43.48524" lon="2.27819">
        <ele>584.5</ele>
        <time>2017-06-01T12:06:34.000Z</time>
      </trkpt>
      <trkpt lat="43.48527" lon="2.27817">
        <ele>584.4</ele>
        <time>2017-06-01T12:06:35.000Z</time>
      </trkpt>
      <trkpt lat="43.48531" lon="2.27818">
        <ele>584.4</ele>
        <time>2017-06-01T12:06:36.000Z</time>
      </trkpt>
      <trkpt lat="43.48536" lon="2.27818">
        <ele>584.3</ele>
        <time>2017-06-01T12:06:37.000Z</time>
      </trkpt>
      <trkpt lat="43.48539" lon="2.27818">
        <ele>584.3</ele>
        <time>2017-06-01T12:06:38.000Z</time>
      </trkpt>
      <trkpt lat="43.48546" lon="2.27817">
        <ele>584.2</ele>
        <time>2017-06-01T12:06:39.000Z</time>
      </trkpt>
      <trkpt lat="43.4855" lon="2.27819">
        <ele>584.2</ele>
        <time>2017-06-01T12:06:40.000Z</time>
      </trkpt>
      <trkpt lat="43.48554" lon="2.27818">
        <ele>584.1</ele>
        <time>2017-06-01T12:06:41.000Z</time>
      </trkpt>
      <trkpt lat="43.48559" lon="2.27819">
        <ele>584</ele>
        <time>2017-06-01T12:06:42.000Z</time>
      </trkpt>
      <trkpt lat="43.48565" lon="2.27818">
        <ele>584</ele>
        <time>2017-06-01T12:06:43.000Z</time>
      </trkpt>
      <trkpt lat="43.48569" lon="2.27819">
        <ele>583.9</ele>
        <time>2017-06-01T12:06:44.000Z</time>
      </trkpt>
      <trkpt lat="43.48573" lon="2.27817">
        <ele>583.9</ele>
        <time>2017-06-01T12:06:45.000Z</time>
      </trkpt>
      <trkpt lat="43.48576" lon="2.27819">
        <ele>583.9</ele>
        <time>2017-06-01T12:06:46.000Z</time>
      </trkpt>
      <trkpt lat="43.48581" lon="2.27817">
        <ele>583.9</ele>
        <time>2017-06-01T12:06:47.000Z</time>
      </trkpt>
      <trkpt lat="43.48586" lon="2.27815">
        <ele>583.9</ele>
        <time>2017-06-01T12:06:48.000Z</time>
      </trkpt>
      <trkpt lat="43.48589" lon="2.27817">
        <ele>583.9</ele>
        <time>2017-06-01T12:06:49.000Z</time>
      </trkpt>
      <trkpt lat="43.48593" lon="2.27816">
        <ele>584</ele>
        <time>2017-06-01T12:06:50.000Z</time>
      </trkpt>
      <trkpt lat="43.48596" lon="2.27817">
        <ele>584</ele>
        <time>2017-06-01T12:06:51.000Z</time>
      </trkpt>
      <trkpt lat="43.48599" lon="2.27819">
        <ele>584</ele>
        <time>2017-06-01T12:06:52.000Z</time>
      </trkpt>
      <trkpt lat="43.48603" lon="2.27816">
        <ele>584</ele>
        <time>2017-06-01T12:06:53.000Z</time>
      </trkpt>
      <trkpt lat="43.48606" lon="2.27819">
        <ele>584.1</ele>
        <time>2017-06-01T12:06:55.000Z</time>
      </trkpt>
      <trkpt lat="43.48609" lon="2.27817">
        <ele>584.2</ele>
        <time>2017-06-01T12:06:56.000Z</time>
      </trkpt>
      <trkpt lat="43.48612" lon="2.27815">
        <ele>584.3</ele>
        <time>2017-06-01T12:06:57.000Z</time>
      </trkpt>
      <trkpt lat="43.48615" lon="2.27813">
        <ele>584.4</ele>
        <time>2017-06-01T12:06:59.000Z</time>
      </trkpt>
      <trkpt lat="43.48619" lon="2.27812">
        <ele>584.5</ele>
        <time>2017-06-01T12:07:01.000Z</time>
      </trkpt>
      <trkpt lat="43.48621" lon="2.27809">
        <ele>584.6</ele>
        <time>2017-06-01T12:07:02.000Z</time>
      </trkpt>
      <trkpt lat="43.48624" lon="2.27805">
        <ele>584.7</ele>
        <time>2017-06-01T12:07:03.000Z</time>
      </trkpt>
      <trkpt lat="43.48631" lon="2.27804">
        <ele>584.9</ele>
        <time>2017-06-01T12:07:04.000Z</time>
      </trkpt>
      <trkpt lat="43.48635" lon="2.27801">
        <ele>585</ele>
        <time>2017-06-01T12:07:05.000Z</time>
      </trkpt>
      <trkpt lat="43.48637" lon="2.27797">
        <ele>585.1</ele>
        <time>2017-06-01T12:07:06.000Z</time>
      </trkpt>
      <trkpt lat="43.48642" lon="2.27796">
        <ele>585.3</ele>
        <time>2017-06-01T12:07:07.000Z</time>
      </trkpt>
      <trkpt lat="43.48644" lon="2.2779">
        <ele>585.4</ele>
        <time>2017-06-01T12:07:08.000Z</time>
      </trkpt>
      <trkpt lat="43.48648" lon="2.27785">
        <ele>585.6</ele>
        <time>2017-06-01T12:07:10.000Z</time>
      </trkpt>
      <trkpt lat="43.4865" lon="2.27783">
        <ele>585.7</ele>
        <time>2017-06-01T12:07:11.000Z</time>
      </trkpt>
      <trkpt lat="43.48654" lon="2.27782">
        <ele>585.8</ele>
        <time>2017-06-01T12:07:12.000Z</time>
      </trkpt>
      <trkpt lat="43.48657" lon="2.27779">
        <ele>585.9</ele>
        <time>2017-06-01T12:07:13.000Z</time>
      </trkpt>
      <trkpt lat="43.4866" lon="2.27776">
        <ele>586.1</ele>
        <time>2017-06-01T12:07:14.000Z</time>
      </trkpt>
      <trkpt lat="43.48664" lon="2.27773">
        <ele>586.2</ele>
        <time>2017-06-01T12:07:16.000Z</time>
      </trkpt>
      <trkpt lat="43.48667" lon="2.27771">
        <ele>586.4</ele>
        <time>2017-06-01T12:07:17.000Z</time>
      </trkpt>
      <trkpt lat="43.48669" lon="2.27767">
        <ele>586.5</ele>
        <time>2017-06-01T12:07:18.000Z</time>
      </trkpt>
      <trkpt lat="43.48673" lon="2.27761">
        <ele>586.7</ele>
        <time>2017-06-01T12:07:20.000Z</time>
      </trkpt>
      <trkpt lat="43.48677" lon="2.27759">
        <ele>586.9</ele>
        <time>2017-06-01T12:07:21.000Z</time>
      </trkpt>
      <trkpt lat="43.4868" lon="2.27758">
        <ele>587</ele>
        <time>2017-06-01T12:07:22.000Z</time>
      </trkpt>
      <trkpt lat="43.48681" lon="2.27761">
        <ele>587.1</ele>
        <time>2017-06-01T12:07:23.000Z</time>
      </trkpt>
      <trkpt lat="43.48689" lon="2.27758">
        <ele>587.4</ele>
        <time>2017-06-01T12:07:24.000Z</time>
      </trkpt>
      <trkpt lat="43.48694" lon="2.27754">
        <ele>587.7</ele>
        <time>2017-06-01T12:07:26.000Z</time>
      </trkpt>
      <trkpt lat="43.48696" lon="2.27752">
        <ele>587.8</ele>
        <time>2017-06-01T12:07:27.000Z</time>
      </trkpt>
      <trkpt lat="43.487" lon="2.27749">
        <ele>588</ele>
        <time>2017-06-01T12:07:29.000Z</time>
      </trkpt>
      <trkpt lat="43.48708" lon="2.27748">
        <ele>588.2</ele>
        <time>2017-06-01T12:07:33.000Z</time>
      </trkpt>
      <trkpt lat="43.48712" lon="2.27746">
        <ele>588.3</ele>
        <time>2017-06-01T12:07:34.000Z</time>
      </trkpt>
      <trkpt lat="43.48718" lon="2.27745">
        <ele>588.4</ele>
        <time>2017-06-01T12:07:35.000Z</time>
      </trkpt>
      <trkpt lat="43.48722" lon="2.27745">
        <ele>588.5</ele>
        <time>2017-06-01T12:07:36.000Z</time>
      </trkpt>
      <trkpt lat="43.48725" lon="2.27745">
        <ele>588.5</ele>
        <time>2017-06-01T12:07:37.000Z</time>
      </trkpt>
      <trkpt lat="43.48729" lon="2.2775">
        <ele>588.6</ele>
        <time>2017-06-01T12:07:39.000Z</time>
      </trkpt>
      <trkpt lat="43.48731" lon="2.27752">
        <ele>588.7</ele>
        <time>2017-06-01T12:07:40.000Z</time>
      </trkpt>
      <trkpt lat="43.48737" lon="2.27754">
        <ele>588.8</ele>
        <time>2017-06-01T12:07:42.000Z</time>
      </trkpt>
      <trkpt lat="43.48741" lon="2.27756">
        <ele>588.9</ele>
        <time>2017-06-01T12:07:44.000Z</time>
      </trkpt>
      <trkpt lat="43.48746" lon="2.27754">
        <ele>588.9</ele>
        <time>2017-06-01T12:07:45.000Z</time>
      </trkpt>
      <trkpt lat="43.4875" lon="2.27752">
        <ele>588.9</ele>
        <time>2017-06-01T12:07:46.000Z</time>
      </trkpt>
      <trkpt lat="43.48757" lon="2.27748">
        <ele>588.9</ele>
        <time>2017-06-01T12:07:47.000Z</time>
      </trkpt>
      <trkpt lat="43.48759" lon="2.2775">
        <ele>588.9</ele>
        <time>2017-06-01T12:07:48.000Z</time>
      </trkpt>
      <trkpt lat="43.48763" lon="2.2775">
        <ele>588.8</ele>
        <time>2017-06-01T12:07:49.000Z</time>
      </trkpt>
      <trkpt lat="43.48766" lon="2.2775">
        <ele>588.8</ele>
        <time>2017-06-01T12:07:50.000Z</time>
      </trkpt>
      <trkpt lat="43.48772" lon="2.27747">
        <ele>588.7</ele>
        <time>2017-06-01T12:07:51.000Z</time>
      </trkpt>
      <trkpt lat="43.48778" lon="2.27746">
        <ele>588.6</ele>
        <time>2017-06-01T12:07:52.000Z</time>
      </trkpt>
      <trkpt lat="43.48782" lon="2.27744">
        <ele>588.5</ele>
        <time>2017-06-01T12:07:53.000Z</time>
      </trkpt>
      <trkpt lat="43.48786" lon="2.27743">
        <ele>588.5</ele>
        <time>2017-06-01T12:07:54.000Z</time>
      </trkpt>
      <trkpt lat="43.4879" lon="2.27742">
        <ele>588.4</ele>
        <time>2017-06-01T12:07:55.000Z</time>
      </trkpt>
      <trkpt lat="43.48793" lon="2.27743">
        <ele>588.3</ele>
        <time>2017-06-01T12:07:56.000Z</time>
      </trkpt>
      <trkpt lat="43.48797" lon="2.27744">
        <ele>588.2</ele>
        <time>2017-06-01T12:07:58.000Z</time>
      </trkpt>
      <trkpt lat="43.48801" lon="2.27743">
        <ele>588.1</ele>
        <time>2017-06-01T12:07:59.000Z</time>
      </trkpt>
      <trkpt lat="43.48804" lon="2.27743">
        <ele>588.1</ele>
        <time>2017-06-01T12:08:00.000Z</time>
      </trkpt>
      <trkpt lat="43.48807" lon="2.27744">
        <ele>588</ele>
        <time>2017-06-01T12:08:01.000Z</time>
      </trkpt>
      <trkpt lat="43.4881" lon="2.27744">
        <ele>587.9</ele>
        <time>2017-06-01T12:08:02.000Z</time>
      </trkpt>
      <trkpt lat="43.48817" lon="2.27741">
        <ele>587.8</ele>
        <time>2017-06-01T12:08:03.000Z</time>
      </trkpt>
      <trkpt lat="43.48821" lon="2.2774">
        <ele>587.7</ele>
        <time>2017-06-01T12:08:04.000Z</time>
      </trkpt>
      <trkpt lat="43.48825" lon="2.27738">
        <ele>587.7</ele>
        <time>2017-06-01T12:08:05.000Z</time>
      </trkpt>
      <trkpt lat="43.48829" lon="2.2774">
        <ele>587.6</ele>
        <time>2017-06-01T12:08:06.000Z</time>
      </trkpt>
      <trkpt lat="43.48834" lon="2.27739">
        <ele>587.4</ele>
        <time>2017-06-01T12:08:07.000Z</time>
      </trkpt>
      <trkpt lat="43.4884" lon="2.27737">
        <ele>587.3</ele>
        <time>2017-06-01T12:08:08.000Z</time>
      </trkpt>
      <trkpt lat="43.48844" lon="2.27735">
        <ele>587.2</ele>
        <time>2017-06-01T12:08:09.000Z</time>
      </trkpt>
      <trkpt lat="43.48851" lon="2.27731">
        <ele>587</ele>
        <time>2017-06-01T12:08:10.000Z</time>
      </trkpt>
      <trkpt lat="43.48856" lon="2.27728">
        <ele>586.9</ele>
        <time>2017-06-01T12:08:11.000Z</time>
      </trkpt>
      <trkpt lat="43.48863" lon="2.27724">
        <ele>586.8</ele>
        <time>2017-06-01T12:08:12.000Z</time>
      </trkpt>
      <trkpt lat="43.48866" lon="2.2772">
        <ele>586.7</ele>
        <time>2017-06-01T12:08:13.000Z</time>
      </trkpt>
      <trkpt lat="43.48875" lon="2.27714">
        <ele>586.5</ele>
        <time>2017-06-01T12:08:14.000Z</time>
      </trkpt>
      <trkpt lat="43.48877" lon="2.2771">
        <ele>586.4</ele>
        <time>2017-06-01T12:08:15.000Z</time>
      </trkpt>
      <trkpt lat="43.48882" lon="2.2771">
        <ele>586.3</ele>
        <time>2017-06-01T12:08:16.000Z</time>
      </trkpt>
      <trkpt lat="43.48887" lon="2.27706">
        <ele>586.2</ele>
        <time>2017-06-01T12:08:18.000Z</time>
      </trkpt>
      <trkpt lat="43.48893" lon="2.27702">
        <ele>586.2</ele>
        <time>2017-06-01T12:08:19.000Z</time>
      </trkpt>
      <trkpt lat="43.48904" lon="2.27693">
        <ele>586.1</ele>
        <time>2017-06-01T12:08:20.000Z</time>
      </trkpt>
      <trkpt lat="43.48908" lon="2.27692">
        <ele>586.1</ele>
        <time>2017-06-01T12:08:21.000Z</time>
      </trkpt>
      <trkpt lat="43.48913" lon="2.27695">
        <ele>586.1</ele>
        <time>2017-06-01T12:08:23.000Z</time>
      </trkpt>
      <trkpt lat="43.48916" lon="2.27697">
        <ele>586.1</ele>
        <time>2017-06-01T12:08:25.000Z</time>
      </trkpt>
      <trkpt lat="43.48919" lon="2.27697">
        <ele>586.1</ele>
        <time>2017-06-01T12:08:26.000Z</time>
      </trkpt>
      <trkpt lat="43.4892" lon="2.27693">
        <ele>586</ele>
        <time>2017-06-01T12:08:29.000Z</time>
      </trkpt>
      <trkpt lat="43.48915" lon="2.27691">
        <ele>588.6</ele>
        <time>2017-06-01T12:08:30.000Z</time>
      </trkpt>
      <trkpt lat="43.48912" lon="2.27691">
        <ele>588.8</ele>
        <time>2017-06-01T12:08:31.000Z</time>
      </trkpt>
      <trkpt lat="43.48911" lon="2.27686">
        <ele>589.2</ele>
        <time>2017-06-01T12:08:33.000Z</time>
      </trkpt>
      <trkpt lat="43.48908" lon="2.27686">
        <ele>589.6</ele>
        <time>2017-06-01T12:08:35.000Z</time>
      </trkpt>
      <trkpt lat="43.48905" lon="2.27687">
        <ele>589.8</ele>
        <time>2017-06-01T12:08:36.000Z</time>
      </trkpt>
      <trkpt lat="43.48905" lon="2.27682">
        <ele>590.1</ele>
        <time>2017-06-01T12:08:37.000Z</time>
      </trkpt>
      <trkpt lat="43.48902" lon="2.2768">
        <ele>590.4</ele>
        <time>2017-06-01T12:08:38.000Z</time>
      </trkpt>
      <trkpt lat="43.489" lon="2.27677">
        <ele>590.7</ele>
        <time>2017-06-01T12:08:39.000Z</time>
      </trkpt>
      <trkpt lat="43.48902" lon="2.27673">
        <ele>591</ele>
        <time>2017-06-01T12:08:40.000Z</time>
      </trkpt>
      <trkpt lat="43.48897" lon="2.27672">
        <ele>591.5</ele>
        <time>2017-06-01T12:08:42.000Z</time>
      </trkpt>
      <trkpt lat="43.48894" lon="2.27671">
        <ele>591.7</ele>
        <time>2017-06-01T12:08:43.000Z</time>
      </trkpt>
      <trkpt lat="43.48891" lon="2.27674">
        <ele>592.2</ele>
        <time>2017-06-01T12:08:45.000Z</time>
      </trkpt>
      <trkpt lat="43.48889" lon="2.27677">
        <ele>592.5</ele>
        <time>2017-06-01T12:08:46.000Z</time>
      </trkpt>
      <trkpt lat="43.48884" lon="2.27679">
        <ele>593</ele>
        <time>2017-06-01T12:08:49.000Z</time>
      </trkpt>
      <trkpt lat="43.48881" lon="2.2768">
        <ele>593.3</ele>
        <time>2017-06-01T12:08:50.000Z</time>
      </trkpt>
      <trkpt lat="43.48878" lon="2.27684">
        <ele>593.7</ele>
        <time>2017-06-01T12:08:51.000Z</time>
      </trkpt>
      <trkpt lat="43.48875" lon="2.27688">
        <ele>594.1</ele>
        <time>2017-06-01T12:08:54.000Z</time>
      </trkpt>
      <trkpt lat="43.4887" lon="2.27691">
        <ele>594.6</ele>
        <time>2017-06-01T12:08:55.000Z</time>
      </trkpt>
      <trkpt lat="43.48863" lon="2.27701">
        <ele>595.5</ele>
        <time>2017-06-01T12:08:56.000Z</time>
      </trkpt>
      <trkpt lat="43.48858" lon="2.27704">
        <ele>596.1</ele>
        <time>2017-06-01T12:08:59.000Z</time>
      </trkpt>
      <trkpt lat="43.48855" lon="2.27701">
        <ele>596.4</ele>
        <time>2017-06-01T12:09:02.000Z</time>
      </trkpt>
      <trkpt lat="43.48851" lon="2.27698">
        <ele>596.8</ele>
        <time>2017-06-01T12:09:04.000Z</time>
      </trkpt>
      <trkpt lat="43.48847" lon="2.27699">
        <ele>597.1</ele>
        <time>2017-06-01T12:09:05.000Z</time>
      </trkpt>
      <trkpt lat="43.48842" lon="2.27699">
        <ele>597.5</ele>
        <time>2017-06-01T12:09:07.000Z</time>
      </trkpt>
      <trkpt lat="43.48839" lon="2.277">
        <ele>597.8</ele>
        <time>2017-06-01T12:09:08.000Z</time>
      </trkpt>
      <trkpt lat="43.48835" lon="2.277">
        <ele>598.1</ele>
        <time>2017-06-01T12:09:09.000Z</time>
      </trkpt>
      <trkpt lat="43.48831" lon="2.27701">
        <ele>598.4</ele>
        <time>2017-06-01T12:09:11.000Z</time>
      </trkpt>
      <trkpt lat="43.48829" lon="2.27701">
        <ele>598.6</ele>
        <time>2017-06-01T12:09:12.000Z</time>
      </trkpt>
      <trkpt lat="43.48825" lon="2.27702">
        <ele>598.9</ele>
        <time>2017-06-01T12:09:14.000Z</time>
      </trkpt>
      <trkpt lat="43.48819" lon="2.27706">
        <ele>599.4</ele>
        <time>2017-06-01T12:09:15.000Z</time>
      </trkpt>
      <trkpt lat="43.48814" lon="2.27707">
        <ele>599.9</ele>
        <time>2017-06-01T12:09:16.000Z</time>
      </trkpt>
      <trkpt lat="43.48809" lon="2.27707">
        <ele>600.1</ele>
        <time>2017-06-01T12:09:18.000Z</time>
      </trkpt>
      <trkpt lat="43.48805" lon="2.27706">
        <ele>600.2</ele>
        <time>2017-06-01T12:09:20.000Z</time>
      </trkpt>
      <trkpt lat="43.488" lon="2.27706">
        <ele>600.3</ele>
        <time>2017-06-01T12:09:21.000Z</time>
      </trkpt>
      <trkpt lat="43.48797" lon="2.27705">
        <ele>600.4</ele>
        <time>2017-06-01T12:09:22.000Z</time>
      </trkpt>
      <trkpt lat="43.48794" lon="2.27705">
        <ele>600.5</ele>
        <time>2017-06-01T12:09:24.000Z</time>
      </trkpt>
      <trkpt lat="43.4879" lon="2.27705">
        <ele>600.6</ele>
        <time>2017-06-01T12:09:26.000Z</time>
      </trkpt>
      <trkpt lat="43.48787" lon="2.27704">
        <ele>600.7</ele>
        <time>2017-06-01T12:09:27.000Z</time>
      </trkpt>
      <trkpt lat="43.48781" lon="2.27704">
        <ele>600.8</ele>
        <time>2017-06-01T12:09:30.000Z</time>
      </trkpt>
      <trkpt lat="43.48777" lon="2.27706">
        <ele>601</ele>
        <time>2017-06-01T12:09:31.000Z</time>
      </trkpt>
      <trkpt lat="43.48774" lon="2.27704">
        <ele>601.1</ele>
        <time>2017-06-01T12:09:32.000Z</time>
      </trkpt>
      <trkpt lat="43.48771" lon="2.27705">
        <ele>601.2</ele>
        <time>2017-06-01T12:09:33.000Z</time>
      </trkpt>
      <trkpt lat="43.48768" lon="2.27701">
        <ele>601.3</ele>
        <time>2017-06-01T12:09:35.000Z</time>
      </trkpt>
      <trkpt lat="43.48763" lon="2.277">
        <ele>601.5</ele>
        <time>2017-06-01T12:09:37.000Z</time>
      </trkpt>
      <trkpt lat="43.48758" lon="2.27699">
        <ele>601.7</ele>
        <time>2017-06-01T12:09:38.000Z</time>
      </trkpt>
      <trkpt lat="43.48755" lon="2.27697">
        <ele>601.8</ele>
        <time>2017-06-01T12:09:39.000Z</time>
      </trkpt>
      <trkpt lat="43.48753" lon="2.27695">
        <ele>602</ele>
        <time>2017-06-01T12:09:40.000Z</time>
      </trkpt>
      <trkpt lat="43.4875" lon="2.27693">
        <ele>602.1</ele>
        <time>2017-06-01T12:09:41.000Z</time>
      </trkpt>
      <trkpt lat="43.48748" lon="2.27688">
        <ele>602.3</ele>
        <time>2017-06-01T12:09:43.000Z</time>
      </trkpt>
      <trkpt lat="43.48744" lon="2.27687">
        <ele>602.4</ele>
        <time>2017-06-01T12:09:44.000Z</time>
      </trkpt>
      <trkpt lat="43.48741" lon="2.27687">
        <ele>602.5</ele>
        <time>2017-06-01T12:09:46.000Z</time>
      </trkpt>
      <trkpt lat="43.48737" lon="2.27685">
        <ele>602.7</ele>
        <time>2017-06-01T12:09:48.000Z</time>
      </trkpt>
      <trkpt lat="43.48734" lon="2.27685">
        <ele>602.8</ele>
        <time>2017-06-01T12:09:49.000Z</time>
      </trkpt>
      <trkpt lat="43.4873" lon="2.27685">
        <ele>603</ele>
        <time>2017-06-01T12:09:51.000Z</time>
      </trkpt>
      <trkpt lat="43.48727" lon="2.27682">
        <ele>603.2</ele>
        <time>2017-06-01T12:09:52.000Z</time>
      </trkpt>
      <trkpt lat="43.48726" lon="2.27679">
        <ele>603.3</ele>
        <time>2017-06-01T12:09:53.000Z</time>
      </trkpt>
      <trkpt lat="43.48721" lon="2.2768">
        <ele>603.5</ele>
        <time>2017-06-01T12:09:54.000Z</time>
      </trkpt>
      <trkpt lat="43.48717" lon="2.27682">
        <ele>603.7</ele>
        <time>2017-06-01T12:09:56.000Z</time>
      </trkpt>
      <trkpt lat="43.4871" lon="2.27685">
        <ele>604.1</ele>
        <time>2017-06-01T12:09:58.000Z</time>
      </trkpt>
      <trkpt lat="43.48706" lon="2.27685">
        <ele>604.3</ele>
        <time>2017-06-01T12:09:59.000Z</time>
      </trkpt>
      <trkpt lat="43.48704" lon="2.27683">
        <ele>604.5</ele>
        <time>2017-06-01T12:10:00.000Z</time>
      </trkpt>
      <trkpt lat="43.487" lon="2.27681">
        <ele>604.8</ele>
        <time>2017-06-01T12:10:01.000Z</time>
      </trkpt>
      <trkpt lat="43.48697" lon="2.2768">
        <ele>605</ele>
        <time>2017-06-01T12:10:05.000Z</time>
      </trkpt>
      <trkpt lat="43.48695" lon="2.27683">
        <ele>605.2</ele>
        <time>2017-06-01T12:10:08.000Z</time>
      </trkpt>
      <trkpt lat="43.4869" lon="2.27684">
        <ele>605.6</ele>
        <time>2017-06-01T12:10:10.000Z</time>
      </trkpt>
      <trkpt lat="43.48685" lon="2.27689">
        <ele>606.1</ele>
        <time>2017-06-01T12:10:11.000Z</time>
      </trkpt>
      <trkpt lat="43.48682" lon="2.27689">
        <ele>606.3</ele>
        <time>2017-06-01T12:10:14.000Z</time>
      </trkpt>
      <trkpt lat="43.48677" lon="2.27691">
        <ele>606.8</ele>
        <time>2017-06-01T12:10:16.000Z</time>
      </trkpt>
      <trkpt lat="43.48674" lon="2.27692">
        <ele>607</ele>
        <time>2017-06-01T12:10:19.000Z</time>
      </trkpt>
      <trkpt lat="43.48671" lon="2.27691">
        <ele>607.3</ele>
        <time>2017-06-01T12:10:20.000Z</time>
      </trkpt>
      <trkpt lat="43.48667" lon="2.27695">
        <ele>607.7</ele>
        <time>2017-06-01T12:10:23.000Z</time>
      </trkpt>
      <trkpt lat="43.48664" lon="2.27695">
        <ele>607.9</ele>
        <time>2017-06-01T12:10:24.000Z</time>
      </trkpt>
      <trkpt lat="43.4866" lon="2.27695">
        <ele>608.2</ele>
        <time>2017-06-01T12:10:26.000Z</time>
      </trkpt>
      <trkpt lat="43.48656" lon="2.27695">
        <ele>608.4</ele>
        <time>2017-06-01T12:10:28.000Z</time>
      </trkpt>
      <trkpt lat="43.48653" lon="2.27697">
        <ele>608.5</ele>
        <time>2017-06-01T12:10:30.000Z</time>
      </trkpt>
      <trkpt lat="43.48651" lon="2.277">
        <ele>608.7</ele>
        <time>2017-06-01T12:10:31.000Z</time>
      </trkpt>
      <trkpt lat="43.48647" lon="2.27702">
        <ele>608.9</ele>
        <time>2017-06-01T12:10:33.000Z</time>
      </trkpt>
      <trkpt lat="43.48643" lon="2.27703">
        <ele>609</ele>
        <time>2017-06-01T12:10:35.000Z</time>
      </trkpt>
      <trkpt lat="43.48639" lon="2.27703">
        <ele>609.1</ele>
        <time>2017-06-01T12:10:37.000Z</time>
      </trkpt>
      <trkpt lat="43.48635" lon="2.27702">
        <ele>609.2</ele>
        <time>2017-06-01T12:10:39.000Z</time>
      </trkpt>
      <trkpt lat="43.48632" lon="2.27701">
        <ele>609.3</ele>
        <time>2017-06-01T12:10:42.000Z</time>
      </trkpt>
      <trkpt lat="43.48628" lon="2.27699">
        <ele>609.4</ele>
        <time>2017-06-01T12:10:44.000Z</time>
      </trkpt>
      <trkpt lat="43.48625" lon="2.27698">
        <ele>609.4</ele>
        <time>2017-06-01T12:10:46.000Z</time>
      </trkpt>
      <trkpt lat="43.48623" lon="2.277">
        <ele>609.5</ele>
        <time>2017-06-01T12:10:47.000Z</time>
      </trkpt>
      <trkpt lat="43.48619" lon="2.277">
        <ele>609.7</ele>
        <time>2017-06-01T12:10:49.000Z</time>
      </trkpt>
      <trkpt lat="43.48618" lon="2.27695">
        <ele>609.8</ele>
        <time>2017-06-01T12:10:51.000Z</time>
      </trkpt>
      <trkpt lat="43.48614" lon="2.27697">
        <ele>609.9</ele>
        <time>2017-06-01T12:10:52.000Z</time>
      </trkpt>
      <trkpt lat="43.48611" lon="2.27694">
        <ele>610.1</ele>
        <time>2017-06-01T12:10:54.000Z</time>
      </trkpt>
      <trkpt lat="43.48605" lon="2.27698">
        <ele>610.3</ele>
        <time>2017-06-01T12:10:55.000Z</time>
      </trkpt>
      <trkpt lat="43.48603" lon="2.277">
        <ele>610.4</ele>
        <time>2017-06-01T12:10:56.000Z</time>
      </trkpt>
      <trkpt lat="43.48599" lon="2.27703">
        <ele>610.6</ele>
        <time>2017-06-01T12:10:57.000Z</time>
      </trkpt>
      <trkpt lat="43.48594" lon="2.27703">
        <ele>610.8</ele>
        <time>2017-06-01T12:10:59.000Z</time>
      </trkpt>
      <trkpt lat="43.48591" lon="2.27703">
        <ele>611</ele>
        <time>2017-06-01T12:11:00.000Z</time>
      </trkpt>
      <trkpt lat="43.48588" lon="2.27705">
        <ele>611.2</ele>
        <time>2017-06-01T12:11:02.000Z</time>
      </trkpt>
      <trkpt lat="43.48584" lon="2.27707">
        <ele>611.4</ele>
        <time>2017-06-01T12:11:04.000Z</time>
      </trkpt>
      <trkpt lat="43.4858" lon="2.2771">
        <ele>611.6</ele>
        <time>2017-06-01T12:11:06.000Z</time>
      </trkpt>
      <trkpt lat="43.48577" lon="2.27713">
        <ele>611.8</ele>
        <time>2017-06-01T12:11:07.000Z</time>
      </trkpt>
      <trkpt lat="43.48573" lon="2.27716">
        <ele>612.1</ele>
        <time>2017-06-01T12:11:10.000Z</time>
      </trkpt>
      <trkpt lat="43.4857" lon="2.27718">
        <ele>612.3</ele>
        <time>2017-06-01T12:11:11.000Z</time>
      </trkpt>
      <trkpt lat="43.48567" lon="2.27722">
        <ele>612.5</ele>
        <time>2017-06-01T12:11:12.000Z</time>
      </trkpt>
      <trkpt lat="43.48565" lon="2.27725">
        <ele>612.7</ele>
        <time>2017-06-01T12:11:14.000Z</time>
      </trkpt>
      <trkpt lat="43.48561" lon="2.27726">
        <ele>612.9</ele>
        <time>2017-06-01T12:11:17.000Z</time>
      </trkpt>
      <trkpt lat="43.48557" lon="2.27729">
        <ele>613.2</ele>
        <time>2017-06-01T12:11:19.000Z</time>
      </trkpt>
      <trkpt lat="43.48555" lon="2.27732">
        <ele>613.4</ele>
        <time>2017-06-01T12:11:22.000Z</time>
      </trkpt>
      <trkpt lat="43.48552" lon="2.27731">
        <ele>613.6</ele>
        <time>2017-06-01T12:11:24.000Z</time>
      </trkpt>
      <trkpt lat="43.48547" lon="2.27733">
        <ele>613.9</ele>
        <time>2017-06-01T12:11:26.000Z</time>
      </trkpt>
      <trkpt lat="43.48542" lon="2.27734">
        <ele>614.2</ele>
        <time>2017-06-01T12:11:28.000Z</time>
      </trkpt>
      <trkpt lat="43.48539" lon="2.27733">
        <ele>614.3</ele>
        <time>2017-06-01T12:11:30.000Z</time>
      </trkpt>
      <trkpt lat="43.48535" lon="2.2773">
        <ele>614.6</ele>
        <time>2017-06-01T12:11:32.000Z</time>
      </trkpt>
      <trkpt lat="43.48532" lon="2.27728">
        <ele>614.7</ele>
        <time>2017-06-01T12:11:34.000Z</time>
      </trkpt>
      <trkpt lat="43.48528" lon="2.27724">
        <ele>614.9</ele>
        <time>2017-06-01T12:11:36.000Z</time>
      </trkpt>
      <trkpt lat="43.48525" lon="2.27721">
        <ele>615.1</ele>
        <time>2017-06-01T12:11:38.000Z</time>
      </trkpt>
      <trkpt lat="43.48523" lon="2.27718">
        <ele>615.3</ele>
        <time>2017-06-01T12:11:40.000Z</time>
      </trkpt>
      <trkpt lat="43.4852" lon="2.27713">
        <ele>615.4</ele>
        <time>2017-06-01T12:11:42.000Z</time>
      </trkpt>
      <trkpt lat="43.48517" lon="2.27709">
        <ele>615.6</ele>
        <time>2017-06-01T12:11:44.000Z</time>
      </trkpt>
      <trkpt lat="43.48515" lon="2.27703">
        <ele>615.7</ele>
        <time>2017-06-01T12:11:46.000Z</time>
      </trkpt>
      <trkpt lat="43.48514" lon="2.27697">
        <ele>615.8</ele>
        <time>2017-06-01T12:11:48.000Z</time>
      </trkpt>
      <trkpt lat="43.48512" lon="2.27692">
        <ele>615.9</ele>
        <time>2017-06-01T12:11:50.000Z</time>
      </trkpt>
      <trkpt lat="43.48512" lon="2.27687">
        <ele>616.2</ele>
        <time>2017-06-01T12:11:52.000Z</time>
      </trkpt>
      <trkpt lat="43.4851" lon="2.27682">
        <ele>616.6</ele>
        <time>2017-06-01T12:11:54.000Z</time>
      </trkpt>
      <trkpt lat="43.48508" lon="2.27675">
        <ele>617.2</ele>
        <time>2017-06-01T12:11:56.000Z</time>
      </trkpt>
      <trkpt lat="43.48507" lon="2.27669">
        <ele>617.6</ele>
        <time>2017-06-01T12:11:58.000Z</time>
      </trkpt>
      <trkpt lat="43.48506" lon="2.27663">
        <ele>618.1</ele>
        <time>2017-06-01T12:12:00.000Z</time>
      </trkpt>
      <trkpt lat="43.48505" lon="2.27658">
        <ele>618.5</ele>
        <time>2017-06-01T12:12:02.000Z</time>
      </trkpt>
      <trkpt lat="43.48505" lon="2.27652">
        <ele>619</ele>
        <time>2017-06-01T12:12:04.000Z</time>
      </trkpt>
      <trkpt lat="43.48505" lon="2.27645">
        <ele>619.4</ele>
        <time>2017-06-01T12:12:06.000Z</time>
      </trkpt>
      <trkpt lat="43.48505" lon="2.27638">
        <ele>620</ele>
        <time>2017-06-01T12:12:08.000Z</time>
      </trkpt>
      <trkpt lat="43.48505" lon="2.27631">
        <ele>620.4</ele>
        <time>2017-06-01T12:12:10.000Z</time>
      </trkpt>
      <trkpt lat="43.48506" lon="2.27624">
        <ele>620.9</ele>
        <time>2017-06-01T12:12:12.000Z</time>
      </trkpt>
      <trkpt lat="43.48506" lon="2.27619">
        <ele>621.4</ele>
        <time>2017-06-01T12:12:14.000Z</time>
      </trkpt>
      <trkpt lat="43.48506" lon="2.27612">
        <ele>621.9</ele>
        <time>2017-06-01T12:12:16.000Z</time>
      </trkpt>
      <trkpt lat="43.48505" lon="2.27605">
        <ele>622.5</ele>
        <time>2017-06-01T12:12:18.000Z</time>
      </trkpt>
      <trkpt lat="43.48503" lon="2.27599">
        <ele>623.2</ele>
        <time>2017-06-01T12:12:20.000Z</time>
      </trkpt>
      <trkpt lat="43.48499" lon="2.27596">
        <ele>623.8</ele>
        <time>2017-06-01T12:12:22.000Z</time>
      </trkpt>
      <trkpt lat="43.48497" lon="2.27592">
        <ele>624.3</ele>
        <time>2017-06-01T12:12:24.000Z</time>
      </trkpt>
      <trkpt lat="43.48494" lon="2.27589">
        <ele>624.8</ele>
        <time>2017-06-01T12:12:26.000Z</time>
      </trkpt>
      <trkpt lat="43.4849" lon="2.27588">
        <ele>625.3</ele>
        <time>2017-06-01T12:12:28.000Z</time>
      </trkpt>
      <trkpt lat="43.48487" lon="2.27586">
        <ele>625.7</ele>
        <time>2017-06-01T12:12:30.000Z</time>
      </trkpt>
      <trkpt lat="43.48483" lon="2.27584">
        <ele>626.2</ele>
        <time>2017-06-01T12:12:32.000Z</time>
      </trkpt>
      <trkpt lat="43.48478" lon="2.27585">
        <ele>626.7</ele>
        <time>2017-06-01T12:12:34.000Z</time>
      </trkpt>
      <trkpt lat="43.48475" lon="2.27584">
        <ele>627.1</ele>
        <time>2017-06-01T12:12:36.000Z</time>
      </trkpt>
      <trkpt lat="43.4847" lon="2.27587">
        <ele>627.6</ele>
        <time>2017-06-01T12:12:39.000Z</time>
      </trkpt>
      <trkpt lat="43.48469" lon="2.27584">
        <ele>627.9</ele>
        <time>2017-06-01T12:12:41.000Z</time>
      </trkpt>
      <trkpt lat="43.48466" lon="2.27586">
        <ele>628.2</ele>
        <time>2017-06-01T12:12:42.000Z</time>
      </trkpt>
      <trkpt lat="43.48463" lon="2.27588">
        <ele>628.6</ele>
        <time>2017-06-01T12:12:43.000Z</time>
      </trkpt>
      <trkpt lat="43.4846" lon="2.2759">
        <ele>628.9</ele>
        <time>2017-06-01T12:12:44.000Z</time>
      </trkpt>
      <trkpt lat="43.48455" lon="2.27593">
        <ele>629.5</ele>
        <time>2017-06-01T12:12:46.000Z</time>
      </trkpt>
      <trkpt lat="43.48452" lon="2.27594">
        <ele>629.8</ele>
        <time>2017-06-01T12:12:48.000Z</time>
      </trkpt>
      <trkpt lat="43.48448" lon="2.27596">
        <ele>630.2</ele>
        <time>2017-06-01T12:12:50.000Z</time>
      </trkpt>
      <trkpt lat="43.48443" lon="2.27598">
        <ele>630.6</ele>
        <time>2017-06-01T12:12:52.000Z</time>
      </trkpt>
      <trkpt lat="43.48438" lon="2.27601">
        <ele>631</ele>
        <time>2017-06-01T12:12:54.000Z</time>
      </trkpt>
      <trkpt lat="43.48435" lon="2.27602">
        <ele>631.3</ele>
        <time>2017-06-01T12:12:55.000Z</time>
      </trkpt>
      <trkpt lat="43.48431" lon="2.27604">
        <ele>631.7</ele>
        <time>2017-06-01T12:12:57.000Z</time>
      </trkpt>
      <trkpt lat="43.48428" lon="2.27606">
        <ele>632</ele>
        <time>2017-06-01T12:12:58.000Z</time>
      </trkpt>
      <trkpt lat="43.48422" lon="2.27605">
        <ele>632.4</ele>
        <time>2017-06-01T12:13:00.000Z</time>
      </trkpt>
      <trkpt lat="43.4842" lon="2.27606">
        <ele>632.6</ele>
        <time>2017-06-01T12:13:01.000Z</time>
      </trkpt>
      <trkpt lat="43.48416" lon="2.27607">
        <ele>633</ele>
        <time>2017-06-01T12:13:03.000Z</time>
      </trkpt>
      <trkpt lat="43.48411" lon="2.27608">
        <ele>633.3</ele>
        <time>2017-06-01T12:13:05.000Z</time>
      </trkpt>
      <trkpt lat="43.48405" lon="2.2761">
        <ele>633.7</ele>
        <time>2017-06-01T12:13:07.000Z</time>
      </trkpt>
      <trkpt lat="43.48401" lon="2.2761">
        <ele>634</ele>
        <time>2017-06-01T12:13:09.000Z</time>
      </trkpt>
      <trkpt lat="43.48397" lon="2.27608">
        <ele>634.3</ele>
        <time>2017-06-01T12:13:11.000Z</time>
      </trkpt>
      <trkpt lat="43.48394" lon="2.2761">
        <ele>634.5</ele>
        <time>2017-06-01T12:13:12.000Z</time>
      </trkpt>
      <trkpt lat="43.4839" lon="2.27611">
        <ele>634.6</ele>
        <time>2017-06-01T12:13:14.000Z</time>
      </trkpt>
      <trkpt lat="43.48386" lon="2.2761">
        <ele>634.8</ele>
        <time>2017-06-01T12:13:16.000Z</time>
      </trkpt>
      <trkpt lat="43.48383" lon="2.27613">
        <ele>635</ele>
        <time>2017-06-01T12:13:17.000Z</time>
      </trkpt>
      <trkpt lat="43.48379" lon="2.27616">
        <ele>635.2</ele>
        <time>2017-06-01T12:13:18.000Z</time>
      </trkpt>
      <trkpt lat="43.48376" lon="2.27615">
        <ele>635.3</ele>
        <time>2017-06-01T12:13:20.000Z</time>
      </trkpt>
      <trkpt lat="43.48372" lon="2.27617">
        <ele>635.5</ele>
        <time>2017-06-01T12:13:21.000Z</time>
      </trkpt>
      <trkpt lat="43.48368" lon="2.27619">
        <ele>635.7</ele>
        <time>2017-06-01T12:13:23.000Z</time>
      </trkpt>
      <trkpt lat="43.48363" lon="2.27625">
        <ele>635.9</ele>
        <time>2017-06-01T12:13:24.000Z</time>
      </trkpt>
      <trkpt lat="43.4836" lon="2.27624">
        <ele>636</ele>
        <time>2017-06-01T12:13:25.000Z</time>
      </trkpt>
      <trkpt lat="43.48356" lon="2.27625">
        <ele>636.1</ele>
        <time>2017-06-01T12:13:26.000Z</time>
      </trkpt>
      <trkpt lat="43.48352" lon="2.27625">
        <ele>636.2</ele>
        <time>2017-06-01T12:13:28.000Z</time>
      </trkpt>
      <trkpt lat="43.48348" lon="2.27624">
        <ele>636.2</ele>
        <time>2017-06-01T12:13:29.000Z</time>
      </trkpt>
      <trkpt lat="43.48342" lon="2.27625">
        <ele>636.3</ele>
        <time>2017-06-01T12:13:30.000Z</time>
      </trkpt>
      <trkpt lat="43.48337" lon="2.27625">
        <ele>636.4</ele>
        <time>2017-06-01T12:13:31.000Z</time>
      </trkpt>
      <trkpt lat="43.48327" lon="2.27632">
        <ele>636.5</ele>
        <time>2017-06-01T12:13:32.000Z</time>
      </trkpt>
      <trkpt lat="43.48331" lon="2.27631">
        <ele>636.6</ele>
        <time>2017-06-01T12:13:33.000Z</time>
      </trkpt>
      <trkpt lat="43.48324" lon="2.27631">
        <ele>636.7</ele>
        <time>2017-06-01T12:13:35.000Z</time>
      </trkpt>
      <trkpt lat="43.4832" lon="2.27634">
        <ele>636.7</ele>
        <time>2017-06-01T12:13:36.000Z</time>
      </trkpt>
      <trkpt lat="43.48313" lon="2.27636">
        <ele>636.8</ele>
        <time>2017-06-01T12:13:37.000Z</time>
      </trkpt>
      <trkpt lat="43.48309" lon="2.2764">
        <ele>636.8</ele>
        <time>2017-06-01T12:13:38.000Z</time>
      </trkpt>
      <trkpt lat="43.48306" lon="2.27642">
        <ele>636.8</ele>
        <time>2017-06-01T12:13:39.000Z</time>
      </trkpt>
      <trkpt lat="43.48309" lon="2.27647">
        <ele>636.8</ele>
        <time>2017-06-01T12:13:40.000Z</time>
      </trkpt>
      <trkpt lat="43.48307" lon="2.27655">
        <ele>636.8</ele>
        <time>2017-06-01T12:13:41.000Z</time>
      </trkpt>
      <trkpt lat="43.48304" lon="2.27663">
        <ele>636.8</ele>
        <time>2017-06-01T12:13:43.000Z</time>
      </trkpt>
      <trkpt lat="43.48293" lon="2.27665">
        <ele>636.8</ele>
        <time>2017-06-01T12:13:44.000Z</time>
      </trkpt>
      <trkpt lat="43.48286" lon="2.27669">
        <ele>636.8</ele>
        <time>2017-06-01T12:13:45.000Z</time>
      </trkpt>
      <trkpt lat="43.4828" lon="2.27663">
        <ele>636.8</ele>
        <time>2017-06-01T12:13:46.000Z</time>
      </trkpt>
      <trkpt lat="43.48273" lon="2.27663">
        <ele>636.8</ele>
        <time>2017-06-01T12:13:47.000Z</time>
      </trkpt>
      <trkpt lat="43.48267" lon="2.27661">
        <ele>636.8</ele>
        <time>2017-06-01T12:13:48.000Z</time>
      </trkpt>
      <trkpt lat="43.48264" lon="2.27658">
        <ele>636.9</ele>
        <time>2017-06-01T12:13:49.000Z</time>
      </trkpt>
      <trkpt lat="43.48258" lon="2.27659">
        <ele>636.9</ele>
        <time>2017-06-01T12:13:50.000Z</time>
      </trkpt>
      <trkpt lat="43.4825" lon="2.27661">
        <ele>636.9</ele>
        <time>2017-06-01T12:13:51.000Z</time>
      </trkpt>
      <trkpt lat="43.48246" lon="2.27659">
        <ele>636.9</ele>
        <time>2017-06-01T12:13:52.000Z</time>
      </trkpt>
      <trkpt lat="43.48241" lon="2.27656">
        <ele>637</ele>
        <time>2017-06-01T12:13:53.000Z</time>
      </trkpt>
      <trkpt lat="43.48234" lon="2.27652">
        <ele>637.1</ele>
        <time>2017-06-01T12:13:54.000Z</time>
      </trkpt>
      <trkpt lat="43.48227" lon="2.27654">
        <ele>637.1</ele>
        <time>2017-06-01T12:13:55.000Z</time>
      </trkpt>
      <trkpt lat="43.48223" lon="2.27653">
        <ele>637.2</ele>
        <time>2017-06-01T12:13:56.000Z</time>
      </trkpt>
      <trkpt lat="43.48216" lon="2.27656">
        <ele>637.3</ele>
        <time>2017-06-01T12:13:57.000Z</time>
      </trkpt>
      <trkpt lat="43.48213" lon="2.27652">
        <ele>637.3</ele>
        <time>2017-06-01T12:13:58.000Z</time>
      </trkpt>
      <trkpt lat="43.48209" lon="2.27649">
        <ele>637.4</ele>
        <time>2017-06-01T12:13:59.000Z</time>
      </trkpt>
      <trkpt lat="43.48206" lon="2.27649">
        <ele>637.4</ele>
        <time>2017-06-01T12:14:00.000Z</time>
      </trkpt>
      <trkpt lat="43.48199" lon="2.27646">
        <ele>637.5</ele>
        <time>2017-06-01T12:14:01.000Z</time>
      </trkpt>
      <trkpt lat="43.48197" lon="2.27648">
        <ele>637.6</ele>
        <time>2017-06-01T12:14:02.000Z</time>
      </trkpt>
      <trkpt lat="43.48186" lon="2.27645">
        <ele>637.8</ele>
        <time>2017-06-01T12:14:05.000Z</time>
      </trkpt>
      <trkpt lat="43.48182" lon="2.27644">
        <ele>637.9</ele>
        <time>2017-06-01T12:14:06.000Z</time>
      </trkpt>
      <trkpt lat="43.48178" lon="2.27639">
        <ele>638.1</ele>
        <time>2017-06-01T12:14:07.000Z</time>
      </trkpt>
      <trkpt lat="43.48175" lon="2.27638">
        <ele>638.1</ele>
        <time>2017-06-01T12:14:08.000Z</time>
      </trkpt>
      <trkpt lat="43.4817" lon="2.27638">
        <ele>638.3</ele>
        <time>2017-06-01T12:14:10.000Z</time>
      </trkpt>
      <trkpt lat="43.48165" lon="2.2764">
        <ele>638.5</ele>
        <time>2017-06-01T12:14:11.000Z</time>
      </trkpt>
      <trkpt lat="43.48161" lon="2.27641">
        <ele>638.7</ele>
        <time>2017-06-01T12:14:12.000Z</time>
      </trkpt>
      <trkpt lat="43.48158" lon="2.27644">
        <ele>638.9</ele>
        <time>2017-06-01T12:14:13.000Z</time>
      </trkpt>
      <trkpt lat="43.48154" lon="2.27649">
        <ele>639.1</ele>
        <time>2017-06-01T12:14:14.000Z</time>
      </trkpt>
      <trkpt lat="43.48152" lon="2.27652">
        <ele>639.3</ele>
        <time>2017-06-01T12:14:15.000Z</time>
      </trkpt>
      <trkpt lat="43.48151" lon="2.2766">
        <ele>639.6</ele>
        <time>2017-06-01T12:14:16.000Z</time>
      </trkpt>
      <trkpt lat="43.48149" lon="2.27664">
        <ele>639.9</ele>
        <time>2017-06-01T12:14:17.000Z</time>
      </trkpt>
      <trkpt lat="43.48148" lon="2.2767">
        <ele>640.2</ele>
        <time>2017-06-01T12:14:19.000Z</time>
      </trkpt>
      <trkpt lat="43.48147" lon="2.27676">
        <ele>640.5</ele>
        <time>2017-06-01T12:14:20.000Z</time>
      </trkpt>
      <trkpt lat="43.48145" lon="2.2768">
        <ele>640.7</ele>
        <time>2017-06-01T12:14:21.000Z</time>
      </trkpt>
      <trkpt lat="43.48147" lon="2.27688">
        <ele>641.2</ele>
        <time>2017-06-01T12:14:23.000Z</time>
      </trkpt>
      <trkpt lat="43.48145" lon="2.27693">
        <ele>641.6</ele>
        <time>2017-06-01T12:14:24.000Z</time>
      </trkpt>
      <trkpt lat="43.48144" lon="2.27697">
        <ele>641.8</ele>
        <time>2017-06-01T12:14:25.000Z</time>
      </trkpt>
      <trkpt lat="43.48141" lon="2.27702">
        <ele>642.2</ele>
        <time>2017-06-01T12:14:26.000Z</time>
      </trkpt>
      <trkpt lat="43.48138" lon="2.27706">
        <ele>642.6</ele>
        <time>2017-06-01T12:14:27.000Z</time>
      </trkpt>
      <trkpt lat="43.48138" lon="2.2771">
        <ele>643</ele>
        <time>2017-06-01T12:14:29.000Z</time>
      </trkpt>
      <trkpt lat="43.48138" lon="2.27715">
        <ele>643.3</ele>
        <time>2017-06-01T12:14:30.000Z</time>
      </trkpt>
      <trkpt lat="43.48138" lon="2.2772">
        <ele>643.7</ele>
        <time>2017-06-01T12:14:31.000Z</time>
      </trkpt>
      <trkpt lat="43.48136" lon="2.27724">
        <ele>644.1</ele>
        <time>2017-06-01T12:14:32.000Z</time>
      </trkpt>
      <trkpt lat="43.48134" lon="2.27727">
        <ele>644.5</ele>
        <time>2017-06-01T12:14:34.000Z</time>
      </trkpt>
      <trkpt lat="43.48131" lon="2.27729">
        <ele>644.9</ele>
        <time>2017-06-01T12:14:35.000Z</time>
      </trkpt>
      <trkpt lat="43.48125" lon="2.27731">
        <ele>645.5</ele>
        <time>2017-06-01T12:14:37.000Z</time>
      </trkpt>
      <trkpt lat="43.48121" lon="2.27733">
        <ele>645.9</ele>
        <time>2017-06-01T12:14:39.000Z</time>
      </trkpt>
      <trkpt lat="43.48116" lon="2.27734">
        <ele>646.4</ele>
        <time>2017-06-01T12:14:40.000Z</time>
      </trkpt>
      <trkpt lat="43.48112" lon="2.27731">
        <ele>646.8</ele>
        <time>2017-06-01T12:14:41.000Z</time>
      </trkpt>
      <trkpt lat="43.48109" lon="2.27732">
        <ele>647.1</ele>
        <time>2017-06-01T12:14:42.000Z</time>
      </trkpt>
      <trkpt lat="43.48106" lon="2.27732">
        <ele>647.5</ele>
        <time>2017-06-01T12:14:43.000Z</time>
      </trkpt>
      <trkpt lat="43.48101" lon="2.27732">
        <ele>648</ele>
        <time>2017-06-01T12:14:44.000Z</time>
      </trkpt>
      <trkpt lat="43.48097" lon="2.27733">
        <ele>648.4</ele>
        <time>2017-06-01T12:14:45.000Z</time>
      </trkpt>
      <trkpt lat="43.48093" lon="2.27734">
        <ele>648.8</ele>
        <time>2017-06-01T12:14:46.000Z</time>
      </trkpt>
      <trkpt lat="43.4809" lon="2.27734">
        <ele>649.2</ele>
        <time>2017-06-01T12:14:48.000Z</time>
      </trkpt>
      <trkpt lat="43.48086" lon="2.27734">
        <ele>649.6</ele>
        <time>2017-06-01T12:14:50.000Z</time>
      </trkpt>
      <trkpt lat="43.48083" lon="2.27735">
        <ele>649.9</ele>
        <time>2017-06-01T12:14:51.000Z</time>
      </trkpt>
      <trkpt lat="43.48079" lon="2.27732">
        <ele>650.1</ele>
        <time>2017-06-01T12:14:53.000Z</time>
      </trkpt>
      <trkpt lat="43.48075" lon="2.27737">
        <ele>650.3</ele>
        <time>2017-06-01T12:14:55.000Z</time>
      </trkpt>
      <trkpt lat="43.4807" lon="2.27735">
        <ele>650.5</ele>
        <time>2017-06-01T12:14:57.000Z</time>
      </trkpt>
      <trkpt lat="43.48067" lon="2.27734">
        <ele>650.6</ele>
        <time>2017-06-01T12:14:58.000Z</time>
      </trkpt>
      <trkpt lat="43.48062" lon="2.27733">
        <ele>650.8</ele>
        <time>2017-06-01T12:15:00.000Z</time>
      </trkpt>
      <trkpt lat="43.48058" lon="2.27734">
        <ele>650.9</ele>
        <time>2017-06-01T12:15:01.000Z</time>
      </trkpt>
      <trkpt lat="43.48054" lon="2.27731">
        <ele>651.1</ele>
        <time>2017-06-01T12:15:03.000Z</time>
      </trkpt>
      <trkpt lat="43.48051" lon="2.27732">
        <ele>651.2</ele>
        <time>2017-06-01T12:15:04.000Z</time>
      </trkpt>
      <trkpt lat="43.48049" lon="2.27732">
        <ele>651.3</ele>
        <time>2017-06-01T12:15:05.000Z</time>
      </trkpt>
      <trkpt lat="43.48045" lon="2.27733">
        <ele>651.5</ele>
        <time>2017-06-01T12:15:06.000Z</time>
      </trkpt>
      <trkpt lat="43.48043" lon="2.27732">
        <ele>651.7</ele>
        <time>2017-06-01T12:15:07.000Z</time>
      </trkpt>
      <trkpt lat="43.4804" lon="2.27733">
        <ele>651.8</ele>
        <time>2017-06-01T12:15:08.000Z</time>
      </trkpt>
      <trkpt lat="43.48035" lon="2.27731">
        <ele>652.1</ele>
        <time>2017-06-01T12:15:10.000Z</time>
      </trkpt>
      <trkpt lat="43.48032" lon="2.2773">
        <ele>652.2</ele>
        <time>2017-06-01T12:15:11.000Z</time>
      </trkpt>
      <trkpt lat="43.48029" lon="2.27731">
        <ele>652.4</ele>
        <time>2017-06-01T12:15:12.000Z</time>
      </trkpt>
      <trkpt lat="43.48027" lon="2.27729">
        <ele>652.5</ele>
        <time>2017-06-01T12:15:13.000Z</time>
      </trkpt>
      <trkpt lat="43.48024" lon="2.27728">
        <ele>652.7</ele>
        <time>2017-06-01T12:15:14.000Z</time>
      </trkpt>
      <trkpt lat="43.48017" lon="2.27726">
        <ele>653</ele>
        <time>2017-06-01T12:15:16.000Z</time>
      </trkpt>
      <trkpt lat="43.48015" lon="2.27724">
        <ele>653.2</ele>
        <time>2017-06-01T12:15:17.000Z</time>
      </trkpt>
      <trkpt lat="43.48011" lon="2.27723">
        <ele>653.4</ele>
        <time>2017-06-01T12:15:18.000Z</time>
      </trkpt>
      <trkpt lat="43.4801" lon="2.2772">
        <ele>653.5</ele>
        <time>2017-06-01T12:15:19.000Z</time>
      </trkpt>
      <trkpt lat="43.48007" lon="2.27717">
        <ele>653.7</ele>
        <time>2017-06-01T12:15:20.000Z</time>
      </trkpt>
      <trkpt lat="43.48005" lon="2.27713">
        <ele>653.9</ele>
        <time>2017-06-01T12:15:21.000Z</time>
      </trkpt>
      <trkpt lat="43.48003" lon="2.27709">
        <ele>654</ele>
        <time>2017-06-01T12:15:22.000Z</time>
      </trkpt>
      <trkpt lat="43.48" lon="2.27706">
        <ele>654.2</ele>
        <time>2017-06-01T12:15:23.000Z</time>
      </trkpt>
      <trkpt lat="43.47998" lon="2.27702">
        <ele>654.4</ele>
        <time>2017-06-01T12:15:24.000Z</time>
      </trkpt>
      <trkpt lat="43.47997" lon="2.27695">
        <ele>654.6</ele>
        <time>2017-06-01T12:15:26.000Z</time>
      </trkpt>
      <trkpt lat="43.47997" lon="2.27692">
        <ele>654.7</ele>
        <time>2017-06-01T12:15:27.000Z</time>
      </trkpt>
      <trkpt lat="43.47998" lon="2.27688">
        <ele>654.8</ele>
        <time>2017-06-01T12:15:28.000Z</time>
      </trkpt>
      <trkpt lat="43.47997" lon="2.27684">
        <ele>655</ele>
        <time>2017-06-01T12:15:29.000Z</time>
      </trkpt>
      <trkpt lat="43.47995" lon="2.27676">
        <ele>655.2</ele>
        <time>2017-06-01T12:15:31.000Z</time>
      </trkpt>
      <trkpt lat="43.47994" lon="2.27671">
        <ele>655.4</ele>
        <time>2017-06-01T12:15:33.000Z</time>
      </trkpt>
      <trkpt lat="43.47993" lon="2.27667">
        <ele>655.5</ele>
        <time>2017-06-01T12:15:35.000Z</time>
      </trkpt>
      <trkpt lat="43.47992" lon="2.27659">
        <ele>655.8</ele>
        <time>2017-06-01T12:15:37.000Z</time>
      </trkpt>
      <trkpt lat="43.47993" lon="2.27652">
        <ele>656</ele>
        <time>2017-06-01T12:15:39.000Z</time>
      </trkpt>
      <trkpt lat="43.47994" lon="2.27647">
        <ele>656.2</ele>
        <time>2017-06-01T12:15:40.000Z</time>
      </trkpt>
      <trkpt lat="43.47996" lon="2.27643">
        <ele>656.3</ele>
        <time>2017-06-01T12:15:41.000Z</time>
      </trkpt>
      <trkpt lat="43.47995" lon="2.27636">
        <ele>656.6</ele>
        <time>2017-06-01T12:15:43.000Z</time>
      </trkpt>
      <trkpt lat="43.47995" lon="2.27631">
        <ele>656.7</ele>
        <time>2017-06-01T12:15:44.000Z</time>
      </trkpt>
      <trkpt lat="43.47994" lon="2.27623">
        <ele>657</ele>
        <time>2017-06-01T12:15:46.000Z</time>
      </trkpt>
      <trkpt lat="43.47994" lon="2.27618">
        <ele>657.2</ele>
        <time>2017-06-01T12:15:47.000Z</time>
      </trkpt>
      <trkpt lat="43.47994" lon="2.27613">
        <ele>657.3</ele>
        <time>2017-06-01T12:15:48.000Z</time>
      </trkpt>
      <trkpt lat="43.47993" lon="2.2761">
        <ele>657.5</ele>
        <time>2017-06-01T12:15:49.000Z</time>
      </trkpt>
      <trkpt lat="43.47991" lon="2.27605">
        <ele>657.7</ele>
        <time>2017-06-01T12:15:50.000Z</time>
      </trkpt>
      <trkpt lat="43.4799" lon="2.27602">
        <ele>657.8</ele>
        <time>2017-06-01T12:15:51.000Z</time>
      </trkpt>
      <trkpt lat="43.47989" lon="2.27596">
        <ele>658</ele>
        <time>2017-06-01T12:15:52.000Z</time>
      </trkpt>
      <trkpt lat="43.47987" lon="2.27593">
        <ele>658.2</ele>
        <time>2017-06-01T12:15:53.000Z</time>
      </trkpt>
      <trkpt lat="43.47985" lon="2.27589">
        <ele>658.3</ele>
        <time>2017-06-01T12:15:54.000Z</time>
      </trkpt>
      <trkpt lat="43.47982" lon="2.27589">
        <ele>658.5</ele>
        <time>2017-06-01T12:15:55.000Z</time>
      </trkpt>
      <trkpt lat="43.4798" lon="2.27585">
        <ele>658.6</ele>
        <time>2017-06-01T12:15:56.000Z</time>
      </trkpt>
      <trkpt lat="43.47973" lon="2.27588">
        <ele>658.9</ele>
        <time>2017-06-01T12:15:57.000Z</time>
      </trkpt>
      <trkpt lat="43.47974" lon="2.27582">
        <ele>659.1</ele>
        <time>2017-06-01T12:15:58.000Z</time>
      </trkpt>
      <trkpt lat="43.47971" lon="2.27577">
        <ele>659.3</ele>
        <time>2017-06-01T12:16:00.000Z</time>
      </trkpt>
      <trkpt lat="43.47967" lon="2.27576">
        <ele>659.4</ele>
        <time>2017-06-01T12:16:01.000Z</time>
      </trkpt>
      <trkpt lat="43.47965" lon="2.27573">
        <ele>659.5</ele>
        <time>2017-06-01T12:16:02.000Z</time>
      </trkpt>
      <trkpt lat="43.47963" lon="2.27569">
        <ele>659.6</ele>
        <time>2017-06-01T12:16:03.000Z</time>
      </trkpt>
      <trkpt lat="43.4796" lon="2.27562">
        <ele>659.8</ele>
        <time>2017-06-01T12:16:05.000Z</time>
      </trkpt>
      <trkpt lat="43.47958" lon="2.27558">
        <ele>659.9</ele>
        <time>2017-06-01T12:16:06.000Z</time>
      </trkpt>
      <trkpt lat="43.47954" lon="2.2756">
        <ele>660</ele>
        <time>2017-06-01T12:16:07.000Z</time>
      </trkpt>
      <trkpt lat="43.47952" lon="2.27557">
        <ele>660.1</ele>
        <time>2017-06-01T12:16:08.000Z</time>
      </trkpt>
      <trkpt lat="43.47947" lon="2.27554">
        <ele>660.2</ele>
        <time>2017-06-01T12:16:10.000Z</time>
      </trkpt>
      <trkpt lat="43.47944" lon="2.27553">
        <ele>660.2</ele>
        <time>2017-06-01T12:16:11.000Z</time>
      </trkpt>
      <trkpt lat="43.47942" lon="2.27551">
        <ele>660.3</ele>
        <time>2017-06-01T12:16:12.000Z</time>
      </trkpt>
      <trkpt lat="43.47938" lon="2.27546">
        <ele>660.4</ele>
        <time>2017-06-01T12:16:14.000Z</time>
      </trkpt>
      <trkpt lat="43.47934" lon="2.27544">
        <ele>660.5</ele>
        <time>2017-06-01T12:16:15.000Z</time>
      </trkpt>
      <trkpt lat="43.47927" lon="2.27543">
        <ele>660.6</ele>
        <time>2017-06-01T12:16:17.000Z</time>
      </trkpt>
      <trkpt lat="43.47924" lon="2.27542">
        <ele>660.7</ele>
        <time>2017-06-01T12:16:18.000Z</time>
      </trkpt>
      <trkpt lat="43.4792" lon="2.2754">
        <ele>660.7</ele>
        <time>2017-06-01T12:16:19.000Z</time>
      </trkpt>
      <trkpt lat="43.47916" lon="2.2754">
        <ele>660.8</ele>
        <time>2017-06-01T12:16:20.000Z</time>
      </trkpt>
      <trkpt lat="43.47911" lon="2.27537">
        <ele>660.9</ele>
        <time>2017-06-01T12:16:22.000Z</time>
      </trkpt>
      <trkpt lat="43.47908" lon="2.27535">
        <ele>660.9</ele>
        <time>2017-06-01T12:16:23.000Z</time>
      </trkpt>
      <trkpt lat="43.47901" lon="2.27532">
        <ele>661</ele>
        <time>2017-06-01T12:16:25.000Z</time>
      </trkpt>
      <trkpt lat="43.47897" lon="2.27534">
        <ele>661</ele>
        <time>2017-06-01T12:16:26.000Z</time>
      </trkpt>
      <trkpt lat="43.47893" lon="2.27535">
        <ele>661</ele>
        <time>2017-06-01T12:16:27.000Z</time>
      </trkpt>
      <trkpt lat="43.4789" lon="2.27538">
        <ele>661</ele>
        <time>2017-06-01T12:16:28.000Z</time>
      </trkpt>
      <trkpt lat="43.47885" lon="2.27544">
        <ele>661</ele>
        <time>2017-06-01T12:16:30.000Z</time>
      </trkpt>
      <trkpt lat="43.47887" lon="2.27551">
        <ele>661</ele>
        <time>2017-06-01T12:16:32.000Z</time>
      </trkpt>
      <trkpt lat="43.47887" lon="2.27554">
        <ele>661</ele>
        <time>2017-06-01T12:16:33.000Z</time>
      </trkpt>
      <trkpt lat="43.47888" lon="2.2756">
        <ele>661</ele>
        <time>2017-06-01T12:16:34.000Z</time>
      </trkpt>
      <trkpt lat="43.47894" lon="2.27564">
        <ele>660.9</ele>
        <time>2017-06-01T12:16:35.000Z</time>
      </trkpt>
      <trkpt lat="43.47897" lon="2.27566">
        <ele>660.9</ele>
        <time>2017-06-01T12:16:36.000Z</time>
      </trkpt>
      <trkpt lat="43.47901" lon="2.27569">
        <ele>660.9</ele>
        <time>2017-06-01T12:16:37.000Z</time>
      </trkpt>
      <trkpt lat="43.47903" lon="2.27574">
        <ele>660.9</ele>
        <time>2017-06-01T12:16:38.000Z</time>
      </trkpt>
      <trkpt lat="43.47906" lon="2.27577">
        <ele>660.9</ele>
        <time>2017-06-01T12:16:39.000Z</time>
      </trkpt>
      <trkpt lat="43.47908" lon="2.2758">
        <ele>660.9</ele>
        <time>2017-06-01T12:16:40.000Z</time>
      </trkpt>
      <trkpt lat="43.47911" lon="2.27587">
        <ele>660.9</ele>
        <time>2017-06-01T12:16:41.000Z</time>
      </trkpt>
      <trkpt lat="43.47914" lon="2.27592">
        <ele>660.9</ele>
        <time>2017-06-01T12:16:42.000Z</time>
      </trkpt>
      <trkpt lat="43.47917" lon="2.27596">
        <ele>660.9</ele>
        <time>2017-06-01T12:16:43.000Z</time>
      </trkpt>
      <trkpt lat="43.47919" lon="2.27601">
        <ele>660.9</ele>
        <time>2017-06-01T12:16:44.000Z</time>
      </trkpt>
      <trkpt lat="43.4792" lon="2.27606">
        <ele>661</ele>
        <time>2017-06-01T12:16:45.000Z</time>
      </trkpt>
      <trkpt lat="43.47921" lon="2.27613">
        <ele>661</ele>
        <time>2017-06-01T12:16:46.000Z</time>
      </trkpt>
      <trkpt lat="43.47922" lon="2.27617">
        <ele>661.1</ele>
        <time>2017-06-01T12:16:47.000Z</time>
      </trkpt>
      <trkpt lat="43.47921" lon="2.27624">
        <ele>661.1</ele>
        <time>2017-06-01T12:16:48.000Z</time>
      </trkpt>
      <trkpt lat="43.47921" lon="2.27629">
        <ele>661.2</ele>
        <time>2017-06-01T12:16:49.000Z</time>
      </trkpt>
      <trkpt lat="43.4792" lon="2.27633">
        <ele>661.2</ele>
        <time>2017-06-01T12:16:50.000Z</time>
      </trkpt>
      <trkpt lat="43.47919" lon="2.27638">
        <ele>661.3</ele>
        <time>2017-06-01T12:16:51.000Z</time>
      </trkpt>
      <trkpt lat="43.47919" lon="2.27643">
        <ele>661.4</ele>
        <time>2017-06-01T12:16:52.000Z</time>
      </trkpt>
      <trkpt lat="43.47917" lon="2.27647">
        <ele>661.4</ele>
        <time>2017-06-01T12:16:53.000Z</time>
      </trkpt>
      <trkpt lat="43.47914" lon="2.27652">
        <ele>661.5</ele>
        <time>2017-06-01T12:16:54.000Z</time>
      </trkpt>
      <trkpt lat="43.47913" lon="2.27658">
        <ele>661.6</ele>
        <time>2017-06-01T12:16:55.000Z</time>
      </trkpt>
      <trkpt lat="43.47913" lon="2.27665">
        <ele>661.7</ele>
        <time>2017-06-01T12:16:56.000Z</time>
      </trkpt>
      <trkpt lat="43.47912" lon="2.2767">
        <ele>661.8</ele>
        <time>2017-06-01T12:16:57.000Z</time>
      </trkpt>
      <trkpt lat="43.47913" lon="2.27676">
        <ele>661.9</ele>
        <time>2017-06-01T12:16:59.000Z</time>
      </trkpt>
      <trkpt lat="43.47909" lon="2.27681">
        <ele>662.1</ele>
        <time>2017-06-01T12:17:00.000Z</time>
      </trkpt>
      <trkpt lat="43.47909" lon="2.27686">
        <ele>662.2</ele>
        <time>2017-06-01T12:17:01.000Z</time>
      </trkpt>
      <trkpt lat="43.47909" lon="2.2769">
        <ele>662.2</ele>
        <time>2017-06-01T12:17:02.000Z</time>
      </trkpt>
      <trkpt lat="43.47906" lon="2.27694">
        <ele>662.4</ele>
        <time>2017-06-01T12:17:03.000Z</time>
      </trkpt>
      <trkpt lat="43.47902" lon="2.27701">
        <ele>662.5</ele>
        <time>2017-06-01T12:17:04.000Z</time>
      </trkpt>
      <trkpt lat="43.479" lon="2.27706">
        <ele>662.7</ele>
        <time>2017-06-01T12:17:05.000Z</time>
      </trkpt>
      <trkpt lat="43.47898" lon="2.27711">
        <ele>662.9</ele>
        <time>2017-06-01T12:17:07.000Z</time>
      </trkpt>
      <trkpt lat="43.47896" lon="2.27714">
        <ele>663</ele>
        <time>2017-06-01T12:17:08.000Z</time>
      </trkpt>
      <trkpt lat="43.47893" lon="2.27717">
        <ele>663.1</ele>
        <time>2017-06-01T12:17:09.000Z</time>
      </trkpt>
      <trkpt lat="43.47893" lon="2.27722">
        <ele>663.2</ele>
        <time>2017-06-01T12:17:11.000Z</time>
      </trkpt>
      <trkpt lat="43.4789" lon="2.27725">
        <ele>663.3</ele>
        <time>2017-06-01T12:17:12.000Z</time>
      </trkpt>
      <trkpt lat="43.47887" lon="2.27731">
        <ele>663.5</ele>
        <time>2017-06-01T12:17:13.000Z</time>
      </trkpt>
      <trkpt lat="43.47884" lon="2.27734">
        <ele>663.7</ele>
        <time>2017-06-01T12:17:14.000Z</time>
      </trkpt>
      <trkpt lat="43.47883" lon="2.2774">
        <ele>663.8</ele>
        <time>2017-06-01T12:17:15.000Z</time>
      </trkpt>
      <trkpt lat="43.47881" lon="2.27745">
        <ele>664</ele>
        <time>2017-06-01T12:17:16.000Z</time>
      </trkpt>
      <trkpt lat="43.4788" lon="2.2775">
        <ele>664.1</ele>
        <time>2017-06-01T12:17:17.000Z</time>
      </trkpt>
      <trkpt lat="43.47877" lon="2.27755">
        <ele>664.3</ele>
        <time>2017-06-01T12:17:18.000Z</time>
      </trkpt>
      <trkpt lat="43.47876" lon="2.27759">
        <ele>664.5</ele>
        <time>2017-06-01T12:17:19.000Z</time>
      </trkpt>
      <trkpt lat="43.47874" lon="2.27763">
        <ele>664.7</ele>
        <time>2017-06-01T12:17:20.000Z</time>
      </trkpt>
      <trkpt lat="43.47873" lon="2.27766">
        <ele>664.8</ele>
        <time>2017-06-01T12:17:21.000Z</time>
      </trkpt>
      <trkpt lat="43.47873" lon="2.27771">
        <ele>665</ele>
        <time>2017-06-01T12:17:22.000Z</time>
      </trkpt>
      <trkpt lat="43.47872" lon="2.27775">
        <ele>665.1</ele>
        <time>2017-06-01T12:17:23.000Z</time>
      </trkpt>
      <trkpt lat="43.4787" lon="2.2778">
        <ele>665.3</ele>
        <time>2017-06-01T12:17:24.000Z</time>
      </trkpt>
      <trkpt lat="43.47869" lon="2.27784">
        <ele>665.5</ele>
        <time>2017-06-01T12:17:26.000Z</time>
      </trkpt>
      <trkpt lat="43.47868" lon="2.2779">
        <ele>665.7</ele>
        <time>2017-06-01T12:17:28.000Z</time>
      </trkpt>
      <trkpt lat="43.47864" lon="2.27794">
        <ele>666</ele>
        <time>2017-06-01T12:17:30.000Z</time>
      </trkpt>
      <trkpt lat="43.47862" lon="2.27798">
        <ele>666.2</ele>
        <time>2017-06-01T12:17:31.000Z</time>
      </trkpt>
      <trkpt lat="43.4786" lon="2.278">
        <ele>666.3</ele>
        <time>2017-06-01T12:17:32.000Z</time>
      </trkpt>
      <trkpt lat="43.47857" lon="2.27803">
        <ele>666.5</ele>
        <time>2017-06-01T12:17:33.000Z</time>
      </trkpt>
      <trkpt lat="43.47854" lon="2.27805">
        <ele>666.7</ele>
        <time>2017-06-01T12:17:34.000Z</time>
      </trkpt>
      <trkpt lat="43.47851" lon="2.27807">
        <ele>666.9</ele>
        <time>2017-06-01T12:17:35.000Z</time>
      </trkpt>
      <trkpt lat="43.47847" lon="2.27809">
        <ele>667.1</ele>
        <time>2017-06-01T12:17:36.000Z</time>
      </trkpt>
      <trkpt lat="43.47844" lon="2.27809">
        <ele>667.2</ele>
        <time>2017-06-01T12:17:37.000Z</time>
      </trkpt>
      <trkpt lat="43.47841" lon="2.2781">
        <ele>667.4</ele>
        <time>2017-06-01T12:17:38.000Z</time>
      </trkpt>
      <trkpt lat="43.47837" lon="2.2781">
        <ele>667.6</ele>
        <time>2017-06-01T12:17:39.000Z</time>
      </trkpt>
      <trkpt lat="43.47834" lon="2.27811">
        <ele>667.7</ele>
        <time>2017-06-01T12:17:40.000Z</time>
      </trkpt>
      <trkpt lat="43.47831" lon="2.27811">
        <ele>667.9</ele>
        <time>2017-06-01T12:17:41.000Z</time>
      </trkpt>
      <trkpt lat="43.47828" lon="2.27811">
        <ele>668.1</ele>
        <time>2017-06-01T12:17:42.000Z</time>
      </trkpt>
      <trkpt lat="43.47823" lon="2.27811">
        <ele>668.3</ele>
        <time>2017-06-01T12:17:43.000Z</time>
      </trkpt>
      <trkpt lat="43.47819" lon="2.27811">
        <ele>668.5</ele>
        <time>2017-06-01T12:17:44.000Z</time>
      </trkpt>
      <trkpt lat="43.47816" lon="2.27811">
        <ele>668.6</ele>
        <time>2017-06-01T12:17:45.000Z</time>
      </trkpt>
      <trkpt lat="43.47812" lon="2.27812">
        <ele>668.8</ele>
        <time>2017-06-01T12:17:46.000Z</time>
      </trkpt>
      <trkpt lat="43.47809" lon="2.27811">
        <ele>669</ele>
        <time>2017-06-01T12:17:47.000Z</time>
      </trkpt>
      <trkpt lat="43.47805" lon="2.27812">
        <ele>669.1</ele>
        <time>2017-06-01T12:17:48.000Z</time>
      </trkpt>
      <trkpt lat="43.47802" lon="2.27811">
        <ele>669.3</ele>
        <time>2017-06-01T12:17:49.000Z</time>
      </trkpt>
      <trkpt lat="43.47797" lon="2.2781">
        <ele>669.5</ele>
        <time>2017-06-01T12:17:50.000Z</time>
      </trkpt>
      <trkpt lat="43.47795" lon="2.2781">
        <ele>669.6</ele>
        <time>2017-06-01T12:17:51.000Z</time>
      </trkpt>
      <trkpt lat="43.47793" lon="2.27807">
        <ele>669.7</ele>
        <time>2017-06-01T12:17:52.000Z</time>
      </trkpt>
      <trkpt lat="43.4779" lon="2.27807">
        <ele>669.9</ele>
        <time>2017-06-01T12:17:53.000Z</time>
      </trkpt>
      <trkpt lat="43.47786" lon="2.27805">
        <ele>670</ele>
        <time>2017-06-01T12:17:54.000Z</time>
      </trkpt>
      <trkpt lat="43.47781" lon="2.27805">
        <ele>670.2</ele>
        <time>2017-06-01T12:17:56.000Z</time>
      </trkpt>
      <trkpt lat="43.47778" lon="2.27806">
        <ele>670.4</ele>
        <time>2017-06-01T12:17:57.000Z</time>
      </trkpt>
      <trkpt lat="43.47775" lon="2.27806">
        <ele>670.5</ele>
        <time>2017-06-01T12:17:58.000Z</time>
      </trkpt>
      <trkpt lat="43.47772" lon="2.27806">
        <ele>670.6</ele>
        <time>2017-06-01T12:17:59.000Z</time>
      </trkpt>
      <trkpt lat="43.47768" lon="2.27807">
        <ele>670.8</ele>
        <time>2017-06-01T12:18:00.000Z</time>
      </trkpt>
      <trkpt lat="43.47763" lon="2.27806">
        <ele>671</ele>
        <time>2017-06-01T12:18:02.000Z</time>
      </trkpt>
      <trkpt lat="43.47757" lon="2.27807">
        <ele>671.2</ele>
        <time>2017-06-01T12:18:04.000Z</time>
      </trkpt>
      <trkpt lat="43.47754" lon="2.27807">
        <ele>671.4</ele>
        <time>2017-06-01T12:18:05.000Z</time>
      </trkpt>
      <trkpt lat="43.47751" lon="2.27806">
        <ele>671.5</ele>
        <time>2017-06-01T12:18:06.000Z</time>
      </trkpt>
      <trkpt lat="43.47748" lon="2.27807">
        <ele>671.6</ele>
        <time>2017-06-01T12:18:07.000Z</time>
      </trkpt>
      <trkpt lat="43.47744" lon="2.27807">
        <ele>671.8</ele>
        <time>2017-06-01T12:18:08.000Z</time>
      </trkpt>
      <trkpt lat="43.47741" lon="2.27807">
        <ele>671.9</ele>
        <time>2017-06-01T12:18:09.000Z</time>
      </trkpt>
      <trkpt lat="43.47736" lon="2.27809">
        <ele>672.2</ele>
        <time>2017-06-01T12:18:11.000Z</time>
      </trkpt>
      <trkpt lat="43.47732" lon="2.27809">
        <ele>672.4</ele>
        <time>2017-06-01T12:18:12.000Z</time>
      </trkpt>
      <trkpt lat="43.47729" lon="2.2781">
        <ele>672.6</ele>
        <time>2017-06-01T12:18:13.000Z</time>
      </trkpt>
      <trkpt lat="43.47723" lon="2.27811">
        <ele>672.9</ele>
        <time>2017-06-01T12:18:15.000Z</time>
      </trkpt>
      <trkpt lat="43.47719" lon="2.27812">
        <ele>673.1</ele>
        <time>2017-06-01T12:18:16.000Z</time>
      </trkpt>
      <trkpt lat="43.47716" lon="2.27812">
        <ele>673.2</ele>
        <time>2017-06-01T12:18:17.000Z</time>
      </trkpt>
      <trkpt lat="43.47712" lon="2.27812">
        <ele>673.4</ele>
        <time>2017-06-01T12:18:18.000Z</time>
      </trkpt>
      <trkpt lat="43.47709" lon="2.27812">
        <ele>673.5</ele>
        <time>2017-06-01T12:18:19.000Z</time>
      </trkpt>
      <trkpt lat="43.47704" lon="2.27813">
        <ele>673.7</ele>
        <time>2017-06-01T12:18:21.000Z</time>
      </trkpt>
      <trkpt lat="43.477" lon="2.27815">
        <ele>673.9</ele>
        <time>2017-06-01T12:18:22.000Z</time>
      </trkpt>
      <trkpt lat="43.47694" lon="2.27815">
        <ele>674.2</ele>
        <time>2017-06-01T12:18:24.000Z</time>
      </trkpt>
      <trkpt lat="43.4769" lon="2.27816">
        <ele>674.4</ele>
        <time>2017-06-01T12:18:25.000Z</time>
      </trkpt>
      <trkpt lat="43.47688" lon="2.27813">
        <ele>674.6</ele>
        <time>2017-06-01T12:18:27.000Z</time>
      </trkpt>
      <trkpt lat="43.47683" lon="2.27815">
        <ele>674.9</ele>
        <time>2017-06-01T12:18:28.000Z</time>
      </trkpt>
      <trkpt lat="43.47678" lon="2.27816">
        <ele>675.1</ele>
        <time>2017-06-01T12:18:30.000Z</time>
      </trkpt>
      <trkpt lat="43.47675" lon="2.27818">
        <ele>675.3</ele>
        <time>2017-06-01T12:18:31.000Z</time>
      </trkpt>
      <trkpt lat="43.47671" lon="2.2782">
        <ele>675.5</ele>
        <time>2017-06-01T12:18:32.000Z</time>
      </trkpt>
      <trkpt lat="43.47666" lon="2.27821">
        <ele>675.8</ele>
        <time>2017-06-01T12:18:34.000Z</time>
      </trkpt>
      <trkpt lat="43.47661" lon="2.27822">
        <ele>676</ele>
        <time>2017-06-01T12:18:35.000Z</time>
      </trkpt>
      <trkpt lat="43.47659" lon="2.27825">
        <ele>676.2</ele>
        <time>2017-06-01T12:18:36.000Z</time>
      </trkpt>
      <trkpt lat="43.47655" lon="2.27826">
        <ele>676.4</ele>
        <time>2017-06-01T12:18:37.000Z</time>
      </trkpt>
      <trkpt lat="43.4765" lon="2.27828">
        <ele>676.7</ele>
        <time>2017-06-01T12:18:39.000Z</time>
      </trkpt>
      <trkpt lat="43.47645" lon="2.2783">
        <ele>677</ele>
        <time>2017-06-01T12:18:41.000Z</time>
      </trkpt>
      <trkpt lat="43.47639" lon="2.27831">
        <ele>677.4</ele>
        <time>2017-06-01T12:18:43.000Z</time>
      </trkpt>
      <trkpt lat="43.47636" lon="2.27832">
        <ele>677.5</ele>
        <time>2017-06-01T12:18:44.000Z</time>
      </trkpt>
      <trkpt lat="43.47632" lon="2.27833">
        <ele>677.8</ele>
        <time>2017-06-01T12:18:46.000Z</time>
      </trkpt>
      <trkpt lat="43.47626" lon="2.27835">
        <ele>678.2</ele>
        <time>2017-06-01T12:18:48.000Z</time>
      </trkpt>
      <trkpt lat="43.47621" lon="2.27835">
        <ele>678.5</ele>
        <time>2017-06-01T12:18:51.000Z</time>
      </trkpt>
      <trkpt lat="43.47616" lon="2.27838">
        <ele>678.9</ele>
        <time>2017-06-01T12:18:53.000Z</time>
      </trkpt>
      <trkpt lat="43.47611" lon="2.27839">
        <ele>679.3</ele>
        <time>2017-06-01T12:18:55.000Z</time>
      </trkpt>
      <trkpt lat="43.47606" lon="2.27842">
        <ele>679.6</ele>
        <time>2017-06-01T12:18:57.000Z</time>
      </trkpt>
      <trkpt lat="43.476" lon="2.27846">
        <ele>680</ele>
        <time>2017-06-01T12:18:58.000Z</time>
      </trkpt>
      <trkpt lat="43.47597" lon="2.27847">
        <ele>680.2</ele>
        <time>2017-06-01T12:18:59.000Z</time>
      </trkpt>
      <trkpt lat="43.47592" lon="2.27846">
        <ele>680.4</ele>
        <time>2017-06-01T12:19:01.000Z</time>
      </trkpt>
      <trkpt lat="43.47588" lon="2.27849">
        <ele>680.6</ele>
        <time>2017-06-01T12:19:02.000Z</time>
      </trkpt>
      <trkpt lat="43.47585" lon="2.2785">
        <ele>680.7</ele>
        <time>2017-06-01T12:19:03.000Z</time>
      </trkpt>
      <trkpt lat="43.47578" lon="2.27853">
        <ele>680.9</ele>
        <time>2017-06-01T12:19:05.000Z</time>
      </trkpt>
      <trkpt lat="43.47574" lon="2.27851">
        <ele>681</ele>
        <time>2017-06-01T12:19:06.000Z</time>
      </trkpt>
      <trkpt lat="43.4757" lon="2.27849">
        <ele>681.1</ele>
        <time>2017-06-01T12:19:08.000Z</time>
      </trkpt>
      <trkpt lat="43.47565" lon="2.27848">
        <ele>681.2</ele>
        <time>2017-06-01T12:19:10.000Z</time>
      </trkpt>
      <trkpt lat="43.47562" lon="2.27849">
        <ele>681.3</ele>
        <time>2017-06-01T12:19:11.000Z</time>
      </trkpt>
      <trkpt lat="43.47559" lon="2.2785">
        <ele>681.4</ele>
        <time>2017-06-01T12:19:12.000Z</time>
      </trkpt>
      <trkpt lat="43.47553" lon="2.27852">
        <ele>681.4</ele>
        <time>2017-06-01T12:19:13.000Z</time>
      </trkpt>
      <trkpt lat="43.47549" lon="2.27853">
        <ele>681.4</ele>
        <time>2017-06-01T12:19:14.000Z</time>
      </trkpt>
      <trkpt lat="43.47544" lon="2.27853">
        <ele>681.5</ele>
        <time>2017-06-01T12:19:15.000Z</time>
      </trkpt>
      <trkpt lat="43.47541" lon="2.27854">
        <ele>681.5</ele>
        <time>2017-06-01T12:19:16.000Z</time>
      </trkpt>
      <trkpt lat="43.47536" lon="2.27853">
        <ele>681.5</ele>
        <time>2017-06-01T12:19:17.000Z</time>
      </trkpt>
      <trkpt lat="43.47533" lon="2.27855">
        <ele>681.6</ele>
        <time>2017-06-01T12:19:18.000Z</time>
      </trkpt>
      <trkpt lat="43.47528" lon="2.27854">
        <ele>681.6</ele>
        <time>2017-06-01T12:19:19.000Z</time>
      </trkpt>
      <trkpt lat="43.47523" lon="2.27854">
        <ele>681.6</ele>
        <time>2017-06-01T12:19:20.000Z</time>
      </trkpt>
      <trkpt lat="43.47521" lon="2.27852">
        <ele>681.6</ele>
        <time>2017-06-01T12:19:21.000Z</time>
      </trkpt>
      <trkpt lat="43.47517" lon="2.27852">
        <ele>681.6</ele>
        <time>2017-06-01T12:19:22.000Z</time>
      </trkpt>
      <trkpt lat="43.47513" lon="2.27851">
        <ele>681.6</ele>
        <time>2017-06-01T12:19:23.000Z</time>
      </trkpt>
      <trkpt lat="43.47507" lon="2.27851">
        <ele>681.6</ele>
        <time>2017-06-01T12:19:24.000Z</time>
      </trkpt>
      <trkpt lat="43.47502" lon="2.27852">
        <ele>681.6</ele>
        <time>2017-06-01T12:19:25.000Z</time>
      </trkpt>
      <trkpt lat="43.47498" lon="2.27851">
        <ele>681.6</ele>
        <time>2017-06-01T12:19:26.000Z</time>
      </trkpt>
      <trkpt lat="43.47493" lon="2.27851">
        <ele>681.6</ele>
        <time>2017-06-01T12:19:27.000Z</time>
      </trkpt>
      <trkpt lat="43.47489" lon="2.2785">
        <ele>681.6</ele>
        <time>2017-06-01T12:19:28.000Z</time>
      </trkpt>
      <trkpt lat="43.47485" lon="2.27847">
        <ele>681.6</ele>
        <time>2017-06-01T12:19:29.000Z</time>
      </trkpt>
      <trkpt lat="43.4748" lon="2.27848">
        <ele>681.6</ele>
        <time>2017-06-01T12:19:30.000Z</time>
      </trkpt>
      <trkpt lat="43.47475" lon="2.27849">
        <ele>681.5</ele>
        <time>2017-06-01T12:19:31.000Z</time>
      </trkpt>
      <trkpt lat="43.47472" lon="2.27849">
        <ele>681.5</ele>
        <time>2017-06-01T12:19:32.000Z</time>
      </trkpt>
      <trkpt lat="43.47467" lon="2.27849">
        <ele>681.5</ele>
        <time>2017-06-01T12:19:33.000Z</time>
      </trkpt>
      <trkpt lat="43.47463" lon="2.27849">
        <ele>681.5</ele>
        <time>2017-06-01T12:19:34.000Z</time>
      </trkpt>
      <trkpt lat="43.47461" lon="2.27845">
        <ele>681.5</ele>
        <time>2017-06-01T12:19:36.000Z</time>
      </trkpt>
      <trkpt lat="43.47458" lon="2.27843">
        <ele>681.5</ele>
        <time>2017-06-01T12:19:37.000Z</time>
      </trkpt>
      <trkpt lat="43.4745" lon="2.27845">
        <ele>681.4</ele>
        <time>2017-06-01T12:19:38.000Z</time>
      </trkpt>
      <trkpt lat="43.47449" lon="2.27841">
        <ele>681.4</ele>
        <time>2017-06-01T12:19:39.000Z</time>
      </trkpt>
      <trkpt lat="43.47444" lon="2.27839">
        <ele>681.4</ele>
        <time>2017-06-01T12:19:40.000Z</time>
      </trkpt>
      <trkpt lat="43.47438" lon="2.27839">
        <ele>681.4</ele>
        <time>2017-06-01T12:19:41.000Z</time>
      </trkpt>
      <trkpt lat="43.47433" lon="2.27836">
        <ele>681.4</ele>
        <time>2017-06-01T12:19:42.000Z</time>
      </trkpt>
      <trkpt lat="43.47431" lon="2.27831">
        <ele>681.4</ele>
        <time>2017-06-01T12:19:43.000Z</time>
      </trkpt>
      <trkpt lat="43.47426" lon="2.27829">
        <ele>681.3</ele>
        <time>2017-06-01T12:19:44.000Z</time>
      </trkpt>
      <trkpt lat="43.47422" lon="2.27824">
        <ele>681.3</ele>
        <time>2017-06-01T12:19:45.000Z</time>
      </trkpt>
      <trkpt lat="43.47419" lon="2.27819">
        <ele>681.3</ele>
        <time>2017-06-01T12:19:46.000Z</time>
      </trkpt>
      <trkpt lat="43.47417" lon="2.27815">
        <ele>681.3</ele>
        <time>2017-06-01T12:19:47.000Z</time>
      </trkpt>
      <trkpt lat="43.4741" lon="2.27816">
        <ele>681.3</ele>
        <time>2017-06-01T12:19:48.000Z</time>
      </trkpt>
      <trkpt lat="43.47409" lon="2.27808">
        <ele>681.3</ele>
        <time>2017-06-01T12:19:49.000Z</time>
      </trkpt>
      <trkpt lat="43.47403" lon="2.27809">
        <ele>681.4</ele>
        <time>2017-06-01T12:19:50.000Z</time>
      </trkpt>
      <trkpt lat="43.474" lon="2.27805">
        <ele>681.4</ele>
        <time>2017-06-01T12:19:51.000Z</time>
      </trkpt>
      <trkpt lat="43.47396" lon="2.27806">
        <ele>681.4</ele>
        <time>2017-06-01T12:19:52.000Z</time>
      </trkpt>
      <trkpt lat="43.4739" lon="2.27809">
        <ele>681.4</ele>
        <time>2017-06-01T12:19:53.000Z</time>
      </trkpt>
      <trkpt lat="43.47386" lon="2.2781">
        <ele>681.4</ele>
        <time>2017-06-01T12:19:54.000Z</time>
      </trkpt>
      <trkpt lat="43.47382" lon="2.27808">
        <ele>681.4</ele>
        <time>2017-06-01T12:19:56.000Z</time>
      </trkpt>
      <trkpt lat="43.4738" lon="2.27804">
        <ele>681.5</ele>
        <time>2017-06-01T12:19:57.000Z</time>
      </trkpt>
      <trkpt lat="43.47373" lon="2.27805">
        <ele>681.5</ele>
        <time>2017-06-01T12:19:59.000Z</time>
      </trkpt>
      <trkpt lat="43.47366" lon="2.27809">
        <ele>681.5</ele>
        <time>2017-06-01T12:20:00.000Z</time>
      </trkpt>
      <trkpt lat="43.47362" lon="2.27805">
        <ele>681.6</ele>
        <time>2017-06-01T12:20:01.000Z</time>
      </trkpt>
      <trkpt lat="43.47359" lon="2.27803">
        <ele>681.6</ele>
        <time>2017-06-01T12:20:02.000Z</time>
      </trkpt>
      <trkpt lat="43.47356" lon="2.27802">
        <ele>681.7</ele>
        <time>2017-06-01T12:20:03.000Z</time>
      </trkpt>
      <trkpt lat="43.47352" lon="2.27804">
        <ele>681.7</ele>
        <time>2017-06-01T12:20:04.000Z</time>
      </trkpt>
      <trkpt lat="43.47348" lon="2.27805">
        <ele>681.8</ele>
        <time>2017-06-01T12:20:05.000Z</time>
      </trkpt>
      <trkpt lat="43.47346" lon="2.27801">
        <ele>681.9</ele>
        <time>2017-06-01T12:20:06.000Z</time>
      </trkpt>
      <trkpt lat="43.47342" lon="2.27798">
        <ele>682</ele>
        <time>2017-06-01T12:20:08.000Z</time>
      </trkpt>
      <trkpt lat="43.47338" lon="2.27799">
        <ele>682.1</ele>
        <time>2017-06-01T12:20:09.000Z</time>
      </trkpt>
      <trkpt lat="43.47339" lon="2.27793">
        <ele>682.2</ele>
        <time>2017-06-01T12:20:10.000Z</time>
      </trkpt>
      <trkpt lat="43.47339" lon="2.27787">
        <ele>682.3</ele>
        <time>2017-06-01T12:20:11.000Z</time>
      </trkpt>
      <trkpt lat="43.47337" lon="2.27783">
        <ele>682.4</ele>
        <time>2017-06-01T12:20:12.000Z</time>
      </trkpt>
      <trkpt lat="43.47333" lon="2.27784">
        <ele>682.6</ele>
        <time>2017-06-01T12:20:13.000Z</time>
      </trkpt>
      <trkpt lat="43.47333" lon="2.27778">
        <ele>682.8</ele>
        <time>2017-06-01T12:20:14.000Z</time>
      </trkpt>
      <trkpt lat="43.47329" lon="2.27781">
        <ele>683.1</ele>
        <time>2017-06-01T12:20:15.000Z</time>
      </trkpt>
      <trkpt lat="43.47324" lon="2.27788">
        <ele>683.6</ele>
        <time>2017-06-01T12:20:17.000Z</time>
      </trkpt>
      <trkpt lat="43.47322" lon="2.27792">
        <ele>683.9</ele>
        <time>2017-06-01T12:20:18.000Z</time>
      </trkpt>
      <trkpt lat="43.4732" lon="2.27799">
        <ele>684.3</ele>
        <time>2017-06-01T12:20:19.000Z</time>
      </trkpt>
      <trkpt lat="43.47319" lon="2.27803">
        <ele>684.5</ele>
        <time>2017-06-01T12:20:20.000Z</time>
      </trkpt>
      <trkpt lat="43.47319" lon="2.27809">
        <ele>684.8</ele>
        <time>2017-06-01T12:20:21.000Z</time>
      </trkpt>
      <trkpt lat="43.47321" lon="2.27813">
        <ele>685</ele>
        <time>2017-06-01T12:20:22.000Z</time>
      </trkpt>
      <trkpt lat="43.47323" lon="2.27816">
        <ele>685.2</ele>
        <time>2017-06-01T12:20:23.000Z</time>
      </trkpt>
      <trkpt lat="43.47323" lon="2.2782">
        <ele>685.3</ele>
        <time>2017-06-01T12:20:24.000Z</time>
      </trkpt>
      <trkpt lat="43.47328" lon="2.27822">
        <ele>685.6</ele>
        <time>2017-06-01T12:20:25.000Z</time>
      </trkpt>
      <trkpt lat="43.4733" lon="2.27825">
        <ele>685.8</ele>
        <time>2017-06-01T12:20:26.000Z</time>
      </trkpt>
      <trkpt lat="43.4733" lon="2.27829">
        <ele>685.9</ele>
        <time>2017-06-01T12:20:27.000Z</time>
      </trkpt>
      <trkpt lat="43.47334" lon="2.27834">
        <ele>686.1</ele>
        <time>2017-06-01T12:20:28.000Z</time>
      </trkpt>
      <trkpt lat="43.47336" lon="2.27837">
        <ele>686.2</ele>
        <time>2017-06-01T12:20:29.000Z</time>
      </trkpt>
      <trkpt lat="43.47338" lon="2.2784">
        <ele>686.3</ele>
        <time>2017-06-01T12:20:30.000Z</time>
      </trkpt>
      <trkpt lat="43.47342" lon="2.27842">
        <ele>686.4</ele>
        <time>2017-06-01T12:20:31.000Z</time>
      </trkpt>
      <trkpt lat="43.47343" lon="2.27846">
        <ele>686.5</ele>
        <time>2017-06-01T12:20:32.000Z</time>
      </trkpt>
      <trkpt lat="43.47345" lon="2.27853">
        <ele>686.6</ele>
        <time>2017-06-01T12:20:33.000Z</time>
      </trkpt>
      <trkpt lat="43.47343" lon="2.27858">
        <ele>686.7</ele>
        <time>2017-06-01T12:20:34.000Z</time>
      </trkpt>
      <trkpt lat="43.47346" lon="2.27862">
        <ele>686.8</ele>
        <time>2017-06-01T12:20:35.000Z</time>
      </trkpt>
      <trkpt lat="43.47349" lon="2.27864">
        <ele>686.9</ele>
        <time>2017-06-01T12:20:36.000Z</time>
      </trkpt>
      <trkpt lat="43.47351" lon="2.27868">
        <ele>687</ele>
        <time>2017-06-01T12:20:37.000Z</time>
      </trkpt>
      <trkpt lat="43.47353" lon="2.27872">
        <ele>687</ele>
        <time>2017-06-01T12:20:38.000Z</time>
      </trkpt>
      <trkpt lat="43.47353" lon="2.27875">
        <ele>687.1</ele>
        <time>2017-06-01T12:20:39.000Z</time>
      </trkpt>
      <trkpt lat="43.47354" lon="2.2788">
        <ele>687.2</ele>
        <time>2017-06-01T12:20:40.000Z</time>
      </trkpt>
      <trkpt lat="43.47356" lon="2.27885">
        <ele>687.2</ele>
        <time>2017-06-01T12:20:41.000Z</time>
      </trkpt>
      <trkpt lat="43.47356" lon="2.2789">
        <ele>687.3</ele>
        <time>2017-06-01T12:20:42.000Z</time>
      </trkpt>
      <trkpt lat="43.47357" lon="2.27894">
        <ele>687.4</ele>
        <time>2017-06-01T12:20:43.000Z</time>
      </trkpt>
      <trkpt lat="43.47356" lon="2.279">
        <ele>687.5</ele>
        <time>2017-06-01T12:20:44.000Z</time>
      </trkpt>
      <trkpt lat="43.47362" lon="2.279">
        <ele>687.7</ele>
        <time>2017-06-01T12:20:45.000Z</time>
      </trkpt>
      <trkpt lat="43.47363" lon="2.27903">
        <ele>687.8</ele>
        <time>2017-06-01T12:20:46.000Z</time>
      </trkpt>
      <trkpt lat="43.47367" lon="2.27907">
        <ele>687.9</ele>
        <time>2017-06-01T12:20:48.000Z</time>
      </trkpt>
      <trkpt lat="43.47368" lon="2.27912">
        <ele>688.1</ele>
        <time>2017-06-01T12:20:49.000Z</time>
      </trkpt>
      <trkpt lat="43.47372" lon="2.27915">
        <ele>688.3</ele>
        <time>2017-06-01T12:20:50.000Z</time>
      </trkpt>
      <trkpt lat="43.47373" lon="2.27919">
        <ele>688.4</ele>
        <time>2017-06-01T12:20:51.000Z</time>
      </trkpt>
      <trkpt lat="43.47371" lon="2.27928">
        <ele>688.9</ele>
        <time>2017-06-01T12:20:52.000Z</time>
      </trkpt>
      <trkpt lat="43.47372" lon="2.27932">
        <ele>689.2</ele>
        <time>2017-06-01T12:20:53.000Z</time>
      </trkpt>
      <trkpt lat="43.47373" lon="2.27939">
        <ele>689.5</ele>
        <time>2017-06-01T12:20:54.000Z</time>
      </trkpt>
      <trkpt lat="43.47376" lon="2.27937">
        <ele>689.8</ele>
        <time>2017-06-01T12:20:55.000Z</time>
      </trkpt>
      <trkpt lat="43.47379" lon="2.2794">
        <ele>690.1</ele>
        <time>2017-06-01T12:20:56.000Z</time>
      </trkpt>
      <trkpt lat="43.47376" lon="2.27946">
        <ele>690.4</ele>
        <time>2017-06-01T12:20:57.000Z</time>
      </trkpt>
      <trkpt lat="43.47374" lon="2.27953">
        <ele>690.8</ele>
        <time>2017-06-01T12:20:59.000Z</time>
      </trkpt>
      <trkpt lat="43.47372" lon="2.27957">
        <ele>691</ele>
        <time>2017-06-01T12:21:01.000Z</time>
      </trkpt>
      <trkpt lat="43.47375" lon="2.27959">
        <ele>691.2</ele>
        <time>2017-06-01T12:21:02.000Z</time>
      </trkpt>
      <trkpt lat="43.47375" lon="2.27964">
        <ele>691.4</ele>
        <time>2017-06-01T12:21:03.000Z</time>
      </trkpt>
      <trkpt lat="43.47373" lon="2.2797">
        <ele>691.7</ele>
        <time>2017-06-01T12:21:04.000Z</time>
      </trkpt>
      <trkpt lat="43.47373" lon="2.27976">
        <ele>692</ele>
        <time>2017-06-01T12:21:05.000Z</time>
      </trkpt>
      <trkpt lat="43.47373" lon="2.27981">
        <ele>692.2</ele>
        <time>2017-06-01T12:21:06.000Z</time>
      </trkpt>
      <trkpt lat="43.47371" lon="2.27985">
        <ele>692.4</ele>
        <time>2017-06-01T12:21:07.000Z</time>
      </trkpt>
      <trkpt lat="43.47366" lon="2.27991">
        <ele>692.8</ele>
        <time>2017-06-01T12:21:09.000Z</time>
      </trkpt>
      <trkpt lat="43.47361" lon="2.27993">
        <ele>693</ele>
        <time>2017-06-01T12:21:10.000Z</time>
      </trkpt>
      <trkpt lat="43.47359" lon="2.27997">
        <ele>693.2</ele>
        <time>2017-06-01T12:21:11.000Z</time>
      </trkpt>
      <trkpt lat="43.47354" lon="2.28002">
        <ele>693.5</ele>
        <time>2017-06-01T12:21:13.000Z</time>
      </trkpt>
      <trkpt lat="43.47351" lon="2.28005">
        <ele>693.7</ele>
        <time>2017-06-01T12:21:14.000Z</time>
      </trkpt>
      <trkpt lat="43.47347" lon="2.28016">
        <ele>694</ele>
        <time>2017-06-01T12:21:16.000Z</time>
      </trkpt>
      <trkpt lat="43.47349" lon="2.28024">
        <ele>694.4</ele>
        <time>2017-06-01T12:21:18.000Z</time>
      </trkpt>
      <trkpt lat="43.47349" lon="2.28028">
        <ele>694.6</ele>
        <time>2017-06-01T12:21:19.000Z</time>
      </trkpt>
      <trkpt lat="43.4735" lon="2.28035">
        <ele>694.9</ele>
        <time>2017-06-01T12:21:21.000Z</time>
      </trkpt>
      <trkpt lat="43.47351" lon="2.28043">
        <ele>695.2</ele>
        <time>2017-06-01T12:21:23.000Z</time>
      </trkpt>
      <trkpt lat="43.47353" lon="2.28047">
        <ele>695.3</ele>
        <time>2017-06-01T12:21:24.000Z</time>
      </trkpt>
      <trkpt lat="43.47357" lon="2.28047">
        <ele>695.7</ele>
        <time>2017-06-01T12:21:25.000Z</time>
      </trkpt>
      <trkpt lat="43.47359" lon="2.28052">
        <ele>696</ele>
        <time>2017-06-01T12:21:26.000Z</time>
      </trkpt>
      <trkpt lat="43.47362" lon="2.28051">
        <ele>696.2</ele>
        <time>2017-06-01T12:21:27.000Z</time>
      </trkpt>
      <trkpt lat="43.47365" lon="2.28052">
        <ele>696.4</ele>
        <time>2017-06-01T12:21:28.000Z</time>
      </trkpt>
      <trkpt lat="43.47367" lon="2.28055">
        <ele>696.6</ele>
        <time>2017-06-01T12:21:29.000Z</time>
      </trkpt>
      <trkpt lat="43.4737" lon="2.28058">
        <ele>696.8</ele>
        <time>2017-06-01T12:21:30.000Z</time>
      </trkpt>
      <trkpt lat="43.47374" lon="2.28059">
        <ele>697.1</ele>
        <time>2017-06-01T12:21:31.000Z</time>
      </trkpt>
      <trkpt lat="43.47379" lon="2.2806">
        <ele>697.4</ele>
        <time>2017-06-01T12:21:32.000Z</time>
      </trkpt>
      <trkpt lat="43.47382" lon="2.28063">
        <ele>697.6</ele>
        <time>2017-06-01T12:21:33.000Z</time>
      </trkpt>
      <trkpt lat="43.47384" lon="2.28068">
        <ele>697.8</ele>
        <time>2017-06-01T12:21:34.000Z</time>
      </trkpt>
      <trkpt lat="43.47387" lon="2.28071">
        <ele>698</ele>
        <time>2017-06-01T12:21:35.000Z</time>
      </trkpt>
      <trkpt lat="43.47388" lon="2.28075">
        <ele>698.2</ele>
        <time>2017-06-01T12:21:36.000Z</time>
      </trkpt>
      <trkpt lat="43.47389" lon="2.28079">
        <ele>698.3</ele>
        <time>2017-06-01T12:21:37.000Z</time>
      </trkpt>
      <trkpt lat="43.47392" lon="2.28081">
        <ele>698.5</ele>
        <time>2017-06-01T12:21:38.000Z</time>
      </trkpt>
      <trkpt lat="43.47396" lon="2.28084">
        <ele>698.7</ele>
        <time>2017-06-01T12:21:39.000Z</time>
      </trkpt>
      <trkpt lat="43.47397" lon="2.28091">
        <ele>699</ele>
        <time>2017-06-01T12:21:41.000Z</time>
      </trkpt>
      <trkpt lat="43.47397" lon="2.28096">
        <ele>699.1</ele>
        <time>2017-06-01T12:21:42.000Z</time>
      </trkpt>
      <trkpt lat="43.47399" lon="2.28101">
        <ele>699.3</ele>
        <time>2017-06-01T12:21:43.000Z</time>
      </trkpt>
      <trkpt lat="43.47402" lon="2.28107">
        <ele>699.5</ele>
        <time>2017-06-01T12:21:45.000Z</time>
      </trkpt>
      <trkpt lat="43.47406" lon="2.28109">
        <ele>699.7</ele>
        <time>2017-06-01T12:21:46.000Z</time>
      </trkpt>
      <trkpt lat="43.47413" lon="2.2811">
        <ele>700</ele>
        <time>2017-06-01T12:21:48.000Z</time>
      </trkpt>
      <trkpt lat="43.47416" lon="2.28111">
        <ele>700.1</ele>
        <time>2017-06-01T12:21:49.000Z</time>
      </trkpt>
      <trkpt lat="43.47422" lon="2.28113">
        <ele>700.4</ele>
        <time>2017-06-01T12:21:51.000Z</time>
      </trkpt>
      <trkpt lat="43.47425" lon="2.2812">
        <ele>700.8</ele>
        <time>2017-06-01T12:21:53.000Z</time>
      </trkpt>
      <trkpt lat="43.4743" lon="2.28124">
        <ele>701.1</ele>
        <time>2017-06-01T12:21:55.000Z</time>
      </trkpt>
      <trkpt lat="43.47431" lon="2.28129">
        <ele>701.4</ele>
        <time>2017-06-01T12:21:56.000Z</time>
      </trkpt>
      <trkpt lat="43.47434" lon="2.28131">
        <ele>701.7</ele>
        <time>2017-06-01T12:21:57.000Z</time>
      </trkpt>
      <trkpt lat="43.47435" lon="2.28137">
        <ele>702.2</ele>
        <time>2017-06-01T12:21:59.000Z</time>
      </trkpt>
      <trkpt lat="43.47437" lon="2.28142">
        <ele>702.7</ele>
        <time>2017-06-01T12:22:00.000Z</time>
      </trkpt>
      <trkpt lat="43.4744" lon="2.28144">
        <ele>703.1</ele>
        <time>2017-06-01T12:22:02.000Z</time>
      </trkpt>
      <trkpt lat="43.47443" lon="2.28146">
        <ele>703.3</ele>
        <time>2017-06-01T12:22:03.000Z</time>
      </trkpt>
      <trkpt lat="43.47446" lon="2.28149">
        <ele>703.6</ele>
        <time>2017-06-01T12:22:05.000Z</time>
      </trkpt>
      <trkpt lat="43.47447" lon="2.28153">
        <ele>703.9</ele>
        <time>2017-06-01T12:22:07.000Z</time>
      </trkpt>
      <trkpt lat="43.47447" lon="2.28161">
        <ele>704.6</ele>
        <time>2017-06-01T12:22:09.000Z</time>
      </trkpt>
      <trkpt lat="43.47447" lon="2.28165">
        <ele>705</ele>
        <time>2017-06-01T12:22:10.000Z</time>
      </trkpt>
      <trkpt lat="43.47444" lon="2.28172">
        <ele>705.4</ele>
        <time>2017-06-01T12:22:11.000Z</time>
      </trkpt>
      <trkpt lat="43.47447" lon="2.28173">
        <ele>705.7</ele>
        <time>2017-06-01T12:22:13.000Z</time>
      </trkpt>
      <trkpt lat="43.47449" lon="2.2818">
        <ele>706.1</ele>
        <time>2017-06-01T12:22:15.000Z</time>
      </trkpt>
      <trkpt lat="43.47449" lon="2.28184">
        <ele>706.4</ele>
        <time>2017-06-01T12:22:16.000Z</time>
      </trkpt>
      <trkpt lat="43.47451" lon="2.28189">
        <ele>706.8</ele>
        <time>2017-06-01T12:22:18.000Z</time>
      </trkpt>
      <trkpt lat="43.47452" lon="2.28195">
        <ele>707.2</ele>
        <time>2017-06-01T12:22:20.000Z</time>
      </trkpt>
      <trkpt lat="43.47454" lon="2.282">
        <ele>707.6</ele>
        <time>2017-06-01T12:22:22.000Z</time>
      </trkpt>
      <trkpt lat="43.47454" lon="2.28203">
        <ele>707.8</ele>
        <time>2017-06-01T12:22:23.000Z</time>
      </trkpt>
      <trkpt lat="43.47454" lon="2.28207">
        <ele>708.1</ele>
        <time>2017-06-01T12:22:24.000Z</time>
      </trkpt>
      <trkpt lat="43.47453" lon="2.28213">
        <ele>708.5</ele>
        <time>2017-06-01T12:22:26.000Z</time>
      </trkpt>
      <trkpt lat="43.47455" lon="2.28217">
        <ele>708.7</ele>
        <time>2017-06-01T12:22:28.000Z</time>
      </trkpt>
      <trkpt lat="43.47457" lon="2.28223">
        <ele>709.1</ele>
        <time>2017-06-01T12:22:30.000Z</time>
      </trkpt>
      <trkpt lat="43.47462" lon="2.28227">
        <ele>709.4</ele>
        <time>2017-06-01T12:22:32.000Z</time>
      </trkpt>
      <trkpt lat="43.47463" lon="2.28232">
        <ele>709.6</ele>
        <time>2017-06-01T12:22:33.000Z</time>
      </trkpt>
      <trkpt lat="43.47465" lon="2.28236">
        <ele>709.8</ele>
        <time>2017-06-01T12:22:34.000Z</time>
      </trkpt>
      <trkpt lat="43.47468" lon="2.28237">
        <ele>710</ele>
        <time>2017-06-01T12:22:35.000Z</time>
      </trkpt>
      <trkpt lat="43.47473" lon="2.28239">
        <ele>710.3</ele>
        <time>2017-06-01T12:22:37.000Z</time>
      </trkpt>
      <trkpt lat="43.47472" lon="2.28243">
        <ele>710.5</ele>
        <time>2017-06-01T12:22:39.000Z</time>
      </trkpt>
      <trkpt lat="43.47473" lon="2.2825">
        <ele>710.8</ele>
        <time>2017-06-01T12:22:41.000Z</time>
      </trkpt>
      <trkpt lat="43.47475" lon="2.28252">
        <ele>711</ele>
        <time>2017-06-01T12:22:42.000Z</time>
      </trkpt>
      <trkpt lat="43.47476" lon="2.28257">
        <ele>711.2</ele>
        <time>2017-06-01T12:22:43.000Z</time>
      </trkpt>
      <trkpt lat="43.47484" lon="2.28256">
        <ele>711.9</ele>
        <time>2017-06-01T12:22:45.000Z</time>
      </trkpt>
      <trkpt lat="43.47488" lon="2.28258">
        <ele>712.3</ele>
        <time>2017-06-01T12:22:47.000Z</time>
      </trkpt>
      <trkpt lat="43.47491" lon="2.28258">
        <ele>712.6</ele>
        <time>2017-06-01T12:22:48.000Z</time>
      </trkpt>
      <trkpt lat="43.47492" lon="2.28264">
        <ele>713.1</ele>
        <time>2017-06-01T12:22:50.000Z</time>
      </trkpt>
      <trkpt lat="43.47493" lon="2.28269">
        <ele>713.6</ele>
        <time>2017-06-01T12:22:52.000Z</time>
      </trkpt>
      <trkpt lat="43.47495" lon="2.28274">
        <ele>714</ele>
        <time>2017-06-01T12:22:54.000Z</time>
      </trkpt>
      <trkpt lat="43.47499" lon="2.28275">
        <ele>714.6</ele>
        <time>2017-06-01T12:22:56.000Z</time>
      </trkpt>
      <trkpt lat="43.475" lon="2.28281">
        <ele>715.3</ele>
        <time>2017-06-01T12:23:00.000Z</time>
      </trkpt>
      <trkpt lat="43.47502" lon="2.28285">
        <ele>715.6</ele>
        <time>2017-06-01T12:23:01.000Z</time>
      </trkpt>
      <trkpt lat="43.47502" lon="2.28291">
        <ele>716.1</ele>
        <time>2017-06-01T12:23:02.000Z</time>
      </trkpt>
      <trkpt lat="43.47502" lon="2.28297">
        <ele>716.5</ele>
        <time>2017-06-01T12:23:05.000Z</time>
      </trkpt>
      <trkpt lat="43.47504" lon="2.283">
        <ele>716.9</ele>
        <time>2017-06-01T12:23:06.000Z</time>
      </trkpt>
      <trkpt lat="43.47507" lon="2.28303">
        <ele>717.2</ele>
        <time>2017-06-01T12:23:07.000Z</time>
      </trkpt>
      <trkpt lat="43.47509" lon="2.28306">
        <ele>717.6</ele>
        <time>2017-06-01T12:23:08.000Z</time>
      </trkpt>
      <trkpt lat="43.47512" lon="2.28313">
        <ele>718.1</ele>
        <time>2017-06-01T12:23:10.000Z</time>
      </trkpt>
      <trkpt lat="43.47514" lon="2.28319">
        <ele>718.7</ele>
        <time>2017-06-01T12:23:12.000Z</time>
      </trkpt>
      <trkpt lat="43.47516" lon="2.28322">
        <ele>719.2</ele>
        <time>2017-06-01T12:23:14.000Z</time>
      </trkpt>
      <trkpt lat="43.47518" lon="2.28326">
        <ele>719.8</ele>
        <time>2017-06-01T12:23:16.000Z</time>
      </trkpt>
      <trkpt lat="43.4752" lon="2.28331">
        <ele>720.3</ele>
        <time>2017-06-01T12:23:18.000Z</time>
      </trkpt>
      <trkpt lat="43.47523" lon="2.28331">
        <ele>720.6</ele>
        <time>2017-06-01T12:23:19.000Z</time>
      </trkpt>
      <trkpt lat="43.47525" lon="2.28333">
        <ele>720.8</ele>
        <time>2017-06-01T12:23:20.000Z</time>
      </trkpt>
      <trkpt lat="43.47528" lon="2.28334">
        <ele>721.1</ele>
        <time>2017-06-01T12:23:21.000Z</time>
      </trkpt>
      <trkpt lat="43.47533" lon="2.28335">
        <ele>721.5</ele>
        <time>2017-06-01T12:23:23.000Z</time>
      </trkpt>
      <trkpt lat="43.47537" lon="2.28337">
        <ele>721.8</ele>
        <time>2017-06-01T12:23:25.000Z</time>
      </trkpt>
      <trkpt lat="43.47541" lon="2.28339">
        <ele>722</ele>
        <time>2017-06-01T12:23:27.000Z</time>
      </trkpt>
      <trkpt lat="43.47544" lon="2.28339">
        <ele>722</ele>
        <time>2017-06-01T12:23:29.000Z</time>
      </trkpt>
      <trkpt lat="43.47547" lon="2.28339">
        <ele>722</ele>
        <time>2017-06-01T12:23:30.000Z</time>
      </trkpt>
      <trkpt lat="43.4755" lon="2.28339">
        <ele>722</ele>
        <time>2017-06-01T12:23:31.000Z</time>
      </trkpt>
      <trkpt lat="43.47553" lon="2.28339">
        <ele>721.4</ele>
        <time>2017-06-01T12:23:32.000Z</time>
      </trkpt>
      <trkpt lat="43.47557" lon="2.28338">
        <ele>721.1</ele>
        <time>2017-06-01T12:23:34.000Z</time>
      </trkpt>
      <trkpt lat="43.4756" lon="2.28338">
        <ele>721</ele>
        <time>2017-06-01T12:23:36.000Z</time>
      </trkpt>
      <trkpt lat="43.47562" lon="2.28333">
        <ele>721</ele>
        <time>2017-06-01T12:23:38.000Z</time>
      </trkpt>
      <trkpt lat="43.47565" lon="2.28331">
        <ele>720.9</ele>
        <time>2017-06-01T12:23:39.000Z</time>
      </trkpt>
      <trkpt lat="43.47569" lon="2.28319">
        <ele>721</ele>
        <time>2017-06-01T12:23:41.000Z</time>
      </trkpt>
      <trkpt lat="43.4757" lon="2.28315">
        <ele>721.1</ele>
        <time>2017-06-01T12:23:42.000Z</time>
      </trkpt>
      <trkpt lat="43.47572" lon="2.28312">
        <ele>721.1</ele>
        <time>2017-06-01T12:23:43.000Z</time>
      </trkpt>
      <trkpt lat="43.47574" lon="2.28309">
        <ele>721.2</ele>
        <time>2017-06-01T12:23:45.000Z</time>
      </trkpt>
      <trkpt lat="43.47576" lon="2.28305">
        <ele>721.2</ele>
        <time>2017-06-01T12:23:47.000Z</time>
      </trkpt>
      <trkpt lat="43.47578" lon="2.28301">
        <ele>721.3</ele>
        <time>2017-06-01T12:23:51.000Z</time>
      </trkpt>
      <trkpt lat="43.47582" lon="2.28299">
        <ele>721.4</ele>
        <time>2017-06-01T12:23:54.000Z</time>
      </trkpt>
      <trkpt lat="43.47585" lon="2.28297">
        <ele>721.5</ele>
        <time>2017-06-01T12:23:56.000Z</time>
      </trkpt>
      <trkpt lat="43.47588" lon="2.28295">
        <ele>721.5</ele>
        <time>2017-06-01T12:23:58.000Z</time>
      </trkpt>
      <trkpt lat="43.47594" lon="2.28296">
        <ele>721.6</ele>
        <time>2017-06-01T12:24:00.000Z</time>
      </trkpt>
      <trkpt lat="43.47599" lon="2.28295">
        <ele>721.6</ele>
        <time>2017-06-01T12:24:02.000Z</time>
      </trkpt>
      <trkpt lat="43.47603" lon="2.28296">
        <ele>721.6</ele>
        <time>2017-06-01T12:24:04.000Z</time>
      </trkpt>
      <trkpt lat="43.47606" lon="2.28296">
        <ele>721.6</ele>
        <time>2017-06-01T12:24:05.000Z</time>
      </trkpt>
      <trkpt lat="43.47609" lon="2.28298">
        <ele>721.6</ele>
        <time>2017-06-01T12:24:06.000Z</time>
      </trkpt>
      <trkpt lat="43.47612" lon="2.28301">
        <ele>721.6</ele>
        <time>2017-06-01T12:24:08.000Z</time>
      </trkpt>
      <trkpt lat="43.47615" lon="2.28307">
        <ele>721.5</ele>
        <time>2017-06-01T12:24:10.000Z</time>
      </trkpt>
      <trkpt lat="43.47616" lon="2.28311">
        <ele>721.5</ele>
        <time>2017-06-01T12:24:11.000Z</time>
      </trkpt>
      <trkpt lat="43.47617" lon="2.28315">
        <ele>721.5</ele>
        <time>2017-06-01T12:24:12.000Z</time>
      </trkpt>
      <trkpt lat="43.47618" lon="2.28319">
        <ele>721.5</ele>
        <time>2017-06-01T12:24:13.000Z</time>
      </trkpt>
      <trkpt lat="43.47619" lon="2.28323">
        <ele>721.5</ele>
        <time>2017-06-01T12:24:14.000Z</time>
      </trkpt>
      <trkpt lat="43.47619" lon="2.28326">
        <ele>721.5</ele>
        <time>2017-06-01T12:24:15.000Z</time>
      </trkpt>
      <trkpt lat="43.47619" lon="2.28332">
        <ele>721.6</ele>
        <time>2017-06-01T12:24:17.000Z</time>
      </trkpt>
      <trkpt lat="43.47621" lon="2.28336">
        <ele>721.6</ele>
        <time>2017-06-01T12:24:18.000Z</time>
      </trkpt>
      <trkpt lat="43.47621" lon="2.28343">
        <ele>721.6</ele>
        <time>2017-06-01T12:24:20.000Z</time>
      </trkpt>
      <trkpt lat="43.4762" lon="2.2835">
        <ele>721.6</ele>
        <time>2017-06-01T12:24:22.000Z</time>
      </trkpt>
      <trkpt lat="43.4762" lon="2.28354">
        <ele>721.6</ele>
        <time>2017-06-01T12:24:23.000Z</time>
      </trkpt>
      <trkpt lat="43.47619" lon="2.28358">
        <ele>721.7</ele>
        <time>2017-06-01T12:24:24.000Z</time>
      </trkpt>
      <trkpt lat="43.47617" lon="2.28364">
        <ele>721.7</ele>
        <time>2017-06-01T12:24:26.000Z</time>
      </trkpt>
      <trkpt lat="43.47615" lon="2.2837">
        <ele>721.7</ele>
        <time>2017-06-01T12:24:28.000Z</time>
      </trkpt>
      <trkpt lat="43.47613" lon="2.28375">
        <ele>721.8</ele>
        <time>2017-06-01T12:24:31.000Z</time>
      </trkpt>
      <trkpt lat="43.47611" lon="2.28379">
        <ele>721.8</ele>
        <time>2017-06-01T12:24:33.000Z</time>
      </trkpt>
      <trkpt lat="43.47608" lon="2.28381">
        <ele>721.8</ele>
        <time>2017-06-01T12:24:34.000Z</time>
      </trkpt>
      <trkpt lat="43.47606" lon="2.28384">
        <ele>721.9</ele>
        <time>2017-06-01T12:24:36.000Z</time>
      </trkpt>
      <trkpt lat="43.47602" lon="2.28388">
        <ele>721.9</ele>
        <time>2017-06-01T12:24:38.000Z</time>
      </trkpt>
      <trkpt lat="43.47598" lon="2.28391">
        <ele>721.9</ele>
        <time>2017-06-01T12:24:40.000Z</time>
      </trkpt>
      <trkpt lat="43.47596" lon="2.28393">
        <ele>721.9</ele>
        <time>2017-06-01T12:24:41.000Z</time>
      </trkpt>
      <trkpt lat="43.47593" lon="2.28394">
        <ele>721.9</ele>
        <time>2017-06-01T12:24:42.000Z</time>
      </trkpt>
      <trkpt lat="43.47589" lon="2.28399">
        <ele>722</ele>
        <time>2017-06-01T12:24:44.000Z</time>
      </trkpt>
      <trkpt lat="43.47586" lon="2.284">
        <ele>722</ele>
        <time>2017-06-01T12:24:45.000Z</time>
      </trkpt>
      <trkpt lat="43.47583" lon="2.28403">
        <ele>722</ele>
        <time>2017-06-01T12:24:46.000Z</time>
      </trkpt>
      <trkpt lat="43.47579" lon="2.28403">
        <ele>722</ele>
        <time>2017-06-01T12:24:47.000Z</time>
      </trkpt>
      <trkpt lat="43.47574" lon="2.28406">
        <ele>722.3</ele>
        <time>2017-06-01T12:24:49.000Z</time>
      </trkpt>
      <trkpt lat="43.47573" lon="2.28411">
        <ele>723.3</ele>
        <time>2017-06-01T12:24:50.000Z</time>
      </trkpt>
      <trkpt lat="43.47568" lon="2.28411">
        <ele>724.6</ele>
        <time>2017-06-01T12:24:51.000Z</time>
      </trkpt>
      <trkpt lat="43.47564" lon="2.28414">
        <ele>726.2</ele>
        <time>2017-06-01T12:24:53.000Z</time>
      </trkpt>
      <trkpt lat="43.47562" lon="2.28417">
        <ele>727.1</ele>
        <time>2017-06-01T12:24:54.000Z</time>
      </trkpt>
      <trkpt lat="43.47559" lon="2.28421">
        <ele>728.2</ele>
        <time>2017-06-01T12:24:56.000Z</time>
      </trkpt>
      <trkpt lat="43.47555" lon="2.28422">
        <ele>729.4</ele>
        <time>2017-06-01T12:24:57.000Z</time>
      </trkpt>
      <trkpt lat="43.47552" lon="2.28423">
        <ele>730.5</ele>
        <time>2017-06-01T12:24:58.000Z</time>
      </trkpt>
      <trkpt lat="43.4755" lon="2.28426">
        <ele>731.3</ele>
        <time>2017-06-01T12:25:00.000Z</time>
      </trkpt>
      <trkpt lat="43.47545" lon="2.28427">
        <ele>732.8</ele>
        <time>2017-06-01T12:25:02.000Z</time>
      </trkpt>
      <trkpt lat="43.47545" lon="2.28431">
        <ele>733.6</ele>
        <time>2017-06-01T12:25:03.000Z</time>
      </trkpt>
      <trkpt lat="43.47542" lon="2.28436">
        <ele>734.9</ele>
        <time>2017-06-01T12:25:05.000Z</time>
      </trkpt>
      <trkpt lat="43.47539" lon="2.28439">
        <ele>736</ele>
        <time>2017-06-01T12:25:07.000Z</time>
      </trkpt>
      <trkpt lat="43.47534" lon="2.28442">
        <ele>737.1</ele>
        <time>2017-06-01T12:25:09.000Z</time>
      </trkpt>
      <trkpt lat="43.47529" lon="2.2845">
        <ele>738</ele>
        <time>2017-06-01T12:25:12.000Z</time>
      </trkpt>
      <trkpt lat="43.47528" lon="2.28454">
        <ele>738.5</ele>
        <time>2017-06-01T12:25:14.000Z</time>
      </trkpt>
      <trkpt lat="43.47528" lon="2.28459">
        <ele>739</ele>
        <time>2017-06-01T12:25:15.000Z</time>
      </trkpt>
      <trkpt lat="43.47526" lon="2.28466">
        <ele>739.5</ele>
        <time>2017-06-01T12:25:17.000Z</time>
      </trkpt>
      <trkpt lat="43.47522" lon="2.28476">
        <ele>740.3</ele>
        <time>2017-06-01T12:25:20.000Z</time>
      </trkpt>
      <trkpt lat="43.47519" lon="2.28482">
        <ele>740.8</ele>
        <time>2017-06-01T12:25:21.000Z</time>
      </trkpt>
      <trkpt lat="43.47517" lon="2.28486">
        <ele>741.2</ele>
        <time>2017-06-01T12:25:24.000Z</time>
      </trkpt>
      <trkpt lat="43.47515" lon="2.28489">
        <ele>741.5</ele>
        <time>2017-06-01T12:25:25.000Z</time>
      </trkpt>
      <trkpt lat="43.47512" lon="2.28495">
        <ele>742</ele>
        <time>2017-06-01T12:25:27.000Z</time>
      </trkpt>
      <trkpt lat="43.47514" lon="2.28498">
        <ele>742.3</ele>
        <time>2017-06-01T12:25:28.000Z</time>
      </trkpt>
      <trkpt lat="43.47515" lon="2.28503">
        <ele>742.6</ele>
        <time>2017-06-01T12:25:30.000Z</time>
      </trkpt>
      <trkpt lat="43.47512" lon="2.28507">
        <ele>743.1</ele>
        <time>2017-06-01T12:25:31.000Z</time>
      </trkpt>
      <trkpt lat="43.47507" lon="2.28509">
        <ele>743.5</ele>
        <time>2017-06-01T12:25:33.000Z</time>
      </trkpt>
      <trkpt lat="43.47504" lon="2.28511">
        <ele>743.7</ele>
        <time>2017-06-01T12:25:35.000Z</time>
      </trkpt>
      <trkpt lat="43.47506" lon="2.28514">
        <ele>744</ele>
        <time>2017-06-01T12:25:37.000Z</time>
      </trkpt>
      <trkpt lat="43.47501" lon="2.28521">
        <ele>744.6</ele>
        <time>2017-06-01T12:25:39.000Z</time>
      </trkpt>
      <trkpt lat="43.47497" lon="2.28528">
        <ele>745.1</ele>
        <time>2017-06-01T12:25:41.000Z</time>
      </trkpt>
      <trkpt lat="43.47494" lon="2.28534">
        <ele>745.5</ele>
        <time>2017-06-01T12:25:42.000Z</time>
      </trkpt>
      <trkpt lat="43.47493" lon="2.28538">
        <ele>745.7</ele>
        <time>2017-06-01T12:25:44.000Z</time>
      </trkpt>
      <trkpt lat="43.47492" lon="2.28541">
        <ele>745.9</ele>
        <time>2017-06-01T12:25:45.000Z</time>
      </trkpt>
      <trkpt lat="43.47489" lon="2.28546">
        <ele>746.3</ele>
        <time>2017-06-01T12:25:48.000Z</time>
      </trkpt>
      <trkpt lat="43.47486" lon="2.2855">
        <ele>746.6</ele>
        <time>2017-06-01T12:25:49.000Z</time>
      </trkpt>
      <trkpt lat="43.47484" lon="2.28557">
        <ele>747</ele>
        <time>2017-06-01T12:25:51.000Z</time>
      </trkpt>
      <trkpt lat="43.47481" lon="2.28562">
        <ele>747.4</ele>
        <time>2017-06-01T12:25:53.000Z</time>
      </trkpt>
      <trkpt lat="43.47478" lon="2.28566">
        <ele>747.8</ele>
        <time>2017-06-01T12:25:55.000Z</time>
      </trkpt>
      <trkpt lat="43.47476" lon="2.28572">
        <ele>748.2</ele>
        <time>2017-06-01T12:25:57.000Z</time>
      </trkpt>
      <trkpt lat="43.47476" lon="2.28577">
        <ele>748.5</ele>
        <time>2017-06-01T12:25:59.000Z</time>
      </trkpt>
      <trkpt lat="43.47474" lon="2.28582">
        <ele>748.8</ele>
        <time>2017-06-01T12:26:01.000Z</time>
      </trkpt>
      <trkpt lat="43.47472" lon="2.28586">
        <ele>749.2</ele>
        <time>2017-06-01T12:26:03.000Z</time>
      </trkpt>
      <trkpt lat="43.4747" lon="2.28591">
        <ele>749.5</ele>
        <time>2017-06-01T12:26:05.000Z</time>
      </trkpt>
      <trkpt lat="43.47466" lon="2.28592">
        <ele>749.8</ele>
        <time>2017-06-01T12:26:07.000Z</time>
      </trkpt>
      <trkpt lat="43.47463" lon="2.28597">
        <ele>750.2</ele>
        <time>2017-06-01T12:26:09.000Z</time>
      </trkpt>
      <trkpt lat="43.47464" lon="2.28601">
        <ele>750.5</ele>
        <time>2017-06-01T12:26:10.000Z</time>
      </trkpt>
      <trkpt lat="43.47458" lon="2.28602">
        <ele>751.2</ele>
        <time>2017-06-01T12:26:12.000Z</time>
      </trkpt>
      <trkpt lat="43.47457" lon="2.28607">
        <ele>751.8</ele>
        <time>2017-06-01T12:26:14.000Z</time>
      </trkpt>
      <trkpt lat="43.47456" lon="2.28613">
        <ele>752.5</ele>
        <time>2017-06-01T12:26:16.000Z</time>
      </trkpt>
      <trkpt lat="43.47452" lon="2.28617">
        <ele>752.9</ele>
        <time>2017-06-01T12:26:18.000Z</time>
      </trkpt>
      <trkpt lat="43.47449" lon="2.28621">
        <ele>753.3</ele>
        <time>2017-06-01T12:26:20.000Z</time>
      </trkpt>
      <trkpt lat="43.47446" lon="2.28624">
        <ele>753.6</ele>
        <time>2017-06-01T12:26:22.000Z</time>
      </trkpt>
      <trkpt lat="43.47442" lon="2.28628">
        <ele>753.9</ele>
        <time>2017-06-01T12:26:24.000Z</time>
      </trkpt>
      <trkpt lat="43.47439" lon="2.2863">
        <ele>754.3</ele>
        <time>2017-06-01T12:26:25.000Z</time>
      </trkpt>
      <trkpt lat="43.47436" lon="2.28631">
        <ele>754.6</ele>
        <time>2017-06-01T12:26:26.000Z</time>
      </trkpt>
      <trkpt lat="43.4743" lon="2.28634">
        <ele>755</ele>
        <time>2017-06-01T12:26:28.000Z</time>
      </trkpt>
      <trkpt lat="43.47429" lon="2.2863">
        <ele>755.3</ele>
        <time>2017-06-01T12:26:30.000Z</time>
      </trkpt>
      <trkpt lat="43.47426" lon="2.28632">
        <ele>755.6</ele>
        <time>2017-06-01T12:26:31.000Z</time>
      </trkpt>
      <trkpt lat="43.47423" lon="2.28635">
        <ele>755.9</ele>
        <time>2017-06-01T12:26:32.000Z</time>
      </trkpt>
      <trkpt lat="43.47418" lon="2.28636">
        <ele>756.3</ele>
        <time>2017-06-01T12:26:34.000Z</time>
      </trkpt>
      <trkpt lat="43.47415" lon="2.28637">
        <ele>756.6</ele>
        <time>2017-06-01T12:26:36.000Z</time>
      </trkpt>
      <trkpt lat="43.4741" lon="2.2864">
        <ele>757</ele>
        <time>2017-06-01T12:26:37.000Z</time>
      </trkpt>
      <trkpt lat="43.47407" lon="2.28642">
        <ele>757.3</ele>
        <time>2017-06-01T12:26:38.000Z</time>
      </trkpt>
      <trkpt lat="43.47404" lon="2.28646">
        <ele>757.6</ele>
        <time>2017-06-01T12:26:39.000Z</time>
      </trkpt>
      <trkpt lat="43.47398" lon="2.2865">
        <ele>758.1</ele>
        <time>2017-06-01T12:26:41.000Z</time>
      </trkpt>
      <trkpt lat="43.47403" lon="2.28645">
        <ele>758.5</ele>
        <time>2017-06-01T12:26:42.000Z</time>
      </trkpt>
      <trkpt lat="43.47399" lon="2.2865">
        <ele>758.7</ele>
        <time>2017-06-01T12:26:45.000Z</time>
      </trkpt>
      <trkpt lat="43.47395" lon="2.28655">
        <ele>759.1</ele>
        <time>2017-06-01T12:26:49.000Z</time>
      </trkpt>
      <trkpt lat="43.47393" lon="2.28658">
        <ele>759.3</ele>
        <time>2017-06-01T12:26:50.000Z</time>
      </trkpt>
      <trkpt lat="43.47386" lon="2.28666">
        <ele>759.9</ele>
        <time>2017-06-01T12:26:52.000Z</time>
      </trkpt>
      <trkpt lat="43.47381" lon="2.28673">
        <ele>760.2</ele>
        <time>2017-06-01T12:26:54.000Z</time>
      </trkpt>
      <trkpt lat="43.47379" lon="2.28677">
        <ele>760.5</ele>
        <time>2017-06-01T12:26:56.000Z</time>
      </trkpt>
      <trkpt lat="43.47377" lon="2.28681">
        <ele>760.7</ele>
        <time>2017-06-01T12:26:59.000Z</time>
      </trkpt>
      <trkpt lat="43.47374" lon="2.28684">
        <ele>760.9</ele>
        <time>2017-06-01T12:27:00.000Z</time>
      </trkpt>
      <trkpt lat="43.47371" lon="2.28688">
        <ele>761.2</ele>
        <time>2017-06-01T12:27:02.000Z</time>
      </trkpt>
      <trkpt lat="43.47369" lon="2.2869">
        <ele>761.5</ele>
        <time>2017-06-01T12:27:05.000Z</time>
      </trkpt>
      <trkpt lat="43.47365" lon="2.28694">
        <ele>761.8</ele>
        <time>2017-06-01T12:27:08.000Z</time>
      </trkpt>
      <trkpt lat="43.47362" lon="2.28695">
        <ele>762</ele>
        <time>2017-06-01T12:27:10.000Z</time>
      </trkpt>
      <trkpt lat="43.4736" lon="2.28699">
        <ele>762.3</ele>
        <time>2017-06-01T12:27:12.000Z</time>
      </trkpt>
      <trkpt lat="43.47356" lon="2.287">
        <ele>762.5</ele>
        <time>2017-06-01T12:27:14.000Z</time>
      </trkpt>
      <trkpt lat="43.47353" lon="2.28701">
        <ele>762.8</ele>
        <time>2017-06-01T12:27:16.000Z</time>
      </trkpt>
      <trkpt lat="43.4735" lon="2.28701">
        <ele>763</ele>
        <time>2017-06-01T12:27:19.000Z</time>
      </trkpt>
      <trkpt lat="43.47345" lon="2.28701">
        <ele>763.4</ele>
        <time>2017-06-01T12:27:21.000Z</time>
      </trkpt>
      <trkpt lat="43.47342" lon="2.28702">
        <ele>763.7</ele>
        <time>2017-06-01T12:27:22.000Z</time>
      </trkpt>
      <trkpt lat="43.47339" lon="2.28703">
        <ele>764.1</ele>
        <time>2017-06-01T12:27:24.000Z</time>
      </trkpt>
      <trkpt lat="43.47334" lon="2.28704">
        <ele>764.5</ele>
        <time>2017-06-01T12:27:26.000Z</time>
      </trkpt>
      <trkpt lat="43.47329" lon="2.28706">
        <ele>765</ele>
        <time>2017-06-01T12:27:28.000Z</time>
      </trkpt>
      <trkpt lat="43.47324" lon="2.28706">
        <ele>765.1</ele>
        <time>2017-06-01T12:27:30.000Z</time>
      </trkpt>
      <trkpt lat="43.4732" lon="2.28707">
        <ele>765.1</ele>
        <time>2017-06-01T12:27:31.000Z</time>
      </trkpt>
      <trkpt lat="43.47317" lon="2.28707">
        <ele>765.3</ele>
        <time>2017-06-01T12:27:32.000Z</time>
      </trkpt>
      <trkpt lat="43.47311" lon="2.28708">
        <ele>765.4</ele>
        <time>2017-06-01T12:27:34.000Z</time>
      </trkpt>
      <trkpt lat="43.47308" lon="2.28708">
        <ele>765.5</ele>
        <time>2017-06-01T12:27:35.000Z</time>
      </trkpt>
      <trkpt lat="43.47302" lon="2.28707">
        <ele>765.5</ele>
        <time>2017-06-01T12:27:37.000Z</time>
      </trkpt>
      <trkpt lat="43.47298" lon="2.28707">
        <ele>765.6</ele>
        <time>2017-06-01T12:27:38.000Z</time>
      </trkpt>
      <trkpt lat="43.47294" lon="2.28706">
        <ele>765.6</ele>
        <time>2017-06-01T12:27:39.000Z</time>
      </trkpt>
      <trkpt lat="43.47291" lon="2.28706">
        <ele>765.6</ele>
        <time>2017-06-01T12:27:40.000Z</time>
      </trkpt>
      <trkpt lat="43.47288" lon="2.28707">
        <ele>765.6</ele>
        <time>2017-06-01T12:27:41.000Z</time>
      </trkpt>
      <trkpt lat="43.47285" lon="2.28703">
        <ele>765.7</ele>
        <time>2017-06-01T12:27:43.000Z</time>
      </trkpt>
      <trkpt lat="43.47281" lon="2.28704">
        <ele>765.7</ele>
        <time>2017-06-01T12:27:44.000Z</time>
      </trkpt>
      <trkpt lat="43.47277" lon="2.28702">
        <ele>765.7</ele>
        <time>2017-06-01T12:27:46.000Z</time>
      </trkpt>
      <trkpt lat="43.47273" lon="2.28705">
        <ele>765.7</ele>
        <time>2017-06-01T12:27:47.000Z</time>
      </trkpt>
      <trkpt lat="43.47263" lon="2.28717">
        <ele>765.8</ele>
        <time>2017-06-01T12:27:48.000Z</time>
      </trkpt>
      <trkpt lat="43.4726" lon="2.2872">
        <ele>765.8</ele>
        <time>2017-06-01T12:27:49.000Z</time>
      </trkpt>
      <trkpt lat="43.47253" lon="2.28723">
        <ele>765.8</ele>
        <time>2017-06-01T12:27:50.000Z</time>
      </trkpt>
      <trkpt lat="43.47247" lon="2.28727">
        <ele>765.8</ele>
        <time>2017-06-01T12:27:52.000Z</time>
      </trkpt>
      <trkpt lat="43.47241" lon="2.28733">
        <ele>765.8</ele>
        <time>2017-06-01T12:27:53.000Z</time>
      </trkpt>
      <trkpt lat="43.47236" lon="2.28738">
        <ele>765.8</ele>
        <time>2017-06-01T12:27:54.000Z</time>
      </trkpt>
      <trkpt lat="43.47231" lon="2.28741">
        <ele>765.8</ele>
        <time>2017-06-01T12:27:57.000Z</time>
      </trkpt>
      <trkpt lat="43.47227" lon="2.28745">
        <ele>765.8</ele>
        <time>2017-06-01T12:27:59.000Z</time>
      </trkpt>
      <trkpt lat="43.47222" lon="2.28749">
        <ele>765.8</ele>
        <time>2017-06-01T12:28:01.000Z</time>
      </trkpt>
      <trkpt lat="43.47219" lon="2.28753">
        <ele>765.8</ele>
        <time>2017-06-01T12:28:02.000Z</time>
      </trkpt>
      <trkpt lat="43.47216" lon="2.28757">
        <ele>765.8</ele>
        <time>2017-06-01T12:28:03.000Z</time>
      </trkpt>
      <trkpt lat="43.47214" lon="2.2876">
        <ele>765.8</ele>
        <time>2017-06-01T12:28:04.000Z</time>
      </trkpt>
      <trkpt lat="43.4721" lon="2.28762">
        <ele>765.9</ele>
        <time>2017-06-01T12:28:05.000Z</time>
      </trkpt>
      <trkpt lat="43.47208" lon="2.28765">
        <ele>765.9</ele>
        <time>2017-06-01T12:28:06.000Z</time>
      </trkpt>
      <trkpt lat="43.47205" lon="2.28768">
        <ele>765.9</ele>
        <time>2017-06-01T12:28:07.000Z</time>
      </trkpt>
      <trkpt lat="43.47202" lon="2.28771">
        <ele>765.9</ele>
        <time>2017-06-01T12:28:08.000Z</time>
      </trkpt>
      <trkpt lat="43.47199" lon="2.28774">
        <ele>765.9</ele>
        <time>2017-06-01T12:28:09.000Z</time>
      </trkpt>
      <trkpt lat="43.47197" lon="2.28775">
        <ele>766</ele>
        <time>2017-06-01T12:28:10.000Z</time>
      </trkpt>
      <trkpt lat="43.47194" lon="2.28779">
        <ele>766</ele>
        <time>2017-06-01T12:28:11.000Z</time>
      </trkpt>
      <trkpt lat="43.47192" lon="2.28783">
        <ele>766</ele>
        <time>2017-06-01T12:28:12.000Z</time>
      </trkpt>
      <trkpt lat="43.4719" lon="2.28787">
        <ele>766</ele>
        <time>2017-06-01T12:28:13.000Z</time>
      </trkpt>
      <trkpt lat="43.47188" lon="2.28789">
        <ele>766</ele>
        <time>2017-06-01T12:28:14.000Z</time>
      </trkpt>
      <trkpt lat="43.47189" lon="2.28796">
        <ele>766</ele>
        <time>2017-06-01T12:28:15.000Z</time>
      </trkpt>
      <trkpt lat="43.47188" lon="2.28802">
        <ele>766</ele>
        <time>2017-06-01T12:28:16.000Z</time>
      </trkpt>
      <trkpt lat="43.47189" lon="2.28807">
        <ele>766</ele>
        <time>2017-06-01T12:28:17.000Z</time>
      </trkpt>
      <trkpt lat="43.4719" lon="2.28812">
        <ele>766</ele>
        <time>2017-06-01T12:28:18.000Z</time>
      </trkpt>
      <trkpt lat="43.4719" lon="2.28816">
        <ele>766</ele>
        <time>2017-06-01T12:28:19.000Z</time>
      </trkpt>
      <trkpt lat="43.47193" lon="2.2882">
        <ele>766</ele>
        <time>2017-06-01T12:28:21.000Z</time>
      </trkpt>
      <trkpt lat="43.47192" lon="2.28825">
        <ele>766</ele>
        <time>2017-06-01T12:28:22.000Z</time>
      </trkpt>
      <trkpt lat="43.47196" lon="2.28825">
        <ele>766</ele>
        <time>2017-06-01T12:28:23.000Z</time>
      </trkpt>
      <trkpt lat="43.47199" lon="2.28827">
        <ele>766</ele>
        <time>2017-06-01T12:28:24.000Z</time>
      </trkpt>
      <trkpt lat="43.47204" lon="2.28828">
        <ele>766</ele>
        <time>2017-06-01T12:28:26.000Z</time>
      </trkpt>
      <trkpt lat="43.47207" lon="2.28829">
        <ele>766</ele>
        <time>2017-06-01T12:28:27.000Z</time>
      </trkpt>
      <trkpt lat="43.4721" lon="2.28832">
        <ele>766</ele>
        <time>2017-06-01T12:28:29.000Z</time>
      </trkpt>
      <trkpt lat="43.47213" lon="2.28835">
        <ele>766.2</ele>
        <time>2017-06-01T12:28:31.000Z</time>
      </trkpt>
      <trkpt lat="43.47216" lon="2.28838">
        <ele>766.4</ele>
        <time>2017-06-01T12:28:33.000Z</time>
      </trkpt>
      <trkpt lat="43.47217" lon="2.28841">
        <ele>766.6</ele>
        <time>2017-06-01T12:28:35.000Z</time>
      </trkpt>
      <trkpt lat="43.47221" lon="2.28845">
        <ele>766.9</ele>
        <time>2017-06-01T12:28:37.000Z</time>
      </trkpt>
      <trkpt lat="43.47225" lon="2.28848">
        <ele>767.2</ele>
        <time>2017-06-01T12:28:39.000Z</time>
      </trkpt>
      <trkpt lat="43.47228" lon="2.28853">
        <ele>767.5</ele>
        <time>2017-06-01T12:28:41.000Z</time>
      </trkpt>
      <trkpt lat="43.47231" lon="2.28854">
        <ele>767.6</ele>
        <time>2017-06-01T12:28:42.000Z</time>
      </trkpt>
      <trkpt lat="43.47234" lon="2.28856">
        <ele>767.8</ele>
        <time>2017-06-01T12:28:43.000Z</time>
      </trkpt>
      <trkpt lat="43.47238" lon="2.2886">
        <ele>768.1</ele>
        <time>2017-06-01T12:28:45.000Z</time>
      </trkpt>
      <trkpt lat="43.47241" lon="2.2886">
        <ele>768.3</ele>
        <time>2017-06-01T12:28:46.000Z</time>
      </trkpt>
      <trkpt lat="43.47245" lon="2.28864">
        <ele>768.5</ele>
        <time>2017-06-01T12:28:48.000Z</time>
      </trkpt>
      <trkpt lat="43.47249" lon="2.28867">
        <ele>768.7</ele>
        <time>2017-06-01T12:28:49.000Z</time>
      </trkpt>
      <trkpt lat="43.47252" lon="2.2887">
        <ele>768.9</ele>
        <time>2017-06-01T12:28:51.000Z</time>
      </trkpt>
      <trkpt lat="43.47256" lon="2.28871">
        <ele>769</ele>
        <time>2017-06-01T12:28:52.000Z</time>
      </trkpt>
      <trkpt lat="43.47261" lon="2.28874">
        <ele>769.2</ele>
        <time>2017-06-01T12:28:54.000Z</time>
      </trkpt>
      <trkpt lat="43.47266" lon="2.28877">
        <ele>769.5</ele>
        <time>2017-06-01T12:28:56.000Z</time>
      </trkpt>
      <trkpt lat="43.4727" lon="2.28882">
        <ele>769.7</ele>
        <time>2017-06-01T12:28:58.000Z</time>
      </trkpt>
      <trkpt lat="43.47273" lon="2.28884">
        <ele>769.8</ele>
        <time>2017-06-01T12:28:59.000Z</time>
      </trkpt>
      <trkpt lat="43.47276" lon="2.28888">
        <ele>770</ele>
        <time>2017-06-01T12:29:01.000Z</time>
      </trkpt>
      <trkpt lat="43.47279" lon="2.28893">
        <ele>770.2</ele>
        <time>2017-06-01T12:29:03.000Z</time>
      </trkpt>
      <trkpt lat="43.47283" lon="2.28894">
        <ele>770.3</ele>
        <time>2017-06-01T12:29:04.000Z</time>
      </trkpt>
      <trkpt lat="43.47288" lon="2.28896">
        <ele>770.5</ele>
        <time>2017-06-01T12:29:06.000Z</time>
      </trkpt>
      <trkpt lat="43.47293" lon="2.28896">
        <ele>770.6</ele>
        <time>2017-06-01T12:29:07.000Z</time>
      </trkpt>
      <trkpt lat="43.47297" lon="2.28896">
        <ele>770.7</ele>
        <time>2017-06-01T12:29:08.000Z</time>
      </trkpt>
      <trkpt lat="43.473" lon="2.28897">
        <ele>770.8</ele>
        <time>2017-06-01T12:29:09.000Z</time>
      </trkpt>
      <trkpt lat="43.47303" lon="2.28898">
        <ele>770.9</ele>
        <time>2017-06-01T12:29:10.000Z</time>
      </trkpt>
      <trkpt lat="43.47307" lon="2.28899">
        <ele>771</ele>
        <time>2017-06-01T12:29:11.000Z</time>
      </trkpt>
      <trkpt lat="43.47309" lon="2.28901">
        <ele>771.1</ele>
        <time>2017-06-01T12:29:12.000Z</time>
      </trkpt>
      <trkpt lat="43.47313" lon="2.28906">
        <ele>771.3</ele>
        <time>2017-06-01T12:29:14.000Z</time>
      </trkpt>
      <trkpt lat="43.47316" lon="2.28908">
        <ele>771.4</ele>
        <time>2017-06-01T12:29:15.000Z</time>
      </trkpt>
      <trkpt lat="43.47319" lon="2.2891">
        <ele>771.5</ele>
        <time>2017-06-01T12:29:16.000Z</time>
      </trkpt>
      <trkpt lat="43.47322" lon="2.28911">
        <ele>771.6</ele>
        <time>2017-06-01T12:29:17.000Z</time>
      </trkpt>
      <trkpt lat="43.47322" lon="2.28915">
        <ele>771.7</ele>
        <time>2017-06-01T12:29:18.000Z</time>
      </trkpt>
      <trkpt lat="43.47325" lon="2.28918">
        <ele>771.8</ele>
        <time>2017-06-01T12:29:19.000Z</time>
      </trkpt>
      <trkpt lat="43.4733" lon="2.2892">
        <ele>771.9</ele>
        <time>2017-06-01T12:29:20.000Z</time>
      </trkpt>
      <trkpt lat="43.47333" lon="2.28923">
        <ele>772</ele>
        <time>2017-06-01T12:29:21.000Z</time>
      </trkpt>
      <trkpt lat="43.47335" lon="2.28926">
        <ele>772.1</ele>
        <time>2017-06-01T12:29:22.000Z</time>
      </trkpt>
      <trkpt lat="43.47338" lon="2.28928">
        <ele>772.1</ele>
        <time>2017-06-01T12:29:23.000Z</time>
      </trkpt>
      <trkpt lat="43.47341" lon="2.28931">
        <ele>772.2</ele>
        <time>2017-06-01T12:29:24.000Z</time>
      </trkpt>
      <trkpt lat="43.47344" lon="2.28934">
        <ele>772.2</ele>
        <time>2017-06-01T12:29:25.000Z</time>
      </trkpt>
      <trkpt lat="43.47346" lon="2.28936">
        <ele>772.3</ele>
        <time>2017-06-01T12:29:26.000Z</time>
      </trkpt>
      <trkpt lat="43.47348" lon="2.2894">
        <ele>772.3</ele>
        <time>2017-06-01T12:29:27.000Z</time>
      </trkpt>
      <trkpt lat="43.47348" lon="2.28944">
        <ele>772.4</ele>
        <time>2017-06-01T12:29:28.000Z</time>
      </trkpt>
      <trkpt lat="43.47351" lon="2.28949">
        <ele>772.5</ele>
        <time>2017-06-01T12:29:29.000Z</time>
      </trkpt>
      <trkpt lat="43.47355" lon="2.28952">
        <ele>772.5</ele>
        <time>2017-06-01T12:29:30.000Z</time>
      </trkpt>
      <trkpt lat="43.47358" lon="2.28957">
        <ele>772.5</ele>
        <time>2017-06-01T12:29:31.000Z</time>
      </trkpt>
      <trkpt lat="43.4736" lon="2.28961">
        <ele>772.5</ele>
        <time>2017-06-01T12:29:32.000Z</time>
      </trkpt>
      <trkpt lat="43.47362" lon="2.28964">
        <ele>772.5</ele>
        <time>2017-06-01T12:29:33.000Z</time>
      </trkpt>
      <trkpt lat="43.47363" lon="2.2897">
        <ele>772.5</ele>
        <time>2017-06-01T12:29:34.000Z</time>
      </trkpt>
      <trkpt lat="43.47366" lon="2.28974">
        <ele>772.6</ele>
        <time>2017-06-01T12:29:35.000Z</time>
      </trkpt>
      <trkpt lat="43.47368" lon="2.28978">
        <ele>772.5</ele>
        <time>2017-06-01T12:29:36.000Z</time>
      </trkpt>
      <trkpt lat="43.47371" lon="2.28983">
        <ele>772.5</ele>
        <time>2017-06-01T12:29:37.000Z</time>
      </trkpt>
      <trkpt lat="43.47373" lon="2.28988">
        <ele>772.4</ele>
        <time>2017-06-01T12:29:38.000Z</time>
      </trkpt>
      <trkpt lat="43.47374" lon="2.28992">
        <ele>772.3</ele>
        <time>2017-06-01T12:29:39.000Z</time>
      </trkpt>
      <trkpt lat="43.47376" lon="2.28996">
        <ele>772.3</ele>
        <time>2017-06-01T12:29:40.000Z</time>
      </trkpt>
      <trkpt lat="43.47379" lon="2.28999">
        <ele>772.2</ele>
        <time>2017-06-01T12:29:41.000Z</time>
      </trkpt>
      <trkpt lat="43.47382" lon="2.29002">
        <ele>772.1</ele>
        <time>2017-06-01T12:29:42.000Z</time>
      </trkpt>
      <trkpt lat="43.47386" lon="2.29004">
        <ele>772</ele>
        <time>2017-06-01T12:29:43.000Z</time>
      </trkpt>
      <trkpt lat="43.4739" lon="2.29007">
        <ele>771.9</ele>
        <time>2017-06-01T12:29:44.000Z</time>
      </trkpt>
      <trkpt lat="43.47392" lon="2.29011">
        <ele>771.8</ele>
        <time>2017-06-01T12:29:45.000Z</time>
      </trkpt>
      <trkpt lat="43.47394" lon="2.29015">
        <ele>771.7</ele>
        <time>2017-06-01T12:29:46.000Z</time>
      </trkpt>
      <trkpt lat="43.47398" lon="2.29018">
        <ele>771.6</ele>
        <time>2017-06-01T12:29:47.000Z</time>
      </trkpt>
      <trkpt lat="43.47401" lon="2.29023">
        <ele>771.5</ele>
        <time>2017-06-01T12:29:48.000Z</time>
      </trkpt>
      <trkpt lat="43.47406" lon="2.29025">
        <ele>771.4</ele>
        <time>2017-06-01T12:29:49.000Z</time>
      </trkpt>
      <trkpt lat="43.47407" lon="2.29029">
        <ele>771.4</ele>
        <time>2017-06-01T12:29:50.000Z</time>
      </trkpt>
      <trkpt lat="43.47409" lon="2.29034">
        <ele>771.3</ele>
        <time>2017-06-01T12:29:51.000Z</time>
      </trkpt>
      <trkpt lat="43.47411" lon="2.29039">
        <ele>771.2</ele>
        <time>2017-06-01T12:29:52.000Z</time>
      </trkpt>
      <trkpt lat="43.47414" lon="2.29044">
        <ele>771.2</ele>
        <time>2017-06-01T12:29:53.000Z</time>
      </trkpt>
      <trkpt lat="43.47419" lon="2.29046">
        <ele>771.2</ele>
        <time>2017-06-01T12:29:54.000Z</time>
      </trkpt>
      <trkpt lat="43.47422" lon="2.29048">
        <ele>771.2</ele>
        <time>2017-06-01T12:29:55.000Z</time>
      </trkpt>
      <trkpt lat="43.47425" lon="2.29052">
        <ele>771.2</ele>
        <time>2017-06-01T12:29:56.000Z</time>
      </trkpt>
      <trkpt lat="43.47428" lon="2.29055">
        <ele>771.2</ele>
        <time>2017-06-01T12:29:57.000Z</time>
      </trkpt>
      <trkpt lat="43.47432" lon="2.29058">
        <ele>771.2</ele>
        <time>2017-06-01T12:29:58.000Z</time>
      </trkpt>
      <trkpt lat="43.47436" lon="2.29063">
        <ele>771.3</ele>
        <time>2017-06-01T12:30:00.000Z</time>
      </trkpt>
      <trkpt lat="43.47442" lon="2.29066">
        <ele>771.3</ele>
        <time>2017-06-01T12:30:02.000Z</time>
      </trkpt>
      <trkpt lat="43.47444" lon="2.29069">
        <ele>771.4</ele>
        <time>2017-06-01T12:30:03.000Z</time>
      </trkpt>
      <trkpt lat="43.47447" lon="2.29071">
        <ele>771.4</ele>
        <time>2017-06-01T12:30:04.000Z</time>
      </trkpt>
      <trkpt lat="43.4745" lon="2.29074">
        <ele>771.5</ele>
        <time>2017-06-01T12:30:05.000Z</time>
      </trkpt>
      <trkpt lat="43.47453" lon="2.29076">
        <ele>771.6</ele>
        <time>2017-06-01T12:30:06.000Z</time>
      </trkpt>
      <trkpt lat="43.47456" lon="2.29078">
        <ele>771.7</ele>
        <time>2017-06-01T12:30:07.000Z</time>
      </trkpt>
      <trkpt lat="43.4746" lon="2.29079">
        <ele>771.7</ele>
        <time>2017-06-01T12:30:08.000Z</time>
      </trkpt>
      <trkpt lat="43.47462" lon="2.29082">
        <ele>771.8</ele>
        <time>2017-06-01T12:30:09.000Z</time>
      </trkpt>
      <trkpt lat="43.47466" lon="2.29083">
        <ele>771.9</ele>
        <time>2017-06-01T12:30:10.000Z</time>
      </trkpt>
      <trkpt lat="43.4747" lon="2.29084">
        <ele>772</ele>
        <time>2017-06-01T12:30:11.000Z</time>
      </trkpt>
      <trkpt lat="43.47473" lon="2.29085">
        <ele>771.7</ele>
        <time>2017-06-01T12:30:12.000Z</time>
      </trkpt>
      <trkpt lat="43.47475" lon="2.29089">
        <ele>771.4</ele>
        <time>2017-06-01T12:30:14.000Z</time>
      </trkpt>
      <trkpt lat="43.47477" lon="2.29092">
        <ele>771.1</ele>
        <time>2017-06-01T12:30:16.000Z</time>
      </trkpt>
      <trkpt lat="43.4748" lon="2.29091">
        <ele>770.8</ele>
        <time>2017-06-01T12:30:17.000Z</time>
      </trkpt>
      <trkpt lat="43.47483" lon="2.29089">
        <ele>770.5</ele>
        <time>2017-06-01T12:30:28.000Z</time>
      </trkpt>
      <trkpt lat="43.47479" lon="2.29096">
        <ele>770</ele>
        <time>2017-06-01T12:41:18.000Z</time>
      </trkpt>
      <trkpt lat="43.47478" lon="2.29102">
        <ele>769.5</ele>
        <time>2017-06-01T12:41:21.000Z</time>
      </trkpt>
      <trkpt lat="43.4748" lon="2.29108">
        <ele>768.2</ele>
        <time>2017-06-01T12:41:22.000Z</time>
      </trkpt>
      <trkpt lat="43.47488" lon="2.29105">
        <ele>766.6</ele>
        <time>2017-06-01T12:41:25.000Z</time>
      </trkpt>
      <trkpt lat="43.4749" lon="2.29104">
        <ele>766.3</ele>
        <time>2017-06-01T12:41:27.000Z</time>
      </trkpt>
      <trkpt lat="43.47494" lon="2.29106">
        <ele>766</ele>
        <time>2017-06-01T12:41:28.000Z</time>
      </trkpt>
      <trkpt lat="43.475" lon="2.29109">
        <ele>765.3</ele>
        <time>2017-06-01T12:41:29.000Z</time>
      </trkpt>
      <trkpt lat="43.47504" lon="2.2911">
        <ele>764.8</ele>
        <time>2017-06-01T12:41:30.000Z</time>
      </trkpt>
      <trkpt lat="43.47512" lon="2.29111">
        <ele>764</ele>
        <time>2017-06-01T12:41:31.000Z</time>
      </trkpt>
      <trkpt lat="43.47515" lon="2.29112">
        <ele>763.7</ele>
        <time>2017-06-01T12:41:32.000Z</time>
      </trkpt>
      <trkpt lat="43.47521" lon="2.29118">
        <ele>763</ele>
        <time>2017-06-01T12:41:34.000Z</time>
      </trkpt>
      <trkpt lat="43.47524" lon="2.29122">
        <ele>762.5</ele>
        <time>2017-06-01T12:41:35.000Z</time>
      </trkpt>
      <trkpt lat="43.47529" lon="2.29126">
        <ele>761.9</ele>
        <time>2017-06-01T12:41:36.000Z</time>
      </trkpt>
      <trkpt lat="43.47534" lon="2.29132">
        <ele>761.2</ele>
        <time>2017-06-01T12:41:37.000Z</time>
      </trkpt>
      <trkpt lat="43.4754" lon="2.29134">
        <ele>760.5</ele>
        <time>2017-06-01T12:41:38.000Z</time>
      </trkpt>
      <trkpt lat="43.47546" lon="2.29139">
        <ele>759.8</ele>
        <time>2017-06-01T12:41:39.000Z</time>
      </trkpt>
      <trkpt lat="43.47548" lon="2.29143">
        <ele>759.4</ele>
        <time>2017-06-01T12:41:40.000Z</time>
      </trkpt>
      <trkpt lat="43.47554" lon="2.29146">
        <ele>758.8</ele>
        <time>2017-06-01T12:41:41.000Z</time>
      </trkpt>
      <trkpt lat="43.47561" lon="2.29153">
        <ele>757.9</ele>
        <time>2017-06-01T12:41:42.000Z</time>
      </trkpt>
      <trkpt lat="43.47571" lon="2.29157">
        <ele>756.9</ele>
        <time>2017-06-01T12:41:43.000Z</time>
      </trkpt>
      <trkpt lat="43.47576" lon="2.29157">
        <ele>756.3</ele>
        <time>2017-06-01T12:41:44.000Z</time>
      </trkpt>
      <trkpt lat="43.47582" lon="2.2916">
        <ele>755.7</ele>
        <time>2017-06-01T12:41:45.000Z</time>
      </trkpt>
      <trkpt lat="43.47587" lon="2.29163">
        <ele>755.1</ele>
        <time>2017-06-01T12:41:46.000Z</time>
      </trkpt>
      <trkpt lat="43.47592" lon="2.29165">
        <ele>754.5</ele>
        <time>2017-06-01T12:41:47.000Z</time>
      </trkpt>
      <trkpt lat="43.476" lon="2.29169">
        <ele>753.6</ele>
        <time>2017-06-01T12:41:48.000Z</time>
      </trkpt>
      <trkpt lat="43.47604" lon="2.29174">
        <ele>753</ele>
        <time>2017-06-01T12:41:49.000Z</time>
      </trkpt>
      <trkpt lat="43.47608" lon="2.29179">
        <ele>752</ele>
        <time>2017-06-01T12:41:50.000Z</time>
      </trkpt>
      <trkpt lat="43.47605" lon="2.29188">
        <ele>750.7</ele>
        <time>2017-06-01T12:41:51.000Z</time>
      </trkpt>
      <trkpt lat="43.47608" lon="2.29198">
        <ele>749.2</ele>
        <time>2017-06-01T12:41:52.000Z</time>
      </trkpt>
      <trkpt lat="43.4761" lon="2.29207">
        <ele>748.1</ele>
        <time>2017-06-01T12:41:53.000Z</time>
      </trkpt>
      <trkpt lat="43.47612" lon="2.29218">
        <ele>746.8</ele>
        <time>2017-06-01T12:41:54.000Z</time>
      </trkpt>
      <trkpt lat="43.47614" lon="2.29228">
        <ele>745.7</ele>
        <time>2017-06-01T12:41:55.000Z</time>
      </trkpt>
      <trkpt lat="43.47614" lon="2.29235">
        <ele>745.3</ele>
        <time>2017-06-01T12:41:56.000Z</time>
      </trkpt>
      <trkpt lat="43.47619" lon="2.29244">
        <ele>744.8</ele>
        <time>2017-06-01T12:41:57.000Z</time>
      </trkpt>
      <trkpt lat="43.47615" lon="2.2925">
        <ele>744.4</ele>
        <time>2017-06-01T12:41:58.000Z</time>
      </trkpt>
      <trkpt lat="43.47617" lon="2.2926">
        <ele>743.9</ele>
        <time>2017-06-01T12:41:59.000Z</time>
      </trkpt>
      <trkpt lat="43.4762" lon="2.29271">
        <ele>743.3</ele>
        <time>2017-06-01T12:42:00.000Z</time>
      </trkpt>
      <trkpt lat="43.47624" lon="2.29282">
        <ele>742.6</ele>
        <time>2017-06-01T12:42:01.000Z</time>
      </trkpt>
      <trkpt lat="43.47628" lon="2.29292">
        <ele>742.2</ele>
        <time>2017-06-01T12:42:02.000Z</time>
      </trkpt>
      <trkpt lat="43.47633" lon="2.29299">
        <ele>742</ele>
        <time>2017-06-01T12:42:03.000Z</time>
      </trkpt>
      <trkpt lat="43.47639" lon="2.29305">
        <ele>741.7</ele>
        <time>2017-06-01T12:42:04.000Z</time>
      </trkpt>
      <trkpt lat="43.47643" lon="2.29311">
        <ele>741.4</ele>
        <time>2017-06-01T12:42:05.000Z</time>
      </trkpt>
      <trkpt lat="43.47646" lon="2.29316">
        <ele>741.4</ele>
        <time>2017-06-01T12:42:06.000Z</time>
      </trkpt>
      <trkpt lat="43.4765" lon="2.29321">
        <ele>741.3</ele>
        <time>2017-06-01T12:42:07.000Z</time>
      </trkpt>
      <trkpt lat="43.47649" lon="2.29328">
        <ele>741.2</ele>
        <time>2017-06-01T12:42:08.000Z</time>
      </trkpt>
      <trkpt lat="43.47652" lon="2.29335">
        <ele>741.1</ele>
        <time>2017-06-01T12:42:09.000Z</time>
      </trkpt>
      <trkpt lat="43.47655" lon="2.29344">
        <ele>741</ele>
        <time>2017-06-01T12:42:10.000Z</time>
      </trkpt>
      <trkpt lat="43.47657" lon="2.29352">
        <ele>740.9</ele>
        <time>2017-06-01T12:42:11.000Z</time>
      </trkpt>
      <trkpt lat="43.47656" lon="2.29358">
        <ele>740.9</ele>
        <time>2017-06-01T12:42:12.000Z</time>
      </trkpt>
      <trkpt lat="43.47653" lon="2.29364">
        <ele>740.8</ele>
        <time>2017-06-01T12:42:13.000Z</time>
      </trkpt>
      <trkpt lat="43.47655" lon="2.29367">
        <ele>740.8</ele>
        <time>2017-06-01T12:42:14.000Z</time>
      </trkpt>
      <trkpt lat="43.47659" lon="2.29377">
        <ele>740.7</ele>
        <time>2017-06-01T12:42:16.000Z</time>
      </trkpt>
      <trkpt lat="43.47663" lon="2.29384">
        <ele>740.7</ele>
        <time>2017-06-01T12:42:17.000Z</time>
      </trkpt>
      <trkpt lat="43.47668" lon="2.29393">
        <ele>740.6</ele>
        <time>2017-06-01T12:42:18.000Z</time>
      </trkpt>
      <trkpt lat="43.47673" lon="2.294">
        <ele>740.6</ele>
        <time>2017-06-01T12:42:19.000Z</time>
      </trkpt>
      <trkpt lat="43.47678" lon="2.29407">
        <ele>740.5</ele>
        <time>2017-06-01T12:42:20.000Z</time>
      </trkpt>
      <trkpt lat="43.47684" lon="2.29412">
        <ele>740.4</ele>
        <time>2017-06-01T12:42:21.000Z</time>
      </trkpt>
      <trkpt lat="43.47686" lon="2.29419">
        <ele>740.4</ele>
        <time>2017-06-01T12:42:22.000Z</time>
      </trkpt>
      <trkpt lat="43.47689" lon="2.29425">
        <ele>740.4</ele>
        <time>2017-06-01T12:42:23.000Z</time>
      </trkpt>
      <trkpt lat="43.47691" lon="2.29432">
        <ele>740.4</ele>
        <time>2017-06-01T12:42:24.000Z</time>
      </trkpt>
      <trkpt lat="43.47691" lon="2.29439">
        <ele>740.4</ele>
        <time>2017-06-01T12:42:25.000Z</time>
      </trkpt>
      <trkpt lat="43.47691" lon="2.29443">
        <ele>740.5</ele>
        <time>2017-06-01T12:42:26.000Z</time>
      </trkpt>
      <trkpt lat="43.47689" lon="2.2944">
        <ele>741</ele>
        <time>2017-06-01T12:42:27.000Z</time>
      </trkpt>
      <trkpt lat="43.47681" lon="2.29447">
        <ele>741.3</ele>
        <time>2017-06-01T12:42:28.000Z</time>
      </trkpt>
      <trkpt lat="43.47685" lon="2.29454">
        <ele>741.5</ele>
        <time>2017-06-01T12:42:29.000Z</time>
      </trkpt>
      <trkpt lat="43.47685" lon="2.29462">
        <ele>741.6</ele>
        <time>2017-06-01T12:42:30.000Z</time>
      </trkpt>
      <trkpt lat="43.4769" lon="2.29462">
        <ele>741.8</ele>
        <time>2017-06-01T12:42:31.000Z</time>
      </trkpt>
      <trkpt lat="43.47693" lon="2.29471">
        <ele>742</ele>
        <time>2017-06-01T12:42:32.000Z</time>
      </trkpt>
      <trkpt lat="43.47697" lon="2.29477">
        <ele>742.1</ele>
        <time>2017-06-01T12:42:35.000Z</time>
      </trkpt>
      <trkpt lat="43.47702" lon="2.29476">
        <ele>742.1</ele>
        <time>2017-06-01T12:42:36.000Z</time>
      </trkpt>
      <trkpt lat="43.47705" lon="2.29476">
        <ele>742.1</ele>
        <time>2017-06-01T12:42:37.000Z</time>
      </trkpt>
      <trkpt lat="43.47711" lon="2.29478">
        <ele>742.1</ele>
        <time>2017-06-01T12:42:38.000Z</time>
      </trkpt>
      <trkpt lat="43.47713" lon="2.2948">
        <ele>742</ele>
        <time>2017-06-01T12:42:39.000Z</time>
      </trkpt>
      <trkpt lat="43.47717" lon="2.29485">
        <ele>741.9</ele>
        <time>2017-06-01T12:42:40.000Z</time>
      </trkpt>
      <trkpt lat="43.47721" lon="2.29489">
        <ele>741.8</ele>
        <time>2017-06-01T12:42:41.000Z</time>
      </trkpt>
      <trkpt lat="43.47725" lon="2.29492">
        <ele>741.7</ele>
        <time>2017-06-01T12:42:42.000Z</time>
      </trkpt>
      <trkpt lat="43.47731" lon="2.29493">
        <ele>741.4</ele>
        <time>2017-06-01T12:42:44.000Z</time>
      </trkpt>
      <trkpt lat="43.47735" lon="2.29508">
        <ele>740.9</ele>
        <time>2017-06-01T12:42:45.000Z</time>
      </trkpt>
      <trkpt lat="43.47739" lon="2.29509">
        <ele>740.7</ele>
        <time>2017-06-01T12:42:46.000Z</time>
      </trkpt>
      <trkpt lat="43.47735" lon="2.29512">
        <ele>740.3</ele>
        <time>2017-06-01T12:42:47.000Z</time>
      </trkpt>
      <trkpt lat="43.4774" lon="2.29514">
        <ele>739.7</ele>
        <time>2017-06-01T12:42:48.000Z</time>
      </trkpt>
      <trkpt lat="43.47748" lon="2.29509">
        <ele>738.9</ele>
        <time>2017-06-01T12:42:49.000Z</time>
      </trkpt>
      <trkpt lat="43.47749" lon="2.29513">
        <ele>738.5</ele>
        <time>2017-06-01T12:42:52.000Z</time>
      </trkpt>
      <trkpt lat="43.47764" lon="2.29508">
        <ele>737</ele>
        <time>2017-06-01T12:42:55.000Z</time>
      </trkpt>
      <trkpt lat="43.47771" lon="2.29509">
        <ele>736.3</ele>
        <time>2017-06-01T12:42:56.000Z</time>
      </trkpt>
      <trkpt lat="43.47781" lon="2.29512">
        <ele>735.1</ele>
        <time>2017-06-01T12:42:57.000Z</time>
      </trkpt>
      <trkpt lat="43.47788" lon="2.29514">
        <ele>734.4</ele>
        <time>2017-06-01T12:42:58.000Z</time>
      </trkpt>
      <trkpt lat="43.47793" lon="2.29522">
        <ele>733.5</ele>
        <time>2017-06-01T12:42:59.000Z</time>
      </trkpt>
      <trkpt lat="43.47795" lon="2.2953">
        <ele>732.1</ele>
        <time>2017-06-01T12:43:00.000Z</time>
      </trkpt>
      <trkpt lat="43.47801" lon="2.29532">
        <ele>731.3</ele>
        <time>2017-06-01T12:43:01.000Z</time>
      </trkpt>
      <trkpt lat="43.47807" lon="2.29538">
        <ele>730.4</ele>
        <time>2017-06-01T12:43:02.000Z</time>
      </trkpt>
      <trkpt lat="43.47812" lon="2.29544">
        <ele>729.9</ele>
        <time>2017-06-01T12:43:03.000Z</time>
      </trkpt>
      <trkpt lat="43.47811" lon="2.29554">
        <ele>729.2</ele>
        <time>2017-06-01T12:43:04.000Z</time>
      </trkpt>
      <trkpt lat="43.47813" lon="2.29559">
        <ele>728.8</ele>
        <time>2017-06-01T12:43:05.000Z</time>
      </trkpt>
      <trkpt lat="43.47818" lon="2.29563">
        <ele>728.2</ele>
        <time>2017-06-01T12:43:06.000Z</time>
      </trkpt>
      <trkpt lat="43.4782" lon="2.2957">
        <ele>727.8</ele>
        <time>2017-06-01T12:43:07.000Z</time>
      </trkpt>
      <trkpt lat="43.47828" lon="2.29571">
        <ele>727.4</ele>
        <time>2017-06-01T12:43:08.000Z</time>
      </trkpt>
      <trkpt lat="43.47832" lon="2.29576">
        <ele>727.1</ele>
        <time>2017-06-01T12:43:09.000Z</time>
      </trkpt>
      <trkpt lat="43.47829" lon="2.29582">
        <ele>726.9</ele>
        <time>2017-06-01T12:43:10.000Z</time>
      </trkpt>
      <trkpt lat="43.47834" lon="2.29587">
        <ele>726.5</ele>
        <time>2017-06-01T12:43:11.000Z</time>
      </trkpt>
      <trkpt lat="43.4784" lon="2.29593">
        <ele>726.2</ele>
        <time>2017-06-01T12:43:12.000Z</time>
      </trkpt>
      <trkpt lat="43.47844" lon="2.29602">
        <ele>725.8</ele>
        <time>2017-06-01T12:43:13.000Z</time>
      </trkpt>
      <trkpt lat="43.47847" lon="2.29615">
        <ele>725.3</ele>
        <time>2017-06-01T12:43:14.000Z</time>
      </trkpt>
      <trkpt lat="43.47851" lon="2.29629">
        <ele>724.8</ele>
        <time>2017-06-01T12:43:15.000Z</time>
      </trkpt>
      <trkpt lat="43.47855" lon="2.29637">
        <ele>724.4</ele>
        <time>2017-06-01T12:43:16.000Z</time>
      </trkpt>
      <trkpt lat="43.47856" lon="2.29648">
        <ele>723.9</ele>
        <time>2017-06-01T12:43:17.000Z</time>
      </trkpt>
      <trkpt lat="43.4786" lon="2.29652">
        <ele>723.6</ele>
        <time>2017-06-01T12:43:18.000Z</time>
      </trkpt>
      <trkpt lat="43.47864" lon="2.29659">
        <ele>723.1</ele>
        <time>2017-06-01T12:43:19.000Z</time>
      </trkpt>
      <trkpt lat="43.47866" lon="2.29666">
        <ele>722.8</ele>
        <time>2017-06-01T12:43:20.000Z</time>
      </trkpt>
      <trkpt lat="43.47867" lon="2.29678">
        <ele>722.4</ele>
        <time>2017-06-01T12:43:21.000Z</time>
      </trkpt>
      <trkpt lat="43.47867" lon="2.29682">
        <ele>722.2</ele>
        <time>2017-06-01T12:43:22.000Z</time>
      </trkpt>
      <trkpt lat="43.47868" lon="2.29692">
        <ele>721.9</ele>
        <time>2017-06-01T12:43:23.000Z</time>
      </trkpt>
      <trkpt lat="43.4787" lon="2.29697">
        <ele>721.7</ele>
        <time>2017-06-01T12:43:24.000Z</time>
      </trkpt>
      <trkpt lat="43.47877" lon="2.29702">
        <ele>721</ele>
        <time>2017-06-01T12:43:25.000Z</time>
      </trkpt>
      <trkpt lat="43.47881" lon="2.29704">
        <ele>720.9</ele>
        <time>2017-06-01T12:43:26.000Z</time>
      </trkpt>
      <trkpt lat="43.47887" lon="2.29708">
        <ele>720.8</ele>
        <time>2017-06-01T12:43:27.000Z</time>
      </trkpt>
      <trkpt lat="43.47892" lon="2.29711">
        <ele>720.7</ele>
        <time>2017-06-01T12:43:28.000Z</time>
      </trkpt>
      <trkpt lat="43.47897" lon="2.29714">
        <ele>720.7</ele>
        <time>2017-06-01T12:43:29.000Z</time>
      </trkpt>
      <trkpt lat="43.47904" lon="2.29713">
        <ele>720.5</ele>
        <time>2017-06-01T12:43:30.000Z</time>
      </trkpt>
      <trkpt lat="43.4791" lon="2.29712">
        <ele>720.2</ele>
        <time>2017-06-01T12:43:31.000Z</time>
      </trkpt>
      <trkpt lat="43.47914" lon="2.29709">
        <ele>719.9</ele>
        <time>2017-06-01T12:43:32.000Z</time>
      </trkpt>
      <trkpt lat="43.47919" lon="2.29706">
        <ele>719.4</ele>
        <time>2017-06-01T12:43:33.000Z</time>
      </trkpt>
      <trkpt lat="43.47922" lon="2.29703">
        <ele>718.9</ele>
        <time>2017-06-01T12:43:34.000Z</time>
      </trkpt>
      <trkpt lat="43.47922" lon="2.29695">
        <ele>718.4</ele>
        <time>2017-06-01T12:43:35.000Z</time>
      </trkpt>
      <trkpt lat="43.47926" lon="2.29689">
        <ele>718.6</ele>
        <time>2017-06-01T12:43:36.000Z</time>
      </trkpt>
      <trkpt lat="43.47929" lon="2.29686">
        <ele>718.7</ele>
        <time>2017-06-01T12:43:37.000Z</time>
      </trkpt>
      <trkpt lat="43.47932" lon="2.29684">
        <ele>718.9</ele>
        <time>2017-06-01T12:43:38.000Z</time>
      </trkpt>
      <trkpt lat="43.47936" lon="2.2968">
        <ele>719.2</ele>
        <time>2017-06-01T12:43:39.000Z</time>
      </trkpt>
      <trkpt lat="43.47942" lon="2.2968">
        <ele>719.4</ele>
        <time>2017-06-01T12:43:41.000Z</time>
      </trkpt>
      <trkpt lat="43.47945" lon="2.29679">
        <ele>719.4</ele>
        <time>2017-06-01T12:43:42.000Z</time>
      </trkpt>
      <trkpt lat="43.47948" lon="2.2968">
        <ele>719.5</ele>
        <time>2017-06-01T12:43:43.000Z</time>
      </trkpt>
      <trkpt lat="43.47951" lon="2.29682">
        <ele>719.7</ele>
        <time>2017-06-01T12:43:44.000Z</time>
      </trkpt>
      <trkpt lat="43.47955" lon="2.29683">
        <ele>720</ele>
        <time>2017-06-01T12:43:45.000Z</time>
      </trkpt>
      <trkpt lat="43.47957" lon="2.29686">
        <ele>720</ele>
        <time>2017-06-01T12:43:46.000Z</time>
      </trkpt>
      <trkpt lat="43.47962" lon="2.29687">
        <ele>720</ele>
        <time>2017-06-01T12:43:47.000Z</time>
      </trkpt>
      <trkpt lat="43.47965" lon="2.2969">
        <ele>719.7</ele>
        <time>2017-06-01T12:43:48.000Z</time>
      </trkpt>
      <trkpt lat="43.47969" lon="2.29693">
        <ele>719.5</ele>
        <time>2017-06-01T12:43:49.000Z</time>
      </trkpt>
      <trkpt lat="43.47972" lon="2.29694">
        <ele>719.3</ele>
        <time>2017-06-01T12:43:50.000Z</time>
      </trkpt>
      <trkpt lat="43.47974" lon="2.29698">
        <ele>719.1</ele>
        <time>2017-06-01T12:43:51.000Z</time>
      </trkpt>
      <trkpt lat="43.47975" lon="2.29702">
        <ele>718.7</ele>
        <time>2017-06-01T12:43:52.000Z</time>
      </trkpt>
      <trkpt lat="43.4798" lon="2.29702">
        <ele>718.7</ele>
        <time>2017-06-01T12:43:53.000Z</time>
      </trkpt>
      <trkpt lat="43.47984" lon="2.29705">
        <ele>718.3</ele>
        <time>2017-06-01T12:43:54.000Z</time>
      </trkpt>
      <trkpt lat="43.47987" lon="2.29709">
        <ele>718.3</ele>
        <time>2017-06-01T12:43:55.000Z</time>
      </trkpt>
      <trkpt lat="43.4799" lon="2.29715">
        <ele>717.4</ele>
        <time>2017-06-01T12:43:57.000Z</time>
      </trkpt>
      <trkpt lat="43.47994" lon="2.29717">
        <ele>717</ele>
        <time>2017-06-01T12:43:58.000Z</time>
      </trkpt>
      <trkpt lat="43.47997" lon="2.29716">
        <ele>717.2</ele>
        <time>2017-06-01T12:43:59.000Z</time>
      </trkpt>
      <trkpt lat="43.48002" lon="2.29716">
        <ele>716.8</ele>
        <time>2017-06-01T12:44:00.000Z</time>
      </trkpt>
      <trkpt lat="43.48002" lon="2.29721">
        <ele>716.5</ele>
        <time>2017-06-01T12:44:03.000Z</time>
      </trkpt>
      <trkpt lat="43.48003" lon="2.29729">
        <ele>715.8</ele>
        <time>2017-06-01T12:44:05.000Z</time>
      </trkpt>
      <trkpt lat="43.48007" lon="2.29734">
        <ele>715.2</ele>
        <time>2017-06-01T12:44:06.000Z</time>
      </trkpt>
      <trkpt lat="43.48009" lon="2.29738">
        <ele>714.4</ele>
        <time>2017-06-01T12:44:07.000Z</time>
      </trkpt>
      <trkpt lat="43.48009" lon="2.29742">
        <ele>714</ele>
        <time>2017-06-01T12:44:08.000Z</time>
      </trkpt>
      <trkpt lat="43.48007" lon="2.29747">
        <ele>713.4</ele>
        <time>2017-06-01T12:44:09.000Z</time>
      </trkpt>
      <trkpt lat="43.48004" lon="2.29755">
        <ele>713</ele>
        <time>2017-06-01T12:44:10.000Z</time>
      </trkpt>
      <trkpt lat="43.48007" lon="2.29762">
        <ele>711.7</ele>
        <time>2017-06-01T12:44:11.000Z</time>
      </trkpt>
      <trkpt lat="43.48013" lon="2.29764">
        <ele>711.6</ele>
        <time>2017-06-01T12:44:12.000Z</time>
      </trkpt>
      <trkpt lat="43.48013" lon="2.29768">
        <ele>710.9</ele>
        <time>2017-06-01T12:44:13.000Z</time>
      </trkpt>
      <trkpt lat="43.48017" lon="2.2977">
        <ele>710.2</ele>
        <time>2017-06-01T12:44:14.000Z</time>
      </trkpt>
      <trkpt lat="43.4802" lon="2.29773">
        <ele>710.1</ele>
        <time>2017-06-01T12:44:15.000Z</time>
      </trkpt>
      <trkpt lat="43.48022" lon="2.29774">
        <ele>709.3</ele>
        <time>2017-06-01T12:44:16.000Z</time>
      </trkpt>
      <trkpt lat="43.48026" lon="2.29778">
        <ele>708.5</ele>
        <time>2017-06-01T12:44:18.000Z</time>
      </trkpt>
      <trkpt lat="43.48031" lon="2.29782">
        <ele>707.4</ele>
        <time>2017-06-01T12:44:19.000Z</time>
      </trkpt>
      <trkpt lat="43.48036" lon="2.29786">
        <ele>706.4</ele>
        <time>2017-06-01T12:44:20.000Z</time>
      </trkpt>
      <trkpt lat="43.4804" lon="2.29789">
        <ele>706</ele>
        <time>2017-06-01T12:44:22.000Z</time>
      </trkpt>
      <trkpt lat="43.48043" lon="2.29786">
        <ele>705.8</ele>
        <time>2017-06-01T12:44:23.000Z</time>
      </trkpt>
      <trkpt lat="43.48054" lon="2.29783">
        <ele>706</ele>
        <time>2017-06-01T12:44:25.000Z</time>
      </trkpt>
      <trkpt lat="43.48058" lon="2.2978">
        <ele>705.6</ele>
        <time>2017-06-01T12:44:26.000Z</time>
      </trkpt>
      <trkpt lat="43.48062" lon="2.29779">
        <ele>705.1</ele>
        <time>2017-06-01T12:44:27.000Z</time>
      </trkpt>
      <trkpt lat="43.48065" lon="2.29781">
        <ele>704.7</ele>
        <time>2017-06-01T12:44:28.000Z</time>
      </trkpt>
      <trkpt lat="43.48068" lon="2.29781">
        <ele>704.5</ele>
        <time>2017-06-01T12:44:29.000Z</time>
      </trkpt>
      <trkpt lat="43.48072" lon="2.2978">
        <ele>704.1</ele>
        <time>2017-06-01T12:44:30.000Z</time>
      </trkpt>
      <trkpt lat="43.48076" lon="2.29784">
        <ele>703.8</ele>
        <time>2017-06-01T12:44:32.000Z</time>
      </trkpt>
      <trkpt lat="43.48079" lon="2.29782">
        <ele>703.6</ele>
        <time>2017-06-01T12:44:33.000Z</time>
      </trkpt>
      <trkpt lat="43.48083" lon="2.2978">
        <ele>703.4</ele>
        <time>2017-06-01T12:44:35.000Z</time>
      </trkpt>
      <trkpt lat="43.48086" lon="2.29781">
        <ele>703.2</ele>
        <time>2017-06-01T12:44:36.000Z</time>
      </trkpt>
      <trkpt lat="43.48084" lon="2.29784">
        <ele>703.1</ele>
        <time>2017-06-01T12:44:37.000Z</time>
      </trkpt>
      <trkpt lat="43.48087" lon="2.29787">
        <ele>703</ele>
        <time>2017-06-01T12:44:39.000Z</time>
      </trkpt>
      <trkpt lat="43.48092" lon="2.29788">
        <ele>702.8</ele>
        <time>2017-06-01T12:44:40.000Z</time>
      </trkpt>
      <trkpt lat="43.48095" lon="2.29786">
        <ele>702.5</ele>
        <time>2017-06-01T12:44:44.000Z</time>
      </trkpt>
      <trkpt lat="43.48098" lon="2.29787">
        <ele>702.3</ele>
        <time>2017-06-01T12:44:48.000Z</time>
      </trkpt>
      <trkpt lat="43.48106" lon="2.29787">
        <ele>702.1</ele>
        <time>2017-06-01T12:44:52.000Z</time>
      </trkpt>
      <trkpt lat="43.48111" lon="2.29783">
        <ele>702.1</ele>
        <time>2017-06-01T12:44:54.000Z</time>
      </trkpt>
      <trkpt lat="43.48117" lon="2.29781">
        <ele>702.1</ele>
        <time>2017-06-01T12:44:56.000Z</time>
      </trkpt>
      <trkpt lat="43.48119" lon="2.29784">
        <ele>702.1</ele>
        <time>2017-06-01T12:44:59.000Z</time>
      </trkpt>
      <trkpt lat="43.48124" lon="2.29782">
        <ele>702.1</ele>
        <time>2017-06-01T12:45:01.000Z</time>
      </trkpt>
      <trkpt lat="43.48131" lon="2.29784">
        <ele>702</ele>
        <time>2017-06-01T12:45:04.000Z</time>
      </trkpt>
      <trkpt lat="43.48139" lon="2.29779">
        <ele>701.7</ele>
        <time>2017-06-01T12:45:06.000Z</time>
      </trkpt>
      <trkpt lat="43.48145" lon="2.29777">
        <ele>701.4</ele>
        <time>2017-06-01T12:45:07.000Z</time>
      </trkpt>
      <trkpt lat="43.48149" lon="2.29777">
        <ele>701.3</ele>
        <time>2017-06-01T12:45:08.000Z</time>
      </trkpt>
      <trkpt lat="43.48158" lon="2.29779">
        <ele>700.5</ele>
        <time>2017-06-01T12:45:09.000Z</time>
      </trkpt>
      <trkpt lat="43.48164" lon="2.29779">
        <ele>700.1</ele>
        <time>2017-06-01T12:45:10.000Z</time>
      </trkpt>
      <trkpt lat="43.48166" lon="2.29777">
        <ele>699.8</ele>
        <time>2017-06-01T12:45:11.000Z</time>
      </trkpt>
      <trkpt lat="43.48172" lon="2.29779">
        <ele>699.3</ele>
        <time>2017-06-01T12:45:12.000Z</time>
      </trkpt>
      <trkpt lat="43.48178" lon="2.29778">
        <ele>698.7</ele>
        <time>2017-06-01T12:45:13.000Z</time>
      </trkpt>
      <trkpt lat="43.48182" lon="2.29777">
        <ele>698.4</ele>
        <time>2017-06-01T12:45:15.000Z</time>
      </trkpt>
      <trkpt lat="43.48186" lon="2.29777">
        <ele>698.1</ele>
        <time>2017-06-01T12:45:18.000Z</time>
      </trkpt>
      <trkpt lat="43.4819" lon="2.29779">
        <ele>697.8</ele>
        <time>2017-06-01T12:45:19.000Z</time>
      </trkpt>
      <trkpt lat="43.48195" lon="2.29782">
        <ele>697.3</ele>
        <time>2017-06-01T12:45:21.000Z</time>
      </trkpt>
      <trkpt lat="43.482" lon="2.29783">
        <ele>696.8</ele>
        <time>2017-06-01T12:45:22.000Z</time>
      </trkpt>
      <trkpt lat="43.48206" lon="2.29786">
        <ele>696.2</ele>
        <time>2017-06-01T12:45:23.000Z</time>
      </trkpt>
      <trkpt lat="43.48208" lon="2.29789">
        <ele>695.9</ele>
        <time>2017-06-01T12:45:24.000Z</time>
      </trkpt>
      <trkpt lat="43.48213" lon="2.2979">
        <ele>695.5</ele>
        <time>2017-06-01T12:45:25.000Z</time>
      </trkpt>
      <trkpt lat="43.48217" lon="2.29791">
        <ele>695.2</ele>
        <time>2017-06-01T12:45:26.000Z</time>
      </trkpt>
      <trkpt lat="43.48223" lon="2.2979">
        <ele>694.3</ele>
        <time>2017-06-01T12:45:29.000Z</time>
      </trkpt>
      <trkpt lat="43.48227" lon="2.29792">
        <ele>693.8</ele>
        <time>2017-06-01T12:45:30.000Z</time>
      </trkpt>
      <trkpt lat="43.48235" lon="2.29795">
        <ele>691</ele>
        <time>2017-06-01T12:45:32.000Z</time>
      </trkpt>
      <trkpt lat="43.48242" lon="2.29795">
        <ele>690.4</ele>
        <time>2017-06-01T12:45:34.000Z</time>
      </trkpt>
      <trkpt lat="43.48248" lon="2.29796">
        <ele>689.9</ele>
        <time>2017-06-01T12:45:36.000Z</time>
      </trkpt>
      <trkpt lat="43.48253" lon="2.29796">
        <ele>689.5</ele>
        <time>2017-06-01T12:45:37.000Z</time>
      </trkpt>
      <trkpt lat="43.48256" lon="2.29798">
        <ele>689.2</ele>
        <time>2017-06-01T12:45:38.000Z</time>
      </trkpt>
      <trkpt lat="43.48259" lon="2.29797">
        <ele>688.9</ele>
        <time>2017-06-01T12:45:39.000Z</time>
      </trkpt>
      <trkpt lat="43.48265" lon="2.29796">
        <ele>688</ele>
        <time>2017-06-01T12:45:40.000Z</time>
      </trkpt>
      <trkpt lat="43.48269" lon="2.29794">
        <ele>687.5</ele>
        <time>2017-06-01T12:45:41.000Z</time>
      </trkpt>
      <trkpt lat="43.48272" lon="2.29792">
        <ele>687</ele>
        <time>2017-06-01T12:45:42.000Z</time>
      </trkpt>
      <trkpt lat="43.48274" lon="2.29786">
        <ele>686.3</ele>
        <time>2017-06-01T12:45:44.000Z</time>
      </trkpt>
      <trkpt lat="43.48277" lon="2.29784">
        <ele>685.8</ele>
        <time>2017-06-01T12:45:45.000Z</time>
      </trkpt>
      <trkpt lat="43.4828" lon="2.29782">
        <ele>685.4</ele>
        <time>2017-06-01T12:45:46.000Z</time>
      </trkpt>
      <trkpt lat="43.48283" lon="2.29779">
        <ele>685</ele>
        <time>2017-06-01T12:45:47.000Z</time>
      </trkpt>
      <trkpt lat="43.48283" lon="2.29771">
        <ele>684.2</ele>
        <time>2017-06-01T12:45:49.000Z</time>
      </trkpt>
      <trkpt lat="43.48284" lon="2.29767">
        <ele>683.9</ele>
        <time>2017-06-01T12:45:51.000Z</time>
      </trkpt>
      <trkpt lat="43.48284" lon="2.29764">
        <ele>683.6</ele>
        <time>2017-06-01T12:45:52.000Z</time>
      </trkpt>
      <trkpt lat="43.48285" lon="2.29759">
        <ele>683.1</ele>
        <time>2017-06-01T12:45:54.000Z</time>
      </trkpt>
      <trkpt lat="43.48287" lon="2.29753">
        <ele>682.6</ele>
        <time>2017-06-01T12:45:56.000Z</time>
      </trkpt>
      <trkpt lat="43.4829" lon="2.29751">
        <ele>682.1</ele>
        <time>2017-06-01T12:45:59.000Z</time>
      </trkpt>
      <trkpt lat="43.48294" lon="2.29745">
        <ele>667.6</ele>
        <time>2017-06-01T12:46:02.000Z</time>
      </trkpt>
      <trkpt lat="43.48296" lon="2.29743">
        <ele>666.9</ele>
        <time>2017-06-01T12:46:03.000Z</time>
      </trkpt>
      <trkpt lat="43.48299" lon="2.29743">
        <ele>666.1</ele>
        <time>2017-06-01T12:46:04.000Z</time>
      </trkpt>
      <trkpt lat="43.48303" lon="2.29741">
        <ele>665.5</ele>
        <time>2017-06-01T12:46:05.000Z</time>
      </trkpt>
      <trkpt lat="43.48307" lon="2.29741">
        <ele>665.5</ele>
        <time>2017-06-01T12:46:07.000Z</time>
      </trkpt>
      <trkpt lat="43.48311" lon="2.29745">
        <ele>664.7</ele>
        <time>2017-06-01T12:46:10.000Z</time>
      </trkpt>
      <trkpt lat="43.48316" lon="2.29751">
        <ele>664</ele>
        <time>2017-06-01T12:46:12.000Z</time>
      </trkpt>
      <trkpt lat="43.48319" lon="2.29754">
        <ele>663.9</ele>
        <time>2017-06-01T12:46:13.000Z</time>
      </trkpt>
      <trkpt lat="43.48321" lon="2.29758">
        <ele>663.7</ele>
        <time>2017-06-01T12:46:14.000Z</time>
      </trkpt>
      <trkpt lat="43.48324" lon="2.29764">
        <ele>663.3</ele>
        <time>2017-06-01T12:46:15.000Z</time>
      </trkpt>
      <trkpt lat="43.48327" lon="2.29769">
        <ele>662.7</ele>
        <time>2017-06-01T12:46:17.000Z</time>
      </trkpt>
      <trkpt lat="43.48323" lon="2.29773">
        <ele>661.8</ele>
        <time>2017-06-01T12:46:18.000Z</time>
      </trkpt>
      <trkpt lat="43.48323" lon="2.29778">
        <ele>660.6</ele>
        <time>2017-06-01T12:46:20.000Z</time>
      </trkpt>
      <trkpt lat="43.48321" lon="2.29787">
        <ele>659.6</ele>
        <time>2017-06-01T12:46:22.000Z</time>
      </trkpt>
      <trkpt lat="43.48319" lon="2.29792">
        <ele>659.6</ele>
        <time>2017-06-01T12:46:23.000Z</time>
      </trkpt>
      <trkpt lat="43.48322" lon="2.29796">
        <ele>659.6</ele>
        <time>2017-06-01T12:46:24.000Z</time>
      </trkpt>
      <trkpt lat="43.48322" lon="2.29802">
        <ele>659.8</ele>
        <time>2017-06-01T12:46:25.000Z</time>
      </trkpt>
      <trkpt lat="43.48319" lon="2.29809">
        <ele>659</ele>
        <time>2017-06-01T12:46:26.000Z</time>
      </trkpt>
      <trkpt lat="43.48317" lon="2.29816">
        <ele>658.5</ele>
        <time>2017-06-01T12:46:27.000Z</time>
      </trkpt>
      <trkpt lat="43.48317" lon="2.29822">
        <ele>658.2</ele>
        <time>2017-06-01T12:46:28.000Z</time>
      </trkpt>
      <trkpt lat="43.48319" lon="2.29827">
        <ele>658.4</ele>
        <time>2017-06-01T12:46:29.000Z</time>
      </trkpt>
      <trkpt lat="43.48317" lon="2.29834">
        <ele>658.5</ele>
        <time>2017-06-01T12:46:30.000Z</time>
      </trkpt>
      <trkpt lat="43.48315" lon="2.29838">
        <ele>658.3</ele>
        <time>2017-06-01T12:46:31.000Z</time>
      </trkpt>
      <trkpt lat="43.48323" lon="2.2985">
        <ele>658.6</ele>
        <time>2017-06-01T12:46:33.000Z</time>
      </trkpt>
      <trkpt lat="43.48333" lon="2.29859">
        <ele>658.4</ele>
        <time>2017-06-01T12:46:34.000Z</time>
      </trkpt>
      <trkpt lat="43.48327" lon="2.2986">
        <ele>657.4</ele>
        <time>2017-06-01T12:46:35.000Z</time>
      </trkpt>
      <trkpt lat="43.48331" lon="2.29868">
        <ele>654.7</ele>
        <time>2017-06-01T12:46:37.000Z</time>
      </trkpt>
      <trkpt lat="43.48334" lon="2.29871">
        <ele>653</ele>
        <time>2017-06-01T12:46:38.000Z</time>
      </trkpt>
      <trkpt lat="43.48341" lon="2.29874">
        <ele>650.3</ele>
        <time>2017-06-01T12:46:39.000Z</time>
      </trkpt>
      <trkpt lat="43.48345" lon="2.29876">
        <ele>649.3</ele>
        <time>2017-06-01T12:46:40.000Z</time>
      </trkpt>
      <trkpt lat="43.48348" lon="2.29873">
        <ele>648.7</ele>
        <time>2017-06-01T12:46:42.000Z</time>
      </trkpt>
      <trkpt lat="43.48351" lon="2.2987">
        <ele>648.6</ele>
        <time>2017-06-01T12:46:43.000Z</time>
      </trkpt>
      <trkpt lat="43.48352" lon="2.29867">
        <ele>648.5</ele>
        <time>2017-06-01T12:46:44.000Z</time>
      </trkpt>
      <trkpt lat="43.48355" lon="2.29865">
        <ele>647.9</ele>
        <time>2017-06-01T12:46:45.000Z</time>
      </trkpt>
      <trkpt lat="43.48356" lon="2.29862">
        <ele>647.1</ele>
        <time>2017-06-01T12:46:47.000Z</time>
      </trkpt>
      <trkpt lat="43.48359" lon="2.29862">
        <ele>646.6</ele>
        <time>2017-06-01T12:46:48.000Z</time>
      </trkpt>
      <trkpt lat="43.48364" lon="2.2986">
        <ele>646.6</ele>
        <time>2017-06-01T12:46:49.000Z</time>
      </trkpt>
      <trkpt lat="43.48363" lon="2.29856">
        <ele>646.5</ele>
        <time>2017-06-01T12:46:50.000Z</time>
      </trkpt>
      <trkpt lat="43.48365" lon="2.2985">
        <ele>646.3</ele>
        <time>2017-06-01T12:46:52.000Z</time>
      </trkpt>
      <trkpt lat="43.48368" lon="2.29845">
        <ele>646.2</ele>
        <time>2017-06-01T12:46:53.000Z</time>
      </trkpt>
      <trkpt lat="43.4837" lon="2.29841">
        <ele>646.2</ele>
        <time>2017-06-01T12:46:54.000Z</time>
      </trkpt>
      <trkpt lat="43.48374" lon="2.29834">
        <ele>646.8</ele>
        <time>2017-06-01T12:46:55.000Z</time>
      </trkpt>
      <trkpt lat="43.48376" lon="2.29829">
        <ele>646.9</ele>
        <time>2017-06-01T12:46:56.000Z</time>
      </trkpt>
      <trkpt lat="43.48378" lon="2.29822">
        <ele>646.7</ele>
        <time>2017-06-01T12:46:57.000Z</time>
      </trkpt>
      <trkpt lat="43.4838" lon="2.29818">
        <ele>646.1</ele>
        <time>2017-06-01T12:46:58.000Z</time>
      </trkpt>
      <trkpt lat="43.48382" lon="2.29814">
        <ele>645.3</ele>
        <time>2017-06-01T12:47:00.000Z</time>
      </trkpt>
      <trkpt lat="43.48387" lon="2.29813">
        <ele>644.2</ele>
        <time>2017-06-01T12:47:01.000Z</time>
      </trkpt>
      <trkpt lat="43.4839" lon="2.29811">
        <ele>643.3</ele>
        <time>2017-06-01T12:47:02.000Z</time>
      </trkpt>
      <trkpt lat="43.48397" lon="2.29803">
        <ele>641</ele>
        <time>2017-06-01T12:47:03.000Z</time>
      </trkpt>
      <trkpt lat="43.484" lon="2.29799">
        <ele>640.4</ele>
        <time>2017-06-01T12:47:04.000Z</time>
      </trkpt>
      <trkpt lat="43.48398" lon="2.29792">
        <ele>639.6</ele>
        <time>2017-06-01T12:47:05.000Z</time>
      </trkpt>
      <trkpt lat="43.48402" lon="2.29787">
        <ele>639.5</ele>
        <time>2017-06-01T12:47:06.000Z</time>
      </trkpt>
      <trkpt lat="43.48407" lon="2.29781">
        <ele>638.5</ele>
        <time>2017-06-01T12:47:07.000Z</time>
      </trkpt>
      <trkpt lat="43.48413" lon="2.29776">
        <ele>637.2</ele>
        <time>2017-06-01T12:47:08.000Z</time>
      </trkpt>
      <trkpt lat="43.48417" lon="2.29769">
        <ele>636.1</ele>
        <time>2017-06-01T12:47:09.000Z</time>
      </trkpt>
      <trkpt lat="43.48422" lon="2.29762">
        <ele>633.8</ele>
        <time>2017-06-01T12:47:10.000Z</time>
      </trkpt>
      <trkpt lat="43.48424" lon="2.29759">
        <ele>633.1</ele>
        <time>2017-06-01T12:47:11.000Z</time>
      </trkpt>
      <trkpt lat="43.4842" lon="2.29753">
        <ele>631.7</ele>
        <time>2017-06-01T12:47:13.000Z</time>
      </trkpt>
      <trkpt lat="43.48422" lon="2.2975">
        <ele>631.1</ele>
        <time>2017-06-01T12:47:14.000Z</time>
      </trkpt>
      <trkpt lat="43.48425" lon="2.29745">
        <ele>630.1</ele>
        <time>2017-06-01T12:47:16.000Z</time>
      </trkpt>
      <trkpt lat="43.48426" lon="2.29741">
        <ele>629.3</ele>
        <time>2017-06-01T12:47:17.000Z</time>
      </trkpt>
      <trkpt lat="43.48428" lon="2.29735">
        <ele>628.5</ele>
        <time>2017-06-01T12:47:18.000Z</time>
      </trkpt>
      <trkpt lat="43.48436" lon="2.29728">
        <ele>627.3</ele>
        <time>2017-06-01T12:47:19.000Z</time>
      </trkpt>
      <trkpt lat="43.48437" lon="2.29722">
        <ele>626.4</ele>
        <time>2017-06-01T12:47:20.000Z</time>
      </trkpt>
      <trkpt lat="43.48442" lon="2.29716">
        <ele>624.7</ele>
        <time>2017-06-01T12:47:21.000Z</time>
      </trkpt>
      <trkpt lat="43.48446" lon="2.29711">
        <ele>623.7</ele>
        <time>2017-06-01T12:47:22.000Z</time>
      </trkpt>
      <trkpt lat="43.4845" lon="2.29703">
        <ele>622.8</ele>
        <time>2017-06-01T12:47:23.000Z</time>
      </trkpt>
      <trkpt lat="43.48453" lon="2.29704">
        <ele>622.4</ele>
        <time>2017-06-01T12:47:24.000Z</time>
      </trkpt>
      <trkpt lat="43.48462" lon="2.29702">
        <ele>620.3</ele>
        <time>2017-06-01T12:47:25.000Z</time>
      </trkpt>
      <trkpt lat="43.48465" lon="2.29699">
        <ele>619.5</ele>
        <time>2017-06-01T12:47:28.000Z</time>
      </trkpt>
      <trkpt lat="43.48468" lon="2.29702">
        <ele>618.9</ele>
        <time>2017-06-01T12:47:30.000Z</time>
      </trkpt>
      <trkpt lat="43.48473" lon="2.29704">
        <ele>618</ele>
        <time>2017-06-01T12:47:33.000Z</time>
      </trkpt>
      <trkpt lat="43.48476" lon="2.29702">
        <ele>617</ele>
        <time>2017-06-01T12:47:35.000Z</time>
      </trkpt>
      <trkpt lat="43.48479" lon="2.297">
        <ele>616.1</ele>
        <time>2017-06-01T12:47:36.000Z</time>
      </trkpt>
      <trkpt lat="43.48482" lon="2.29698">
        <ele>615.4</ele>
        <time>2017-06-01T12:47:37.000Z</time>
      </trkpt>
      <trkpt lat="43.48479" lon="2.29696">
        <ele>614.7</ele>
        <time>2017-06-01T12:47:38.000Z</time>
      </trkpt>
      <trkpt lat="43.48482" lon="2.297">
        <ele>613.8</ele>
        <time>2017-06-01T12:47:41.000Z</time>
      </trkpt>
      <trkpt lat="43.48487" lon="2.29698">
        <ele>612.7</ele>
        <time>2017-06-01T12:47:43.000Z</time>
      </trkpt>
      <trkpt lat="43.48492" lon="2.29698">
        <ele>611.7</ele>
        <time>2017-06-01T12:47:45.000Z</time>
      </trkpt>
      <trkpt lat="43.48496" lon="2.29695">
        <ele>610.5</ele>
        <time>2017-06-01T12:47:47.000Z</time>
      </trkpt>
      <trkpt lat="43.48498" lon="2.29693">
        <ele>609.5</ele>
        <time>2017-06-01T12:47:48.000Z</time>
      </trkpt>
      <trkpt lat="43.48504" lon="2.29692">
        <ele>607.9</ele>
        <time>2017-06-01T12:47:49.000Z</time>
      </trkpt>
      <trkpt lat="43.48508" lon="2.29692">
        <ele>607.2</ele>
        <time>2017-06-01T12:47:50.000Z</time>
      </trkpt>
      <trkpt lat="43.48515" lon="2.2969">
        <ele>607</ele>
        <time>2017-06-01T12:47:52.000Z</time>
      </trkpt>
      <trkpt lat="43.48518" lon="2.29694">
        <ele>607</ele>
        <time>2017-06-01T12:47:53.000Z</time>
      </trkpt>
      <trkpt lat="43.48521" lon="2.29696">
        <ele>607</ele>
        <time>2017-06-01T12:47:54.000Z</time>
      </trkpt>
      <trkpt lat="43.48524" lon="2.29698">
        <ele>607</ele>
        <time>2017-06-01T12:47:55.000Z</time>
      </trkpt>
      <trkpt lat="43.48528" lon="2.29703">
        <ele>607</ele>
        <time>2017-06-01T12:47:56.000Z</time>
      </trkpt>
      <trkpt lat="43.48534" lon="2.29704">
        <ele>606.9</ele>
        <time>2017-06-01T12:47:57.000Z</time>
      </trkpt>
      <trkpt lat="43.48538" lon="2.29706">
        <ele>606.9</ele>
        <time>2017-06-01T12:47:58.000Z</time>
      </trkpt>
      <trkpt lat="43.48541" lon="2.29707">
        <ele>606.8</ele>
        <time>2017-06-01T12:47:59.000Z</time>
      </trkpt>
      <trkpt lat="43.48544" lon="2.29708">
        <ele>606.8</ele>
        <time>2017-06-01T12:48:00.000Z</time>
      </trkpt>
      <trkpt lat="43.4855" lon="2.29701">
        <ele>606.7</ele>
        <time>2017-06-01T12:48:01.000Z</time>
      </trkpt>
      <trkpt lat="43.48554" lon="2.29703">
        <ele>606.7</ele>
        <time>2017-06-01T12:48:02.000Z</time>
      </trkpt>
      <trkpt lat="43.4856" lon="2.29702">
        <ele>606.7</ele>
        <time>2017-06-01T12:48:04.000Z</time>
      </trkpt>
      <trkpt lat="43.48564" lon="2.29701">
        <ele>606.6</ele>
        <time>2017-06-01T12:48:05.000Z</time>
      </trkpt>
      <trkpt lat="43.4857" lon="2.29699">
        <ele>606.6</ele>
        <time>2017-06-01T12:48:06.000Z</time>
      </trkpt>
      <trkpt lat="43.48576" lon="2.29697">
        <ele>606.5</ele>
        <time>2017-06-01T12:48:08.000Z</time>
      </trkpt>
      <trkpt lat="43.48579" lon="2.29699">
        <ele>606.5</ele>
        <time>2017-06-01T12:48:09.000Z</time>
      </trkpt>
      <trkpt lat="43.48585" lon="2.297">
        <ele>606.5</ele>
        <time>2017-06-01T12:48:10.000Z</time>
      </trkpt>
      <trkpt lat="43.4859" lon="2.29697">
        <ele>606.4</ele>
        <time>2017-06-01T12:48:11.000Z</time>
      </trkpt>
      <trkpt lat="43.48593" lon="2.29696">
        <ele>606.4</ele>
        <time>2017-06-01T12:48:12.000Z</time>
      </trkpt>
      <trkpt lat="43.4859" lon="2.29697">
        <ele>606.4</ele>
        <time>2017-06-01T12:48:13.000Z</time>
      </trkpt>
      <trkpt lat="43.48595" lon="2.29699">
        <ele>606.4</ele>
        <time>2017-06-01T12:48:14.000Z</time>
      </trkpt>
      <trkpt lat="43.48601" lon="2.29699">
        <ele>606.4</ele>
        <time>2017-06-01T12:48:15.000Z</time>
      </trkpt>
      <trkpt lat="43.48606" lon="2.29694">
        <ele>606.3</ele>
        <time>2017-06-01T12:48:20.000Z</time>
      </trkpt>
      <trkpt lat="43.48608" lon="2.29692">
        <ele>606.3</ele>
        <time>2017-06-01T12:48:21.000Z</time>
      </trkpt>
      <trkpt lat="43.48611" lon="2.29688">
        <ele>606.3</ele>
        <time>2017-06-01T12:48:23.000Z</time>
      </trkpt>
      <trkpt lat="43.48616" lon="2.29683">
        <ele>606.3</ele>
        <time>2017-06-01T12:48:24.000Z</time>
      </trkpt>
      <trkpt lat="43.48619" lon="2.2968">
        <ele>606.3</ele>
        <time>2017-06-01T12:48:25.000Z</time>
      </trkpt>
      <trkpt lat="43.48624" lon="2.29678">
        <ele>606.2</ele>
        <time>2017-06-01T12:48:26.000Z</time>
      </trkpt>
      <trkpt lat="43.48628" lon="2.29677">
        <ele>606.2</ele>
        <time>2017-06-01T12:48:28.000Z</time>
      </trkpt>
      <trkpt lat="43.48632" lon="2.29671">
        <ele>606.2</ele>
        <time>2017-06-01T12:48:30.000Z</time>
      </trkpt>
      <trkpt lat="43.48636" lon="2.29672">
        <ele>606.1</ele>
        <time>2017-06-01T12:48:33.000Z</time>
      </trkpt>
      <trkpt lat="43.4864" lon="2.29672">
        <ele>606.1</ele>
        <time>2017-06-01T12:48:36.000Z</time>
      </trkpt>
      <trkpt lat="43.48645" lon="2.29667">
        <ele>606</ele>
        <time>2017-06-01T12:48:38.000Z</time>
      </trkpt>
      <trkpt lat="43.48651" lon="2.29664">
        <ele>605.9</ele>
        <time>2017-06-01T12:48:40.000Z</time>
      </trkpt>
      <trkpt lat="43.48659" lon="2.29659">
        <ele>605.8</ele>
        <time>2017-06-01T12:48:41.000Z</time>
      </trkpt>
      <trkpt lat="43.48663" lon="2.29657">
        <ele>605.7</ele>
        <time>2017-06-01T12:48:42.000Z</time>
      </trkpt>
      <trkpt lat="43.48667" lon="2.29653">
        <ele>605.5</ele>
        <time>2017-06-01T12:48:43.000Z</time>
      </trkpt>
      <trkpt lat="43.48672" lon="2.29649">
        <ele>605.4</ele>
        <time>2017-06-01T12:48:44.000Z</time>
      </trkpt>
      <trkpt lat="43.48677" lon="2.29644">
        <ele>605.3</ele>
        <time>2017-06-01T12:48:45.000Z</time>
      </trkpt>
      <trkpt lat="43.48683" lon="2.29642">
        <ele>605.1</ele>
        <time>2017-06-01T12:48:46.000Z</time>
      </trkpt>
      <trkpt lat="43.4869" lon="2.29638">
        <ele>604.9</ele>
        <time>2017-06-01T12:48:47.000Z</time>
      </trkpt>
      <trkpt lat="43.48696" lon="2.29635">
        <ele>604.7</ele>
        <time>2017-06-01T12:48:48.000Z</time>
      </trkpt>
      <trkpt lat="43.48698" lon="2.29634">
        <ele>604.6</ele>
        <time>2017-06-01T12:48:49.000Z</time>
      </trkpt>
      <trkpt lat="43.48702" lon="2.29632">
        <ele>604.5</ele>
        <time>2017-06-01T12:48:50.000Z</time>
      </trkpt>
      <trkpt lat="43.48709" lon="2.29626">
        <ele>604.2</ele>
        <time>2017-06-01T12:48:51.000Z</time>
      </trkpt>
      <trkpt lat="43.48713" lon="2.29627">
        <ele>604</ele>
        <time>2017-06-01T12:48:52.000Z</time>
      </trkpt>
      <trkpt lat="43.48718" lon="2.29628">
        <ele>603.9</ele>
        <time>2017-06-01T12:48:53.000Z</time>
      </trkpt>
      <trkpt lat="43.48722" lon="2.29628">
        <ele>603.7</ele>
        <time>2017-06-01T12:48:54.000Z</time>
      </trkpt>
      <trkpt lat="43.48726" lon="2.29623">
        <ele>603.5</ele>
        <time>2017-06-01T12:48:55.000Z</time>
      </trkpt>
      <trkpt lat="43.48715" lon="2.29618">
        <ele>603</ele>
        <time>2017-06-01T12:48:56.000Z</time>
      </trkpt>
      <trkpt lat="43.48718" lon="2.29624">
        <ele>602.8</ele>
        <time>2017-06-01T12:48:57.000Z</time>
      </trkpt>
      <trkpt lat="43.48744" lon="2.29604">
        <ele>601.4</ele>
        <time>2017-06-01T12:49:00.000Z</time>
      </trkpt>
      <trkpt lat="43.48752" lon="2.29608">
        <ele>600.9</ele>
        <time>2017-06-01T12:49:01.000Z</time>
      </trkpt>
      <trkpt lat="43.48758" lon="2.29607">
        <ele>600.5</ele>
        <time>2017-06-01T12:49:02.000Z</time>
      </trkpt>
      <trkpt lat="43.48768" lon="2.29603">
        <ele>600</ele>
        <time>2017-06-01T12:49:03.000Z</time>
      </trkpt>
      <trkpt lat="43.48778" lon="2.29603">
        <ele>599.4</ele>
        <time>2017-06-01T12:49:04.000Z</time>
      </trkpt>
      <trkpt lat="43.48785" lon="2.29605">
        <ele>598.9</ele>
        <time>2017-06-01T12:49:05.000Z</time>
      </trkpt>
      <trkpt lat="43.48791" lon="2.29603">
        <ele>598.5</ele>
        <time>2017-06-01T12:49:06.000Z</time>
      </trkpt>
      <trkpt lat="43.48798" lon="2.29599">
        <ele>598</ele>
        <time>2017-06-01T12:49:07.000Z</time>
      </trkpt>
      <trkpt lat="43.48804" lon="2.29596">
        <ele>598</ele>
        <time>2017-06-01T12:49:08.000Z</time>
      </trkpt>
      <trkpt lat="43.48816" lon="2.29591">
        <ele>598.6</ele>
        <time>2017-06-01T12:49:09.000Z</time>
      </trkpt>
      <trkpt lat="43.48821" lon="2.29589">
        <ele>599.4</ele>
        <time>2017-06-01T12:49:10.000Z</time>
      </trkpt>
      <trkpt lat="43.48829" lon="2.29584">
        <ele>599.9</ele>
        <time>2017-06-01T12:49:11.000Z</time>
      </trkpt>
      <trkpt lat="43.48838" lon="2.29576">
        <ele>601.6</ele>
        <time>2017-06-01T12:49:12.000Z</time>
      </trkpt>
      <trkpt lat="43.4883" lon="2.29579">
        <ele>602.3</ele>
        <time>2017-06-01T12:49:13.000Z</time>
      </trkpt>
      <trkpt lat="43.48832" lon="2.29574">
        <ele>602.7</ele>
        <time>2017-06-01T12:49:15.000Z</time>
      </trkpt>
      <trkpt lat="43.48836" lon="2.2957">
        <ele>603.1</ele>
        <time>2017-06-01T12:49:17.000Z</time>
      </trkpt>
      <trkpt lat="43.4884" lon="2.29568">
        <ele>603.5</ele>
        <time>2017-06-01T12:49:20.000Z</time>
      </trkpt>
      <trkpt lat="43.48844" lon="2.29566">
        <ele>603.7</ele>
        <time>2017-06-01T12:49:21.000Z</time>
      </trkpt>
      <trkpt lat="43.48853" lon="2.29561">
        <ele>604.3</ele>
        <time>2017-06-01T12:49:25.000Z</time>
      </trkpt>
      <trkpt lat="43.48855" lon="2.29562">
        <ele>604.5</ele>
        <time>2017-06-01T12:49:27.000Z</time>
      </trkpt>
      <trkpt lat="43.48858" lon="2.29562">
        <ele>604.7</ele>
        <time>2017-06-01T12:49:28.000Z</time>
      </trkpt>
      <trkpt lat="43.48861" lon="2.29561">
        <ele>604.9</ele>
        <time>2017-06-01T12:49:29.000Z</time>
      </trkpt>
      <trkpt lat="43.48866" lon="2.29558">
        <ele>605.3</ele>
        <time>2017-06-01T12:49:30.000Z</time>
      </trkpt>
      <trkpt lat="43.4887" lon="2.29555">
        <ele>605.6</ele>
        <time>2017-06-01T12:49:31.000Z</time>
      </trkpt>
      <trkpt lat="43.48873" lon="2.29557">
        <ele>605.8</ele>
        <time>2017-06-01T12:49:34.000Z</time>
      </trkpt>
      <trkpt lat="43.48877" lon="2.29556">
        <ele>606.1</ele>
        <time>2017-06-01T12:49:36.000Z</time>
      </trkpt>
      <trkpt lat="43.48881" lon="2.29557">
        <ele>606.3</ele>
        <time>2017-06-01T12:49:39.000Z</time>
      </trkpt>
      <trkpt lat="43.48885" lon="2.29557">
        <ele>606.5</ele>
        <time>2017-06-01T12:49:41.000Z</time>
      </trkpt>
      <trkpt lat="43.4889" lon="2.29558">
        <ele>606.8</ele>
        <time>2017-06-01T12:49:44.000Z</time>
      </trkpt>
      <trkpt lat="43.48896" lon="2.29557">
        <ele>607.1</ele>
        <time>2017-06-01T12:49:46.000Z</time>
      </trkpt>
      <trkpt lat="43.48902" lon="2.29555">
        <ele>607.3</ele>
        <time>2017-06-01T12:49:48.000Z</time>
      </trkpt>
      <trkpt lat="43.48905" lon="2.29554">
        <ele>607.5</ele>
        <time>2017-06-01T12:49:49.000Z</time>
      </trkpt>
      <trkpt lat="43.48909" lon="2.29555">
        <ele>607.6</ele>
        <time>2017-06-01T12:49:50.000Z</time>
      </trkpt>
      <trkpt lat="43.48912" lon="2.29553">
        <ele>607.7</ele>
        <time>2017-06-01T12:49:51.000Z</time>
      </trkpt>
      <trkpt lat="43.48915" lon="2.2955">
        <ele>607.9</ele>
        <time>2017-06-01T12:49:53.000Z</time>
      </trkpt>
      <trkpt lat="43.48919" lon="2.29548">
        <ele>608</ele>
        <time>2017-06-01T12:49:56.000Z</time>
      </trkpt>
      <trkpt lat="43.48922" lon="2.29546">
        <ele>608.1</ele>
        <time>2017-06-01T12:49:57.000Z</time>
      </trkpt>
      <trkpt lat="43.48925" lon="2.29544">
        <ele>608.2</ele>
        <time>2017-06-01T12:49:58.000Z</time>
      </trkpt>
      <trkpt lat="43.48928" lon="2.29541">
        <ele>608.4</ele>
        <time>2017-06-01T12:50:00.000Z</time>
      </trkpt>
      <trkpt lat="43.48931" lon="2.29537">
        <ele>608.5</ele>
        <time>2017-06-01T12:50:03.000Z</time>
      </trkpt>
      <trkpt lat="43.48933" lon="2.29532">
        <ele>608.6</ele>
        <time>2017-06-01T12:50:04.000Z</time>
      </trkpt>
      <trkpt lat="43.48935" lon="2.2953">
        <ele>608.6</ele>
        <time>2017-06-01T12:50:05.000Z</time>
      </trkpt>
      <trkpt lat="43.48932" lon="2.29528">
        <ele>608.7</ele>
        <time>2017-06-01T12:50:06.000Z</time>
      </trkpt>
      <trkpt lat="43.48939" lon="2.29521">
        <ele>609</ele>
        <time>2017-06-01T12:50:07.000Z</time>
      </trkpt>
      <trkpt lat="43.48942" lon="2.29518">
        <ele>609.1</ele>
        <time>2017-06-01T12:50:08.000Z</time>
      </trkpt>
      <trkpt lat="43.48949" lon="2.29511">
        <ele>609.3</ele>
        <time>2017-06-01T12:50:10.000Z</time>
      </trkpt>
      <trkpt lat="43.48946" lon="2.2952">
        <ele>609.6</ele>
        <time>2017-06-01T12:50:11.000Z</time>
      </trkpt>
      <trkpt lat="43.48942" lon="2.2952">
        <ele>609.8</ele>
        <time>2017-06-01T12:50:12.000Z</time>
      </trkpt>
      <trkpt lat="43.48945" lon="2.29518">
        <ele>609.9</ele>
        <time>2017-06-01T12:50:15.000Z</time>
      </trkpt>
      <trkpt lat="43.48948" lon="2.29516">
        <ele>610.2</ele>
        <time>2017-06-01T12:50:16.000Z</time>
      </trkpt>
      <trkpt lat="43.48956" lon="2.29515">
        <ele>610.7</ele>
        <time>2017-06-01T12:50:17.000Z</time>
      </trkpt>
      <trkpt lat="43.48962" lon="2.29511">
        <ele>611.2</ele>
        <time>2017-06-01T12:50:18.000Z</time>
      </trkpt>
      <trkpt lat="43.48967" lon="2.29513">
        <ele>611.5</ele>
        <time>2017-06-01T12:50:19.000Z</time>
      </trkpt>
      <trkpt lat="43.48971" lon="2.29514">
        <ele>611.8</ele>
        <time>2017-06-01T12:50:20.000Z</time>
      </trkpt>
      <trkpt lat="43.48975" lon="2.29515">
        <ele>612.2</ele>
        <time>2017-06-01T12:50:21.000Z</time>
      </trkpt>
      <trkpt lat="43.4898" lon="2.29515">
        <ele>612.7</ele>
        <time>2017-06-01T12:50:23.000Z</time>
      </trkpt>
      <trkpt lat="43.48984" lon="2.29511">
        <ele>613.1</ele>
        <time>2017-06-01T12:50:25.000Z</time>
      </trkpt>
      <trkpt lat="43.48987" lon="2.2951">
        <ele>613.4</ele>
        <time>2017-06-01T12:50:26.000Z</time>
      </trkpt>
      <trkpt lat="43.4899" lon="2.29505">
        <ele>613.7</ele>
        <time>2017-06-01T12:50:27.000Z</time>
      </trkpt>
      <trkpt lat="43.48995" lon="2.29503">
        <ele>614.1</ele>
        <time>2017-06-01T12:50:28.000Z</time>
      </trkpt>
      <trkpt lat="43.49002" lon="2.2951">
        <ele>614.7</ele>
        <time>2017-06-01T12:50:29.000Z</time>
      </trkpt>
      <trkpt lat="43.48995" lon="2.29506">
        <ele>615</ele>
        <time>2017-06-01T12:50:30.000Z</time>
      </trkpt>
      <trkpt lat="43.48996" lon="2.29512">
        <ele>614.9</ele>
        <time>2017-06-01T12:50:31.000Z</time>
      </trkpt>
      <trkpt lat="43.48999" lon="2.29507">
        <ele>614.8</ele>
        <time>2017-06-01T12:50:33.000Z</time>
      </trkpt>
      <trkpt lat="43.49002" lon="2.29502">
        <ele>614.7</ele>
        <time>2017-06-01T12:50:35.000Z</time>
      </trkpt>
      <trkpt lat="43.49" lon="2.29509">
        <ele>614.6</ele>
        <time>2017-06-01T12:50:38.000Z</time>
      </trkpt>
      <trkpt lat="43.49001" lon="2.29514">
        <ele>614.4</ele>
        <time>2017-06-01T12:50:41.000Z</time>
      </trkpt>
      <trkpt lat="43.49004" lon="2.29516">
        <ele>614.3</ele>
        <time>2017-06-01T12:54:03.000Z</time>
      </trkpt>
      <trkpt lat="43.49006" lon="2.29518">
        <ele>614.2</ele>
        <time>2017-06-01T12:54:04.000Z</time>
      </trkpt>
      <trkpt lat="43.49008" lon="2.29521">
        <ele>614.1</ele>
        <time>2017-06-01T12:54:05.000Z</time>
      </trkpt>
      <trkpt lat="43.49011" lon="2.29522">
        <ele>614</ele>
        <time>2017-06-01T12:54:06.000Z</time>
      </trkpt>
      <trkpt lat="43.4902" lon="2.29523">
        <ele>613.7</ele>
        <time>2017-06-01T12:54:07.000Z</time>
      </trkpt>
      <trkpt lat="43.49025" lon="2.29522">
        <ele>613.5</ele>
        <time>2017-06-01T12:54:08.000Z</time>
      </trkpt>
      <trkpt lat="43.49034" lon="2.29521">
        <ele>613.2</ele>
        <time>2017-06-01T12:54:10.000Z</time>
      </trkpt>
      <trkpt lat="43.4904" lon="2.2952">
        <ele>612.9</ele>
        <time>2017-06-01T12:54:11.000Z</time>
      </trkpt>
      <trkpt lat="43.49045" lon="2.29515">
        <ele>612.8</ele>
        <time>2017-06-01T12:54:13.000Z</time>
      </trkpt>
      <trkpt lat="43.49052" lon="2.29512">
        <ele>612.6</ele>
        <time>2017-06-01T12:54:16.000Z</time>
      </trkpt>
      <trkpt lat="43.49054" lon="2.2951">
        <ele>612.5</ele>
        <time>2017-06-01T12:54:17.000Z</time>
      </trkpt>
      <trkpt lat="43.4906" lon="2.29508">
        <ele>612.2</ele>
        <time>2017-06-01T12:54:18.000Z</time>
      </trkpt>
      <trkpt lat="43.49064" lon="2.29507">
        <ele>612</ele>
        <time>2017-06-01T12:54:19.000Z</time>
      </trkpt>
      <trkpt lat="43.49068" lon="2.29504">
        <ele>611.9</ele>
        <time>2017-06-01T12:54:20.000Z</time>
      </trkpt>
      <trkpt lat="43.49072" lon="2.29504">
        <ele>611.8</ele>
        <time>2017-06-01T12:54:21.000Z</time>
      </trkpt>
      <trkpt lat="43.49076" lon="2.29503">
        <ele>611.8</ele>
        <time>2017-06-01T12:54:22.000Z</time>
      </trkpt>
      <trkpt lat="43.49082" lon="2.29507">
        <ele>611.9</ele>
        <time>2017-06-01T12:54:23.000Z</time>
      </trkpt>
      <trkpt lat="43.49093" lon="2.29515">
        <ele>612.3</ele>
        <time>2017-06-01T12:54:24.000Z</time>
      </trkpt>
      <trkpt lat="43.49096" lon="2.29522">
        <ele>611.1</ele>
        <time>2017-06-01T12:54:25.000Z</time>
      </trkpt>
      <trkpt lat="43.49094" lon="2.29528">
        <ele>609.6</ele>
        <time>2017-06-01T12:54:27.000Z</time>
      </trkpt>
      <trkpt lat="43.49096" lon="2.29533">
        <ele>608.6</ele>
        <time>2017-06-01T12:54:28.000Z</time>
      </trkpt>
      <trkpt lat="43.49099" lon="2.29538">
        <ele>607.6</ele>
        <time>2017-06-01T12:54:29.000Z</time>
      </trkpt>
      <trkpt lat="43.49103" lon="2.29542">
        <ele>606.3</ele>
        <time>2017-06-01T12:54:30.000Z</time>
      </trkpt>
      <trkpt lat="43.49107" lon="2.29546">
        <ele>605.4</ele>
        <time>2017-06-01T12:54:31.000Z</time>
      </trkpt>
      <trkpt lat="43.49106" lon="2.29552">
        <ele>604.4</ele>
        <time>2017-06-01T12:54:32.000Z</time>
      </trkpt>
      <trkpt lat="43.49103" lon="2.29552">
        <ele>603.4</ele>
        <time>2017-06-01T12:54:33.000Z</time>
      </trkpt>
      <trkpt lat="43.49101" lon="2.29554">
        <ele>602.6</ele>
        <time>2017-06-01T12:54:35.000Z</time>
      </trkpt>
      <trkpt lat="43.49099" lon="2.29557">
        <ele>601.6</ele>
        <time>2017-06-01T12:54:36.000Z</time>
      </trkpt>
      <trkpt lat="43.49095" lon="2.29556">
        <ele>600.5</ele>
        <time>2017-06-01T12:54:38.000Z</time>
      </trkpt>
      <trkpt lat="43.49083" lon="2.29559">
        <ele>599.2</ele>
        <time>2017-06-01T12:54:42.000Z</time>
      </trkpt>
      <trkpt lat="43.4908" lon="2.29565">
        <ele>598.3</ele>
        <time>2017-06-01T12:54:44.000Z</time>
      </trkpt>
      <trkpt lat="43.49078" lon="2.29569">
        <ele>597.5</ele>
        <time>2017-06-01T12:54:45.000Z</time>
      </trkpt>
      <trkpt lat="43.49078" lon="2.29573">
        <ele>596.3</ele>
        <time>2017-06-01T12:54:46.000Z</time>
      </trkpt>
      <trkpt lat="43.49078" lon="2.29579">
        <ele>595.2</ele>
        <time>2017-06-01T12:54:48.000Z</time>
      </trkpt>
      <trkpt lat="43.49073" lon="2.2958">
        <ele>594.5</ele>
        <time>2017-06-01T12:54:49.000Z</time>
      </trkpt>
      <trkpt lat="43.49067" lon="2.29582">
        <ele>595.5</ele>
        <time>2017-06-01T12:54:51.000Z</time>
      </trkpt>
      <trkpt lat="43.49069" lon="2.29585">
        <ele>594.5</ele>
        <time>2017-06-01T12:54:54.000Z</time>
      </trkpt>
      <trkpt lat="43.4907" lon="2.29593">
        <ele>593.1</ele>
        <time>2017-06-01T12:54:56.000Z</time>
      </trkpt>
      <trkpt lat="43.49064" lon="2.29596">
        <ele>592.5</ele>
        <time>2017-06-01T12:54:58.000Z</time>
      </trkpt>
      <trkpt lat="43.49059" lon="2.29599">
        <ele>591.9</ele>
        <time>2017-06-01T12:54:59.000Z</time>
      </trkpt>
      <trkpt lat="43.49058" lon="2.29604">
        <ele>590.6</ele>
        <time>2017-06-01T12:55:01.000Z</time>
      </trkpt>
      <trkpt lat="43.49063" lon="2.29604">
        <ele>590.5</ele>
        <time>2017-06-01T12:55:02.000Z</time>
      </trkpt>
      <trkpt lat="43.49064" lon="2.29607">
        <ele>590.5</ele>
        <time>2017-06-01T12:55:03.000Z</time>
      </trkpt>
      <trkpt lat="43.49067" lon="2.29611">
        <ele>590.5</ele>
        <time>2017-06-01T12:55:04.000Z</time>
      </trkpt>
      <trkpt lat="43.49072" lon="2.29614">
        <ele>590.4</ele>
        <time>2017-06-01T12:55:05.000Z</time>
      </trkpt>
      <trkpt lat="43.4907" lon="2.29618">
        <ele>590.4</ele>
        <time>2017-06-01T12:55:06.000Z</time>
      </trkpt>
      <trkpt lat="43.49071" lon="2.29622">
        <ele>590.4</ele>
        <time>2017-06-01T12:55:07.000Z</time>
      </trkpt>
      <trkpt lat="43.4907" lon="2.29627">
        <ele>590.4</ele>
        <time>2017-06-01T12:55:08.000Z</time>
      </trkpt>
      <trkpt lat="43.49072" lon="2.29631">
        <ele>590.3</ele>
        <time>2017-06-01T12:55:09.000Z</time>
      </trkpt>
      <trkpt lat="43.49078" lon="2.29639">
        <ele>590.3</ele>
        <time>2017-06-01T12:55:10.000Z</time>
      </trkpt>
      <trkpt lat="43.49077" lon="2.29645">
        <ele>586.2</ele>
        <time>2017-06-01T12:55:11.000Z</time>
      </trkpt>
      <trkpt lat="43.49082" lon="2.29652">
        <ele>584.9</ele>
        <time>2017-06-01T12:55:12.000Z</time>
      </trkpt>
      <trkpt lat="43.49087" lon="2.29661">
        <ele>583.5</ele>
        <time>2017-06-01T12:55:13.000Z</time>
      </trkpt>
      <trkpt lat="43.49092" lon="2.2967">
        <ele>581</ele>
        <time>2017-06-01T12:55:14.000Z</time>
      </trkpt>
      <trkpt lat="43.49096" lon="2.29677">
        <ele>579.2</ele>
        <time>2017-06-01T12:55:15.000Z</time>
      </trkpt>
      <trkpt lat="43.49093" lon="2.29679">
        <ele>578.1</ele>
        <time>2017-06-01T12:55:16.000Z</time>
      </trkpt>
      <trkpt lat="43.49094" lon="2.29684">
        <ele>577.5</ele>
        <time>2017-06-01T12:55:17.000Z</time>
      </trkpt>
      <trkpt lat="43.49095" lon="2.2969">
        <ele>576.8</ele>
        <time>2017-06-01T12:55:18.000Z</time>
      </trkpt>
      <trkpt lat="43.49099" lon="2.29694">
        <ele>575.9</ele>
        <time>2017-06-01T12:55:19.000Z</time>
      </trkpt>
      <trkpt lat="43.49102" lon="2.29697">
        <ele>574.8</ele>
        <time>2017-06-01T12:55:20.000Z</time>
      </trkpt>
      <trkpt lat="43.49108" lon="2.29696">
        <ele>573.1</ele>
        <time>2017-06-01T12:55:21.000Z</time>
      </trkpt>
      <trkpt lat="43.49114" lon="2.29699">
        <ele>572.4</ele>
        <time>2017-06-01T12:55:22.000Z</time>
      </trkpt>
      <trkpt lat="43.49122" lon="2.29697">
        <ele>571.4</ele>
        <time>2017-06-01T12:55:23.000Z</time>
      </trkpt>
      <trkpt lat="43.49128" lon="2.29697">
        <ele>570.7</ele>
        <time>2017-06-01T12:55:24.000Z</time>
      </trkpt>
      <trkpt lat="43.49134" lon="2.29695">
        <ele>569.8</ele>
        <time>2017-06-01T12:55:25.000Z</time>
      </trkpt>
      <trkpt lat="43.49138" lon="2.29695">
        <ele>569.1</ele>
        <time>2017-06-01T12:55:26.000Z</time>
      </trkpt>
      <trkpt lat="43.49144" lon="2.29696">
        <ele>567.8</ele>
        <time>2017-06-01T12:55:27.000Z</time>
      </trkpt>
      <trkpt lat="43.49148" lon="2.29698">
        <ele>567.1</ele>
        <time>2017-06-01T12:55:28.000Z</time>
      </trkpt>
      <trkpt lat="43.49156" lon="2.29701">
        <ele>566.1</ele>
        <time>2017-06-01T12:55:29.000Z</time>
      </trkpt>
      <trkpt lat="43.49159" lon="2.29703">
        <ele>565.6</ele>
        <time>2017-06-01T12:55:30.000Z</time>
      </trkpt>
      <trkpt lat="43.49167" lon="2.29704">
        <ele>564.7</ele>
        <time>2017-06-01T12:55:31.000Z</time>
      </trkpt>
      <trkpt lat="43.49171" lon="2.29705">
        <ele>563.8</ele>
        <time>2017-06-01T12:55:32.000Z</time>
      </trkpt>
      <trkpt lat="43.49182" lon="2.29707">
        <ele>561.4</ele>
        <time>2017-06-01T12:55:33.000Z</time>
      </trkpt>
      <trkpt lat="43.49186" lon="2.29706">
        <ele>560.6</ele>
        <time>2017-06-01T12:55:34.000Z</time>
      </trkpt>
      <trkpt lat="43.49191" lon="2.29703">
        <ele>559.7</ele>
        <time>2017-06-01T12:55:35.000Z</time>
      </trkpt>
      <trkpt lat="43.49196" lon="2.29702">
        <ele>558.7</ele>
        <time>2017-06-01T12:55:36.000Z</time>
      </trkpt>
      <trkpt lat="43.49202" lon="2.29701">
        <ele>557.4</ele>
        <time>2017-06-01T12:55:37.000Z</time>
      </trkpt>
      <trkpt lat="43.49209" lon="2.29701">
        <ele>556</ele>
        <time>2017-06-01T12:55:38.000Z</time>
      </trkpt>
      <trkpt lat="43.49217" lon="2.29701">
        <ele>554.7</ele>
        <time>2017-06-01T12:55:39.000Z</time>
      </trkpt>
      <trkpt lat="43.49224" lon="2.297">
        <ele>553.3</ele>
        <time>2017-06-01T12:55:41.000Z</time>
      </trkpt>
      <trkpt lat="43.49228" lon="2.29698">
        <ele>552.8</ele>
        <time>2017-06-01T12:55:42.000Z</time>
      </trkpt>
      <trkpt lat="43.49235" lon="2.29696">
        <ele>551.8</ele>
        <time>2017-06-01T12:55:44.000Z</time>
      </trkpt>
      <trkpt lat="43.49245" lon="2.29691">
        <ele>550.2</ele>
        <time>2017-06-01T12:55:45.000Z</time>
      </trkpt>
      <trkpt lat="43.49247" lon="2.29685">
        <ele>549.3</ele>
        <time>2017-06-01T12:55:46.000Z</time>
      </trkpt>
      <trkpt lat="43.49249" lon="2.29681">
        <ele>548.6</ele>
        <time>2017-06-01T12:55:47.000Z</time>
      </trkpt>
      <trkpt lat="43.49258" lon="2.2968">
        <ele>546.8</ele>
        <time>2017-06-01T12:55:48.000Z</time>
      </trkpt>
      <trkpt lat="43.49268" lon="2.29677">
        <ele>544.2</ele>
        <time>2017-06-01T12:55:49.000Z</time>
      </trkpt>
      <trkpt lat="43.49275" lon="2.29679">
        <ele>542.8</ele>
        <time>2017-06-01T12:55:52.000Z</time>
      </trkpt>
      <trkpt lat="43.4928" lon="2.2968">
        <ele>541.2</ele>
        <time>2017-06-01T12:55:53.000Z</time>
      </trkpt>
      <trkpt lat="43.49286" lon="2.29682">
        <ele>539.8</ele>
        <time>2017-06-01T12:55:54.000Z</time>
      </trkpt>
      <trkpt lat="43.49295" lon="2.29682">
        <ele>538.3</ele>
        <time>2017-06-01T12:55:55.000Z</time>
      </trkpt>
      <trkpt lat="43.49305" lon="2.29683">
        <ele>536.7</ele>
        <time>2017-06-01T12:55:56.000Z</time>
      </trkpt>
      <trkpt lat="43.49313" lon="2.2968">
        <ele>535.1</ele>
        <time>2017-06-01T12:55:57.000Z</time>
      </trkpt>
      <trkpt lat="43.49322" lon="2.29676">
        <ele>533.2</ele>
        <time>2017-06-01T12:55:58.000Z</time>
      </trkpt>
      <trkpt lat="43.49327" lon="2.29672">
        <ele>532.2</ele>
        <time>2017-06-01T12:55:59.000Z</time>
      </trkpt>
      <trkpt lat="43.49332" lon="2.29667">
        <ele>531</ele>
        <time>2017-06-01T12:56:01.000Z</time>
      </trkpt>
      <trkpt lat="43.49335" lon="2.29665">
        <ele>530.1</ele>
        <time>2017-06-01T12:56:02.000Z</time>
      </trkpt>
      <trkpt lat="43.49337" lon="2.29661">
        <ele>529</ele>
        <time>2017-06-01T12:56:03.000Z</time>
      </trkpt>
      <trkpt lat="43.49341" lon="2.29658">
        <ele>528</ele>
        <time>2017-06-01T12:56:04.000Z</time>
      </trkpt>
      <trkpt lat="43.49344" lon="2.29654">
        <ele>527</ele>
        <time>2017-06-01T12:56:05.000Z</time>
      </trkpt>
      <trkpt lat="43.49348" lon="2.29654">
        <ele>525.9</ele>
        <time>2017-06-01T12:56:07.000Z</time>
      </trkpt>
      <trkpt lat="43.49354" lon="2.29655">
        <ele>524.8</ele>
        <time>2017-06-01T12:56:08.000Z</time>
      </trkpt>
      <trkpt lat="43.49358" lon="2.29652">
        <ele>524.1</ele>
        <time>2017-06-01T12:56:09.000Z</time>
      </trkpt>
      <trkpt lat="43.49362" lon="2.29652">
        <ele>523.4</ele>
        <time>2017-06-01T12:56:10.000Z</time>
      </trkpt>
      <trkpt lat="43.49365" lon="2.29652">
        <ele>522.9</ele>
        <time>2017-06-01T12:56:11.000Z</time>
      </trkpt>
      <trkpt lat="43.4937" lon="2.29653">
        <ele>521.7</ele>
        <time>2017-06-01T12:56:12.000Z</time>
      </trkpt>
      <trkpt lat="43.49375" lon="2.29654">
        <ele>520.6</ele>
        <time>2017-06-01T12:56:14.000Z</time>
      </trkpt>
      <trkpt lat="43.49379" lon="2.29656">
        <ele>519.5</ele>
        <time>2017-06-01T12:56:15.000Z</time>
      </trkpt>
      <trkpt lat="43.49381" lon="2.29652">
        <ele>518.3</ele>
        <time>2017-06-01T12:56:16.000Z</time>
      </trkpt>
      <trkpt lat="43.49384" lon="2.2966">
        <ele>516.1</ele>
        <time>2017-06-01T12:56:19.000Z</time>
      </trkpt>
      <trkpt lat="43.49386" lon="2.29664">
        <ele>515.2</ele>
        <time>2017-06-01T12:56:20.000Z</time>
      </trkpt>
      <trkpt lat="43.49387" lon="2.29668">
        <ele>514.2</ele>
        <time>2017-06-01T12:56:21.000Z</time>
      </trkpt>
      <trkpt lat="43.49391" lon="2.29672">
        <ele>512.9</ele>
        <time>2017-06-01T12:56:22.000Z</time>
      </trkpt>
      <trkpt lat="43.49399" lon="2.29676">
        <ele>509.9</ele>
        <time>2017-06-01T12:56:23.000Z</time>
      </trkpt>
      <trkpt lat="43.49404" lon="2.29681">
        <ele>507.2</ele>
        <time>2017-06-01T12:56:24.000Z</time>
      </trkpt>
      <trkpt lat="43.49414" lon="2.29685">
        <ele>504.7</ele>
        <time>2017-06-01T12:56:25.000Z</time>
      </trkpt>
      <trkpt lat="43.49419" lon="2.29691">
        <ele>502.5</ele>
        <time>2017-06-01T12:56:26.000Z</time>
      </trkpt>
      <trkpt lat="43.49424" lon="2.29698">
        <ele>500.9</ele>
        <time>2017-06-01T12:56:27.000Z</time>
      </trkpt>
      <trkpt lat="43.49429" lon="2.29699">
        <ele>499.5</ele>
        <time>2017-06-01T12:56:28.000Z</time>
      </trkpt>
      <trkpt lat="43.49432" lon="2.29703">
        <ele>498.9</ele>
        <time>2017-06-01T12:56:29.000Z</time>
      </trkpt>
      <trkpt lat="43.49434" lon="2.29705">
        <ele>498.3</ele>
        <time>2017-06-01T12:56:30.000Z</time>
      </trkpt>
      <trkpt lat="43.49443" lon="2.29712">
        <ele>496.4</ele>
        <time>2017-06-01T12:56:31.000Z</time>
      </trkpt>
      <trkpt lat="43.49446" lon="2.29718">
        <ele>494.8</ele>
        <time>2017-06-01T12:56:32.000Z</time>
      </trkpt>
      <trkpt lat="43.49451" lon="2.29725">
        <ele>493.4</ele>
        <time>2017-06-01T12:56:33.000Z</time>
      </trkpt>
      <trkpt lat="43.49455" lon="2.2973">
        <ele>491.7</ele>
        <time>2017-06-01T12:56:34.000Z</time>
      </trkpt>
      <trkpt lat="43.49461" lon="2.29737">
        <ele>488.3</ele>
        <time>2017-06-01T12:56:35.000Z</time>
      </trkpt>
      <trkpt lat="43.49465" lon="2.29742">
        <ele>486.4</ele>
        <time>2017-06-01T12:56:36.000Z</time>
      </trkpt>
      <trkpt lat="43.49471" lon="2.29746">
        <ele>484.5</ele>
        <time>2017-06-01T12:56:37.000Z</time>
      </trkpt>
      <trkpt lat="43.49478" lon="2.2975">
        <ele>482.7</ele>
        <time>2017-06-01T12:56:38.000Z</time>
      </trkpt>
      <trkpt lat="43.49509" lon="2.29762">
        <ele>479.6</ele>
        <time>2017-06-01T12:56:40.000Z</time>
      </trkpt>
      <trkpt lat="43.49523" lon="2.29768">
        <ele>479.7</ele>
        <time>2017-06-01T12:56:41.000Z</time>
      </trkpt>
      <trkpt lat="43.49542" lon="2.29775">
        <ele>479.5</ele>
        <time>2017-06-01T12:56:42.000Z</time>
      </trkpt>
      <trkpt lat="43.49541" lon="2.29777">
        <ele>479.3</ele>
        <time>2017-06-01T12:56:44.000Z</time>
      </trkpt>
      <trkpt lat="43.49543" lon="2.29778">
        <ele>478.2</ele>
        <time>2017-06-01T12:56:45.000Z</time>
      </trkpt>
      <trkpt lat="43.49557" lon="2.2978">
        <ele>481</ele>
        <time>2017-06-01T12:56:46.000Z</time>
      </trkpt>
      <trkpt lat="43.49564" lon="2.29782">
        <ele>480.1</ele>
        <time>2017-06-01T12:56:47.000Z</time>
      </trkpt>
      <trkpt lat="43.49568" lon="2.29783">
        <ele>481.8</ele>
        <time>2017-06-01T12:56:48.000Z</time>
      </trkpt>
      <trkpt lat="43.49567" lon="2.29791">
        <ele>476.1</ele>
        <time>2017-06-01T12:56:49.000Z</time>
      </trkpt>
      <trkpt lat="43.49568" lon="2.29796">
        <ele>475</ele>
        <time>2017-06-01T12:56:50.000Z</time>
      </trkpt>
      <trkpt lat="43.49567" lon="2.298">
        <ele>471.7</ele>
        <time>2017-06-01T12:56:51.000Z</time>
      </trkpt>
      <trkpt lat="43.49569" lon="2.29808">
        <ele>469.9</ele>
        <time>2017-06-01T12:56:52.000Z</time>
      </trkpt>
      <trkpt lat="43.49573" lon="2.29813">
        <ele>469.4</ele>
        <time>2017-06-01T12:56:53.000Z</time>
      </trkpt>
      <trkpt lat="43.49576" lon="2.29818">
        <ele>468.7</ele>
        <time>2017-06-01T12:56:54.000Z</time>
      </trkpt>
      <trkpt lat="43.49581" lon="2.2982">
        <ele>470.7</ele>
        <time>2017-06-01T12:56:55.000Z</time>
      </trkpt>
      <trkpt lat="43.49586" lon="2.29824">
        <ele>469.7</ele>
        <time>2017-06-01T12:56:56.000Z</time>
      </trkpt>
      <trkpt lat="43.49589" lon="2.2983">
        <ele>467.4</ele>
        <time>2017-06-01T12:56:57.000Z</time>
      </trkpt>
      <trkpt lat="43.4959" lon="2.29834">
        <ele>467.4</ele>
        <time>2017-06-01T12:56:58.000Z</time>
      </trkpt>
      <trkpt lat="43.49592" lon="2.29841">
        <ele>465.9</ele>
        <time>2017-06-01T12:56:59.000Z</time>
      </trkpt>
      <trkpt lat="43.49593" lon="2.29849">
        <ele>462.7</ele>
        <time>2017-06-01T12:57:00.000Z</time>
      </trkpt>
      <trkpt lat="43.49592" lon="2.29856">
        <ele>459.5</ele>
        <time>2017-06-01T12:57:01.000Z</time>
      </trkpt>
      <trkpt lat="43.49597" lon="2.29862">
        <ele>461.6</ele>
        <time>2017-06-01T12:57:02.000Z</time>
      </trkpt>
      <trkpt lat="43.49601" lon="2.29868">
        <ele>459.7</ele>
        <time>2017-06-01T12:57:03.000Z</time>
      </trkpt>
      <trkpt lat="43.49605" lon="2.29873">
        <ele>458.9</ele>
        <time>2017-06-01T12:57:04.000Z</time>
      </trkpt>
      <trkpt lat="43.4961" lon="2.29877">
        <ele>458.9</ele>
        <time>2017-06-01T12:57:05.000Z</time>
      </trkpt>
      <trkpt lat="43.49614" lon="2.29884">
        <ele>457.4</ele>
        <time>2017-06-01T12:57:06.000Z</time>
      </trkpt>
      <trkpt lat="43.49613" lon="2.29888">
        <ele>454.9</ele>
        <time>2017-06-01T12:57:07.000Z</time>
      </trkpt>
      <trkpt lat="43.49616" lon="2.29897">
        <ele>451.6</ele>
        <time>2017-06-01T12:57:08.000Z</time>
      </trkpt>
      <trkpt lat="43.49618" lon="2.29906">
        <ele>448.1</ele>
        <time>2017-06-01T12:57:09.000Z</time>
      </trkpt>
      <trkpt lat="43.4962" lon="2.29913">
        <ele>444.2</ele>
        <time>2017-06-01T12:57:10.000Z</time>
      </trkpt>
      <trkpt lat="43.49626" lon="2.29922">
        <ele>442.6</ele>
        <time>2017-06-01T12:57:11.000Z</time>
      </trkpt>
      <trkpt lat="43.4963" lon="2.29929">
        <ele>440.8</ele>
        <time>2017-06-01T12:57:12.000Z</time>
      </trkpt>
      <trkpt lat="43.49633" lon="2.29938">
        <ele>437.8</ele>
        <time>2017-06-01T12:57:13.000Z</time>
      </trkpt>
      <trkpt lat="43.49639" lon="2.29946">
        <ele>437.5</ele>
        <time>2017-06-01T12:57:14.000Z</time>
      </trkpt>
      <trkpt lat="43.49645" lon="2.29951">
        <ele>437.9</ele>
        <time>2017-06-01T12:57:15.000Z</time>
      </trkpt>
      <trkpt lat="43.49647" lon="2.29955">
        <ele>437.5</ele>
        <time>2017-06-01T12:57:16.000Z</time>
      </trkpt>
      <trkpt lat="43.49652" lon="2.29958">
        <ele>437</ele>
        <time>2017-06-01T12:57:17.000Z</time>
      </trkpt>
      <trkpt lat="43.49654" lon="2.29961">
        <ele>437.9</ele>
        <time>2017-06-01T12:57:18.000Z</time>
      </trkpt>
      <trkpt lat="43.49658" lon="2.29963">
        <ele>438.5</ele>
        <time>2017-06-01T12:57:27.000Z</time>
      </trkpt>
      <trkpt lat="43.4966" lon="2.29964">
        <ele>438.3</ele>
        <time>2017-06-01T12:57:28.000Z</time>
      </trkpt>
      <trkpt lat="43.49663" lon="2.29967">
        <ele>438</ele>
        <time>2017-06-01T12:57:29.000Z</time>
      </trkpt>
      <trkpt lat="43.49666" lon="2.29971">
        <ele>437.6</ele>
        <time>2017-06-01T12:57:30.000Z</time>
      </trkpt>
      <trkpt lat="43.49669" lon="2.29976">
        <ele>437.1</ele>
        <time>2017-06-01T12:57:31.000Z</time>
      </trkpt>
      <trkpt lat="43.4967" lon="2.29984">
        <ele>434.1</ele>
        <time>2017-06-01T12:57:32.000Z</time>
      </trkpt>
      <trkpt lat="43.49675" lon="2.29996">
        <ele>432.6</ele>
        <time>2017-06-01T12:57:33.000Z</time>
      </trkpt>
      <trkpt lat="43.49674" lon="2.30007">
        <ele>427.8</ele>
        <time>2017-06-01T12:57:34.000Z</time>
      </trkpt>
      <trkpt lat="43.49677" lon="2.3001">
        <ele>428.4</ele>
        <time>2017-06-01T12:57:35.000Z</time>
      </trkpt>
      <trkpt lat="43.49677" lon="2.30015">
        <ele>426.8</ele>
        <time>2017-06-01T12:57:37.000Z</time>
      </trkpt>
      <trkpt lat="43.49681" lon="2.30015">
        <ele>427.9</ele>
        <time>2017-06-01T12:57:38.000Z</time>
      </trkpt>
      <trkpt lat="43.49686" lon="2.30016">
        <ele>428.8</ele>
        <time>2017-06-01T12:57:40.000Z</time>
      </trkpt>
      <trkpt lat="43.4969" lon="2.30021">
        <ele>429.5</ele>
        <time>2017-06-01T12:57:42.000Z</time>
      </trkpt>
      <trkpt lat="43.49692" lon="2.30023">
        <ele>428.7</ele>
        <time>2017-06-01T12:57:44.000Z</time>
      </trkpt>
      <trkpt lat="43.49695" lon="2.30025">
        <ele>427.7</ele>
        <time>2017-06-01T12:57:45.000Z</time>
      </trkpt>
      <trkpt lat="43.49697" lon="2.30029">
        <ele>426.8</ele>
        <time>2017-06-01T12:57:47.000Z</time>
      </trkpt>
      <trkpt lat="43.49702" lon="2.3003">
        <ele>425.8</ele>
        <time>2017-06-01T12:57:48.000Z</time>
      </trkpt>
      <trkpt lat="43.49704" lon="2.30036">
        <ele>422.9</ele>
        <time>2017-06-01T12:57:50.000Z</time>
      </trkpt>
      <trkpt lat="43.49707" lon="2.30039">
        <ele>422.1</ele>
        <time>2017-06-01T12:57:51.000Z</time>
      </trkpt>
      <trkpt lat="43.49711" lon="2.30041">
        <ele>419.7</ele>
        <time>2017-06-01T12:57:52.000Z</time>
      </trkpt>
      <trkpt lat="43.49704" lon="2.30051">
        <ele>417.6</ele>
        <time>2017-06-01T12:57:54.000Z</time>
      </trkpt>
      <trkpt lat="43.49699" lon="2.30057">
        <ele>416.5</ele>
        <time>2017-06-01T12:57:55.000Z</time>
      </trkpt>
      <trkpt lat="43.49696" lon="2.30062">
        <ele>414.2</ele>
        <time>2017-06-01T12:57:56.000Z</time>
      </trkpt>
      <trkpt lat="43.49694" lon="2.30065">
        <ele>413.2</ele>
        <time>2017-06-01T12:57:57.000Z</time>
      </trkpt>
      <trkpt lat="43.49691" lon="2.30073">
        <ele>410.1</ele>
        <time>2017-06-01T12:57:58.000Z</time>
      </trkpt>
      <trkpt lat="43.49695" lon="2.30078">
        <ele>407.2</ele>
        <time>2017-06-01T12:57:59.000Z</time>
      </trkpt>
      <trkpt lat="43.49699" lon="2.30082">
        <ele>403.8</ele>
        <time>2017-06-01T12:58:00.000Z</time>
      </trkpt>
      <trkpt lat="43.49701" lon="2.30088">
        <ele>401.1</ele>
        <time>2017-06-01T12:58:01.000Z</time>
      </trkpt>
      <trkpt lat="43.49704" lon="2.30092">
        <ele>399.9</ele>
        <time>2017-06-01T12:58:02.000Z</time>
      </trkpt>
      <trkpt lat="43.49711" lon="2.301">
        <ele>397.1</ele>
        <time>2017-06-01T12:58:03.000Z</time>
      </trkpt>
      <trkpt lat="43.49715" lon="2.30107">
        <ele>395.9</ele>
        <time>2017-06-01T12:58:04.000Z</time>
      </trkpt>
      <trkpt lat="43.4972" lon="2.30115">
        <ele>394.9</ele>
        <time>2017-06-01T12:58:05.000Z</time>
      </trkpt>
      <trkpt lat="43.49727" lon="2.30117">
        <ele>393.9</ele>
        <time>2017-06-01T12:58:06.000Z</time>
      </trkpt>
      <trkpt lat="43.49732" lon="2.30121">
        <ele>393.1</ele>
        <time>2017-06-01T12:58:07.000Z</time>
      </trkpt>
      <trkpt lat="43.4974" lon="2.30125">
        <ele>392</ele>
        <time>2017-06-01T12:58:08.000Z</time>
      </trkpt>
      <trkpt lat="43.49749" lon="2.30123">
        <ele>390.6</ele>
        <time>2017-06-01T12:58:09.000Z</time>
      </trkpt>
      <trkpt lat="43.49757" lon="2.30123">
        <ele>389</ele>
        <time>2017-06-01T12:58:10.000Z</time>
      </trkpt>
      <trkpt lat="43.49763" lon="2.30123">
        <ele>388.3</ele>
        <time>2017-06-01T12:58:11.000Z</time>
      </trkpt>
      <trkpt lat="43.49771" lon="2.30126">
        <ele>387.6</ele>
        <time>2017-06-01T12:58:12.000Z</time>
      </trkpt>
      <trkpt lat="43.49775" lon="2.30129">
        <ele>387.2</ele>
        <time>2017-06-01T12:58:13.000Z</time>
      </trkpt>
      <trkpt lat="43.49777" lon="2.30138">
        <ele>386.5</ele>
        <time>2017-06-01T12:58:14.000Z</time>
      </trkpt>
      <trkpt lat="43.49771" lon="2.30145">
        <ele>378</ele>
        <time>2017-06-01T12:58:15.000Z</time>
      </trkpt>
      <trkpt lat="43.49769" lon="2.30153">
        <ele>377.9</ele>
        <time>2017-06-01T12:58:16.000Z</time>
      </trkpt>
      <trkpt lat="43.49766" lon="2.30158">
        <ele>377.9</ele>
        <time>2017-06-01T12:58:17.000Z</time>
      </trkpt>
      <trkpt lat="43.49773" lon="2.30164">
        <ele>377.8</ele>
        <time>2017-06-01T12:58:18.000Z</time>
      </trkpt>
      <trkpt lat="43.4978" lon="2.30172">
        <ele>377.8</ele>
        <time>2017-06-01T12:58:19.000Z</time>
      </trkpt>
      <trkpt lat="43.49779" lon="2.30177">
        <ele>377.7</ele>
        <time>2017-06-01T12:58:20.000Z</time>
      </trkpt>
      <trkpt lat="43.49773" lon="2.3018">
        <ele>377.9</ele>
        <time>2017-06-01T12:58:21.000Z</time>
      </trkpt>
      <trkpt lat="43.49769" lon="2.30184">
        <ele>377.8</ele>
        <time>2017-06-01T12:58:22.000Z</time>
      </trkpt>
      <trkpt lat="43.49763" lon="2.30189">
        <ele>378</ele>
        <time>2017-06-01T12:58:23.000Z</time>
      </trkpt>
      <trkpt lat="43.49761" lon="2.30196">
        <ele>376.8</ele>
        <time>2017-06-01T12:58:24.000Z</time>
      </trkpt>
      <trkpt lat="43.4976" lon="2.302">
        <ele>376.7</ele>
        <time>2017-06-01T12:58:25.000Z</time>
      </trkpt>
      <trkpt lat="43.49757" lon="2.30202">
        <ele>376.5</ele>
        <time>2017-06-01T12:58:26.000Z</time>
      </trkpt>
      <trkpt lat="43.49753" lon="2.30207">
        <ele>376.1</ele>
        <time>2017-06-01T12:58:28.000Z</time>
      </trkpt>
      <trkpt lat="43.49758" lon="2.30213">
        <ele>374.6</ele>
        <time>2017-06-01T12:58:31.000Z</time>
      </trkpt>
      <trkpt lat="43.49763" lon="2.30216">
        <ele>373.4</ele>
        <time>2017-06-01T12:58:32.000Z</time>
      </trkpt>
      <trkpt lat="43.49764" lon="2.30219">
        <ele>372.8</ele>
        <time>2017-06-01T12:58:33.000Z</time>
      </trkpt>
      <trkpt lat="43.4977" lon="2.3022">
        <ele>371.2</ele>
        <time>2017-06-01T12:58:34.000Z</time>
      </trkpt>
      <trkpt lat="43.49775" lon="2.30224">
        <ele>370.5</ele>
        <time>2017-06-01T12:58:35.000Z</time>
      </trkpt>
      <trkpt lat="43.49779" lon="2.30228">
        <ele>369.1</ele>
        <time>2017-06-01T12:58:37.000Z</time>
      </trkpt>
      <trkpt lat="43.49782" lon="2.30234">
        <ele>368.1</ele>
        <time>2017-06-01T12:58:38.000Z</time>
      </trkpt>
      <trkpt lat="43.49782" lon="2.30241">
        <ele>367</ele>
        <time>2017-06-01T12:58:39.000Z</time>
      </trkpt>
      <trkpt lat="43.49782" lon="2.30246">
        <ele>366.5</ele>
        <time>2017-06-01T12:58:40.000Z</time>
      </trkpt>
      <trkpt lat="43.49778" lon="2.30255">
        <ele>365.8</ele>
        <time>2017-06-01T12:58:41.000Z</time>
      </trkpt>
      <trkpt lat="43.49779" lon="2.30259">
        <ele>365</ele>
        <time>2017-06-01T12:58:42.000Z</time>
      </trkpt>
      <trkpt lat="43.49779" lon="2.30262">
        <ele>364.9</ele>
        <time>2017-06-01T12:58:43.000Z</time>
      </trkpt>
      <trkpt lat="43.49783" lon="2.30268">
        <ele>362.1</ele>
        <time>2017-06-01T12:58:45.000Z</time>
      </trkpt>
      <trkpt lat="43.49782" lon="2.30272">
        <ele>361.6</ele>
        <time>2017-06-01T12:58:46.000Z</time>
      </trkpt>
      <trkpt lat="43.49781" lon="2.30279">
        <ele>360.7</ele>
        <time>2017-06-01T12:58:48.000Z</time>
      </trkpt>
      <trkpt lat="43.49775" lon="2.30285">
        <ele>359.4</ele>
        <time>2017-06-01T12:58:50.000Z</time>
      </trkpt>
      <trkpt lat="43.49775" lon="2.30292">
        <ele>358.1</ele>
        <time>2017-06-01T12:58:51.000Z</time>
      </trkpt>
      <trkpt lat="43.49773" lon="2.30297">
        <ele>356.8</ele>
        <time>2017-06-01T12:58:52.000Z</time>
      </trkpt>
      <trkpt lat="43.49765" lon="2.30302">
        <ele>354.3</ele>
        <time>2017-06-01T12:58:53.000Z</time>
      </trkpt>
      <trkpt lat="43.49759" lon="2.30306">
        <ele>352.9</ele>
        <time>2017-06-01T12:58:54.000Z</time>
      </trkpt>
      <trkpt lat="43.4976" lon="2.30312">
        <ele>351.6</ele>
        <time>2017-06-01T12:58:56.000Z</time>
      </trkpt>
      <trkpt lat="43.49762" lon="2.30313">
        <ele>351.7</ele>
        <time>2017-06-01T12:58:59.000Z</time>
      </trkpt>
      <trkpt lat="43.49764" lon="2.30315">
        <ele>350.4</ele>
        <time>2017-06-01T12:59:03.000Z</time>
      </trkpt>
      <trkpt lat="43.49765" lon="2.30316">
        <ele>350.5</ele>
        <time>2017-06-01T12:59:04.000Z</time>
      </trkpt>
      <trkpt lat="43.49768" lon="2.30319">
        <ele>349.4</ele>
        <time>2017-06-01T12:59:08.000Z</time>
      </trkpt>
      <trkpt lat="43.49776" lon="2.30321">
        <ele>349.6</ele>
        <time>2017-06-01T12:59:14.000Z</time>
      </trkpt>
      <trkpt lat="43.49779" lon="2.30324">
        <ele>348.6</ele>
        <time>2017-06-01T12:59:16.000Z</time>
      </trkpt>
      <trkpt lat="43.49783" lon="2.30326">
        <ele>348.7</ele>
        <time>2017-06-01T12:59:18.000Z</time>
      </trkpt>
      <trkpt lat="43.49788" lon="2.30334">
        <ele>348</ele>
        <time>2017-06-01T12:59:19.000Z</time>
      </trkpt>
      <trkpt lat="43.49792" lon="2.30332">
        <ele>347.6</ele>
        <time>2017-06-01T12:59:20.000Z</time>
      </trkpt>
      <trkpt lat="43.49795" lon="2.30335">
        <ele>347.2</ele>
        <time>2017-06-01T12:59:21.000Z</time>
      </trkpt>
      <trkpt lat="43.49793" lon="2.30339">
        <ele>346.6</ele>
        <time>2017-06-01T12:59:22.000Z</time>
      </trkpt>
      <trkpt lat="43.49798" lon="2.30339">
        <ele>346.2</ele>
        <time>2017-06-01T12:59:23.000Z</time>
      </trkpt>
      <trkpt lat="43.49802" lon="2.3034">
        <ele>346</ele>
        <time>2017-06-01T12:59:24.000Z</time>
      </trkpt>
      <trkpt lat="43.49782" lon="2.30341">
        <ele>345</ele>
        <time>2017-06-01T12:59:26.000Z</time>
      </trkpt>
      <trkpt lat="43.49785" lon="2.30346">
        <ele>344.8</ele>
        <time>2017-06-01T12:59:28.000Z</time>
      </trkpt>
      <trkpt lat="43.49795" lon="2.30346">
        <ele>344.4</ele>
        <time>2017-06-01T12:59:30.000Z</time>
      </trkpt>
      <trkpt lat="43.49798" lon="2.30346">
        <ele>344.3</ele>
        <time>2017-06-01T12:59:31.000Z</time>
      </trkpt>
      <trkpt lat="43.498" lon="2.3035">
        <ele>344.2</ele>
        <time>2017-06-01T12:59:33.000Z</time>
      </trkpt>
      <trkpt lat="43.49813" lon="2.30357">
        <ele>343.7</ele>
        <time>2017-06-01T12:59:34.000Z</time>
      </trkpt>
      <trkpt lat="43.4981" lon="2.30366">
        <ele>343.5</ele>
        <time>2017-06-01T12:59:35.000Z</time>
      </trkpt>
      <trkpt lat="43.49819" lon="2.30363">
        <ele>343.3</ele>
        <time>2017-06-01T12:59:36.000Z</time>
      </trkpt>
      <trkpt lat="43.49825" lon="2.30363">
        <ele>343.1</ele>
        <time>2017-06-01T12:59:37.000Z</time>
      </trkpt>
      <trkpt lat="43.49834" lon="2.30364">
        <ele>342.9</ele>
        <time>2017-06-01T12:59:38.000Z</time>
      </trkpt>
      <trkpt lat="43.49838" lon="2.30375">
        <ele>342.7</ele>
        <time>2017-06-01T12:59:39.000Z</time>
      </trkpt>
      <trkpt lat="43.49841" lon="2.30376">
        <ele>342.6</ele>
        <time>2017-06-01T12:59:40.000Z</time>
      </trkpt>
      <trkpt lat="43.49865" lon="2.30422">
        <ele>337.8</ele>
        <time>2017-06-01T12:59:42.000Z</time>
      </trkpt>
      <trkpt lat="43.49869" lon="2.30433">
        <ele>336.6</ele>
        <time>2017-06-01T12:59:43.000Z</time>
      </trkpt>
      <trkpt lat="43.49882" lon="2.3044">
        <ele>334.5</ele>
        <time>2017-06-01T12:59:44.000Z</time>
      </trkpt>
      <trkpt lat="43.49893" lon="2.30441">
        <ele>333.3</ele>
        <time>2017-06-01T12:59:45.000Z</time>
      </trkpt>
      <trkpt lat="43.49902" lon="2.30443">
        <ele>332.2</ele>
        <time>2017-06-01T12:59:46.000Z</time>
      </trkpt>
      <trkpt lat="43.49914" lon="2.30443">
        <ele>331.3</ele>
        <time>2017-06-01T12:59:47.000Z</time>
      </trkpt>
      <trkpt lat="43.49922" lon="2.30443">
        <ele>330.8</ele>
        <time>2017-06-01T12:59:48.000Z</time>
      </trkpt>
      <trkpt lat="43.49931" lon="2.30443">
        <ele>330.4</ele>
        <time>2017-06-01T12:59:49.000Z</time>
      </trkpt>
      <trkpt lat="43.4994" lon="2.30437">
        <ele>329.9</ele>
        <time>2017-06-01T12:59:50.000Z</time>
      </trkpt>
      <trkpt lat="43.49952" lon="2.30438">
        <ele>329.4</ele>
        <time>2017-06-01T12:59:51.000Z</time>
      </trkpt>
      <trkpt lat="43.49951" lon="2.30427">
        <ele>328.8</ele>
        <time>2017-06-01T12:59:52.000Z</time>
      </trkpt>
      <trkpt lat="43.49956" lon="2.30426">
        <ele>328.5</ele>
        <time>2017-06-01T12:59:53.000Z</time>
      </trkpt>
      <trkpt lat="43.49964" lon="2.30423">
        <ele>327.9</ele>
        <time>2017-06-01T12:59:54.000Z</time>
      </trkpt>
      <trkpt lat="43.4997" lon="2.30423">
        <ele>327.5</ele>
        <time>2017-06-01T12:59:55.000Z</time>
      </trkpt>
      <trkpt lat="43.49976" lon="2.30424">
        <ele>327</ele>
        <time>2017-06-01T12:59:56.000Z</time>
      </trkpt>
      <trkpt lat="43.4998" lon="2.30426">
        <ele>326.8</ele>
        <time>2017-06-01T12:59:57.000Z</time>
      </trkpt>
      <trkpt lat="43.49987" lon="2.30427">
        <ele>326</ele>
        <time>2017-06-01T12:59:58.000Z</time>
      </trkpt>
      <trkpt lat="43.49991" lon="2.3043">
        <ele>325.6</ele>
        <time>2017-06-01T12:59:59.000Z</time>
      </trkpt>
      <trkpt lat="43.49995" lon="2.30435">
        <ele>325.1</ele>
        <time>2017-06-01T13:00:00.000Z</time>
      </trkpt>
      <trkpt lat="43.50004" lon="2.30437">
        <ele>324.4</ele>
        <time>2017-06-01T13:00:01.000Z</time>
      </trkpt>
      <trkpt lat="43.50012" lon="2.30435">
        <ele>323.9</ele>
        <time>2017-06-01T13:00:02.000Z</time>
      </trkpt>
      <trkpt lat="43.50018" lon="2.30435">
        <ele>323.4</ele>
        <time>2017-06-01T13:00:03.000Z</time>
      </trkpt>
      <trkpt lat="43.50022" lon="2.30437">
        <ele>323.1</ele>
        <time>2017-06-01T13:00:04.000Z</time>
      </trkpt>
      <trkpt lat="43.50029" lon="2.30438">
        <ele>323</ele>
        <time>2017-06-01T13:00:05.000Z</time>
      </trkpt>
      <trkpt lat="43.50035" lon="2.30438">
        <ele>323</ele>
        <time>2017-06-01T13:00:06.000Z</time>
      </trkpt>
      <trkpt lat="43.50043" lon="2.30445">
        <ele>323</ele>
        <time>2017-06-01T13:00:07.000Z</time>
      </trkpt>
      <trkpt lat="43.5005" lon="2.30451">
        <ele>323</ele>
        <time>2017-06-01T13:00:08.000Z</time>
      </trkpt>
      <trkpt lat="43.50055" lon="2.30458">
        <ele>323</ele>
        <time>2017-06-01T13:00:09.000Z</time>
      </trkpt>
      <trkpt lat="43.50056" lon="2.30463">
        <ele>323</ele>
        <time>2017-06-01T13:00:10.000Z</time>
      </trkpt>
      <trkpt lat="43.50062" lon="2.30468">
        <ele>323</ele>
        <time>2017-06-01T13:00:11.000Z</time>
      </trkpt>
      <trkpt lat="43.50064" lon="2.30473">
        <ele>323</ele>
        <time>2017-06-01T13:00:12.000Z</time>
      </trkpt>
      <trkpt lat="43.50068" lon="2.30476">
        <ele>323</ele>
        <time>2017-06-01T13:00:13.000Z</time>
      </trkpt>
      <trkpt lat="43.50072" lon="2.30476">
        <ele>323</ele>
        <time>2017-06-01T13:00:14.000Z</time>
      </trkpt>
      <trkpt lat="43.50079" lon="2.3048">
        <ele>323</ele>
        <time>2017-06-01T13:00:16.000Z</time>
      </trkpt>
      <trkpt lat="43.50083" lon="2.30475">
        <ele>323</ele>
        <time>2017-06-01T13:00:19.000Z</time>
      </trkpt>
      <trkpt lat="43.50086" lon="2.30473">
        <ele>322.4</ele>
        <time>2017-06-01T13:00:20.000Z</time>
      </trkpt>
      <trkpt lat="43.50089" lon="2.30472">
        <ele>320.9</ele>
        <time>2017-06-01T13:00:21.000Z</time>
      </trkpt>
      <trkpt lat="43.50093" lon="2.30469">
        <ele>320.8</ele>
        <time>2017-06-01T13:00:23.000Z</time>
      </trkpt>
      <trkpt lat="43.50096" lon="2.30472">
        <ele>320.8</ele>
        <time>2017-06-01T13:00:24.000Z</time>
      </trkpt>
      <trkpt lat="43.50101" lon="2.30472">
        <ele>320.7</ele>
        <time>2017-06-01T13:00:25.000Z</time>
      </trkpt>
      <trkpt lat="43.50113" lon="2.30473">
        <ele>320.5</ele>
        <time>2017-06-01T13:00:26.000Z</time>
      </trkpt>
      <trkpt lat="43.5012" lon="2.30473">
        <ele>320.3</ele>
        <time>2017-06-01T13:00:27.000Z</time>
      </trkpt>
      <trkpt lat="43.50125" lon="2.30474">
        <ele>320.2</ele>
        <time>2017-06-01T13:00:28.000Z</time>
      </trkpt>
      <trkpt lat="43.50132" lon="2.30475">
        <ele>320.1</ele>
        <time>2017-06-01T13:00:30.000Z</time>
      </trkpt>
      <trkpt lat="43.50138" lon="2.30474">
        <ele>320.1</ele>
        <time>2017-06-01T13:00:31.000Z</time>
      </trkpt>
      <trkpt lat="43.50145" lon="2.30477">
        <ele>320</ele>
        <time>2017-06-01T13:00:32.000Z</time>
      </trkpt>
      <trkpt lat="43.50152" lon="2.30481">
        <ele>319.9</ele>
        <time>2017-06-01T13:00:33.000Z</time>
      </trkpt>
      <trkpt lat="43.50157" lon="2.30481">
        <ele>319.9</ele>
        <time>2017-06-01T13:00:34.000Z</time>
      </trkpt>
      <trkpt lat="43.50163" lon="2.30481">
        <ele>319.8</ele>
        <time>2017-06-01T13:00:35.000Z</time>
      </trkpt>
      <trkpt lat="43.50167" lon="2.30481">
        <ele>319.8</ele>
        <time>2017-06-01T13:00:36.000Z</time>
      </trkpt>
      <trkpt lat="43.50173" lon="2.30481">
        <ele>319.7</ele>
        <time>2017-06-01T13:00:37.000Z</time>
      </trkpt>
      <trkpt lat="43.50177" lon="2.30481">
        <ele>319.7</ele>
        <time>2017-06-01T13:00:38.000Z</time>
      </trkpt>
      <trkpt lat="43.50183" lon="2.30483">
        <ele>319.6</ele>
        <time>2017-06-01T13:00:39.000Z</time>
      </trkpt>
      <trkpt lat="43.50186" lon="2.30486">
        <ele>319.6</ele>
        <time>2017-06-01T13:00:40.000Z</time>
      </trkpt>
      <trkpt lat="43.50194" lon="2.3049">
        <ele>319.5</ele>
        <time>2017-06-01T13:00:41.000Z</time>
      </trkpt>
      <trkpt lat="43.50203" lon="2.30489">
        <ele>319.5</ele>
        <time>2017-06-01T13:00:42.000Z</time>
      </trkpt>
      <trkpt lat="43.50208" lon="2.30488">
        <ele>319.4</ele>
        <time>2017-06-01T13:00:43.000Z</time>
      </trkpt>
      <trkpt lat="43.50213" lon="2.3049">
        <ele>319.4</ele>
        <time>2017-06-01T13:00:44.000Z</time>
      </trkpt>
      <trkpt lat="43.50222" lon="2.3049">
        <ele>319.4</ele>
        <time>2017-06-01T13:00:45.000Z</time>
      </trkpt>
      <trkpt lat="43.50228" lon="2.3049">
        <ele>319.3</ele>
        <time>2017-06-01T13:00:46.000Z</time>
      </trkpt>
      <trkpt lat="43.50232" lon="2.30492">
        <ele>319.3</ele>
        <time>2017-06-01T13:00:47.000Z</time>
      </trkpt>
      <trkpt lat="43.50238" lon="2.30491">
        <ele>319.3</ele>
        <time>2017-06-01T13:00:48.000Z</time>
      </trkpt>
      <trkpt lat="43.50245" lon="2.30489">
        <ele>319.2</ele>
        <time>2017-06-01T13:00:49.000Z</time>
      </trkpt>
      <trkpt lat="43.50253" lon="2.3049">
        <ele>319.2</ele>
        <time>2017-06-01T13:00:50.000Z</time>
      </trkpt>
      <trkpt lat="43.50258" lon="2.3049">
        <ele>319.2</ele>
        <time>2017-06-01T13:00:51.000Z</time>
      </trkpt>
      <trkpt lat="43.50262" lon="2.30489">
        <ele>319.1</ele>
        <time>2017-06-01T13:00:52.000Z</time>
      </trkpt>
      <trkpt lat="43.50267" lon="2.3049">
        <ele>319.1</ele>
        <time>2017-06-01T13:00:53.000Z</time>
      </trkpt>
      <trkpt lat="43.50276" lon="2.30492">
        <ele>319.1</ele>
        <time>2017-06-01T13:00:54.000Z</time>
      </trkpt>
      <trkpt lat="43.5028" lon="2.30493">
        <ele>319.1</ele>
        <time>2017-06-01T13:00:55.000Z</time>
      </trkpt>
      <trkpt lat="43.50284" lon="2.30491">
        <ele>319.1</ele>
        <time>2017-06-01T13:00:56.000Z</time>
      </trkpt>
      <trkpt lat="43.50288" lon="2.30491">
        <ele>319.1</ele>
        <time>2017-06-01T13:00:57.000Z</time>
      </trkpt>
      <trkpt lat="43.50293" lon="2.30493">
        <ele>319</ele>
        <time>2017-06-01T13:00:58.000Z</time>
      </trkpt>
      <trkpt lat="43.50301" lon="2.30496">
        <ele>319</ele>
        <time>2017-06-01T13:00:59.000Z</time>
      </trkpt>
      <trkpt lat="43.50306" lon="2.30496">
        <ele>319</ele>
        <time>2017-06-01T13:01:00.000Z</time>
      </trkpt>
      <trkpt lat="43.5031" lon="2.30496">
        <ele>319</ele>
        <time>2017-06-01T13:01:01.000Z</time>
      </trkpt>
      <trkpt lat="43.50314" lon="2.30497">
        <ele>319</ele>
        <time>2017-06-01T13:01:02.000Z</time>
      </trkpt>
      <trkpt lat="43.50318" lon="2.30499">
        <ele>319</ele>
        <time>2017-06-01T13:01:03.000Z</time>
      </trkpt>
      <trkpt lat="43.50323" lon="2.30498">
        <ele>319</ele>
        <time>2017-06-01T13:01:04.000Z</time>
      </trkpt>
      <trkpt lat="43.50327" lon="2.30498">
        <ele>319</ele>
        <time>2017-06-01T13:01:05.000Z</time>
      </trkpt>
      <trkpt lat="43.50331" lon="2.30498">
        <ele>319</ele>
        <time>2017-06-01T13:01:06.000Z</time>
      </trkpt>
      <trkpt lat="43.50337" lon="2.30499">
        <ele>318.9</ele>
        <time>2017-06-01T13:01:07.000Z</time>
      </trkpt>
      <trkpt lat="43.50341" lon="2.305">
        <ele>318.8</ele>
        <time>2017-06-01T13:01:08.000Z</time>
      </trkpt>
      <trkpt lat="43.50346" lon="2.30502">
        <ele>318.8</ele>
        <time>2017-06-01T13:01:09.000Z</time>
      </trkpt>
      <trkpt lat="43.5035" lon="2.30502">
        <ele>318.7</ele>
        <time>2017-06-01T13:01:10.000Z</time>
      </trkpt>
      <trkpt lat="43.50354" lon="2.30503">
        <ele>318.7</ele>
        <time>2017-06-01T13:01:11.000Z</time>
      </trkpt>
      <trkpt lat="43.50359" lon="2.30503">
        <ele>318.7</ele>
        <time>2017-06-01T13:01:12.000Z</time>
      </trkpt>
      <trkpt lat="43.50363" lon="2.30504">
        <ele>318.6</ele>
        <time>2017-06-01T13:01:13.000Z</time>
      </trkpt>
      <trkpt lat="43.50369" lon="2.30504">
        <ele>318.5</ele>
        <time>2017-06-01T13:01:14.000Z</time>
      </trkpt>
      <trkpt lat="43.50374" lon="2.30503">
        <ele>318.5</ele>
        <time>2017-06-01T13:01:15.000Z</time>
      </trkpt>
      <trkpt lat="43.50379" lon="2.30503">
        <ele>318.4</ele>
        <time>2017-06-01T13:01:16.000Z</time>
      </trkpt>
      <trkpt lat="43.50384" lon="2.305">
        <ele>318.4</ele>
        <time>2017-06-01T13:01:17.000Z</time>
      </trkpt>
      <trkpt lat="43.50389" lon="2.30498">
        <ele>318.4</ele>
        <time>2017-06-01T13:01:18.000Z</time>
      </trkpt>
      <trkpt lat="43.50393" lon="2.30495">
        <ele>318.3</ele>
        <time>2017-06-01T13:01:19.000Z</time>
      </trkpt>
      <trkpt lat="43.50397" lon="2.30493">
        <ele>318.3</ele>
        <time>2017-06-01T13:01:20.000Z</time>
      </trkpt>
      <trkpt lat="43.50402" lon="2.30491">
        <ele>318.3</ele>
        <time>2017-06-01T13:01:21.000Z</time>
      </trkpt>
      <trkpt lat="43.50405" lon="2.30487">
        <ele>318.2</ele>
        <time>2017-06-01T13:01:22.000Z</time>
      </trkpt>
      <trkpt lat="43.5041" lon="2.30483">
        <ele>318.2</ele>
        <time>2017-06-01T13:01:23.000Z</time>
      </trkpt>
      <trkpt lat="43.50414" lon="2.30479">
        <ele>318.1</ele>
        <time>2017-06-01T13:01:24.000Z</time>
      </trkpt>
      <trkpt lat="43.50418" lon="2.30474">
        <ele>318.1</ele>
        <time>2017-06-01T13:01:25.000Z</time>
      </trkpt>
      <trkpt lat="43.50423" lon="2.3047">
        <ele>318</ele>
        <time>2017-06-01T13:01:26.000Z</time>
      </trkpt>
      <trkpt lat="43.50427" lon="2.30465">
        <ele>318</ele>
        <time>2017-06-01T13:01:27.000Z</time>
      </trkpt>
      <trkpt lat="43.50431" lon="2.30461">
        <ele>317.9</ele>
        <time>2017-06-01T13:01:28.000Z</time>
      </trkpt>
      <trkpt lat="43.50435" lon="2.30456">
        <ele>317.9</ele>
        <time>2017-06-01T13:01:29.000Z</time>
      </trkpt>
      <trkpt lat="43.5044" lon="2.30451">
        <ele>317.8</ele>
        <time>2017-06-01T13:01:30.000Z</time>
      </trkpt>
      <trkpt lat="43.50444" lon="2.30446">
        <ele>317.8</ele>
        <time>2017-06-01T13:01:31.000Z</time>
      </trkpt>
      <trkpt lat="43.50448" lon="2.3044">
        <ele>317.7</ele>
        <time>2017-06-01T13:01:32.000Z</time>
      </trkpt>
      <trkpt lat="43.50452" lon="2.30435">
        <ele>317.7</ele>
        <time>2017-06-01T13:01:33.000Z</time>
      </trkpt>
      <trkpt lat="43.50456" lon="2.30429">
        <ele>317.6</ele>
        <time>2017-06-01T13:01:34.000Z</time>
      </trkpt>
      <trkpt lat="43.50459" lon="2.30423">
        <ele>317.6</ele>
        <time>2017-06-01T13:01:35.000Z</time>
      </trkpt>
      <trkpt lat="43.50462" lon="2.30417">
        <ele>317.6</ele>
        <time>2017-06-01T13:01:36.000Z</time>
      </trkpt>
      <trkpt lat="43.50465" lon="2.30411">
        <ele>317.5</ele>
        <time>2017-06-01T13:01:37.000Z</time>
      </trkpt>
      <trkpt lat="43.50468" lon="2.30405">
        <ele>317.5</ele>
        <time>2017-06-01T13:01:38.000Z</time>
      </trkpt>
      <trkpt lat="43.5047" lon="2.30399">
        <ele>317.5</ele>
        <time>2017-06-01T13:01:39.000Z</time>
      </trkpt>
      <trkpt lat="43.50472" lon="2.30393">
        <ele>317.4</ele>
        <time>2017-06-01T13:01:40.000Z</time>
      </trkpt>
      <trkpt lat="43.50473" lon="2.30385">
        <ele>317.4</ele>
        <time>2017-06-01T13:01:41.000Z</time>
      </trkpt>
      <trkpt lat="43.50474" lon="2.30378">
        <ele>317.4</ele>
        <time>2017-06-01T13:01:42.000Z</time>
      </trkpt>
      <trkpt lat="43.50475" lon="2.30369">
        <ele>317.3</ele>
        <time>2017-06-01T13:01:43.000Z</time>
      </trkpt>
      <trkpt lat="43.50474" lon="2.30361">
        <ele>317.3</ele>
        <time>2017-06-01T13:01:44.000Z</time>
      </trkpt>
      <trkpt lat="43.50473" lon="2.30353">
        <ele>317.2</ele>
        <time>2017-06-01T13:01:45.000Z</time>
      </trkpt>
      <trkpt lat="43.5047" lon="2.30345">
        <ele>317.2</ele>
        <time>2017-06-01T13:01:46.000Z</time>
      </trkpt>
      <trkpt lat="43.50468" lon="2.30339">
        <ele>317.1</ele>
        <time>2017-06-01T13:01:47.000Z</time>
      </trkpt>
      <trkpt lat="43.50463" lon="2.30334">
        <ele>317.1</ele>
        <time>2017-06-01T13:01:48.000Z</time>
      </trkpt>
      <trkpt lat="43.50459" lon="2.30328">
        <ele>317</ele>
        <time>2017-06-01T13:01:49.000Z</time>
      </trkpt>
      <trkpt lat="43.50455" lon="2.30323">
        <ele>317</ele>
        <time>2017-06-01T13:01:50.000Z</time>
      </trkpt>
      <trkpt lat="43.5045" lon="2.30318">
        <ele>316.9</ele>
        <time>2017-06-01T13:01:51.000Z</time>
      </trkpt>
      <trkpt lat="43.50445" lon="2.30314">
        <ele>316.9</ele>
        <time>2017-06-01T13:01:52.000Z</time>
      </trkpt>
      <trkpt lat="43.5044" lon="2.30312">
        <ele>316.8</ele>
        <time>2017-06-01T13:01:53.000Z</time>
      </trkpt>
      <trkpt lat="43.50435" lon="2.30308">
        <ele>316.8</ele>
        <time>2017-06-01T13:01:54.000Z</time>
      </trkpt>
      <trkpt lat="43.50431" lon="2.30305">
        <ele>316.7</ele>
        <time>2017-06-01T13:01:55.000Z</time>
      </trkpt>
      <trkpt lat="43.50426" lon="2.30301">
        <ele>316.7</ele>
        <time>2017-06-01T13:01:56.000Z</time>
      </trkpt>
      <trkpt lat="43.50422" lon="2.30297">
        <ele>316.6</ele>
        <time>2017-06-01T13:01:57.000Z</time>
      </trkpt>
      <trkpt lat="43.50417" lon="2.30292">
        <ele>316.6</ele>
        <time>2017-06-01T13:01:58.000Z</time>
      </trkpt>
      <trkpt lat="43.50412" lon="2.30287">
        <ele>316.6</ele>
        <time>2017-06-01T13:01:59.000Z</time>
      </trkpt>
      <trkpt lat="43.50406" lon="2.30281">
        <ele>316.5</ele>
        <time>2017-06-01T13:02:00.000Z</time>
      </trkpt>
      <trkpt lat="43.50402" lon="2.30276">
        <ele>316.5</ele>
        <time>2017-06-01T13:02:01.000Z</time>
      </trkpt>
      <trkpt lat="43.50398" lon="2.30272">
        <ele>316.5</ele>
        <time>2017-06-01T13:02:02.000Z</time>
      </trkpt>
      <trkpt lat="43.50394" lon="2.30268">
        <ele>316.4</ele>
        <time>2017-06-01T13:02:03.000Z</time>
      </trkpt>
      <trkpt lat="43.50389" lon="2.30263">
        <ele>316.4</ele>
        <time>2017-06-01T13:02:04.000Z</time>
      </trkpt>
      <trkpt lat="43.50385" lon="2.30259">
        <ele>316.4</ele>
        <time>2017-06-01T13:02:05.000Z</time>
      </trkpt>
      <trkpt lat="43.50379" lon="2.30253">
        <ele>316.3</ele>
        <time>2017-06-01T13:02:06.000Z</time>
      </trkpt>
      <trkpt lat="43.50375" lon="2.30247">
        <ele>316.3</ele>
        <time>2017-06-01T13:02:07.000Z</time>
      </trkpt>
      <trkpt lat="43.50371" lon="2.30242">
        <ele>316.2</ele>
        <time>2017-06-01T13:02:08.000Z</time>
      </trkpt>
      <trkpt lat="43.50368" lon="2.30235">
        <ele>316.2</ele>
        <time>2017-06-01T13:02:09.000Z</time>
      </trkpt>
      <trkpt lat="43.50364" lon="2.30231">
        <ele>316.2</ele>
        <time>2017-06-01T13:02:10.000Z</time>
      </trkpt>
      <trkpt lat="43.50362" lon="2.30225">
        <ele>316.1</ele>
        <time>2017-06-01T13:02:11.000Z</time>
      </trkpt>
      <trkpt lat="43.50362" lon="2.30218">
        <ele>316.1</ele>
        <time>2017-06-01T13:02:12.000Z</time>
      </trkpt>
      <trkpt lat="43.50357" lon="2.30215">
        <ele>316.1</ele>
        <time>2017-06-01T13:02:13.000Z</time>
      </trkpt>
      <trkpt lat="43.50352" lon="2.3021">
        <ele>316</ele>
        <time>2017-06-01T13:02:14.000Z</time>
      </trkpt>
      <trkpt lat="43.50348" lon="2.30205">
        <ele>316</ele>
        <time>2017-06-01T13:02:15.000Z</time>
      </trkpt>
      <trkpt lat="43.50343" lon="2.30198">
        <ele>316</ele>
        <time>2017-06-01T13:02:16.000Z</time>
      </trkpt>
      <trkpt lat="43.5034" lon="2.30193">
        <ele>315.9</ele>
        <time>2017-06-01T13:02:17.000Z</time>
      </trkpt>
      <trkpt lat="43.50338" lon="2.30186">
        <ele>315.9</ele>
        <time>2017-06-01T13:02:18.000Z</time>
      </trkpt>
      <trkpt lat="43.50341" lon="2.30176">
        <ele>315.8</ele>
        <time>2017-06-01T13:02:19.000Z</time>
      </trkpt>
      <trkpt lat="43.5034" lon="2.30165">
        <ele>315.7</ele>
        <time>2017-06-01T13:02:20.000Z</time>
      </trkpt>
      <trkpt lat="43.5034" lon="2.30157">
        <ele>315.7</ele>
        <time>2017-06-01T13:02:21.000Z</time>
      </trkpt>
      <trkpt lat="43.50351" lon="2.30155">
        <ele>315.6</ele>
        <time>2017-06-01T13:02:22.000Z</time>
      </trkpt>
      <trkpt lat="43.50354" lon="2.30151">
        <ele>315.6</ele>
        <time>2017-06-01T13:02:23.000Z</time>
      </trkpt>
      <trkpt lat="43.50357" lon="2.30149">
        <ele>315.5</ele>
        <time>2017-06-01T13:02:24.000Z</time>
      </trkpt>
      <trkpt lat="43.50363" lon="2.30148">
        <ele>315.5</ele>
        <time>2017-06-01T13:02:25.000Z</time>
      </trkpt>
      <trkpt lat="43.5036" lon="2.3015">
        <ele>315.5</ele>
        <time>2017-06-01T13:02:26.000Z</time>
      </trkpt>
      <trkpt lat="43.5038" lon="2.30151">
        <ele>315.3</ele>
        <time>2017-06-01T13:02:28.000Z</time>
      </trkpt>
      <trkpt lat="43.50388" lon="2.3015">
        <ele>315.3</ele>
        <time>2017-06-01T13:02:29.000Z</time>
      </trkpt>
      <trkpt lat="43.50395" lon="2.30149">
        <ele>315.2</ele>
        <time>2017-06-01T13:02:30.000Z</time>
      </trkpt>
      <trkpt lat="43.50399" lon="2.30146">
        <ele>315.2</ele>
        <time>2017-06-01T13:02:31.000Z</time>
      </trkpt>
      <trkpt lat="43.50405" lon="2.30145">
        <ele>315.2</ele>
        <time>2017-06-01T13:02:32.000Z</time>
      </trkpt>
      <trkpt lat="43.50411" lon="2.30146">
        <ele>315.1</ele>
        <time>2017-06-01T13:02:33.000Z</time>
      </trkpt>
      <trkpt lat="43.50416" lon="2.30144">
        <ele>315.1</ele>
        <time>2017-06-01T13:02:34.000Z</time>
      </trkpt>
      <trkpt lat="43.50422" lon="2.30144">
        <ele>315</ele>
        <time>2017-06-01T13:02:35.000Z</time>
      </trkpt>
      <trkpt lat="43.5043" lon="2.30146">
        <ele>315</ele>
        <time>2017-06-01T13:02:36.000Z</time>
      </trkpt>
      <trkpt lat="43.50438" lon="2.30145">
        <ele>314.8</ele>
        <time>2017-06-01T13:02:37.000Z</time>
      </trkpt>
      <trkpt lat="43.50446" lon="2.30145">
        <ele>314.7</ele>
        <time>2017-06-01T13:02:38.000Z</time>
      </trkpt>
      <trkpt lat="43.50455" lon="2.30144">
        <ele>314.7</ele>
        <time>2017-06-01T13:02:39.000Z</time>
      </trkpt>
      <trkpt lat="43.50462" lon="2.30141">
        <ele>314.6</ele>
        <time>2017-06-01T13:02:40.000Z</time>
      </trkpt>
      <trkpt lat="43.50465" lon="2.30137">
        <ele>314.6</ele>
        <time>2017-06-01T13:02:41.000Z</time>
      </trkpt>
      <trkpt lat="43.5047" lon="2.30131">
        <ele>314.5</ele>
        <time>2017-06-01T13:02:42.000Z</time>
      </trkpt>
      <trkpt lat="43.50473" lon="2.30123">
        <ele>314.4</ele>
        <time>2017-06-01T13:02:43.000Z</time>
      </trkpt>
      <trkpt lat="43.50476" lon="2.30114">
        <ele>314.3</ele>
        <time>2017-06-01T13:02:44.000Z</time>
      </trkpt>
      <trkpt lat="43.50478" lon="2.30105">
        <ele>314.3</ele>
        <time>2017-06-01T13:02:45.000Z</time>
      </trkpt>
      <trkpt lat="43.5048" lon="2.30096">
        <ele>314.2</ele>
        <time>2017-06-01T13:02:46.000Z</time>
      </trkpt>
      <trkpt lat="43.50482" lon="2.30087">
        <ele>314.2</ele>
        <time>2017-06-01T13:02:47.000Z</time>
      </trkpt>
      <trkpt lat="43.50484" lon="2.3008">
        <ele>314.1</ele>
        <time>2017-06-01T13:02:48.000Z</time>
      </trkpt>
      <trkpt lat="43.50486" lon="2.30073">
        <ele>314.1</ele>
        <time>2017-06-01T13:02:49.000Z</time>
      </trkpt>
      <trkpt lat="43.50488" lon="2.30065">
        <ele>314</ele>
        <time>2017-06-01T13:02:50.000Z</time>
      </trkpt>
      <trkpt lat="43.5049" lon="2.30057">
        <ele>314</ele>
        <time>2017-06-01T13:02:51.000Z</time>
      </trkpt>
      <trkpt lat="43.50489" lon="2.30048">
        <ele>314</ele>
        <time>2017-06-01T13:02:52.000Z</time>
      </trkpt>
      <trkpt lat="43.5049" lon="2.30041">
        <ele>313.9</ele>
        <time>2017-06-01T13:02:53.000Z</time>
      </trkpt>
      <trkpt lat="43.5049" lon="2.30034">
        <ele>313.9</ele>
        <time>2017-06-01T13:02:54.000Z</time>
      </trkpt>
      <trkpt lat="43.50489" lon="2.30028">
        <ele>313.9</ele>
        <time>2017-06-01T13:02:55.000Z</time>
      </trkpt>
      <trkpt lat="43.50487" lon="2.3002">
        <ele>313.8</ele>
        <time>2017-06-01T13:02:56.000Z</time>
      </trkpt>
      <trkpt lat="43.50484" lon="2.30014">
        <ele>313.8</ele>
        <time>2017-06-01T13:02:57.000Z</time>
      </trkpt>
      <trkpt lat="43.5048" lon="2.30008">
        <ele>313.8</ele>
        <time>2017-06-01T13:02:58.000Z</time>
      </trkpt>
      <trkpt lat="43.50477" lon="2.30001">
        <ele>313.8</ele>
        <time>2017-06-01T13:02:59.000Z</time>
      </trkpt>
      <trkpt lat="43.50472" lon="2.29994">
        <ele>313.7</ele>
        <time>2017-06-01T13:03:00.000Z</time>
      </trkpt>
      <trkpt lat="43.50467" lon="2.29991">
        <ele>313.7</ele>
        <time>2017-06-01T13:03:01.000Z</time>
      </trkpt>
      <trkpt lat="43.50463" lon="2.29984">
        <ele>313.7</ele>
        <time>2017-06-01T13:03:02.000Z</time>
      </trkpt>
      <trkpt lat="43.50459" lon="2.29981">
        <ele>313.7</ele>
        <time>2017-06-01T13:03:03.000Z</time>
      </trkpt>
      <trkpt lat="43.50453" lon="2.29978">
        <ele>313.7</ele>
        <time>2017-06-01T13:03:04.000Z</time>
      </trkpt>
      <trkpt lat="43.50447" lon="2.29973">
        <ele>313.7</ele>
        <time>2017-06-01T13:03:05.000Z</time>
      </trkpt>
      <trkpt lat="43.50443" lon="2.29968">
        <ele>313.6</ele>
        <time>2017-06-01T13:03:06.000Z</time>
      </trkpt>
      <trkpt lat="43.50437" lon="2.29965">
        <ele>313.6</ele>
        <time>2017-06-01T13:03:07.000Z</time>
      </trkpt>
      <trkpt lat="43.50434" lon="2.29959">
        <ele>313.6</ele>
        <time>2017-06-01T13:03:08.000Z</time>
      </trkpt>
      <trkpt lat="43.50431" lon="2.29955">
        <ele>313.6</ele>
        <time>2017-06-01T13:03:09.000Z</time>
      </trkpt>
      <trkpt lat="43.50425" lon="2.2995">
        <ele>313.6</ele>
        <time>2017-06-01T13:03:10.000Z</time>
      </trkpt>
      <trkpt lat="43.50421" lon="2.29945">
        <ele>313.6</ele>
        <time>2017-06-01T13:03:11.000Z</time>
      </trkpt>
      <trkpt lat="43.50414" lon="2.29941">
        <ele>313.6</ele>
        <time>2017-06-01T13:03:12.000Z</time>
      </trkpt>
      <trkpt lat="43.50409" lon="2.29936">
        <ele>313.6</ele>
        <time>2017-06-01T13:03:13.000Z</time>
      </trkpt>
      <trkpt lat="43.50405" lon="2.29932">
        <ele>313.6</ele>
        <time>2017-06-01T13:03:14.000Z</time>
      </trkpt>
      <trkpt lat="43.50403" lon="2.29928">
        <ele>313.6</ele>
        <time>2017-06-01T13:03:15.000Z</time>
      </trkpt>
      <trkpt lat="43.50398" lon="2.29924">
        <ele>313.6</ele>
        <time>2017-06-01T13:03:16.000Z</time>
      </trkpt>
      <trkpt lat="43.50395" lon="2.29917">
        <ele>313.6</ele>
        <time>2017-06-01T13:03:17.000Z</time>
      </trkpt>
      <trkpt lat="43.50391" lon="2.29911">
        <ele>313.7</ele>
        <time>2017-06-01T13:03:18.000Z</time>
      </trkpt>
      <trkpt lat="43.50391" lon="2.29906">
        <ele>313.7</ele>
        <time>2017-06-01T13:03:19.000Z</time>
      </trkpt>
      <trkpt lat="43.50389" lon="2.29901">
        <ele>313.9</ele>
        <time>2017-06-01T13:03:20.000Z</time>
      </trkpt>
      <trkpt lat="43.50385" lon="2.29895">
        <ele>314.1</ele>
        <time>2017-06-01T13:03:21.000Z</time>
      </trkpt>
      <trkpt lat="43.50384" lon="2.29888">
        <ele>314.2</ele>
        <time>2017-06-01T13:03:22.000Z</time>
      </trkpt>
      <trkpt lat="43.5038" lon="2.29882">
        <ele>314.3</ele>
        <time>2017-06-01T13:03:23.000Z</time>
      </trkpt>
      <trkpt lat="43.50389" lon="2.29881">
        <ele>314.4</ele>
        <time>2017-06-01T13:03:24.000Z</time>
      </trkpt>
      <trkpt lat="43.50388" lon="2.29877">
        <ele>314.4</ele>
        <time>2017-06-01T13:03:25.000Z</time>
      </trkpt>
      <trkpt lat="43.50397" lon="2.29871">
        <ele>314.4</ele>
        <time>2017-06-01T13:03:27.000Z</time>
      </trkpt>
      <trkpt lat="43.50406" lon="2.29871">
        <ele>314.4</ele>
        <time>2017-06-01T13:03:28.000Z</time>
      </trkpt>
      <trkpt lat="43.50411" lon="2.29869">
        <ele>314.4</ele>
        <time>2017-06-01T13:03:29.000Z</time>
      </trkpt>
      <trkpt lat="43.50418" lon="2.29868">
        <ele>314.4</ele>
        <time>2017-06-01T13:03:31.000Z</time>
      </trkpt>
      <trkpt lat="43.50419" lon="2.29864">
        <ele>314.4</ele>
        <time>2017-06-01T13:03:32.000Z</time>
      </trkpt>
      <trkpt lat="43.50424" lon="2.29861">
        <ele>314.4</ele>
        <time>2017-06-01T13:03:33.000Z</time>
      </trkpt>
      <trkpt lat="43.50428" lon="2.29858">
        <ele>314.4</ele>
        <time>2017-06-01T13:03:35.000Z</time>
      </trkpt>
      <trkpt lat="43.50431" lon="2.29856">
        <ele>314.4</ele>
        <time>2017-06-01T13:03:36.000Z</time>
      </trkpt>
      <trkpt lat="43.50435" lon="2.29857">
        <ele>314.4</ele>
        <time>2017-06-01T13:03:37.000Z</time>
      </trkpt>
      <trkpt lat="43.50441" lon="2.29857">
        <ele>314.3</ele>
        <time>2017-06-01T13:03:38.000Z</time>
      </trkpt>
      <trkpt lat="43.50446" lon="2.29855">
        <ele>314.3</ele>
        <time>2017-06-01T13:03:39.000Z</time>
      </trkpt>
      <trkpt lat="43.50452" lon="2.29857">
        <ele>314.3</ele>
        <time>2017-06-01T13:03:40.000Z</time>
      </trkpt>
      <trkpt lat="43.50456" lon="2.29858">
        <ele>314.3</ele>
        <time>2017-06-01T13:03:41.000Z</time>
      </trkpt>
      <trkpt lat="43.50467" lon="2.29857">
        <ele>314.3</ele>
        <time>2017-06-01T13:03:43.000Z</time>
      </trkpt>
      <trkpt lat="43.5047" lon="2.29858">
        <ele>314.4</ele>
        <time>2017-06-01T13:03:44.000Z</time>
      </trkpt>
      <trkpt lat="43.50482" lon="2.29858">
        <ele>314.6</ele>
        <time>2017-06-01T13:03:45.000Z</time>
      </trkpt>
      <trkpt lat="43.50493" lon="2.29861">
        <ele>314.8</ele>
        <time>2017-06-01T13:03:46.000Z</time>
      </trkpt>
      <trkpt lat="43.505" lon="2.2986">
        <ele>315</ele>
        <time>2017-06-01T13:03:47.000Z</time>
      </trkpt>
      <trkpt lat="43.50506" lon="2.29857">
        <ele>315</ele>
        <time>2017-06-01T13:03:48.000Z</time>
      </trkpt>
      <trkpt lat="43.5051" lon="2.29855">
        <ele>315.1</ele>
        <time>2017-06-01T13:03:49.000Z</time>
      </trkpt>
      <trkpt lat="43.50516" lon="2.29854">
        <ele>315.1</ele>
        <time>2017-06-01T13:03:50.000Z</time>
      </trkpt>
      <trkpt lat="43.5052" lon="2.29852">
        <ele>315.1</ele>
        <time>2017-06-01T13:03:51.000Z</time>
      </trkpt>
      <trkpt lat="43.50525" lon="2.29853">
        <ele>315.1</ele>
        <time>2017-06-01T13:03:52.000Z</time>
      </trkpt>
      <trkpt lat="43.5053" lon="2.29853">
        <ele>315.1</ele>
        <time>2017-06-01T13:03:54.000Z</time>
      </trkpt>
      <trkpt lat="43.50534" lon="2.29851">
        <ele>315.2</ele>
        <time>2017-06-01T13:03:55.000Z</time>
      </trkpt>
      <trkpt lat="43.50537" lon="2.29852">
        <ele>315.2</ele>
        <time>2017-06-01T13:03:56.000Z</time>
      </trkpt>
      <trkpt lat="43.50543" lon="2.29851">
        <ele>315.2</ele>
        <time>2017-06-01T13:03:57.000Z</time>
      </trkpt>
      <trkpt lat="43.50549" lon="2.29849">
        <ele>315.2</ele>
        <time>2017-06-01T13:03:58.000Z</time>
      </trkpt>
      <trkpt lat="43.50557" lon="2.29851">
        <ele>315.2</ele>
        <time>2017-06-01T13:03:59.000Z</time>
      </trkpt>
      <trkpt lat="43.50562" lon="2.29849">
        <ele>315.2</ele>
        <time>2017-06-01T13:04:00.000Z</time>
      </trkpt>
      <trkpt lat="43.5057" lon="2.29852">
        <ele>315.1</ele>
        <time>2017-06-01T13:04:02.000Z</time>
      </trkpt>
      <trkpt lat="43.50578" lon="2.29853">
        <ele>315.1</ele>
        <time>2017-06-01T13:04:03.000Z</time>
      </trkpt>
      <trkpt lat="43.5058" lon="2.29857">
        <ele>315.1</ele>
        <time>2017-06-01T13:04:04.000Z</time>
      </trkpt>
      <trkpt lat="43.50586" lon="2.29861">
        <ele>315.1</ele>
        <time>2017-06-01T13:04:05.000Z</time>
      </trkpt>
      <trkpt lat="43.50592" lon="2.29864">
        <ele>315.1</ele>
        <time>2017-06-01T13:04:06.000Z</time>
      </trkpt>
      <trkpt lat="43.50598" lon="2.29867">
        <ele>315.1</ele>
        <time>2017-06-01T13:04:07.000Z</time>
      </trkpt>
      <trkpt lat="43.50604" lon="2.29869">
        <ele>315.1</ele>
        <time>2017-06-01T13:04:08.000Z</time>
      </trkpt>
      <trkpt lat="43.50607" lon="2.29872">
        <ele>315.1</ele>
        <time>2017-06-01T13:04:09.000Z</time>
      </trkpt>
      <trkpt lat="43.50611" lon="2.29874">
        <ele>315</ele>
        <time>2017-06-01T13:04:10.000Z</time>
      </trkpt>
      <trkpt lat="43.50617" lon="2.29879">
        <ele>315</ele>
        <time>2017-06-01T13:04:11.000Z</time>
      </trkpt>
      <trkpt lat="43.5062" lon="2.29881">
        <ele>315</ele>
        <time>2017-06-01T13:04:12.000Z</time>
      </trkpt>
      <trkpt lat="43.50624" lon="2.29885">
        <ele>315</ele>
        <time>2017-06-01T13:04:13.000Z</time>
      </trkpt>
      <trkpt lat="43.50628" lon="2.29889">
        <ele>315</ele>
        <time>2017-06-01T13:04:14.000Z</time>
      </trkpt>
      <trkpt lat="43.50633" lon="2.29893">
        <ele>315</ele>
        <time>2017-06-01T13:04:15.000Z</time>
      </trkpt>
      <trkpt lat="43.50637" lon="2.29894">
        <ele>315</ele>
        <time>2017-06-01T13:04:16.000Z</time>
      </trkpt>
      <trkpt lat="43.50641" lon="2.29895">
        <ele>315</ele>
        <time>2017-06-01T13:04:17.000Z</time>
      </trkpt>
      <trkpt lat="43.50644" lon="2.29897">
        <ele>315</ele>
        <time>2017-06-01T13:04:18.000Z</time>
      </trkpt>
      <trkpt lat="43.50648" lon="2.29897">
        <ele>315</ele>
        <time>2017-06-01T13:04:19.000Z</time>
      </trkpt>
      <trkpt lat="43.50651" lon="2.29897">
        <ele>315</ele>
        <time>2017-06-01T13:04:20.000Z</time>
      </trkpt>
      <trkpt lat="43.50655" lon="2.29896">
        <ele>315</ele>
        <time>2017-06-01T13:04:21.000Z</time>
      </trkpt>
      <trkpt lat="43.50661" lon="2.29895">
        <ele>315.1</ele>
        <time>2017-06-01T13:04:22.000Z</time>
      </trkpt>
      <trkpt lat="43.50665" lon="2.29889">
        <ele>315.2</ele>
        <time>2017-06-01T13:04:23.000Z</time>
      </trkpt>
      <trkpt lat="43.50668" lon="2.29884">
        <ele>315.4</ele>
        <time>2017-06-01T13:04:24.000Z</time>
      </trkpt>
      <trkpt lat="43.50672" lon="2.29877">
        <ele>315.7</ele>
        <time>2017-06-01T13:04:25.000Z</time>
      </trkpt>
      <trkpt lat="43.50673" lon="2.29868">
        <ele>316.4</ele>
        <time>2017-06-01T13:04:26.000Z</time>
      </trkpt>
      <trkpt lat="43.50674" lon="2.29864">
        <ele>316.7</ele>
        <time>2017-06-01T13:04:27.000Z</time>
      </trkpt>
      <trkpt lat="43.50672" lon="2.29855">
        <ele>317.1</ele>
        <time>2017-06-01T13:04:28.000Z</time>
      </trkpt>
      <trkpt lat="43.50673" lon="2.29849">
        <ele>317.4</ele>
        <time>2017-06-01T13:04:29.000Z</time>
      </trkpt>
      <trkpt lat="43.50675" lon="2.29842">
        <ele>317.7</ele>
        <time>2017-06-01T13:04:30.000Z</time>
      </trkpt>
      <trkpt lat="43.50674" lon="2.29835">
        <ele>318</ele>
        <time>2017-06-01T13:04:31.000Z</time>
      </trkpt>
      <trkpt lat="43.50676" lon="2.29829">
        <ele>318.3</ele>
        <time>2017-06-01T13:04:32.000Z</time>
      </trkpt>
      <trkpt lat="43.50675" lon="2.29823">
        <ele>318.5</ele>
        <time>2017-06-01T13:04:33.000Z</time>
      </trkpt>
      <trkpt lat="43.50675" lon="2.29816">
        <ele>318.8</ele>
        <time>2017-06-01T13:04:34.000Z</time>
      </trkpt>
      <trkpt lat="43.50676" lon="2.29811">
        <ele>319</ele>
        <time>2017-06-01T13:04:35.000Z</time>
      </trkpt>
      <trkpt lat="43.50678" lon="2.29807">
        <ele>319.1</ele>
        <time>2017-06-01T13:04:36.000Z</time>
      </trkpt>
      <trkpt lat="43.50674" lon="2.29804">
        <ele>319.3</ele>
        <time>2017-06-01T13:04:37.000Z</time>
      </trkpt>
      <trkpt lat="43.50673" lon="2.298">
        <ele>319.4</ele>
        <time>2017-06-01T13:04:38.000Z</time>
      </trkpt>
      <trkpt lat="43.50671" lon="2.29796">
        <ele>319.5</ele>
        <time>2017-06-01T13:04:39.000Z</time>
      </trkpt>
      <trkpt lat="43.50667" lon="2.29794">
        <ele>319.6</ele>
        <time>2017-06-01T13:04:41.000Z</time>
      </trkpt>
      <trkpt lat="43.50663" lon="2.29793">
        <ele>319.7</ele>
        <time>2017-06-01T13:04:43.000Z</time>
      </trkpt>
      <trkpt lat="43.5066" lon="2.29792">
        <ele>319.8</ele>
        <time>2017-06-01T13:04:44.000Z</time>
      </trkpt>
      <trkpt lat="43.50656" lon="2.2979">
        <ele>320</ele>
        <time>2017-06-01T13:04:46.000Z</time>
      </trkpt>
    </trkseg>
  </trk>
</gpx>